<?xml version="1.0" encoding="UTF-8" standalone="no" ?>
<gpx xmlns="http://www.topografix.com/GPX/1/1" xmlns:xsi="http://www.w3.org/2001/XMLSchema-instance" xsi:schemaLocation="http://www.topografix.com/GPX/1/1 http://www.topografix.com/GPX/1/1/gpx.xsd" version="1.1" creator="VisuGPX - https://www.visugpx.com">
  <metadata>
    <name>Champagnat Cyclisme</name>
  </metadata>
  <trk>
    <name><![CDATA[Champagnat Cyclisme]]></name>
    <trkseg>
      <trkpt lat="46.48277" lon="5.36842">
        <ele>263.79998779297</ele>
        <time>2020-09-12T06:18:28.000Z</time>
      </trkpt>
      <trkpt lat="46.48268" lon="5.36829">
        <ele>263</ele>
        <time>2020-09-12T06:18:29.000Z</time>
      </trkpt>
      <trkpt lat="46.48249" lon="5.36807">
        <ele>261.79998779297</ele>
        <time>2020-09-12T06:18:31.000Z</time>
      </trkpt>
      <trkpt lat="46.48239" lon="5.36798">
        <ele>261</ele>
        <time>2020-09-12T06:18:32.000Z</time>
      </trkpt>
      <trkpt lat="46.48228" lon="5.3679">
        <ele>260</ele>
        <time>2020-09-12T06:18:33.000Z</time>
      </trkpt>
      <trkpt lat="46.48207" lon="5.36773">
        <ele>258</ele>
        <time>2020-09-12T06:18:35.000Z</time>
      </trkpt>
      <trkpt lat="46.48196" lon="5.36764">
        <ele>256.79998779297</ele>
        <time>2020-09-12T06:18:36.000Z</time>
      </trkpt>
      <trkpt lat="46.48186" lon="5.36755">
        <ele>255.80000305176</ele>
        <time>2020-09-12T06:18:37.000Z</time>
      </trkpt>
      <trkpt lat="46.48176" lon="5.36746">
        <ele>254.80000305176</ele>
        <time>2020-09-12T06:18:38.000Z</time>
      </trkpt>
      <trkpt lat="46.48166" lon="5.36738">
        <ele>254.19999694824</ele>
        <time>2020-09-12T06:18:39.000Z</time>
      </trkpt>
      <trkpt lat="46.48146" lon="5.3672">
        <ele>252.80000305176</ele>
        <time>2020-09-12T06:18:41.000Z</time>
      </trkpt>
      <trkpt lat="46.48128" lon="5.36706">
        <ele>251.39999389648</ele>
        <time>2020-09-12T06:18:43.000Z</time>
      </trkpt>
      <trkpt lat="46.48115" lon="5.36694">
        <ele>250.39999389648</ele>
        <time>2020-09-12T06:18:45.000Z</time>
      </trkpt>
      <trkpt lat="46.48112" lon="5.36687">
        <ele>250</ele>
        <time>2020-09-12T06:18:46.000Z</time>
      </trkpt>
      <trkpt lat="46.48111" lon="5.3668">
        <ele>249.19999694824</ele>
        <time>2020-09-12T06:18:47.000Z</time>
      </trkpt>
      <trkpt lat="46.48113" lon="5.36673">
        <ele>249</ele>
        <time>2020-09-12T06:18:48.000Z</time>
      </trkpt>
      <trkpt lat="46.48117" lon="5.36668">
        <ele>248.80000305176</ele>
        <time>2020-09-12T06:18:49.000Z</time>
      </trkpt>
      <trkpt lat="46.48128" lon="5.36658">
        <ele>248.39999389648</ele>
        <time>2020-09-12T06:18:51.000Z</time>
      </trkpt>
      <trkpt lat="46.4814" lon="5.36646">
        <ele>248.19999694824</ele>
        <time>2020-09-12T06:18:53.000Z</time>
      </trkpt>
      <trkpt lat="46.48146" lon="5.3664">
        <ele>248</ele>
        <time>2020-09-12T06:18:54.000Z</time>
      </trkpt>
      <trkpt lat="46.48152" lon="5.36633">
        <ele>248</ele>
        <time>2020-09-12T06:18:55.000Z</time>
      </trkpt>
      <trkpt lat="46.48158" lon="5.36626">
        <ele>247.80000305176</ele>
        <time>2020-09-12T06:18:56.000Z</time>
      </trkpt>
      <trkpt lat="46.48164" lon="5.3662">
        <ele>247.80000305176</ele>
        <time>2020-09-12T06:18:57.000Z</time>
      </trkpt>
      <trkpt lat="46.48178" lon="5.36609">
        <ele>247.39999389648</ele>
        <time>2020-09-12T06:18:59.000Z</time>
      </trkpt>
      <trkpt lat="46.48186" lon="5.36605">
        <ele>247</ele>
        <time>2020-09-12T06:19:00.000Z</time>
      </trkpt>
      <trkpt lat="46.48194" lon="5.36602">
        <ele>246.60000610352</ele>
        <time>2020-09-12T06:19:01.000Z</time>
      </trkpt>
      <trkpt lat="46.48209" lon="5.36596">
        <ele>246.39999389648</ele>
        <time>2020-09-12T06:19:03.000Z</time>
      </trkpt>
      <trkpt lat="46.48215" lon="5.36589">
        <ele>246.19999694824</ele>
        <time>2020-09-12T06:19:04.000Z</time>
      </trkpt>
      <trkpt lat="46.48219" lon="5.3658">
        <ele>246</ele>
        <time>2020-09-12T06:19:05.000Z</time>
      </trkpt>
      <trkpt lat="46.48222" lon="5.3657">
        <ele>245.80000305176</ele>
        <time>2020-09-12T06:19:06.000Z</time>
      </trkpt>
      <trkpt lat="46.48225" lon="5.3656">
        <ele>245.60000610352</ele>
        <time>2020-09-12T06:19:07.000Z</time>
      </trkpt>
      <trkpt lat="46.48236" lon="5.36545">
        <ele>245.39999389648</ele>
        <time>2020-09-12T06:19:09.000Z</time>
      </trkpt>
      <trkpt lat="46.48242" lon="5.36538">
        <ele>245.19999694824</ele>
        <time>2020-09-12T06:19:10.000Z</time>
      </trkpt>
      <trkpt lat="46.48249" lon="5.36531">
        <ele>245.19999694824</ele>
        <time>2020-09-12T06:19:11.000Z</time>
      </trkpt>
      <trkpt lat="46.48262" lon="5.36517">
        <ele>245</ele>
        <time>2020-09-12T06:19:13.000Z</time>
      </trkpt>
      <trkpt lat="46.48274" lon="5.36503">
        <ele>245</ele>
        <time>2020-09-12T06:19:15.000Z</time>
      </trkpt>
      <trkpt lat="46.48281" lon="5.36496">
        <ele>244.60000610352</ele>
        <time>2020-09-12T06:19:16.000Z</time>
      </trkpt>
      <trkpt lat="46.48287" lon="5.3649">
        <ele>244.39999389648</ele>
        <time>2020-09-12T06:19:17.000Z</time>
      </trkpt>
      <trkpt lat="46.483" lon="5.36476">
        <ele>243.80000305176</ele>
        <time>2020-09-12T06:19:19.000Z</time>
      </trkpt>
      <trkpt lat="46.48314" lon="5.36461">
        <ele>243.60000610352</ele>
        <time>2020-09-12T06:19:21.000Z</time>
      </trkpt>
      <trkpt lat="46.48327" lon="5.36447">
        <ele>243</ele>
        <time>2020-09-12T06:19:23.000Z</time>
      </trkpt>
      <trkpt lat="46.48341" lon="5.36432">
        <ele>242.39999389648</ele>
        <time>2020-09-12T06:19:25.000Z</time>
      </trkpt>
      <trkpt lat="46.48354" lon="5.36417">
        <ele>241.80000305176</ele>
        <time>2020-09-12T06:19:27.000Z</time>
      </trkpt>
      <trkpt lat="46.48368" lon="5.36403">
        <ele>241.19999694824</ele>
        <time>2020-09-12T06:19:29.000Z</time>
      </trkpt>
      <trkpt lat="46.48382" lon="5.36389">
        <ele>240.60000610352</ele>
        <time>2020-09-12T06:19:31.000Z</time>
      </trkpt>
      <trkpt lat="46.48395" lon="5.36375">
        <ele>240.19999694824</ele>
        <time>2020-09-12T06:19:33.000Z</time>
      </trkpt>
      <trkpt lat="46.48402" lon="5.36368">
        <ele>239.80000305176</ele>
        <time>2020-09-12T06:19:34.000Z</time>
      </trkpt>
      <trkpt lat="46.48409" lon="5.36362">
        <ele>239.60000610352</ele>
        <time>2020-09-12T06:19:35.000Z</time>
      </trkpt>
      <trkpt lat="46.48423" lon="5.36353">
        <ele>239</ele>
        <time>2020-09-12T06:19:37.000Z</time>
      </trkpt>
      <trkpt lat="46.48431" lon="5.3635">
        <ele>238.80000305176</ele>
        <time>2020-09-12T06:19:38.000Z</time>
      </trkpt>
      <trkpt lat="46.48438" lon="5.36348">
        <ele>238.80000305176</ele>
        <time>2020-09-12T06:19:39.000Z</time>
      </trkpt>
      <trkpt lat="46.48454" lon="5.36345">
        <ele>238.60000610352</ele>
        <time>2020-09-12T06:19:41.000Z</time>
      </trkpt>
      <trkpt lat="46.48461" lon="5.36344">
        <ele>238.60000610352</ele>
        <time>2020-09-12T06:19:42.000Z</time>
      </trkpt>
      <trkpt lat="46.48469" lon="5.36343">
        <ele>238.60000610352</ele>
        <time>2020-09-12T06:19:43.000Z</time>
      </trkpt>
      <trkpt lat="46.48484" lon="5.3634">
        <ele>238.60000610352</ele>
        <time>2020-09-12T06:19:45.000Z</time>
      </trkpt>
      <trkpt lat="46.48499" lon="5.36338">
        <ele>238.60000610352</ele>
        <time>2020-09-12T06:19:47.000Z</time>
      </trkpt>
      <trkpt lat="46.48513" lon="5.36335">
        <ele>238.60000610352</ele>
        <time>2020-09-12T06:19:49.000Z</time>
      </trkpt>
      <trkpt lat="46.48528" lon="5.36333">
        <ele>238.60000610352</ele>
        <time>2020-09-12T06:19:51.000Z</time>
      </trkpt>
      <trkpt lat="46.48542" lon="5.36331">
        <ele>238.60000610352</ele>
        <time>2020-09-12T06:19:53.000Z</time>
      </trkpt>
      <trkpt lat="46.48557" lon="5.36328">
        <ele>238.60000610352</ele>
        <time>2020-09-12T06:19:55.000Z</time>
      </trkpt>
      <trkpt lat="46.48572" lon="5.36326">
        <ele>238.60000610352</ele>
        <time>2020-09-12T06:19:57.000Z</time>
      </trkpt>
      <trkpt lat="46.48588" lon="5.36324">
        <ele>238.60000610352</ele>
        <time>2020-09-12T06:19:59.000Z</time>
      </trkpt>
      <trkpt lat="46.48603" lon="5.36321">
        <ele>238.39999389648</ele>
        <time>2020-09-12T06:20:01.000Z</time>
      </trkpt>
      <trkpt lat="46.48611" lon="5.3632">
        <ele>238.39999389648</ele>
        <time>2020-09-12T06:20:02.000Z</time>
      </trkpt>
      <trkpt lat="46.48618" lon="5.36317">
        <ele>238.39999389648</ele>
        <time>2020-09-12T06:20:03.000Z</time>
      </trkpt>
      <trkpt lat="46.4863" lon="5.36302">
        <ele>237.80000305176</ele>
        <time>2020-09-12T06:20:05.000Z</time>
      </trkpt>
      <trkpt lat="46.48636" lon="5.3628">
        <ele>237</ele>
        <time>2020-09-12T06:20:07.000Z</time>
      </trkpt>
      <trkpt lat="46.48638" lon="5.36268">
        <ele>236.60000610352</ele>
        <time>2020-09-12T06:20:08.000Z</time>
      </trkpt>
      <trkpt lat="46.4864" lon="5.36255">
        <ele>236.19999694824</ele>
        <time>2020-09-12T06:20:09.000Z</time>
      </trkpt>
      <trkpt lat="46.48643" lon="5.3623">
        <ele>235.60000610352</ele>
        <time>2020-09-12T06:20:11.000Z</time>
      </trkpt>
      <trkpt lat="46.48645" lon="5.36205">
        <ele>234.60000610352</ele>
        <time>2020-09-12T06:20:13.000Z</time>
      </trkpt>
      <trkpt lat="46.48646" lon="5.36192">
        <ele>233.60000610352</ele>
        <time>2020-09-12T06:20:14.000Z</time>
      </trkpt>
      <trkpt lat="46.48647" lon="5.3618">
        <ele>233</ele>
        <time>2020-09-12T06:20:15.000Z</time>
      </trkpt>
      <trkpt lat="46.48649" lon="5.36155">
        <ele>232.19999694824</ele>
        <time>2020-09-12T06:20:17.000Z</time>
      </trkpt>
      <trkpt lat="46.48652" lon="5.36132">
        <ele>231.60000610352</ele>
        <time>2020-09-12T06:20:19.000Z</time>
      </trkpt>
      <trkpt lat="46.48656" lon="5.36108">
        <ele>231.19999694824</ele>
        <time>2020-09-12T06:20:21.000Z</time>
      </trkpt>
      <trkpt lat="46.48661" lon="5.36086">
        <ele>231</ele>
        <time>2020-09-12T06:20:23.000Z</time>
      </trkpt>
      <trkpt lat="46.48666" lon="5.36065">
        <ele>231</ele>
        <time>2020-09-12T06:20:25.000Z</time>
      </trkpt>
      <trkpt lat="46.4867" lon="5.36045">
        <ele>230.80000305176</ele>
        <time>2020-09-12T06:20:27.000Z</time>
      </trkpt>
      <trkpt lat="46.48673" lon="5.36035">
        <ele>230.60000610352</ele>
        <time>2020-09-12T06:20:28.000Z</time>
      </trkpt>
      <trkpt lat="46.48675" lon="5.36026">
        <ele>230.60000610352</ele>
        <time>2020-09-12T06:20:29.000Z</time>
      </trkpt>
      <trkpt lat="46.48678" lon="5.36009">
        <ele>230.60000610352</ele>
        <time>2020-09-12T06:20:31.000Z</time>
      </trkpt>
      <trkpt lat="46.4868" lon="5.35992">
        <ele>230.60000610352</ele>
        <time>2020-09-12T06:20:33.000Z</time>
      </trkpt>
      <trkpt lat="46.48682" lon="5.35984">
        <ele>231</ele>
        <time>2020-09-12T06:20:34.000Z</time>
      </trkpt>
      <trkpt lat="46.48683" lon="5.35975">
        <ele>231.39999389648</ele>
        <time>2020-09-12T06:20:35.000Z</time>
      </trkpt>
      <trkpt lat="46.48685" lon="5.35957">
        <ele>232</ele>
        <time>2020-09-12T06:20:37.000Z</time>
      </trkpt>
      <trkpt lat="46.48686" lon="5.35947">
        <ele>232.39999389648</ele>
        <time>2020-09-12T06:20:38.000Z</time>
      </trkpt>
      <trkpt lat="46.48687" lon="5.35938">
        <ele>232.60000610352</ele>
        <time>2020-09-12T06:20:39.000Z</time>
      </trkpt>
      <trkpt lat="46.48691" lon="5.3592">
        <ele>233.19999694824</ele>
        <time>2020-09-12T06:20:41.000Z</time>
      </trkpt>
      <trkpt lat="46.48696" lon="5.35902">
        <ele>233.19999694824</ele>
        <time>2020-09-12T06:20:43.000Z</time>
      </trkpt>
      <trkpt lat="46.48702" lon="5.35884">
        <ele>233.19999694824</ele>
        <time>2020-09-12T06:20:45.000Z</time>
      </trkpt>
      <trkpt lat="46.4871" lon="5.35866">
        <ele>233.19999694824</ele>
        <time>2020-09-12T06:20:47.000Z</time>
      </trkpt>
      <trkpt lat="46.48717" lon="5.35847">
        <ele>233</ele>
        <time>2020-09-12T06:20:49.000Z</time>
      </trkpt>
      <trkpt lat="46.48725" lon="5.35829">
        <ele>232.80000305176</ele>
        <time>2020-09-12T06:20:51.000Z</time>
      </trkpt>
      <trkpt lat="46.48733" lon="5.3581">
        <ele>232.19999694824</ele>
        <time>2020-09-12T06:20:53.000Z</time>
      </trkpt>
      <trkpt lat="46.48741" lon="5.35793">
        <ele>231.80000305176</ele>
        <time>2020-09-12T06:20:55.000Z</time>
      </trkpt>
      <trkpt lat="46.48745" lon="5.35783">
        <ele>231.60000610352</ele>
        <time>2020-09-12T06:20:56.000Z</time>
      </trkpt>
      <trkpt lat="46.48749" lon="5.35774">
        <ele>231.39999389648</ele>
        <time>2020-09-12T06:20:57.000Z</time>
      </trkpt>
      <trkpt lat="46.48757" lon="5.35756">
        <ele>230.80000305176</ele>
        <time>2020-09-12T06:20:59.000Z</time>
      </trkpt>
      <trkpt lat="46.48764" lon="5.35739">
        <ele>230.60000610352</ele>
        <time>2020-09-12T06:21:01.000Z</time>
      </trkpt>
      <trkpt lat="46.48772" lon="5.35722">
        <ele>230.19999694824</ele>
        <time>2020-09-12T06:21:03.000Z</time>
      </trkpt>
      <trkpt lat="46.48776" lon="5.35714">
        <ele>230.19999694824</ele>
        <time>2020-09-12T06:21:04.000Z</time>
      </trkpt>
      <trkpt lat="46.4878" lon="5.35705">
        <ele>230</ele>
        <time>2020-09-12T06:21:05.000Z</time>
      </trkpt>
      <trkpt lat="46.48787" lon="5.35689">
        <ele>229.80000305176</ele>
        <time>2020-09-12T06:21:07.000Z</time>
      </trkpt>
      <trkpt lat="46.48794" lon="5.35673">
        <ele>229.60000610352</ele>
        <time>2020-09-12T06:21:09.000Z</time>
      </trkpt>
      <trkpt lat="46.48801" lon="5.35657">
        <ele>229.60000610352</ele>
        <time>2020-09-12T06:21:11.000Z</time>
      </trkpt>
      <trkpt lat="46.48808" lon="5.35641">
        <ele>229.60000610352</ele>
        <time>2020-09-12T06:21:13.000Z</time>
      </trkpt>
      <trkpt lat="46.48812" lon="5.35634">
        <ele>229.60000610352</ele>
        <time>2020-09-12T06:21:14.000Z</time>
      </trkpt>
      <trkpt lat="46.48815" lon="5.35626">
        <ele>229.60000610352</ele>
        <time>2020-09-12T06:21:15.000Z</time>
      </trkpt>
      <trkpt lat="46.48821" lon="5.3561">
        <ele>229.80000305176</ele>
        <time>2020-09-12T06:21:17.000Z</time>
      </trkpt>
      <trkpt lat="46.48828" lon="5.35594">
        <ele>229.80000305176</ele>
        <time>2020-09-12T06:21:19.000Z</time>
      </trkpt>
      <trkpt lat="46.48835" lon="5.3558">
        <ele>229.80000305176</ele>
        <time>2020-09-12T06:21:21.000Z</time>
      </trkpt>
      <trkpt lat="46.48839" lon="5.35573">
        <ele>230</ele>
        <time>2020-09-12T06:21:22.000Z</time>
      </trkpt>
      <trkpt lat="46.48844" lon="5.35568">
        <ele>230</ele>
        <time>2020-09-12T06:21:23.000Z</time>
      </trkpt>
      <trkpt lat="46.48856" lon="5.35564">
        <ele>230</ele>
        <time>2020-09-12T06:21:25.000Z</time>
      </trkpt>
      <trkpt lat="46.4887" lon="5.35562">
        <ele>230</ele>
        <time>2020-09-12T06:21:27.000Z</time>
      </trkpt>
      <trkpt lat="46.48884" lon="5.35561">
        <ele>230</ele>
        <time>2020-09-12T06:21:29.000Z</time>
      </trkpt>
      <trkpt lat="46.48892" lon="5.35561">
        <ele>230</ele>
        <time>2020-09-12T06:21:30.000Z</time>
      </trkpt>
      <trkpt lat="46.48899" lon="5.3556">
        <ele>230</ele>
        <time>2020-09-12T06:21:31.000Z</time>
      </trkpt>
      <trkpt lat="46.48915" lon="5.3556">
        <ele>230</ele>
        <time>2020-09-12T06:21:33.000Z</time>
      </trkpt>
      <trkpt lat="46.4893" lon="5.35559">
        <ele>229.60000610352</ele>
        <time>2020-09-12T06:21:35.000Z</time>
      </trkpt>
      <trkpt lat="46.48946" lon="5.35558">
        <ele>229.19999694824</ele>
        <time>2020-09-12T06:21:37.000Z</time>
      </trkpt>
      <trkpt lat="46.48955" lon="5.35558">
        <ele>228.80000305176</ele>
        <time>2020-09-12T06:21:38.000Z</time>
      </trkpt>
      <trkpt lat="46.48963" lon="5.35557">
        <ele>228.60000610352</ele>
        <time>2020-09-12T06:21:39.000Z</time>
      </trkpt>
      <trkpt lat="46.48979" lon="5.35556">
        <ele>227.80000305176</ele>
        <time>2020-09-12T06:21:41.000Z</time>
      </trkpt>
      <trkpt lat="46.48994" lon="5.35556">
        <ele>227.39999389648</ele>
        <time>2020-09-12T06:21:43.000Z</time>
      </trkpt>
      <trkpt lat="46.49009" lon="5.35556">
        <ele>226.60000610352</ele>
        <time>2020-09-12T06:21:45.000Z</time>
      </trkpt>
      <trkpt lat="46.49016" lon="5.35555">
        <ele>226.39999389648</ele>
        <time>2020-09-12T06:21:46.000Z</time>
      </trkpt>
      <trkpt lat="46.49024" lon="5.35555">
        <ele>226.39999389648</ele>
        <time>2020-09-12T06:21:47.000Z</time>
      </trkpt>
      <trkpt lat="46.49038" lon="5.35553">
        <ele>226.39999389648</ele>
        <time>2020-09-12T06:21:49.000Z</time>
      </trkpt>
      <trkpt lat="46.49052" lon="5.35552">
        <ele>226.39999389648</ele>
        <time>2020-09-12T06:21:51.000Z</time>
      </trkpt>
      <trkpt lat="46.49065" lon="5.35551">
        <ele>226.39999389648</ele>
        <time>2020-09-12T06:21:53.000Z</time>
      </trkpt>
      <trkpt lat="46.49078" lon="5.3555">
        <ele>226.39999389648</ele>
        <time>2020-09-12T06:21:55.000Z</time>
      </trkpt>
      <trkpt lat="46.4909" lon="5.3555">
        <ele>226.39999389648</ele>
        <time>2020-09-12T06:21:57.000Z</time>
      </trkpt>
      <trkpt lat="46.49095" lon="5.3555">
        <ele>226.60000610352</ele>
        <time>2020-09-12T06:21:58.000Z</time>
      </trkpt>
      <trkpt lat="46.491" lon="5.3555">
        <ele>226.60000610352</ele>
        <time>2020-09-12T06:21:59.000Z</time>
      </trkpt>
      <trkpt lat="46.49111" lon="5.35551">
        <ele>227.19999694824</ele>
        <time>2020-09-12T06:22:01.000Z</time>
      </trkpt>
      <trkpt lat="46.49122" lon="5.3555">
        <ele>227.60000610352</ele>
        <time>2020-09-12T06:22:03.000Z</time>
      </trkpt>
      <trkpt lat="46.49128" lon="5.35551">
        <ele>227.80000305176</ele>
        <time>2020-09-12T06:22:04.000Z</time>
      </trkpt>
      <trkpt lat="46.49132" lon="5.35551">
        <ele>228</ele>
        <time>2020-09-12T06:22:05.000Z</time>
      </trkpt>
      <trkpt lat="46.49142" lon="5.35551">
        <ele>228.39999389648</ele>
        <time>2020-09-12T06:22:07.000Z</time>
      </trkpt>
      <trkpt lat="46.49147" lon="5.35551">
        <ele>228.60000610352</ele>
        <time>2020-09-12T06:22:08.000Z</time>
      </trkpt>
      <trkpt lat="46.49152" lon="5.35551">
        <ele>228.80000305176</ele>
        <time>2020-09-12T06:22:09.000Z</time>
      </trkpt>
      <trkpt lat="46.49157" lon="5.35551">
        <ele>228.80000305176</ele>
        <time>2020-09-12T06:22:10.000Z</time>
      </trkpt>
      <trkpt lat="46.49161" lon="5.35551">
        <ele>229</ele>
        <time>2020-09-12T06:22:11.000Z</time>
      </trkpt>
      <trkpt lat="46.49171" lon="5.35551">
        <ele>229.39999389648</ele>
        <time>2020-09-12T06:22:13.000Z</time>
      </trkpt>
      <trkpt lat="46.49176" lon="5.35551">
        <ele>229.60000610352</ele>
        <time>2020-09-12T06:22:14.000Z</time>
      </trkpt>
      <trkpt lat="46.49181" lon="5.35551">
        <ele>229.80000305176</ele>
        <time>2020-09-12T06:22:15.000Z</time>
      </trkpt>
      <trkpt lat="46.49187" lon="5.35551">
        <ele>230</ele>
        <time>2020-09-12T06:22:16.000Z</time>
      </trkpt>
      <trkpt lat="46.49193" lon="5.35551">
        <ele>230</ele>
        <time>2020-09-12T06:22:17.000Z</time>
      </trkpt>
      <trkpt lat="46.49206" lon="5.35552">
        <ele>230.39999389648</ele>
        <time>2020-09-12T06:22:19.000Z</time>
      </trkpt>
      <trkpt lat="46.49212" lon="5.35552">
        <ele>230.60000610352</ele>
        <time>2020-09-12T06:22:20.000Z</time>
      </trkpt>
      <trkpt lat="46.49219" lon="5.35551">
        <ele>230.60000610352</ele>
        <time>2020-09-12T06:22:21.000Z</time>
      </trkpt>
      <trkpt lat="46.49233" lon="5.3555">
        <ele>230.80000305176</ele>
        <time>2020-09-12T06:22:23.000Z</time>
      </trkpt>
      <trkpt lat="46.49248" lon="5.35549">
        <ele>230.80000305176</ele>
        <time>2020-09-12T06:22:25.000Z</time>
      </trkpt>
      <trkpt lat="46.49255" lon="5.35548">
        <ele>230.80000305176</ele>
        <time>2020-09-12T06:22:26.000Z</time>
      </trkpt>
      <trkpt lat="46.49263" lon="5.35548">
        <ele>231</ele>
        <time>2020-09-12T06:22:27.000Z</time>
      </trkpt>
      <trkpt lat="46.49277" lon="5.35546">
        <ele>231</ele>
        <time>2020-09-12T06:22:29.000Z</time>
      </trkpt>
      <trkpt lat="46.49292" lon="5.35544">
        <ele>231</ele>
        <time>2020-09-12T06:22:31.000Z</time>
      </trkpt>
      <trkpt lat="46.49311" lon="5.35544">
        <ele>231</ele>
        <time>2020-09-12T06:22:33.000Z</time>
      </trkpt>
      <trkpt lat="46.49318" lon="5.35544">
        <ele>230.80000305176</ele>
        <time>2020-09-12T06:22:35.000Z</time>
      </trkpt>
      <trkpt lat="46.49332" lon="5.35543">
        <ele>230.80000305176</ele>
        <time>2020-09-12T06:22:37.000Z</time>
      </trkpt>
      <trkpt lat="46.49347" lon="5.35541">
        <ele>230.80000305176</ele>
        <time>2020-09-12T06:22:39.000Z</time>
      </trkpt>
      <trkpt lat="46.49363" lon="5.3554">
        <ele>230.80000305176</ele>
        <time>2020-09-12T06:22:41.000Z</time>
      </trkpt>
      <trkpt lat="46.49378" lon="5.35541">
        <ele>230.39999389648</ele>
        <time>2020-09-12T06:22:43.000Z</time>
      </trkpt>
      <trkpt lat="46.49393" lon="5.35544">
        <ele>230.19999694824</ele>
        <time>2020-09-12T06:22:45.000Z</time>
      </trkpt>
      <trkpt lat="46.49407" lon="5.35549">
        <ele>229.80000305176</ele>
        <time>2020-09-12T06:22:47.000Z</time>
      </trkpt>
      <trkpt lat="46.49421" lon="5.35555">
        <ele>229.19999694824</ele>
        <time>2020-09-12T06:22:49.000Z</time>
      </trkpt>
      <trkpt lat="46.49435" lon="5.35561">
        <ele>228.80000305176</ele>
        <time>2020-09-12T06:22:51.000Z</time>
      </trkpt>
      <trkpt lat="46.49442" lon="5.35564">
        <ele>228.60000610352</ele>
        <time>2020-09-12T06:22:52.000Z</time>
      </trkpt>
      <trkpt lat="46.4945" lon="5.35566">
        <ele>228.39999389648</ele>
        <time>2020-09-12T06:22:53.000Z</time>
      </trkpt>
      <trkpt lat="46.49457" lon="5.35569">
        <ele>228.39999389648</ele>
        <time>2020-09-12T06:22:54.000Z</time>
      </trkpt>
      <trkpt lat="46.49464" lon="5.35572">
        <ele>228.39999389648</ele>
        <time>2020-09-12T06:22:55.000Z</time>
      </trkpt>
      <trkpt lat="46.49479" lon="5.35577">
        <ele>228.19999694824</ele>
        <time>2020-09-12T06:22:57.000Z</time>
      </trkpt>
      <trkpt lat="46.49493" lon="5.35583">
        <ele>228.19999694824</ele>
        <time>2020-09-12T06:22:59.000Z</time>
      </trkpt>
      <trkpt lat="46.49507" lon="5.35589">
        <ele>228</ele>
        <time>2020-09-12T06:23:01.000Z</time>
      </trkpt>
      <trkpt lat="46.49521" lon="5.35596">
        <ele>227.80000305176</ele>
        <time>2020-09-12T06:23:03.000Z</time>
      </trkpt>
      <trkpt lat="46.49536" lon="5.35601">
        <ele>227.80000305176</ele>
        <time>2020-09-12T06:23:05.000Z</time>
      </trkpt>
      <trkpt lat="46.49551" lon="5.35606">
        <ele>227.60000610352</ele>
        <time>2020-09-12T06:23:07.000Z</time>
      </trkpt>
      <trkpt lat="46.49567" lon="5.3561">
        <ele>227.39999389648</ele>
        <time>2020-09-12T06:23:09.000Z</time>
      </trkpt>
      <trkpt lat="46.49582" lon="5.35615">
        <ele>227.19999694824</ele>
        <time>2020-09-12T06:23:11.000Z</time>
      </trkpt>
      <trkpt lat="46.49596" lon="5.35619">
        <ele>227</ele>
        <time>2020-09-12T06:23:13.000Z</time>
      </trkpt>
      <trkpt lat="46.49611" lon="5.35623">
        <ele>226.60000610352</ele>
        <time>2020-09-12T06:23:15.000Z</time>
      </trkpt>
      <trkpt lat="46.49619" lon="5.35626">
        <ele>226.39999389648</ele>
        <time>2020-09-12T06:23:16.000Z</time>
      </trkpt>
      <trkpt lat="46.49626" lon="5.35628">
        <ele>226.19999694824</ele>
        <time>2020-09-12T06:23:17.000Z</time>
      </trkpt>
      <trkpt lat="46.4964" lon="5.35631">
        <ele>226</ele>
        <time>2020-09-12T06:23:19.000Z</time>
      </trkpt>
      <trkpt lat="46.49655" lon="5.35635">
        <ele>225.60000610352</ele>
        <time>2020-09-12T06:23:21.000Z</time>
      </trkpt>
      <trkpt lat="46.49669" lon="5.3564">
        <ele>225.39999389648</ele>
        <time>2020-09-12T06:23:23.000Z</time>
      </trkpt>
      <trkpt lat="46.49677" lon="5.35641">
        <ele>225.19999694824</ele>
        <time>2020-09-12T06:23:24.000Z</time>
      </trkpt>
      <trkpt lat="46.49684" lon="5.35643">
        <ele>225.19999694824</ele>
        <time>2020-09-12T06:23:25.000Z</time>
      </trkpt>
      <trkpt lat="46.49689" lon="5.35645">
        <ele>225</ele>
        <time>2020-09-12T06:23:26.000Z</time>
      </trkpt>
      <trkpt lat="46.49693" lon="5.3565">
        <ele>225</ele>
        <time>2020-09-12T06:23:27.000Z</time>
      </trkpt>
      <trkpt lat="46.49697" lon="5.35662">
        <ele>224.80000305176</ele>
        <time>2020-09-12T06:23:29.000Z</time>
      </trkpt>
      <trkpt lat="46.49694" lon="5.35679">
        <ele>224.60000610352</ele>
        <time>2020-09-12T06:23:31.000Z</time>
      </trkpt>
      <trkpt lat="46.49693" lon="5.35688">
        <ele>224.39999389648</ele>
        <time>2020-09-12T06:23:32.000Z</time>
      </trkpt>
      <trkpt lat="46.4969" lon="5.35698">
        <ele>224.39999389648</ele>
        <time>2020-09-12T06:23:33.000Z</time>
      </trkpt>
      <trkpt lat="46.49687" lon="5.35708">
        <ele>224.19999694824</ele>
        <time>2020-09-12T06:23:34.000Z</time>
      </trkpt>
      <trkpt lat="46.49684" lon="5.35718">
        <ele>224.19999694824</ele>
        <time>2020-09-12T06:23:35.000Z</time>
      </trkpt>
      <trkpt lat="46.49677" lon="5.35737">
        <ele>224</ele>
        <time>2020-09-12T06:23:37.000Z</time>
      </trkpt>
      <trkpt lat="46.49673" lon="5.35747">
        <ele>223.80000305176</ele>
        <time>2020-09-12T06:23:38.000Z</time>
      </trkpt>
      <trkpt lat="46.49668" lon="5.35757">
        <ele>223.60000610352</ele>
        <time>2020-09-12T06:23:39.000Z</time>
      </trkpt>
      <trkpt lat="46.49664" lon="5.35766">
        <ele>223.19999694824</ele>
        <time>2020-09-12T06:23:40.000Z</time>
      </trkpt>
      <trkpt lat="46.4966" lon="5.35776">
        <ele>222.80000305176</ele>
        <time>2020-09-12T06:23:41.000Z</time>
      </trkpt>
      <trkpt lat="46.49651" lon="5.35794">
        <ele>221.80000305176</ele>
        <time>2020-09-12T06:23:43.000Z</time>
      </trkpt>
      <trkpt lat="46.49643" lon="5.35815">
        <ele>220.80000305176</ele>
        <time>2020-09-12T06:23:45.000Z</time>
      </trkpt>
      <trkpt lat="46.4964" lon="5.35826">
        <ele>220.60000610352</ele>
        <time>2020-09-12T06:23:46.000Z</time>
      </trkpt>
      <trkpt lat="46.49638" lon="5.35838">
        <ele>220.39999389648</ele>
        <time>2020-09-12T06:23:47.000Z</time>
      </trkpt>
      <trkpt lat="46.49636" lon="5.35864">
        <ele>220</ele>
        <time>2020-09-12T06:23:49.000Z</time>
      </trkpt>
      <trkpt lat="46.49636" lon="5.3589">
        <ele>219.60000610352</ele>
        <time>2020-09-12T06:23:51.000Z</time>
      </trkpt>
      <trkpt lat="46.49637" lon="5.35903">
        <ele>219.39999389648</ele>
        <time>2020-09-12T06:23:52.000Z</time>
      </trkpt>
      <trkpt lat="46.49638" lon="5.35916">
        <ele>219</ele>
        <time>2020-09-12T06:23:53.000Z</time>
      </trkpt>
      <trkpt lat="46.49639" lon="5.35929">
        <ele>218.60000610352</ele>
        <time>2020-09-12T06:23:54.000Z</time>
      </trkpt>
      <trkpt lat="46.4964" lon="5.35942">
        <ele>218</ele>
        <time>2020-09-12T06:23:55.000Z</time>
      </trkpt>
      <trkpt lat="46.49641" lon="5.35966">
        <ele>216.80000305176</ele>
        <time>2020-09-12T06:23:57.000Z</time>
      </trkpt>
      <trkpt lat="46.49643" lon="5.3599">
        <ele>216</ele>
        <time>2020-09-12T06:23:59.000Z</time>
      </trkpt>
      <trkpt lat="46.49644" lon="5.36002">
        <ele>215.80000305176</ele>
        <time>2020-09-12T06:24:00.000Z</time>
      </trkpt>
      <trkpt lat="46.49644" lon="5.36014">
        <ele>215.60000610352</ele>
        <time>2020-09-12T06:24:01.000Z</time>
      </trkpt>
      <trkpt lat="46.49645" lon="5.36025">
        <ele>215.60000610352</ele>
        <time>2020-09-12T06:24:02.000Z</time>
      </trkpt>
      <trkpt lat="46.49646" lon="5.36036">
        <ele>215.60000610352</ele>
        <time>2020-09-12T06:24:03.000Z</time>
      </trkpt>
      <trkpt lat="46.49648" lon="5.36058">
        <ele>215.60000610352</ele>
        <time>2020-09-12T06:24:05.000Z</time>
      </trkpt>
      <trkpt lat="46.49651" lon="5.36079">
        <ele>215.60000610352</ele>
        <time>2020-09-12T06:24:07.000Z</time>
      </trkpt>
      <trkpt lat="46.49653" lon="5.36089">
        <ele>215.60000610352</ele>
        <time>2020-09-12T06:24:08.000Z</time>
      </trkpt>
      <trkpt lat="46.49656" lon="5.36099">
        <ele>215.80000305176</ele>
        <time>2020-09-12T06:24:09.000Z</time>
      </trkpt>
      <trkpt lat="46.49663" lon="5.36117">
        <ele>215.80000305176</ele>
        <time>2020-09-12T06:24:11.000Z</time>
      </trkpt>
      <trkpt lat="46.49667" lon="5.36126">
        <ele>215.80000305176</ele>
        <time>2020-09-12T06:24:12.000Z</time>
      </trkpt>
      <trkpt lat="46.49672" lon="5.36134">
        <ele>216</ele>
        <time>2020-09-12T06:24:13.000Z</time>
      </trkpt>
      <trkpt lat="46.4968" lon="5.36149">
        <ele>216</ele>
        <time>2020-09-12T06:24:15.000Z</time>
      </trkpt>
      <trkpt lat="46.49689" lon="5.36164">
        <ele>216</ele>
        <time>2020-09-12T06:24:17.000Z</time>
      </trkpt>
      <trkpt lat="46.49699" lon="5.36178">
        <ele>216</ele>
        <time>2020-09-12T06:24:19.000Z</time>
      </trkpt>
      <trkpt lat="46.49703" lon="5.36186">
        <ele>216.39999389648</ele>
        <time>2020-09-12T06:24:20.000Z</time>
      </trkpt>
      <trkpt lat="46.49708" lon="5.36193">
        <ele>216.60000610352</ele>
        <time>2020-09-12T06:24:21.000Z</time>
      </trkpt>
      <trkpt lat="46.49717" lon="5.36208">
        <ele>216.80000305176</ele>
        <time>2020-09-12T06:24:23.000Z</time>
      </trkpt>
      <trkpt lat="46.49725" lon="5.36223">
        <ele>216.80000305176</ele>
        <time>2020-09-12T06:24:25.000Z</time>
      </trkpt>
      <trkpt lat="46.49732" lon="5.36238">
        <ele>216.80000305176</ele>
        <time>2020-09-12T06:24:27.000Z</time>
      </trkpt>
      <trkpt lat="46.49736" lon="5.36246">
        <ele>217</ele>
        <time>2020-09-12T06:24:28.000Z</time>
      </trkpt>
      <trkpt lat="46.49739" lon="5.36254">
        <ele>217</ele>
        <time>2020-09-12T06:24:29.000Z</time>
      </trkpt>
      <trkpt lat="46.49742" lon="5.36262">
        <ele>217</ele>
        <time>2020-09-12T06:24:30.000Z</time>
      </trkpt>
      <trkpt lat="46.49746" lon="5.36269">
        <ele>217</ele>
        <time>2020-09-12T06:24:31.000Z</time>
      </trkpt>
      <trkpt lat="46.49752" lon="5.36284">
        <ele>217.19999694824</ele>
        <time>2020-09-12T06:24:33.000Z</time>
      </trkpt>
      <trkpt lat="46.49758" lon="5.36299">
        <ele>217.39999389648</ele>
        <time>2020-09-12T06:24:35.000Z</time>
      </trkpt>
      <trkpt lat="46.49764" lon="5.36313">
        <ele>217.60000610352</ele>
        <time>2020-09-12T06:24:37.000Z</time>
      </trkpt>
      <trkpt lat="46.49769" lon="5.36327">
        <ele>217.80000305176</ele>
        <time>2020-09-12T06:24:39.000Z</time>
      </trkpt>
      <trkpt lat="46.49772" lon="5.36333">
        <ele>218.19999694824</ele>
        <time>2020-09-12T06:24:40.000Z</time>
      </trkpt>
      <trkpt lat="46.49775" lon="5.3634">
        <ele>218.39999389648</ele>
        <time>2020-09-12T06:24:41.000Z</time>
      </trkpt>
      <trkpt lat="46.4978" lon="5.36353">
        <ele>218.80000305176</ele>
        <time>2020-09-12T06:24:43.000Z</time>
      </trkpt>
      <trkpt lat="46.49783" lon="5.3636">
        <ele>219.19999694824</ele>
        <time>2020-09-12T06:24:44.000Z</time>
      </trkpt>
      <trkpt lat="46.49786" lon="5.36366">
        <ele>219.39999389648</ele>
        <time>2020-09-12T06:24:45.000Z</time>
      </trkpt>
      <trkpt lat="46.49789" lon="5.36372">
        <ele>219.60000610352</ele>
        <time>2020-09-12T06:24:46.000Z</time>
      </trkpt>
      <trkpt lat="46.49791" lon="5.36379">
        <ele>219.80000305176</ele>
        <time>2020-09-12T06:24:47.000Z</time>
      </trkpt>
      <trkpt lat="46.49797" lon="5.36392">
        <ele>220.39999389648</ele>
        <time>2020-09-12T06:24:49.000Z</time>
      </trkpt>
      <trkpt lat="46.49803" lon="5.36405">
        <ele>221</ele>
        <time>2020-09-12T06:24:51.000Z</time>
      </trkpt>
      <trkpt lat="46.49809" lon="5.36419">
        <ele>221.39999389648</ele>
        <time>2020-09-12T06:24:53.000Z</time>
      </trkpt>
      <trkpt lat="46.49812" lon="5.36427">
        <ele>221.60000610352</ele>
        <time>2020-09-12T06:24:54.000Z</time>
      </trkpt>
      <trkpt lat="46.49815" lon="5.36434">
        <ele>221.60000610352</ele>
        <time>2020-09-12T06:24:55.000Z</time>
      </trkpt>
      <trkpt lat="46.49821" lon="5.36448">
        <ele>222</ele>
        <time>2020-09-12T06:24:57.000Z</time>
      </trkpt>
      <trkpt lat="46.49828" lon="5.36461">
        <ele>222.39999389648</ele>
        <time>2020-09-12T06:24:59.000Z</time>
      </trkpt>
      <trkpt lat="46.49835" lon="5.36473">
        <ele>222.19999694824</ele>
        <time>2020-09-12T06:25:01.000Z</time>
      </trkpt>
      <trkpt lat="46.49842" lon="5.36485">
        <ele>222.39999389648</ele>
        <time>2020-09-12T06:25:03.000Z</time>
      </trkpt>
      <trkpt lat="46.49849" lon="5.36497">
        <ele>222.60000610352</ele>
        <time>2020-09-12T06:25:05.000Z</time>
      </trkpt>
      <trkpt lat="46.49856" lon="5.36507">
        <ele>223</ele>
        <time>2020-09-12T06:25:07.000Z</time>
      </trkpt>
      <trkpt lat="46.49864" lon="5.36518">
        <ele>223.19999694824</ele>
        <time>2020-09-12T06:25:09.000Z</time>
      </trkpt>
      <trkpt lat="46.49871" lon="5.36529">
        <ele>223.60000610352</ele>
        <time>2020-09-12T06:25:11.000Z</time>
      </trkpt>
      <trkpt lat="46.49878" lon="5.3654">
        <ele>224</ele>
        <time>2020-09-12T06:25:13.000Z</time>
      </trkpt>
      <trkpt lat="46.49885" lon="5.36551">
        <ele>224.39999389648</ele>
        <time>2020-09-12T06:25:15.000Z</time>
      </trkpt>
      <trkpt lat="46.49892" lon="5.36562">
        <ele>224.39999389648</ele>
        <time>2020-09-12T06:25:17.000Z</time>
      </trkpt>
      <trkpt lat="46.49899" lon="5.36573">
        <ele>224.80000305176</ele>
        <time>2020-09-12T06:25:19.000Z</time>
      </trkpt>
      <trkpt lat="46.49906" lon="5.36585">
        <ele>225</ele>
        <time>2020-09-12T06:25:21.000Z</time>
      </trkpt>
      <trkpt lat="46.49909" lon="5.36591">
        <ele>225</ele>
        <time>2020-09-12T06:25:22.000Z</time>
      </trkpt>
      <trkpt lat="46.49912" lon="5.36597">
        <ele>225.19999694824</ele>
        <time>2020-09-12T06:25:23.000Z</time>
      </trkpt>
      <trkpt lat="46.49915" lon="5.36604">
        <ele>225.39999389648</ele>
        <time>2020-09-12T06:25:24.000Z</time>
      </trkpt>
      <trkpt lat="46.49918" lon="5.3661">
        <ele>225.39999389648</ele>
        <time>2020-09-12T06:25:25.000Z</time>
      </trkpt>
      <trkpt lat="46.49922" lon="5.36624">
        <ele>225.80000305176</ele>
        <time>2020-09-12T06:25:27.000Z</time>
      </trkpt>
      <trkpt lat="46.49928" lon="5.36635">
        <ele>226</ele>
        <time>2020-09-12T06:25:29.000Z</time>
      </trkpt>
      <trkpt lat="46.49931" lon="5.36641">
        <ele>226.19999694824</ele>
        <time>2020-09-12T06:25:30.000Z</time>
      </trkpt>
      <trkpt lat="46.49934" lon="5.36648">
        <ele>226.19999694824</ele>
        <time>2020-09-12T06:25:31.000Z</time>
      </trkpt>
      <trkpt lat="46.49936" lon="5.36655">
        <ele>226.19999694824</ele>
        <time>2020-09-12T06:25:32.000Z</time>
      </trkpt>
      <trkpt lat="46.49938" lon="5.36663">
        <ele>226.39999389648</ele>
        <time>2020-09-12T06:25:33.000Z</time>
      </trkpt>
      <trkpt lat="46.49942" lon="5.36679">
        <ele>226.80000305176</ele>
        <time>2020-09-12T06:25:35.000Z</time>
      </trkpt>
      <trkpt lat="46.49944" lon="5.36695">
        <ele>226.80000305176</ele>
        <time>2020-09-12T06:25:37.000Z</time>
      </trkpt>
      <trkpt lat="46.49947" lon="5.36711">
        <ele>227</ele>
        <time>2020-09-12T06:25:39.000Z</time>
      </trkpt>
      <trkpt lat="46.49949" lon="5.36719">
        <ele>227</ele>
        <time>2020-09-12T06:25:40.000Z</time>
      </trkpt>
      <trkpt lat="46.4995" lon="5.36727">
        <ele>227</ele>
        <time>2020-09-12T06:25:41.000Z</time>
      </trkpt>
      <trkpt lat="46.49953" lon="5.36742">
        <ele>227</ele>
        <time>2020-09-12T06:25:43.000Z</time>
      </trkpt>
      <trkpt lat="46.49956" lon="5.36757">
        <ele>227.19999694824</ele>
        <time>2020-09-12T06:25:45.000Z</time>
      </trkpt>
      <trkpt lat="46.49958" lon="5.36772">
        <ele>227.19999694824</ele>
        <time>2020-09-12T06:25:47.000Z</time>
      </trkpt>
      <trkpt lat="46.4996" lon="5.36779">
        <ele>227.19999694824</ele>
        <time>2020-09-12T06:25:48.000Z</time>
      </trkpt>
      <trkpt lat="46.49961" lon="5.36787">
        <ele>227.39999389648</ele>
        <time>2020-09-12T06:25:49.000Z</time>
      </trkpt>
      <trkpt lat="46.49964" lon="5.36801">
        <ele>227.60000610352</ele>
        <time>2020-09-12T06:25:51.000Z</time>
      </trkpt>
      <trkpt lat="46.49966" lon="5.36816">
        <ele>228</ele>
        <time>2020-09-12T06:25:53.000Z</time>
      </trkpt>
      <trkpt lat="46.4997" lon="5.36831">
        <ele>228.39999389648</ele>
        <time>2020-09-12T06:25:55.000Z</time>
      </trkpt>
      <trkpt lat="46.49972" lon="5.36846">
        <ele>228.80000305176</ele>
        <time>2020-09-12T06:25:57.000Z</time>
      </trkpt>
      <trkpt lat="46.49974" lon="5.36853">
        <ele>228.80000305176</ele>
        <time>2020-09-12T06:25:58.000Z</time>
      </trkpt>
      <trkpt lat="46.49975" lon="5.36861">
        <ele>229</ele>
        <time>2020-09-12T06:25:59.000Z</time>
      </trkpt>
      <trkpt lat="46.49978" lon="5.36875">
        <ele>229.39999389648</ele>
        <time>2020-09-12T06:26:01.000Z</time>
      </trkpt>
      <trkpt lat="46.4998" lon="5.3689">
        <ele>229.60000610352</ele>
        <time>2020-09-12T06:26:03.000Z</time>
      </trkpt>
      <trkpt lat="46.49983" lon="5.36904">
        <ele>229.80000305176</ele>
        <time>2020-09-12T06:26:05.000Z</time>
      </trkpt>
      <trkpt lat="46.49986" lon="5.36918">
        <ele>230.19999694824</ele>
        <time>2020-09-12T06:26:07.000Z</time>
      </trkpt>
      <trkpt lat="46.49989" lon="5.36933">
        <ele>230.39999389648</ele>
        <time>2020-09-12T06:26:09.000Z</time>
      </trkpt>
      <trkpt lat="46.4999" lon="5.3694">
        <ele>230.60000610352</ele>
        <time>2020-09-12T06:26:10.000Z</time>
      </trkpt>
      <trkpt lat="46.49991" lon="5.36948">
        <ele>231</ele>
        <time>2020-09-12T06:26:11.000Z</time>
      </trkpt>
      <trkpt lat="46.49994" lon="5.36962">
        <ele>231.19999694824</ele>
        <time>2020-09-12T06:26:13.000Z</time>
      </trkpt>
      <trkpt lat="46.49997" lon="5.36976">
        <ele>231.39999389648</ele>
        <time>2020-09-12T06:26:15.000Z</time>
      </trkpt>
      <trkpt lat="46.49998" lon="5.36983">
        <ele>231.60000610352</ele>
        <time>2020-09-12T06:26:16.000Z</time>
      </trkpt>
      <trkpt lat="46.49999" lon="5.3699">
        <ele>231.60000610352</ele>
        <time>2020-09-12T06:26:17.000Z</time>
      </trkpt>
      <trkpt lat="46.50002" lon="5.37004">
        <ele>232</ele>
        <time>2020-09-12T06:26:19.000Z</time>
      </trkpt>
      <trkpt lat="46.50003" lon="5.37011">
        <ele>232</ele>
        <time>2020-09-12T06:26:20.000Z</time>
      </trkpt>
      <trkpt lat="46.50005" lon="5.37018">
        <ele>232.19999694824</ele>
        <time>2020-09-12T06:26:21.000Z</time>
      </trkpt>
      <trkpt lat="46.50007" lon="5.37033">
        <ele>232.39999389648</ele>
        <time>2020-09-12T06:26:23.000Z</time>
      </trkpt>
      <trkpt lat="46.5001" lon="5.37047">
        <ele>232.60000610352</ele>
        <time>2020-09-12T06:26:25.000Z</time>
      </trkpt>
      <trkpt lat="46.50011" lon="5.37054">
        <ele>232.80000305176</ele>
        <time>2020-09-12T06:26:26.000Z</time>
      </trkpt>
      <trkpt lat="46.50013" lon="5.37061">
        <ele>233</ele>
        <time>2020-09-12T06:26:27.000Z</time>
      </trkpt>
      <trkpt lat="46.50014" lon="5.37068">
        <ele>233.19999694824</ele>
        <time>2020-09-12T06:26:28.000Z</time>
      </trkpt>
      <trkpt lat="46.50015" lon="5.37075">
        <ele>233.19999694824</ele>
        <time>2020-09-12T06:26:29.000Z</time>
      </trkpt>
      <trkpt lat="46.50018" lon="5.37089">
        <ele>233.60000610352</ele>
        <time>2020-09-12T06:26:31.000Z</time>
      </trkpt>
      <trkpt lat="46.50019" lon="5.37097">
        <ele>233.60000610352</ele>
        <time>2020-09-12T06:26:32.000Z</time>
      </trkpt>
      <trkpt lat="46.50021" lon="5.37104">
        <ele>233.80000305176</ele>
        <time>2020-09-12T06:26:33.000Z</time>
      </trkpt>
      <trkpt lat="46.50023" lon="5.37118">
        <ele>234.19999694824</ele>
        <time>2020-09-12T06:26:35.000Z</time>
      </trkpt>
      <trkpt lat="46.50025" lon="5.37125">
        <ele>234.19999694824</ele>
        <time>2020-09-12T06:26:36.000Z</time>
      </trkpt>
      <trkpt lat="46.50026" lon="5.37132">
        <ele>234.39999389648</ele>
        <time>2020-09-12T06:26:37.000Z</time>
      </trkpt>
      <trkpt lat="46.50029" lon="5.37146">
        <ele>234.39999389648</ele>
        <time>2020-09-12T06:26:39.000Z</time>
      </trkpt>
      <trkpt lat="46.5003" lon="5.37153">
        <ele>234.80000305176</ele>
        <time>2020-09-12T06:26:40.000Z</time>
      </trkpt>
      <trkpt lat="46.50031" lon="5.3716">
        <ele>234.80000305176</ele>
        <time>2020-09-12T06:26:41.000Z</time>
      </trkpt>
      <trkpt lat="46.50034" lon="5.37173">
        <ele>235</ele>
        <time>2020-09-12T06:26:43.000Z</time>
      </trkpt>
      <trkpt lat="46.50036" lon="5.37187">
        <ele>235.39999389648</ele>
        <time>2020-09-12T06:26:45.000Z</time>
      </trkpt>
      <trkpt lat="46.50039" lon="5.37201">
        <ele>235.80000305176</ele>
        <time>2020-09-12T06:26:47.000Z</time>
      </trkpt>
      <trkpt lat="46.5004" lon="5.37208">
        <ele>236</ele>
        <time>2020-09-12T06:26:48.000Z</time>
      </trkpt>
      <trkpt lat="46.50041" lon="5.37215">
        <ele>236</ele>
        <time>2020-09-12T06:26:49.000Z</time>
      </trkpt>
      <trkpt lat="46.50044" lon="5.37229">
        <ele>236.19999694824</ele>
        <time>2020-09-12T06:26:51.000Z</time>
      </trkpt>
      <trkpt lat="46.50045" lon="5.37237">
        <ele>236.39999389648</ele>
        <time>2020-09-12T06:26:52.000Z</time>
      </trkpt>
      <trkpt lat="46.50046" lon="5.37244">
        <ele>236.60000610352</ele>
        <time>2020-09-12T06:26:53.000Z</time>
      </trkpt>
      <trkpt lat="46.50049" lon="5.37258">
        <ele>236.80000305176</ele>
        <time>2020-09-12T06:26:55.000Z</time>
      </trkpt>
      <trkpt lat="46.50051" lon="5.37273">
        <ele>237</ele>
        <time>2020-09-12T06:26:57.000Z</time>
      </trkpt>
      <trkpt lat="46.50054" lon="5.37287">
        <ele>237.19999694824</ele>
        <time>2020-09-12T06:26:59.000Z</time>
      </trkpt>
      <trkpt lat="46.50057" lon="5.37301">
        <ele>237.39999389648</ele>
        <time>2020-09-12T06:27:01.000Z</time>
      </trkpt>
      <trkpt lat="46.50058" lon="5.37308">
        <ele>237.60000610352</ele>
        <time>2020-09-12T06:27:02.000Z</time>
      </trkpt>
      <trkpt lat="46.50059" lon="5.37315">
        <ele>237.80000305176</ele>
        <time>2020-09-12T06:27:03.000Z</time>
      </trkpt>
      <trkpt lat="46.50062" lon="5.37329">
        <ele>238</ele>
        <time>2020-09-12T06:27:05.000Z</time>
      </trkpt>
      <trkpt lat="46.50063" lon="5.37336">
        <ele>238.19999694824</ele>
        <time>2020-09-12T06:27:06.000Z</time>
      </trkpt>
      <trkpt lat="46.50064" lon="5.37343">
        <ele>238.39999389648</ele>
        <time>2020-09-12T06:27:07.000Z</time>
      </trkpt>
      <trkpt lat="46.50067" lon="5.37358">
        <ele>238.60000610352</ele>
        <time>2020-09-12T06:27:09.000Z</time>
      </trkpt>
      <trkpt lat="46.50068" lon="5.37365">
        <ele>239</ele>
        <time>2020-09-12T06:27:10.000Z</time>
      </trkpt>
      <trkpt lat="46.50069" lon="5.37372">
        <ele>239.19999694824</ele>
        <time>2020-09-12T06:27:11.000Z</time>
      </trkpt>
      <trkpt lat="46.50071" lon="5.37379">
        <ele>239.19999694824</ele>
        <time>2020-09-12T06:27:12.000Z</time>
      </trkpt>
      <trkpt lat="46.50074" lon="5.37394">
        <ele>239.39999389648</ele>
        <time>2020-09-12T06:27:14.000Z</time>
      </trkpt>
      <trkpt lat="46.50077" lon="5.37409">
        <ele>239.39999389648</ele>
        <time>2020-09-12T06:27:16.000Z</time>
      </trkpt>
      <trkpt lat="46.50082" lon="5.37423">
        <ele>239.60000610352</ele>
        <time>2020-09-12T06:27:18.000Z</time>
      </trkpt>
      <trkpt lat="46.50088" lon="5.37437">
        <ele>239.80000305176</ele>
        <time>2020-09-12T06:27:20.000Z</time>
      </trkpt>
      <trkpt lat="46.50094" lon="5.3745">
        <ele>240</ele>
        <time>2020-09-12T06:27:22.000Z</time>
      </trkpt>
      <trkpt lat="46.50102" lon="5.37463">
        <ele>240</ele>
        <time>2020-09-12T06:27:24.000Z</time>
      </trkpt>
      <trkpt lat="46.50105" lon="5.37469">
        <ele>240.19999694824</ele>
        <time>2020-09-12T06:27:25.000Z</time>
      </trkpt>
      <trkpt lat="46.50109" lon="5.37476">
        <ele>240.19999694824</ele>
        <time>2020-09-12T06:27:26.000Z</time>
      </trkpt>
      <trkpt lat="46.50116" lon="5.37489">
        <ele>240.39999389648</ele>
        <time>2020-09-12T06:27:28.000Z</time>
      </trkpt>
      <trkpt lat="46.50124" lon="5.37503">
        <ele>240.39999389648</ele>
        <time>2020-09-12T06:27:30.000Z</time>
      </trkpt>
      <trkpt lat="46.5013" lon="5.37517">
        <ele>240.39999389648</ele>
        <time>2020-09-12T06:27:32.000Z</time>
      </trkpt>
      <trkpt lat="46.50135" lon="5.37532">
        <ele>240.39999389648</ele>
        <time>2020-09-12T06:27:34.000Z</time>
      </trkpt>
      <trkpt lat="46.50139" lon="5.37548">
        <ele>240.39999389648</ele>
        <time>2020-09-12T06:27:36.000Z</time>
      </trkpt>
      <trkpt lat="46.50143" lon="5.37564">
        <ele>240.39999389648</ele>
        <time>2020-09-12T06:27:38.000Z</time>
      </trkpt>
      <trkpt lat="46.50144" lon="5.37581">
        <ele>240.39999389648</ele>
        <time>2020-09-12T06:27:40.000Z</time>
      </trkpt>
      <trkpt lat="46.50145" lon="5.37598">
        <ele>240.39999389648</ele>
        <time>2020-09-12T06:27:42.000Z</time>
      </trkpt>
      <trkpt lat="46.50146" lon="5.37615">
        <ele>240.39999389648</ele>
        <time>2020-09-12T06:27:44.000Z</time>
      </trkpt>
      <trkpt lat="46.50146" lon="5.37632">
        <ele>240.60000610352</ele>
        <time>2020-09-12T06:27:46.000Z</time>
      </trkpt>
      <trkpt lat="46.50147" lon="5.37649">
        <ele>240.60000610352</ele>
        <time>2020-09-12T06:27:48.000Z</time>
      </trkpt>
      <trkpt lat="46.50146" lon="5.37657">
        <ele>240.60000610352</ele>
        <time>2020-09-12T06:27:49.000Z</time>
      </trkpt>
      <trkpt lat="46.50146" lon="5.37665">
        <ele>240.60000610352</ele>
        <time>2020-09-12T06:27:50.000Z</time>
      </trkpt>
      <trkpt lat="46.50145" lon="5.37672">
        <ele>240.80000305176</ele>
        <time>2020-09-12T06:27:51.000Z</time>
      </trkpt>
      <trkpt lat="46.50145" lon="5.37679">
        <ele>240.80000305176</ele>
        <time>2020-09-12T06:27:52.000Z</time>
      </trkpt>
      <trkpt lat="46.50146" lon="5.37692">
        <ele>241</ele>
        <time>2020-09-12T06:27:54.000Z</time>
      </trkpt>
      <trkpt lat="46.50149" lon="5.37705">
        <ele>241.19999694824</ele>
        <time>2020-09-12T06:27:56.000Z</time>
      </trkpt>
      <trkpt lat="46.50151" lon="5.3771">
        <ele>241.19999694824</ele>
        <time>2020-09-12T06:27:57.000Z</time>
      </trkpt>
      <trkpt lat="46.50153" lon="5.37716">
        <ele>241.19999694824</ele>
        <time>2020-09-12T06:27:58.000Z</time>
      </trkpt>
      <trkpt lat="46.50158" lon="5.37728">
        <ele>241.60000610352</ele>
        <time>2020-09-12T06:28:00.000Z</time>
      </trkpt>
      <trkpt lat="46.50163" lon="5.37738">
        <ele>242.39999389648</ele>
        <time>2020-09-12T06:28:02.000Z</time>
      </trkpt>
      <trkpt lat="46.50168" lon="5.37748">
        <ele>243</ele>
        <time>2020-09-12T06:28:04.000Z</time>
      </trkpt>
      <trkpt lat="46.50176" lon="5.37755">
        <ele>243.39999389648</ele>
        <time>2020-09-12T06:28:06.000Z</time>
      </trkpt>
      <trkpt lat="46.50186" lon="5.37759">
        <ele>244.39999389648</ele>
        <time>2020-09-12T06:28:08.000Z</time>
      </trkpt>
      <trkpt lat="46.50192" lon="5.37762">
        <ele>244.60000610352</ele>
        <time>2020-09-12T06:28:09.000Z</time>
      </trkpt>
      <trkpt lat="46.50199" lon="5.37765">
        <ele>244.80000305176</ele>
        <time>2020-09-12T06:28:10.000Z</time>
      </trkpt>
      <trkpt lat="46.5021" lon="5.37772">
        <ele>244.80000305176</ele>
        <time>2020-09-12T06:28:12.000Z</time>
      </trkpt>
      <trkpt lat="46.50221" lon="5.37779">
        <ele>245.19999694824</ele>
        <time>2020-09-12T06:28:14.000Z</time>
      </trkpt>
      <trkpt lat="46.5023" lon="5.37788">
        <ele>245.39999389648</ele>
        <time>2020-09-12T06:28:16.000Z</time>
      </trkpt>
      <trkpt lat="46.50235" lon="5.37792">
        <ele>245.39999389648</ele>
        <time>2020-09-12T06:28:17.000Z</time>
      </trkpt>
      <trkpt lat="46.5024" lon="5.37796">
        <ele>245.60000610352</ele>
        <time>2020-09-12T06:28:18.000Z</time>
      </trkpt>
      <trkpt lat="46.50248" lon="5.37804">
        <ele>245.60000610352</ele>
        <time>2020-09-12T06:28:20.000Z</time>
      </trkpt>
      <trkpt lat="46.50257" lon="5.37813">
        <ele>245.60000610352</ele>
        <time>2020-09-12T06:28:22.000Z</time>
      </trkpt>
      <trkpt lat="46.50266" lon="5.37822">
        <ele>245.60000610352</ele>
        <time>2020-09-12T06:28:24.000Z</time>
      </trkpt>
      <trkpt lat="46.50276" lon="5.37832">
        <ele>246</ele>
        <time>2020-09-12T06:28:26.000Z</time>
      </trkpt>
      <trkpt lat="46.50285" lon="5.37841">
        <ele>246.19999694824</ele>
        <time>2020-09-12T06:28:28.000Z</time>
      </trkpt>
      <trkpt lat="46.50294" lon="5.37851">
        <ele>246.39999389648</ele>
        <time>2020-09-12T06:28:30.000Z</time>
      </trkpt>
      <trkpt lat="46.50299" lon="5.37856">
        <ele>246.39999389648</ele>
        <time>2020-09-12T06:28:31.000Z</time>
      </trkpt>
      <trkpt lat="46.50304" lon="5.37861">
        <ele>246.39999389648</ele>
        <time>2020-09-12T06:28:32.000Z</time>
      </trkpt>
      <trkpt lat="46.50314" lon="5.37871">
        <ele>246.39999389648</ele>
        <time>2020-09-12T06:28:34.000Z</time>
      </trkpt>
      <trkpt lat="46.50325" lon="5.37882">
        <ele>246.39999389648</ele>
        <time>2020-09-12T06:28:36.000Z</time>
      </trkpt>
      <trkpt lat="46.50334" lon="5.37894">
        <ele>246.39999389648</ele>
        <time>2020-09-12T06:28:38.000Z</time>
      </trkpt>
      <trkpt lat="46.50338" lon="5.379">
        <ele>246.39999389648</ele>
        <time>2020-09-12T06:28:39.000Z</time>
      </trkpt>
      <trkpt lat="46.50343" lon="5.37907">
        <ele>246.39999389648</ele>
        <time>2020-09-12T06:28:40.000Z</time>
      </trkpt>
      <trkpt lat="46.50348" lon="5.37923">
        <ele>246.39999389648</ele>
        <time>2020-09-12T06:28:42.000Z</time>
      </trkpt>
      <trkpt lat="46.50351" lon="5.37931">
        <ele>246.19999694824</ele>
        <time>2020-09-12T06:28:43.000Z</time>
      </trkpt>
      <trkpt lat="46.50352" lon="5.37939">
        <ele>246.19999694824</ele>
        <time>2020-09-12T06:28:44.000Z</time>
      </trkpt>
      <trkpt lat="46.50354" lon="5.37956">
        <ele>246.19999694824</ele>
        <time>2020-09-12T06:28:46.000Z</time>
      </trkpt>
      <trkpt lat="46.50354" lon="5.37972">
        <ele>246.39999389648</ele>
        <time>2020-09-12T06:28:48.000Z</time>
      </trkpt>
      <trkpt lat="46.50353" lon="5.3799">
        <ele>246.39999389648</ele>
        <time>2020-09-12T06:28:50.000Z</time>
      </trkpt>
      <trkpt lat="46.50353" lon="5.37999">
        <ele>246.39999389648</ele>
        <time>2020-09-12T06:28:51.000Z</time>
      </trkpt>
      <trkpt lat="46.50352" lon="5.38008">
        <ele>246.39999389648</ele>
        <time>2020-09-12T06:28:52.000Z</time>
      </trkpt>
      <trkpt lat="46.50352" lon="5.38017">
        <ele>246.60000610352</ele>
        <time>2020-09-12T06:28:53.000Z</time>
      </trkpt>
      <trkpt lat="46.50353" lon="5.38026">
        <ele>246.60000610352</ele>
        <time>2020-09-12T06:28:54.000Z</time>
      </trkpt>
      <trkpt lat="46.50358" lon="5.38039">
        <ele>246.60000610352</ele>
        <time>2020-09-12T06:28:56.000Z</time>
      </trkpt>
      <trkpt lat="46.50361" lon="5.38043">
        <ele>246.60000610352</ele>
        <time>2020-09-12T06:28:57.000Z</time>
      </trkpt>
      <trkpt lat="46.50364" lon="5.38045">
        <ele>246.80000305176</ele>
        <time>2020-09-12T06:28:58.000Z</time>
      </trkpt>
      <trkpt lat="46.50366" lon="5.38046">
        <ele>246.60000610352</ele>
        <time>2020-09-12T06:28:59.000Z</time>
      </trkpt>
      <trkpt lat="46.50369" lon="5.38048">
        <ele>246.80000305176</ele>
        <time>2020-09-12T06:29:00.000Z</time>
      </trkpt>
      <trkpt lat="46.50372" lon="5.38048">
        <ele>246.80000305176</ele>
        <time>2020-09-12T06:29:01.000Z</time>
      </trkpt>
      <trkpt lat="46.50376" lon="5.38046">
        <ele>246.80000305176</ele>
        <time>2020-09-12T06:29:02.000Z</time>
      </trkpt>
      <trkpt lat="46.50385" lon="5.38036">
        <ele>246.60000610352</ele>
        <time>2020-09-12T06:29:04.000Z</time>
      </trkpt>
      <trkpt lat="46.5039" lon="5.38028">
        <ele>246.60000610352</ele>
        <time>2020-09-12T06:29:05.000Z</time>
      </trkpt>
      <trkpt lat="46.50395" lon="5.38021">
        <ele>246.39999389648</ele>
        <time>2020-09-12T06:29:06.000Z</time>
      </trkpt>
      <trkpt lat="46.50405" lon="5.38004">
        <ele>246.19999694824</ele>
        <time>2020-09-12T06:29:08.000Z</time>
      </trkpt>
      <trkpt lat="46.50411" lon="5.37996">
        <ele>246.19999694824</ele>
        <time>2020-09-12T06:29:09.000Z</time>
      </trkpt>
      <trkpt lat="46.50416" lon="5.37987">
        <ele>246.19999694824</ele>
        <time>2020-09-12T06:29:10.000Z</time>
      </trkpt>
      <trkpt lat="46.50427" lon="5.37968">
        <ele>245.19999694824</ele>
        <time>2020-09-12T06:29:12.000Z</time>
      </trkpt>
      <trkpt lat="46.50439" lon="5.37949">
        <ele>244.19999694824</ele>
        <time>2020-09-12T06:29:14.000Z</time>
      </trkpt>
      <trkpt lat="46.50445" lon="5.3794">
        <ele>243.80000305176</ele>
        <time>2020-09-12T06:29:15.000Z</time>
      </trkpt>
      <trkpt lat="46.50452" lon="5.37931">
        <ele>243.39999389648</ele>
        <time>2020-09-12T06:29:16.000Z</time>
      </trkpt>
      <trkpt lat="46.50465" lon="5.37913">
        <ele>242.39999389648</ele>
        <time>2020-09-12T06:29:18.000Z</time>
      </trkpt>
      <trkpt lat="46.50479" lon="5.37894">
        <ele>241.39999389648</ele>
        <time>2020-09-12T06:29:20.000Z</time>
      </trkpt>
      <trkpt lat="46.50485" lon="5.37884">
        <ele>241</ele>
        <time>2020-09-12T06:29:21.000Z</time>
      </trkpt>
      <trkpt lat="46.50492" lon="5.37874">
        <ele>240.39999389648</ele>
        <time>2020-09-12T06:29:22.000Z</time>
      </trkpt>
      <trkpt lat="46.50498" lon="5.37864">
        <ele>239.80000305176</ele>
        <time>2020-09-12T06:29:23.000Z</time>
      </trkpt>
      <trkpt lat="46.50505" lon="5.37854">
        <ele>239.19999694824</ele>
        <time>2020-09-12T06:29:24.000Z</time>
      </trkpt>
      <trkpt lat="46.50519" lon="5.37834">
        <ele>238.39999389648</ele>
        <time>2020-09-12T06:29:26.000Z</time>
      </trkpt>
      <trkpt lat="46.50532" lon="5.37813">
        <ele>238</ele>
        <time>2020-09-12T06:29:28.000Z</time>
      </trkpt>
      <trkpt lat="46.50546" lon="5.37792">
        <ele>237.19999694824</ele>
        <time>2020-09-12T06:29:30.000Z</time>
      </trkpt>
      <trkpt lat="46.5056" lon="5.37772">
        <ele>236.39999389648</ele>
        <time>2020-09-12T06:29:32.000Z</time>
      </trkpt>
      <trkpt lat="46.50567" lon="5.37762">
        <ele>236</ele>
        <time>2020-09-12T06:29:33.000Z</time>
      </trkpt>
      <trkpt lat="46.50574" lon="5.37751">
        <ele>235.60000610352</ele>
        <time>2020-09-12T06:29:34.000Z</time>
      </trkpt>
      <trkpt lat="46.50581" lon="5.37741">
        <ele>234.39999389648</ele>
        <time>2020-09-12T06:29:35.000Z</time>
      </trkpt>
      <trkpt lat="46.50588" lon="5.3773">
        <ele>234</ele>
        <time>2020-09-12T06:29:36.000Z</time>
      </trkpt>
      <trkpt lat="46.50601" lon="5.37709">
        <ele>233</ele>
        <time>2020-09-12T06:29:38.000Z</time>
      </trkpt>
      <trkpt lat="46.50615" lon="5.37688">
        <ele>232.19999694824</ele>
        <time>2020-09-12T06:29:40.000Z</time>
      </trkpt>
      <trkpt lat="46.50622" lon="5.37678">
        <ele>231.80000305176</ele>
        <time>2020-09-12T06:29:41.000Z</time>
      </trkpt>
      <trkpt lat="46.50628" lon="5.37667">
        <ele>231.19999694824</ele>
        <time>2020-09-12T06:29:42.000Z</time>
      </trkpt>
      <trkpt lat="46.50641" lon="5.37647">
        <ele>230.39999389648</ele>
        <time>2020-09-12T06:29:44.000Z</time>
      </trkpt>
      <trkpt lat="46.50654" lon="5.37628">
        <ele>229.39999389648</ele>
        <time>2020-09-12T06:29:46.000Z</time>
      </trkpt>
      <trkpt lat="46.5066" lon="5.37619">
        <ele>229.19999694824</ele>
        <time>2020-09-12T06:29:47.000Z</time>
      </trkpt>
      <trkpt lat="46.50665" lon="5.3761">
        <ele>228.80000305176</ele>
        <time>2020-09-12T06:29:48.000Z</time>
      </trkpt>
      <trkpt lat="46.50671" lon="5.37601">
        <ele>228.80000305176</ele>
        <time>2020-09-12T06:29:49.000Z</time>
      </trkpt>
      <trkpt lat="46.50675" lon="5.37591">
        <ele>228.60000610352</ele>
        <time>2020-09-12T06:29:50.000Z</time>
      </trkpt>
      <trkpt lat="46.5068" lon="5.37582">
        <ele>228.39999389648</ele>
        <time>2020-09-12T06:29:51.000Z</time>
      </trkpt>
      <trkpt lat="46.50685" lon="5.37574">
        <ele>228.39999389648</ele>
        <time>2020-09-12T06:29:52.000Z</time>
      </trkpt>
      <trkpt lat="46.50699" lon="5.37567">
        <ele>228.39999389648</ele>
        <time>2020-09-12T06:29:54.000Z</time>
      </trkpt>
      <trkpt lat="46.50712" lon="5.37574">
        <ele>228.39999389648</ele>
        <time>2020-09-12T06:29:56.000Z</time>
      </trkpt>
      <trkpt lat="46.50723" lon="5.37589">
        <ele>228.39999389648</ele>
        <time>2020-09-12T06:29:58.000Z</time>
      </trkpt>
      <trkpt lat="46.50727" lon="5.37597">
        <ele>228.19999694824</ele>
        <time>2020-09-12T06:29:59.000Z</time>
      </trkpt>
      <trkpt lat="46.50732" lon="5.37606">
        <ele>228.19999694824</ele>
        <time>2020-09-12T06:30:00.000Z</time>
      </trkpt>
      <trkpt lat="46.50735" lon="5.37615">
        <ele>228.39999389648</ele>
        <time>2020-09-12T06:30:01.000Z</time>
      </trkpt>
      <trkpt lat="46.50738" lon="5.37625">
        <ele>228.39999389648</ele>
        <time>2020-09-12T06:30:02.000Z</time>
      </trkpt>
      <trkpt lat="46.50739" lon="5.37634">
        <ele>228.39999389648</ele>
        <time>2020-09-12T06:30:03.000Z</time>
      </trkpt>
      <trkpt lat="46.5074" lon="5.37644">
        <ele>228.39999389648</ele>
        <time>2020-09-12T06:30:04.000Z</time>
      </trkpt>
      <trkpt lat="46.50741" lon="5.37653">
        <ele>228.39999389648</ele>
        <time>2020-09-12T06:30:05.000Z</time>
      </trkpt>
      <trkpt lat="46.50741" lon="5.37662">
        <ele>228.39999389648</ele>
        <time>2020-09-12T06:30:06.000Z</time>
      </trkpt>
      <trkpt lat="46.50742" lon="5.3767">
        <ele>228.60000610352</ele>
        <time>2020-09-12T06:30:07.000Z</time>
      </trkpt>
      <trkpt lat="46.50742" lon="5.37679">
        <ele>228.60000610352</ele>
        <time>2020-09-12T06:30:08.000Z</time>
      </trkpt>
      <trkpt lat="46.50743" lon="5.37695">
        <ele>229.39999389648</ele>
        <time>2020-09-12T06:30:10.000Z</time>
      </trkpt>
      <trkpt lat="46.50744" lon="5.37711">
        <ele>230.39999389648</ele>
        <time>2020-09-12T06:30:12.000Z</time>
      </trkpt>
      <trkpt lat="46.50746" lon="5.37727">
        <ele>231.39999389648</ele>
        <time>2020-09-12T06:30:14.000Z</time>
      </trkpt>
      <trkpt lat="46.50747" lon="5.37744">
        <ele>232.39999389648</ele>
        <time>2020-09-12T06:30:16.000Z</time>
      </trkpt>
      <trkpt lat="46.50748" lon="5.37752">
        <ele>232.80000305176</ele>
        <time>2020-09-12T06:30:17.000Z</time>
      </trkpt>
      <trkpt lat="46.5075" lon="5.37761">
        <ele>233.19999694824</ele>
        <time>2020-09-12T06:30:18.000Z</time>
      </trkpt>
      <trkpt lat="46.50753" lon="5.37778">
        <ele>233.80000305176</ele>
        <time>2020-09-12T06:30:20.000Z</time>
      </trkpt>
      <trkpt lat="46.50755" lon="5.37786">
        <ele>234</ele>
        <time>2020-09-12T06:30:21.000Z</time>
      </trkpt>
      <trkpt lat="46.50757" lon="5.37794">
        <ele>234.19999694824</ele>
        <time>2020-09-12T06:30:22.000Z</time>
      </trkpt>
      <trkpt lat="46.50763" lon="5.3781">
        <ele>234.39999389648</ele>
        <time>2020-09-12T06:30:24.000Z</time>
      </trkpt>
      <trkpt lat="46.50768" lon="5.37825">
        <ele>234.60000610352</ele>
        <time>2020-09-12T06:30:26.000Z</time>
      </trkpt>
      <trkpt lat="46.50772" lon="5.37832">
        <ele>234.60000610352</ele>
        <time>2020-09-12T06:30:27.000Z</time>
      </trkpt>
      <trkpt lat="46.50776" lon="5.37839">
        <ele>234.80000305176</ele>
        <time>2020-09-12T06:30:28.000Z</time>
      </trkpt>
      <trkpt lat="46.50784" lon="5.37852">
        <ele>234.80000305176</ele>
        <time>2020-09-12T06:30:30.000Z</time>
      </trkpt>
      <trkpt lat="46.50788" lon="5.37858">
        <ele>235</ele>
        <time>2020-09-12T06:30:31.000Z</time>
      </trkpt>
      <trkpt lat="46.50792" lon="5.37864">
        <ele>235.19999694824</ele>
        <time>2020-09-12T06:30:32.000Z</time>
      </trkpt>
      <trkpt lat="46.50801" lon="5.37876">
        <ele>235.39999389648</ele>
        <time>2020-09-12T06:30:34.000Z</time>
      </trkpt>
      <trkpt lat="46.50811" lon="5.37887">
        <ele>235.60000610352</ele>
        <time>2020-09-12T06:30:36.000Z</time>
      </trkpt>
      <trkpt lat="46.50817" lon="5.37892">
        <ele>235.60000610352</ele>
        <time>2020-09-12T06:30:37.000Z</time>
      </trkpt>
      <trkpt lat="46.50822" lon="5.37895">
        <ele>235.60000610352</ele>
        <time>2020-09-12T06:30:38.000Z</time>
      </trkpt>
      <trkpt lat="46.50828" lon="5.37898">
        <ele>235.60000610352</ele>
        <time>2020-09-12T06:30:39.000Z</time>
      </trkpt>
      <trkpt lat="46.50835" lon="5.379">
        <ele>235.80000305176</ele>
        <time>2020-09-12T06:30:40.000Z</time>
      </trkpt>
      <trkpt lat="46.50841" lon="5.37901">
        <ele>235.80000305176</ele>
        <time>2020-09-12T06:30:41.000Z</time>
      </trkpt>
      <trkpt lat="46.50847" lon="5.37902">
        <ele>235.80000305176</ele>
        <time>2020-09-12T06:30:42.000Z</time>
      </trkpt>
      <trkpt lat="46.50861" lon="5.37903">
        <ele>235.80000305176</ele>
        <time>2020-09-12T06:30:44.000Z</time>
      </trkpt>
      <trkpt lat="46.50867" lon="5.37904">
        <ele>235.80000305176</ele>
        <time>2020-09-12T06:30:45.000Z</time>
      </trkpt>
      <trkpt lat="46.50874" lon="5.37904">
        <ele>235.80000305176</ele>
        <time>2020-09-12T06:30:46.000Z</time>
      </trkpt>
      <trkpt lat="46.50887" lon="5.37905">
        <ele>235.80000305176</ele>
        <time>2020-09-12T06:30:48.000Z</time>
      </trkpt>
      <trkpt lat="46.509" lon="5.37906">
        <ele>235.80000305176</ele>
        <time>2020-09-12T06:30:50.000Z</time>
      </trkpt>
      <trkpt lat="46.50913" lon="5.37905">
        <ele>235.60000610352</ele>
        <time>2020-09-12T06:30:52.000Z</time>
      </trkpt>
      <trkpt lat="46.50919" lon="5.37904">
        <ele>235.60000610352</ele>
        <time>2020-09-12T06:30:53.000Z</time>
      </trkpt>
      <trkpt lat="46.50926" lon="5.37903">
        <ele>235.60000610352</ele>
        <time>2020-09-12T06:30:54.000Z</time>
      </trkpt>
      <trkpt lat="46.50938" lon="5.37899">
        <ele>235.60000610352</ele>
        <time>2020-09-12T06:30:56.000Z</time>
      </trkpt>
      <trkpt lat="46.50951" lon="5.37894">
        <ele>235.80000305176</ele>
        <time>2020-09-12T06:30:58.000Z</time>
      </trkpt>
      <trkpt lat="46.50963" lon="5.3789">
        <ele>235.80000305176</ele>
        <time>2020-09-12T06:31:00.000Z</time>
      </trkpt>
      <trkpt lat="46.50969" lon="5.37888">
        <ele>235.80000305176</ele>
        <time>2020-09-12T06:31:01.000Z</time>
      </trkpt>
      <trkpt lat="46.50976" lon="5.37886">
        <ele>235.80000305176</ele>
        <time>2020-09-12T06:31:02.000Z</time>
      </trkpt>
      <trkpt lat="46.50982" lon="5.37885">
        <ele>236</ele>
        <time>2020-09-12T06:31:03.000Z</time>
      </trkpt>
      <trkpt lat="46.50989" lon="5.37883">
        <ele>236</ele>
        <time>2020-09-12T06:31:04.000Z</time>
      </trkpt>
      <trkpt lat="46.51003" lon="5.37881">
        <ele>236</ele>
        <time>2020-09-12T06:31:06.000Z</time>
      </trkpt>
      <trkpt lat="46.51017" lon="5.37878">
        <ele>236</ele>
        <time>2020-09-12T06:31:08.000Z</time>
      </trkpt>
      <trkpt lat="46.51032" lon="5.37876">
        <ele>236</ele>
        <time>2020-09-12T06:31:10.000Z</time>
      </trkpt>
      <trkpt lat="46.51047" lon="5.37874">
        <ele>236</ele>
        <time>2020-09-12T06:31:12.000Z</time>
      </trkpt>
      <trkpt lat="46.51063" lon="5.37872">
        <ele>236</ele>
        <time>2020-09-12T06:31:14.000Z</time>
      </trkpt>
      <trkpt lat="46.5108" lon="5.3787">
        <ele>235.80000305176</ele>
        <time>2020-09-12T06:31:16.000Z</time>
      </trkpt>
      <trkpt lat="46.51096" lon="5.37866">
        <ele>235.19999694824</ele>
        <time>2020-09-12T06:31:18.000Z</time>
      </trkpt>
      <trkpt lat="46.51112" lon="5.3786">
        <ele>234.80000305176</ele>
        <time>2020-09-12T06:31:20.000Z</time>
      </trkpt>
      <trkpt lat="46.5112" lon="5.37855">
        <ele>234.39999389648</ele>
        <time>2020-09-12T06:31:21.000Z</time>
      </trkpt>
      <trkpt lat="46.51128" lon="5.37851">
        <ele>234</ele>
        <time>2020-09-12T06:31:22.000Z</time>
      </trkpt>
      <trkpt lat="46.51136" lon="5.37845">
        <ele>233.39999389648</ele>
        <time>2020-09-12T06:31:23.000Z</time>
      </trkpt>
      <trkpt lat="46.51144" lon="5.3784">
        <ele>233</ele>
        <time>2020-09-12T06:31:24.000Z</time>
      </trkpt>
      <trkpt lat="46.51158" lon="5.37828">
        <ele>232.19999694824</ele>
        <time>2020-09-12T06:31:26.000Z</time>
      </trkpt>
      <trkpt lat="46.51166" lon="5.37822">
        <ele>232</ele>
        <time>2020-09-12T06:31:27.000Z</time>
      </trkpt>
      <trkpt lat="46.51174" lon="5.37818">
        <ele>231.80000305176</ele>
        <time>2020-09-12T06:31:28.000Z</time>
      </trkpt>
      <trkpt lat="46.51182" lon="5.37814">
        <ele>231.60000610352</ele>
        <time>2020-09-12T06:31:29.000Z</time>
      </trkpt>
      <trkpt lat="46.5119" lon="5.37811">
        <ele>231.19999694824</ele>
        <time>2020-09-12T06:31:30.000Z</time>
      </trkpt>
      <trkpt lat="46.51199" lon="5.37809">
        <ele>230.60000610352</ele>
        <time>2020-09-12T06:31:31.000Z</time>
      </trkpt>
      <trkpt lat="46.51207" lon="5.37807">
        <ele>230.39999389648</ele>
        <time>2020-09-12T06:31:32.000Z</time>
      </trkpt>
      <trkpt lat="46.51225" lon="5.37805">
        <ele>230.19999694824</ele>
        <time>2020-09-12T06:31:34.000Z</time>
      </trkpt>
      <trkpt lat="46.51243" lon="5.37802">
        <ele>229.80000305176</ele>
        <time>2020-09-12T06:31:36.000Z</time>
      </trkpt>
      <trkpt lat="46.51259" lon="5.37797">
        <ele>229.39999389648</ele>
        <time>2020-09-12T06:31:38.000Z</time>
      </trkpt>
      <trkpt lat="46.51276" lon="5.37789">
        <ele>228.80000305176</ele>
        <time>2020-09-12T06:31:40.000Z</time>
      </trkpt>
      <trkpt lat="46.51292" lon="5.37781">
        <ele>228.19999694824</ele>
        <time>2020-09-12T06:31:42.000Z</time>
      </trkpt>
      <trkpt lat="46.51308" lon="5.37773">
        <ele>227.60000610352</ele>
        <time>2020-09-12T06:31:44.000Z</time>
      </trkpt>
      <trkpt lat="46.51324" lon="5.37765">
        <ele>227.19999694824</ele>
        <time>2020-09-12T06:31:46.000Z</time>
      </trkpt>
      <trkpt lat="46.5134" lon="5.37757">
        <ele>227.19999694824</ele>
        <time>2020-09-12T06:31:48.000Z</time>
      </trkpt>
      <trkpt lat="46.51356" lon="5.37748">
        <ele>227</ele>
        <time>2020-09-12T06:31:50.000Z</time>
      </trkpt>
      <trkpt lat="46.51373" lon="5.3774">
        <ele>226.80000305176</ele>
        <time>2020-09-12T06:31:52.000Z</time>
      </trkpt>
      <trkpt lat="46.5139" lon="5.37732">
        <ele>226.39999389648</ele>
        <time>2020-09-12T06:31:54.000Z</time>
      </trkpt>
      <trkpt lat="46.51406" lon="5.37725">
        <ele>225.80000305176</ele>
        <time>2020-09-12T06:31:56.000Z</time>
      </trkpt>
      <trkpt lat="46.51414" lon="5.37722">
        <ele>225.39999389648</ele>
        <time>2020-09-12T06:31:57.000Z</time>
      </trkpt>
      <trkpt lat="46.51423" lon="5.37719">
        <ele>225</ele>
        <time>2020-09-12T06:31:58.000Z</time>
      </trkpt>
      <trkpt lat="46.51439" lon="5.37714">
        <ele>224</ele>
        <time>2020-09-12T06:32:00.000Z</time>
      </trkpt>
      <trkpt lat="46.51456" lon="5.37709">
        <ele>223.19999694824</ele>
        <time>2020-09-12T06:32:02.000Z</time>
      </trkpt>
      <trkpt lat="46.51473" lon="5.37705">
        <ele>222.80000305176</ele>
        <time>2020-09-12T06:32:04.000Z</time>
      </trkpt>
      <trkpt lat="46.51482" lon="5.37704">
        <ele>222.60000610352</ele>
        <time>2020-09-12T06:32:05.000Z</time>
      </trkpt>
      <trkpt lat="46.5149" lon="5.37702">
        <ele>222.60000610352</ele>
        <time>2020-09-12T06:32:06.000Z</time>
      </trkpt>
      <trkpt lat="46.51507" lon="5.37698">
        <ele>222.19999694824</ele>
        <time>2020-09-12T06:32:08.000Z</time>
      </trkpt>
      <trkpt lat="46.51524" lon="5.37694">
        <ele>222</ele>
        <time>2020-09-12T06:32:10.000Z</time>
      </trkpt>
      <trkpt lat="46.51542" lon="5.37689">
        <ele>221.60000610352</ele>
        <time>2020-09-12T06:32:12.000Z</time>
      </trkpt>
      <trkpt lat="46.51559" lon="5.37686">
        <ele>221.19999694824</ele>
        <time>2020-09-12T06:32:14.000Z</time>
      </trkpt>
      <trkpt lat="46.51577" lon="5.37683">
        <ele>220.80000305176</ele>
        <time>2020-09-12T06:32:16.000Z</time>
      </trkpt>
      <trkpt lat="46.51586" lon="5.37682">
        <ele>220.60000610352</ele>
        <time>2020-09-12T06:32:17.000Z</time>
      </trkpt>
      <trkpt lat="46.51594" lon="5.37682">
        <ele>220.19999694824</ele>
        <time>2020-09-12T06:32:18.000Z</time>
      </trkpt>
      <trkpt lat="46.51612" lon="5.37679">
        <ele>219.80000305176</ele>
        <time>2020-09-12T06:32:20.000Z</time>
      </trkpt>
      <trkpt lat="46.51621" lon="5.37676">
        <ele>219.60000610352</ele>
        <time>2020-09-12T06:32:21.000Z</time>
      </trkpt>
      <trkpt lat="46.5163" lon="5.37673">
        <ele>219.39999389648</ele>
        <time>2020-09-12T06:32:22.000Z</time>
      </trkpt>
      <trkpt lat="46.51647" lon="5.37666">
        <ele>219</ele>
        <time>2020-09-12T06:32:24.000Z</time>
      </trkpt>
      <trkpt lat="46.51663" lon="5.37659">
        <ele>218.39999389648</ele>
        <time>2020-09-12T06:32:26.000Z</time>
      </trkpt>
      <trkpt lat="46.51678" lon="5.37649">
        <ele>218.19999694824</ele>
        <time>2020-09-12T06:32:28.000Z</time>
      </trkpt>
      <trkpt lat="46.51693" lon="5.37638">
        <ele>217.80000305176</ele>
        <time>2020-09-12T06:32:30.000Z</time>
      </trkpt>
      <trkpt lat="46.517" lon="5.37634">
        <ele>217.80000305176</ele>
        <time>2020-09-12T06:32:31.000Z</time>
      </trkpt>
      <trkpt lat="46.51708" lon="5.37632">
        <ele>217.80000305176</ele>
        <time>2020-09-12T06:32:32.000Z</time>
      </trkpt>
      <trkpt lat="46.51723" lon="5.37633">
        <ele>217.60000610352</ele>
        <time>2020-09-12T06:32:34.000Z</time>
      </trkpt>
      <trkpt lat="46.51731" lon="5.37634">
        <ele>217.60000610352</ele>
        <time>2020-09-12T06:32:35.000Z</time>
      </trkpt>
      <trkpt lat="46.51738" lon="5.37636">
        <ele>217.60000610352</ele>
        <time>2020-09-12T06:32:36.000Z</time>
      </trkpt>
      <trkpt lat="46.51752" lon="5.3764">
        <ele>217.80000305176</ele>
        <time>2020-09-12T06:32:38.000Z</time>
      </trkpt>
      <trkpt lat="46.51766" lon="5.37644">
        <ele>217.80000305176</ele>
        <time>2020-09-12T06:32:40.000Z</time>
      </trkpt>
      <trkpt lat="46.5178" lon="5.37649">
        <ele>218.19999694824</ele>
        <time>2020-09-12T06:32:42.000Z</time>
      </trkpt>
      <trkpt lat="46.51787" lon="5.37651">
        <ele>218.19999694824</ele>
        <time>2020-09-12T06:32:43.000Z</time>
      </trkpt>
      <trkpt lat="46.51794" lon="5.37652">
        <ele>218.60000610352</ele>
        <time>2020-09-12T06:32:44.000Z</time>
      </trkpt>
      <trkpt lat="46.51807" lon="5.37653">
        <ele>219.19999694824</ele>
        <time>2020-09-12T06:32:46.000Z</time>
      </trkpt>
      <trkpt lat="46.51821" lon="5.37652">
        <ele>219.60000610352</ele>
        <time>2020-09-12T06:32:48.000Z</time>
      </trkpt>
      <trkpt lat="46.51834" lon="5.37651">
        <ele>220.19999694824</ele>
        <time>2020-09-12T06:32:50.000Z</time>
      </trkpt>
      <trkpt lat="46.51847" lon="5.3765">
        <ele>220.60000610352</ele>
        <time>2020-09-12T06:32:52.000Z</time>
      </trkpt>
      <trkpt lat="46.51853" lon="5.3765">
        <ele>220.80000305176</ele>
        <time>2020-09-12T06:32:53.000Z</time>
      </trkpt>
      <trkpt lat="46.51859" lon="5.3765">
        <ele>221.19999694824</ele>
        <time>2020-09-12T06:32:54.000Z</time>
      </trkpt>
      <trkpt lat="46.51872" lon="5.3765">
        <ele>221.60000610352</ele>
        <time>2020-09-12T06:32:56.000Z</time>
      </trkpt>
      <trkpt lat="46.51886" lon="5.37649">
        <ele>222.19999694824</ele>
        <time>2020-09-12T06:32:58.000Z</time>
      </trkpt>
      <trkpt lat="46.519" lon="5.37648">
        <ele>222.39999389648</ele>
        <time>2020-09-12T06:33:00.000Z</time>
      </trkpt>
      <trkpt lat="46.51915" lon="5.37646">
        <ele>222.39999389648</ele>
        <time>2020-09-12T06:33:02.000Z</time>
      </trkpt>
      <trkpt lat="46.51929" lon="5.37644">
        <ele>222.39999389648</ele>
        <time>2020-09-12T06:33:04.000Z</time>
      </trkpt>
      <trkpt lat="46.51944" lon="5.37641">
        <ele>222.39999389648</ele>
        <time>2020-09-12T06:33:06.000Z</time>
      </trkpt>
      <trkpt lat="46.51958" lon="5.37639">
        <ele>222.39999389648</ele>
        <time>2020-09-12T06:33:08.000Z</time>
      </trkpt>
      <trkpt lat="46.51972" lon="5.37636">
        <ele>222.39999389648</ele>
        <time>2020-09-12T06:33:10.000Z</time>
      </trkpt>
      <trkpt lat="46.51985" lon="5.37634">
        <ele>222.19999694824</ele>
        <time>2020-09-12T06:33:12.000Z</time>
      </trkpt>
      <trkpt lat="46.51998" lon="5.37631">
        <ele>222.19999694824</ele>
        <time>2020-09-12T06:33:14.000Z</time>
      </trkpt>
      <trkpt lat="46.52004" lon="5.3763">
        <ele>222.19999694824</ele>
        <time>2020-09-12T06:33:15.000Z</time>
      </trkpt>
      <trkpt lat="46.52009" lon="5.3763">
        <ele>222.19999694824</ele>
        <time>2020-09-12T06:33:16.000Z</time>
      </trkpt>
      <trkpt lat="46.52014" lon="5.3763">
        <ele>222.19999694824</ele>
        <time>2020-09-12T06:33:17.000Z</time>
      </trkpt>
      <trkpt lat="46.52018" lon="5.37629">
        <ele>222.19999694824</ele>
        <time>2020-09-12T06:33:18.000Z</time>
      </trkpt>
      <trkpt lat="46.52022" lon="5.37627">
        <ele>222.19999694824</ele>
        <time>2020-09-12T06:33:19.000Z</time>
      </trkpt>
      <trkpt lat="46.52025" lon="5.37623">
        <ele>222.19999694824</ele>
        <time>2020-09-12T06:33:20.000Z</time>
      </trkpt>
      <trkpt lat="46.52031" lon="5.3761">
        <ele>222.19999694824</ele>
        <time>2020-09-12T06:33:22.000Z</time>
      </trkpt>
      <trkpt lat="46.52033" lon="5.37601">
        <ele>222.19999694824</ele>
        <time>2020-09-12T06:33:23.000Z</time>
      </trkpt>
      <trkpt lat="46.52034" lon="5.37593">
        <ele>222.19999694824</ele>
        <time>2020-09-12T06:33:24.000Z</time>
      </trkpt>
      <trkpt lat="46.52039" lon="5.37574">
        <ele>222.19999694824</ele>
        <time>2020-09-12T06:33:26.000Z</time>
      </trkpt>
      <trkpt lat="46.52043" lon="5.37554">
        <ele>222.19999694824</ele>
        <time>2020-09-12T06:33:28.000Z</time>
      </trkpt>
      <trkpt lat="46.52045" lon="5.37544">
        <ele>222.19999694824</ele>
        <time>2020-09-12T06:33:29.000Z</time>
      </trkpt>
      <trkpt lat="46.52048" lon="5.37534">
        <ele>222.19999694824</ele>
        <time>2020-09-12T06:33:30.000Z</time>
      </trkpt>
      <trkpt lat="46.52052" lon="5.37513">
        <ele>221.80000305176</ele>
        <time>2020-09-12T06:33:32.000Z</time>
      </trkpt>
      <trkpt lat="46.52056" lon="5.37493">
        <ele>221.39999389648</ele>
        <time>2020-09-12T06:33:34.000Z</time>
      </trkpt>
      <trkpt lat="46.52061" lon="5.37473">
        <ele>221.19999694824</ele>
        <time>2020-09-12T06:33:36.000Z</time>
      </trkpt>
      <trkpt lat="46.52063" lon="5.37464">
        <ele>221</ele>
        <time>2020-09-12T06:33:37.000Z</time>
      </trkpt>
      <trkpt lat="46.52065" lon="5.37454">
        <ele>221</ele>
        <time>2020-09-12T06:33:38.000Z</time>
      </trkpt>
      <trkpt lat="46.52069" lon="5.37435">
        <ele>221</ele>
        <time>2020-09-12T06:33:40.000Z</time>
      </trkpt>
      <trkpt lat="46.52073" lon="5.37416">
        <ele>221</ele>
        <time>2020-09-12T06:33:42.000Z</time>
      </trkpt>
      <trkpt lat="46.52078" lon="5.37397">
        <ele>221</ele>
        <time>2020-09-12T06:33:44.000Z</time>
      </trkpt>
      <trkpt lat="46.52082" lon="5.37377">
        <ele>221</ele>
        <time>2020-09-12T06:33:46.000Z</time>
      </trkpt>
      <trkpt lat="46.52088" lon="5.37358">
        <ele>221</ele>
        <time>2020-09-12T06:33:48.000Z</time>
      </trkpt>
      <trkpt lat="46.52098" lon="5.37342">
        <ele>221</ele>
        <time>2020-09-12T06:33:50.000Z</time>
      </trkpt>
      <trkpt lat="46.52105" lon="5.37336">
        <ele>221</ele>
        <time>2020-09-12T06:33:51.000Z</time>
      </trkpt>
      <trkpt lat="46.52113" lon="5.3733">
        <ele>221</ele>
        <time>2020-09-12T06:33:52.000Z</time>
      </trkpt>
      <trkpt lat="46.52121" lon="5.37325">
        <ele>221</ele>
        <time>2020-09-12T06:33:53.000Z</time>
      </trkpt>
      <trkpt lat="46.5213" lon="5.3732">
        <ele>221</ele>
        <time>2020-09-12T06:33:54.000Z</time>
      </trkpt>
      <trkpt lat="46.52146" lon="5.37309">
        <ele>220.60000610352</ele>
        <time>2020-09-12T06:33:56.000Z</time>
      </trkpt>
      <trkpt lat="46.52155" lon="5.37303">
        <ele>220.19999694824</ele>
        <time>2020-09-12T06:33:57.000Z</time>
      </trkpt>
      <trkpt lat="46.52163" lon="5.37297">
        <ele>219.60000610352</ele>
        <time>2020-09-12T06:33:58.000Z</time>
      </trkpt>
      <trkpt lat="46.5218" lon="5.37285">
        <ele>218</ele>
        <time>2020-09-12T06:34:00.000Z</time>
      </trkpt>
      <trkpt lat="46.52198" lon="5.37272">
        <ele>216.60000610352</ele>
        <time>2020-09-12T06:34:02.000Z</time>
      </trkpt>
      <trkpt lat="46.52215" lon="5.37258">
        <ele>215.39999389648</ele>
        <time>2020-09-12T06:34:04.000Z</time>
      </trkpt>
      <trkpt lat="46.52232" lon="5.37244">
        <ele>214.19999694824</ele>
        <time>2020-09-12T06:34:06.000Z</time>
      </trkpt>
      <trkpt lat="46.52248" lon="5.37228">
        <ele>213</ele>
        <time>2020-09-12T06:34:08.000Z</time>
      </trkpt>
      <trkpt lat="46.52264" lon="5.37212">
        <ele>212</ele>
        <time>2020-09-12T06:34:10.000Z</time>
      </trkpt>
      <trkpt lat="46.52272" lon="5.37204">
        <ele>211.60000610352</ele>
        <time>2020-09-12T06:34:11.000Z</time>
      </trkpt>
      <trkpt lat="46.5228" lon="5.37195">
        <ele>211.19999694824</ele>
        <time>2020-09-12T06:34:12.000Z</time>
      </trkpt>
      <trkpt lat="46.52296" lon="5.37178">
        <ele>210.19999694824</ele>
        <time>2020-09-12T06:34:14.000Z</time>
      </trkpt>
      <trkpt lat="46.52312" lon="5.37161">
        <ele>209.60000610352</ele>
        <time>2020-09-12T06:34:16.000Z</time>
      </trkpt>
      <trkpt lat="46.5232" lon="5.37153">
        <ele>209.19999694824</ele>
        <time>2020-09-12T06:34:17.000Z</time>
      </trkpt>
      <trkpt lat="46.52328" lon="5.37144">
        <ele>208.80000305176</ele>
        <time>2020-09-12T06:34:18.000Z</time>
      </trkpt>
      <trkpt lat="46.52344" lon="5.37127">
        <ele>207.80000305176</ele>
        <time>2020-09-12T06:34:20.000Z</time>
      </trkpt>
      <trkpt lat="46.5236" lon="5.3711">
        <ele>207</ele>
        <time>2020-09-12T06:34:22.000Z</time>
      </trkpt>
      <trkpt lat="46.52368" lon="5.37102">
        <ele>206.60000610352</ele>
        <time>2020-09-12T06:34:23.000Z</time>
      </trkpt>
      <trkpt lat="46.52376" lon="5.37093">
        <ele>206.39999389648</ele>
        <time>2020-09-12T06:34:24.000Z</time>
      </trkpt>
      <trkpt lat="46.52384" lon="5.37085">
        <ele>205.60000610352</ele>
        <time>2020-09-12T06:34:25.000Z</time>
      </trkpt>
      <trkpt lat="46.52391" lon="5.37076">
        <ele>205</ele>
        <time>2020-09-12T06:34:26.000Z</time>
      </trkpt>
      <trkpt lat="46.52398" lon="5.37067">
        <ele>204.60000610352</ele>
        <time>2020-09-12T06:34:27.000Z</time>
      </trkpt>
      <trkpt lat="46.52405" lon="5.37058">
        <ele>204</ele>
        <time>2020-09-12T06:34:28.000Z</time>
      </trkpt>
      <trkpt lat="46.5241" lon="5.37048">
        <ele>203.60000610352</ele>
        <time>2020-09-12T06:34:29.000Z</time>
      </trkpt>
      <trkpt lat="46.52416" lon="5.37038">
        <ele>203.39999389648</ele>
        <time>2020-09-12T06:34:30.000Z</time>
      </trkpt>
      <trkpt lat="46.52424" lon="5.37023">
        <ele>203.19999694824</ele>
        <time>2020-09-12T06:34:32.000Z</time>
      </trkpt>
      <trkpt lat="46.52428" lon="5.37018">
        <ele>203.19999694824</ele>
        <time>2020-09-12T06:34:33.000Z</time>
      </trkpt>
      <trkpt lat="46.52432" lon="5.37017">
        <ele>203.19999694824</ele>
        <time>2020-09-12T06:34:34.000Z</time>
      </trkpt>
      <trkpt lat="46.52439" lon="5.37023">
        <ele>203.19999694824</ele>
        <time>2020-09-12T06:34:36.000Z</time>
      </trkpt>
      <trkpt lat="46.52443" lon="5.37037">
        <ele>203.19999694824</ele>
        <time>2020-09-12T06:34:38.000Z</time>
      </trkpt>
      <trkpt lat="46.52445" lon="5.37046">
        <ele>203.39999389648</ele>
        <time>2020-09-12T06:34:39.000Z</time>
      </trkpt>
      <trkpt lat="46.52447" lon="5.37055">
        <ele>203.60000610352</ele>
        <time>2020-09-12T06:34:40.000Z</time>
      </trkpt>
      <trkpt lat="46.52449" lon="5.37064">
        <ele>203.80000305176</ele>
        <time>2020-09-12T06:34:41.000Z</time>
      </trkpt>
      <trkpt lat="46.52452" lon="5.37073">
        <ele>204</ele>
        <time>2020-09-12T06:34:42.000Z</time>
      </trkpt>
      <trkpt lat="46.52459" lon="5.37091">
        <ele>204</ele>
        <time>2020-09-12T06:34:44.000Z</time>
      </trkpt>
      <trkpt lat="46.52467" lon="5.37108">
        <ele>204.19999694824</ele>
        <time>2020-09-12T06:34:46.000Z</time>
      </trkpt>
      <trkpt lat="46.52476" lon="5.37124">
        <ele>204.19999694824</ele>
        <time>2020-09-12T06:34:48.000Z</time>
      </trkpt>
      <trkpt lat="46.52486" lon="5.37139">
        <ele>204.19999694824</ele>
        <time>2020-09-12T06:34:50.000Z</time>
      </trkpt>
      <trkpt lat="46.52496" lon="5.37152">
        <ele>204</ele>
        <time>2020-09-12T06:34:52.000Z</time>
      </trkpt>
      <trkpt lat="46.52507" lon="5.37165">
        <ele>204</ele>
        <time>2020-09-12T06:34:54.000Z</time>
      </trkpt>
      <trkpt lat="46.52517" lon="5.37178">
        <ele>204</ele>
        <time>2020-09-12T06:34:56.000Z</time>
      </trkpt>
      <trkpt lat="46.52527" lon="5.37191">
        <ele>204</ele>
        <time>2020-09-12T06:34:58.000Z</time>
      </trkpt>
      <trkpt lat="46.52537" lon="5.37205">
        <ele>204</ele>
        <time>2020-09-12T06:35:00.000Z</time>
      </trkpt>
      <trkpt lat="46.52546" lon="5.3722">
        <ele>204.19999694824</ele>
        <time>2020-09-12T06:35:02.000Z</time>
      </trkpt>
      <trkpt lat="46.52553" lon="5.37236">
        <ele>204.39999389648</ele>
        <time>2020-09-12T06:35:04.000Z</time>
      </trkpt>
      <trkpt lat="46.52558" lon="5.37253">
        <ele>204.39999389648</ele>
        <time>2020-09-12T06:35:06.000Z</time>
      </trkpt>
      <trkpt lat="46.52562" lon="5.37271">
        <ele>204.39999389648</ele>
        <time>2020-09-12T06:35:08.000Z</time>
      </trkpt>
      <trkpt lat="46.52563" lon="5.3728">
        <ele>204.39999389648</ele>
        <time>2020-09-12T06:35:09.000Z</time>
      </trkpt>
      <trkpt lat="46.52564" lon="5.3729">
        <ele>204.60000610352</ele>
        <time>2020-09-12T06:35:10.000Z</time>
      </trkpt>
      <trkpt lat="46.52566" lon="5.37309">
        <ele>204.60000610352</ele>
        <time>2020-09-12T06:35:12.000Z</time>
      </trkpt>
      <trkpt lat="46.52566" lon="5.37328">
        <ele>204.80000305176</ele>
        <time>2020-09-12T06:35:14.000Z</time>
      </trkpt>
      <trkpt lat="46.52566" lon="5.37337">
        <ele>204.80000305176</ele>
        <time>2020-09-12T06:35:15.000Z</time>
      </trkpt>
      <trkpt lat="46.52565" lon="5.37346">
        <ele>205</ele>
        <time>2020-09-12T06:35:16.000Z</time>
      </trkpt>
      <trkpt lat="46.52564" lon="5.37365">
        <ele>205</ele>
        <time>2020-09-12T06:35:18.000Z</time>
      </trkpt>
      <trkpt lat="46.52563" lon="5.37384">
        <ele>205</ele>
        <time>2020-09-12T06:35:20.000Z</time>
      </trkpt>
      <trkpt lat="46.52562" lon="5.37403">
        <ele>205</ele>
        <time>2020-09-12T06:35:22.000Z</time>
      </trkpt>
      <trkpt lat="46.52561" lon="5.37421">
        <ele>205</ele>
        <time>2020-09-12T06:35:24.000Z</time>
      </trkpt>
      <trkpt lat="46.5256" lon="5.3743">
        <ele>205.19999694824</ele>
        <time>2020-09-12T06:35:25.000Z</time>
      </trkpt>
      <trkpt lat="46.52559" lon="5.3744">
        <ele>205.19999694824</ele>
        <time>2020-09-12T06:35:26.000Z</time>
      </trkpt>
      <trkpt lat="46.52558" lon="5.37458">
        <ele>205.19999694824</ele>
        <time>2020-09-12T06:35:28.000Z</time>
      </trkpt>
      <trkpt lat="46.52556" lon="5.37477">
        <ele>205.19999694824</ele>
        <time>2020-09-12T06:35:30.000Z</time>
      </trkpt>
      <trkpt lat="46.52554" lon="5.37495">
        <ele>205.39999389648</ele>
        <time>2020-09-12T06:35:32.000Z</time>
      </trkpt>
      <trkpt lat="46.52553" lon="5.37504">
        <ele>205.60000610352</ele>
        <time>2020-09-12T06:35:33.000Z</time>
      </trkpt>
      <trkpt lat="46.52552" lon="5.37513">
        <ele>205.60000610352</ele>
        <time>2020-09-12T06:35:34.000Z</time>
      </trkpt>
      <trkpt lat="46.5255" lon="5.37532">
        <ele>205.60000610352</ele>
        <time>2020-09-12T06:35:36.000Z</time>
      </trkpt>
      <trkpt lat="46.52549" lon="5.3755">
        <ele>205.80000305176</ele>
        <time>2020-09-12T06:35:38.000Z</time>
      </trkpt>
      <trkpt lat="46.52547" lon="5.37569">
        <ele>205.80000305176</ele>
        <time>2020-09-12T06:35:40.000Z</time>
      </trkpt>
      <trkpt lat="46.52545" lon="5.37588">
        <ele>206</ele>
        <time>2020-09-12T06:35:42.000Z</time>
      </trkpt>
      <trkpt lat="46.52543" lon="5.37607">
        <ele>206</ele>
        <time>2020-09-12T06:35:44.000Z</time>
      </trkpt>
      <trkpt lat="46.52541" lon="5.37626">
        <ele>206</ele>
        <time>2020-09-12T06:35:46.000Z</time>
      </trkpt>
      <trkpt lat="46.52539" lon="5.37645">
        <ele>206</ele>
        <time>2020-09-12T06:35:48.000Z</time>
      </trkpt>
      <trkpt lat="46.52538" lon="5.37664">
        <ele>206</ele>
        <time>2020-09-12T06:35:50.000Z</time>
      </trkpt>
      <trkpt lat="46.52536" lon="5.37683">
        <ele>206.19999694824</ele>
        <time>2020-09-12T06:35:52.000Z</time>
      </trkpt>
      <trkpt lat="46.52535" lon="5.37703">
        <ele>206.19999694824</ele>
        <time>2020-09-12T06:35:54.000Z</time>
      </trkpt>
      <trkpt lat="46.52534" lon="5.37722">
        <ele>206.19999694824</ele>
        <time>2020-09-12T06:35:56.000Z</time>
      </trkpt>
      <trkpt lat="46.52533" lon="5.37741">
        <ele>206.39999389648</ele>
        <time>2020-09-12T06:35:58.000Z</time>
      </trkpt>
      <trkpt lat="46.52532" lon="5.3776">
        <ele>206.39999389648</ele>
        <time>2020-09-12T06:36:00.000Z</time>
      </trkpt>
      <trkpt lat="46.5253" lon="5.37779">
        <ele>206.39999389648</ele>
        <time>2020-09-12T06:36:02.000Z</time>
      </trkpt>
      <trkpt lat="46.52529" lon="5.37797">
        <ele>206.39999389648</ele>
        <time>2020-09-12T06:36:04.000Z</time>
      </trkpt>
      <trkpt lat="46.52528" lon="5.37816">
        <ele>206.60000610352</ele>
        <time>2020-09-12T06:36:06.000Z</time>
      </trkpt>
      <trkpt lat="46.52527" lon="5.37826">
        <ele>206.60000610352</ele>
        <time>2020-09-12T06:36:07.000Z</time>
      </trkpt>
      <trkpt lat="46.52527" lon="5.37835">
        <ele>206.60000610352</ele>
        <time>2020-09-12T06:36:08.000Z</time>
      </trkpt>
      <trkpt lat="46.52526" lon="5.37854">
        <ele>206.80000305176</ele>
        <time>2020-09-12T06:36:10.000Z</time>
      </trkpt>
      <trkpt lat="46.52524" lon="5.37872">
        <ele>206.80000305176</ele>
        <time>2020-09-12T06:36:12.000Z</time>
      </trkpt>
      <trkpt lat="46.52523" lon="5.37891">
        <ele>207</ele>
        <time>2020-09-12T06:36:14.000Z</time>
      </trkpt>
      <trkpt lat="46.52522" lon="5.3791">
        <ele>207</ele>
        <time>2020-09-12T06:36:16.000Z</time>
      </trkpt>
      <trkpt lat="46.52521" lon="5.37928">
        <ele>207.19999694824</ele>
        <time>2020-09-12T06:36:18.000Z</time>
      </trkpt>
      <trkpt lat="46.52521" lon="5.37937">
        <ele>207.19999694824</ele>
        <time>2020-09-12T06:36:19.000Z</time>
      </trkpt>
      <trkpt lat="46.52521" lon="5.37946">
        <ele>207.19999694824</ele>
        <time>2020-09-12T06:36:20.000Z</time>
      </trkpt>
      <trkpt lat="46.52523" lon="5.37964">
        <ele>207.39999389648</ele>
        <time>2020-09-12T06:36:22.000Z</time>
      </trkpt>
      <trkpt lat="46.52525" lon="5.37972">
        <ele>207.39999389648</ele>
        <time>2020-09-12T06:36:23.000Z</time>
      </trkpt>
      <trkpt lat="46.52528" lon="5.3798">
        <ele>207.39999389648</ele>
        <time>2020-09-12T06:36:24.000Z</time>
      </trkpt>
      <trkpt lat="46.52533" lon="5.37996">
        <ele>207.60000610352</ele>
        <time>2020-09-12T06:36:26.000Z</time>
      </trkpt>
      <trkpt lat="46.52535" lon="5.38004">
        <ele>207.60000610352</ele>
        <time>2020-09-12T06:36:27.000Z</time>
      </trkpt>
      <trkpt lat="46.52537" lon="5.38013">
        <ele>207.80000305176</ele>
        <time>2020-09-12T06:36:28.000Z</time>
      </trkpt>
      <trkpt lat="46.52541" lon="5.38029">
        <ele>208</ele>
        <time>2020-09-12T06:36:30.000Z</time>
      </trkpt>
      <trkpt lat="46.52544" lon="5.38046">
        <ele>208</ele>
        <time>2020-09-12T06:36:32.000Z</time>
      </trkpt>
      <trkpt lat="46.52546" lon="5.38063">
        <ele>208.19999694824</ele>
        <time>2020-09-12T06:36:34.000Z</time>
      </trkpt>
      <trkpt lat="46.52547" lon="5.3808">
        <ele>208.19999694824</ele>
        <time>2020-09-12T06:36:36.000Z</time>
      </trkpt>
      <trkpt lat="46.52547" lon="5.38097">
        <ele>208.39999389648</ele>
        <time>2020-09-12T06:36:38.000Z</time>
      </trkpt>
      <trkpt lat="46.52546" lon="5.38114">
        <ele>208.39999389648</ele>
        <time>2020-09-12T06:36:40.000Z</time>
      </trkpt>
      <trkpt lat="46.52544" lon="5.38131">
        <ele>208.60000610352</ele>
        <time>2020-09-12T06:36:42.000Z</time>
      </trkpt>
      <trkpt lat="46.52543" lon="5.3814">
        <ele>208.60000610352</ele>
        <time>2020-09-12T06:36:43.000Z</time>
      </trkpt>
      <trkpt lat="46.52541" lon="5.38148">
        <ele>208.80000305176</ele>
        <time>2020-09-12T06:36:44.000Z</time>
      </trkpt>
      <trkpt lat="46.52537" lon="5.38164">
        <ele>208.80000305176</ele>
        <time>2020-09-12T06:36:46.000Z</time>
      </trkpt>
      <trkpt lat="46.52533" lon="5.38179">
        <ele>209</ele>
        <time>2020-09-12T06:36:48.000Z</time>
      </trkpt>
      <trkpt lat="46.52529" lon="5.38194">
        <ele>209.19999694824</ele>
        <time>2020-09-12T06:36:50.000Z</time>
      </trkpt>
      <trkpt lat="46.52525" lon="5.38209">
        <ele>209.39999389648</ele>
        <time>2020-09-12T06:36:52.000Z</time>
      </trkpt>
      <trkpt lat="46.52522" lon="5.38224">
        <ele>209.60000610352</ele>
        <time>2020-09-12T06:36:54.000Z</time>
      </trkpt>
      <trkpt lat="46.5252" lon="5.38232">
        <ele>209.80000305176</ele>
        <time>2020-09-12T06:36:55.000Z</time>
      </trkpt>
      <trkpt lat="46.52519" lon="5.38239">
        <ele>210</ele>
        <time>2020-09-12T06:36:56.000Z</time>
      </trkpt>
      <trkpt lat="46.52516" lon="5.38254">
        <ele>210.39999389648</ele>
        <time>2020-09-12T06:36:58.000Z</time>
      </trkpt>
      <trkpt lat="46.52516" lon="5.38261">
        <ele>210.60000610352</ele>
        <time>2020-09-12T06:36:59.000Z</time>
      </trkpt>
      <trkpt lat="46.52515" lon="5.38269">
        <ele>210.60000610352</ele>
        <time>2020-09-12T06:37:00.000Z</time>
      </trkpt>
      <trkpt lat="46.52515" lon="5.38284">
        <ele>211.19999694824</ele>
        <time>2020-09-12T06:37:02.000Z</time>
      </trkpt>
      <trkpt lat="46.52516" lon="5.38299">
        <ele>211.60000610352</ele>
        <time>2020-09-12T06:37:04.000Z</time>
      </trkpt>
      <trkpt lat="46.52517" lon="5.38307">
        <ele>211.60000610352</ele>
        <time>2020-09-12T06:37:05.000Z</time>
      </trkpt>
      <trkpt lat="46.52518" lon="5.38314">
        <ele>211.80000305176</ele>
        <time>2020-09-12T06:37:06.000Z</time>
      </trkpt>
      <trkpt lat="46.5252" lon="5.38329">
        <ele>212.19999694824</ele>
        <time>2020-09-12T06:37:08.000Z</time>
      </trkpt>
      <trkpt lat="46.52522" lon="5.38343">
        <ele>212.39999389648</ele>
        <time>2020-09-12T06:37:10.000Z</time>
      </trkpt>
      <trkpt lat="46.52525" lon="5.38357">
        <ele>212.80000305176</ele>
        <time>2020-09-12T06:37:12.000Z</time>
      </trkpt>
      <trkpt lat="46.52526" lon="5.38371">
        <ele>213.19999694824</ele>
        <time>2020-09-12T06:37:14.000Z</time>
      </trkpt>
      <trkpt lat="46.52527" lon="5.38378">
        <ele>213.19999694824</ele>
        <time>2020-09-12T06:37:15.000Z</time>
      </trkpt>
      <trkpt lat="46.52527" lon="5.38385">
        <ele>213.39999389648</ele>
        <time>2020-09-12T06:37:16.000Z</time>
      </trkpt>
      <trkpt lat="46.52527" lon="5.38399">
        <ele>213.80000305176</ele>
        <time>2020-09-12T06:37:18.000Z</time>
      </trkpt>
      <trkpt lat="46.52526" lon="5.38413">
        <ele>214.39999389648</ele>
        <time>2020-09-12T06:37:20.000Z</time>
      </trkpt>
      <trkpt lat="46.52526" lon="5.3842">
        <ele>214.80000305176</ele>
        <time>2020-09-12T06:37:21.000Z</time>
      </trkpt>
      <trkpt lat="46.52526" lon="5.38428">
        <ele>215.19999694824</ele>
        <time>2020-09-12T06:37:22.000Z</time>
      </trkpt>
      <trkpt lat="46.52527" lon="5.38436">
        <ele>215.39999389648</ele>
        <time>2020-09-12T06:37:23.000Z</time>
      </trkpt>
      <trkpt lat="46.52528" lon="5.38444">
        <ele>215.60000610352</ele>
        <time>2020-09-12T06:37:24.000Z</time>
      </trkpt>
      <trkpt lat="46.52534" lon="5.38459">
        <ele>215.80000305176</ele>
        <time>2020-09-12T06:37:26.000Z</time>
      </trkpt>
      <trkpt lat="46.52543" lon="5.38471">
        <ele>215.80000305176</ele>
        <time>2020-09-12T06:37:28.000Z</time>
      </trkpt>
      <trkpt lat="46.52553" lon="5.38481">
        <ele>215.80000305176</ele>
        <time>2020-09-12T06:37:30.000Z</time>
      </trkpt>
      <trkpt lat="46.52564" lon="5.38489">
        <ele>215.80000305176</ele>
        <time>2020-09-12T06:37:32.000Z</time>
      </trkpt>
      <trkpt lat="46.5257" lon="5.38492">
        <ele>215.80000305176</ele>
        <time>2020-09-12T06:37:33.000Z</time>
      </trkpt>
      <trkpt lat="46.52577" lon="5.38495">
        <ele>215.80000305176</ele>
        <time>2020-09-12T06:37:34.000Z</time>
      </trkpt>
      <trkpt lat="46.52583" lon="5.38498">
        <ele>215.80000305176</ele>
        <time>2020-09-12T06:37:35.000Z</time>
      </trkpt>
      <trkpt lat="46.5259" lon="5.38499">
        <ele>215.60000610352</ele>
        <time>2020-09-12T06:37:36.000Z</time>
      </trkpt>
      <trkpt lat="46.52605" lon="5.38502">
        <ele>215.60000610352</ele>
        <time>2020-09-12T06:37:38.000Z</time>
      </trkpt>
      <trkpt lat="46.52619" lon="5.38505">
        <ele>215.19999694824</ele>
        <time>2020-09-12T06:37:40.000Z</time>
      </trkpt>
      <trkpt lat="46.52634" lon="5.38508">
        <ele>215</ele>
        <time>2020-09-12T06:37:42.000Z</time>
      </trkpt>
      <trkpt lat="46.52641" lon="5.38509">
        <ele>214.80000305176</ele>
        <time>2020-09-12T06:37:43.000Z</time>
      </trkpt>
      <trkpt lat="46.52648" lon="5.3851">
        <ele>214.60000610352</ele>
        <time>2020-09-12T06:37:44.000Z</time>
      </trkpt>
      <trkpt lat="46.52663" lon="5.38512">
        <ele>214.19999694824</ele>
        <time>2020-09-12T06:37:46.000Z</time>
      </trkpt>
      <trkpt lat="46.52678" lon="5.38514">
        <ele>213.60000610352</ele>
        <time>2020-09-12T06:37:48.000Z</time>
      </trkpt>
      <trkpt lat="46.52685" lon="5.38515">
        <ele>213.39999389648</ele>
        <time>2020-09-12T06:37:49.000Z</time>
      </trkpt>
      <trkpt lat="46.52692" lon="5.38516">
        <ele>213.19999694824</ele>
        <time>2020-09-12T06:37:50.000Z</time>
      </trkpt>
      <trkpt lat="46.52706" lon="5.38521">
        <ele>213.19999694824</ele>
        <time>2020-09-12T06:37:52.000Z</time>
      </trkpt>
      <trkpt lat="46.52712" lon="5.38524">
        <ele>213.19999694824</ele>
        <time>2020-09-12T06:37:53.000Z</time>
      </trkpt>
      <trkpt lat="46.52719" lon="5.38528">
        <ele>213.19999694824</ele>
        <time>2020-09-12T06:37:54.000Z</time>
      </trkpt>
      <trkpt lat="46.52731" lon="5.38535">
        <ele>212.80000305176</ele>
        <time>2020-09-12T06:37:56.000Z</time>
      </trkpt>
      <trkpt lat="46.52738" lon="5.38536">
        <ele>212.60000610352</ele>
        <time>2020-09-12T06:37:57.000Z</time>
      </trkpt>
      <trkpt lat="46.52744" lon="5.38536">
        <ele>212.60000610352</ele>
        <time>2020-09-12T06:37:58.000Z</time>
      </trkpt>
      <trkpt lat="46.52757" lon="5.38533">
        <ele>212.39999389648</ele>
        <time>2020-09-12T06:38:00.000Z</time>
      </trkpt>
      <trkpt lat="46.52763" lon="5.38531">
        <ele>212.39999389648</ele>
        <time>2020-09-12T06:38:01.000Z</time>
      </trkpt>
      <trkpt lat="46.5277" lon="5.3853">
        <ele>212.39999389648</ele>
        <time>2020-09-12T06:38:02.000Z</time>
      </trkpt>
      <trkpt lat="46.52777" lon="5.38533">
        <ele>212.39999389648</ele>
        <time>2020-09-12T06:38:03.000Z</time>
      </trkpt>
      <trkpt lat="46.52783" lon="5.38538">
        <ele>212.39999389648</ele>
        <time>2020-09-12T06:38:04.000Z</time>
      </trkpt>
      <trkpt lat="46.52791" lon="5.38553">
        <ele>212.19999694824</ele>
        <time>2020-09-12T06:38:06.000Z</time>
      </trkpt>
      <trkpt lat="46.52794" lon="5.38562">
        <ele>212.19999694824</ele>
        <time>2020-09-12T06:38:07.000Z</time>
      </trkpt>
      <trkpt lat="46.52798" lon="5.38569">
        <ele>212</ele>
        <time>2020-09-12T06:38:08.000Z</time>
      </trkpt>
      <trkpt lat="46.52808" lon="5.38583">
        <ele>211.39999389648</ele>
        <time>2020-09-12T06:38:10.000Z</time>
      </trkpt>
      <trkpt lat="46.52813" lon="5.38589">
        <ele>211.19999694824</ele>
        <time>2020-09-12T06:38:11.000Z</time>
      </trkpt>
      <trkpt lat="46.52819" lon="5.38593">
        <ele>211.19999694824</ele>
        <time>2020-09-12T06:38:12.000Z</time>
      </trkpt>
      <trkpt lat="46.52831" lon="5.38599">
        <ele>211</ele>
        <time>2020-09-12T06:38:14.000Z</time>
      </trkpt>
      <trkpt lat="46.52838" lon="5.38601">
        <ele>211</ele>
        <time>2020-09-12T06:38:15.000Z</time>
      </trkpt>
      <trkpt lat="46.52844" lon="5.38603">
        <ele>211</ele>
        <time>2020-09-12T06:38:16.000Z</time>
      </trkpt>
      <trkpt lat="46.52856" lon="5.38606">
        <ele>211</ele>
        <time>2020-09-12T06:38:18.000Z</time>
      </trkpt>
      <trkpt lat="46.52868" lon="5.38609">
        <ele>211</ele>
        <time>2020-09-12T06:38:20.000Z</time>
      </trkpt>
      <trkpt lat="46.5288" lon="5.38612">
        <ele>211.19999694824</ele>
        <time>2020-09-12T06:38:22.000Z</time>
      </trkpt>
      <trkpt lat="46.52891" lon="5.38614">
        <ele>211.39999389648</ele>
        <time>2020-09-12T06:38:24.000Z</time>
      </trkpt>
      <trkpt lat="46.529" lon="5.38615">
        <ele>211.60000610352</ele>
        <time>2020-09-12T06:38:26.000Z</time>
      </trkpt>
      <trkpt lat="46.52907" lon="5.38618">
        <ele>211.60000610352</ele>
        <time>2020-09-12T06:38:28.000Z</time>
      </trkpt>
      <trkpt lat="46.5291" lon="5.38619">
        <ele>211.80000305176</ele>
        <time>2020-09-12T06:38:29.000Z</time>
      </trkpt>
      <trkpt lat="46.52913" lon="5.38618">
        <ele>212</ele>
        <time>2020-09-12T06:38:30.000Z</time>
      </trkpt>
      <trkpt lat="46.52916" lon="5.38616">
        <ele>212.19999694824</ele>
        <time>2020-09-12T06:38:31.000Z</time>
      </trkpt>
      <trkpt lat="46.5292" lon="5.38614">
        <ele>212.60000610352</ele>
        <time>2020-09-12T06:38:32.000Z</time>
      </trkpt>
      <trkpt lat="46.52929" lon="5.38611">
        <ele>213.60000610352</ele>
        <time>2020-09-12T06:38:34.000Z</time>
      </trkpt>
      <trkpt lat="46.52938" lon="5.38609">
        <ele>214.60000610352</ele>
        <time>2020-09-12T06:38:36.000Z</time>
      </trkpt>
      <trkpt lat="46.52943" lon="5.38608">
        <ele>215</ele>
        <time>2020-09-12T06:38:37.000Z</time>
      </trkpt>
      <trkpt lat="46.52948" lon="5.38607">
        <ele>215.19999694824</ele>
        <time>2020-09-12T06:38:38.000Z</time>
      </trkpt>
      <trkpt lat="46.52952" lon="5.38607">
        <ele>215.19999694824</ele>
        <time>2020-09-12T06:38:39.000Z</time>
      </trkpt>
      <trkpt lat="46.52957" lon="5.38607">
        <ele>215.39999389648</ele>
        <time>2020-09-12T06:38:40.000Z</time>
      </trkpt>
      <trkpt lat="46.52966" lon="5.38609">
        <ele>215.39999389648</ele>
        <time>2020-09-12T06:38:42.000Z</time>
      </trkpt>
      <trkpt lat="46.52975" lon="5.38611">
        <ele>215.60000610352</ele>
        <time>2020-09-12T06:38:44.000Z</time>
      </trkpt>
      <trkpt lat="46.52984" lon="5.38612">
        <ele>216</ele>
        <time>2020-09-12T06:38:46.000Z</time>
      </trkpt>
      <trkpt lat="46.52993" lon="5.38613">
        <ele>216.60000610352</ele>
        <time>2020-09-12T06:38:48.000Z</time>
      </trkpt>
      <trkpt lat="46.52998" lon="5.38613">
        <ele>216.80000305176</ele>
        <time>2020-09-12T06:38:49.000Z</time>
      </trkpt>
      <trkpt lat="46.53002" lon="5.38613">
        <ele>217</ele>
        <time>2020-09-12T06:38:50.000Z</time>
      </trkpt>
      <trkpt lat="46.53011" lon="5.38613">
        <ele>217.80000305176</ele>
        <time>2020-09-12T06:38:52.000Z</time>
      </trkpt>
      <trkpt lat="46.53021" lon="5.38612">
        <ele>218.19999694824</ele>
        <time>2020-09-12T06:38:54.000Z</time>
      </trkpt>
      <trkpt lat="46.5303" lon="5.3861">
        <ele>218.60000610352</ele>
        <time>2020-09-12T06:38:56.000Z</time>
      </trkpt>
      <trkpt lat="46.5304" lon="5.38608">
        <ele>218.80000305176</ele>
        <time>2020-09-12T06:38:58.000Z</time>
      </trkpt>
      <trkpt lat="46.5305" lon="5.38606">
        <ele>219.39999389648</ele>
        <time>2020-09-12T06:39:00.000Z</time>
      </trkpt>
      <trkpt lat="46.5306" lon="5.38603">
        <ele>219.60000610352</ele>
        <time>2020-09-12T06:39:02.000Z</time>
      </trkpt>
      <trkpt lat="46.5307" lon="5.38602">
        <ele>219.80000305176</ele>
        <time>2020-09-12T06:39:04.000Z</time>
      </trkpt>
      <trkpt lat="46.53079" lon="5.38599">
        <ele>219.80000305176</ele>
        <time>2020-09-12T06:39:06.000Z</time>
      </trkpt>
      <trkpt lat="46.53089" lon="5.38595">
        <ele>220</ele>
        <time>2020-09-12T06:39:08.000Z</time>
      </trkpt>
      <trkpt lat="46.53098" lon="5.38592">
        <ele>220.39999389648</ele>
        <time>2020-09-12T06:39:10.000Z</time>
      </trkpt>
      <trkpt lat="46.53107" lon="5.3859">
        <ele>220.60000610352</ele>
        <time>2020-09-12T06:39:12.000Z</time>
      </trkpt>
      <trkpt lat="46.53114" lon="5.3859">
        <ele>221</ele>
        <time>2020-09-12T06:39:14.000Z</time>
      </trkpt>
      <trkpt lat="46.53122" lon="5.38592">
        <ele>221.39999389648</ele>
        <time>2020-09-12T06:39:16.000Z</time>
      </trkpt>
      <trkpt lat="46.53132" lon="5.38592">
        <ele>221.39999389648</ele>
        <time>2020-09-12T06:39:18.000Z</time>
      </trkpt>
      <trkpt lat="46.53142" lon="5.38594">
        <ele>221.80000305176</ele>
        <time>2020-09-12T06:39:20.000Z</time>
      </trkpt>
      <trkpt lat="46.53147" lon="5.38596">
        <ele>222</ele>
        <time>2020-09-12T06:39:21.000Z</time>
      </trkpt>
      <trkpt lat="46.53151" lon="5.38599">
        <ele>222.19999694824</ele>
        <time>2020-09-12T06:39:22.000Z</time>
      </trkpt>
      <trkpt lat="46.53161" lon="5.38605">
        <ele>222.19999694824</ele>
        <time>2020-09-12T06:39:24.000Z</time>
      </trkpt>
      <trkpt lat="46.5317" lon="5.38611">
        <ele>222.19999694824</ele>
        <time>2020-09-12T06:39:26.000Z</time>
      </trkpt>
      <trkpt lat="46.53174" lon="5.38615">
        <ele>222.39999389648</ele>
        <time>2020-09-12T06:39:27.000Z</time>
      </trkpt>
      <trkpt lat="46.53178" lon="5.38619">
        <ele>222.39999389648</ele>
        <time>2020-09-12T06:39:28.000Z</time>
      </trkpt>
      <trkpt lat="46.53185" lon="5.38628">
        <ele>222.60000610352</ele>
        <time>2020-09-12T06:39:30.000Z</time>
      </trkpt>
      <trkpt lat="46.53192" lon="5.38636">
        <ele>222.80000305176</ele>
        <time>2020-09-12T06:39:32.000Z</time>
      </trkpt>
      <trkpt lat="46.532" lon="5.38644">
        <ele>223.39999389648</ele>
        <time>2020-09-12T06:39:34.000Z</time>
      </trkpt>
      <trkpt lat="46.53204" lon="5.38648">
        <ele>223.60000610352</ele>
        <time>2020-09-12T06:39:35.000Z</time>
      </trkpt>
      <trkpt lat="46.53208" lon="5.38652">
        <ele>224</ele>
        <time>2020-09-12T06:39:36.000Z</time>
      </trkpt>
      <trkpt lat="46.53216" lon="5.38659">
        <ele>224.39999389648</ele>
        <time>2020-09-12T06:39:38.000Z</time>
      </trkpt>
      <trkpt lat="46.53221" lon="5.38662">
        <ele>224.80000305176</ele>
        <time>2020-09-12T06:39:39.000Z</time>
      </trkpt>
      <trkpt lat="46.53225" lon="5.38664">
        <ele>225</ele>
        <time>2020-09-12T06:39:40.000Z</time>
      </trkpt>
      <trkpt lat="46.5323" lon="5.38666">
        <ele>225.39999389648</ele>
        <time>2020-09-12T06:39:41.000Z</time>
      </trkpt>
      <trkpt lat="46.53235" lon="5.38669">
        <ele>225.60000610352</ele>
        <time>2020-09-12T06:39:42.000Z</time>
      </trkpt>
      <trkpt lat="46.5324" lon="5.38671">
        <ele>225.80000305176</ele>
        <time>2020-09-12T06:39:43.000Z</time>
      </trkpt>
      <trkpt lat="46.53245" lon="5.38674">
        <ele>226.19999694824</ele>
        <time>2020-09-12T06:39:44.000Z</time>
      </trkpt>
      <trkpt lat="46.53254" lon="5.38678">
        <ele>226.60000610352</ele>
        <time>2020-09-12T06:39:46.000Z</time>
      </trkpt>
      <trkpt lat="46.53264" lon="5.38681">
        <ele>226.80000305176</ele>
        <time>2020-09-12T06:39:48.000Z</time>
      </trkpt>
      <trkpt lat="46.53269" lon="5.38683">
        <ele>226.80000305176</ele>
        <time>2020-09-12T06:39:49.000Z</time>
      </trkpt>
      <trkpt lat="46.53274" lon="5.38685">
        <ele>226.80000305176</ele>
        <time>2020-09-12T06:39:50.000Z</time>
      </trkpt>
      <trkpt lat="46.53283" lon="5.38689">
        <ele>227</ele>
        <time>2020-09-12T06:39:52.000Z</time>
      </trkpt>
      <trkpt lat="46.53292" lon="5.38692">
        <ele>227.39999389648</ele>
        <time>2020-09-12T06:39:54.000Z</time>
      </trkpt>
      <trkpt lat="46.53302" lon="5.38696">
        <ele>227.60000610352</ele>
        <time>2020-09-12T06:39:56.000Z</time>
      </trkpt>
      <trkpt lat="46.53312" lon="5.38699">
        <ele>228</ele>
        <time>2020-09-12T06:39:58.000Z</time>
      </trkpt>
      <trkpt lat="46.53322" lon="5.38701">
        <ele>228.39999389648</ele>
        <time>2020-09-12T06:40:00.000Z</time>
      </trkpt>
      <trkpt lat="46.53333" lon="5.38703">
        <ele>228.60000610352</ele>
        <time>2020-09-12T06:40:02.000Z</time>
      </trkpt>
      <trkpt lat="46.53343" lon="5.38704">
        <ele>228.80000305176</ele>
        <time>2020-09-12T06:40:04.000Z</time>
      </trkpt>
      <trkpt lat="46.53355" lon="5.38706">
        <ele>229</ele>
        <time>2020-09-12T06:40:06.000Z</time>
      </trkpt>
      <trkpt lat="46.53366" lon="5.38706">
        <ele>229.19999694824</ele>
        <time>2020-09-12T06:40:08.000Z</time>
      </trkpt>
      <trkpt lat="46.53378" lon="5.38706">
        <ele>229.39999389648</ele>
        <time>2020-09-12T06:40:10.000Z</time>
      </trkpt>
      <trkpt lat="46.53389" lon="5.38707">
        <ele>229.60000610352</ele>
        <time>2020-09-12T06:40:12.000Z</time>
      </trkpt>
      <trkpt lat="46.53401" lon="5.38707">
        <ele>229.80000305176</ele>
        <time>2020-09-12T06:40:14.000Z</time>
      </trkpt>
      <trkpt lat="46.53413" lon="5.38708">
        <ele>230</ele>
        <time>2020-09-12T06:40:16.000Z</time>
      </trkpt>
      <trkpt lat="46.53419" lon="5.38709">
        <ele>230</ele>
        <time>2020-09-12T06:40:17.000Z</time>
      </trkpt>
      <trkpt lat="46.53425" lon="5.3871">
        <ele>230.19999694824</ele>
        <time>2020-09-12T06:40:18.000Z</time>
      </trkpt>
      <trkpt lat="46.53437" lon="5.38712">
        <ele>230.39999389648</ele>
        <time>2020-09-12T06:40:20.000Z</time>
      </trkpt>
      <trkpt lat="46.53443" lon="5.38714">
        <ele>230.39999389648</ele>
        <time>2020-09-12T06:40:21.000Z</time>
      </trkpt>
      <trkpt lat="46.53449" lon="5.38715">
        <ele>230.39999389648</ele>
        <time>2020-09-12T06:40:22.000Z</time>
      </trkpt>
      <trkpt lat="46.53461" lon="5.3872">
        <ele>230.39999389648</ele>
        <time>2020-09-12T06:40:24.000Z</time>
      </trkpt>
      <trkpt lat="46.53474" lon="5.38727">
        <ele>230.39999389648</ele>
        <time>2020-09-12T06:40:26.000Z</time>
      </trkpt>
      <trkpt lat="46.53479" lon="5.38732">
        <ele>230.39999389648</ele>
        <time>2020-09-12T06:40:27.000Z</time>
      </trkpt>
      <trkpt lat="46.53484" lon="5.38738">
        <ele>230.39999389648</ele>
        <time>2020-09-12T06:40:28.000Z</time>
      </trkpt>
      <trkpt lat="46.53493" lon="5.38749">
        <ele>230.39999389648</ele>
        <time>2020-09-12T06:40:30.000Z</time>
      </trkpt>
      <trkpt lat="46.53499" lon="5.38751">
        <ele>230.39999389648</ele>
        <time>2020-09-12T06:40:31.000Z</time>
      </trkpt>
      <trkpt lat="46.53505" lon="5.3875">
        <ele>230.39999389648</ele>
        <time>2020-09-12T06:40:32.000Z</time>
      </trkpt>
      <trkpt lat="46.53517" lon="5.38748">
        <ele>230.39999389648</ele>
        <time>2020-09-12T06:40:34.000Z</time>
      </trkpt>
      <trkpt lat="46.53523" lon="5.38751">
        <ele>230.39999389648</ele>
        <time>2020-09-12T06:40:35.000Z</time>
      </trkpt>
      <trkpt lat="46.53529" lon="5.38755">
        <ele>230.39999389648</ele>
        <time>2020-09-12T06:40:36.000Z</time>
      </trkpt>
      <trkpt lat="46.53538" lon="5.38767">
        <ele>230.19999694824</ele>
        <time>2020-09-12T06:40:38.000Z</time>
      </trkpt>
      <trkpt lat="46.53546" lon="5.3878">
        <ele>230.19999694824</ele>
        <time>2020-09-12T06:40:40.000Z</time>
      </trkpt>
      <trkpt lat="46.53554" lon="5.38793">
        <ele>230.19999694824</ele>
        <time>2020-09-12T06:40:42.000Z</time>
      </trkpt>
      <trkpt lat="46.53558" lon="5.38799">
        <ele>230.39999389648</ele>
        <time>2020-09-12T06:40:43.000Z</time>
      </trkpt>
      <trkpt lat="46.53562" lon="5.38804">
        <ele>230.39999389648</ele>
        <time>2020-09-12T06:40:44.000Z</time>
      </trkpt>
      <trkpt lat="46.53572" lon="5.38812">
        <ele>230.60000610352</ele>
        <time>2020-09-12T06:40:46.000Z</time>
      </trkpt>
      <trkpt lat="46.53582" lon="5.38819">
        <ele>230.80000305176</ele>
        <time>2020-09-12T06:40:48.000Z</time>
      </trkpt>
      <trkpt lat="46.53587" lon="5.38822">
        <ele>231</ele>
        <time>2020-09-12T06:40:49.000Z</time>
      </trkpt>
      <trkpt lat="46.53592" lon="5.38825">
        <ele>231.19999694824</ele>
        <time>2020-09-12T06:40:50.000Z</time>
      </trkpt>
      <trkpt lat="46.53603" lon="5.38831">
        <ele>231.80000305176</ele>
        <time>2020-09-12T06:40:52.000Z</time>
      </trkpt>
      <trkpt lat="46.53614" lon="5.38838">
        <ele>232.19999694824</ele>
        <time>2020-09-12T06:40:54.000Z</time>
      </trkpt>
      <trkpt lat="46.5362" lon="5.38841">
        <ele>232.39999389648</ele>
        <time>2020-09-12T06:40:55.000Z</time>
      </trkpt>
      <trkpt lat="46.53626" lon="5.38844">
        <ele>232.39999389648</ele>
        <time>2020-09-12T06:40:56.000Z</time>
      </trkpt>
      <trkpt lat="46.53632" lon="5.38847">
        <ele>232.39999389648</ele>
        <time>2020-09-12T06:40:57.000Z</time>
      </trkpt>
      <trkpt lat="46.53638" lon="5.38851">
        <ele>232.39999389648</ele>
        <time>2020-09-12T06:40:58.000Z</time>
      </trkpt>
      <trkpt lat="46.5365" lon="5.38857">
        <ele>232.39999389648</ele>
        <time>2020-09-12T06:41:00.000Z</time>
      </trkpt>
      <trkpt lat="46.53663" lon="5.38863">
        <ele>232.39999389648</ele>
        <time>2020-09-12T06:41:02.000Z</time>
      </trkpt>
      <trkpt lat="46.53676" lon="5.38869">
        <ele>232.39999389648</ele>
        <time>2020-09-12T06:41:04.000Z</time>
      </trkpt>
      <trkpt lat="46.53683" lon="5.38872">
        <ele>232.39999389648</ele>
        <time>2020-09-12T06:41:05.000Z</time>
      </trkpt>
      <trkpt lat="46.5369" lon="5.38875">
        <ele>232.19999694824</ele>
        <time>2020-09-12T06:41:06.000Z</time>
      </trkpt>
      <trkpt lat="46.53704" lon="5.38881">
        <ele>232.19999694824</ele>
        <time>2020-09-12T06:41:08.000Z</time>
      </trkpt>
      <trkpt lat="46.53718" lon="5.38887">
        <ele>232</ele>
        <time>2020-09-12T06:41:10.000Z</time>
      </trkpt>
      <trkpt lat="46.53732" lon="5.38892">
        <ele>231.60000610352</ele>
        <time>2020-09-12T06:41:12.000Z</time>
      </trkpt>
      <trkpt lat="46.53746" lon="5.38897">
        <ele>231.39999389648</ele>
        <time>2020-09-12T06:41:14.000Z</time>
      </trkpt>
      <trkpt lat="46.53754" lon="5.38899">
        <ele>231.19999694824</ele>
        <time>2020-09-12T06:41:15.000Z</time>
      </trkpt>
      <trkpt lat="46.53761" lon="5.38901">
        <ele>231.19999694824</ele>
        <time>2020-09-12T06:41:16.000Z</time>
      </trkpt>
      <trkpt lat="46.53776" lon="5.38906">
        <ele>231</ele>
        <time>2020-09-12T06:41:18.000Z</time>
      </trkpt>
      <trkpt lat="46.53791" lon="5.3891">
        <ele>231</ele>
        <time>2020-09-12T06:41:20.000Z</time>
      </trkpt>
      <trkpt lat="46.53806" lon="5.38915">
        <ele>230.80000305176</ele>
        <time>2020-09-12T06:41:22.000Z</time>
      </trkpt>
      <trkpt lat="46.5382" lon="5.3892">
        <ele>230.80000305176</ele>
        <time>2020-09-12T06:41:24.000Z</time>
      </trkpt>
      <trkpt lat="46.53828" lon="5.38923">
        <ele>230.80000305176</ele>
        <time>2020-09-12T06:41:25.000Z</time>
      </trkpt>
      <trkpt lat="46.53834" lon="5.38926">
        <ele>230.80000305176</ele>
        <time>2020-09-12T06:41:26.000Z</time>
      </trkpt>
      <trkpt lat="46.53847" lon="5.38932">
        <ele>230.80000305176</ele>
        <time>2020-09-12T06:41:28.000Z</time>
      </trkpt>
      <trkpt lat="46.53853" lon="5.38934">
        <ele>230.80000305176</ele>
        <time>2020-09-12T06:41:29.000Z</time>
      </trkpt>
      <trkpt lat="46.5386" lon="5.38935">
        <ele>230.80000305176</ele>
        <time>2020-09-12T06:41:30.000Z</time>
      </trkpt>
      <trkpt lat="46.53874" lon="5.38937">
        <ele>230.80000305176</ele>
        <time>2020-09-12T06:41:32.000Z</time>
      </trkpt>
      <trkpt lat="46.53889" lon="5.38938">
        <ele>230.80000305176</ele>
        <time>2020-09-12T06:41:34.000Z</time>
      </trkpt>
      <trkpt lat="46.53897" lon="5.38938">
        <ele>230.80000305176</ele>
        <time>2020-09-12T06:41:35.000Z</time>
      </trkpt>
      <trkpt lat="46.53905" lon="5.38938">
        <ele>230.80000305176</ele>
        <time>2020-09-12T06:41:36.000Z</time>
      </trkpt>
      <trkpt lat="46.53921" lon="5.38939">
        <ele>230.80000305176</ele>
        <time>2020-09-12T06:41:38.000Z</time>
      </trkpt>
      <trkpt lat="46.53938" lon="5.3894">
        <ele>230.60000610352</ele>
        <time>2020-09-12T06:41:40.000Z</time>
      </trkpt>
      <trkpt lat="46.53954" lon="5.38942">
        <ele>230.39999389648</ele>
        <time>2020-09-12T06:41:42.000Z</time>
      </trkpt>
      <trkpt lat="46.5397" lon="5.38944">
        <ele>230.19999694824</ele>
        <time>2020-09-12T06:41:44.000Z</time>
      </trkpt>
      <trkpt lat="46.53986" lon="5.38946">
        <ele>229.60000610352</ele>
        <time>2020-09-12T06:41:46.000Z</time>
      </trkpt>
      <trkpt lat="46.54002" lon="5.3895">
        <ele>229.39999389648</ele>
        <time>2020-09-12T06:41:48.000Z</time>
      </trkpt>
      <trkpt lat="46.54017" lon="5.38955">
        <ele>229.19999694824</ele>
        <time>2020-09-12T06:41:50.000Z</time>
      </trkpt>
      <trkpt lat="46.54032" lon="5.38959">
        <ele>229</ele>
        <time>2020-09-12T06:41:52.000Z</time>
      </trkpt>
      <trkpt lat="46.54047" lon="5.38964">
        <ele>229</ele>
        <time>2020-09-12T06:41:54.000Z</time>
      </trkpt>
      <trkpt lat="46.54062" lon="5.3897">
        <ele>228.80000305176</ele>
        <time>2020-09-12T06:41:56.000Z</time>
      </trkpt>
      <trkpt lat="46.54077" lon="5.38977">
        <ele>228.80000305176</ele>
        <time>2020-09-12T06:41:58.000Z</time>
      </trkpt>
      <trkpt lat="46.54091" lon="5.38983">
        <ele>228.80000305176</ele>
        <time>2020-09-12T06:42:00.000Z</time>
      </trkpt>
      <trkpt lat="46.54106" lon="5.38989">
        <ele>228.80000305176</ele>
        <time>2020-09-12T06:42:02.000Z</time>
      </trkpt>
      <trkpt lat="46.54121" lon="5.38994">
        <ele>228.80000305176</ele>
        <time>2020-09-12T06:42:04.000Z</time>
      </trkpt>
      <trkpt lat="46.54135" lon="5.39">
        <ele>228.60000610352</ele>
        <time>2020-09-12T06:42:06.000Z</time>
      </trkpt>
      <trkpt lat="46.5415" lon="5.39005">
        <ele>228.39999389648</ele>
        <time>2020-09-12T06:42:08.000Z</time>
      </trkpt>
      <trkpt lat="46.54164" lon="5.39011">
        <ele>228.39999389648</ele>
        <time>2020-09-12T06:42:10.000Z</time>
      </trkpt>
      <trkpt lat="46.54178" lon="5.39016">
        <ele>228</ele>
        <time>2020-09-12T06:42:12.000Z</time>
      </trkpt>
      <trkpt lat="46.54192" lon="5.39022">
        <ele>228</ele>
        <time>2020-09-12T06:42:14.000Z</time>
      </trkpt>
      <trkpt lat="46.54207" lon="5.39029">
        <ele>228</ele>
        <time>2020-09-12T06:42:16.000Z</time>
      </trkpt>
      <trkpt lat="46.54221" lon="5.39036">
        <ele>228</ele>
        <time>2020-09-12T06:42:18.000Z</time>
      </trkpt>
      <trkpt lat="46.54229" lon="5.3904">
        <ele>228</ele>
        <time>2020-09-12T06:42:19.000Z</time>
      </trkpt>
      <trkpt lat="46.54236" lon="5.39044">
        <ele>227.80000305176</ele>
        <time>2020-09-12T06:42:20.000Z</time>
      </trkpt>
      <trkpt lat="46.54251" lon="5.39051">
        <ele>227.80000305176</ele>
        <time>2020-09-12T06:42:22.000Z</time>
      </trkpt>
      <trkpt lat="46.54265" lon="5.39058">
        <ele>227.60000610352</ele>
        <time>2020-09-12T06:42:24.000Z</time>
      </trkpt>
      <trkpt lat="46.54279" lon="5.39066">
        <ele>227.19999694824</ele>
        <time>2020-09-12T06:42:26.000Z</time>
      </trkpt>
      <trkpt lat="46.54293" lon="5.39074">
        <ele>227</ele>
        <time>2020-09-12T06:42:28.000Z</time>
      </trkpt>
      <trkpt lat="46.543" lon="5.39078">
        <ele>227</ele>
        <time>2020-09-12T06:42:29.000Z</time>
      </trkpt>
      <trkpt lat="46.54307" lon="5.39081">
        <ele>227</ele>
        <time>2020-09-12T06:42:30.000Z</time>
      </trkpt>
      <trkpt lat="46.54321" lon="5.39089">
        <ele>226.80000305176</ele>
        <time>2020-09-12T06:42:32.000Z</time>
      </trkpt>
      <trkpt lat="46.54335" lon="5.39095">
        <ele>226.80000305176</ele>
        <time>2020-09-12T06:42:34.000Z</time>
      </trkpt>
      <trkpt lat="46.54349" lon="5.39101">
        <ele>226.80000305176</ele>
        <time>2020-09-12T06:42:36.000Z</time>
      </trkpt>
      <trkpt lat="46.54362" lon="5.39106">
        <ele>226.80000305176</ele>
        <time>2020-09-12T06:42:38.000Z</time>
      </trkpt>
      <trkpt lat="46.54376" lon="5.39111">
        <ele>227</ele>
        <time>2020-09-12T06:42:40.000Z</time>
      </trkpt>
      <trkpt lat="46.5439" lon="5.39116">
        <ele>227</ele>
        <time>2020-09-12T06:42:42.000Z</time>
      </trkpt>
      <trkpt lat="46.54403" lon="5.39121">
        <ele>227</ele>
        <time>2020-09-12T06:42:44.000Z</time>
      </trkpt>
      <trkpt lat="46.54415" lon="5.39126">
        <ele>227.19999694824</ele>
        <time>2020-09-12T06:42:46.000Z</time>
      </trkpt>
      <trkpt lat="46.54421" lon="5.39128">
        <ele>227.19999694824</ele>
        <time>2020-09-12T06:42:47.000Z</time>
      </trkpt>
      <trkpt lat="46.54428" lon="5.3913">
        <ele>227.19999694824</ele>
        <time>2020-09-12T06:42:48.000Z</time>
      </trkpt>
      <trkpt lat="46.5444" lon="5.39132">
        <ele>227.39999389648</ele>
        <time>2020-09-12T06:42:50.000Z</time>
      </trkpt>
      <trkpt lat="46.54451" lon="5.39136">
        <ele>227.60000610352</ele>
        <time>2020-09-12T06:42:52.000Z</time>
      </trkpt>
      <trkpt lat="46.54462" lon="5.3914">
        <ele>228.19999694824</ele>
        <time>2020-09-12T06:42:54.000Z</time>
      </trkpt>
      <trkpt lat="46.54472" lon="5.39145">
        <ele>229</ele>
        <time>2020-09-12T06:42:56.000Z</time>
      </trkpt>
      <trkpt lat="46.54477" lon="5.39148">
        <ele>229.19999694824</ele>
        <time>2020-09-12T06:42:57.000Z</time>
      </trkpt>
      <trkpt lat="46.54482" lon="5.3915">
        <ele>229.60000610352</ele>
        <time>2020-09-12T06:42:58.000Z</time>
      </trkpt>
      <trkpt lat="46.54486" lon="5.39152">
        <ele>229.80000305176</ele>
        <time>2020-09-12T06:42:59.000Z</time>
      </trkpt>
      <trkpt lat="46.54491" lon="5.39153">
        <ele>230.19999694824</ele>
        <time>2020-09-12T06:43:00.000Z</time>
      </trkpt>
      <trkpt lat="46.54495" lon="5.39152">
        <ele>230.60000610352</ele>
        <time>2020-09-12T06:43:01.000Z</time>
      </trkpt>
      <trkpt lat="46.54499" lon="5.39149">
        <ele>231</ele>
        <time>2020-09-12T06:43:02.000Z</time>
      </trkpt>
      <trkpt lat="46.54504" lon="5.39139">
        <ele>231.80000305176</ele>
        <time>2020-09-12T06:43:04.000Z</time>
      </trkpt>
      <trkpt lat="46.54505" lon="5.39133">
        <ele>232.19999694824</ele>
        <time>2020-09-12T06:43:05.000Z</time>
      </trkpt>
      <trkpt lat="46.54507" lon="5.39127">
        <ele>232.60000610352</ele>
        <time>2020-09-12T06:43:06.000Z</time>
      </trkpt>
      <trkpt lat="46.54509" lon="5.39122">
        <ele>233.19999694824</ele>
        <time>2020-09-12T06:43:07.000Z</time>
      </trkpt>
      <trkpt lat="46.54513" lon="5.39117">
        <ele>233.80000305176</ele>
        <time>2020-09-12T06:43:08.000Z</time>
      </trkpt>
      <trkpt lat="46.54524" lon="5.39118">
        <ele>234</ele>
        <time>2020-09-12T06:43:10.000Z</time>
      </trkpt>
      <trkpt lat="46.54536" lon="5.39125">
        <ele>234</ele>
        <time>2020-09-12T06:43:12.000Z</time>
      </trkpt>
      <trkpt lat="46.54549" lon="5.39134">
        <ele>234</ele>
        <time>2020-09-12T06:43:14.000Z</time>
      </trkpt>
      <trkpt lat="46.54556" lon="5.39138">
        <ele>234.19999694824</ele>
        <time>2020-09-12T06:43:15.000Z</time>
      </trkpt>
      <trkpt lat="46.54563" lon="5.39142">
        <ele>234.19999694824</ele>
        <time>2020-09-12T06:43:16.000Z</time>
      </trkpt>
      <trkpt lat="46.54578" lon="5.3915">
        <ele>233.80000305176</ele>
        <time>2020-09-12T06:43:18.000Z</time>
      </trkpt>
      <trkpt lat="46.54594" lon="5.39157">
        <ele>233.19999694824</ele>
        <time>2020-09-12T06:43:20.000Z</time>
      </trkpt>
      <trkpt lat="46.54609" lon="5.39165">
        <ele>232.19999694824</ele>
        <time>2020-09-12T06:43:22.000Z</time>
      </trkpt>
      <trkpt lat="46.54617" lon="5.39168">
        <ele>231.80000305176</ele>
        <time>2020-09-12T06:43:23.000Z</time>
      </trkpt>
      <trkpt lat="46.54624" lon="5.39172">
        <ele>231.39999389648</ele>
        <time>2020-09-12T06:43:24.000Z</time>
      </trkpt>
      <trkpt lat="46.5464" lon="5.39179">
        <ele>230.80000305176</ele>
        <time>2020-09-12T06:43:26.000Z</time>
      </trkpt>
      <trkpt lat="46.54654" lon="5.39185">
        <ele>230.19999694824</ele>
        <time>2020-09-12T06:43:28.000Z</time>
      </trkpt>
      <trkpt lat="46.54669" lon="5.39192">
        <ele>229.80000305176</ele>
        <time>2020-09-12T06:43:30.000Z</time>
      </trkpt>
      <trkpt lat="46.54676" lon="5.39195">
        <ele>229.80000305176</ele>
        <time>2020-09-12T06:43:31.000Z</time>
      </trkpt>
      <trkpt lat="46.54683" lon="5.39198">
        <ele>229.80000305176</ele>
        <time>2020-09-12T06:43:32.000Z</time>
      </trkpt>
      <trkpt lat="46.54697" lon="5.39205">
        <ele>229.80000305176</ele>
        <time>2020-09-12T06:43:34.000Z</time>
      </trkpt>
      <trkpt lat="46.54711" lon="5.39212">
        <ele>229.80000305176</ele>
        <time>2020-09-12T06:43:36.000Z</time>
      </trkpt>
      <trkpt lat="46.54725" lon="5.39219">
        <ele>229.60000610352</ele>
        <time>2020-09-12T06:43:38.000Z</time>
      </trkpt>
      <trkpt lat="46.54733" lon="5.39223">
        <ele>229.60000610352</ele>
        <time>2020-09-12T06:43:39.000Z</time>
      </trkpt>
      <trkpt lat="46.5474" lon="5.39227">
        <ele>229.60000610352</ele>
        <time>2020-09-12T06:43:40.000Z</time>
      </trkpt>
      <trkpt lat="46.54755" lon="5.39234">
        <ele>229.60000610352</ele>
        <time>2020-09-12T06:43:42.000Z</time>
      </trkpt>
      <trkpt lat="46.5477" lon="5.39241">
        <ele>229.60000610352</ele>
        <time>2020-09-12T06:43:44.000Z</time>
      </trkpt>
      <trkpt lat="46.54785" lon="5.39249">
        <ele>229.60000610352</ele>
        <time>2020-09-12T06:43:46.000Z</time>
      </trkpt>
      <trkpt lat="46.54801" lon="5.39257">
        <ele>229.39999389648</ele>
        <time>2020-09-12T06:43:48.000Z</time>
      </trkpt>
      <trkpt lat="46.54809" lon="5.39261">
        <ele>229.19999694824</ele>
        <time>2020-09-12T06:43:49.000Z</time>
      </trkpt>
      <trkpt lat="46.54817" lon="5.39265">
        <ele>228.80000305176</ele>
        <time>2020-09-12T06:43:50.000Z</time>
      </trkpt>
      <trkpt lat="46.54825" lon="5.39269">
        <ele>228.80000305176</ele>
        <time>2020-09-12T06:43:51.000Z</time>
      </trkpt>
      <trkpt lat="46.54833" lon="5.39273">
        <ele>228.39999389648</ele>
        <time>2020-09-12T06:43:52.000Z</time>
      </trkpt>
      <trkpt lat="46.54849" lon="5.39281">
        <ele>228.39999389648</ele>
        <time>2020-09-12T06:43:54.000Z</time>
      </trkpt>
      <trkpt lat="46.54866" lon="5.39288">
        <ele>227.80000305176</ele>
        <time>2020-09-12T06:43:56.000Z</time>
      </trkpt>
      <trkpt lat="46.54875" lon="5.39292">
        <ele>227.60000610352</ele>
        <time>2020-09-12T06:43:57.000Z</time>
      </trkpt>
      <trkpt lat="46.54884" lon="5.39295">
        <ele>227.39999389648</ele>
        <time>2020-09-12T06:43:58.000Z</time>
      </trkpt>
      <trkpt lat="46.54902" lon="5.39301">
        <ele>227</ele>
        <time>2020-09-12T06:44:00.000Z</time>
      </trkpt>
      <trkpt lat="46.54912" lon="5.39304">
        <ele>226.60000610352</ele>
        <time>2020-09-12T06:44:01.000Z</time>
      </trkpt>
      <trkpt lat="46.54921" lon="5.39307">
        <ele>226.19999694824</ele>
        <time>2020-09-12T06:44:02.000Z</time>
      </trkpt>
      <trkpt lat="46.5494" lon="5.39313">
        <ele>225.39999389648</ele>
        <time>2020-09-12T06:44:04.000Z</time>
      </trkpt>
      <trkpt lat="46.5495" lon="5.39317">
        <ele>225</ele>
        <time>2020-09-12T06:44:05.000Z</time>
      </trkpt>
      <trkpt lat="46.5496" lon="5.39321">
        <ele>224</ele>
        <time>2020-09-12T06:44:06.000Z</time>
      </trkpt>
      <trkpt lat="46.5498" lon="5.39329">
        <ele>223</ele>
        <time>2020-09-12T06:44:08.000Z</time>
      </trkpt>
      <trkpt lat="46.54989" lon="5.39333">
        <ele>222.60000610352</ele>
        <time>2020-09-12T06:44:09.000Z</time>
      </trkpt>
      <trkpt lat="46.54998" lon="5.39337">
        <ele>222</ele>
        <time>2020-09-12T06:44:10.000Z</time>
      </trkpt>
      <trkpt lat="46.55006" lon="5.39342">
        <ele>221.60000610352</ele>
        <time>2020-09-12T06:44:11.000Z</time>
      </trkpt>
      <trkpt lat="46.55014" lon="5.39347">
        <ele>221.19999694824</ele>
        <time>2020-09-12T06:44:12.000Z</time>
      </trkpt>
      <trkpt lat="46.55027" lon="5.39356">
        <ele>220.80000305176</ele>
        <time>2020-09-12T06:44:14.000Z</time>
      </trkpt>
      <trkpt lat="46.55039" lon="5.39364">
        <ele>220.80000305176</ele>
        <time>2020-09-12T06:44:16.000Z</time>
      </trkpt>
      <trkpt lat="46.55051" lon="5.39371">
        <ele>220.80000305176</ele>
        <time>2020-09-12T06:44:18.000Z</time>
      </trkpt>
      <trkpt lat="46.55063" lon="5.39378">
        <ele>220.80000305176</ele>
        <time>2020-09-12T06:44:20.000Z</time>
      </trkpt>
      <trkpt lat="46.55074" lon="5.39384">
        <ele>221.60000610352</ele>
        <time>2020-09-12T06:44:22.000Z</time>
      </trkpt>
      <trkpt lat="46.5508" lon="5.39387">
        <ele>222.39999389648</ele>
        <time>2020-09-12T06:44:23.000Z</time>
      </trkpt>
      <trkpt lat="46.55086" lon="5.3939">
        <ele>223</ele>
        <time>2020-09-12T06:44:24.000Z</time>
      </trkpt>
      <trkpt lat="46.55091" lon="5.39392">
        <ele>223.60000610352</ele>
        <time>2020-09-12T06:44:25.000Z</time>
      </trkpt>
      <trkpt lat="46.55097" lon="5.39395">
        <ele>224</ele>
        <time>2020-09-12T06:44:26.000Z</time>
      </trkpt>
      <trkpt lat="46.55109" lon="5.39401">
        <ele>224.80000305176</ele>
        <time>2020-09-12T06:44:28.000Z</time>
      </trkpt>
      <trkpt lat="46.55121" lon="5.39407">
        <ele>225.19999694824</ele>
        <time>2020-09-12T06:44:30.000Z</time>
      </trkpt>
      <trkpt lat="46.55133" lon="5.39413">
        <ele>226</ele>
        <time>2020-09-12T06:44:32.000Z</time>
      </trkpt>
      <trkpt lat="46.5514" lon="5.39416">
        <ele>226.19999694824</ele>
        <time>2020-09-12T06:44:33.000Z</time>
      </trkpt>
      <trkpt lat="46.55146" lon="5.39418">
        <ele>226.39999389648</ele>
        <time>2020-09-12T06:44:34.000Z</time>
      </trkpt>
      <trkpt lat="46.55159" lon="5.39423">
        <ele>226.60000610352</ele>
        <time>2020-09-12T06:44:36.000Z</time>
      </trkpt>
      <trkpt lat="46.55172" lon="5.39427">
        <ele>226.60000610352</ele>
        <time>2020-09-12T06:44:38.000Z</time>
      </trkpt>
      <trkpt lat="46.55187" lon="5.39429">
        <ele>226.60000610352</ele>
        <time>2020-09-12T06:44:40.000Z</time>
      </trkpt>
      <trkpt lat="46.55201" lon="5.39429">
        <ele>226.60000610352</ele>
        <time>2020-09-12T06:44:42.000Z</time>
      </trkpt>
      <trkpt lat="46.55216" lon="5.39431">
        <ele>226.60000610352</ele>
        <time>2020-09-12T06:44:44.000Z</time>
      </trkpt>
      <trkpt lat="46.5523" lon="5.3944">
        <ele>226.39999389648</ele>
        <time>2020-09-12T06:44:46.000Z</time>
      </trkpt>
      <trkpt lat="46.5524" lon="5.39456">
        <ele>226</ele>
        <time>2020-09-12T06:44:48.000Z</time>
      </trkpt>
      <trkpt lat="46.55252" lon="5.39469">
        <ele>225.60000610352</ele>
        <time>2020-09-12T06:44:50.000Z</time>
      </trkpt>
      <trkpt lat="46.55258" lon="5.39475">
        <ele>225.60000610352</ele>
        <time>2020-09-12T06:44:51.000Z</time>
      </trkpt>
      <trkpt lat="46.55265" lon="5.3948">
        <ele>225.60000610352</ele>
        <time>2020-09-12T06:44:52.000Z</time>
      </trkpt>
      <trkpt lat="46.55278" lon="5.3949">
        <ele>225.60000610352</ele>
        <time>2020-09-12T06:44:54.000Z</time>
      </trkpt>
      <trkpt lat="46.5529" lon="5.395">
        <ele>225.60000610352</ele>
        <time>2020-09-12T06:44:56.000Z</time>
      </trkpt>
      <trkpt lat="46.55303" lon="5.3951">
        <ele>225.60000610352</ele>
        <time>2020-09-12T06:44:58.000Z</time>
      </trkpt>
      <trkpt lat="46.55309" lon="5.39514">
        <ele>225.60000610352</ele>
        <time>2020-09-12T06:44:59.000Z</time>
      </trkpt>
      <trkpt lat="46.55315" lon="5.39519">
        <ele>225.60000610352</ele>
        <time>2020-09-12T06:45:00.000Z</time>
      </trkpt>
      <trkpt lat="46.55328" lon="5.39529">
        <ele>225.60000610352</ele>
        <time>2020-09-12T06:45:02.000Z</time>
      </trkpt>
      <trkpt lat="46.5534" lon="5.39538">
        <ele>226</ele>
        <time>2020-09-12T06:45:04.000Z</time>
      </trkpt>
      <trkpt lat="46.55353" lon="5.39548">
        <ele>226.19999694824</ele>
        <time>2020-09-12T06:45:06.000Z</time>
      </trkpt>
      <trkpt lat="46.55366" lon="5.39558">
        <ele>226.19999694824</ele>
        <time>2020-09-12T06:45:08.000Z</time>
      </trkpt>
      <trkpt lat="46.55378" lon="5.39568">
        <ele>226.19999694824</ele>
        <time>2020-09-12T06:45:10.000Z</time>
      </trkpt>
      <trkpt lat="46.55391" lon="5.39578">
        <ele>226.19999694824</ele>
        <time>2020-09-12T06:45:12.000Z</time>
      </trkpt>
      <trkpt lat="46.55404" lon="5.3959">
        <ele>226.19999694824</ele>
        <time>2020-09-12T06:45:14.000Z</time>
      </trkpt>
      <trkpt lat="46.55418" lon="5.39601">
        <ele>226.19999694824</ele>
        <time>2020-09-12T06:45:16.000Z</time>
      </trkpt>
      <trkpt lat="46.55424" lon="5.39607">
        <ele>226</ele>
        <time>2020-09-12T06:45:17.000Z</time>
      </trkpt>
      <trkpt lat="46.55432" lon="5.39612">
        <ele>226</ele>
        <time>2020-09-12T06:45:18.000Z</time>
      </trkpt>
      <trkpt lat="46.55446" lon="5.39626">
        <ele>225.80000305176</ele>
        <time>2020-09-12T06:45:20.000Z</time>
      </trkpt>
      <trkpt lat="46.55462" lon="5.3964">
        <ele>225.39999389648</ele>
        <time>2020-09-12T06:45:22.000Z</time>
      </trkpt>
      <trkpt lat="46.55478" lon="5.39653">
        <ele>225.19999694824</ele>
        <time>2020-09-12T06:45:24.000Z</time>
      </trkpt>
      <trkpt lat="46.55493" lon="5.39666">
        <ele>224.60000610352</ele>
        <time>2020-09-12T06:45:26.000Z</time>
      </trkpt>
      <trkpt lat="46.55508" lon="5.39678">
        <ele>223.60000610352</ele>
        <time>2020-09-12T06:45:28.000Z</time>
      </trkpt>
      <trkpt lat="46.55523" lon="5.3969">
        <ele>222.39999389648</ele>
        <time>2020-09-12T06:45:30.000Z</time>
      </trkpt>
      <trkpt lat="46.55531" lon="5.39696">
        <ele>222</ele>
        <time>2020-09-12T06:45:31.000Z</time>
      </trkpt>
      <trkpt lat="46.55538" lon="5.39702">
        <ele>221.80000305176</ele>
        <time>2020-09-12T06:45:32.000Z</time>
      </trkpt>
      <trkpt lat="46.55552" lon="5.39714">
        <ele>221.60000610352</ele>
        <time>2020-09-12T06:45:34.000Z</time>
      </trkpt>
      <trkpt lat="46.55566" lon="5.39727">
        <ele>221.60000610352</ele>
        <time>2020-09-12T06:45:36.000Z</time>
      </trkpt>
      <trkpt lat="46.55581" lon="5.39739">
        <ele>221.39999389648</ele>
        <time>2020-09-12T06:45:38.000Z</time>
      </trkpt>
      <trkpt lat="46.55595" lon="5.39751">
        <ele>221.39999389648</ele>
        <time>2020-09-12T06:45:40.000Z</time>
      </trkpt>
      <trkpt lat="46.55609" lon="5.39762">
        <ele>221.39999389648</ele>
        <time>2020-09-12T06:45:42.000Z</time>
      </trkpt>
      <trkpt lat="46.55624" lon="5.39772">
        <ele>221.39999389648</ele>
        <time>2020-09-12T06:45:44.000Z</time>
      </trkpt>
      <trkpt lat="46.55636" lon="5.3978">
        <ele>221.39999389648</ele>
        <time>2020-09-12T06:45:46.000Z</time>
      </trkpt>
      <trkpt lat="46.55643" lon="5.39784">
        <ele>221.39999389648</ele>
        <time>2020-09-12T06:45:47.000Z</time>
      </trkpt>
      <trkpt lat="46.55649" lon="5.39788">
        <ele>221.39999389648</ele>
        <time>2020-09-12T06:45:48.000Z</time>
      </trkpt>
      <trkpt lat="46.5566" lon="5.39796">
        <ele>221.39999389648</ele>
        <time>2020-09-12T06:45:50.000Z</time>
      </trkpt>
      <trkpt lat="46.55672" lon="5.39805">
        <ele>221.60000610352</ele>
        <time>2020-09-12T06:45:52.000Z</time>
      </trkpt>
      <trkpt lat="46.55683" lon="5.39814">
        <ele>222.39999389648</ele>
        <time>2020-09-12T06:45:54.000Z</time>
      </trkpt>
      <trkpt lat="46.55689" lon="5.39819">
        <ele>222.80000305176</ele>
        <time>2020-09-12T06:45:55.000Z</time>
      </trkpt>
      <trkpt lat="46.55695" lon="5.39824">
        <ele>223.19999694824</ele>
        <time>2020-09-12T06:45:56.000Z</time>
      </trkpt>
      <trkpt lat="46.55707" lon="5.39835">
        <ele>223.60000610352</ele>
        <time>2020-09-12T06:45:58.000Z</time>
      </trkpt>
      <trkpt lat="46.55719" lon="5.39847">
        <ele>223.60000610352</ele>
        <time>2020-09-12T06:46:00.000Z</time>
      </trkpt>
      <trkpt lat="46.55725" lon="5.39853">
        <ele>223.60000610352</ele>
        <time>2020-09-12T06:46:01.000Z</time>
      </trkpt>
      <trkpt lat="46.55732" lon="5.39859">
        <ele>223.80000305176</ele>
        <time>2020-09-12T06:46:02.000Z</time>
      </trkpt>
      <trkpt lat="46.55745" lon="5.39872">
        <ele>223.80000305176</ele>
        <time>2020-09-12T06:46:04.000Z</time>
      </trkpt>
      <trkpt lat="46.5576" lon="5.39884">
        <ele>223.19999694824</ele>
        <time>2020-09-12T06:46:06.000Z</time>
      </trkpt>
      <trkpt lat="46.55768" lon="5.3989">
        <ele>223</ele>
        <time>2020-09-12T06:46:07.000Z</time>
      </trkpt>
      <trkpt lat="46.55783" lon="5.39902">
        <ele>222.39999389648</ele>
        <time>2020-09-12T06:46:09.000Z</time>
      </trkpt>
      <trkpt lat="46.55795" lon="5.39911">
        <ele>221.60000610352</ele>
        <time>2020-09-12T06:46:11.000Z</time>
      </trkpt>
      <trkpt lat="46.558" lon="5.39914">
        <ele>221</ele>
        <time>2020-09-12T06:46:12.000Z</time>
      </trkpt>
      <trkpt lat="46.55804" lon="5.39917">
        <ele>220.60000610352</ele>
        <time>2020-09-12T06:46:13.000Z</time>
      </trkpt>
      <trkpt lat="46.55808" lon="5.39917">
        <ele>220.39999389648</ele>
        <time>2020-09-12T06:46:14.000Z</time>
      </trkpt>
      <trkpt lat="46.55813" lon="5.39914">
        <ele>220.19999694824</ele>
        <time>2020-09-12T06:46:15.000Z</time>
      </trkpt>
      <trkpt lat="46.55816" lon="5.39909">
        <ele>220.19999694824</ele>
        <time>2020-09-12T06:46:16.000Z</time>
      </trkpt>
      <trkpt lat="46.55823" lon="5.39894">
        <ele>220</ele>
        <time>2020-09-12T06:46:18.000Z</time>
      </trkpt>
      <trkpt lat="46.55828" lon="5.39877">
        <ele>219.60000610352</ele>
        <time>2020-09-12T06:46:20.000Z</time>
      </trkpt>
      <trkpt lat="46.5583" lon="5.39868">
        <ele>219.60000610352</ele>
        <time>2020-09-12T06:46:21.000Z</time>
      </trkpt>
      <trkpt lat="46.55833" lon="5.39858">
        <ele>219.39999389648</ele>
        <time>2020-09-12T06:46:22.000Z</time>
      </trkpt>
      <trkpt lat="46.55835" lon="5.39849">
        <ele>219.39999389648</ele>
        <time>2020-09-12T06:46:23.000Z</time>
      </trkpt>
      <trkpt lat="46.55837" lon="5.3984">
        <ele>219.39999389648</ele>
        <time>2020-09-12T06:46:24.000Z</time>
      </trkpt>
      <trkpt lat="46.55841" lon="5.39822">
        <ele>219.39999389648</ele>
        <time>2020-09-12T06:46:26.000Z</time>
      </trkpt>
      <trkpt lat="46.55846" lon="5.39803">
        <ele>219.60000610352</ele>
        <time>2020-09-12T06:46:28.000Z</time>
      </trkpt>
      <trkpt lat="46.55851" lon="5.39784">
        <ele>219.60000610352</ele>
        <time>2020-09-12T06:46:30.000Z</time>
      </trkpt>
      <trkpt lat="46.55856" lon="5.39764">
        <ele>219.39999389648</ele>
        <time>2020-09-12T06:46:32.000Z</time>
      </trkpt>
      <trkpt lat="46.55862" lon="5.39743">
        <ele>219.19999694824</ele>
        <time>2020-09-12T06:46:34.000Z</time>
      </trkpt>
      <trkpt lat="46.55868" lon="5.39721">
        <ele>219</ele>
        <time>2020-09-12T06:46:36.000Z</time>
      </trkpt>
      <trkpt lat="46.55874" lon="5.397">
        <ele>219</ele>
        <time>2020-09-12T06:46:38.000Z</time>
      </trkpt>
      <trkpt lat="46.5588" lon="5.39678">
        <ele>218.80000305176</ele>
        <time>2020-09-12T06:46:40.000Z</time>
      </trkpt>
      <trkpt lat="46.55885" lon="5.39656">
        <ele>218.60000610352</ele>
        <time>2020-09-12T06:46:42.000Z</time>
      </trkpt>
      <trkpt lat="46.55888" lon="5.39644">
        <ele>218.19999694824</ele>
        <time>2020-09-12T06:46:43.000Z</time>
      </trkpt>
      <trkpt lat="46.5589" lon="5.39633">
        <ele>218</ele>
        <time>2020-09-12T06:46:44.000Z</time>
      </trkpt>
      <trkpt lat="46.55894" lon="5.3961">
        <ele>217.39999389648</ele>
        <time>2020-09-12T06:46:46.000Z</time>
      </trkpt>
      <trkpt lat="46.55897" lon="5.39587">
        <ele>217.19999694824</ele>
        <time>2020-09-12T06:46:48.000Z</time>
      </trkpt>
      <trkpt lat="46.55899" lon="5.39576">
        <ele>217</ele>
        <time>2020-09-12T06:46:49.000Z</time>
      </trkpt>
      <trkpt lat="46.559" lon="5.39564">
        <ele>216.80000305176</ele>
        <time>2020-09-12T06:46:50.000Z</time>
      </trkpt>
      <trkpt lat="46.55903" lon="5.39541">
        <ele>216.39999389648</ele>
        <time>2020-09-12T06:46:52.000Z</time>
      </trkpt>
      <trkpt lat="46.55904" lon="5.3953">
        <ele>216.19999694824</ele>
        <time>2020-09-12T06:46:53.000Z</time>
      </trkpt>
      <trkpt lat="46.55906" lon="5.39518">
        <ele>216</ele>
        <time>2020-09-12T06:46:54.000Z</time>
      </trkpt>
      <trkpt lat="46.55909" lon="5.39495">
        <ele>215.80000305176</ele>
        <time>2020-09-12T06:46:56.000Z</time>
      </trkpt>
      <trkpt lat="46.55911" lon="5.39472">
        <ele>215.60000610352</ele>
        <time>2020-09-12T06:46:58.000Z</time>
      </trkpt>
      <trkpt lat="46.55914" lon="5.39448">
        <ele>215.60000610352</ele>
        <time>2020-09-12T06:47:00.000Z</time>
      </trkpt>
      <trkpt lat="46.55916" lon="5.39424">
        <ele>215.60000610352</ele>
        <time>2020-09-12T06:47:02.000Z</time>
      </trkpt>
      <trkpt lat="46.55917" lon="5.39412">
        <ele>215.60000610352</ele>
        <time>2020-09-12T06:47:03.000Z</time>
      </trkpt>
      <trkpt lat="46.55919" lon="5.394">
        <ele>215.39999389648</ele>
        <time>2020-09-12T06:47:04.000Z</time>
      </trkpt>
      <trkpt lat="46.55921" lon="5.39376">
        <ele>215</ele>
        <time>2020-09-12T06:47:06.000Z</time>
      </trkpt>
      <trkpt lat="46.55924" lon="5.39351">
        <ele>214.80000305176</ele>
        <time>2020-09-12T06:47:08.000Z</time>
      </trkpt>
      <trkpt lat="46.55927" lon="5.39326">
        <ele>214.19999694824</ele>
        <time>2020-09-12T06:47:10.000Z</time>
      </trkpt>
      <trkpt lat="46.55928" lon="5.39314">
        <ele>214</ele>
        <time>2020-09-12T06:47:11.000Z</time>
      </trkpt>
      <trkpt lat="46.5593" lon="5.39302">
        <ele>213.80000305176</ele>
        <time>2020-09-12T06:47:12.000Z</time>
      </trkpt>
      <trkpt lat="46.55932" lon="5.3929">
        <ele>213.60000610352</ele>
        <time>2020-09-12T06:47:13.000Z</time>
      </trkpt>
      <trkpt lat="46.55933" lon="5.39277">
        <ele>213.60000610352</ele>
        <time>2020-09-12T06:47:14.000Z</time>
      </trkpt>
      <trkpt lat="46.55936" lon="5.39253">
        <ele>213.19999694824</ele>
        <time>2020-09-12T06:47:16.000Z</time>
      </trkpt>
      <trkpt lat="46.55937" lon="5.39241">
        <ele>212.60000610352</ele>
        <time>2020-09-12T06:47:17.000Z</time>
      </trkpt>
      <trkpt lat="46.55938" lon="5.3923">
        <ele>212.19999694824</ele>
        <time>2020-09-12T06:47:18.000Z</time>
      </trkpt>
      <trkpt lat="46.5594" lon="5.39205">
        <ele>211.80000305176</ele>
        <time>2020-09-12T06:47:20.000Z</time>
      </trkpt>
      <trkpt lat="46.5594" lon="5.39193">
        <ele>211.60000610352</ele>
        <time>2020-09-12T06:47:21.000Z</time>
      </trkpt>
      <trkpt lat="46.5594" lon="5.39181">
        <ele>211.60000610352</ele>
        <time>2020-09-12T06:47:22.000Z</time>
      </trkpt>
      <trkpt lat="46.5594" lon="5.39157">
        <ele>211.39999389648</ele>
        <time>2020-09-12T06:47:24.000Z</time>
      </trkpt>
      <trkpt lat="46.55941" lon="5.39133">
        <ele>211.39999389648</ele>
        <time>2020-09-12T06:47:26.000Z</time>
      </trkpt>
      <trkpt lat="46.55942" lon="5.39109">
        <ele>211.19999694824</ele>
        <time>2020-09-12T06:47:28.000Z</time>
      </trkpt>
      <trkpt lat="46.55943" lon="5.39085">
        <ele>211</ele>
        <time>2020-09-12T06:47:30.000Z</time>
      </trkpt>
      <trkpt lat="46.55944" lon="5.39073">
        <ele>211</ele>
        <time>2020-09-12T06:47:31.000Z</time>
      </trkpt>
      <trkpt lat="46.55945" lon="5.3906">
        <ele>211</ele>
        <time>2020-09-12T06:47:32.000Z</time>
      </trkpt>
      <trkpt lat="46.55948" lon="5.39033">
        <ele>210.60000610352</ele>
        <time>2020-09-12T06:47:34.000Z</time>
      </trkpt>
      <trkpt lat="46.5595" lon="5.39019">
        <ele>210.39999389648</ele>
        <time>2020-09-12T06:47:35.000Z</time>
      </trkpt>
      <trkpt lat="46.55953" lon="5.39005">
        <ele>210.19999694824</ele>
        <time>2020-09-12T06:47:36.000Z</time>
      </trkpt>
      <trkpt lat="46.55961" lon="5.38979">
        <ele>209.60000610352</ele>
        <time>2020-09-12T06:47:38.000Z</time>
      </trkpt>
      <trkpt lat="46.55966" lon="5.38967">
        <ele>209</ele>
        <time>2020-09-12T06:47:39.000Z</time>
      </trkpt>
      <trkpt lat="46.5597" lon="5.38954">
        <ele>208.60000610352</ele>
        <time>2020-09-12T06:47:40.000Z</time>
      </trkpt>
      <trkpt lat="46.55975" lon="5.38942">
        <ele>207.80000305176</ele>
        <time>2020-09-12T06:47:41.000Z</time>
      </trkpt>
      <trkpt lat="46.55979" lon="5.38931">
        <ele>207.19999694824</ele>
        <time>2020-09-12T06:47:42.000Z</time>
      </trkpt>
      <trkpt lat="46.55983" lon="5.38919">
        <ele>206.60000610352</ele>
        <time>2020-09-12T06:47:43.000Z</time>
      </trkpt>
      <trkpt lat="46.55987" lon="5.38907">
        <ele>206</ele>
        <time>2020-09-12T06:47:44.000Z</time>
      </trkpt>
      <trkpt lat="46.55995" lon="5.38885">
        <ele>205.60000610352</ele>
        <time>2020-09-12T06:47:46.000Z</time>
      </trkpt>
      <trkpt lat="46.55998" lon="5.38873">
        <ele>205.39999389648</ele>
        <time>2020-09-12T06:47:47.000Z</time>
      </trkpt>
      <trkpt lat="46.56001" lon="5.38862">
        <ele>205.39999389648</ele>
        <time>2020-09-12T06:47:48.000Z</time>
      </trkpt>
      <trkpt lat="46.56006" lon="5.3884">
        <ele>205.39999389648</ele>
        <time>2020-09-12T06:47:50.000Z</time>
      </trkpt>
      <trkpt lat="46.5601" lon="5.38818">
        <ele>205.39999389648</ele>
        <time>2020-09-12T06:47:52.000Z</time>
      </trkpt>
      <trkpt lat="46.56012" lon="5.38798">
        <ele>205.60000610352</ele>
        <time>2020-09-12T06:47:54.000Z</time>
      </trkpt>
      <trkpt lat="46.56013" lon="5.38779">
        <ele>205.80000305176</ele>
        <time>2020-09-12T06:47:56.000Z</time>
      </trkpt>
      <trkpt lat="46.56012" lon="5.38762">
        <ele>206.19999694824</ele>
        <time>2020-09-12T06:47:58.000Z</time>
      </trkpt>
      <trkpt lat="46.56012" lon="5.38754">
        <ele>206.39999389648</ele>
        <time>2020-09-12T06:47:59.000Z</time>
      </trkpt>
      <trkpt lat="46.56011" lon="5.38746">
        <ele>207</ele>
        <time>2020-09-12T06:48:00.000Z</time>
      </trkpt>
      <trkpt lat="46.5601" lon="5.38739">
        <ele>207.80000305176</ele>
        <time>2020-09-12T06:48:01.000Z</time>
      </trkpt>
      <trkpt lat="46.56009" lon="5.38731">
        <ele>208.39999389648</ele>
        <time>2020-09-12T06:48:02.000Z</time>
      </trkpt>
      <trkpt lat="46.56008" lon="5.38723">
        <ele>209</ele>
        <time>2020-09-12T06:48:03.000Z</time>
      </trkpt>
      <trkpt lat="46.56007" lon="5.38715">
        <ele>209.80000305176</ele>
        <time>2020-09-12T06:48:04.000Z</time>
      </trkpt>
      <trkpt lat="46.56006" lon="5.38707">
        <ele>210.19999694824</ele>
        <time>2020-09-12T06:48:05.000Z</time>
      </trkpt>
      <trkpt lat="46.56006" lon="5.38699">
        <ele>210.80000305176</ele>
        <time>2020-09-12T06:48:06.000Z</time>
      </trkpt>
      <trkpt lat="46.56005" lon="5.38682">
        <ele>211.60000610352</ele>
        <time>2020-09-12T06:48:08.000Z</time>
      </trkpt>
      <trkpt lat="46.56004" lon="5.38665">
        <ele>212</ele>
        <time>2020-09-12T06:48:10.000Z</time>
      </trkpt>
      <trkpt lat="46.56002" lon="5.38646">
        <ele>212.19999694824</ele>
        <time>2020-09-12T06:48:12.000Z</time>
      </trkpt>
      <trkpt lat="46.56001" lon="5.38636">
        <ele>212.39999389648</ele>
        <time>2020-09-12T06:48:13.000Z</time>
      </trkpt>
      <trkpt lat="46.55999" lon="5.38626">
        <ele>212.39999389648</ele>
        <time>2020-09-12T06:48:14.000Z</time>
      </trkpt>
      <trkpt lat="46.55996" lon="5.38607">
        <ele>212.39999389648</ele>
        <time>2020-09-12T06:48:16.000Z</time>
      </trkpt>
      <trkpt lat="46.55993" lon="5.38588">
        <ele>212.39999389648</ele>
        <time>2020-09-12T06:48:18.000Z</time>
      </trkpt>
      <trkpt lat="46.5599" lon="5.38568">
        <ele>212.39999389648</ele>
        <time>2020-09-12T06:48:20.000Z</time>
      </trkpt>
      <trkpt lat="46.55989" lon="5.38559">
        <ele>212.19999694824</ele>
        <time>2020-09-12T06:48:21.000Z</time>
      </trkpt>
      <trkpt lat="46.55988" lon="5.38549">
        <ele>212</ele>
        <time>2020-09-12T06:48:22.000Z</time>
      </trkpt>
      <trkpt lat="46.55986" lon="5.3853">
        <ele>212</ele>
        <time>2020-09-12T06:48:24.000Z</time>
      </trkpt>
      <trkpt lat="46.55984" lon="5.38512">
        <ele>212</ele>
        <time>2020-09-12T06:48:26.000Z</time>
      </trkpt>
      <trkpt lat="46.55983" lon="5.38494">
        <ele>211.80000305176</ele>
        <time>2020-09-12T06:48:28.000Z</time>
      </trkpt>
      <trkpt lat="46.55981" lon="5.38476">
        <ele>211.80000305176</ele>
        <time>2020-09-12T06:48:30.000Z</time>
      </trkpt>
      <trkpt lat="46.55981" lon="5.38468">
        <ele>212</ele>
        <time>2020-09-12T06:48:31.000Z</time>
      </trkpt>
      <trkpt lat="46.55981" lon="5.38459">
        <ele>211.80000305176</ele>
        <time>2020-09-12T06:48:32.000Z</time>
      </trkpt>
      <trkpt lat="46.55981" lon="5.3844">
        <ele>212.19999694824</ele>
        <time>2020-09-12T06:48:34.000Z</time>
      </trkpt>
      <trkpt lat="46.55983" lon="5.3842">
        <ele>212.19999694824</ele>
        <time>2020-09-12T06:48:36.000Z</time>
      </trkpt>
      <trkpt lat="46.55984" lon="5.38409">
        <ele>212.19999694824</ele>
        <time>2020-09-12T06:48:37.000Z</time>
      </trkpt>
      <trkpt lat="46.55985" lon="5.38398">
        <ele>212.19999694824</ele>
        <time>2020-09-12T06:48:38.000Z</time>
      </trkpt>
      <trkpt lat="46.55988" lon="5.38376">
        <ele>212.19999694824</ele>
        <time>2020-09-12T06:48:40.000Z</time>
      </trkpt>
      <trkpt lat="46.55991" lon="5.38354">
        <ele>212.19999694824</ele>
        <time>2020-09-12T06:48:42.000Z</time>
      </trkpt>
      <trkpt lat="46.55994" lon="5.38331">
        <ele>212.19999694824</ele>
        <time>2020-09-12T06:48:44.000Z</time>
      </trkpt>
      <trkpt lat="46.55996" lon="5.38319">
        <ele>211.80000305176</ele>
        <time>2020-09-12T06:48:45.000Z</time>
      </trkpt>
      <trkpt lat="46.55998" lon="5.38307">
        <ele>211.39999389648</ele>
        <time>2020-09-12T06:48:46.000Z</time>
      </trkpt>
      <trkpt lat="46.56001" lon="5.38284">
        <ele>211</ele>
        <time>2020-09-12T06:48:48.000Z</time>
      </trkpt>
      <trkpt lat="46.56004" lon="5.3826">
        <ele>210.39999389648</ele>
        <time>2020-09-12T06:48:50.000Z</time>
      </trkpt>
      <trkpt lat="46.56006" lon="5.38248">
        <ele>210.19999694824</ele>
        <time>2020-09-12T06:48:51.000Z</time>
      </trkpt>
      <trkpt lat="46.56007" lon="5.38237">
        <ele>209.80000305176</ele>
        <time>2020-09-12T06:48:52.000Z</time>
      </trkpt>
      <trkpt lat="46.56012" lon="5.38215">
        <ele>209.19999694824</ele>
        <time>2020-09-12T06:48:54.000Z</time>
      </trkpt>
      <trkpt lat="46.56015" lon="5.38205">
        <ele>209</ele>
        <time>2020-09-12T06:48:55.000Z</time>
      </trkpt>
      <trkpt lat="46.5602" lon="5.38196">
        <ele>208.80000305176</ele>
        <time>2020-09-12T06:48:56.000Z</time>
      </trkpt>
      <trkpt lat="46.56025" lon="5.38188">
        <ele>208.60000610352</ele>
        <time>2020-09-12T06:48:57.000Z</time>
      </trkpt>
      <trkpt lat="46.56031" lon="5.38182">
        <ele>208.60000610352</ele>
        <time>2020-09-12T06:48:58.000Z</time>
      </trkpt>
      <trkpt lat="46.56044" lon="5.38172">
        <ele>208.60000610352</ele>
        <time>2020-09-12T06:49:00.000Z</time>
      </trkpt>
      <trkpt lat="46.56057" lon="5.38163">
        <ele>208.60000610352</ele>
        <time>2020-09-12T06:49:02.000Z</time>
      </trkpt>
      <trkpt lat="46.5607" lon="5.38155">
        <ele>208.60000610352</ele>
        <time>2020-09-12T06:49:04.000Z</time>
      </trkpt>
      <trkpt lat="46.56084" lon="5.38146">
        <ele>208.80000305176</ele>
        <time>2020-09-12T06:49:06.000Z</time>
      </trkpt>
      <trkpt lat="46.56097" lon="5.38136">
        <ele>208.80000305176</ele>
        <time>2020-09-12T06:49:08.000Z</time>
      </trkpt>
      <trkpt lat="46.56111" lon="5.38127">
        <ele>208.80000305176</ele>
        <time>2020-09-12T06:49:10.000Z</time>
      </trkpt>
      <trkpt lat="46.56124" lon="5.38117">
        <ele>208.80000305176</ele>
        <time>2020-09-12T06:49:12.000Z</time>
      </trkpt>
      <trkpt lat="46.56138" lon="5.38107">
        <ele>208.80000305176</ele>
        <time>2020-09-12T06:49:14.000Z</time>
      </trkpt>
      <trkpt lat="46.56151" lon="5.38095">
        <ele>208.80000305176</ele>
        <time>2020-09-12T06:49:16.000Z</time>
      </trkpt>
      <trkpt lat="46.56157" lon="5.38088">
        <ele>208.60000610352</ele>
        <time>2020-09-12T06:49:17.000Z</time>
      </trkpt>
      <trkpt lat="46.56162" lon="5.3808">
        <ele>208.39999389648</ele>
        <time>2020-09-12T06:49:18.000Z</time>
      </trkpt>
      <trkpt lat="46.56172" lon="5.38063">
        <ele>208</ele>
        <time>2020-09-12T06:49:20.000Z</time>
      </trkpt>
      <trkpt lat="46.56176" lon="5.38054">
        <ele>207.80000305176</ele>
        <time>2020-09-12T06:49:21.000Z</time>
      </trkpt>
      <trkpt lat="46.56181" lon="5.38046">
        <ele>207.39999389648</ele>
        <time>2020-09-12T06:49:22.000Z</time>
      </trkpt>
      <trkpt lat="46.5619" lon="5.38029">
        <ele>207.39999389648</ele>
        <time>2020-09-12T06:49:24.000Z</time>
      </trkpt>
      <trkpt lat="46.562" lon="5.38012">
        <ele>207.39999389648</ele>
        <time>2020-09-12T06:49:26.000Z</time>
      </trkpt>
      <trkpt lat="46.56211" lon="5.37996">
        <ele>207.19999694824</ele>
        <time>2020-09-12T06:49:28.000Z</time>
      </trkpt>
      <trkpt lat="46.56217" lon="5.37989">
        <ele>207</ele>
        <time>2020-09-12T06:49:29.000Z</time>
      </trkpt>
      <trkpt lat="46.56224" lon="5.37984">
        <ele>207</ele>
        <time>2020-09-12T06:49:30.000Z</time>
      </trkpt>
      <trkpt lat="46.56238" lon="5.37976">
        <ele>206.80000305176</ele>
        <time>2020-09-12T06:49:32.000Z</time>
      </trkpt>
      <trkpt lat="46.56253" lon="5.37968">
        <ele>206.60000610352</ele>
        <time>2020-09-12T06:49:34.000Z</time>
      </trkpt>
      <trkpt lat="46.5626" lon="5.37964">
        <ele>206.60000610352</ele>
        <time>2020-09-12T06:49:35.000Z</time>
      </trkpt>
      <trkpt lat="46.56267" lon="5.37961">
        <ele>206.60000610352</ele>
        <time>2020-09-12T06:49:36.000Z</time>
      </trkpt>
      <trkpt lat="46.56281" lon="5.37954">
        <ele>206.39999389648</ele>
        <time>2020-09-12T06:49:38.000Z</time>
      </trkpt>
      <trkpt lat="46.56296" lon="5.3795">
        <ele>206.39999389648</ele>
        <time>2020-09-12T06:49:40.000Z</time>
      </trkpt>
      <trkpt lat="46.56303" lon="5.3795">
        <ele>206.39999389648</ele>
        <time>2020-09-12T06:49:41.000Z</time>
      </trkpt>
      <trkpt lat="46.56311" lon="5.3795">
        <ele>206.19999694824</ele>
        <time>2020-09-12T06:49:42.000Z</time>
      </trkpt>
      <trkpt lat="46.56325" lon="5.37952">
        <ele>206.19999694824</ele>
        <time>2020-09-12T06:49:44.000Z</time>
      </trkpt>
      <trkpt lat="46.5634" lon="5.37952">
        <ele>206.19999694824</ele>
        <time>2020-09-12T06:49:46.000Z</time>
      </trkpt>
      <trkpt lat="46.56347" lon="5.37951">
        <ele>206.19999694824</ele>
        <time>2020-09-12T06:49:47.000Z</time>
      </trkpt>
      <trkpt lat="46.56354" lon="5.37949">
        <ele>206.19999694824</ele>
        <time>2020-09-12T06:49:48.000Z</time>
      </trkpt>
      <trkpt lat="46.56367" lon="5.37942">
        <ele>206.19999694824</ele>
        <time>2020-09-12T06:49:50.000Z</time>
      </trkpt>
      <trkpt lat="46.5638" lon="5.37935">
        <ele>206.39999389648</ele>
        <time>2020-09-12T06:49:52.000Z</time>
      </trkpt>
      <trkpt lat="46.56387" lon="5.37933">
        <ele>206.39999389648</ele>
        <time>2020-09-12T06:49:53.000Z</time>
      </trkpt>
      <trkpt lat="46.56394" lon="5.37932">
        <ele>206.39999389648</ele>
        <time>2020-09-12T06:49:54.000Z</time>
      </trkpt>
      <trkpt lat="46.56407" lon="5.37931">
        <ele>206.60000610352</ele>
        <time>2020-09-12T06:49:56.000Z</time>
      </trkpt>
      <trkpt lat="46.56419" lon="5.37933">
        <ele>206.80000305176</ele>
        <time>2020-09-12T06:49:58.000Z</time>
      </trkpt>
      <trkpt lat="46.56432" lon="5.37936">
        <ele>207</ele>
        <time>2020-09-12T06:50:00.000Z</time>
      </trkpt>
      <trkpt lat="46.56444" lon="5.3794">
        <ele>207.39999389648</ele>
        <time>2020-09-12T06:50:02.000Z</time>
      </trkpt>
      <trkpt lat="46.5645" lon="5.37941">
        <ele>207.60000610352</ele>
        <time>2020-09-12T06:50:03.000Z</time>
      </trkpt>
      <trkpt lat="46.56456" lon="5.37943">
        <ele>207.80000305176</ele>
        <time>2020-09-12T06:50:04.000Z</time>
      </trkpt>
      <trkpt lat="46.56468" lon="5.37946">
        <ele>208.19999694824</ele>
        <time>2020-09-12T06:50:06.000Z</time>
      </trkpt>
      <trkpt lat="46.5648" lon="5.37949">
        <ele>208.60000610352</ele>
        <time>2020-09-12T06:50:08.000Z</time>
      </trkpt>
      <trkpt lat="46.56486" lon="5.3795">
        <ele>208.80000305176</ele>
        <time>2020-09-12T06:50:09.000Z</time>
      </trkpt>
      <trkpt lat="46.56492" lon="5.37952">
        <ele>209</ele>
        <time>2020-09-12T06:50:10.000Z</time>
      </trkpt>
      <trkpt lat="46.56504" lon="5.37954">
        <ele>209.39999389648</ele>
        <time>2020-09-12T06:50:12.000Z</time>
      </trkpt>
      <trkpt lat="46.56511" lon="5.37953">
        <ele>209.39999389648</ele>
        <time>2020-09-12T06:50:13.000Z</time>
      </trkpt>
      <trkpt lat="46.56517" lon="5.37952">
        <ele>209.39999389648</ele>
        <time>2020-09-12T06:50:14.000Z</time>
      </trkpt>
      <trkpt lat="46.56528" lon="5.37946">
        <ele>209.60000610352</ele>
        <time>2020-09-12T06:50:16.000Z</time>
      </trkpt>
      <trkpt lat="46.56534" lon="5.37942">
        <ele>209.60000610352</ele>
        <time>2020-09-12T06:50:17.000Z</time>
      </trkpt>
      <trkpt lat="46.5654" lon="5.37938">
        <ele>209.60000610352</ele>
        <time>2020-09-12T06:50:18.000Z</time>
      </trkpt>
      <trkpt lat="46.56551" lon="5.3793">
        <ele>209.80000305176</ele>
        <time>2020-09-12T06:50:20.000Z</time>
      </trkpt>
      <trkpt lat="46.56557" lon="5.37926">
        <ele>209.80000305176</ele>
        <time>2020-09-12T06:50:21.000Z</time>
      </trkpt>
      <trkpt lat="46.56562" lon="5.37923">
        <ele>210</ele>
        <time>2020-09-12T06:50:22.000Z</time>
      </trkpt>
      <trkpt lat="46.56574" lon="5.37919">
        <ele>210.19999694824</ele>
        <time>2020-09-12T06:50:24.000Z</time>
      </trkpt>
      <trkpt lat="46.56586" lon="5.37917">
        <ele>210.19999694824</ele>
        <time>2020-09-12T06:50:26.000Z</time>
      </trkpt>
      <trkpt lat="46.56599" lon="5.37917">
        <ele>210.39999389648</ele>
        <time>2020-09-12T06:50:28.000Z</time>
      </trkpt>
      <trkpt lat="46.56612" lon="5.37918">
        <ele>210.60000610352</ele>
        <time>2020-09-12T06:50:30.000Z</time>
      </trkpt>
      <trkpt lat="46.56625" lon="5.37921">
        <ele>210.80000305176</ele>
        <time>2020-09-12T06:50:32.000Z</time>
      </trkpt>
      <trkpt lat="46.56638" lon="5.37924">
        <ele>210.80000305176</ele>
        <time>2020-09-12T06:50:34.000Z</time>
      </trkpt>
      <trkpt lat="46.56652" lon="5.37927">
        <ele>210.80000305176</ele>
        <time>2020-09-12T06:50:36.000Z</time>
      </trkpt>
      <trkpt lat="46.56665" lon="5.3793">
        <ele>210.80000305176</ele>
        <time>2020-09-12T06:50:38.000Z</time>
      </trkpt>
      <trkpt lat="46.56672" lon="5.37931">
        <ele>210.80000305176</ele>
        <time>2020-09-12T06:50:39.000Z</time>
      </trkpt>
      <trkpt lat="46.56679" lon="5.37933">
        <ele>210.80000305176</ele>
        <time>2020-09-12T06:50:40.000Z</time>
      </trkpt>
      <trkpt lat="46.56691" lon="5.37936">
        <ele>210.80000305176</ele>
        <time>2020-09-12T06:50:42.000Z</time>
      </trkpt>
      <trkpt lat="46.56702" lon="5.37939">
        <ele>210.60000610352</ele>
        <time>2020-09-12T06:50:44.000Z</time>
      </trkpt>
      <trkpt lat="46.56706" lon="5.3794">
        <ele>210.60000610352</ele>
        <time>2020-09-12T06:50:45.000Z</time>
      </trkpt>
      <trkpt lat="46.56711" lon="5.37941">
        <ele>210.60000610352</ele>
        <time>2020-09-12T06:50:46.000Z</time>
      </trkpt>
      <trkpt lat="46.56722" lon="5.37945">
        <ele>210.39999389648</ele>
        <time>2020-09-12T06:50:48.000Z</time>
      </trkpt>
      <trkpt lat="46.56734" lon="5.37948">
        <ele>210.19999694824</ele>
        <time>2020-09-12T06:50:50.000Z</time>
      </trkpt>
      <trkpt lat="46.56741" lon="5.37949">
        <ele>210.19999694824</ele>
        <time>2020-09-12T06:50:51.000Z</time>
      </trkpt>
      <trkpt lat="46.56748" lon="5.3795">
        <ele>210.19999694824</ele>
        <time>2020-09-12T06:50:52.000Z</time>
      </trkpt>
      <trkpt lat="46.56764" lon="5.37954">
        <ele>210</ele>
        <time>2020-09-12T06:50:54.000Z</time>
      </trkpt>
      <trkpt lat="46.56779" lon="5.37957">
        <ele>210</ele>
        <time>2020-09-12T06:50:56.000Z</time>
      </trkpt>
      <trkpt lat="46.56787" lon="5.37958">
        <ele>209.60000610352</ele>
        <time>2020-09-12T06:50:57.000Z</time>
      </trkpt>
      <trkpt lat="46.56794" lon="5.3796">
        <ele>209.19999694824</ele>
        <time>2020-09-12T06:50:58.000Z</time>
      </trkpt>
      <trkpt lat="46.5681" lon="5.37963">
        <ele>208.80000305176</ele>
        <time>2020-09-12T06:51:00.000Z</time>
      </trkpt>
      <trkpt lat="46.56825" lon="5.37968">
        <ele>208.60000610352</ele>
        <time>2020-09-12T06:51:02.000Z</time>
      </trkpt>
      <trkpt lat="46.56833" lon="5.3797">
        <ele>208.39999389648</ele>
        <time>2020-09-12T06:51:03.000Z</time>
      </trkpt>
      <trkpt lat="46.5684" lon="5.37971">
        <ele>208.19999694824</ele>
        <time>2020-09-12T06:51:04.000Z</time>
      </trkpt>
      <trkpt lat="46.56855" lon="5.37974">
        <ele>208.19999694824</ele>
        <time>2020-09-12T06:51:06.000Z</time>
      </trkpt>
      <trkpt lat="46.5687" lon="5.37978">
        <ele>208</ele>
        <time>2020-09-12T06:51:08.000Z</time>
      </trkpt>
      <trkpt lat="46.56885" lon="5.37981">
        <ele>207.80000305176</ele>
        <time>2020-09-12T06:51:10.000Z</time>
      </trkpt>
      <trkpt lat="46.56901" lon="5.37985">
        <ele>207.80000305176</ele>
        <time>2020-09-12T06:51:12.000Z</time>
      </trkpt>
      <trkpt lat="46.56909" lon="5.37987">
        <ele>207.80000305176</ele>
        <time>2020-09-12T06:51:13.000Z</time>
      </trkpt>
      <trkpt lat="46.56917" lon="5.37989">
        <ele>207.80000305176</ele>
        <time>2020-09-12T06:51:14.000Z</time>
      </trkpt>
      <trkpt lat="46.56933" lon="5.37992">
        <ele>207.60000610352</ele>
        <time>2020-09-12T06:51:16.000Z</time>
      </trkpt>
      <trkpt lat="46.56942" lon="5.37991">
        <ele>207.60000610352</ele>
        <time>2020-09-12T06:51:17.000Z</time>
      </trkpt>
      <trkpt lat="46.5695" lon="5.37989">
        <ele>207.60000610352</ele>
        <time>2020-09-12T06:51:18.000Z</time>
      </trkpt>
      <trkpt lat="46.56967" lon="5.37981">
        <ele>207.39999389648</ele>
        <time>2020-09-12T06:51:20.000Z</time>
      </trkpt>
      <trkpt lat="46.56975" lon="5.37976">
        <ele>207</ele>
        <time>2020-09-12T06:51:21.000Z</time>
      </trkpt>
      <trkpt lat="46.56983" lon="5.3797">
        <ele>206.80000305176</ele>
        <time>2020-09-12T06:51:22.000Z</time>
      </trkpt>
      <trkpt lat="46.56999" lon="5.37959">
        <ele>206.19999694824</ele>
        <time>2020-09-12T06:51:24.000Z</time>
      </trkpt>
      <trkpt lat="46.57015" lon="5.37948">
        <ele>205.39999389648</ele>
        <time>2020-09-12T06:51:26.000Z</time>
      </trkpt>
      <trkpt lat="46.57031" lon="5.37936">
        <ele>204.39999389648</ele>
        <time>2020-09-12T06:51:28.000Z</time>
      </trkpt>
      <trkpt lat="46.57039" lon="5.3793">
        <ele>204.19999694824</ele>
        <time>2020-09-12T06:51:29.000Z</time>
      </trkpt>
      <trkpt lat="46.57047" lon="5.37924">
        <ele>204</ele>
        <time>2020-09-12T06:51:30.000Z</time>
      </trkpt>
      <trkpt lat="46.57062" lon="5.37911">
        <ele>203.80000305176</ele>
        <time>2020-09-12T06:51:32.000Z</time>
      </trkpt>
      <trkpt lat="46.57077" lon="5.37898">
        <ele>203.60000610352</ele>
        <time>2020-09-12T06:51:34.000Z</time>
      </trkpt>
      <trkpt lat="46.57091" lon="5.37885">
        <ele>203.39999389648</ele>
        <time>2020-09-12T06:51:36.000Z</time>
      </trkpt>
      <trkpt lat="46.57106" lon="5.37872">
        <ele>203.19999694824</ele>
        <time>2020-09-12T06:51:38.000Z</time>
      </trkpt>
      <trkpt lat="46.5712" lon="5.37859">
        <ele>203</ele>
        <time>2020-09-12T06:51:40.000Z</time>
      </trkpt>
      <trkpt lat="46.57132" lon="5.37847">
        <ele>203</ele>
        <time>2020-09-12T06:51:42.000Z</time>
      </trkpt>
      <trkpt lat="46.57144" lon="5.37835">
        <ele>203</ele>
        <time>2020-09-12T06:51:44.000Z</time>
      </trkpt>
      <trkpt lat="46.57156" lon="5.37824">
        <ele>203</ele>
        <time>2020-09-12T06:51:46.000Z</time>
      </trkpt>
      <trkpt lat="46.57166" lon="5.37813">
        <ele>203.19999694824</ele>
        <time>2020-09-12T06:51:48.000Z</time>
      </trkpt>
      <trkpt lat="46.57176" lon="5.37802">
        <ele>203.80000305176</ele>
        <time>2020-09-12T06:51:50.000Z</time>
      </trkpt>
      <trkpt lat="46.57185" lon="5.37791">
        <ele>204.60000610352</ele>
        <time>2020-09-12T06:51:52.000Z</time>
      </trkpt>
      <trkpt lat="46.5719" lon="5.37786">
        <ele>205</ele>
        <time>2020-09-12T06:51:53.000Z</time>
      </trkpt>
      <trkpt lat="46.57195" lon="5.37781">
        <ele>205.19999694824</ele>
        <time>2020-09-12T06:51:54.000Z</time>
      </trkpt>
      <trkpt lat="46.572" lon="5.37776">
        <ele>206</ele>
        <time>2020-09-12T06:51:55.000Z</time>
      </trkpt>
      <trkpt lat="46.57205" lon="5.3777">
        <ele>206.39999389648</ele>
        <time>2020-09-12T06:51:56.000Z</time>
      </trkpt>
      <trkpt lat="46.5721" lon="5.37765">
        <ele>206.80000305176</ele>
        <time>2020-09-12T06:51:57.000Z</time>
      </trkpt>
      <trkpt lat="46.57215" lon="5.37762">
        <ele>207</ele>
        <time>2020-09-12T06:51:58.000Z</time>
      </trkpt>
      <trkpt lat="46.57222" lon="5.37762">
        <ele>207.19999694824</ele>
        <time>2020-09-12T06:51:59.000Z</time>
      </trkpt>
      <trkpt lat="46.57228" lon="5.37766">
        <ele>207.19999694824</ele>
        <time>2020-09-12T06:52:00.000Z</time>
      </trkpt>
      <trkpt lat="46.57238" lon="5.37781">
        <ele>207.19999694824</ele>
        <time>2020-09-12T06:52:02.000Z</time>
      </trkpt>
      <trkpt lat="46.57242" lon="5.37791">
        <ele>207.39999389648</ele>
        <time>2020-09-12T06:52:03.000Z</time>
      </trkpt>
      <trkpt lat="46.57246" lon="5.378">
        <ele>207.39999389648</ele>
        <time>2020-09-12T06:52:04.000Z</time>
      </trkpt>
      <trkpt lat="46.57256" lon="5.3782">
        <ele>207.39999389648</ele>
        <time>2020-09-12T06:52:06.000Z</time>
      </trkpt>
      <trkpt lat="46.57266" lon="5.3784">
        <ele>207.39999389648</ele>
        <time>2020-09-12T06:52:08.000Z</time>
      </trkpt>
      <trkpt lat="46.57276" lon="5.37861">
        <ele>207</ele>
        <time>2020-09-12T06:52:10.000Z</time>
      </trkpt>
      <trkpt lat="46.57287" lon="5.37883">
        <ele>206</ele>
        <time>2020-09-12T06:52:12.000Z</time>
      </trkpt>
      <trkpt lat="46.57298" lon="5.37906">
        <ele>205.19999694824</ele>
        <time>2020-09-12T06:52:14.000Z</time>
      </trkpt>
      <trkpt lat="46.57304" lon="5.37918">
        <ele>204.80000305176</ele>
        <time>2020-09-12T06:52:15.000Z</time>
      </trkpt>
      <trkpt lat="46.5731" lon="5.37929">
        <ele>204.39999389648</ele>
        <time>2020-09-12T06:52:16.000Z</time>
      </trkpt>
      <trkpt lat="46.57321" lon="5.37952">
        <ele>203.19999694824</ele>
        <time>2020-09-12T06:52:18.000Z</time>
      </trkpt>
      <trkpt lat="46.57333" lon="5.37975">
        <ele>201.80000305176</ele>
        <time>2020-09-12T06:52:20.000Z</time>
      </trkpt>
      <trkpt lat="46.57344" lon="5.37998">
        <ele>200.60000610352</ele>
        <time>2020-09-12T06:52:22.000Z</time>
      </trkpt>
      <trkpt lat="46.5735" lon="5.3801">
        <ele>199.80000305176</ele>
        <time>2020-09-12T06:52:23.000Z</time>
      </trkpt>
      <trkpt lat="46.57356" lon="5.38021">
        <ele>199.39999389648</ele>
        <time>2020-09-12T06:52:24.000Z</time>
      </trkpt>
      <trkpt lat="46.57367" lon="5.38045">
        <ele>198.60000610352</ele>
        <time>2020-09-12T06:52:26.000Z</time>
      </trkpt>
      <trkpt lat="46.57373" lon="5.38057">
        <ele>198.19999694824</ele>
        <time>2020-09-12T06:52:27.000Z</time>
      </trkpt>
      <trkpt lat="46.57379" lon="5.38069">
        <ele>198</ele>
        <time>2020-09-12T06:52:28.000Z</time>
      </trkpt>
      <trkpt lat="46.57386" lon="5.3808">
        <ele>197.60000610352</ele>
        <time>2020-09-12T06:52:29.000Z</time>
      </trkpt>
      <trkpt lat="46.57394" lon="5.3809">
        <ele>197.39999389648</ele>
        <time>2020-09-12T06:52:30.000Z</time>
      </trkpt>
      <trkpt lat="46.57403" lon="5.38098">
        <ele>196.80000305176</ele>
        <time>2020-09-12T06:52:31.000Z</time>
      </trkpt>
      <trkpt lat="46.57412" lon="5.38105">
        <ele>196.39999389648</ele>
        <time>2020-09-12T06:52:32.000Z</time>
      </trkpt>
      <trkpt lat="46.57429" lon="5.38119">
        <ele>195.39999389648</ele>
        <time>2020-09-12T06:52:34.000Z</time>
      </trkpt>
      <trkpt lat="46.57446" lon="5.38132">
        <ele>194.19999694824</ele>
        <time>2020-09-12T06:52:36.000Z</time>
      </trkpt>
      <trkpt lat="46.57462" lon="5.38145">
        <ele>193.19999694824</ele>
        <time>2020-09-12T06:52:38.000Z</time>
      </trkpt>
      <trkpt lat="46.5747" lon="5.38151">
        <ele>192.80000305176</ele>
        <time>2020-09-12T06:52:39.000Z</time>
      </trkpt>
      <trkpt lat="46.57478" lon="5.38157">
        <ele>192.80000305176</ele>
        <time>2020-09-12T06:52:40.000Z</time>
      </trkpt>
      <trkpt lat="46.57494" lon="5.38169">
        <ele>192.39999389648</ele>
        <time>2020-09-12T06:52:42.000Z</time>
      </trkpt>
      <trkpt lat="46.5751" lon="5.38181">
        <ele>192.39999389648</ele>
        <time>2020-09-12T06:52:44.000Z</time>
      </trkpt>
      <trkpt lat="46.57525" lon="5.38193">
        <ele>192.39999389648</ele>
        <time>2020-09-12T06:52:46.000Z</time>
      </trkpt>
      <trkpt lat="46.5754" lon="5.38204">
        <ele>192.39999389648</ele>
        <time>2020-09-12T06:52:48.000Z</time>
      </trkpt>
      <trkpt lat="46.57555" lon="5.38216">
        <ele>192.39999389648</ele>
        <time>2020-09-12T06:52:50.000Z</time>
      </trkpt>
      <trkpt lat="46.57569" lon="5.38227">
        <ele>192.39999389648</ele>
        <time>2020-09-12T06:52:52.000Z</time>
      </trkpt>
      <trkpt lat="46.57576" lon="5.38234">
        <ele>192.39999389648</ele>
        <time>2020-09-12T06:52:53.000Z</time>
      </trkpt>
      <trkpt lat="46.57582" lon="5.38241">
        <ele>192.39999389648</ele>
        <time>2020-09-12T06:52:54.000Z</time>
      </trkpt>
      <trkpt lat="46.57588" lon="5.38248">
        <ele>192.60000610352</ele>
        <time>2020-09-12T06:52:55.000Z</time>
      </trkpt>
      <trkpt lat="46.57593" lon="5.38256">
        <ele>192.60000610352</ele>
        <time>2020-09-12T06:52:56.000Z</time>
      </trkpt>
      <trkpt lat="46.57602" lon="5.38271">
        <ele>192.60000610352</ele>
        <time>2020-09-12T06:52:58.000Z</time>
      </trkpt>
      <trkpt lat="46.57611" lon="5.38286">
        <ele>192.80000305176</ele>
        <time>2020-09-12T06:53:00.000Z</time>
      </trkpt>
      <trkpt lat="46.57617" lon="5.38301">
        <ele>193</ele>
        <time>2020-09-12T06:53:02.000Z</time>
      </trkpt>
      <trkpt lat="46.57624" lon="5.38316">
        <ele>193.60000610352</ele>
        <time>2020-09-12T06:53:04.000Z</time>
      </trkpt>
      <trkpt lat="46.57628" lon="5.38321">
        <ele>193.80000305176</ele>
        <time>2020-09-12T06:53:05.000Z</time>
      </trkpt>
      <trkpt lat="46.57632" lon="5.38325">
        <ele>194.39999389648</ele>
        <time>2020-09-12T06:53:06.000Z</time>
      </trkpt>
      <trkpt lat="46.57642" lon="5.38325">
        <ele>195.39999389648</ele>
        <time>2020-09-12T06:53:08.000Z</time>
      </trkpt>
      <trkpt lat="46.57653" lon="5.38322">
        <ele>196</ele>
        <time>2020-09-12T06:53:10.000Z</time>
      </trkpt>
      <trkpt lat="46.57658" lon="5.3832">
        <ele>196.60000610352</ele>
        <time>2020-09-12T06:53:11.000Z</time>
      </trkpt>
      <trkpt lat="46.57663" lon="5.38318">
        <ele>197</ele>
        <time>2020-09-12T06:53:12.000Z</time>
      </trkpt>
      <trkpt lat="46.57669" lon="5.38317">
        <ele>197.39999389648</ele>
        <time>2020-09-12T06:53:13.000Z</time>
      </trkpt>
      <trkpt lat="46.57675" lon="5.38316">
        <ele>198</ele>
        <time>2020-09-12T06:53:14.000Z</time>
      </trkpt>
      <trkpt lat="46.57687" lon="5.38314">
        <ele>198.80000305176</ele>
        <time>2020-09-12T06:53:16.000Z</time>
      </trkpt>
      <trkpt lat="46.57694" lon="5.38313">
        <ele>199</ele>
        <time>2020-09-12T06:53:17.000Z</time>
      </trkpt>
      <trkpt lat="46.577" lon="5.38312">
        <ele>199.19999694824</ele>
        <time>2020-09-12T06:53:18.000Z</time>
      </trkpt>
      <trkpt lat="46.57712" lon="5.38308">
        <ele>199.19999694824</ele>
        <time>2020-09-12T06:53:20.000Z</time>
      </trkpt>
      <trkpt lat="46.57717" lon="5.38306">
        <ele>199.39999389648</ele>
        <time>2020-09-12T06:53:21.000Z</time>
      </trkpt>
      <trkpt lat="46.57723" lon="5.38304">
        <ele>199.39999389648</ele>
        <time>2020-09-12T06:53:22.000Z</time>
      </trkpt>
      <trkpt lat="46.57735" lon="5.383">
        <ele>199.60000610352</ele>
        <time>2020-09-12T06:53:24.000Z</time>
      </trkpt>
      <trkpt lat="46.57747" lon="5.38294">
        <ele>199.60000610352</ele>
        <time>2020-09-12T06:53:26.000Z</time>
      </trkpt>
      <trkpt lat="46.57753" lon="5.3829">
        <ele>199.60000610352</ele>
        <time>2020-09-12T06:53:27.000Z</time>
      </trkpt>
      <trkpt lat="46.57759" lon="5.38285">
        <ele>199.60000610352</ele>
        <time>2020-09-12T06:53:28.000Z</time>
      </trkpt>
      <trkpt lat="46.57771" lon="5.38274">
        <ele>199.60000610352</ele>
        <time>2020-09-12T06:53:30.000Z</time>
      </trkpt>
      <trkpt lat="46.57782" lon="5.38262">
        <ele>199.39999389648</ele>
        <time>2020-09-12T06:53:32.000Z</time>
      </trkpt>
      <trkpt lat="46.57794" lon="5.3825">
        <ele>199.19999694824</ele>
        <time>2020-09-12T06:53:34.000Z</time>
      </trkpt>
      <trkpt lat="46.57806" lon="5.38237">
        <ele>199</ele>
        <time>2020-09-12T06:53:36.000Z</time>
      </trkpt>
      <trkpt lat="46.57819" lon="5.38226">
        <ele>198.80000305176</ele>
        <time>2020-09-12T06:53:38.000Z</time>
      </trkpt>
      <trkpt lat="46.57832" lon="5.38215">
        <ele>198.60000610352</ele>
        <time>2020-09-12T06:53:40.000Z</time>
      </trkpt>
      <trkpt lat="46.57838" lon="5.38209">
        <ele>198.60000610352</ele>
        <time>2020-09-12T06:53:41.000Z</time>
      </trkpt>
      <trkpt lat="46.57844" lon="5.38202">
        <ele>198.39999389648</ele>
        <time>2020-09-12T06:53:42.000Z</time>
      </trkpt>
      <trkpt lat="46.5785" lon="5.38195">
        <ele>198.39999389648</ele>
        <time>2020-09-12T06:53:43.000Z</time>
      </trkpt>
      <trkpt lat="46.57855" lon="5.38187">
        <ele>198.19999694824</ele>
        <time>2020-09-12T06:53:44.000Z</time>
      </trkpt>
      <trkpt lat="46.57859" lon="5.38178">
        <ele>198.19999694824</ele>
        <time>2020-09-12T06:53:45.000Z</time>
      </trkpt>
      <trkpt lat="46.57863" lon="5.38169">
        <ele>198</ele>
        <time>2020-09-12T06:53:46.000Z</time>
      </trkpt>
      <trkpt lat="46.57871" lon="5.3815">
        <ele>197.80000305176</ele>
        <time>2020-09-12T06:53:48.000Z</time>
      </trkpt>
      <trkpt lat="46.57878" lon="5.38132">
        <ele>197.80000305176</ele>
        <time>2020-09-12T06:53:50.000Z</time>
      </trkpt>
      <trkpt lat="46.57884" lon="5.38113">
        <ele>197.60000610352</ele>
        <time>2020-09-12T06:53:52.000Z</time>
      </trkpt>
      <trkpt lat="46.57887" lon="5.38104">
        <ele>197.60000610352</ele>
        <time>2020-09-12T06:53:53.000Z</time>
      </trkpt>
      <trkpt lat="46.5789" lon="5.38094">
        <ele>197.60000610352</ele>
        <time>2020-09-12T06:53:54.000Z</time>
      </trkpt>
      <trkpt lat="46.57896" lon="5.38075">
        <ele>197.60000610352</ele>
        <time>2020-09-12T06:53:56.000Z</time>
      </trkpt>
      <trkpt lat="46.57902" lon="5.38057">
        <ele>197.60000610352</ele>
        <time>2020-09-12T06:53:58.000Z</time>
      </trkpt>
      <trkpt lat="46.57909" lon="5.38039">
        <ele>197.60000610352</ele>
        <time>2020-09-12T06:54:00.000Z</time>
      </trkpt>
      <trkpt lat="46.57917" lon="5.38022">
        <ele>197.39999389648</ele>
        <time>2020-09-12T06:54:02.000Z</time>
      </trkpt>
      <trkpt lat="46.57922" lon="5.38014">
        <ele>197.39999389648</ele>
        <time>2020-09-12T06:54:03.000Z</time>
      </trkpt>
      <trkpt lat="46.57928" lon="5.38007">
        <ele>197.39999389648</ele>
        <time>2020-09-12T06:54:04.000Z</time>
      </trkpt>
      <trkpt lat="46.57941" lon="5.37994">
        <ele>197.39999389648</ele>
        <time>2020-09-12T06:54:06.000Z</time>
      </trkpt>
      <trkpt lat="46.57956" lon="5.37985">
        <ele>197.39999389648</ele>
        <time>2020-09-12T06:54:08.000Z</time>
      </trkpt>
      <trkpt lat="46.57972" lon="5.37975">
        <ele>197.19999694824</ele>
        <time>2020-09-12T06:54:10.000Z</time>
      </trkpt>
      <trkpt lat="46.5798" lon="5.3797">
        <ele>197</ele>
        <time>2020-09-12T06:54:11.000Z</time>
      </trkpt>
      <trkpt lat="46.57988" lon="5.37963">
        <ele>196.80000305176</ele>
        <time>2020-09-12T06:54:12.000Z</time>
      </trkpt>
      <trkpt lat="46.57995" lon="5.37957">
        <ele>196.60000610352</ele>
        <time>2020-09-12T06:54:13.000Z</time>
      </trkpt>
      <trkpt lat="46.58003" lon="5.37951">
        <ele>196.39999389648</ele>
        <time>2020-09-12T06:54:14.000Z</time>
      </trkpt>
      <trkpt lat="46.58019" lon="5.37942">
        <ele>195.60000610352</ele>
        <time>2020-09-12T06:54:16.000Z</time>
      </trkpt>
      <trkpt lat="46.58035" lon="5.37936">
        <ele>194.39999389648</ele>
        <time>2020-09-12T06:54:18.000Z</time>
      </trkpt>
      <trkpt lat="46.58051" lon="5.37931">
        <ele>193.19999694824</ele>
        <time>2020-09-12T06:54:20.000Z</time>
      </trkpt>
      <trkpt lat="46.58067" lon="5.37926">
        <ele>192.80000305176</ele>
        <time>2020-09-12T06:54:22.000Z</time>
      </trkpt>
      <trkpt lat="46.58075" lon="5.37924">
        <ele>192.80000305176</ele>
        <time>2020-09-12T06:54:23.000Z</time>
      </trkpt>
      <trkpt lat="46.58082" lon="5.37921">
        <ele>192.60000610352</ele>
        <time>2020-09-12T06:54:24.000Z</time>
      </trkpt>
      <trkpt lat="46.58098" lon="5.37916">
        <ele>192.60000610352</ele>
        <time>2020-09-12T06:54:26.000Z</time>
      </trkpt>
      <trkpt lat="46.58112" lon="5.37911">
        <ele>192.60000610352</ele>
        <time>2020-09-12T06:54:28.000Z</time>
      </trkpt>
      <trkpt lat="46.58126" lon="5.37905">
        <ele>192.60000610352</ele>
        <time>2020-09-12T06:54:30.000Z</time>
      </trkpt>
      <trkpt lat="46.58138" lon="5.37896">
        <ele>192.60000610352</ele>
        <time>2020-09-12T06:54:32.000Z</time>
      </trkpt>
      <trkpt lat="46.5815" lon="5.37886">
        <ele>192.60000610352</ele>
        <time>2020-09-12T06:54:34.000Z</time>
      </trkpt>
      <trkpt lat="46.58157" lon="5.37882">
        <ele>192.60000610352</ele>
        <time>2020-09-12T06:54:35.000Z</time>
      </trkpt>
      <trkpt lat="46.58163" lon="5.3788">
        <ele>192.80000305176</ele>
        <time>2020-09-12T06:54:36.000Z</time>
      </trkpt>
      <trkpt lat="46.58177" lon="5.37879">
        <ele>193.19999694824</ele>
        <time>2020-09-12T06:54:38.000Z</time>
      </trkpt>
      <trkpt lat="46.5819" lon="5.37883">
        <ele>193.60000610352</ele>
        <time>2020-09-12T06:54:40.000Z</time>
      </trkpt>
      <trkpt lat="46.58202" lon="5.3789">
        <ele>193.60000610352</ele>
        <time>2020-09-12T06:54:42.000Z</time>
      </trkpt>
      <trkpt lat="46.58213" lon="5.37897">
        <ele>193.80000305176</ele>
        <time>2020-09-12T06:54:44.000Z</time>
      </trkpt>
      <trkpt lat="46.58224" lon="5.37905">
        <ele>194</ele>
        <time>2020-09-12T06:54:46.000Z</time>
      </trkpt>
      <trkpt lat="46.58235" lon="5.37912">
        <ele>194.39999389648</ele>
        <time>2020-09-12T06:54:48.000Z</time>
      </trkpt>
      <trkpt lat="46.58246" lon="5.37918">
        <ele>194.80000305176</ele>
        <time>2020-09-12T06:54:50.000Z</time>
      </trkpt>
      <trkpt lat="46.58257" lon="5.37925">
        <ele>195.19999694824</ele>
        <time>2020-09-12T06:54:52.000Z</time>
      </trkpt>
      <trkpt lat="46.58262" lon="5.37929">
        <ele>195.60000610352</ele>
        <time>2020-09-12T06:54:53.000Z</time>
      </trkpt>
      <trkpt lat="46.58267" lon="5.37932">
        <ele>195.80000305176</ele>
        <time>2020-09-12T06:54:54.000Z</time>
      </trkpt>
      <trkpt lat="46.58278" lon="5.37939">
        <ele>196.19999694824</ele>
        <time>2020-09-12T06:54:56.000Z</time>
      </trkpt>
      <trkpt lat="46.58289" lon="5.37946">
        <ele>196.39999389648</ele>
        <time>2020-09-12T06:54:58.000Z</time>
      </trkpt>
      <trkpt lat="46.58294" lon="5.37949">
        <ele>196.39999389648</ele>
        <time>2020-09-12T06:54:59.000Z</time>
      </trkpt>
      <trkpt lat="46.58299" lon="5.37952">
        <ele>196.60000610352</ele>
        <time>2020-09-12T06:55:00.000Z</time>
      </trkpt>
      <trkpt lat="46.5831" lon="5.37959">
        <ele>196.80000305176</ele>
        <time>2020-09-12T06:55:02.000Z</time>
      </trkpt>
      <trkpt lat="46.5832" lon="5.37965">
        <ele>197</ele>
        <time>2020-09-12T06:55:04.000Z</time>
      </trkpt>
      <trkpt lat="46.58331" lon="5.37971">
        <ele>197.19999694824</ele>
        <time>2020-09-12T06:55:06.000Z</time>
      </trkpt>
      <trkpt lat="46.58342" lon="5.37976">
        <ele>197.60000610352</ele>
        <time>2020-09-12T06:55:08.000Z</time>
      </trkpt>
      <trkpt lat="46.58353" lon="5.37981">
        <ele>198</ele>
        <time>2020-09-12T06:55:10.000Z</time>
      </trkpt>
      <trkpt lat="46.58364" lon="5.37985">
        <ele>198.19999694824</ele>
        <time>2020-09-12T06:55:12.000Z</time>
      </trkpt>
      <trkpt lat="46.58375" lon="5.37989">
        <ele>198.60000610352</ele>
        <time>2020-09-12T06:55:14.000Z</time>
      </trkpt>
      <trkpt lat="46.5838" lon="5.37991">
        <ele>198.80000305176</ele>
        <time>2020-09-12T06:55:15.000Z</time>
      </trkpt>
      <trkpt lat="46.58385" lon="5.37993">
        <ele>198.80000305176</ele>
        <time>2020-09-12T06:55:16.000Z</time>
      </trkpt>
      <trkpt lat="46.58396" lon="5.37997">
        <ele>199.19999694824</ele>
        <time>2020-09-12T06:55:18.000Z</time>
      </trkpt>
      <trkpt lat="46.58406" lon="5.38001">
        <ele>199.39999389648</ele>
        <time>2020-09-12T06:55:20.000Z</time>
      </trkpt>
      <trkpt lat="46.58411" lon="5.38003">
        <ele>199.39999389648</ele>
        <time>2020-09-12T06:55:21.000Z</time>
      </trkpt>
      <trkpt lat="46.58416" lon="5.38005">
        <ele>199.60000610352</ele>
        <time>2020-09-12T06:55:22.000Z</time>
      </trkpt>
      <trkpt lat="46.58426" lon="5.38008">
        <ele>200</ele>
        <time>2020-09-12T06:55:24.000Z</time>
      </trkpt>
      <trkpt lat="46.58435" lon="5.38012">
        <ele>200.19999694824</ele>
        <time>2020-09-12T06:55:26.000Z</time>
      </trkpt>
      <trkpt lat="46.58444" lon="5.38016">
        <ele>200.60000610352</ele>
        <time>2020-09-12T06:55:28.000Z</time>
      </trkpt>
      <trkpt lat="46.58453" lon="5.38019">
        <ele>201.19999694824</ele>
        <time>2020-09-12T06:55:30.000Z</time>
      </trkpt>
      <trkpt lat="46.58462" lon="5.38022">
        <ele>201.80000305176</ele>
        <time>2020-09-12T06:55:32.000Z</time>
      </trkpt>
      <trkpt lat="46.5847" lon="5.38025">
        <ele>202.39999389648</ele>
        <time>2020-09-12T06:55:34.000Z</time>
      </trkpt>
      <trkpt lat="46.58479" lon="5.38029">
        <ele>203</ele>
        <time>2020-09-12T06:55:36.000Z</time>
      </trkpt>
      <trkpt lat="46.58488" lon="5.38032">
        <ele>203.39999389648</ele>
        <time>2020-09-12T06:55:38.000Z</time>
      </trkpt>
      <trkpt lat="46.58492" lon="5.38032">
        <ele>203.60000610352</ele>
        <time>2020-09-12T06:55:39.000Z</time>
      </trkpt>
      <trkpt lat="46.58496" lon="5.38033">
        <ele>203.80000305176</ele>
        <time>2020-09-12T06:55:40.000Z</time>
      </trkpt>
      <trkpt lat="46.58505" lon="5.38032">
        <ele>204.39999389648</ele>
        <time>2020-09-12T06:55:42.000Z</time>
      </trkpt>
      <trkpt lat="46.5851" lon="5.38031">
        <ele>204.39999389648</ele>
        <time>2020-09-12T06:55:43.000Z</time>
      </trkpt>
      <trkpt lat="46.58515" lon="5.38029">
        <ele>204.60000610352</ele>
        <time>2020-09-12T06:55:44.000Z</time>
      </trkpt>
      <trkpt lat="46.58525" lon="5.38025">
        <ele>204.80000305176</ele>
        <time>2020-09-12T06:55:46.000Z</time>
      </trkpt>
      <trkpt lat="46.58536" lon="5.38019">
        <ele>205.19999694824</ele>
        <time>2020-09-12T06:55:48.000Z</time>
      </trkpt>
      <trkpt lat="46.58547" lon="5.38012">
        <ele>205.19999694824</ele>
        <time>2020-09-12T06:55:50.000Z</time>
      </trkpt>
      <trkpt lat="46.5856" lon="5.38006">
        <ele>205.39999389648</ele>
        <time>2020-09-12T06:55:52.000Z</time>
      </trkpt>
      <trkpt lat="46.58566" lon="5.38004">
        <ele>205.39999389648</ele>
        <time>2020-09-12T06:55:53.000Z</time>
      </trkpt>
      <trkpt lat="46.58573" lon="5.38004">
        <ele>205.39999389648</ele>
        <time>2020-09-12T06:55:54.000Z</time>
      </trkpt>
      <trkpt lat="46.58579" lon="5.38007">
        <ele>205.39999389648</ele>
        <time>2020-09-12T06:55:55.000Z</time>
      </trkpt>
      <trkpt lat="46.58585" lon="5.38011">
        <ele>205.39999389648</ele>
        <time>2020-09-12T06:55:56.000Z</time>
      </trkpt>
      <trkpt lat="46.58596" lon="5.38021">
        <ele>205</ele>
        <time>2020-09-12T06:55:58.000Z</time>
      </trkpt>
      <trkpt lat="46.58601" lon="5.38026">
        <ele>205</ele>
        <time>2020-09-12T06:55:59.000Z</time>
      </trkpt>
      <trkpt lat="46.58606" lon="5.38031">
        <ele>205</ele>
        <time>2020-09-12T06:56:00.000Z</time>
      </trkpt>
      <trkpt lat="46.58612" lon="5.38035">
        <ele>205</ele>
        <time>2020-09-12T06:56:01.000Z</time>
      </trkpt>
      <trkpt lat="46.58617" lon="5.38039">
        <ele>205</ele>
        <time>2020-09-12T06:56:02.000Z</time>
      </trkpt>
      <trkpt lat="46.58628" lon="5.38046">
        <ele>205</ele>
        <time>2020-09-12T06:56:04.000Z</time>
      </trkpt>
      <trkpt lat="46.5864" lon="5.3805">
        <ele>205</ele>
        <time>2020-09-12T06:56:06.000Z</time>
      </trkpt>
      <trkpt lat="46.58652" lon="5.38052">
        <ele>205.19999694824</ele>
        <time>2020-09-12T06:56:08.000Z</time>
      </trkpt>
      <trkpt lat="46.58664" lon="5.38054">
        <ele>205.39999389648</ele>
        <time>2020-09-12T06:56:10.000Z</time>
      </trkpt>
      <trkpt lat="46.5867" lon="5.38055">
        <ele>205.39999389648</ele>
        <time>2020-09-12T06:56:11.000Z</time>
      </trkpt>
      <trkpt lat="46.58676" lon="5.38055">
        <ele>205.60000610352</ele>
        <time>2020-09-12T06:56:12.000Z</time>
      </trkpt>
      <trkpt lat="46.58688" lon="5.38056">
        <ele>205.80000305176</ele>
        <time>2020-09-12T06:56:14.000Z</time>
      </trkpt>
      <trkpt lat="46.587" lon="5.38057">
        <ele>206</ele>
        <time>2020-09-12T06:56:16.000Z</time>
      </trkpt>
      <trkpt lat="46.58712" lon="5.38058">
        <ele>206</ele>
        <time>2020-09-12T06:56:18.000Z</time>
      </trkpt>
      <trkpt lat="46.58724" lon="5.38058">
        <ele>206.19999694824</ele>
        <time>2020-09-12T06:56:20.000Z</time>
      </trkpt>
      <trkpt lat="46.58731" lon="5.38059">
        <ele>206.19999694824</ele>
        <time>2020-09-12T06:56:21.000Z</time>
      </trkpt>
      <trkpt lat="46.58737" lon="5.38059">
        <ele>206.39999389648</ele>
        <time>2020-09-12T06:56:22.000Z</time>
      </trkpt>
      <trkpt lat="46.58743" lon="5.38059">
        <ele>206.39999389648</ele>
        <time>2020-09-12T06:56:23.000Z</time>
      </trkpt>
      <trkpt lat="46.58749" lon="5.3806">
        <ele>206.60000610352</ele>
        <time>2020-09-12T06:56:24.000Z</time>
      </trkpt>
      <trkpt lat="46.58761" lon="5.38063">
        <ele>206.60000610352</ele>
        <time>2020-09-12T06:56:26.000Z</time>
      </trkpt>
      <trkpt lat="46.58773" lon="5.38067">
        <ele>206.80000305176</ele>
        <time>2020-09-12T06:56:28.000Z</time>
      </trkpt>
      <trkpt lat="46.58779" lon="5.3807">
        <ele>206.80000305176</ele>
        <time>2020-09-12T06:56:29.000Z</time>
      </trkpt>
      <trkpt lat="46.58784" lon="5.38073">
        <ele>206.80000305176</ele>
        <time>2020-09-12T06:56:30.000Z</time>
      </trkpt>
      <trkpt lat="46.58795" lon="5.38082">
        <ele>207</ele>
        <time>2020-09-12T06:56:32.000Z</time>
      </trkpt>
      <trkpt lat="46.58804" lon="5.38093">
        <ele>207.19999694824</ele>
        <time>2020-09-12T06:56:34.000Z</time>
      </trkpt>
      <trkpt lat="46.58813" lon="5.38105">
        <ele>207.39999389648</ele>
        <time>2020-09-12T06:56:36.000Z</time>
      </trkpt>
      <trkpt lat="46.58822" lon="5.38117">
        <ele>207.39999389648</ele>
        <time>2020-09-12T06:56:38.000Z</time>
      </trkpt>
      <trkpt lat="46.58827" lon="5.38122">
        <ele>207.60000610352</ele>
        <time>2020-09-12T06:56:39.000Z</time>
      </trkpt>
      <trkpt lat="46.58832" lon="5.38129">
        <ele>207.60000610352</ele>
        <time>2020-09-12T06:56:40.000Z</time>
      </trkpt>
      <trkpt lat="46.58842" lon="5.38141">
        <ele>207.80000305176</ele>
        <time>2020-09-12T06:56:42.000Z</time>
      </trkpt>
      <trkpt lat="46.58853" lon="5.38155">
        <ele>207.80000305176</ele>
        <time>2020-09-12T06:56:44.000Z</time>
      </trkpt>
      <trkpt lat="46.58864" lon="5.38169">
        <ele>207.80000305176</ele>
        <time>2020-09-12T06:56:46.000Z</time>
      </trkpt>
      <trkpt lat="46.58876" lon="5.38183">
        <ele>207.80000305176</ele>
        <time>2020-09-12T06:56:48.000Z</time>
      </trkpt>
      <trkpt lat="46.58881" lon="5.3819">
        <ele>207.80000305176</ele>
        <time>2020-09-12T06:56:49.000Z</time>
      </trkpt>
      <trkpt lat="46.58887" lon="5.38197">
        <ele>207.39999389648</ele>
        <time>2020-09-12T06:56:50.000Z</time>
      </trkpt>
      <trkpt lat="46.58898" lon="5.38212">
        <ele>207.19999694824</ele>
        <time>2020-09-12T06:56:52.000Z</time>
      </trkpt>
      <trkpt lat="46.58909" lon="5.38226">
        <ele>206.80000305176</ele>
        <time>2020-09-12T06:56:54.000Z</time>
      </trkpt>
      <trkpt lat="46.58921" lon="5.38241">
        <ele>206.39999389648</ele>
        <time>2020-09-12T06:56:56.000Z</time>
      </trkpt>
      <trkpt lat="46.58933" lon="5.38254">
        <ele>206</ele>
        <time>2020-09-12T06:56:58.000Z</time>
      </trkpt>
      <trkpt lat="46.58946" lon="5.38268">
        <ele>205.80000305176</ele>
        <time>2020-09-12T06:57:00.000Z</time>
      </trkpt>
      <trkpt lat="46.5896" lon="5.3828">
        <ele>205.80000305176</ele>
        <time>2020-09-12T06:57:02.000Z</time>
      </trkpt>
      <trkpt lat="46.58974" lon="5.38293">
        <ele>205.60000610352</ele>
        <time>2020-09-12T06:57:04.000Z</time>
      </trkpt>
      <trkpt lat="46.58981" lon="5.38299">
        <ele>205.19999694824</ele>
        <time>2020-09-12T06:57:05.000Z</time>
      </trkpt>
      <trkpt lat="46.58988" lon="5.38305">
        <ele>205</ele>
        <time>2020-09-12T06:57:06.000Z</time>
      </trkpt>
      <trkpt lat="46.59003" lon="5.38317">
        <ele>204.39999389648</ele>
        <time>2020-09-12T06:57:08.000Z</time>
      </trkpt>
      <trkpt lat="46.5901" lon="5.38323">
        <ele>203.80000305176</ele>
        <time>2020-09-12T06:57:09.000Z</time>
      </trkpt>
      <trkpt lat="46.59016" lon="5.38328">
        <ele>203.60000610352</ele>
        <time>2020-09-12T06:57:10.000Z</time>
      </trkpt>
      <trkpt lat="46.59029" lon="5.38339">
        <ele>202.80000305176</ele>
        <time>2020-09-12T06:57:12.000Z</time>
      </trkpt>
      <trkpt lat="46.59036" lon="5.38344">
        <ele>202.80000305176</ele>
        <time>2020-09-12T06:57:13.000Z</time>
      </trkpt>
      <trkpt lat="46.59042" lon="5.38349">
        <ele>202.80000305176</ele>
        <time>2020-09-12T06:57:14.000Z</time>
      </trkpt>
      <trkpt lat="46.59054" lon="5.38359">
        <ele>202.80000305176</ele>
        <time>2020-09-12T06:57:16.000Z</time>
      </trkpt>
      <trkpt lat="46.59065" lon="5.38369">
        <ele>202.80000305176</ele>
        <time>2020-09-12T06:57:18.000Z</time>
      </trkpt>
      <trkpt lat="46.59071" lon="5.38373">
        <ele>202.80000305176</ele>
        <time>2020-09-12T06:57:19.000Z</time>
      </trkpt>
      <trkpt lat="46.59076" lon="5.38377">
        <ele>202.80000305176</ele>
        <time>2020-09-12T06:57:20.000Z</time>
      </trkpt>
      <trkpt lat="46.59086" lon="5.38386">
        <ele>203.19999694824</ele>
        <time>2020-09-12T06:57:22.000Z</time>
      </trkpt>
      <trkpt lat="46.59096" lon="5.38394">
        <ele>203.60000610352</ele>
        <time>2020-09-12T06:57:24.000Z</time>
      </trkpt>
      <trkpt lat="46.59106" lon="5.38403">
        <ele>204</ele>
        <time>2020-09-12T06:57:26.000Z</time>
      </trkpt>
      <trkpt lat="46.59111" lon="5.38407">
        <ele>204.39999389648</ele>
        <time>2020-09-12T06:57:27.000Z</time>
      </trkpt>
      <trkpt lat="46.59116" lon="5.38412">
        <ele>205</ele>
        <time>2020-09-12T06:57:28.000Z</time>
      </trkpt>
      <trkpt lat="46.59121" lon="5.38416">
        <ele>205.39999389648</ele>
        <time>2020-09-12T06:57:29.000Z</time>
      </trkpt>
      <trkpt lat="46.59126" lon="5.38421">
        <ele>205.60000610352</ele>
        <time>2020-09-12T06:57:30.000Z</time>
      </trkpt>
      <trkpt lat="46.59134" lon="5.38431">
        <ele>205.80000305176</ele>
        <time>2020-09-12T06:57:32.000Z</time>
      </trkpt>
      <trkpt lat="46.59138" lon="5.38437">
        <ele>205.80000305176</ele>
        <time>2020-09-12T06:57:33.000Z</time>
      </trkpt>
      <trkpt lat="46.59141" lon="5.38442">
        <ele>206</ele>
        <time>2020-09-12T06:57:34.000Z</time>
      </trkpt>
      <trkpt lat="46.59148" lon="5.38455">
        <ele>206.39999389648</ele>
        <time>2020-09-12T06:57:36.000Z</time>
      </trkpt>
      <trkpt lat="46.59155" lon="5.38467">
        <ele>206.80000305176</ele>
        <time>2020-09-12T06:57:38.000Z</time>
      </trkpt>
      <trkpt lat="46.59162" lon="5.3848">
        <ele>207.80000305176</ele>
        <time>2020-09-12T06:57:40.000Z</time>
      </trkpt>
      <trkpt lat="46.59169" lon="5.38492">
        <ele>208</ele>
        <time>2020-09-12T06:57:42.000Z</time>
      </trkpt>
      <trkpt lat="46.59173" lon="5.38498">
        <ele>208.80000305176</ele>
        <time>2020-09-12T06:57:43.000Z</time>
      </trkpt>
      <trkpt lat="46.59178" lon="5.38503">
        <ele>209</ele>
        <time>2020-09-12T06:57:44.000Z</time>
      </trkpt>
      <trkpt lat="46.59186" lon="5.38514">
        <ele>209.19999694824</ele>
        <time>2020-09-12T06:57:46.000Z</time>
      </trkpt>
      <trkpt lat="46.59194" lon="5.38523">
        <ele>209.39999389648</ele>
        <time>2020-09-12T06:57:48.000Z</time>
      </trkpt>
      <trkpt lat="46.59198" lon="5.38528">
        <ele>209.60000610352</ele>
        <time>2020-09-12T06:57:49.000Z</time>
      </trkpt>
      <trkpt lat="46.59202" lon="5.38533">
        <ele>209.80000305176</ele>
        <time>2020-09-12T06:57:50.000Z</time>
      </trkpt>
      <trkpt lat="46.59206" lon="5.38537">
        <ele>209.80000305176</ele>
        <time>2020-09-12T06:57:51.000Z</time>
      </trkpt>
      <trkpt lat="46.59211" lon="5.38542">
        <ele>210</ele>
        <time>2020-09-12T06:57:52.000Z</time>
      </trkpt>
      <trkpt lat="46.59219" lon="5.38552">
        <ele>210.39999389648</ele>
        <time>2020-09-12T06:57:54.000Z</time>
      </trkpt>
      <trkpt lat="46.59228" lon="5.38562">
        <ele>210.80000305176</ele>
        <time>2020-09-12T06:57:56.000Z</time>
      </trkpt>
      <trkpt lat="46.59238" lon="5.38573">
        <ele>211</ele>
        <time>2020-09-12T06:57:58.000Z</time>
      </trkpt>
      <trkpt lat="46.59248" lon="5.38584">
        <ele>211</ele>
        <time>2020-09-12T06:58:00.000Z</time>
      </trkpt>
      <trkpt lat="46.59259" lon="5.38595">
        <ele>211</ele>
        <time>2020-09-12T06:58:02.000Z</time>
      </trkpt>
      <trkpt lat="46.5927" lon="5.38607">
        <ele>211</ele>
        <time>2020-09-12T06:58:04.000Z</time>
      </trkpt>
      <trkpt lat="46.59281" lon="5.38619">
        <ele>211</ele>
        <time>2020-09-12T06:58:06.000Z</time>
      </trkpt>
      <trkpt lat="46.59292" lon="5.38631">
        <ele>210.60000610352</ele>
        <time>2020-09-12T06:58:08.000Z</time>
      </trkpt>
      <trkpt lat="46.59302" lon="5.38642">
        <ele>210.39999389648</ele>
        <time>2020-09-12T06:58:10.000Z</time>
      </trkpt>
      <trkpt lat="46.59313" lon="5.38653">
        <ele>210</ele>
        <time>2020-09-12T06:58:12.000Z</time>
      </trkpt>
      <trkpt lat="46.59323" lon="5.38665">
        <ele>209.80000305176</ele>
        <time>2020-09-12T06:58:14.000Z</time>
      </trkpt>
      <trkpt lat="46.59333" lon="5.38675">
        <ele>209.80000305176</ele>
        <time>2020-09-12T06:58:16.000Z</time>
      </trkpt>
      <trkpt lat="46.59343" lon="5.38686">
        <ele>209.80000305176</ele>
        <time>2020-09-12T06:58:18.000Z</time>
      </trkpt>
      <trkpt lat="46.59354" lon="5.38697">
        <ele>209.80000305176</ele>
        <time>2020-09-12T06:58:20.000Z</time>
      </trkpt>
      <trkpt lat="46.59363" lon="5.38707">
        <ele>210</ele>
        <time>2020-09-12T06:58:22.000Z</time>
      </trkpt>
      <trkpt lat="46.59374" lon="5.38718">
        <ele>210.19999694824</ele>
        <time>2020-09-12T06:58:24.000Z</time>
      </trkpt>
      <trkpt lat="46.59379" lon="5.38723">
        <ele>210.19999694824</ele>
        <time>2020-09-12T06:58:25.000Z</time>
      </trkpt>
      <trkpt lat="46.59384" lon="5.38729">
        <ele>210.19999694824</ele>
        <time>2020-09-12T06:58:26.000Z</time>
      </trkpt>
      <trkpt lat="46.59393" lon="5.38741">
        <ele>210.39999389648</ele>
        <time>2020-09-12T06:58:28.000Z</time>
      </trkpt>
      <trkpt lat="46.59403" lon="5.38752">
        <ele>210.39999389648</ele>
        <time>2020-09-12T06:58:30.000Z</time>
      </trkpt>
      <trkpt lat="46.59413" lon="5.38763">
        <ele>210.60000610352</ele>
        <time>2020-09-12T06:58:32.000Z</time>
      </trkpt>
      <trkpt lat="46.59423" lon="5.38773">
        <ele>211</ele>
        <time>2020-09-12T06:58:34.000Z</time>
      </trkpt>
      <trkpt lat="46.59432" lon="5.38785">
        <ele>211</ele>
        <time>2020-09-12T06:58:36.000Z</time>
      </trkpt>
      <trkpt lat="46.59437" lon="5.38792">
        <ele>211</ele>
        <time>2020-09-12T06:58:37.000Z</time>
      </trkpt>
      <trkpt lat="46.5944" lon="5.388">
        <ele>211</ele>
        <time>2020-09-12T06:58:38.000Z</time>
      </trkpt>
      <trkpt lat="46.59446" lon="5.38817">
        <ele>211.19999694824</ele>
        <time>2020-09-12T06:58:40.000Z</time>
      </trkpt>
      <trkpt lat="46.59449" lon="5.38835">
        <ele>211.19999694824</ele>
        <time>2020-09-12T06:58:42.000Z</time>
      </trkpt>
      <trkpt lat="46.59451" lon="5.38853">
        <ele>211.39999389648</ele>
        <time>2020-09-12T06:58:44.000Z</time>
      </trkpt>
      <trkpt lat="46.59452" lon="5.38872">
        <ele>211.39999389648</ele>
        <time>2020-09-12T06:58:46.000Z</time>
      </trkpt>
      <trkpt lat="46.59454" lon="5.38892">
        <ele>211.60000610352</ele>
        <time>2020-09-12T06:58:48.000Z</time>
      </trkpt>
      <trkpt lat="46.59456" lon="5.38902">
        <ele>211.60000610352</ele>
        <time>2020-09-12T06:58:49.000Z</time>
      </trkpt>
      <trkpt lat="46.59459" lon="5.38912">
        <ele>211.60000610352</ele>
        <time>2020-09-12T06:58:50.000Z</time>
      </trkpt>
      <trkpt lat="46.59466" lon="5.3893">
        <ele>211.39999389648</ele>
        <time>2020-09-12T06:58:52.000Z</time>
      </trkpt>
      <trkpt lat="46.59474" lon="5.38949">
        <ele>211.39999389648</ele>
        <time>2020-09-12T06:58:54.000Z</time>
      </trkpt>
      <trkpt lat="46.59479" lon="5.3897">
        <ele>211.19999694824</ele>
        <time>2020-09-12T06:58:56.000Z</time>
      </trkpt>
      <trkpt lat="46.59482" lon="5.38981">
        <ele>211</ele>
        <time>2020-09-12T06:58:57.000Z</time>
      </trkpt>
      <trkpt lat="46.59483" lon="5.38991">
        <ele>210.80000305176</ele>
        <time>2020-09-12T06:58:58.000Z</time>
      </trkpt>
      <trkpt lat="46.59486" lon="5.39013">
        <ele>210.60000610352</ele>
        <time>2020-09-12T06:59:00.000Z</time>
      </trkpt>
      <trkpt lat="46.59488" lon="5.39035">
        <ele>210.39999389648</ele>
        <time>2020-09-12T06:59:02.000Z</time>
      </trkpt>
      <trkpt lat="46.5949" lon="5.39056">
        <ele>210.19999694824</ele>
        <time>2020-09-12T06:59:04.000Z</time>
      </trkpt>
      <trkpt lat="46.59493" lon="5.39077">
        <ele>210.19999694824</ele>
        <time>2020-09-12T06:59:06.000Z</time>
      </trkpt>
      <trkpt lat="46.59495" lon="5.39097">
        <ele>210.19999694824</ele>
        <time>2020-09-12T06:59:08.000Z</time>
      </trkpt>
      <trkpt lat="46.59498" lon="5.39117">
        <ele>210.19999694824</ele>
        <time>2020-09-12T06:59:10.000Z</time>
      </trkpt>
      <trkpt lat="46.595" lon="5.39137">
        <ele>210.19999694824</ele>
        <time>2020-09-12T06:59:12.000Z</time>
      </trkpt>
      <trkpt lat="46.59503" lon="5.39157">
        <ele>210.39999389648</ele>
        <time>2020-09-12T06:59:14.000Z</time>
      </trkpt>
      <trkpt lat="46.59506" lon="5.39176">
        <ele>210.80000305176</ele>
        <time>2020-09-12T06:59:16.000Z</time>
      </trkpt>
      <trkpt lat="46.59513" lon="5.39192">
        <ele>211</ele>
        <time>2020-09-12T06:59:18.000Z</time>
      </trkpt>
      <trkpt lat="46.59517" lon="5.39199">
        <ele>211</ele>
        <time>2020-09-12T06:59:19.000Z</time>
      </trkpt>
      <trkpt lat="46.59522" lon="5.39205">
        <ele>211</ele>
        <time>2020-09-12T06:59:20.000Z</time>
      </trkpt>
      <trkpt lat="46.59535" lon="5.39213">
        <ele>211.19999694824</ele>
        <time>2020-09-12T06:59:22.000Z</time>
      </trkpt>
      <trkpt lat="46.59548" lon="5.39213">
        <ele>211.39999389648</ele>
        <time>2020-09-12T06:59:24.000Z</time>
      </trkpt>
      <trkpt lat="46.59554" lon="5.39212">
        <ele>211.39999389648</ele>
        <time>2020-09-12T06:59:25.000Z</time>
      </trkpt>
      <trkpt lat="46.59561" lon="5.39211">
        <ele>211.39999389648</ele>
        <time>2020-09-12T06:59:26.000Z</time>
      </trkpt>
      <trkpt lat="46.59574" lon="5.39209">
        <ele>211.60000610352</ele>
        <time>2020-09-12T06:59:28.000Z</time>
      </trkpt>
      <trkpt lat="46.59587" lon="5.39205">
        <ele>211.60000610352</ele>
        <time>2020-09-12T06:59:30.000Z</time>
      </trkpt>
      <trkpt lat="46.59599" lon="5.39199">
        <ele>211.80000305176</ele>
        <time>2020-09-12T06:59:32.000Z</time>
      </trkpt>
      <trkpt lat="46.59611" lon="5.39193">
        <ele>211.80000305176</ele>
        <time>2020-09-12T06:59:34.000Z</time>
      </trkpt>
      <trkpt lat="46.59617" lon="5.39191">
        <ele>212</ele>
        <time>2020-09-12T06:59:35.000Z</time>
      </trkpt>
      <trkpt lat="46.59623" lon="5.3919">
        <ele>212</ele>
        <time>2020-09-12T06:59:36.000Z</time>
      </trkpt>
      <trkpt lat="46.59629" lon="5.3919">
        <ele>212</ele>
        <time>2020-09-12T06:59:37.000Z</time>
      </trkpt>
      <trkpt lat="46.59636" lon="5.39191">
        <ele>212.19999694824</ele>
        <time>2020-09-12T06:59:38.000Z</time>
      </trkpt>
      <trkpt lat="46.59648" lon="5.39192">
        <ele>212.39999389648</ele>
        <time>2020-09-12T06:59:40.000Z</time>
      </trkpt>
      <trkpt lat="46.59661" lon="5.39194">
        <ele>212.60000610352</ele>
        <time>2020-09-12T06:59:42.000Z</time>
      </trkpt>
      <trkpt lat="46.59673" lon="5.39196">
        <ele>212.60000610352</ele>
        <time>2020-09-12T06:59:44.000Z</time>
      </trkpt>
      <trkpt lat="46.59685" lon="5.39199">
        <ele>212.60000610352</ele>
        <time>2020-09-12T06:59:46.000Z</time>
      </trkpt>
      <trkpt lat="46.59696" lon="5.39202">
        <ele>212.80000305176</ele>
        <time>2020-09-12T06:59:48.000Z</time>
      </trkpt>
      <trkpt lat="46.59708" lon="5.39205">
        <ele>213</ele>
        <time>2020-09-12T06:59:50.000Z</time>
      </trkpt>
      <trkpt lat="46.59714" lon="5.39206">
        <ele>213.19999694824</ele>
        <time>2020-09-12T06:59:51.000Z</time>
      </trkpt>
      <trkpt lat="46.5972" lon="5.39208">
        <ele>213.19999694824</ele>
        <time>2020-09-12T06:59:52.000Z</time>
      </trkpt>
      <trkpt lat="46.59729" lon="5.39217">
        <ele>213.19999694824</ele>
        <time>2020-09-12T06:59:54.000Z</time>
      </trkpt>
      <trkpt lat="46.59734" lon="5.39223">
        <ele>213.19999694824</ele>
        <time>2020-09-12T06:59:55.000Z</time>
      </trkpt>
      <trkpt lat="46.59738" lon="5.39225">
        <ele>213.39999389648</ele>
        <time>2020-09-12T06:59:56.000Z</time>
      </trkpt>
      <trkpt lat="46.59748" lon="5.39223">
        <ele>213.39999389648</ele>
        <time>2020-09-12T06:59:58.000Z</time>
      </trkpt>
      <trkpt lat="46.5976" lon="5.39214">
        <ele>213.39999389648</ele>
        <time>2020-09-12T07:00:00.000Z</time>
      </trkpt>
      <trkpt lat="46.59766" lon="5.39209">
        <ele>213.39999389648</ele>
        <time>2020-09-12T07:00:01.000Z</time>
      </trkpt>
      <trkpt lat="46.59773" lon="5.39205">
        <ele>213.39999389648</ele>
        <time>2020-09-12T07:00:02.000Z</time>
      </trkpt>
      <trkpt lat="46.59787" lon="5.39199">
        <ele>213.19999694824</ele>
        <time>2020-09-12T07:00:04.000Z</time>
      </trkpt>
      <trkpt lat="46.59802" lon="5.39196">
        <ele>213</ele>
        <time>2020-09-12T07:00:06.000Z</time>
      </trkpt>
      <trkpt lat="46.5981" lon="5.39195">
        <ele>213</ele>
        <time>2020-09-12T07:00:07.000Z</time>
      </trkpt>
      <trkpt lat="46.59817" lon="5.39196">
        <ele>212.39999389648</ele>
        <time>2020-09-12T07:00:08.000Z</time>
      </trkpt>
      <trkpt lat="46.59832" lon="5.39198">
        <ele>211.80000305176</ele>
        <time>2020-09-12T07:00:10.000Z</time>
      </trkpt>
      <trkpt lat="46.59847" lon="5.392">
        <ele>211.60000610352</ele>
        <time>2020-09-12T07:00:12.000Z</time>
      </trkpt>
      <trkpt lat="46.59854" lon="5.39201">
        <ele>211.60000610352</ele>
        <time>2020-09-12T07:00:13.000Z</time>
      </trkpt>
      <trkpt lat="46.59861" lon="5.39201">
        <ele>211.39999389648</ele>
        <time>2020-09-12T07:00:14.000Z</time>
      </trkpt>
      <trkpt lat="46.59876" lon="5.39199">
        <ele>211.39999389648</ele>
        <time>2020-09-12T07:00:16.000Z</time>
      </trkpt>
      <trkpt lat="46.59891" lon="5.39195">
        <ele>211.19999694824</ele>
        <time>2020-09-12T07:00:18.000Z</time>
      </trkpt>
      <trkpt lat="46.59907" lon="5.3919">
        <ele>211</ele>
        <time>2020-09-12T07:00:20.000Z</time>
      </trkpt>
      <trkpt lat="46.59922" lon="5.39186">
        <ele>211</ele>
        <time>2020-09-12T07:00:22.000Z</time>
      </trkpt>
      <trkpt lat="46.59931" lon="5.39187">
        <ele>211</ele>
        <time>2020-09-12T07:00:23.000Z</time>
      </trkpt>
      <trkpt lat="46.59939" lon="5.39187">
        <ele>210.80000305176</ele>
        <time>2020-09-12T07:00:24.000Z</time>
      </trkpt>
      <trkpt lat="46.59948" lon="5.39188">
        <ele>210.60000610352</ele>
        <time>2020-09-12T07:00:25.000Z</time>
      </trkpt>
      <trkpt lat="46.59957" lon="5.39188">
        <ele>210.39999389648</ele>
        <time>2020-09-12T07:00:26.000Z</time>
      </trkpt>
      <trkpt lat="46.59975" lon="5.39189">
        <ele>210.19999694824</ele>
        <time>2020-09-12T07:00:28.000Z</time>
      </trkpt>
      <trkpt lat="46.59993" lon="5.39193">
        <ele>210.19999694824</ele>
        <time>2020-09-12T07:00:30.000Z</time>
      </trkpt>
      <trkpt lat="46.60009" lon="5.39202">
        <ele>209.60000610352</ele>
        <time>2020-09-12T07:00:32.000Z</time>
      </trkpt>
      <trkpt lat="46.60017" lon="5.39208">
        <ele>209</ele>
        <time>2020-09-12T07:00:33.000Z</time>
      </trkpt>
      <trkpt lat="46.60024" lon="5.39215">
        <ele>208.19999694824</ele>
        <time>2020-09-12T07:00:34.000Z</time>
      </trkpt>
      <trkpt lat="46.60038" lon="5.39233">
        <ele>207.39999389648</ele>
        <time>2020-09-12T07:00:36.000Z</time>
      </trkpt>
      <trkpt lat="46.60043" lon="5.39244">
        <ele>207</ele>
        <time>2020-09-12T07:00:37.000Z</time>
      </trkpt>
      <trkpt lat="46.60048" lon="5.39257">
        <ele>206.80000305176</ele>
        <time>2020-09-12T07:00:38.000Z</time>
      </trkpt>
      <trkpt lat="46.60051" lon="5.3927">
        <ele>206.80000305176</ele>
        <time>2020-09-12T07:00:39.000Z</time>
      </trkpt>
      <trkpt lat="46.60054" lon="5.39285">
        <ele>206.60000610352</ele>
        <time>2020-09-12T07:00:40.000Z</time>
      </trkpt>
      <trkpt lat="46.60055" lon="5.39315">
        <ele>206.19999694824</ele>
        <time>2020-09-12T07:00:42.000Z</time>
      </trkpt>
      <trkpt lat="46.60055" lon="5.3933">
        <ele>205.80000305176</ele>
        <time>2020-09-12T07:00:43.000Z</time>
      </trkpt>
      <trkpt lat="46.60053" lon="5.39344">
        <ele>205.39999389648</ele>
        <time>2020-09-12T07:00:44.000Z</time>
      </trkpt>
      <trkpt lat="46.60051" lon="5.39359">
        <ele>204.60000610352</ele>
        <time>2020-09-12T07:00:45.000Z</time>
      </trkpt>
      <trkpt lat="46.60049" lon="5.39373">
        <ele>203.60000610352</ele>
        <time>2020-09-12T07:00:46.000Z</time>
      </trkpt>
      <trkpt lat="46.60046" lon="5.39386">
        <ele>202.80000305176</ele>
        <time>2020-09-12T07:00:47.000Z</time>
      </trkpt>
      <trkpt lat="46.60044" lon="5.39399">
        <ele>202.19999694824</ele>
        <time>2020-09-12T07:00:48.000Z</time>
      </trkpt>
      <trkpt lat="46.60039" lon="5.39425">
        <ele>201.80000305176</ele>
        <time>2020-09-12T07:00:50.000Z</time>
      </trkpt>
      <trkpt lat="46.60037" lon="5.39436">
        <ele>201.80000305176</ele>
        <time>2020-09-12T07:00:51.000Z</time>
      </trkpt>
      <trkpt lat="46.60036" lon="5.39448">
        <ele>201.80000305176</ele>
        <time>2020-09-12T07:00:52.000Z</time>
      </trkpt>
      <trkpt lat="46.60038" lon="5.39471">
        <ele>201.60000610352</ele>
        <time>2020-09-12T07:00:54.000Z</time>
      </trkpt>
      <trkpt lat="46.60043" lon="5.39495">
        <ele>201.60000610352</ele>
        <time>2020-09-12T07:00:56.000Z</time>
      </trkpt>
      <trkpt lat="46.60051" lon="5.39517">
        <ele>201.39999389648</ele>
        <time>2020-09-12T07:00:58.000Z</time>
      </trkpt>
      <trkpt lat="46.60056" lon="5.39528">
        <ele>201.19999694824</ele>
        <time>2020-09-12T07:00:59.000Z</time>
      </trkpt>
      <trkpt lat="46.60061" lon="5.3954">
        <ele>201.19999694824</ele>
        <time>2020-09-12T07:01:00.000Z</time>
      </trkpt>
      <trkpt lat="46.60072" lon="5.39563">
        <ele>201.19999694824</ele>
        <time>2020-09-12T07:01:02.000Z</time>
      </trkpt>
      <trkpt lat="46.60083" lon="5.39587">
        <ele>201.19999694824</ele>
        <time>2020-09-12T07:01:04.000Z</time>
      </trkpt>
      <trkpt lat="46.60087" lon="5.396">
        <ele>201.19999694824</ele>
        <time>2020-09-12T07:01:05.000Z</time>
      </trkpt>
      <trkpt lat="46.60089" lon="5.39614">
        <ele>200.60000610352</ele>
        <time>2020-09-12T07:01:06.000Z</time>
      </trkpt>
      <trkpt lat="46.60091" lon="5.39628">
        <ele>200</ele>
        <time>2020-09-12T07:01:07.000Z</time>
      </trkpt>
      <trkpt lat="46.60091" lon="5.39643">
        <ele>199.39999389648</ele>
        <time>2020-09-12T07:01:08.000Z</time>
      </trkpt>
      <trkpt lat="46.60085" lon="5.39672">
        <ele>198.39999389648</ele>
        <time>2020-09-12T07:01:10.000Z</time>
      </trkpt>
      <trkpt lat="46.6008" lon="5.39685">
        <ele>198</ele>
        <time>2020-09-12T07:01:11.000Z</time>
      </trkpt>
      <trkpt lat="46.60074" lon="5.39698">
        <ele>197.39999389648</ele>
        <time>2020-09-12T07:01:12.000Z</time>
      </trkpt>
      <trkpt lat="46.60069" lon="5.3971">
        <ele>196.80000305176</ele>
        <time>2020-09-12T07:01:13.000Z</time>
      </trkpt>
      <trkpt lat="46.60066" lon="5.39724">
        <ele>196.39999389648</ele>
        <time>2020-09-12T07:01:14.000Z</time>
      </trkpt>
      <trkpt lat="46.60065" lon="5.39738">
        <ele>195.80000305176</ele>
        <time>2020-09-12T07:01:15.000Z</time>
      </trkpt>
      <trkpt lat="46.60067" lon="5.39752">
        <ele>195.19999694824</ele>
        <time>2020-09-12T07:01:16.000Z</time>
      </trkpt>
      <trkpt lat="46.6007" lon="5.39765">
        <ele>194.60000610352</ele>
        <time>2020-09-12T07:01:17.000Z</time>
      </trkpt>
      <trkpt lat="46.60075" lon="5.39777">
        <ele>194.19999694824</ele>
        <time>2020-09-12T07:01:18.000Z</time>
      </trkpt>
      <trkpt lat="46.60079" lon="5.39789">
        <ele>193.80000305176</ele>
        <time>2020-09-12T07:01:19.000Z</time>
      </trkpt>
      <trkpt lat="46.60084" lon="5.39801">
        <ele>193.39999389648</ele>
        <time>2020-09-12T07:01:20.000Z</time>
      </trkpt>
      <trkpt lat="46.60096" lon="5.39823">
        <ele>192.80000305176</ele>
        <time>2020-09-12T07:01:22.000Z</time>
      </trkpt>
      <trkpt lat="46.60103" lon="5.39831">
        <ele>192.60000610352</ele>
        <time>2020-09-12T07:01:23.000Z</time>
      </trkpt>
      <trkpt lat="46.60111" lon="5.39839">
        <ele>192.39999389648</ele>
        <time>2020-09-12T07:01:24.000Z</time>
      </trkpt>
      <trkpt lat="46.60126" lon="5.39853">
        <ele>192.19999694824</ele>
        <time>2020-09-12T07:01:26.000Z</time>
      </trkpt>
      <trkpt lat="46.60141" lon="5.39866">
        <ele>192.19999694824</ele>
        <time>2020-09-12T07:01:28.000Z</time>
      </trkpt>
      <trkpt lat="46.60148" lon="5.39872">
        <ele>192.19999694824</ele>
        <time>2020-09-12T07:01:29.000Z</time>
      </trkpt>
      <trkpt lat="46.60155" lon="5.39878">
        <ele>192</ele>
        <time>2020-09-12T07:01:30.000Z</time>
      </trkpt>
      <trkpt lat="46.60168" lon="5.39892">
        <ele>192</ele>
        <time>2020-09-12T07:01:32.000Z</time>
      </trkpt>
      <trkpt lat="46.60179" lon="5.39909">
        <ele>192</ele>
        <time>2020-09-12T07:01:34.000Z</time>
      </trkpt>
      <trkpt lat="46.60185" lon="5.39929">
        <ele>192.19999694824</ele>
        <time>2020-09-12T07:01:36.000Z</time>
      </trkpt>
      <trkpt lat="46.60187" lon="5.3994">
        <ele>192.39999389648</ele>
        <time>2020-09-12T07:01:37.000Z</time>
      </trkpt>
      <trkpt lat="46.60188" lon="5.3995">
        <ele>192.60000610352</ele>
        <time>2020-09-12T07:01:38.000Z</time>
      </trkpt>
      <trkpt lat="46.60188" lon="5.39971">
        <ele>192.80000305176</ele>
        <time>2020-09-12T07:01:40.000Z</time>
      </trkpt>
      <trkpt lat="46.60189" lon="5.39991">
        <ele>193</ele>
        <time>2020-09-12T07:01:42.000Z</time>
      </trkpt>
      <trkpt lat="46.60189" lon="5.40001">
        <ele>193.19999694824</ele>
        <time>2020-09-12T07:01:43.000Z</time>
      </trkpt>
      <trkpt lat="46.60189" lon="5.4001">
        <ele>193.80000305176</ele>
        <time>2020-09-12T07:01:44.000Z</time>
      </trkpt>
      <trkpt lat="46.60189" lon="5.4003">
        <ele>194.39999389648</ele>
        <time>2020-09-12T07:01:46.000Z</time>
      </trkpt>
      <trkpt lat="46.6019" lon="5.40049">
        <ele>194.80000305176</ele>
        <time>2020-09-12T07:01:48.000Z</time>
      </trkpt>
      <trkpt lat="46.60191" lon="5.40069">
        <ele>195.19999694824</ele>
        <time>2020-09-12T07:01:50.000Z</time>
      </trkpt>
      <trkpt lat="46.60191" lon="5.40079">
        <ele>195.60000610352</ele>
        <time>2020-09-12T07:01:51.000Z</time>
      </trkpt>
      <trkpt lat="46.60192" lon="5.40088">
        <ele>195.60000610352</ele>
        <time>2020-09-12T07:01:52.000Z</time>
      </trkpt>
      <trkpt lat="46.60192" lon="5.40106">
        <ele>196</ele>
        <time>2020-09-12T07:01:54.000Z</time>
      </trkpt>
      <trkpt lat="46.60191" lon="5.40124">
        <ele>196.19999694824</ele>
        <time>2020-09-12T07:01:56.000Z</time>
      </trkpt>
      <trkpt lat="46.6019" lon="5.40132">
        <ele>196.39999389648</ele>
        <time>2020-09-12T07:01:57.000Z</time>
      </trkpt>
      <trkpt lat="46.60188" lon="5.4014">
        <ele>196.60000610352</ele>
        <time>2020-09-12T07:01:58.000Z</time>
      </trkpt>
      <trkpt lat="46.60185" lon="5.40157">
        <ele>197</ele>
        <time>2020-09-12T07:02:00.000Z</time>
      </trkpt>
      <trkpt lat="46.6018" lon="5.40176">
        <ele>197.60000610352</ele>
        <time>2020-09-12T07:02:02.000Z</time>
      </trkpt>
      <trkpt lat="46.60177" lon="5.40195">
        <ele>198</ele>
        <time>2020-09-12T07:02:04.000Z</time>
      </trkpt>
      <trkpt lat="46.60176" lon="5.40205">
        <ele>198</ele>
        <time>2020-09-12T07:02:05.000Z</time>
      </trkpt>
      <trkpt lat="46.60176" lon="5.40215">
        <ele>198</ele>
        <time>2020-09-12T07:02:06.000Z</time>
      </trkpt>
      <trkpt lat="46.60179" lon="5.40235">
        <ele>198</ele>
        <time>2020-09-12T07:02:08.000Z</time>
      </trkpt>
      <trkpt lat="46.60185" lon="5.40253">
        <ele>198</ele>
        <time>2020-09-12T07:02:10.000Z</time>
      </trkpt>
      <trkpt lat="46.60192" lon="5.4027">
        <ele>198</ele>
        <time>2020-09-12T07:02:12.000Z</time>
      </trkpt>
      <trkpt lat="46.60196" lon="5.40279">
        <ele>198</ele>
        <time>2020-09-12T07:02:13.000Z</time>
      </trkpt>
      <trkpt lat="46.60199" lon="5.40288">
        <ele>198</ele>
        <time>2020-09-12T07:02:14.000Z</time>
      </trkpt>
      <trkpt lat="46.60206" lon="5.40305">
        <ele>198</ele>
        <time>2020-09-12T07:02:16.000Z</time>
      </trkpt>
      <trkpt lat="46.60211" lon="5.40322">
        <ele>198</ele>
        <time>2020-09-12T07:02:18.000Z</time>
      </trkpt>
      <trkpt lat="46.60216" lon="5.40339">
        <ele>198</ele>
        <time>2020-09-12T07:02:20.000Z</time>
      </trkpt>
      <trkpt lat="46.6022" lon="5.40356">
        <ele>198</ele>
        <time>2020-09-12T07:02:22.000Z</time>
      </trkpt>
      <trkpt lat="46.60222" lon="5.40374">
        <ele>198</ele>
        <time>2020-09-12T07:02:24.000Z</time>
      </trkpt>
      <trkpt lat="46.60223" lon="5.40395">
        <ele>198</ele>
        <time>2020-09-12T07:02:26.000Z</time>
      </trkpt>
      <trkpt lat="46.60222" lon="5.40417">
        <ele>198</ele>
        <time>2020-09-12T07:02:28.000Z</time>
      </trkpt>
      <trkpt lat="46.60221" lon="5.40441">
        <ele>198</ele>
        <time>2020-09-12T07:02:30.000Z</time>
      </trkpt>
      <trkpt lat="46.6022" lon="5.40453">
        <ele>198</ele>
        <time>2020-09-12T07:02:31.000Z</time>
      </trkpt>
      <trkpt lat="46.6022" lon="5.40466">
        <ele>198</ele>
        <time>2020-09-12T07:02:32.000Z</time>
      </trkpt>
      <trkpt lat="46.60221" lon="5.40479">
        <ele>198</ele>
        <time>2020-09-12T07:02:33.000Z</time>
      </trkpt>
      <trkpt lat="46.60223" lon="5.40492">
        <ele>197.39999389648</ele>
        <time>2020-09-12T07:02:34.000Z</time>
      </trkpt>
      <trkpt lat="46.60225" lon="5.40505">
        <ele>197</ele>
        <time>2020-09-12T07:02:35.000Z</time>
      </trkpt>
      <trkpt lat="46.60227" lon="5.40518">
        <ele>196.39999389648</ele>
        <time>2020-09-12T07:02:36.000Z</time>
      </trkpt>
      <trkpt lat="46.60233" lon="5.40543">
        <ele>195.39999389648</ele>
        <time>2020-09-12T07:02:38.000Z</time>
      </trkpt>
      <trkpt lat="46.60237" lon="5.40568">
        <ele>194.19999694824</ele>
        <time>2020-09-12T07:02:40.000Z</time>
      </trkpt>
      <trkpt lat="46.60238" lon="5.4058">
        <ele>193.60000610352</ele>
        <time>2020-09-12T07:02:41.000Z</time>
      </trkpt>
      <trkpt lat="46.60237" lon="5.40593">
        <ele>193</ele>
        <time>2020-09-12T07:02:42.000Z</time>
      </trkpt>
      <trkpt lat="46.60233" lon="5.40616">
        <ele>192.39999389648</ele>
        <time>2020-09-12T07:02:44.000Z</time>
      </trkpt>
      <trkpt lat="46.60224" lon="5.40637">
        <ele>192.19999694824</ele>
        <time>2020-09-12T07:02:46.000Z</time>
      </trkpt>
      <trkpt lat="46.60213" lon="5.40655">
        <ele>192.19999694824</ele>
        <time>2020-09-12T07:02:48.000Z</time>
      </trkpt>
      <trkpt lat="46.60203" lon="5.40673">
        <ele>192</ele>
        <time>2020-09-12T07:02:50.000Z</time>
      </trkpt>
      <trkpt lat="46.60192" lon="5.40691">
        <ele>192</ele>
        <time>2020-09-12T07:02:52.000Z</time>
      </trkpt>
      <trkpt lat="46.60188" lon="5.407">
        <ele>192</ele>
        <time>2020-09-12T07:02:53.000Z</time>
      </trkpt>
      <trkpt lat="46.60183" lon="5.4071">
        <ele>192</ele>
        <time>2020-09-12T07:02:54.000Z</time>
      </trkpt>
      <trkpt lat="46.6018" lon="5.4072">
        <ele>192</ele>
        <time>2020-09-12T07:02:55.000Z</time>
      </trkpt>
      <trkpt lat="46.60177" lon="5.4073">
        <ele>192</ele>
        <time>2020-09-12T07:02:56.000Z</time>
      </trkpt>
      <trkpt lat="46.60174" lon="5.40753">
        <ele>192</ele>
        <time>2020-09-12T07:02:58.000Z</time>
      </trkpt>
      <trkpt lat="46.60175" lon="5.40764">
        <ele>191.80000305176</ele>
        <time>2020-09-12T07:02:59.000Z</time>
      </trkpt>
      <trkpt lat="46.60176" lon="5.40775">
        <ele>191.80000305176</ele>
        <time>2020-09-12T07:03:00.000Z</time>
      </trkpt>
      <trkpt lat="46.60181" lon="5.40796">
        <ele>191.80000305176</ele>
        <time>2020-09-12T07:03:02.000Z</time>
      </trkpt>
      <trkpt lat="46.60184" lon="5.40806">
        <ele>191.60000610352</ele>
        <time>2020-09-12T07:03:03.000Z</time>
      </trkpt>
      <trkpt lat="46.60189" lon="5.40814">
        <ele>191.60000610352</ele>
        <time>2020-09-12T07:03:04.000Z</time>
      </trkpt>
      <trkpt lat="46.602" lon="5.40829">
        <ele>191.60000610352</ele>
        <time>2020-09-12T07:03:06.000Z</time>
      </trkpt>
      <trkpt lat="46.60206" lon="5.40835">
        <ele>191.60000610352</ele>
        <time>2020-09-12T07:03:07.000Z</time>
      </trkpt>
      <trkpt lat="46.60212" lon="5.4084">
        <ele>191.60000610352</ele>
        <time>2020-09-12T07:03:08.000Z</time>
      </trkpt>
      <trkpt lat="46.60224" lon="5.4085">
        <ele>191.80000305176</ele>
        <time>2020-09-12T07:03:10.000Z</time>
      </trkpt>
      <trkpt lat="46.60236" lon="5.4086">
        <ele>191.80000305176</ele>
        <time>2020-09-12T07:03:12.000Z</time>
      </trkpt>
      <trkpt lat="46.60242" lon="5.40864">
        <ele>191.80000305176</ele>
        <time>2020-09-12T07:03:13.000Z</time>
      </trkpt>
      <trkpt lat="46.60248" lon="5.40869">
        <ele>191.80000305176</ele>
        <time>2020-09-12T07:03:14.000Z</time>
      </trkpt>
      <trkpt lat="46.60259" lon="5.40878">
        <ele>192.19999694824</ele>
        <time>2020-09-12T07:03:16.000Z</time>
      </trkpt>
      <trkpt lat="46.6027" lon="5.40886">
        <ele>192.39999389648</ele>
        <time>2020-09-12T07:03:18.000Z</time>
      </trkpt>
      <trkpt lat="46.6028" lon="5.40895">
        <ele>193</ele>
        <time>2020-09-12T07:03:20.000Z</time>
      </trkpt>
      <trkpt lat="46.60285" lon="5.409">
        <ele>193</ele>
        <time>2020-09-12T07:03:21.000Z</time>
      </trkpt>
      <trkpt lat="46.60289" lon="5.40905">
        <ele>193.19999694824</ele>
        <time>2020-09-12T07:03:22.000Z</time>
      </trkpt>
      <trkpt lat="46.60298" lon="5.40914">
        <ele>193.80000305176</ele>
        <time>2020-09-12T07:03:24.000Z</time>
      </trkpt>
      <trkpt lat="46.60306" lon="5.40925">
        <ele>194</ele>
        <time>2020-09-12T07:03:26.000Z</time>
      </trkpt>
      <trkpt lat="46.60309" lon="5.40931">
        <ele>194.19999694824</ele>
        <time>2020-09-12T07:03:27.000Z</time>
      </trkpt>
      <trkpt lat="46.60312" lon="5.40937">
        <ele>194.19999694824</ele>
        <time>2020-09-12T07:03:28.000Z</time>
      </trkpt>
      <trkpt lat="46.60318" lon="5.40948">
        <ele>194.80000305176</ele>
        <time>2020-09-12T07:03:30.000Z</time>
      </trkpt>
      <trkpt lat="46.60321" lon="5.40953">
        <ele>195.60000610352</ele>
        <time>2020-09-12T07:03:31.000Z</time>
      </trkpt>
      <trkpt lat="46.60324" lon="5.40957">
        <ele>196</ele>
        <time>2020-09-12T07:03:32.000Z</time>
      </trkpt>
      <trkpt lat="46.60329" lon="5.40967">
        <ele>196.19999694824</ele>
        <time>2020-09-12T07:03:34.000Z</time>
      </trkpt>
      <trkpt lat="46.60332" lon="5.40972">
        <ele>196.60000610352</ele>
        <time>2020-09-12T07:03:35.000Z</time>
      </trkpt>
      <trkpt lat="46.60335" lon="5.40977">
        <ele>197</ele>
        <time>2020-09-12T07:03:36.000Z</time>
      </trkpt>
      <trkpt lat="46.60341" lon="5.40986">
        <ele>197.80000305176</ele>
        <time>2020-09-12T07:03:38.000Z</time>
      </trkpt>
      <trkpt lat="46.60349" lon="5.40993">
        <ele>198.60000610352</ele>
        <time>2020-09-12T07:03:40.000Z</time>
      </trkpt>
      <trkpt lat="46.60352" lon="5.40997">
        <ele>198.80000305176</ele>
        <time>2020-09-12T07:03:41.000Z</time>
      </trkpt>
      <trkpt lat="46.60357" lon="5.41">
        <ele>199.19999694824</ele>
        <time>2020-09-12T07:03:42.000Z</time>
      </trkpt>
      <trkpt lat="46.60365" lon="5.41007">
        <ele>200</ele>
        <time>2020-09-12T07:03:44.000Z</time>
      </trkpt>
      <trkpt lat="46.60373" lon="5.41012">
        <ele>200.60000610352</ele>
        <time>2020-09-12T07:03:46.000Z</time>
      </trkpt>
      <trkpt lat="46.60377" lon="5.41015">
        <ele>201</ele>
        <time>2020-09-12T07:03:47.000Z</time>
      </trkpt>
      <trkpt lat="46.60381" lon="5.41018">
        <ele>201.19999694824</ele>
        <time>2020-09-12T07:03:48.000Z</time>
      </trkpt>
      <trkpt lat="46.60385" lon="5.41021">
        <ele>201.60000610352</ele>
        <time>2020-09-12T07:03:49.000Z</time>
      </trkpt>
      <trkpt lat="46.60389" lon="5.41025">
        <ele>201.80000305176</ele>
        <time>2020-09-12T07:03:50.000Z</time>
      </trkpt>
      <trkpt lat="46.60393" lon="5.41029">
        <ele>202.19999694824</ele>
        <time>2020-09-12T07:03:51.000Z</time>
      </trkpt>
      <trkpt lat="46.60397" lon="5.41033">
        <ele>202.39999389648</ele>
        <time>2020-09-12T07:03:52.000Z</time>
      </trkpt>
      <trkpt lat="46.60401" lon="5.41037">
        <ele>202.60000610352</ele>
        <time>2020-09-12T07:03:53.000Z</time>
      </trkpt>
      <trkpt lat="46.60404" lon="5.41043">
        <ele>202.80000305176</ele>
        <time>2020-09-12T07:03:54.000Z</time>
      </trkpt>
      <trkpt lat="46.60407" lon="5.41049">
        <ele>203.19999694824</ele>
        <time>2020-09-12T07:03:55.000Z</time>
      </trkpt>
      <trkpt lat="46.6041" lon="5.41055">
        <ele>203.39999389648</ele>
        <time>2020-09-12T07:03:56.000Z</time>
      </trkpt>
      <trkpt lat="46.60413" lon="5.41061">
        <ele>203.60000610352</ele>
        <time>2020-09-12T07:03:57.000Z</time>
      </trkpt>
      <trkpt lat="46.60416" lon="5.41068">
        <ele>203.80000305176</ele>
        <time>2020-09-12T07:03:58.000Z</time>
      </trkpt>
      <trkpt lat="46.60421" lon="5.41082">
        <ele>204.39999389648</ele>
        <time>2020-09-12T07:04:00.000Z</time>
      </trkpt>
      <trkpt lat="46.60427" lon="5.41097">
        <ele>204.80000305176</ele>
        <time>2020-09-12T07:04:02.000Z</time>
      </trkpt>
      <trkpt lat="46.60434" lon="5.41112">
        <ele>205</ele>
        <time>2020-09-12T07:04:04.000Z</time>
      </trkpt>
      <trkpt lat="46.60445" lon="5.41124">
        <ele>205</ele>
        <time>2020-09-12T07:04:06.000Z</time>
      </trkpt>
      <trkpt lat="46.60457" lon="5.41133">
        <ele>205</ele>
        <time>2020-09-12T07:04:08.000Z</time>
      </trkpt>
      <trkpt lat="46.6047" lon="5.41138">
        <ele>205</ele>
        <time>2020-09-12T07:04:10.000Z</time>
      </trkpt>
      <trkpt lat="46.60484" lon="5.4114">
        <ele>204.60000610352</ele>
        <time>2020-09-12T07:04:12.000Z</time>
      </trkpt>
      <trkpt lat="46.60499" lon="5.41141">
        <ele>204.19999694824</ele>
        <time>2020-09-12T07:04:14.000Z</time>
      </trkpt>
      <trkpt lat="46.60507" lon="5.41141">
        <ele>203.80000305176</ele>
        <time>2020-09-12T07:04:15.000Z</time>
      </trkpt>
      <trkpt lat="46.60515" lon="5.41142">
        <ele>203.60000610352</ele>
        <time>2020-09-12T07:04:16.000Z</time>
      </trkpt>
      <trkpt lat="46.60523" lon="5.41142">
        <ele>203.39999389648</ele>
        <time>2020-09-12T07:04:17.000Z</time>
      </trkpt>
      <trkpt lat="46.60531" lon="5.41142">
        <ele>203.39999389648</ele>
        <time>2020-09-12T07:04:18.000Z</time>
      </trkpt>
      <trkpt lat="46.60547" lon="5.41144">
        <ele>203</ele>
        <time>2020-09-12T07:04:20.000Z</time>
      </trkpt>
      <trkpt lat="46.60564" lon="5.41147">
        <ele>202.19999694824</ele>
        <time>2020-09-12T07:04:22.000Z</time>
      </trkpt>
      <trkpt lat="46.60572" lon="5.41148">
        <ele>201.80000305176</ele>
        <time>2020-09-12T07:04:23.000Z</time>
      </trkpt>
      <trkpt lat="46.6058" lon="5.4115">
        <ele>201.39999389648</ele>
        <time>2020-09-12T07:04:24.000Z</time>
      </trkpt>
      <trkpt lat="46.60588" lon="5.41152">
        <ele>201.19999694824</ele>
        <time>2020-09-12T07:04:25.000Z</time>
      </trkpt>
      <trkpt lat="46.60596" lon="5.41155">
        <ele>200.80000305176</ele>
        <time>2020-09-12T07:04:26.000Z</time>
      </trkpt>
      <trkpt lat="46.60613" lon="5.4116">
        <ele>200</ele>
        <time>2020-09-12T07:04:28.000Z</time>
      </trkpt>
      <trkpt lat="46.60629" lon="5.41165">
        <ele>198.80000305176</ele>
        <time>2020-09-12T07:04:30.000Z</time>
      </trkpt>
      <trkpt lat="46.60645" lon="5.4117">
        <ele>198.39999389648</ele>
        <time>2020-09-12T07:04:32.000Z</time>
      </trkpt>
      <trkpt lat="46.60662" lon="5.41176">
        <ele>198.19999694824</ele>
        <time>2020-09-12T07:04:34.000Z</time>
      </trkpt>
      <trkpt lat="46.60678" lon="5.41182">
        <ele>197.80000305176</ele>
        <time>2020-09-12T07:04:36.000Z</time>
      </trkpt>
      <trkpt lat="46.60685" lon="5.41186">
        <ele>197.39999389648</ele>
        <time>2020-09-12T07:04:37.000Z</time>
      </trkpt>
      <trkpt lat="46.60693" lon="5.41191">
        <ele>197.19999694824</ele>
        <time>2020-09-12T07:04:38.000Z</time>
      </trkpt>
      <trkpt lat="46.60706" lon="5.41204">
        <ele>196.60000610352</ele>
        <time>2020-09-12T07:04:40.000Z</time>
      </trkpt>
      <trkpt lat="46.60712" lon="5.41211">
        <ele>196.39999389648</ele>
        <time>2020-09-12T07:04:41.000Z</time>
      </trkpt>
      <trkpt lat="46.60718" lon="5.41218">
        <ele>196.39999389648</ele>
        <time>2020-09-12T07:04:42.000Z</time>
      </trkpt>
      <trkpt lat="46.60724" lon="5.41225">
        <ele>196.39999389648</ele>
        <time>2020-09-12T07:04:43.000Z</time>
      </trkpt>
      <trkpt lat="46.6073" lon="5.41233">
        <ele>196.19999694824</ele>
        <time>2020-09-12T07:04:44.000Z</time>
      </trkpt>
      <trkpt lat="46.6074" lon="5.41247">
        <ele>196.19999694824</ele>
        <time>2020-09-12T07:04:46.000Z</time>
      </trkpt>
      <trkpt lat="46.60751" lon="5.4126">
        <ele>196.19999694824</ele>
        <time>2020-09-12T07:04:48.000Z</time>
      </trkpt>
      <trkpt lat="46.60762" lon="5.41272">
        <ele>196.19999694824</ele>
        <time>2020-09-12T07:04:50.000Z</time>
      </trkpt>
      <trkpt lat="46.60773" lon="5.41283">
        <ele>196.39999389648</ele>
        <time>2020-09-12T07:04:52.000Z</time>
      </trkpt>
      <trkpt lat="46.60785" lon="5.41295">
        <ele>196.60000610352</ele>
        <time>2020-09-12T07:04:54.000Z</time>
      </trkpt>
      <trkpt lat="46.60798" lon="5.41308">
        <ele>196.60000610352</ele>
        <time>2020-09-12T07:04:56.000Z</time>
      </trkpt>
      <trkpt lat="46.60805" lon="5.41315">
        <ele>196.60000610352</ele>
        <time>2020-09-12T07:04:57.000Z</time>
      </trkpt>
      <trkpt lat="46.60812" lon="5.41322">
        <ele>196.60000610352</ele>
        <time>2020-09-12T07:04:58.000Z</time>
      </trkpt>
      <trkpt lat="46.60819" lon="5.41328">
        <ele>196.60000610352</ele>
        <time>2020-09-12T07:04:59.000Z</time>
      </trkpt>
      <trkpt lat="46.60827" lon="5.41332">
        <ele>196.60000610352</ele>
        <time>2020-09-12T07:05:00.000Z</time>
      </trkpt>
      <trkpt lat="46.60834" lon="5.41334">
        <ele>196.60000610352</ele>
        <time>2020-09-12T07:05:01.000Z</time>
      </trkpt>
      <trkpt lat="46.6084" lon="5.41335">
        <ele>196.39999389648</ele>
        <time>2020-09-12T07:05:02.000Z</time>
      </trkpt>
      <trkpt lat="46.6085" lon="5.41333">
        <ele>195.39999389648</ele>
        <time>2020-09-12T07:05:04.000Z</time>
      </trkpt>
      <trkpt lat="46.6086" lon="5.41328">
        <ele>194.39999389648</ele>
        <time>2020-09-12T07:05:06.000Z</time>
      </trkpt>
      <trkpt lat="46.60865" lon="5.41323">
        <ele>194.19999694824</ele>
        <time>2020-09-12T07:05:07.000Z</time>
      </trkpt>
      <trkpt lat="46.6087" lon="5.41316">
        <ele>194</ele>
        <time>2020-09-12T07:05:08.000Z</time>
      </trkpt>
      <trkpt lat="46.60875" lon="5.4131">
        <ele>193.80000305176</ele>
        <time>2020-09-12T07:05:09.000Z</time>
      </trkpt>
      <trkpt lat="46.6088" lon="5.41303">
        <ele>193.60000610352</ele>
        <time>2020-09-12T07:05:10.000Z</time>
      </trkpt>
      <trkpt lat="46.60891" lon="5.41288">
        <ele>193.60000610352</ele>
        <time>2020-09-12T07:05:12.000Z</time>
      </trkpt>
      <trkpt lat="46.60902" lon="5.41274">
        <ele>193.39999389648</ele>
        <time>2020-09-12T07:05:14.000Z</time>
      </trkpt>
      <trkpt lat="46.60908" lon="5.41266">
        <ele>193.19999694824</ele>
        <time>2020-09-12T07:05:15.000Z</time>
      </trkpt>
      <trkpt lat="46.60914" lon="5.41259">
        <ele>193</ele>
        <time>2020-09-12T07:05:16.000Z</time>
      </trkpt>
      <trkpt lat="46.60925" lon="5.41245">
        <ele>192.80000305176</ele>
        <time>2020-09-12T07:05:18.000Z</time>
      </trkpt>
      <trkpt lat="46.60937" lon="5.41232">
        <ele>192.60000610352</ele>
        <time>2020-09-12T07:05:20.000Z</time>
      </trkpt>
      <trkpt lat="46.60949" lon="5.41219">
        <ele>192.19999694824</ele>
        <time>2020-09-12T07:05:22.000Z</time>
      </trkpt>
      <trkpt lat="46.60956" lon="5.41213">
        <ele>192</ele>
        <time>2020-09-12T07:05:23.000Z</time>
      </trkpt>
      <trkpt lat="46.60962" lon="5.41208">
        <ele>192</ele>
        <time>2020-09-12T07:05:24.000Z</time>
      </trkpt>
      <trkpt lat="46.60974" lon="5.41196">
        <ele>191.60000610352</ele>
        <time>2020-09-12T07:05:26.000Z</time>
      </trkpt>
      <trkpt lat="46.60986" lon="5.41185">
        <ele>191.19999694824</ele>
        <time>2020-09-12T07:05:28.000Z</time>
      </trkpt>
      <trkpt lat="46.60992" lon="5.4118">
        <ele>191.19999694824</ele>
        <time>2020-09-12T07:05:29.000Z</time>
      </trkpt>
      <trkpt lat="46.60998" lon="5.41174">
        <ele>191</ele>
        <time>2020-09-12T07:05:30.000Z</time>
      </trkpt>
      <trkpt lat="46.61011" lon="5.41164">
        <ele>191</ele>
        <time>2020-09-12T07:05:32.000Z</time>
      </trkpt>
      <trkpt lat="46.61023" lon="5.41157">
        <ele>190.80000305176</ele>
        <time>2020-09-12T07:05:34.000Z</time>
      </trkpt>
      <trkpt lat="46.61036" lon="5.41154">
        <ele>190.80000305176</ele>
        <time>2020-09-12T07:05:36.000Z</time>
      </trkpt>
      <trkpt lat="46.61048" lon="5.41156">
        <ele>190.80000305176</ele>
        <time>2020-09-12T07:05:38.000Z</time>
      </trkpt>
      <trkpt lat="46.61052" lon="5.41162">
        <ele>190.80000305176</ele>
        <time>2020-09-12T07:05:39.000Z</time>
      </trkpt>
      <trkpt lat="46.61055" lon="5.41171">
        <ele>190.80000305176</ele>
        <time>2020-09-12T07:05:40.000Z</time>
      </trkpt>
      <trkpt lat="46.61057" lon="5.4118">
        <ele>190.80000305176</ele>
        <time>2020-09-12T07:05:41.000Z</time>
      </trkpt>
      <trkpt lat="46.61059" lon="5.4119">
        <ele>190.80000305176</ele>
        <time>2020-09-12T07:05:42.000Z</time>
      </trkpt>
      <trkpt lat="46.61062" lon="5.41199">
        <ele>190.80000305176</ele>
        <time>2020-09-12T07:05:43.000Z</time>
      </trkpt>
      <trkpt lat="46.61065" lon="5.41209">
        <ele>190.80000305176</ele>
        <time>2020-09-12T07:05:44.000Z</time>
      </trkpt>
      <trkpt lat="46.6107" lon="5.41228">
        <ele>190.80000305176</ele>
        <time>2020-09-12T07:05:46.000Z</time>
      </trkpt>
      <trkpt lat="46.61077" lon="5.41245">
        <ele>190.80000305176</ele>
        <time>2020-09-12T07:05:48.000Z</time>
      </trkpt>
      <trkpt lat="46.61081" lon="5.41254">
        <ele>190.80000305176</ele>
        <time>2020-09-12T07:05:49.000Z</time>
      </trkpt>
      <trkpt lat="46.61085" lon="5.41262">
        <ele>190.80000305176</ele>
        <time>2020-09-12T07:05:50.000Z</time>
      </trkpt>
      <trkpt lat="46.61094" lon="5.41277">
        <ele>190.80000305176</ele>
        <time>2020-09-12T07:05:52.000Z</time>
      </trkpt>
      <trkpt lat="46.61102" lon="5.41291">
        <ele>190.80000305176</ele>
        <time>2020-09-12T07:05:54.000Z</time>
      </trkpt>
      <trkpt lat="46.61106" lon="5.41299">
        <ele>190.80000305176</ele>
        <time>2020-09-12T07:05:55.000Z</time>
      </trkpt>
      <trkpt lat="46.6111" lon="5.41307">
        <ele>190.80000305176</ele>
        <time>2020-09-12T07:05:56.000Z</time>
      </trkpt>
      <trkpt lat="46.61115" lon="5.41325">
        <ele>190.60000610352</ele>
        <time>2020-09-12T07:05:58.000Z</time>
      </trkpt>
      <trkpt lat="46.61118" lon="5.41343">
        <ele>190.60000610352</ele>
        <time>2020-09-12T07:06:00.000Z</time>
      </trkpt>
      <trkpt lat="46.6112" lon="5.41361">
        <ele>190.60000610352</ele>
        <time>2020-09-12T07:06:02.000Z</time>
      </trkpt>
      <trkpt lat="46.61121" lon="5.41379">
        <ele>190.60000610352</ele>
        <time>2020-09-12T07:06:04.000Z</time>
      </trkpt>
      <trkpt lat="46.61123" lon="5.41397">
        <ele>190.60000610352</ele>
        <time>2020-09-12T07:06:06.000Z</time>
      </trkpt>
      <trkpt lat="46.61125" lon="5.41413">
        <ele>190.80000305176</ele>
        <time>2020-09-12T07:06:08.000Z</time>
      </trkpt>
      <trkpt lat="46.61127" lon="5.41428">
        <ele>191</ele>
        <time>2020-09-12T07:06:10.000Z</time>
      </trkpt>
      <trkpt lat="46.61129" lon="5.41437">
        <ele>191</ele>
        <time>2020-09-12T07:06:12.000Z</time>
      </trkpt>
      <trkpt lat="46.6113" lon="5.41441">
        <ele>191.19999694824</ele>
        <time>2020-09-12T07:06:14.000Z</time>
      </trkpt>
      <trkpt lat="46.6113" lon="5.41442">
        <ele>191.39999389648</ele>
        <time>2020-09-12T07:06:16.000Z</time>
      </trkpt>
      <trkpt lat="46.61132" lon="5.41446">
        <ele>192.39999389648</ele>
        <time>2020-09-12T07:07:01.000Z</time>
      </trkpt>
      <trkpt lat="46.61133" lon="5.41449">
        <ele>192.39999389648</ele>
        <time>2020-09-12T07:07:02.000Z</time>
      </trkpt>
      <trkpt lat="46.61136" lon="5.41458">
        <ele>192.39999389648</ele>
        <time>2020-09-12T07:07:04.000Z</time>
      </trkpt>
      <trkpt lat="46.61138" lon="5.41464">
        <ele>192.39999389648</ele>
        <time>2020-09-12T07:07:05.000Z</time>
      </trkpt>
      <trkpt lat="46.61139" lon="5.4147">
        <ele>192.19999694824</ele>
        <time>2020-09-12T07:07:06.000Z</time>
      </trkpt>
      <trkpt lat="46.61145" lon="5.41484">
        <ele>192.19999694824</ele>
        <time>2020-09-12T07:07:08.000Z</time>
      </trkpt>
      <trkpt lat="46.61151" lon="5.41498">
        <ele>192.19999694824</ele>
        <time>2020-09-12T07:07:10.000Z</time>
      </trkpt>
      <trkpt lat="46.61158" lon="5.41512">
        <ele>191.80000305176</ele>
        <time>2020-09-12T07:07:12.000Z</time>
      </trkpt>
      <trkpt lat="46.61166" lon="5.41526">
        <ele>191.39999389648</ele>
        <time>2020-09-12T07:07:14.000Z</time>
      </trkpt>
      <trkpt lat="46.6117" lon="5.41533">
        <ele>191.39999389648</ele>
        <time>2020-09-12T07:07:15.000Z</time>
      </trkpt>
      <trkpt lat="46.61175" lon="5.41539">
        <ele>191.19999694824</ele>
        <time>2020-09-12T07:07:16.000Z</time>
      </trkpt>
      <trkpt lat="46.61179" lon="5.41546">
        <ele>191.19999694824</ele>
        <time>2020-09-12T07:07:17.000Z</time>
      </trkpt>
      <trkpt lat="46.61183" lon="5.41552">
        <ele>191.19999694824</ele>
        <time>2020-09-12T07:07:18.000Z</time>
      </trkpt>
      <trkpt lat="46.61192" lon="5.41566">
        <ele>191</ele>
        <time>2020-09-12T07:07:20.000Z</time>
      </trkpt>
      <trkpt lat="46.61201" lon="5.41579">
        <ele>191</ele>
        <time>2020-09-12T07:07:22.000Z</time>
      </trkpt>
      <trkpt lat="46.61209" lon="5.41594">
        <ele>191</ele>
        <time>2020-09-12T07:07:24.000Z</time>
      </trkpt>
      <trkpt lat="46.61216" lon="5.41608">
        <ele>191</ele>
        <time>2020-09-12T07:07:26.000Z</time>
      </trkpt>
      <trkpt lat="46.61224" lon="5.41623">
        <ele>191</ele>
        <time>2020-09-12T07:07:28.000Z</time>
      </trkpt>
      <trkpt lat="46.61231" lon="5.41638">
        <ele>191</ele>
        <time>2020-09-12T07:07:30.000Z</time>
      </trkpt>
      <trkpt lat="46.61239" lon="5.41654">
        <ele>191</ele>
        <time>2020-09-12T07:07:32.000Z</time>
      </trkpt>
      <trkpt lat="46.61246" lon="5.41669">
        <ele>191</ele>
        <time>2020-09-12T07:07:34.000Z</time>
      </trkpt>
      <trkpt lat="46.61254" lon="5.41685">
        <ele>191</ele>
        <time>2020-09-12T07:07:36.000Z</time>
      </trkpt>
      <trkpt lat="46.61262" lon="5.417">
        <ele>191</ele>
        <time>2020-09-12T07:07:38.000Z</time>
      </trkpt>
      <trkpt lat="46.61271" lon="5.41715">
        <ele>191</ele>
        <time>2020-09-12T07:07:40.000Z</time>
      </trkpt>
      <trkpt lat="46.6128" lon="5.4173">
        <ele>191</ele>
        <time>2020-09-12T07:07:42.000Z</time>
      </trkpt>
      <trkpt lat="46.6129" lon="5.41744">
        <ele>191</ele>
        <time>2020-09-12T07:07:44.000Z</time>
      </trkpt>
      <trkpt lat="46.613" lon="5.41758">
        <ele>191</ele>
        <time>2020-09-12T07:07:46.000Z</time>
      </trkpt>
      <trkpt lat="46.61309" lon="5.41771">
        <ele>190.80000305176</ele>
        <time>2020-09-12T07:07:48.000Z</time>
      </trkpt>
      <trkpt lat="46.61319" lon="5.41785">
        <ele>191</ele>
        <time>2020-09-12T07:07:50.000Z</time>
      </trkpt>
      <trkpt lat="46.61329" lon="5.41798">
        <ele>191</ele>
        <time>2020-09-12T07:07:52.000Z</time>
      </trkpt>
      <trkpt lat="46.61339" lon="5.41812">
        <ele>191</ele>
        <time>2020-09-12T07:07:54.000Z</time>
      </trkpt>
      <trkpt lat="46.61348" lon="5.41825">
        <ele>191</ele>
        <time>2020-09-12T07:07:56.000Z</time>
      </trkpt>
      <trkpt lat="46.61358" lon="5.41838">
        <ele>191.19999694824</ele>
        <time>2020-09-12T07:07:58.000Z</time>
      </trkpt>
      <trkpt lat="46.61368" lon="5.41851">
        <ele>191.19999694824</ele>
        <time>2020-09-12T07:08:00.000Z</time>
      </trkpt>
      <trkpt lat="46.61379" lon="5.41862">
        <ele>191.19999694824</ele>
        <time>2020-09-12T07:08:02.000Z</time>
      </trkpt>
      <trkpt lat="46.61389" lon="5.41874">
        <ele>191</ele>
        <time>2020-09-12T07:08:04.000Z</time>
      </trkpt>
      <trkpt lat="46.614" lon="5.41885">
        <ele>191</ele>
        <time>2020-09-12T07:08:06.000Z</time>
      </trkpt>
      <trkpt lat="46.61405" lon="5.41892">
        <ele>191</ele>
        <time>2020-09-12T07:08:07.000Z</time>
      </trkpt>
      <trkpt lat="46.61409" lon="5.41899">
        <ele>191</ele>
        <time>2020-09-12T07:08:08.000Z</time>
      </trkpt>
      <trkpt lat="46.61414" lon="5.41906">
        <ele>191</ele>
        <time>2020-09-12T07:08:09.000Z</time>
      </trkpt>
      <trkpt lat="46.61417" lon="5.41914">
        <ele>191</ele>
        <time>2020-09-12T07:08:10.000Z</time>
      </trkpt>
      <trkpt lat="46.61425" lon="5.4193">
        <ele>191</ele>
        <time>2020-09-12T07:08:12.000Z</time>
      </trkpt>
      <trkpt lat="46.61433" lon="5.41946">
        <ele>191</ele>
        <time>2020-09-12T07:08:14.000Z</time>
      </trkpt>
      <trkpt lat="46.6144" lon="5.41962">
        <ele>191</ele>
        <time>2020-09-12T07:08:16.000Z</time>
      </trkpt>
      <trkpt lat="46.61448" lon="5.41979">
        <ele>191</ele>
        <time>2020-09-12T07:08:18.000Z</time>
      </trkpt>
      <trkpt lat="46.61452" lon="5.41987">
        <ele>191</ele>
        <time>2020-09-12T07:08:19.000Z</time>
      </trkpt>
      <trkpt lat="46.61455" lon="5.41995">
        <ele>191</ele>
        <time>2020-09-12T07:08:20.000Z</time>
      </trkpt>
      <trkpt lat="46.61463" lon="5.42012">
        <ele>191</ele>
        <time>2020-09-12T07:08:22.000Z</time>
      </trkpt>
      <trkpt lat="46.6147" lon="5.42028">
        <ele>191</ele>
        <time>2020-09-12T07:08:24.000Z</time>
      </trkpt>
      <trkpt lat="46.61479" lon="5.42043">
        <ele>191</ele>
        <time>2020-09-12T07:08:26.000Z</time>
      </trkpt>
      <trkpt lat="46.61483" lon="5.4205">
        <ele>191</ele>
        <time>2020-09-12T07:08:27.000Z</time>
      </trkpt>
      <trkpt lat="46.61488" lon="5.42057">
        <ele>191</ele>
        <time>2020-09-12T07:08:28.000Z</time>
      </trkpt>
      <trkpt lat="46.61498" lon="5.4207">
        <ele>191</ele>
        <time>2020-09-12T07:08:30.000Z</time>
      </trkpt>
      <trkpt lat="46.61503" lon="5.42076">
        <ele>191</ele>
        <time>2020-09-12T07:08:31.000Z</time>
      </trkpt>
      <trkpt lat="46.61508" lon="5.42084">
        <ele>191</ele>
        <time>2020-09-12T07:08:32.000Z</time>
      </trkpt>
      <trkpt lat="46.61512" lon="5.42092">
        <ele>191</ele>
        <time>2020-09-12T07:08:33.000Z</time>
      </trkpt>
      <trkpt lat="46.61515" lon="5.421">
        <ele>191.19999694824</ele>
        <time>2020-09-12T07:08:34.000Z</time>
      </trkpt>
      <trkpt lat="46.61519" lon="5.42109">
        <ele>191.19999694824</ele>
        <time>2020-09-12T07:08:35.000Z</time>
      </trkpt>
      <trkpt lat="46.61522" lon="5.42117">
        <ele>191.19999694824</ele>
        <time>2020-09-12T07:08:36.000Z</time>
      </trkpt>
      <trkpt lat="46.61528" lon="5.42135">
        <ele>191.19999694824</ele>
        <time>2020-09-12T07:08:38.000Z</time>
      </trkpt>
      <trkpt lat="46.6153" lon="5.42144">
        <ele>191.19999694824</ele>
        <time>2020-09-12T07:08:39.000Z</time>
      </trkpt>
      <trkpt lat="46.61533" lon="5.42153">
        <ele>191.19999694824</ele>
        <time>2020-09-12T07:08:40.000Z</time>
      </trkpt>
      <trkpt lat="46.61539" lon="5.42171">
        <ele>191.19999694824</ele>
        <time>2020-09-12T07:08:42.000Z</time>
      </trkpt>
      <trkpt lat="46.61544" lon="5.42189">
        <ele>191.19999694824</ele>
        <time>2020-09-12T07:08:44.000Z</time>
      </trkpt>
      <trkpt lat="46.61549" lon="5.42208">
        <ele>191.19999694824</ele>
        <time>2020-09-12T07:08:46.000Z</time>
      </trkpt>
      <trkpt lat="46.61554" lon="5.42226">
        <ele>191</ele>
        <time>2020-09-12T07:08:48.000Z</time>
      </trkpt>
      <trkpt lat="46.61558" lon="5.42245">
        <ele>191</ele>
        <time>2020-09-12T07:08:50.000Z</time>
      </trkpt>
      <trkpt lat="46.61561" lon="5.42264">
        <ele>191</ele>
        <time>2020-09-12T07:08:52.000Z</time>
      </trkpt>
      <trkpt lat="46.61564" lon="5.42282">
        <ele>191</ele>
        <time>2020-09-12T07:08:54.000Z</time>
      </trkpt>
      <trkpt lat="46.61567" lon="5.42301">
        <ele>191</ele>
        <time>2020-09-12T07:08:56.000Z</time>
      </trkpt>
      <trkpt lat="46.61569" lon="5.42321">
        <ele>191</ele>
        <time>2020-09-12T07:08:58.000Z</time>
      </trkpt>
      <trkpt lat="46.61571" lon="5.4234">
        <ele>191</ele>
        <time>2020-09-12T07:09:00.000Z</time>
      </trkpt>
      <trkpt lat="46.61573" lon="5.42359">
        <ele>191</ele>
        <time>2020-09-12T07:09:02.000Z</time>
      </trkpt>
      <trkpt lat="46.61575" lon="5.42378">
        <ele>191</ele>
        <time>2020-09-12T07:09:04.000Z</time>
      </trkpt>
      <trkpt lat="46.61577" lon="5.42396">
        <ele>191</ele>
        <time>2020-09-12T07:09:06.000Z</time>
      </trkpt>
      <trkpt lat="46.61578" lon="5.42405">
        <ele>191</ele>
        <time>2020-09-12T07:09:07.000Z</time>
      </trkpt>
      <trkpt lat="46.6158" lon="5.42414">
        <ele>191</ele>
        <time>2020-09-12T07:09:08.000Z</time>
      </trkpt>
      <trkpt lat="46.61582" lon="5.42423">
        <ele>191</ele>
        <time>2020-09-12T07:09:09.000Z</time>
      </trkpt>
      <trkpt lat="46.61585" lon="5.42432">
        <ele>191.19999694824</ele>
        <time>2020-09-12T07:09:10.000Z</time>
      </trkpt>
      <trkpt lat="46.61591" lon="5.42448">
        <ele>191.19999694824</ele>
        <time>2020-09-12T07:09:12.000Z</time>
      </trkpt>
      <trkpt lat="46.61596" lon="5.42464">
        <ele>191.19999694824</ele>
        <time>2020-09-12T07:09:14.000Z</time>
      </trkpt>
      <trkpt lat="46.61599" lon="5.42472">
        <ele>191.39999389648</ele>
        <time>2020-09-12T07:09:15.000Z</time>
      </trkpt>
      <trkpt lat="46.61602" lon="5.42479">
        <ele>191.39999389648</ele>
        <time>2020-09-12T07:09:16.000Z</time>
      </trkpt>
      <trkpt lat="46.61608" lon="5.42493">
        <ele>191.39999389648</ele>
        <time>2020-09-12T07:09:18.000Z</time>
      </trkpt>
      <trkpt lat="46.61614" lon="5.42506">
        <ele>191.80000305176</ele>
        <time>2020-09-12T07:09:20.000Z</time>
      </trkpt>
      <trkpt lat="46.61622" lon="5.42517">
        <ele>192.39999389648</ele>
        <time>2020-09-12T07:09:22.000Z</time>
      </trkpt>
      <trkpt lat="46.61631" lon="5.42525">
        <ele>192.80000305176</ele>
        <time>2020-09-12T07:09:24.000Z</time>
      </trkpt>
      <trkpt lat="46.61636" lon="5.42528">
        <ele>193.19999694824</ele>
        <time>2020-09-12T07:09:25.000Z</time>
      </trkpt>
      <trkpt lat="46.61641" lon="5.42532">
        <ele>193.39999389648</ele>
        <time>2020-09-12T07:09:26.000Z</time>
      </trkpt>
      <trkpt lat="46.61646" lon="5.42535">
        <ele>193.80000305176</ele>
        <time>2020-09-12T07:09:27.000Z</time>
      </trkpt>
      <trkpt lat="46.61651" lon="5.42538">
        <ele>194.19999694824</ele>
        <time>2020-09-12T07:09:28.000Z</time>
      </trkpt>
      <trkpt lat="46.6166" lon="5.42544">
        <ele>194.60000610352</ele>
        <time>2020-09-12T07:09:30.000Z</time>
      </trkpt>
      <trkpt lat="46.61665" lon="5.42548">
        <ele>194.80000305176</ele>
        <time>2020-09-12T07:09:31.000Z</time>
      </trkpt>
      <trkpt lat="46.61669" lon="5.42551">
        <ele>195</ele>
        <time>2020-09-12T07:09:32.000Z</time>
      </trkpt>
      <trkpt lat="46.61678" lon="5.42557">
        <ele>195.19999694824</ele>
        <time>2020-09-12T07:09:34.000Z</time>
      </trkpt>
      <trkpt lat="46.61682" lon="5.42561">
        <ele>195.39999389648</ele>
        <time>2020-09-12T07:09:35.000Z</time>
      </trkpt>
      <trkpt lat="46.61686" lon="5.42565">
        <ele>195.39999389648</ele>
        <time>2020-09-12T07:09:36.000Z</time>
      </trkpt>
      <trkpt lat="46.61694" lon="5.42572">
        <ele>196</ele>
        <time>2020-09-12T07:09:38.000Z</time>
      </trkpt>
      <trkpt lat="46.61701" lon="5.4258">
        <ele>196.60000610352</ele>
        <time>2020-09-12T07:09:40.000Z</time>
      </trkpt>
      <trkpt lat="46.61705" lon="5.42584">
        <ele>197</ele>
        <time>2020-09-12T07:09:41.000Z</time>
      </trkpt>
      <trkpt lat="46.61709" lon="5.42588">
        <ele>197.19999694824</ele>
        <time>2020-09-12T07:09:42.000Z</time>
      </trkpt>
      <trkpt lat="46.61713" lon="5.42592">
        <ele>197.60000610352</ele>
        <time>2020-09-12T07:09:43.000Z</time>
      </trkpt>
      <trkpt lat="46.61717" lon="5.42596">
        <ele>197.80000305176</ele>
        <time>2020-09-12T07:09:44.000Z</time>
      </trkpt>
      <trkpt lat="46.61726" lon="5.42604">
        <ele>198</ele>
        <time>2020-09-12T07:09:46.000Z</time>
      </trkpt>
      <trkpt lat="46.61729" lon="5.42608">
        <ele>198.39999389648</ele>
        <time>2020-09-12T07:09:47.000Z</time>
      </trkpt>
      <trkpt lat="46.61732" lon="5.42613">
        <ele>198.60000610352</ele>
        <time>2020-09-12T07:09:48.000Z</time>
      </trkpt>
      <trkpt lat="46.61736" lon="5.42619">
        <ele>198.80000305176</ele>
        <time>2020-09-12T07:09:49.000Z</time>
      </trkpt>
      <trkpt lat="46.61738" lon="5.42625">
        <ele>199</ele>
        <time>2020-09-12T07:09:50.000Z</time>
      </trkpt>
      <trkpt lat="46.61742" lon="5.42639">
        <ele>199.19999694824</ele>
        <time>2020-09-12T07:09:52.000Z</time>
      </trkpt>
      <trkpt lat="46.61744" lon="5.42646">
        <ele>199.19999694824</ele>
        <time>2020-09-12T07:09:53.000Z</time>
      </trkpt>
      <trkpt lat="46.61745" lon="5.42652">
        <ele>199.39999389648</ele>
        <time>2020-09-12T07:09:54.000Z</time>
      </trkpt>
      <trkpt lat="46.61748" lon="5.42659">
        <ele>199.60000610352</ele>
        <time>2020-09-12T07:09:55.000Z</time>
      </trkpt>
      <trkpt lat="46.61751" lon="5.42664">
        <ele>199.80000305176</ele>
        <time>2020-09-12T07:09:56.000Z</time>
      </trkpt>
      <trkpt lat="46.61754" lon="5.42668">
        <ele>199.80000305176</ele>
        <time>2020-09-12T07:09:57.000Z</time>
      </trkpt>
      <trkpt lat="46.61758" lon="5.42672">
        <ele>200</ele>
        <time>2020-09-12T07:09:58.000Z</time>
      </trkpt>
      <trkpt lat="46.61766" lon="5.42679">
        <ele>200.19999694824</ele>
        <time>2020-09-12T07:10:00.000Z</time>
      </trkpt>
      <trkpt lat="46.61773" lon="5.42687">
        <ele>200.39999389648</ele>
        <time>2020-09-12T07:10:02.000Z</time>
      </trkpt>
      <trkpt lat="46.61781" lon="5.42695">
        <ele>200.60000610352</ele>
        <time>2020-09-12T07:10:04.000Z</time>
      </trkpt>
      <trkpt lat="46.61789" lon="5.42703">
        <ele>201</ele>
        <time>2020-09-12T07:10:06.000Z</time>
      </trkpt>
      <trkpt lat="46.61797" lon="5.42709">
        <ele>201.60000610352</ele>
        <time>2020-09-12T07:10:08.000Z</time>
      </trkpt>
      <trkpt lat="46.61805" lon="5.42715">
        <ele>202</ele>
        <time>2020-09-12T07:10:10.000Z</time>
      </trkpt>
      <trkpt lat="46.61813" lon="5.42722">
        <ele>202.39999389648</ele>
        <time>2020-09-12T07:10:12.000Z</time>
      </trkpt>
      <trkpt lat="46.61818" lon="5.42725">
        <ele>202.60000610352</ele>
        <time>2020-09-12T07:10:13.000Z</time>
      </trkpt>
      <trkpt lat="46.61823" lon="5.42728">
        <ele>202.80000305176</ele>
        <time>2020-09-12T07:10:14.000Z</time>
      </trkpt>
      <trkpt lat="46.61834" lon="5.42734">
        <ele>203.39999389648</ele>
        <time>2020-09-12T07:10:16.000Z</time>
      </trkpt>
      <trkpt lat="46.61839" lon="5.42737">
        <ele>203.80000305176</ele>
        <time>2020-09-12T07:10:17.000Z</time>
      </trkpt>
      <trkpt lat="46.61845" lon="5.42739">
        <ele>204.19999694824</ele>
        <time>2020-09-12T07:10:18.000Z</time>
      </trkpt>
      <trkpt lat="46.61856" lon="5.42744">
        <ele>204.39999389648</ele>
        <time>2020-09-12T07:10:20.000Z</time>
      </trkpt>
      <trkpt lat="46.61867" lon="5.4275">
        <ele>204.39999389648</ele>
        <time>2020-09-12T07:10:22.000Z</time>
      </trkpt>
      <trkpt lat="46.61878" lon="5.42756">
        <ele>204.60000610352</ele>
        <time>2020-09-12T07:10:24.000Z</time>
      </trkpt>
      <trkpt lat="46.61889" lon="5.42765">
        <ele>204.60000610352</ele>
        <time>2020-09-12T07:10:26.000Z</time>
      </trkpt>
      <trkpt lat="46.61899" lon="5.42774">
        <ele>204.80000305176</ele>
        <time>2020-09-12T07:10:28.000Z</time>
      </trkpt>
      <trkpt lat="46.61904" lon="5.42779">
        <ele>205</ele>
        <time>2020-09-12T07:10:29.000Z</time>
      </trkpt>
      <trkpt lat="46.61908" lon="5.42785">
        <ele>205.19999694824</ele>
        <time>2020-09-12T07:10:30.000Z</time>
      </trkpt>
      <trkpt lat="46.61917" lon="5.42796">
        <ele>205.19999694824</ele>
        <time>2020-09-12T07:10:32.000Z</time>
      </trkpt>
      <trkpt lat="46.61925" lon="5.42807">
        <ele>205.39999389648</ele>
        <time>2020-09-12T07:10:34.000Z</time>
      </trkpt>
      <trkpt lat="46.61933" lon="5.42818">
        <ele>205.39999389648</ele>
        <time>2020-09-12T07:10:36.000Z</time>
      </trkpt>
      <trkpt lat="46.61941" lon="5.4283">
        <ele>205.39999389648</ele>
        <time>2020-09-12T07:10:38.000Z</time>
      </trkpt>
      <trkpt lat="46.61949" lon="5.42842">
        <ele>205.60000610352</ele>
        <time>2020-09-12T07:10:40.000Z</time>
      </trkpt>
      <trkpt lat="46.61956" lon="5.42854">
        <ele>205.80000305176</ele>
        <time>2020-09-12T07:10:42.000Z</time>
      </trkpt>
      <trkpt lat="46.61963" lon="5.42866">
        <ele>206</ele>
        <time>2020-09-12T07:10:44.000Z</time>
      </trkpt>
      <trkpt lat="46.61971" lon="5.42877">
        <ele>206.19999694824</ele>
        <time>2020-09-12T07:10:46.000Z</time>
      </trkpt>
      <trkpt lat="46.61979" lon="5.42888">
        <ele>206.39999389648</ele>
        <time>2020-09-12T07:10:48.000Z</time>
      </trkpt>
      <trkpt lat="46.61987" lon="5.42899">
        <ele>206.80000305176</ele>
        <time>2020-09-12T07:10:50.000Z</time>
      </trkpt>
      <trkpt lat="46.61991" lon="5.42904">
        <ele>207</ele>
        <time>2020-09-12T07:10:51.000Z</time>
      </trkpt>
      <trkpt lat="46.61995" lon="5.4291">
        <ele>207.19999694824</ele>
        <time>2020-09-12T07:10:52.000Z</time>
      </trkpt>
      <trkpt lat="46.62004" lon="5.42921">
        <ele>207.39999389648</ele>
        <time>2020-09-12T07:10:54.000Z</time>
      </trkpt>
      <trkpt lat="46.62013" lon="5.42932">
        <ele>207.60000610352</ele>
        <time>2020-09-12T07:10:56.000Z</time>
      </trkpt>
      <trkpt lat="46.62023" lon="5.42943">
        <ele>207.80000305176</ele>
        <time>2020-09-12T07:10:58.000Z</time>
      </trkpt>
      <trkpt lat="46.62033" lon="5.42953">
        <ele>207.80000305176</ele>
        <time>2020-09-12T07:11:00.000Z</time>
      </trkpt>
      <trkpt lat="46.62045" lon="5.42963">
        <ele>207.80000305176</ele>
        <time>2020-09-12T07:11:02.000Z</time>
      </trkpt>
      <trkpt lat="46.62058" lon="5.42974">
        <ele>207.80000305176</ele>
        <time>2020-09-12T07:11:04.000Z</time>
      </trkpt>
      <trkpt lat="46.62071" lon="5.42986">
        <ele>207.60000610352</ele>
        <time>2020-09-12T07:11:06.000Z</time>
      </trkpt>
      <trkpt lat="46.62085" lon="5.42997">
        <ele>207.39999389648</ele>
        <time>2020-09-12T07:11:08.000Z</time>
      </trkpt>
      <trkpt lat="46.62098" lon="5.43007">
        <ele>207</ele>
        <time>2020-09-12T07:11:10.000Z</time>
      </trkpt>
      <trkpt lat="46.62112" lon="5.43018">
        <ele>205.80000305176</ele>
        <time>2020-09-12T07:11:12.000Z</time>
      </trkpt>
      <trkpt lat="46.62125" lon="5.4303">
        <ele>204.60000610352</ele>
        <time>2020-09-12T07:11:14.000Z</time>
      </trkpt>
      <trkpt lat="46.62138" lon="5.43044">
        <ele>204.19999694824</ele>
        <time>2020-09-12T07:11:16.000Z</time>
      </trkpt>
      <trkpt lat="46.62149" lon="5.4306">
        <ele>204</ele>
        <time>2020-09-12T07:11:18.000Z</time>
      </trkpt>
      <trkpt lat="46.62157" lon="5.43076">
        <ele>203.80000305176</ele>
        <time>2020-09-12T07:11:20.000Z</time>
      </trkpt>
      <trkpt lat="46.62161" lon="5.43085">
        <ele>203.80000305176</ele>
        <time>2020-09-12T07:11:21.000Z</time>
      </trkpt>
      <trkpt lat="46.62165" lon="5.43093">
        <ele>203.80000305176</ele>
        <time>2020-09-12T07:11:22.000Z</time>
      </trkpt>
      <trkpt lat="46.62172" lon="5.43109">
        <ele>203.80000305176</ele>
        <time>2020-09-12T07:11:24.000Z</time>
      </trkpt>
      <trkpt lat="46.62179" lon="5.43124">
        <ele>204</ele>
        <time>2020-09-12T07:11:26.000Z</time>
      </trkpt>
      <trkpt lat="46.62182" lon="5.43132">
        <ele>204</ele>
        <time>2020-09-12T07:11:27.000Z</time>
      </trkpt>
      <trkpt lat="46.62185" lon="5.43139">
        <ele>204.19999694824</ele>
        <time>2020-09-12T07:11:28.000Z</time>
      </trkpt>
      <trkpt lat="46.62191" lon="5.43154">
        <ele>204.60000610352</ele>
        <time>2020-09-12T07:11:30.000Z</time>
      </trkpt>
      <trkpt lat="46.62197" lon="5.43168">
        <ele>205.19999694824</ele>
        <time>2020-09-12T07:11:32.000Z</time>
      </trkpt>
      <trkpt lat="46.62202" lon="5.43183">
        <ele>206</ele>
        <time>2020-09-12T07:11:34.000Z</time>
      </trkpt>
      <trkpt lat="46.62205" lon="5.4319">
        <ele>206.19999694824</ele>
        <time>2020-09-12T07:11:35.000Z</time>
      </trkpt>
      <trkpt lat="46.62208" lon="5.43197">
        <ele>206.60000610352</ele>
        <time>2020-09-12T07:11:36.000Z</time>
      </trkpt>
      <trkpt lat="46.62211" lon="5.43204">
        <ele>207</ele>
        <time>2020-09-12T07:11:37.000Z</time>
      </trkpt>
      <trkpt lat="46.62214" lon="5.43211">
        <ele>207.19999694824</ele>
        <time>2020-09-12T07:11:38.000Z</time>
      </trkpt>
      <trkpt lat="46.62221" lon="5.43226">
        <ele>207.60000610352</ele>
        <time>2020-09-12T07:11:40.000Z</time>
      </trkpt>
      <trkpt lat="46.62229" lon="5.43242">
        <ele>208.19999694824</ele>
        <time>2020-09-12T07:11:42.000Z</time>
      </trkpt>
      <trkpt lat="46.62237" lon="5.43257">
        <ele>208.60000610352</ele>
        <time>2020-09-12T07:11:44.000Z</time>
      </trkpt>
      <trkpt lat="46.62247" lon="5.43272">
        <ele>208.60000610352</ele>
        <time>2020-09-12T07:11:46.000Z</time>
      </trkpt>
      <trkpt lat="46.62259" lon="5.43285">
        <ele>208.60000610352</ele>
        <time>2020-09-12T07:11:48.000Z</time>
      </trkpt>
      <trkpt lat="46.62272" lon="5.43299">
        <ele>208.60000610352</ele>
        <time>2020-09-12T07:11:50.000Z</time>
      </trkpt>
      <trkpt lat="46.62285" lon="5.43313">
        <ele>208.60000610352</ele>
        <time>2020-09-12T07:11:52.000Z</time>
      </trkpt>
      <trkpt lat="46.62298" lon="5.43328">
        <ele>208.19999694824</ele>
        <time>2020-09-12T07:11:54.000Z</time>
      </trkpt>
      <trkpt lat="46.62312" lon="5.43343">
        <ele>207.39999389648</ele>
        <time>2020-09-12T07:11:56.000Z</time>
      </trkpt>
      <trkpt lat="46.62318" lon="5.4335">
        <ele>207.19999694824</ele>
        <time>2020-09-12T07:11:57.000Z</time>
      </trkpt>
      <trkpt lat="46.62325" lon="5.43358">
        <ele>206.80000305176</ele>
        <time>2020-09-12T07:11:58.000Z</time>
      </trkpt>
      <trkpt lat="46.62339" lon="5.43372">
        <ele>206.19999694824</ele>
        <time>2020-09-12T07:12:00.000Z</time>
      </trkpt>
      <trkpt lat="46.62352" lon="5.43387">
        <ele>205.19999694824</ele>
        <time>2020-09-12T07:12:02.000Z</time>
      </trkpt>
      <trkpt lat="46.62358" lon="5.43394">
        <ele>204.80000305176</ele>
        <time>2020-09-12T07:12:03.000Z</time>
      </trkpt>
      <trkpt lat="46.62365" lon="5.43401">
        <ele>204.60000610352</ele>
        <time>2020-09-12T07:12:04.000Z</time>
      </trkpt>
      <trkpt lat="46.62378" lon="5.43415">
        <ele>204.19999694824</ele>
        <time>2020-09-12T07:12:06.000Z</time>
      </trkpt>
      <trkpt lat="46.62391" lon="5.43429">
        <ele>204</ele>
        <time>2020-09-12T07:12:08.000Z</time>
      </trkpt>
      <trkpt lat="46.62405" lon="5.43443">
        <ele>204</ele>
        <time>2020-09-12T07:12:10.000Z</time>
      </trkpt>
      <trkpt lat="46.62412" lon="5.43451">
        <ele>203.80000305176</ele>
        <time>2020-09-12T07:12:11.000Z</time>
      </trkpt>
      <trkpt lat="46.62418" lon="5.43458">
        <ele>203.80000305176</ele>
        <time>2020-09-12T07:12:12.000Z</time>
      </trkpt>
      <trkpt lat="46.62431" lon="5.43472">
        <ele>203.39999389648</ele>
        <time>2020-09-12T07:12:14.000Z</time>
      </trkpt>
      <trkpt lat="46.62444" lon="5.43486">
        <ele>203.19999694824</ele>
        <time>2020-09-12T07:12:16.000Z</time>
      </trkpt>
      <trkpt lat="46.62456" lon="5.435">
        <ele>203</ele>
        <time>2020-09-12T07:12:18.000Z</time>
      </trkpt>
      <trkpt lat="46.62469" lon="5.43514">
        <ele>202.80000305176</ele>
        <time>2020-09-12T07:12:20.000Z</time>
      </trkpt>
      <trkpt lat="46.62481" lon="5.43527">
        <ele>202.80000305176</ele>
        <time>2020-09-12T07:12:22.000Z</time>
      </trkpt>
      <trkpt lat="46.62487" lon="5.43534">
        <ele>202.80000305176</ele>
        <time>2020-09-12T07:12:23.000Z</time>
      </trkpt>
      <trkpt lat="46.62494" lon="5.43541">
        <ele>202.80000305176</ele>
        <time>2020-09-12T07:12:24.000Z</time>
      </trkpt>
      <trkpt lat="46.62506" lon="5.43555">
        <ele>202.60000610352</ele>
        <time>2020-09-12T07:12:26.000Z</time>
      </trkpt>
      <trkpt lat="46.62519" lon="5.43568">
        <ele>202.60000610352</ele>
        <time>2020-09-12T07:12:28.000Z</time>
      </trkpt>
      <trkpt lat="46.62531" lon="5.43582">
        <ele>202.60000610352</ele>
        <time>2020-09-12T07:12:30.000Z</time>
      </trkpt>
      <trkpt lat="46.62544" lon="5.43596">
        <ele>202.60000610352</ele>
        <time>2020-09-12T07:12:32.000Z</time>
      </trkpt>
      <trkpt lat="46.62551" lon="5.43603">
        <ele>202.60000610352</ele>
        <time>2020-09-12T07:12:33.000Z</time>
      </trkpt>
      <trkpt lat="46.62558" lon="5.4361">
        <ele>202.39999389648</ele>
        <time>2020-09-12T07:12:34.000Z</time>
      </trkpt>
      <trkpt lat="46.62571" lon="5.43625">
        <ele>202.19999694824</ele>
        <time>2020-09-12T07:12:36.000Z</time>
      </trkpt>
      <trkpt lat="46.62585" lon="5.4364">
        <ele>201.80000305176</ele>
        <time>2020-09-12T07:12:38.000Z</time>
      </trkpt>
      <trkpt lat="46.62599" lon="5.43655">
        <ele>201.19999694824</ele>
        <time>2020-09-12T07:12:40.000Z</time>
      </trkpt>
      <trkpt lat="46.62605" lon="5.43663">
        <ele>201</ele>
        <time>2020-09-12T07:12:41.000Z</time>
      </trkpt>
      <trkpt lat="46.62612" lon="5.43672">
        <ele>200.60000610352</ele>
        <time>2020-09-12T07:12:42.000Z</time>
      </trkpt>
      <trkpt lat="46.62617" lon="5.43682">
        <ele>200.39999389648</ele>
        <time>2020-09-12T07:12:43.000Z</time>
      </trkpt>
      <trkpt lat="46.62622" lon="5.43692">
        <ele>200</ele>
        <time>2020-09-12T07:12:44.000Z</time>
      </trkpt>
      <trkpt lat="46.62626" lon="5.43703">
        <ele>199.80000305176</ele>
        <time>2020-09-12T07:12:45.000Z</time>
      </trkpt>
      <trkpt lat="46.62629" lon="5.43715">
        <ele>199.39999389648</ele>
        <time>2020-09-12T07:12:46.000Z</time>
      </trkpt>
      <trkpt lat="46.62632" lon="5.43739">
        <ele>198.80000305176</ele>
        <time>2020-09-12T07:12:48.000Z</time>
      </trkpt>
      <trkpt lat="46.62632" lon="5.43751">
        <ele>198.60000610352</ele>
        <time>2020-09-12T07:12:49.000Z</time>
      </trkpt>
      <trkpt lat="46.62633" lon="5.43762">
        <ele>198.19999694824</ele>
        <time>2020-09-12T07:12:50.000Z</time>
      </trkpt>
      <trkpt lat="46.62633" lon="5.43786">
        <ele>198</ele>
        <time>2020-09-12T07:12:52.000Z</time>
      </trkpt>
      <trkpt lat="46.62634" lon="5.43809">
        <ele>197.80000305176</ele>
        <time>2020-09-12T07:12:54.000Z</time>
      </trkpt>
      <trkpt lat="46.62634" lon="5.4382">
        <ele>197.80000305176</ele>
        <time>2020-09-12T07:12:55.000Z</time>
      </trkpt>
      <trkpt lat="46.62635" lon="5.43831">
        <ele>197.80000305176</ele>
        <time>2020-09-12T07:12:56.000Z</time>
      </trkpt>
      <trkpt lat="46.62635" lon="5.43853">
        <ele>197.80000305176</ele>
        <time>2020-09-12T07:12:58.000Z</time>
      </trkpt>
      <trkpt lat="46.62637" lon="5.43874">
        <ele>198</ele>
        <time>2020-09-12T07:13:00.000Z</time>
      </trkpt>
      <trkpt lat="46.62638" lon="5.43884">
        <ele>198</ele>
        <time>2020-09-12T07:13:01.000Z</time>
      </trkpt>
      <trkpt lat="46.62641" lon="5.43894">
        <ele>198</ele>
        <time>2020-09-12T07:13:02.000Z</time>
      </trkpt>
      <trkpt lat="46.62649" lon="5.4391">
        <ele>198.39999389648</ele>
        <time>2020-09-12T07:13:04.000Z</time>
      </trkpt>
      <trkpt lat="46.62659" lon="5.43923">
        <ele>198.80000305176</ele>
        <time>2020-09-12T07:13:06.000Z</time>
      </trkpt>
      <trkpt lat="46.6267" lon="5.43935">
        <ele>199</ele>
        <time>2020-09-12T07:13:08.000Z</time>
      </trkpt>
      <trkpt lat="46.6268" lon="5.43947">
        <ele>199.39999389648</ele>
        <time>2020-09-12T07:13:10.000Z</time>
      </trkpt>
      <trkpt lat="46.6269" lon="5.43961">
        <ele>199.80000305176</ele>
        <time>2020-09-12T07:13:12.000Z</time>
      </trkpt>
      <trkpt lat="46.627" lon="5.43975">
        <ele>200.19999694824</ele>
        <time>2020-09-12T07:13:14.000Z</time>
      </trkpt>
      <trkpt lat="46.62705" lon="5.43982">
        <ele>200.39999389648</ele>
        <time>2020-09-12T07:13:15.000Z</time>
      </trkpt>
      <trkpt lat="46.62709" lon="5.4399">
        <ele>200.39999389648</ele>
        <time>2020-09-12T07:13:16.000Z</time>
      </trkpt>
      <trkpt lat="46.62718" lon="5.44005">
        <ele>200.60000610352</ele>
        <time>2020-09-12T07:13:18.000Z</time>
      </trkpt>
      <trkpt lat="46.62726" lon="5.44021">
        <ele>200.80000305176</ele>
        <time>2020-09-12T07:13:20.000Z</time>
      </trkpt>
      <trkpt lat="46.62734" lon="5.44038">
        <ele>200.80000305176</ele>
        <time>2020-09-12T07:13:22.000Z</time>
      </trkpt>
      <trkpt lat="46.6274" lon="5.44055">
        <ele>201</ele>
        <time>2020-09-12T07:13:24.000Z</time>
      </trkpt>
      <trkpt lat="46.62745" lon="5.44072">
        <ele>201.19999694824</ele>
        <time>2020-09-12T07:13:26.000Z</time>
      </trkpt>
      <trkpt lat="46.62748" lon="5.4408">
        <ele>201.39999389648</ele>
        <time>2020-09-12T07:13:27.000Z</time>
      </trkpt>
      <trkpt lat="46.6275" lon="5.44088">
        <ele>201.60000610352</ele>
        <time>2020-09-12T07:13:28.000Z</time>
      </trkpt>
      <trkpt lat="46.62753" lon="5.44096">
        <ele>201.80000305176</ele>
        <time>2020-09-12T07:13:29.000Z</time>
      </trkpt>
      <trkpt lat="46.62756" lon="5.44103">
        <ele>201.80000305176</ele>
        <time>2020-09-12T07:13:30.000Z</time>
      </trkpt>
      <trkpt lat="46.62762" lon="5.44117">
        <ele>202.19999694824</ele>
        <time>2020-09-12T07:13:32.000Z</time>
      </trkpt>
      <trkpt lat="46.62769" lon="5.44132">
        <ele>202.60000610352</ele>
        <time>2020-09-12T07:13:34.000Z</time>
      </trkpt>
      <trkpt lat="46.62777" lon="5.44146">
        <ele>203</ele>
        <time>2020-09-12T07:13:36.000Z</time>
      </trkpt>
      <trkpt lat="46.62786" lon="5.4416">
        <ele>203.39999389648</ele>
        <time>2020-09-12T07:13:38.000Z</time>
      </trkpt>
      <trkpt lat="46.62796" lon="5.44175">
        <ele>203.39999389648</ele>
        <time>2020-09-12T07:13:40.000Z</time>
      </trkpt>
      <trkpt lat="46.62807" lon="5.44191">
        <ele>203.39999389648</ele>
        <time>2020-09-12T07:13:42.000Z</time>
      </trkpt>
      <trkpt lat="46.62817" lon="5.4421">
        <ele>203.39999389648</ele>
        <time>2020-09-12T07:13:44.000Z</time>
      </trkpt>
      <trkpt lat="46.62822" lon="5.4422">
        <ele>203.39999389648</ele>
        <time>2020-09-12T07:13:45.000Z</time>
      </trkpt>
      <trkpt lat="46.62827" lon="5.44231">
        <ele>203.19999694824</ele>
        <time>2020-09-12T07:13:46.000Z</time>
      </trkpt>
      <trkpt lat="46.62836" lon="5.44254">
        <ele>202.60000610352</ele>
        <time>2020-09-12T07:13:48.000Z</time>
      </trkpt>
      <trkpt lat="46.62843" lon="5.44278">
        <ele>201.60000610352</ele>
        <time>2020-09-12T07:13:50.000Z</time>
      </trkpt>
      <trkpt lat="46.62846" lon="5.4429">
        <ele>201.19999694824</ele>
        <time>2020-09-12T07:13:51.000Z</time>
      </trkpt>
      <trkpt lat="46.62847" lon="5.44303">
        <ele>200.60000610352</ele>
        <time>2020-09-12T07:13:52.000Z</time>
      </trkpt>
      <trkpt lat="46.62848" lon="5.44315">
        <ele>199.80000305176</ele>
        <time>2020-09-12T07:13:53.000Z</time>
      </trkpt>
      <trkpt lat="46.62848" lon="5.44328">
        <ele>199.39999389648</ele>
        <time>2020-09-12T07:13:54.000Z</time>
      </trkpt>
      <trkpt lat="46.62848" lon="5.4434">
        <ele>198.80000305176</ele>
        <time>2020-09-12T07:13:55.000Z</time>
      </trkpt>
      <trkpt lat="46.62848" lon="5.44352">
        <ele>198.39999389648</ele>
        <time>2020-09-12T07:13:56.000Z</time>
      </trkpt>
      <trkpt lat="46.62848" lon="5.44374">
        <ele>198.19999694824</ele>
        <time>2020-09-12T07:13:58.000Z</time>
      </trkpt>
      <trkpt lat="46.62848" lon="5.44397">
        <ele>198</ele>
        <time>2020-09-12T07:14:00.000Z</time>
      </trkpt>
      <trkpt lat="46.62848" lon="5.44419">
        <ele>198</ele>
        <time>2020-09-12T07:14:02.000Z</time>
      </trkpt>
      <trkpt lat="46.62849" lon="5.44431">
        <ele>198</ele>
        <time>2020-09-12T07:14:03.000Z</time>
      </trkpt>
      <trkpt lat="46.62849" lon="5.44442">
        <ele>198</ele>
        <time>2020-09-12T07:14:04.000Z</time>
      </trkpt>
      <trkpt lat="46.62849" lon="5.44465">
        <ele>198</ele>
        <time>2020-09-12T07:14:06.000Z</time>
      </trkpt>
      <trkpt lat="46.62847" lon="5.44487">
        <ele>198</ele>
        <time>2020-09-12T07:14:08.000Z</time>
      </trkpt>
      <trkpt lat="46.62845" lon="5.44498">
        <ele>198.19999694824</ele>
        <time>2020-09-12T07:14:09.000Z</time>
      </trkpt>
      <trkpt lat="46.62842" lon="5.44508">
        <ele>198.19999694824</ele>
        <time>2020-09-12T07:14:10.000Z</time>
      </trkpt>
      <trkpt lat="46.62834" lon="5.44525">
        <ele>198.19999694824</ele>
        <time>2020-09-12T07:14:12.000Z</time>
      </trkpt>
      <trkpt lat="46.62826" lon="5.44541">
        <ele>198.19999694824</ele>
        <time>2020-09-12T07:14:14.000Z</time>
      </trkpt>
      <trkpt lat="46.62825" lon="5.44551">
        <ele>198.19999694824</ele>
        <time>2020-09-12T07:14:15.000Z</time>
      </trkpt>
      <trkpt lat="46.62826" lon="5.4456">
        <ele>198.19999694824</ele>
        <time>2020-09-12T07:14:16.000Z</time>
      </trkpt>
      <trkpt lat="46.6283" lon="5.44569">
        <ele>198.19999694824</ele>
        <time>2020-09-12T07:14:17.000Z</time>
      </trkpt>
      <trkpt lat="46.62835" lon="5.44577">
        <ele>198.19999694824</ele>
        <time>2020-09-12T07:14:18.000Z</time>
      </trkpt>
      <trkpt lat="46.62848" lon="5.44588">
        <ele>198.19999694824</ele>
        <time>2020-09-12T07:14:20.000Z</time>
      </trkpt>
      <trkpt lat="46.62863" lon="5.44593">
        <ele>198</ele>
        <time>2020-09-12T07:14:22.000Z</time>
      </trkpt>
      <trkpt lat="46.62871" lon="5.44595">
        <ele>198</ele>
        <time>2020-09-12T07:14:23.000Z</time>
      </trkpt>
      <trkpt lat="46.62879" lon="5.44596">
        <ele>197.80000305176</ele>
        <time>2020-09-12T07:14:24.000Z</time>
      </trkpt>
      <trkpt lat="46.62893" lon="5.44604">
        <ele>197.39999389648</ele>
        <time>2020-09-12T07:14:26.000Z</time>
      </trkpt>
      <trkpt lat="46.62905" lon="5.4462">
        <ele>197.19999694824</ele>
        <time>2020-09-12T07:14:28.000Z</time>
      </trkpt>
      <trkpt lat="46.6291" lon="5.44628">
        <ele>197</ele>
        <time>2020-09-12T07:14:29.000Z</time>
      </trkpt>
      <trkpt lat="46.62916" lon="5.44636">
        <ele>197</ele>
        <time>2020-09-12T07:14:30.000Z</time>
      </trkpt>
      <trkpt lat="46.62928" lon="5.4465">
        <ele>197</ele>
        <time>2020-09-12T07:14:32.000Z</time>
      </trkpt>
      <trkpt lat="46.6294" lon="5.44662">
        <ele>196.80000305176</ele>
        <time>2020-09-12T07:14:34.000Z</time>
      </trkpt>
      <trkpt lat="46.62946" lon="5.44668">
        <ele>196.80000305176</ele>
        <time>2020-09-12T07:14:35.000Z</time>
      </trkpt>
      <trkpt lat="46.62953" lon="5.44674">
        <ele>196.60000610352</ele>
        <time>2020-09-12T07:14:36.000Z</time>
      </trkpt>
      <trkpt lat="46.62965" lon="5.44687">
        <ele>196.60000610352</ele>
        <time>2020-09-12T07:14:38.000Z</time>
      </trkpt>
      <trkpt lat="46.62978" lon="5.44698">
        <ele>196.60000610352</ele>
        <time>2020-09-12T07:14:40.000Z</time>
      </trkpt>
      <trkpt lat="46.62984" lon="5.44704">
        <ele>196.60000610352</ele>
        <time>2020-09-12T07:14:41.000Z</time>
      </trkpt>
      <trkpt lat="46.62991" lon="5.44708">
        <ele>196.60000610352</ele>
        <time>2020-09-12T07:14:42.000Z</time>
      </trkpt>
      <trkpt lat="46.63006" lon="5.44713">
        <ele>196.60000610352</ele>
        <time>2020-09-12T07:14:44.000Z</time>
      </trkpt>
      <trkpt lat="46.63013" lon="5.44714">
        <ele>196.60000610352</ele>
        <time>2020-09-12T07:14:45.000Z</time>
      </trkpt>
      <trkpt lat="46.63021" lon="5.44714">
        <ele>196.60000610352</ele>
        <time>2020-09-12T07:14:46.000Z</time>
      </trkpt>
      <trkpt lat="46.63036" lon="5.44714">
        <ele>196.39999389648</ele>
        <time>2020-09-12T07:14:48.000Z</time>
      </trkpt>
      <trkpt lat="46.63051" lon="5.44717">
        <ele>196.39999389648</ele>
        <time>2020-09-12T07:14:50.000Z</time>
      </trkpt>
      <trkpt lat="46.63058" lon="5.44719">
        <ele>196.19999694824</ele>
        <time>2020-09-12T07:14:51.000Z</time>
      </trkpt>
      <trkpt lat="46.63065" lon="5.44722">
        <ele>196.19999694824</ele>
        <time>2020-09-12T07:14:52.000Z</time>
      </trkpt>
      <trkpt lat="46.6308" lon="5.44729">
        <ele>196.19999694824</ele>
        <time>2020-09-12T07:14:54.000Z</time>
      </trkpt>
      <trkpt lat="46.63094" lon="5.44736">
        <ele>196.19999694824</ele>
        <time>2020-09-12T07:14:56.000Z</time>
      </trkpt>
      <trkpt lat="46.63108" lon="5.44743">
        <ele>196.19999694824</ele>
        <time>2020-09-12T07:14:58.000Z</time>
      </trkpt>
      <trkpt lat="46.63122" lon="5.44751">
        <ele>196.19999694824</ele>
        <time>2020-09-12T07:15:00.000Z</time>
      </trkpt>
      <trkpt lat="46.63135" lon="5.44761">
        <ele>196.19999694824</ele>
        <time>2020-09-12T07:15:02.000Z</time>
      </trkpt>
      <trkpt lat="46.63147" lon="5.44774">
        <ele>196.19999694824</ele>
        <time>2020-09-12T07:15:04.000Z</time>
      </trkpt>
      <trkpt lat="46.63157" lon="5.4479">
        <ele>196.19999694824</ele>
        <time>2020-09-12T07:15:06.000Z</time>
      </trkpt>
      <trkpt lat="46.63165" lon="5.44807">
        <ele>196.39999389648</ele>
        <time>2020-09-12T07:15:08.000Z</time>
      </trkpt>
      <trkpt lat="46.63169" lon="5.44815">
        <ele>196.39999389648</ele>
        <time>2020-09-12T07:15:09.000Z</time>
      </trkpt>
      <trkpt lat="46.63174" lon="5.44823">
        <ele>196.39999389648</ele>
        <time>2020-09-12T07:15:10.000Z</time>
      </trkpt>
      <trkpt lat="46.63185" lon="5.44835">
        <ele>196.39999389648</ele>
        <time>2020-09-12T07:15:12.000Z</time>
      </trkpt>
      <trkpt lat="46.63198" lon="5.44845">
        <ele>196.19999694824</ele>
        <time>2020-09-12T07:15:14.000Z</time>
      </trkpt>
      <trkpt lat="46.63204" lon="5.4485">
        <ele>196.19999694824</ele>
        <time>2020-09-12T07:15:15.000Z</time>
      </trkpt>
      <trkpt lat="46.63211" lon="5.44854">
        <ele>196.39999389648</ele>
        <time>2020-09-12T07:15:16.000Z</time>
      </trkpt>
      <trkpt lat="46.63224" lon="5.44864">
        <ele>196.19999694824</ele>
        <time>2020-09-12T07:15:18.000Z</time>
      </trkpt>
      <trkpt lat="46.63236" lon="5.44875">
        <ele>196.39999389648</ele>
        <time>2020-09-12T07:15:20.000Z</time>
      </trkpt>
      <trkpt lat="46.63247" lon="5.44888">
        <ele>196.39999389648</ele>
        <time>2020-09-12T07:15:22.000Z</time>
      </trkpt>
      <trkpt lat="46.63252" lon="5.44895">
        <ele>196.39999389648</ele>
        <time>2020-09-12T07:15:23.000Z</time>
      </trkpt>
      <trkpt lat="46.63257" lon="5.44902">
        <ele>196.60000610352</ele>
        <time>2020-09-12T07:15:24.000Z</time>
      </trkpt>
      <trkpt lat="46.63268" lon="5.44915">
        <ele>196.80000305176</ele>
        <time>2020-09-12T07:15:26.000Z</time>
      </trkpt>
      <trkpt lat="46.63279" lon="5.44926">
        <ele>196.80000305176</ele>
        <time>2020-09-12T07:15:28.000Z</time>
      </trkpt>
      <trkpt lat="46.6329" lon="5.44935">
        <ele>197</ele>
        <time>2020-09-12T07:15:30.000Z</time>
      </trkpt>
      <trkpt lat="46.63301" lon="5.44942">
        <ele>197.19999694824</ele>
        <time>2020-09-12T07:15:32.000Z</time>
      </trkpt>
      <trkpt lat="46.63311" lon="5.44948">
        <ele>197.19999694824</ele>
        <time>2020-09-12T07:15:34.000Z</time>
      </trkpt>
      <trkpt lat="46.63321" lon="5.44954">
        <ele>197.60000610352</ele>
        <time>2020-09-12T07:15:36.000Z</time>
      </trkpt>
      <trkpt lat="46.63331" lon="5.4496">
        <ele>198.19999694824</ele>
        <time>2020-09-12T07:15:38.000Z</time>
      </trkpt>
      <trkpt lat="46.6334" lon="5.44966">
        <ele>198.80000305176</ele>
        <time>2020-09-12T07:15:40.000Z</time>
      </trkpt>
      <trkpt lat="46.6335" lon="5.44972">
        <ele>199.80000305176</ele>
        <time>2020-09-12T07:15:42.000Z</time>
      </trkpt>
      <trkpt lat="46.63355" lon="5.44974">
        <ele>200.19999694824</ele>
        <time>2020-09-12T07:15:43.000Z</time>
      </trkpt>
      <trkpt lat="46.6336" lon="5.44976">
        <ele>200.60000610352</ele>
        <time>2020-09-12T07:15:44.000Z</time>
      </trkpt>
      <trkpt lat="46.63365" lon="5.44977">
        <ele>201</ele>
        <time>2020-09-12T07:15:45.000Z</time>
      </trkpt>
      <trkpt lat="46.63371" lon="5.44978">
        <ele>201.39999389648</ele>
        <time>2020-09-12T07:15:46.000Z</time>
      </trkpt>
      <trkpt lat="46.63381" lon="5.44978">
        <ele>201.80000305176</ele>
        <time>2020-09-12T07:15:48.000Z</time>
      </trkpt>
      <trkpt lat="46.63391" lon="5.44977">
        <ele>202.19999694824</ele>
        <time>2020-09-12T07:15:50.000Z</time>
      </trkpt>
      <trkpt lat="46.63396" lon="5.44976">
        <ele>202.60000610352</ele>
        <time>2020-09-12T07:15:51.000Z</time>
      </trkpt>
      <trkpt lat="46.63401" lon="5.44975">
        <ele>202.80000305176</ele>
        <time>2020-09-12T07:15:52.000Z</time>
      </trkpt>
      <trkpt lat="46.63411" lon="5.44974">
        <ele>203.19999694824</ele>
        <time>2020-09-12T07:15:54.000Z</time>
      </trkpt>
      <trkpt lat="46.6342" lon="5.44975">
        <ele>203.39999389648</ele>
        <time>2020-09-12T07:15:56.000Z</time>
      </trkpt>
      <trkpt lat="46.63425" lon="5.44976">
        <ele>203.60000610352</ele>
        <time>2020-09-12T07:15:57.000Z</time>
      </trkpt>
      <trkpt lat="46.6343" lon="5.44978">
        <ele>203.80000305176</ele>
        <time>2020-09-12T07:15:58.000Z</time>
      </trkpt>
      <trkpt lat="46.63435" lon="5.4498">
        <ele>204</ele>
        <time>2020-09-12T07:15:59.000Z</time>
      </trkpt>
      <trkpt lat="46.6344" lon="5.44982">
        <ele>204.19999694824</ele>
        <time>2020-09-12T07:16:00.000Z</time>
      </trkpt>
      <trkpt lat="46.6345" lon="5.44986">
        <ele>204.80000305176</ele>
        <time>2020-09-12T07:16:02.000Z</time>
      </trkpt>
      <trkpt lat="46.6346" lon="5.44992">
        <ele>205.60000610352</ele>
        <time>2020-09-12T07:16:04.000Z</time>
      </trkpt>
      <trkpt lat="46.63469" lon="5.44997">
        <ele>205.80000305176</ele>
        <time>2020-09-12T07:16:06.000Z</time>
      </trkpt>
      <trkpt lat="46.63474" lon="5.45001">
        <ele>206</ele>
        <time>2020-09-12T07:16:07.000Z</time>
      </trkpt>
      <trkpt lat="46.63479" lon="5.45004">
        <ele>206</ele>
        <time>2020-09-12T07:16:08.000Z</time>
      </trkpt>
      <trkpt lat="46.63488" lon="5.45011">
        <ele>206.39999389648</ele>
        <time>2020-09-12T07:16:10.000Z</time>
      </trkpt>
      <trkpt lat="46.63498" lon="5.45019">
        <ele>207</ele>
        <time>2020-09-12T07:16:12.000Z</time>
      </trkpt>
      <trkpt lat="46.63506" lon="5.45028">
        <ele>207.60000610352</ele>
        <time>2020-09-12T07:16:14.000Z</time>
      </trkpt>
      <trkpt lat="46.6351" lon="5.45033">
        <ele>207.60000610352</ele>
        <time>2020-09-12T07:16:15.000Z</time>
      </trkpt>
      <trkpt lat="46.63514" lon="5.45037">
        <ele>207.80000305176</ele>
        <time>2020-09-12T07:16:16.000Z</time>
      </trkpt>
      <trkpt lat="46.63522" lon="5.45047">
        <ele>208</ele>
        <time>2020-09-12T07:16:18.000Z</time>
      </trkpt>
      <trkpt lat="46.6353" lon="5.45058">
        <ele>208</ele>
        <time>2020-09-12T07:16:20.000Z</time>
      </trkpt>
      <trkpt lat="46.63534" lon="5.45063">
        <ele>208.19999694824</ele>
        <time>2020-09-12T07:16:21.000Z</time>
      </trkpt>
      <trkpt lat="46.63538" lon="5.45069">
        <ele>208.39999389648</ele>
        <time>2020-09-12T07:16:22.000Z</time>
      </trkpt>
      <trkpt lat="46.63543" lon="5.45075">
        <ele>208.60000610352</ele>
        <time>2020-09-12T07:16:23.000Z</time>
      </trkpt>
      <trkpt lat="46.63547" lon="5.45081">
        <ele>208.80000305176</ele>
        <time>2020-09-12T07:16:24.000Z</time>
      </trkpt>
      <trkpt lat="46.63556" lon="5.45093">
        <ele>208.80000305176</ele>
        <time>2020-09-12T07:16:26.000Z</time>
      </trkpt>
      <trkpt lat="46.63565" lon="5.45106">
        <ele>208.80000305176</ele>
        <time>2020-09-12T07:16:28.000Z</time>
      </trkpt>
      <trkpt lat="46.63575" lon="5.4512">
        <ele>208.80000305176</ele>
        <time>2020-09-12T07:16:30.000Z</time>
      </trkpt>
      <trkpt lat="46.63586" lon="5.45135">
        <ele>208.80000305176</ele>
        <time>2020-09-12T07:16:32.000Z</time>
      </trkpt>
      <trkpt lat="46.63596" lon="5.45152">
        <ele>208.80000305176</ele>
        <time>2020-09-12T07:16:34.000Z</time>
      </trkpt>
      <trkpt lat="46.63605" lon="5.45171">
        <ele>208.39999389648</ele>
        <time>2020-09-12T07:16:36.000Z</time>
      </trkpt>
      <trkpt lat="46.63613" lon="5.45192">
        <ele>207.60000610352</ele>
        <time>2020-09-12T07:16:38.000Z</time>
      </trkpt>
      <trkpt lat="46.6362" lon="5.45214">
        <ele>207</ele>
        <time>2020-09-12T07:16:40.000Z</time>
      </trkpt>
      <trkpt lat="46.63628" lon="5.45237">
        <ele>206.39999389648</ele>
        <time>2020-09-12T07:16:42.000Z</time>
      </trkpt>
      <trkpt lat="46.63633" lon="5.45249">
        <ele>205.80000305176</ele>
        <time>2020-09-12T07:16:43.000Z</time>
      </trkpt>
      <trkpt lat="46.63638" lon="5.4526">
        <ele>205.39999389648</ele>
        <time>2020-09-12T07:16:44.000Z</time>
      </trkpt>
      <trkpt lat="46.63649" lon="5.45283">
        <ele>204.60000610352</ele>
        <time>2020-09-12T07:16:46.000Z</time>
      </trkpt>
      <trkpt lat="46.63663" lon="5.45304">
        <ele>203.60000610352</ele>
        <time>2020-09-12T07:16:48.000Z</time>
      </trkpt>
      <trkpt lat="46.63677" lon="5.45325">
        <ele>202.39999389648</ele>
        <time>2020-09-12T07:16:50.000Z</time>
      </trkpt>
      <trkpt lat="46.63688" lon="5.4535">
        <ele>201.19999694824</ele>
        <time>2020-09-12T07:16:52.000Z</time>
      </trkpt>
      <trkpt lat="46.63696" lon="5.45377">
        <ele>199.80000305176</ele>
        <time>2020-09-12T07:16:54.000Z</time>
      </trkpt>
      <trkpt lat="46.63702" lon="5.45404">
        <ele>198.80000305176</ele>
        <time>2020-09-12T07:16:56.000Z</time>
      </trkpt>
      <trkpt lat="46.63705" lon="5.45417">
        <ele>198.39999389648</ele>
        <time>2020-09-12T07:16:57.000Z</time>
      </trkpt>
      <trkpt lat="46.63708" lon="5.4543">
        <ele>197.80000305176</ele>
        <time>2020-09-12T07:16:58.000Z</time>
      </trkpt>
      <trkpt lat="46.63711" lon="5.45443">
        <ele>197.39999389648</ele>
        <time>2020-09-12T07:16:59.000Z</time>
      </trkpt>
      <trkpt lat="46.63714" lon="5.45456">
        <ele>196.80000305176</ele>
        <time>2020-09-12T07:17:00.000Z</time>
      </trkpt>
      <trkpt lat="46.63719" lon="5.45481">
        <ele>196.19999694824</ele>
        <time>2020-09-12T07:17:02.000Z</time>
      </trkpt>
      <trkpt lat="46.63725" lon="5.45505">
        <ele>196</ele>
        <time>2020-09-12T07:17:04.000Z</time>
      </trkpt>
      <trkpt lat="46.63728" lon="5.45517">
        <ele>196</ele>
        <time>2020-09-12T07:17:05.000Z</time>
      </trkpt>
      <trkpt lat="46.6373" lon="5.45528">
        <ele>196</ele>
        <time>2020-09-12T07:17:06.000Z</time>
      </trkpt>
      <trkpt lat="46.63736" lon="5.45552">
        <ele>196</ele>
        <time>2020-09-12T07:17:08.000Z</time>
      </trkpt>
      <trkpt lat="46.63741" lon="5.45574">
        <ele>196</ele>
        <time>2020-09-12T07:17:10.000Z</time>
      </trkpt>
      <trkpt lat="46.63747" lon="5.45596">
        <ele>196</ele>
        <time>2020-09-12T07:17:12.000Z</time>
      </trkpt>
      <trkpt lat="46.63754" lon="5.45617">
        <ele>196.19999694824</ele>
        <time>2020-09-12T07:17:14.000Z</time>
      </trkpt>
      <trkpt lat="46.63762" lon="5.45637">
        <ele>196.39999389648</ele>
        <time>2020-09-12T07:17:16.000Z</time>
      </trkpt>
      <trkpt lat="46.63772" lon="5.45655">
        <ele>196.60000610352</ele>
        <time>2020-09-12T07:17:18.000Z</time>
      </trkpt>
      <trkpt lat="46.63777" lon="5.45663">
        <ele>196.60000610352</ele>
        <time>2020-09-12T07:17:19.000Z</time>
      </trkpt>
      <trkpt lat="46.63782" lon="5.45671">
        <ele>196.60000610352</ele>
        <time>2020-09-12T07:17:20.000Z</time>
      </trkpt>
      <trkpt lat="46.63792" lon="5.45688">
        <ele>196.60000610352</ele>
        <time>2020-09-12T07:17:22.000Z</time>
      </trkpt>
      <trkpt lat="46.63802" lon="5.45706">
        <ele>196.39999389648</ele>
        <time>2020-09-12T07:17:24.000Z</time>
      </trkpt>
      <trkpt lat="46.63811" lon="5.45724">
        <ele>196.39999389648</ele>
        <time>2020-09-12T07:17:26.000Z</time>
      </trkpt>
      <trkpt lat="46.63816" lon="5.45734">
        <ele>196.39999389648</ele>
        <time>2020-09-12T07:17:27.000Z</time>
      </trkpt>
      <trkpt lat="46.6382" lon="5.45743">
        <ele>196.39999389648</ele>
        <time>2020-09-12T07:17:28.000Z</time>
      </trkpt>
      <trkpt lat="46.6383" lon="5.45761">
        <ele>196.39999389648</ele>
        <time>2020-09-12T07:17:30.000Z</time>
      </trkpt>
      <trkpt lat="46.63839" lon="5.45779">
        <ele>196.60000610352</ele>
        <time>2020-09-12T07:17:32.000Z</time>
      </trkpt>
      <trkpt lat="46.63849" lon="5.45797">
        <ele>196.60000610352</ele>
        <time>2020-09-12T07:17:34.000Z</time>
      </trkpt>
      <trkpt lat="46.63854" lon="5.45805">
        <ele>196.60000610352</ele>
        <time>2020-09-12T07:17:35.000Z</time>
      </trkpt>
      <trkpt lat="46.63859" lon="5.45815">
        <ele>196.60000610352</ele>
        <time>2020-09-12T07:17:36.000Z</time>
      </trkpt>
      <trkpt lat="46.63862" lon="5.45824">
        <ele>196.60000610352</ele>
        <time>2020-09-12T07:17:37.000Z</time>
      </trkpt>
      <trkpt lat="46.63865" lon="5.45835">
        <ele>196.60000610352</ele>
        <time>2020-09-12T07:17:38.000Z</time>
      </trkpt>
      <trkpt lat="46.63867" lon="5.45846">
        <ele>196.60000610352</ele>
        <time>2020-09-12T07:17:39.000Z</time>
      </trkpt>
      <trkpt lat="46.63867" lon="5.45857">
        <ele>196.60000610352</ele>
        <time>2020-09-12T07:17:40.000Z</time>
      </trkpt>
      <trkpt lat="46.63867" lon="5.45879">
        <ele>196.60000610352</ele>
        <time>2020-09-12T07:17:42.000Z</time>
      </trkpt>
      <trkpt lat="46.63867" lon="5.4589">
        <ele>196.60000610352</ele>
        <time>2020-09-12T07:17:43.000Z</time>
      </trkpt>
      <trkpt lat="46.63867" lon="5.45901">
        <ele>196.80000305176</ele>
        <time>2020-09-12T07:17:44.000Z</time>
      </trkpt>
      <trkpt lat="46.63869" lon="5.45923">
        <ele>196.80000305176</ele>
        <time>2020-09-12T07:17:46.000Z</time>
      </trkpt>
      <trkpt lat="46.63872" lon="5.45944">
        <ele>196.80000305176</ele>
        <time>2020-09-12T07:17:48.000Z</time>
      </trkpt>
      <trkpt lat="46.63874" lon="5.45954">
        <ele>197</ele>
        <time>2020-09-12T07:17:49.000Z</time>
      </trkpt>
      <trkpt lat="46.63875" lon="5.45965">
        <ele>197</ele>
        <time>2020-09-12T07:17:50.000Z</time>
      </trkpt>
      <trkpt lat="46.63877" lon="5.45975">
        <ele>197</ele>
        <time>2020-09-12T07:17:51.000Z</time>
      </trkpt>
      <trkpt lat="46.63878" lon="5.45985">
        <ele>197.19999694824</ele>
        <time>2020-09-12T07:17:52.000Z</time>
      </trkpt>
      <trkpt lat="46.63881" lon="5.46005">
        <ele>197.19999694824</ele>
        <time>2020-09-12T07:17:54.000Z</time>
      </trkpt>
      <trkpt lat="46.63885" lon="5.46025">
        <ele>197.39999389648</ele>
        <time>2020-09-12T07:17:56.000Z</time>
      </trkpt>
      <trkpt lat="46.63888" lon="5.46045">
        <ele>197.39999389648</ele>
        <time>2020-09-12T07:17:58.000Z</time>
      </trkpt>
      <trkpt lat="46.63892" lon="5.46064">
        <ele>197.60000610352</ele>
        <time>2020-09-12T07:18:00.000Z</time>
      </trkpt>
      <trkpt lat="46.63897" lon="5.46083">
        <ele>197.80000305176</ele>
        <time>2020-09-12T07:18:02.000Z</time>
      </trkpt>
      <trkpt lat="46.63902" lon="5.46101">
        <ele>198</ele>
        <time>2020-09-12T07:18:04.000Z</time>
      </trkpt>
      <trkpt lat="46.63905" lon="5.46111">
        <ele>198.19999694824</ele>
        <time>2020-09-12T07:18:05.000Z</time>
      </trkpt>
      <trkpt lat="46.63907" lon="5.4612">
        <ele>198.39999389648</ele>
        <time>2020-09-12T07:18:06.000Z</time>
      </trkpt>
      <trkpt lat="46.63911" lon="5.46139">
        <ele>198.80000305176</ele>
        <time>2020-09-12T07:18:08.000Z</time>
      </trkpt>
      <trkpt lat="46.63913" lon="5.46157">
        <ele>199</ele>
        <time>2020-09-12T07:18:10.000Z</time>
      </trkpt>
      <trkpt lat="46.63915" lon="5.46175">
        <ele>199.19999694824</ele>
        <time>2020-09-12T07:18:12.000Z</time>
      </trkpt>
      <trkpt lat="46.63917" lon="5.46193">
        <ele>199.39999389648</ele>
        <time>2020-09-12T07:18:14.000Z</time>
      </trkpt>
      <trkpt lat="46.6392" lon="5.4621">
        <ele>199.80000305176</ele>
        <time>2020-09-12T07:18:16.000Z</time>
      </trkpt>
      <trkpt lat="46.63923" lon="5.46227">
        <ele>200.19999694824</ele>
        <time>2020-09-12T07:18:18.000Z</time>
      </trkpt>
      <trkpt lat="46.63924" lon="5.46236">
        <ele>200.39999389648</ele>
        <time>2020-09-12T07:18:19.000Z</time>
      </trkpt>
      <trkpt lat="46.63925" lon="5.46245">
        <ele>200.60000610352</ele>
        <time>2020-09-12T07:18:20.000Z</time>
      </trkpt>
      <trkpt lat="46.63926" lon="5.46262">
        <ele>201</ele>
        <time>2020-09-12T07:18:22.000Z</time>
      </trkpt>
      <trkpt lat="46.63927" lon="5.4628">
        <ele>201.19999694824</ele>
        <time>2020-09-12T07:18:24.000Z</time>
      </trkpt>
      <trkpt lat="46.63928" lon="5.46288">
        <ele>201.60000610352</ele>
        <time>2020-09-12T07:18:25.000Z</time>
      </trkpt>
      <trkpt lat="46.63929" lon="5.46297">
        <ele>201.80000305176</ele>
        <time>2020-09-12T07:18:26.000Z</time>
      </trkpt>
      <trkpt lat="46.63931" lon="5.46314">
        <ele>202</ele>
        <time>2020-09-12T07:18:28.000Z</time>
      </trkpt>
      <trkpt lat="46.63935" lon="5.4633">
        <ele>202.60000610352</ele>
        <time>2020-09-12T07:18:30.000Z</time>
      </trkpt>
      <trkpt lat="46.63938" lon="5.46337">
        <ele>202.60000610352</ele>
        <time>2020-09-12T07:18:31.000Z</time>
      </trkpt>
      <trkpt lat="46.63941" lon="5.46344">
        <ele>202.80000305176</ele>
        <time>2020-09-12T07:18:32.000Z</time>
      </trkpt>
      <trkpt lat="46.63949" lon="5.46357">
        <ele>202.80000305176</ele>
        <time>2020-09-12T07:18:34.000Z</time>
      </trkpt>
      <trkpt lat="46.63958" lon="5.46368">
        <ele>203.19999694824</ele>
        <time>2020-09-12T07:18:36.000Z</time>
      </trkpt>
      <trkpt lat="46.63967" lon="5.46379">
        <ele>203.60000610352</ele>
        <time>2020-09-12T07:18:38.000Z</time>
      </trkpt>
      <trkpt lat="46.63972" lon="5.46385">
        <ele>203.80000305176</ele>
        <time>2020-09-12T07:18:39.000Z</time>
      </trkpt>
      <trkpt lat="46.63977" lon="5.46391">
        <ele>203.80000305176</ele>
        <time>2020-09-12T07:18:40.000Z</time>
      </trkpt>
      <trkpt lat="46.63986" lon="5.46402">
        <ele>204</ele>
        <time>2020-09-12T07:18:42.000Z</time>
      </trkpt>
      <trkpt lat="46.63996" lon="5.46412">
        <ele>204</ele>
        <time>2020-09-12T07:18:44.000Z</time>
      </trkpt>
      <trkpt lat="46.64001" lon="5.46417">
        <ele>204</ele>
        <time>2020-09-12T07:18:45.000Z</time>
      </trkpt>
      <trkpt lat="46.64008" lon="5.46421">
        <ele>204</ele>
        <time>2020-09-12T07:18:46.000Z</time>
      </trkpt>
      <trkpt lat="46.64021" lon="5.46427">
        <ele>204</ele>
        <time>2020-09-12T07:18:48.000Z</time>
      </trkpt>
      <trkpt lat="46.64034" lon="5.46433">
        <ele>204</ele>
        <time>2020-09-12T07:18:50.000Z</time>
      </trkpt>
      <trkpt lat="46.64047" lon="5.46439">
        <ele>204</ele>
        <time>2020-09-12T07:18:52.000Z</time>
      </trkpt>
      <trkpt lat="46.64061" lon="5.46446">
        <ele>204</ele>
        <time>2020-09-12T07:18:54.000Z</time>
      </trkpt>
      <trkpt lat="46.64076" lon="5.46452">
        <ele>203.60000610352</ele>
        <time>2020-09-12T07:18:56.000Z</time>
      </trkpt>
      <trkpt lat="46.6409" lon="5.46458">
        <ele>203.19999694824</ele>
        <time>2020-09-12T07:18:58.000Z</time>
      </trkpt>
      <trkpt lat="46.64105" lon="5.46463">
        <ele>203</ele>
        <time>2020-09-12T07:19:00.000Z</time>
      </trkpt>
      <trkpt lat="46.64119" lon="5.46469">
        <ele>202.80000305176</ele>
        <time>2020-09-12T07:19:02.000Z</time>
      </trkpt>
      <trkpt lat="46.64126" lon="5.46472">
        <ele>202.80000305176</ele>
        <time>2020-09-12T07:19:03.000Z</time>
      </trkpt>
      <trkpt lat="46.64133" lon="5.46476">
        <ele>202.60000610352</ele>
        <time>2020-09-12T07:19:04.000Z</time>
      </trkpt>
      <trkpt lat="46.64145" lon="5.46488">
        <ele>202.39999389648</ele>
        <time>2020-09-12T07:19:06.000Z</time>
      </trkpt>
      <trkpt lat="46.64155" lon="5.46504">
        <ele>202.19999694824</ele>
        <time>2020-09-12T07:19:08.000Z</time>
      </trkpt>
      <trkpt lat="46.64159" lon="5.46513">
        <ele>202.19999694824</ele>
        <time>2020-09-12T07:19:09.000Z</time>
      </trkpt>
      <trkpt lat="46.64163" lon="5.46522">
        <ele>202.19999694824</ele>
        <time>2020-09-12T07:19:10.000Z</time>
      </trkpt>
      <trkpt lat="46.64172" lon="5.4654">
        <ele>202.19999694824</ele>
        <time>2020-09-12T07:19:12.000Z</time>
      </trkpt>
      <trkpt lat="46.6418" lon="5.46557">
        <ele>202.19999694824</ele>
        <time>2020-09-12T07:19:14.000Z</time>
      </trkpt>
      <trkpt lat="46.64189" lon="5.46573">
        <ele>202.19999694824</ele>
        <time>2020-09-12T07:19:16.000Z</time>
      </trkpt>
      <trkpt lat="46.64194" lon="5.4658">
        <ele>202.19999694824</ele>
        <time>2020-09-12T07:19:17.000Z</time>
      </trkpt>
      <trkpt lat="46.642" lon="5.46586">
        <ele>202.19999694824</ele>
        <time>2020-09-12T07:19:18.000Z</time>
      </trkpt>
      <trkpt lat="46.64213" lon="5.46593">
        <ele>202.19999694824</ele>
        <time>2020-09-12T07:19:20.000Z</time>
      </trkpt>
      <trkpt lat="46.64227" lon="5.46596">
        <ele>202.19999694824</ele>
        <time>2020-09-12T07:19:22.000Z</time>
      </trkpt>
      <trkpt lat="46.64241" lon="5.46598">
        <ele>202.19999694824</ele>
        <time>2020-09-12T07:19:24.000Z</time>
      </trkpt>
      <trkpt lat="46.64255" lon="5.466">
        <ele>202.39999389648</ele>
        <time>2020-09-12T07:19:26.000Z</time>
      </trkpt>
      <trkpt lat="46.64268" lon="5.46603">
        <ele>202.39999389648</ele>
        <time>2020-09-12T07:19:28.000Z</time>
      </trkpt>
      <trkpt lat="46.64281" lon="5.46605">
        <ele>202.39999389648</ele>
        <time>2020-09-12T07:19:30.000Z</time>
      </trkpt>
      <trkpt lat="46.64293" lon="5.46608">
        <ele>202.39999389648</ele>
        <time>2020-09-12T07:19:32.000Z</time>
      </trkpt>
      <trkpt lat="46.64299" lon="5.4661">
        <ele>202.39999389648</ele>
        <time>2020-09-12T07:19:33.000Z</time>
      </trkpt>
      <trkpt lat="46.64305" lon="5.46612">
        <ele>202.39999389648</ele>
        <time>2020-09-12T07:19:34.000Z</time>
      </trkpt>
      <trkpt lat="46.64316" lon="5.46615">
        <ele>202.60000610352</ele>
        <time>2020-09-12T07:19:36.000Z</time>
      </trkpt>
      <trkpt lat="46.64328" lon="5.46619">
        <ele>203.39999389648</ele>
        <time>2020-09-12T07:19:38.000Z</time>
      </trkpt>
      <trkpt lat="46.64334" lon="5.46621">
        <ele>203.60000610352</ele>
        <time>2020-09-12T07:19:39.000Z</time>
      </trkpt>
      <trkpt lat="46.6434" lon="5.46622">
        <ele>204</ele>
        <time>2020-09-12T07:19:40.000Z</time>
      </trkpt>
      <trkpt lat="46.64346" lon="5.46623">
        <ele>204.19999694824</ele>
        <time>2020-09-12T07:19:41.000Z</time>
      </trkpt>
      <trkpt lat="46.64351" lon="5.46623">
        <ele>204.39999389648</ele>
        <time>2020-09-12T07:19:42.000Z</time>
      </trkpt>
      <trkpt lat="46.64363" lon="5.46622">
        <ele>204.60000610352</ele>
        <time>2020-09-12T07:19:44.000Z</time>
      </trkpt>
      <trkpt lat="46.64369" lon="5.46621">
        <ele>204.80000305176</ele>
        <time>2020-09-12T07:19:45.000Z</time>
      </trkpt>
      <trkpt lat="46.64375" lon="5.4662">
        <ele>205</ele>
        <time>2020-09-12T07:19:46.000Z</time>
      </trkpt>
      <trkpt lat="46.64388" lon="5.46618">
        <ele>205</ele>
        <time>2020-09-12T07:19:48.000Z</time>
      </trkpt>
      <trkpt lat="46.64395" lon="5.46617">
        <ele>205.19999694824</ele>
        <time>2020-09-12T07:19:49.000Z</time>
      </trkpt>
      <trkpt lat="46.64401" lon="5.46616">
        <ele>205.19999694824</ele>
        <time>2020-09-12T07:19:50.000Z</time>
      </trkpt>
      <trkpt lat="46.64414" lon="5.46615">
        <ele>205.19999694824</ele>
        <time>2020-09-12T07:19:52.000Z</time>
      </trkpt>
      <trkpt lat="46.64419" lon="5.46615">
        <ele>205.19999694824</ele>
        <time>2020-09-12T07:19:53.000Z</time>
      </trkpt>
      <trkpt lat="46.64424" lon="5.46616">
        <ele>205.19999694824</ele>
        <time>2020-09-12T07:19:54.000Z</time>
      </trkpt>
      <trkpt lat="46.6443" lon="5.4662">
        <ele>205.39999389648</ele>
        <time>2020-09-12T07:19:56.000Z</time>
      </trkpt>
      <trkpt lat="46.64432" lon="5.46623">
        <ele>205.19999694824</ele>
        <time>2020-09-12T07:19:57.000Z</time>
      </trkpt>
      <trkpt lat="46.64436" lon="5.46626">
        <ele>205.19999694824</ele>
        <time>2020-09-12T07:19:58.000Z</time>
      </trkpt>
      <trkpt lat="46.64445" lon="5.46628">
        <ele>205</ele>
        <time>2020-09-12T07:20:00.000Z</time>
      </trkpt>
      <trkpt lat="46.64451" lon="5.46629">
        <ele>205</ele>
        <time>2020-09-12T07:20:01.000Z</time>
      </trkpt>
      <trkpt lat="46.64458" lon="5.4663">
        <ele>205</ele>
        <time>2020-09-12T07:20:02.000Z</time>
      </trkpt>
      <trkpt lat="46.64473" lon="5.46634">
        <ele>204.80000305176</ele>
        <time>2020-09-12T07:20:04.000Z</time>
      </trkpt>
      <trkpt lat="46.64489" lon="5.46637">
        <ele>204.60000610352</ele>
        <time>2020-09-12T07:20:06.000Z</time>
      </trkpt>
      <trkpt lat="46.64505" lon="5.4664">
        <ele>204.39999389648</ele>
        <time>2020-09-12T07:20:08.000Z</time>
      </trkpt>
      <trkpt lat="46.64514" lon="5.46642">
        <ele>204</ele>
        <time>2020-09-12T07:20:09.000Z</time>
      </trkpt>
      <trkpt lat="46.64521" lon="5.46646">
        <ele>203.60000610352</ele>
        <time>2020-09-12T07:20:10.000Z</time>
      </trkpt>
      <trkpt lat="46.64529" lon="5.46649">
        <ele>203.19999694824</ele>
        <time>2020-09-12T07:20:11.000Z</time>
      </trkpt>
      <trkpt lat="46.64536" lon="5.46653">
        <ele>202.60000610352</ele>
        <time>2020-09-12T07:20:12.000Z</time>
      </trkpt>
      <trkpt lat="46.64551" lon="5.46663">
        <ele>201.39999389648</ele>
        <time>2020-09-12T07:20:14.000Z</time>
      </trkpt>
      <trkpt lat="46.64566" lon="5.46673">
        <ele>200.60000610352</ele>
        <time>2020-09-12T07:20:16.000Z</time>
      </trkpt>
      <trkpt lat="46.64581" lon="5.46682">
        <ele>200.39999389648</ele>
        <time>2020-09-12T07:20:18.000Z</time>
      </trkpt>
      <trkpt lat="46.64588" lon="5.46687">
        <ele>200.39999389648</ele>
        <time>2020-09-12T07:20:19.000Z</time>
      </trkpt>
      <trkpt lat="46.64595" lon="5.46691">
        <ele>200.19999694824</ele>
        <time>2020-09-12T07:20:20.000Z</time>
      </trkpt>
      <trkpt lat="46.64611" lon="5.46694">
        <ele>200.19999694824</ele>
        <time>2020-09-12T07:20:22.000Z</time>
      </trkpt>
      <trkpt lat="46.64625" lon="5.46687">
        <ele>200</ele>
        <time>2020-09-12T07:20:24.000Z</time>
      </trkpt>
      <trkpt lat="46.64631" lon="5.4668">
        <ele>200</ele>
        <time>2020-09-12T07:20:25.000Z</time>
      </trkpt>
      <trkpt lat="46.64637" lon="5.46673">
        <ele>200</ele>
        <time>2020-09-12T07:20:26.000Z</time>
      </trkpt>
      <trkpt lat="46.64643" lon="5.46666">
        <ele>200</ele>
        <time>2020-09-12T07:20:27.000Z</time>
      </trkpt>
      <trkpt lat="46.64648" lon="5.46658">
        <ele>200</ele>
        <time>2020-09-12T07:20:28.000Z</time>
      </trkpt>
      <trkpt lat="46.64659" lon="5.46642">
        <ele>200</ele>
        <time>2020-09-12T07:20:30.000Z</time>
      </trkpt>
      <trkpt lat="46.64664" lon="5.46634">
        <ele>200</ele>
        <time>2020-09-12T07:20:31.000Z</time>
      </trkpt>
      <trkpt lat="46.6467" lon="5.46626">
        <ele>200</ele>
        <time>2020-09-12T07:20:32.000Z</time>
      </trkpt>
      <trkpt lat="46.64681" lon="5.46611">
        <ele>200.19999694824</ele>
        <time>2020-09-12T07:20:34.000Z</time>
      </trkpt>
      <trkpt lat="46.64692" lon="5.46595">
        <ele>200.19999694824</ele>
        <time>2020-09-12T07:20:36.000Z</time>
      </trkpt>
      <trkpt lat="46.64703" lon="5.4658">
        <ele>200.19999694824</ele>
        <time>2020-09-12T07:20:38.000Z</time>
      </trkpt>
      <trkpt lat="46.64714" lon="5.46564">
        <ele>200.19999694824</ele>
        <time>2020-09-12T07:20:40.000Z</time>
      </trkpt>
      <trkpt lat="46.64725" lon="5.46548">
        <ele>200.19999694824</ele>
        <time>2020-09-12T07:20:42.000Z</time>
      </trkpt>
      <trkpt lat="46.64731" lon="5.46541">
        <ele>200.19999694824</ele>
        <time>2020-09-12T07:20:43.000Z</time>
      </trkpt>
      <trkpt lat="46.64736" lon="5.46533">
        <ele>200.19999694824</ele>
        <time>2020-09-12T07:20:44.000Z</time>
      </trkpt>
      <trkpt lat="46.64747" lon="5.46518">
        <ele>200.19999694824</ele>
        <time>2020-09-12T07:20:46.000Z</time>
      </trkpt>
      <trkpt lat="46.64758" lon="5.46502">
        <ele>200.19999694824</ele>
        <time>2020-09-12T07:20:48.000Z</time>
      </trkpt>
      <trkpt lat="46.64769" lon="5.46487">
        <ele>200.19999694824</ele>
        <time>2020-09-12T07:20:50.000Z</time>
      </trkpt>
      <trkpt lat="46.64781" lon="5.46472">
        <ele>200.19999694824</ele>
        <time>2020-09-12T07:20:52.000Z</time>
      </trkpt>
      <trkpt lat="46.64792" lon="5.46458">
        <ele>200</ele>
        <time>2020-09-12T07:20:54.000Z</time>
      </trkpt>
      <trkpt lat="46.64803" lon="5.46444">
        <ele>200</ele>
        <time>2020-09-12T07:20:56.000Z</time>
      </trkpt>
      <trkpt lat="46.64816" lon="5.46433">
        <ele>200</ele>
        <time>2020-09-12T07:20:58.000Z</time>
      </trkpt>
      <trkpt lat="46.64822" lon="5.46427">
        <ele>200</ele>
        <time>2020-09-12T07:20:59.000Z</time>
      </trkpt>
      <trkpt lat="46.64829" lon="5.46422">
        <ele>200</ele>
        <time>2020-09-12T07:21:00.000Z</time>
      </trkpt>
      <trkpt lat="46.64842" lon="5.46412">
        <ele>200</ele>
        <time>2020-09-12T07:21:02.000Z</time>
      </trkpt>
      <trkpt lat="46.64856" lon="5.46403">
        <ele>199.80000305176</ele>
        <time>2020-09-12T07:21:04.000Z</time>
      </trkpt>
      <trkpt lat="46.64869" lon="5.46393">
        <ele>200</ele>
        <time>2020-09-12T07:21:06.000Z</time>
      </trkpt>
      <trkpt lat="46.64882" lon="5.46384">
        <ele>199.80000305176</ele>
        <time>2020-09-12T07:21:08.000Z</time>
      </trkpt>
      <trkpt lat="46.64889" lon="5.46379">
        <ele>199.80000305176</ele>
        <time>2020-09-12T07:21:09.000Z</time>
      </trkpt>
      <trkpt lat="46.64896" lon="5.46375">
        <ele>199.80000305176</ele>
        <time>2020-09-12T07:21:10.000Z</time>
      </trkpt>
      <trkpt lat="46.64909" lon="5.46365">
        <ele>199.80000305176</ele>
        <time>2020-09-12T07:21:12.000Z</time>
      </trkpt>
      <trkpt lat="46.64922" lon="5.46356">
        <ele>199.80000305176</ele>
        <time>2020-09-12T07:21:14.000Z</time>
      </trkpt>
      <trkpt lat="46.64935" lon="5.46347">
        <ele>199.80000305176</ele>
        <time>2020-09-12T07:21:16.000Z</time>
      </trkpt>
      <trkpt lat="46.64948" lon="5.46339">
        <ele>199.80000305176</ele>
        <time>2020-09-12T07:21:18.000Z</time>
      </trkpt>
      <trkpt lat="46.6496" lon="5.4633">
        <ele>199.80000305176</ele>
        <time>2020-09-12T07:21:20.000Z</time>
      </trkpt>
      <trkpt lat="46.64973" lon="5.46321">
        <ele>200</ele>
        <time>2020-09-12T07:21:22.000Z</time>
      </trkpt>
      <trkpt lat="46.64985" lon="5.46312">
        <ele>200</ele>
        <time>2020-09-12T07:21:24.000Z</time>
      </trkpt>
      <trkpt lat="46.64998" lon="5.46304">
        <ele>200.19999694824</ele>
        <time>2020-09-12T07:21:26.000Z</time>
      </trkpt>
      <trkpt lat="46.6501" lon="5.46295">
        <ele>200.39999389648</ele>
        <time>2020-09-12T07:21:28.000Z</time>
      </trkpt>
      <trkpt lat="46.65016" lon="5.4629">
        <ele>200.39999389648</ele>
        <time>2020-09-12T07:21:29.000Z</time>
      </trkpt>
      <trkpt lat="46.65022" lon="5.46286">
        <ele>200.39999389648</ele>
        <time>2020-09-12T07:21:30.000Z</time>
      </trkpt>
      <trkpt lat="46.65034" lon="5.46275">
        <ele>200.60000610352</ele>
        <time>2020-09-12T07:21:32.000Z</time>
      </trkpt>
      <trkpt lat="46.65044" lon="5.46262">
        <ele>200.60000610352</ele>
        <time>2020-09-12T07:21:34.000Z</time>
      </trkpt>
      <trkpt lat="46.65054" lon="5.46247">
        <ele>200.60000610352</ele>
        <time>2020-09-12T07:21:36.000Z</time>
      </trkpt>
      <trkpt lat="46.65064" lon="5.46233">
        <ele>200.80000305176</ele>
        <time>2020-09-12T07:21:38.000Z</time>
      </trkpt>
      <trkpt lat="46.65074" lon="5.46217">
        <ele>200.80000305176</ele>
        <time>2020-09-12T07:21:40.000Z</time>
      </trkpt>
      <trkpt lat="46.65084" lon="5.46202">
        <ele>200.80000305176</ele>
        <time>2020-09-12T07:21:42.000Z</time>
      </trkpt>
      <trkpt lat="46.65089" lon="5.46194">
        <ele>201</ele>
        <time>2020-09-12T07:21:43.000Z</time>
      </trkpt>
      <trkpt lat="46.65094" lon="5.46186">
        <ele>201</ele>
        <time>2020-09-12T07:21:44.000Z</time>
      </trkpt>
      <trkpt lat="46.65103" lon="5.46171">
        <ele>201</ele>
        <time>2020-09-12T07:21:46.000Z</time>
      </trkpt>
      <trkpt lat="46.65113" lon="5.46156">
        <ele>201</ele>
        <time>2020-09-12T07:21:48.000Z</time>
      </trkpt>
      <trkpt lat="46.65123" lon="5.46141">
        <ele>201</ele>
        <time>2020-09-12T07:21:50.000Z</time>
      </trkpt>
      <trkpt lat="46.65128" lon="5.46134">
        <ele>201.19999694824</ele>
        <time>2020-09-12T07:21:51.000Z</time>
      </trkpt>
      <trkpt lat="46.65133" lon="5.46126">
        <ele>201.19999694824</ele>
        <time>2020-09-12T07:21:52.000Z</time>
      </trkpt>
      <trkpt lat="46.65143" lon="5.46111">
        <ele>201.19999694824</ele>
        <time>2020-09-12T07:21:54.000Z</time>
      </trkpt>
      <trkpt lat="46.65152" lon="5.46096">
        <ele>201.19999694824</ele>
        <time>2020-09-12T07:21:56.000Z</time>
      </trkpt>
      <trkpt lat="46.65163" lon="5.46081">
        <ele>201.19999694824</ele>
        <time>2020-09-12T07:21:58.000Z</time>
      </trkpt>
      <trkpt lat="46.65173" lon="5.46066">
        <ele>201.19999694824</ele>
        <time>2020-09-12T07:22:00.000Z</time>
      </trkpt>
      <trkpt lat="46.65183" lon="5.46051">
        <ele>201.19999694824</ele>
        <time>2020-09-12T07:22:02.000Z</time>
      </trkpt>
      <trkpt lat="46.65193" lon="5.46036">
        <ele>201.19999694824</ele>
        <time>2020-09-12T07:22:04.000Z</time>
      </trkpt>
      <trkpt lat="46.65203" lon="5.4602">
        <ele>201.19999694824</ele>
        <time>2020-09-12T07:22:06.000Z</time>
      </trkpt>
      <trkpt lat="46.65213" lon="5.46005">
        <ele>201.19999694824</ele>
        <time>2020-09-12T07:22:08.000Z</time>
      </trkpt>
      <trkpt lat="46.65223" lon="5.45989">
        <ele>201</ele>
        <time>2020-09-12T07:22:10.000Z</time>
      </trkpt>
      <trkpt lat="46.65228" lon="5.45982">
        <ele>201</ele>
        <time>2020-09-12T07:22:11.000Z</time>
      </trkpt>
      <trkpt lat="46.65234" lon="5.45974">
        <ele>200.80000305176</ele>
        <time>2020-09-12T07:22:12.000Z</time>
      </trkpt>
      <trkpt lat="46.65244" lon="5.45959">
        <ele>200.80000305176</ele>
        <time>2020-09-12T07:22:14.000Z</time>
      </trkpt>
      <trkpt lat="46.65254" lon="5.45943">
        <ele>200.60000610352</ele>
        <time>2020-09-12T07:22:16.000Z</time>
      </trkpt>
      <trkpt lat="46.65264" lon="5.45927">
        <ele>200.60000610352</ele>
        <time>2020-09-12T07:22:18.000Z</time>
      </trkpt>
      <trkpt lat="46.65269" lon="5.45919">
        <ele>200.60000610352</ele>
        <time>2020-09-12T07:22:19.000Z</time>
      </trkpt>
      <trkpt lat="46.65273" lon="5.45911">
        <ele>200.60000610352</ele>
        <time>2020-09-12T07:22:20.000Z</time>
      </trkpt>
      <trkpt lat="46.65282" lon="5.45893">
        <ele>200.39999389648</ele>
        <time>2020-09-12T07:22:22.000Z</time>
      </trkpt>
      <trkpt lat="46.6529" lon="5.45875">
        <ele>200.19999694824</ele>
        <time>2020-09-12T07:22:24.000Z</time>
      </trkpt>
      <trkpt lat="46.65297" lon="5.45855">
        <ele>200.19999694824</ele>
        <time>2020-09-12T07:22:26.000Z</time>
      </trkpt>
      <trkpt lat="46.653" lon="5.45846">
        <ele>200.19999694824</ele>
        <time>2020-09-12T07:22:27.000Z</time>
      </trkpt>
      <trkpt lat="46.65303" lon="5.45836">
        <ele>200.19999694824</ele>
        <time>2020-09-12T07:22:28.000Z</time>
      </trkpt>
      <trkpt lat="46.65309" lon="5.45817">
        <ele>200.19999694824</ele>
        <time>2020-09-12T07:22:30.000Z</time>
      </trkpt>
      <trkpt lat="46.65317" lon="5.45799">
        <ele>200.19999694824</ele>
        <time>2020-09-12T07:22:32.000Z</time>
      </trkpt>
      <trkpt lat="46.65321" lon="5.45791">
        <ele>200.19999694824</ele>
        <time>2020-09-12T07:22:33.000Z</time>
      </trkpt>
      <trkpt lat="46.65327" lon="5.45784">
        <ele>200.19999694824</ele>
        <time>2020-09-12T07:22:34.000Z</time>
      </trkpt>
      <trkpt lat="46.65339" lon="5.45773">
        <ele>200.19999694824</ele>
        <time>2020-09-12T07:22:36.000Z</time>
      </trkpt>
      <trkpt lat="46.65345" lon="5.45768">
        <ele>200.19999694824</ele>
        <time>2020-09-12T07:22:37.000Z</time>
      </trkpt>
      <trkpt lat="46.65351" lon="5.45763">
        <ele>200.19999694824</ele>
        <time>2020-09-12T07:22:38.000Z</time>
      </trkpt>
      <trkpt lat="46.65364" lon="5.45753">
        <ele>200.19999694824</ele>
        <time>2020-09-12T07:22:40.000Z</time>
      </trkpt>
      <trkpt lat="46.65377" lon="5.45743">
        <ele>200.39999389648</ele>
        <time>2020-09-12T07:22:42.000Z</time>
      </trkpt>
      <trkpt lat="46.65389" lon="5.45733">
        <ele>200.60000610352</ele>
        <time>2020-09-12T07:22:44.000Z</time>
      </trkpt>
      <trkpt lat="46.65402" lon="5.45724">
        <ele>200.60000610352</ele>
        <time>2020-09-12T07:22:46.000Z</time>
      </trkpt>
      <trkpt lat="46.65415" lon="5.45714">
        <ele>200.80000305176</ele>
        <time>2020-09-12T07:22:48.000Z</time>
      </trkpt>
      <trkpt lat="46.65428" lon="5.45705">
        <ele>200.80000305176</ele>
        <time>2020-09-12T07:22:50.000Z</time>
      </trkpt>
      <trkpt lat="46.65441" lon="5.45696">
        <ele>200.80000305176</ele>
        <time>2020-09-12T07:22:52.000Z</time>
      </trkpt>
      <trkpt lat="46.65453" lon="5.45687">
        <ele>200.80000305176</ele>
        <time>2020-09-12T07:22:54.000Z</time>
      </trkpt>
      <trkpt lat="46.65465" lon="5.45677">
        <ele>200.80000305176</ele>
        <time>2020-09-12T07:22:56.000Z</time>
      </trkpt>
      <trkpt lat="46.65477" lon="5.45668">
        <ele>201</ele>
        <time>2020-09-12T07:22:58.000Z</time>
      </trkpt>
      <trkpt lat="46.65482" lon="5.45662">
        <ele>201.19999694824</ele>
        <time>2020-09-12T07:22:59.000Z</time>
      </trkpt>
      <trkpt lat="46.65488" lon="5.45656">
        <ele>201.19999694824</ele>
        <time>2020-09-12T07:23:00.000Z</time>
      </trkpt>
      <trkpt lat="46.65499" lon="5.45642">
        <ele>201.19999694824</ele>
        <time>2020-09-12T07:23:02.000Z</time>
      </trkpt>
      <trkpt lat="46.6551" lon="5.45627">
        <ele>201.19999694824</ele>
        <time>2020-09-12T07:23:04.000Z</time>
      </trkpt>
      <trkpt lat="46.65521" lon="5.45611">
        <ele>201</ele>
        <time>2020-09-12T07:23:06.000Z</time>
      </trkpt>
      <trkpt lat="46.6553" lon="5.45594">
        <ele>200.80000305176</ele>
        <time>2020-09-12T07:23:08.000Z</time>
      </trkpt>
      <trkpt lat="46.6554" lon="5.45578">
        <ele>200.80000305176</ele>
        <time>2020-09-12T07:23:10.000Z</time>
      </trkpt>
      <trkpt lat="46.65549" lon="5.45561">
        <ele>200.80000305176</ele>
        <time>2020-09-12T07:23:12.000Z</time>
      </trkpt>
      <trkpt lat="46.65559" lon="5.45545">
        <ele>200.60000610352</ele>
        <time>2020-09-12T07:23:14.000Z</time>
      </trkpt>
      <trkpt lat="46.65568" lon="5.45528">
        <ele>200.60000610352</ele>
        <time>2020-09-12T07:23:16.000Z</time>
      </trkpt>
      <trkpt lat="46.65576" lon="5.45511">
        <ele>200.60000610352</ele>
        <time>2020-09-12T07:23:18.000Z</time>
      </trkpt>
      <trkpt lat="46.65584" lon="5.45493">
        <ele>200.60000610352</ele>
        <time>2020-09-12T07:23:20.000Z</time>
      </trkpt>
      <trkpt lat="46.65591" lon="5.45475">
        <ele>200.60000610352</ele>
        <time>2020-09-12T07:23:22.000Z</time>
      </trkpt>
      <trkpt lat="46.65599" lon="5.45457">
        <ele>200.60000610352</ele>
        <time>2020-09-12T07:23:24.000Z</time>
      </trkpt>
      <trkpt lat="46.65606" lon="5.45439">
        <ele>200.60000610352</ele>
        <time>2020-09-12T07:23:26.000Z</time>
      </trkpt>
      <trkpt lat="46.65614" lon="5.4542">
        <ele>200.80000305176</ele>
        <time>2020-09-12T07:23:28.000Z</time>
      </trkpt>
      <trkpt lat="46.65621" lon="5.45402">
        <ele>200.80000305176</ele>
        <time>2020-09-12T07:23:30.000Z</time>
      </trkpt>
      <trkpt lat="46.65628" lon="5.45383">
        <ele>200.80000305176</ele>
        <time>2020-09-12T07:23:32.000Z</time>
      </trkpt>
      <trkpt lat="46.65634" lon="5.45365">
        <ele>200.80000305176</ele>
        <time>2020-09-12T07:23:34.000Z</time>
      </trkpt>
      <trkpt lat="46.6564" lon="5.45347">
        <ele>200.80000305176</ele>
        <time>2020-09-12T07:23:36.000Z</time>
      </trkpt>
      <trkpt lat="46.65646" lon="5.4533">
        <ele>200.80000305176</ele>
        <time>2020-09-12T07:23:38.000Z</time>
      </trkpt>
      <trkpt lat="46.65649" lon="5.45321">
        <ele>200.80000305176</ele>
        <time>2020-09-12T07:23:39.000Z</time>
      </trkpt>
      <trkpt lat="46.65652" lon="5.45313">
        <ele>200.80000305176</ele>
        <time>2020-09-12T07:23:40.000Z</time>
      </trkpt>
      <trkpt lat="46.65658" lon="5.45295">
        <ele>200.80000305176</ele>
        <time>2020-09-12T07:23:42.000Z</time>
      </trkpt>
      <trkpt lat="46.65664" lon="5.45276">
        <ele>201.19999694824</ele>
        <time>2020-09-12T07:23:44.000Z</time>
      </trkpt>
      <trkpt lat="46.65671" lon="5.45257">
        <ele>201.19999694824</ele>
        <time>2020-09-12T07:23:46.000Z</time>
      </trkpt>
      <trkpt lat="46.65674" lon="5.45248">
        <ele>201.19999694824</ele>
        <time>2020-09-12T07:23:47.000Z</time>
      </trkpt>
      <trkpt lat="46.65677" lon="5.45239">
        <ele>201.19999694824</ele>
        <time>2020-09-12T07:23:48.000Z</time>
      </trkpt>
      <trkpt lat="46.65683" lon="5.4522">
        <ele>201.19999694824</ele>
        <time>2020-09-12T07:23:50.000Z</time>
      </trkpt>
      <trkpt lat="46.65688" lon="5.45203">
        <ele>201.19999694824</ele>
        <time>2020-09-12T07:23:52.000Z</time>
      </trkpt>
      <trkpt lat="46.65693" lon="5.45187">
        <ele>201.39999389648</ele>
        <time>2020-09-12T07:23:54.000Z</time>
      </trkpt>
      <trkpt lat="46.65698" lon="5.45171">
        <ele>201.80000305176</ele>
        <time>2020-09-12T07:23:56.000Z</time>
      </trkpt>
      <trkpt lat="46.65703" lon="5.45157">
        <ele>201.80000305176</ele>
        <time>2020-09-12T07:23:58.000Z</time>
      </trkpt>
      <trkpt lat="46.65707" lon="5.45152">
        <ele>201.80000305176</ele>
        <time>2020-09-12T07:23:59.000Z</time>
      </trkpt>
      <trkpt lat="46.65712" lon="5.45148">
        <ele>202.19999694824</ele>
        <time>2020-09-12T07:24:00.000Z</time>
      </trkpt>
      <trkpt lat="46.65717" lon="5.45147">
        <ele>202.39999389648</ele>
        <time>2020-09-12T07:24:01.000Z</time>
      </trkpt>
      <trkpt lat="46.65722" lon="5.45148">
        <ele>202.80000305176</ele>
        <time>2020-09-12T07:24:02.000Z</time>
      </trkpt>
      <trkpt lat="46.6573" lon="5.45152">
        <ele>203</ele>
        <time>2020-09-12T07:24:04.000Z</time>
      </trkpt>
      <trkpt lat="46.65738" lon="5.45158">
        <ele>203.60000610352</ele>
        <time>2020-09-12T07:24:06.000Z</time>
      </trkpt>
      <trkpt lat="46.65744" lon="5.45164">
        <ele>204.39999389648</ele>
        <time>2020-09-12T07:24:08.000Z</time>
      </trkpt>
      <trkpt lat="46.65747" lon="5.45166">
        <ele>204.80000305176</ele>
        <time>2020-09-12T07:24:09.000Z</time>
      </trkpt>
      <trkpt lat="46.6575" lon="5.45169">
        <ele>205</ele>
        <time>2020-09-12T07:24:10.000Z</time>
      </trkpt>
      <trkpt lat="46.65753" lon="5.45171">
        <ele>205.39999389648</ele>
        <time>2020-09-12T07:24:11.000Z</time>
      </trkpt>
      <trkpt lat="46.65756" lon="5.45172">
        <ele>205.80000305176</ele>
        <time>2020-09-12T07:24:12.000Z</time>
      </trkpt>
      <trkpt lat="46.65762" lon="5.45172">
        <ele>206.39999389648</ele>
        <time>2020-09-12T07:24:14.000Z</time>
      </trkpt>
      <trkpt lat="46.65765" lon="5.45171">
        <ele>207</ele>
        <time>2020-09-12T07:24:15.000Z</time>
      </trkpt>
      <trkpt lat="46.65768" lon="5.4517">
        <ele>207.80000305176</ele>
        <time>2020-09-12T07:24:16.000Z</time>
      </trkpt>
      <trkpt lat="46.65772" lon="5.45168">
        <ele>208.19999694824</ele>
        <time>2020-09-12T07:24:17.000Z</time>
      </trkpt>
      <trkpt lat="46.65775" lon="5.45165">
        <ele>208.60000610352</ele>
        <time>2020-09-12T07:24:18.000Z</time>
      </trkpt>
      <trkpt lat="46.6578" lon="5.45158">
        <ele>209.39999389648</ele>
        <time>2020-09-12T07:24:20.000Z</time>
      </trkpt>
      <trkpt lat="46.65781" lon="5.45153">
        <ele>209.80000305176</ele>
        <time>2020-09-12T07:24:21.000Z</time>
      </trkpt>
      <trkpt lat="46.65783" lon="5.45148">
        <ele>210</ele>
        <time>2020-09-12T07:24:22.000Z</time>
      </trkpt>
      <trkpt lat="46.65787" lon="5.45139">
        <ele>210.80000305176</ele>
        <time>2020-09-12T07:24:24.000Z</time>
      </trkpt>
      <trkpt lat="46.65791" lon="5.45129">
        <ele>211.39999389648</ele>
        <time>2020-09-12T07:24:26.000Z</time>
      </trkpt>
      <trkpt lat="46.65795" lon="5.45119">
        <ele>212.19999694824</ele>
        <time>2020-09-12T07:24:28.000Z</time>
      </trkpt>
      <trkpt lat="46.65797" lon="5.45114">
        <ele>212.39999389648</ele>
        <time>2020-09-12T07:24:29.000Z</time>
      </trkpt>
      <trkpt lat="46.65799" lon="5.45108">
        <ele>212.60000610352</ele>
        <time>2020-09-12T07:24:30.000Z</time>
      </trkpt>
      <trkpt lat="46.65803" lon="5.45098">
        <ele>213</ele>
        <time>2020-09-12T07:24:32.000Z</time>
      </trkpt>
      <trkpt lat="46.65805" lon="5.45093">
        <ele>213.19999694824</ele>
        <time>2020-09-12T07:24:33.000Z</time>
      </trkpt>
      <trkpt lat="46.65808" lon="5.45088">
        <ele>213.19999694824</ele>
        <time>2020-09-12T07:24:34.000Z</time>
      </trkpt>
      <trkpt lat="46.65815" lon="5.45082">
        <ele>213.80000305176</ele>
        <time>2020-09-12T07:24:36.000Z</time>
      </trkpt>
      <trkpt lat="46.65824" lon="5.45081">
        <ele>214.19999694824</ele>
        <time>2020-09-12T07:24:38.000Z</time>
      </trkpt>
      <trkpt lat="46.65832" lon="5.45084">
        <ele>214.39999389648</ele>
        <time>2020-09-12T07:24:40.000Z</time>
      </trkpt>
      <trkpt lat="46.65839" lon="5.45091">
        <ele>214.60000610352</ele>
        <time>2020-09-12T07:24:42.000Z</time>
      </trkpt>
      <trkpt lat="46.65846" lon="5.45098">
        <ele>214.80000305176</ele>
        <time>2020-09-12T07:24:44.000Z</time>
      </trkpt>
      <trkpt lat="46.65849" lon="5.45101">
        <ele>215</ele>
        <time>2020-09-12T07:24:45.000Z</time>
      </trkpt>
      <trkpt lat="46.65853" lon="5.45105">
        <ele>215.39999389648</ele>
        <time>2020-09-12T07:24:46.000Z</time>
      </trkpt>
      <trkpt lat="46.65856" lon="5.45109">
        <ele>215.80000305176</ele>
        <time>2020-09-12T07:24:47.000Z</time>
      </trkpt>
      <trkpt lat="46.6586" lon="5.45113">
        <ele>216</ele>
        <time>2020-09-12T07:24:48.000Z</time>
      </trkpt>
      <trkpt lat="46.65867" lon="5.4512">
        <ele>216.39999389648</ele>
        <time>2020-09-12T07:24:50.000Z</time>
      </trkpt>
      <trkpt lat="46.65875" lon="5.45128">
        <ele>216.80000305176</ele>
        <time>2020-09-12T07:24:52.000Z</time>
      </trkpt>
      <trkpt lat="46.65882" lon="5.45138">
        <ele>217.19999694824</ele>
        <time>2020-09-12T07:24:54.000Z</time>
      </trkpt>
      <trkpt lat="46.65886" lon="5.45143">
        <ele>217.39999389648</ele>
        <time>2020-09-12T07:24:55.000Z</time>
      </trkpt>
      <trkpt lat="46.65889" lon="5.45148">
        <ele>217.60000610352</ele>
        <time>2020-09-12T07:24:56.000Z</time>
      </trkpt>
      <trkpt lat="46.65897" lon="5.45159">
        <ele>218</ele>
        <time>2020-09-12T07:24:58.000Z</time>
      </trkpt>
      <trkpt lat="46.65905" lon="5.45169">
        <ele>218.19999694824</ele>
        <time>2020-09-12T07:25:00.000Z</time>
      </trkpt>
      <trkpt lat="46.65913" lon="5.4518">
        <ele>218.19999694824</ele>
        <time>2020-09-12T07:25:02.000Z</time>
      </trkpt>
      <trkpt lat="46.65922" lon="5.45191">
        <ele>218.39999389648</ele>
        <time>2020-09-12T07:25:04.000Z</time>
      </trkpt>
      <trkpt lat="46.65932" lon="5.452">
        <ele>218.39999389648</ele>
        <time>2020-09-12T07:25:06.000Z</time>
      </trkpt>
      <trkpt lat="46.65943" lon="5.4521">
        <ele>218.39999389648</ele>
        <time>2020-09-12T07:25:08.000Z</time>
      </trkpt>
      <trkpt lat="46.65948" lon="5.45215">
        <ele>218.39999389648</ele>
        <time>2020-09-12T07:25:09.000Z</time>
      </trkpt>
      <trkpt lat="46.65953" lon="5.4522">
        <ele>218.39999389648</ele>
        <time>2020-09-12T07:25:10.000Z</time>
      </trkpt>
      <trkpt lat="46.65964" lon="5.4523">
        <ele>218.39999389648</ele>
        <time>2020-09-12T07:25:12.000Z</time>
      </trkpt>
      <trkpt lat="46.65973" lon="5.45242">
        <ele>218.19999694824</ele>
        <time>2020-09-12T07:25:14.000Z</time>
      </trkpt>
      <trkpt lat="46.65982" lon="5.45257">
        <ele>218.19999694824</ele>
        <time>2020-09-12T07:25:16.000Z</time>
      </trkpt>
      <trkpt lat="46.6599" lon="5.45273">
        <ele>218.19999694824</ele>
        <time>2020-09-12T07:25:18.000Z</time>
      </trkpt>
      <trkpt lat="46.65993" lon="5.45282">
        <ele>218.19999694824</ele>
        <time>2020-09-12T07:25:19.000Z</time>
      </trkpt>
      <trkpt lat="46.65996" lon="5.45291">
        <ele>218</ele>
        <time>2020-09-12T07:25:20.000Z</time>
      </trkpt>
      <trkpt lat="46.66003" lon="5.45309">
        <ele>218</ele>
        <time>2020-09-12T07:25:22.000Z</time>
      </trkpt>
      <trkpt lat="46.6601" lon="5.45325">
        <ele>217.60000610352</ele>
        <time>2020-09-12T07:25:24.000Z</time>
      </trkpt>
      <trkpt lat="46.66019" lon="5.4534">
        <ele>217.60000610352</ele>
        <time>2020-09-12T07:25:26.000Z</time>
      </trkpt>
      <trkpt lat="46.66028" lon="5.45354">
        <ele>217.39999389648</ele>
        <time>2020-09-12T07:25:28.000Z</time>
      </trkpt>
      <trkpt lat="46.66037" lon="5.45369">
        <ele>217.39999389648</ele>
        <time>2020-09-12T07:25:30.000Z</time>
      </trkpt>
      <trkpt lat="46.66046" lon="5.45384">
        <ele>217.39999389648</ele>
        <time>2020-09-12T07:25:32.000Z</time>
      </trkpt>
      <trkpt lat="46.66055" lon="5.45399">
        <ele>217.19999694824</ele>
        <time>2020-09-12T07:25:34.000Z</time>
      </trkpt>
      <trkpt lat="46.66065" lon="5.45414">
        <ele>217.19999694824</ele>
        <time>2020-09-12T07:25:36.000Z</time>
      </trkpt>
      <trkpt lat="46.66075" lon="5.45429">
        <ele>217.19999694824</ele>
        <time>2020-09-12T07:25:38.000Z</time>
      </trkpt>
      <trkpt lat="46.6608" lon="5.45436">
        <ele>217.19999694824</ele>
        <time>2020-09-12T07:25:39.000Z</time>
      </trkpt>
      <trkpt lat="46.66086" lon="5.45443">
        <ele>217.19999694824</ele>
        <time>2020-09-12T07:25:40.000Z</time>
      </trkpt>
      <trkpt lat="46.66098" lon="5.45457">
        <ele>217.19999694824</ele>
        <time>2020-09-12T07:25:42.000Z</time>
      </trkpt>
      <trkpt lat="46.6611" lon="5.45469">
        <ele>216.80000305176</ele>
        <time>2020-09-12T07:25:44.000Z</time>
      </trkpt>
      <trkpt lat="46.66117" lon="5.45475">
        <ele>216.60000610352</ele>
        <time>2020-09-12T07:25:45.000Z</time>
      </trkpt>
      <trkpt lat="46.66125" lon="5.45479">
        <ele>216.39999389648</ele>
        <time>2020-09-12T07:25:46.000Z</time>
      </trkpt>
      <trkpt lat="46.6614" lon="5.45486">
        <ele>216</ele>
        <time>2020-09-12T07:25:48.000Z</time>
      </trkpt>
      <trkpt lat="46.66155" lon="5.45493">
        <ele>215.39999389648</ele>
        <time>2020-09-12T07:25:50.000Z</time>
      </trkpt>
      <trkpt lat="46.66162" lon="5.45496">
        <ele>215.19999694824</ele>
        <time>2020-09-12T07:25:51.000Z</time>
      </trkpt>
      <trkpt lat="46.6617" lon="5.45499">
        <ele>215</ele>
        <time>2020-09-12T07:25:52.000Z</time>
      </trkpt>
      <trkpt lat="46.66178" lon="5.45502">
        <ele>214.80000305176</ele>
        <time>2020-09-12T07:25:53.000Z</time>
      </trkpt>
      <trkpt lat="46.66194" lon="5.45509">
        <ele>214.60000610352</ele>
        <time>2020-09-12T07:25:55.000Z</time>
      </trkpt>
      <trkpt lat="46.66209" lon="5.45515">
        <ele>214.39999389648</ele>
        <time>2020-09-12T07:25:57.000Z</time>
      </trkpt>
      <trkpt lat="46.66225" lon="5.45521">
        <ele>214</ele>
        <time>2020-09-12T07:25:59.000Z</time>
      </trkpt>
      <trkpt lat="46.6624" lon="5.45529">
        <ele>213.80000305176</ele>
        <time>2020-09-12T07:26:01.000Z</time>
      </trkpt>
      <trkpt lat="46.66254" lon="5.45539">
        <ele>213</ele>
        <time>2020-09-12T07:26:03.000Z</time>
      </trkpt>
      <trkpt lat="46.66268" lon="5.4555">
        <ele>212.60000610352</ele>
        <time>2020-09-12T07:26:05.000Z</time>
      </trkpt>
      <trkpt lat="46.66281" lon="5.45561">
        <ele>212.39999389648</ele>
        <time>2020-09-12T07:26:07.000Z</time>
      </trkpt>
      <trkpt lat="46.66294" lon="5.45574">
        <ele>212.19999694824</ele>
        <time>2020-09-12T07:26:09.000Z</time>
      </trkpt>
      <trkpt lat="46.66307" lon="5.45587">
        <ele>212.19999694824</ele>
        <time>2020-09-12T07:26:11.000Z</time>
      </trkpt>
      <trkpt lat="46.66319" lon="5.456">
        <ele>212.19999694824</ele>
        <time>2020-09-12T07:26:13.000Z</time>
      </trkpt>
      <trkpt lat="46.6633" lon="5.45614">
        <ele>212.19999694824</ele>
        <time>2020-09-12T07:26:15.000Z</time>
      </trkpt>
      <trkpt lat="46.6634" lon="5.4563">
        <ele>212.39999389648</ele>
        <time>2020-09-12T07:26:17.000Z</time>
      </trkpt>
      <trkpt lat="46.6635" lon="5.45648">
        <ele>212.39999389648</ele>
        <time>2020-09-12T07:26:19.000Z</time>
      </trkpt>
      <trkpt lat="46.6636" lon="5.45666">
        <ele>212.39999389648</ele>
        <time>2020-09-12T07:26:21.000Z</time>
      </trkpt>
      <trkpt lat="46.66365" lon="5.45676">
        <ele>212.39999389648</ele>
        <time>2020-09-12T07:26:22.000Z</time>
      </trkpt>
      <trkpt lat="46.6637" lon="5.45685">
        <ele>212.19999694824</ele>
        <time>2020-09-12T07:26:23.000Z</time>
      </trkpt>
      <trkpt lat="46.66379" lon="5.45703">
        <ele>212.19999694824</ele>
        <time>2020-09-12T07:26:25.000Z</time>
      </trkpt>
      <trkpt lat="46.66388" lon="5.45723">
        <ele>212.19999694824</ele>
        <time>2020-09-12T07:26:27.000Z</time>
      </trkpt>
      <trkpt lat="46.66393" lon="5.45732">
        <ele>212</ele>
        <time>2020-09-12T07:26:28.000Z</time>
      </trkpt>
      <trkpt lat="46.66398" lon="5.45742">
        <ele>212</ele>
        <time>2020-09-12T07:26:29.000Z</time>
      </trkpt>
      <trkpt lat="46.66408" lon="5.45762">
        <ele>211.60000610352</ele>
        <time>2020-09-12T07:26:31.000Z</time>
      </trkpt>
      <trkpt lat="46.66417" lon="5.45781">
        <ele>211.39999389648</ele>
        <time>2020-09-12T07:26:33.000Z</time>
      </trkpt>
      <trkpt lat="46.66427" lon="5.45799">
        <ele>211.19999694824</ele>
        <time>2020-09-12T07:26:35.000Z</time>
      </trkpt>
      <trkpt lat="46.66436" lon="5.45818">
        <ele>211.19999694824</ele>
        <time>2020-09-12T07:26:37.000Z</time>
      </trkpt>
      <trkpt lat="46.66445" lon="5.45836">
        <ele>211.19999694824</ele>
        <time>2020-09-12T07:26:39.000Z</time>
      </trkpt>
      <trkpt lat="46.66454" lon="5.45853">
        <ele>211.19999694824</ele>
        <time>2020-09-12T07:26:41.000Z</time>
      </trkpt>
      <trkpt lat="46.66463" lon="5.4587">
        <ele>211.39999389648</ele>
        <time>2020-09-12T07:26:43.000Z</time>
      </trkpt>
      <trkpt lat="46.6647" lon="5.45887">
        <ele>211.39999389648</ele>
        <time>2020-09-12T07:26:45.000Z</time>
      </trkpt>
      <trkpt lat="46.66478" lon="5.45903">
        <ele>211.39999389648</ele>
        <time>2020-09-12T07:26:47.000Z</time>
      </trkpt>
      <trkpt lat="46.66486" lon="5.45919">
        <ele>211.39999389648</ele>
        <time>2020-09-12T07:26:49.000Z</time>
      </trkpt>
      <trkpt lat="46.6649" lon="5.45926">
        <ele>211.39999389648</ele>
        <time>2020-09-12T07:26:50.000Z</time>
      </trkpt>
      <trkpt lat="46.66495" lon="5.45932">
        <ele>211.60000610352</ele>
        <time>2020-09-12T07:26:51.000Z</time>
      </trkpt>
      <trkpt lat="46.66507" lon="5.45935">
        <ele>211.60000610352</ele>
        <time>2020-09-12T07:26:53.000Z</time>
      </trkpt>
      <trkpt lat="46.6652" lon="5.45929">
        <ele>212</ele>
        <time>2020-09-12T07:26:55.000Z</time>
      </trkpt>
      <trkpt lat="46.66525" lon="5.45924">
        <ele>212.19999694824</ele>
        <time>2020-09-12T07:26:56.000Z</time>
      </trkpt>
      <trkpt lat="46.66531" lon="5.4592">
        <ele>212.19999694824</ele>
        <time>2020-09-12T07:26:57.000Z</time>
      </trkpt>
      <trkpt lat="46.66543" lon="5.45911">
        <ele>212.39999389648</ele>
        <time>2020-09-12T07:26:59.000Z</time>
      </trkpt>
      <trkpt lat="46.66555" lon="5.45903">
        <ele>212.60000610352</ele>
        <time>2020-09-12T07:27:01.000Z</time>
      </trkpt>
      <trkpt lat="46.66567" lon="5.45894">
        <ele>212.60000610352</ele>
        <time>2020-09-12T07:27:03.000Z</time>
      </trkpt>
      <trkpt lat="46.66578" lon="5.45886">
        <ele>213</ele>
        <time>2020-09-12T07:27:05.000Z</time>
      </trkpt>
      <trkpt lat="46.6659" lon="5.45878">
        <ele>213.19999694824</ele>
        <time>2020-09-12T07:27:07.000Z</time>
      </trkpt>
      <trkpt lat="46.66601" lon="5.45871">
        <ele>213.39999389648</ele>
        <time>2020-09-12T07:27:09.000Z</time>
      </trkpt>
      <trkpt lat="46.66607" lon="5.45867">
        <ele>213.39999389648</ele>
        <time>2020-09-12T07:27:10.000Z</time>
      </trkpt>
      <trkpt lat="46.66612" lon="5.45863">
        <ele>213.80000305176</ele>
        <time>2020-09-12T07:27:11.000Z</time>
      </trkpt>
      <trkpt lat="46.66623" lon="5.45856">
        <ele>214.19999694824</ele>
        <time>2020-09-12T07:27:13.000Z</time>
      </trkpt>
      <trkpt lat="46.66635" lon="5.45848">
        <ele>214.60000610352</ele>
        <time>2020-09-12T07:27:15.000Z</time>
      </trkpt>
      <trkpt lat="46.66646" lon="5.45842">
        <ele>215</ele>
        <time>2020-09-12T07:27:17.000Z</time>
      </trkpt>
      <trkpt lat="46.66651" lon="5.45838">
        <ele>215.19999694824</ele>
        <time>2020-09-12T07:27:18.000Z</time>
      </trkpt>
      <trkpt lat="46.66657" lon="5.45835">
        <ele>215.60000610352</ele>
        <time>2020-09-12T07:27:19.000Z</time>
      </trkpt>
      <trkpt lat="46.66668" lon="5.45831">
        <ele>215.80000305176</ele>
        <time>2020-09-12T07:27:21.000Z</time>
      </trkpt>
      <trkpt lat="46.6668" lon="5.45828">
        <ele>216.19999694824</ele>
        <time>2020-09-12T07:27:23.000Z</time>
      </trkpt>
      <trkpt lat="46.66686" lon="5.45826">
        <ele>216.39999389648</ele>
        <time>2020-09-12T07:27:24.000Z</time>
      </trkpt>
      <trkpt lat="46.66691" lon="5.45824">
        <ele>216.39999389648</ele>
        <time>2020-09-12T07:27:25.000Z</time>
      </trkpt>
      <trkpt lat="46.66697" lon="5.45822">
        <ele>216.60000610352</ele>
        <time>2020-09-12T07:27:26.000Z</time>
      </trkpt>
      <trkpt lat="46.66703" lon="5.4582">
        <ele>216.80000305176</ele>
        <time>2020-09-12T07:27:27.000Z</time>
      </trkpt>
      <trkpt lat="46.66715" lon="5.45816">
        <ele>217.19999694824</ele>
        <time>2020-09-12T07:27:29.000Z</time>
      </trkpt>
      <trkpt lat="46.66721" lon="5.45814">
        <ele>217.39999389648</ele>
        <time>2020-09-12T07:27:30.000Z</time>
      </trkpt>
      <trkpt lat="46.66727" lon="5.45812">
        <ele>217.60000610352</ele>
        <time>2020-09-12T07:27:31.000Z</time>
      </trkpt>
      <trkpt lat="46.66739" lon="5.45809">
        <ele>217.80000305176</ele>
        <time>2020-09-12T07:27:33.000Z</time>
      </trkpt>
      <trkpt lat="46.66745" lon="5.45807">
        <ele>217.80000305176</ele>
        <time>2020-09-12T07:27:34.000Z</time>
      </trkpt>
      <trkpt lat="46.66751" lon="5.45805">
        <ele>218</ele>
        <time>2020-09-12T07:27:35.000Z</time>
      </trkpt>
      <trkpt lat="46.66763" lon="5.45801">
        <ele>218</ele>
        <time>2020-09-12T07:27:37.000Z</time>
      </trkpt>
      <trkpt lat="46.66775" lon="5.45798">
        <ele>218</ele>
        <time>2020-09-12T07:27:39.000Z</time>
      </trkpt>
      <trkpt lat="46.66788" lon="5.45796">
        <ele>218.19999694824</ele>
        <time>2020-09-12T07:27:41.000Z</time>
      </trkpt>
      <trkpt lat="46.66794" lon="5.45796">
        <ele>218.19999694824</ele>
        <time>2020-09-12T07:27:42.000Z</time>
      </trkpt>
      <trkpt lat="46.66801" lon="5.45797">
        <ele>218.19999694824</ele>
        <time>2020-09-12T07:27:43.000Z</time>
      </trkpt>
      <trkpt lat="46.66813" lon="5.45802">
        <ele>218.19999694824</ele>
        <time>2020-09-12T07:27:45.000Z</time>
      </trkpt>
      <trkpt lat="46.66818" lon="5.45807">
        <ele>218.39999389648</ele>
        <time>2020-09-12T07:27:46.000Z</time>
      </trkpt>
      <trkpt lat="46.66823" lon="5.45813">
        <ele>218.39999389648</ele>
        <time>2020-09-12T07:27:47.000Z</time>
      </trkpt>
      <trkpt lat="46.66833" lon="5.45827">
        <ele>218.39999389648</ele>
        <time>2020-09-12T07:27:49.000Z</time>
      </trkpt>
      <trkpt lat="46.66837" lon="5.45834">
        <ele>218.39999389648</ele>
        <time>2020-09-12T07:27:50.000Z</time>
      </trkpt>
      <trkpt lat="46.66841" lon="5.45841">
        <ele>218.39999389648</ele>
        <time>2020-09-12T07:27:51.000Z</time>
      </trkpt>
      <trkpt lat="46.66845" lon="5.45849">
        <ele>218.60000610352</ele>
        <time>2020-09-12T07:27:52.000Z</time>
      </trkpt>
      <trkpt lat="46.66849" lon="5.45856">
        <ele>218.60000610352</ele>
        <time>2020-09-12T07:27:53.000Z</time>
      </trkpt>
      <trkpt lat="46.66857" lon="5.45869">
        <ele>218.60000610352</ele>
        <time>2020-09-12T07:27:55.000Z</time>
      </trkpt>
      <trkpt lat="46.66864" lon="5.45883">
        <ele>218.60000610352</ele>
        <time>2020-09-12T07:27:57.000Z</time>
      </trkpt>
      <trkpt lat="46.66868" lon="5.45891">
        <ele>218.60000610352</ele>
        <time>2020-09-12T07:27:58.000Z</time>
      </trkpt>
      <trkpt lat="46.66872" lon="5.45898">
        <ele>218.60000610352</ele>
        <time>2020-09-12T07:27:59.000Z</time>
      </trkpt>
      <trkpt lat="46.66878" lon="5.45914">
        <ele>218.80000305176</ele>
        <time>2020-09-12T07:28:01.000Z</time>
      </trkpt>
      <trkpt lat="46.66885" lon="5.4593">
        <ele>219</ele>
        <time>2020-09-12T07:28:03.000Z</time>
      </trkpt>
      <trkpt lat="46.66888" lon="5.45938">
        <ele>219</ele>
        <time>2020-09-12T07:28:04.000Z</time>
      </trkpt>
      <trkpt lat="46.66892" lon="5.45945">
        <ele>219.19999694824</ele>
        <time>2020-09-12T07:28:05.000Z</time>
      </trkpt>
      <trkpt lat="46.66897" lon="5.45951">
        <ele>219.19999694824</ele>
        <time>2020-09-12T07:28:06.000Z</time>
      </trkpt>
      <trkpt lat="46.66902" lon="5.45957">
        <ele>219.19999694824</ele>
        <time>2020-09-12T07:28:07.000Z</time>
      </trkpt>
      <trkpt lat="46.66907" lon="5.45962">
        <ele>219.19999694824</ele>
        <time>2020-09-12T07:28:08.000Z</time>
      </trkpt>
      <trkpt lat="46.66912" lon="5.45966">
        <ele>219.19999694824</ele>
        <time>2020-09-12T07:28:09.000Z</time>
      </trkpt>
      <trkpt lat="46.66923" lon="5.45974">
        <ele>219.19999694824</ele>
        <time>2020-09-12T07:28:11.000Z</time>
      </trkpt>
      <trkpt lat="46.66934" lon="5.45982">
        <ele>219.19999694824</ele>
        <time>2020-09-12T07:28:13.000Z</time>
      </trkpt>
      <trkpt lat="46.6694" lon="5.45985">
        <ele>219.19999694824</ele>
        <time>2020-09-12T07:28:14.000Z</time>
      </trkpt>
      <trkpt lat="46.66946" lon="5.45988">
        <ele>219.19999694824</ele>
        <time>2020-09-12T07:28:15.000Z</time>
      </trkpt>
      <trkpt lat="46.66958" lon="5.45994">
        <ele>219.19999694824</ele>
        <time>2020-09-12T07:28:17.000Z</time>
      </trkpt>
      <trkpt lat="46.6697" lon="5.46">
        <ele>219.19999694824</ele>
        <time>2020-09-12T07:28:19.000Z</time>
      </trkpt>
      <trkpt lat="46.66976" lon="5.46004">
        <ele>219.19999694824</ele>
        <time>2020-09-12T07:28:20.000Z</time>
      </trkpt>
      <trkpt lat="46.66982" lon="5.46008">
        <ele>219.19999694824</ele>
        <time>2020-09-12T07:28:21.000Z</time>
      </trkpt>
      <trkpt lat="46.66994" lon="5.46015">
        <ele>219.19999694824</ele>
        <time>2020-09-12T07:28:23.000Z</time>
      </trkpt>
      <trkpt lat="46.67006" lon="5.46024">
        <ele>219.19999694824</ele>
        <time>2020-09-12T07:28:25.000Z</time>
      </trkpt>
      <trkpt lat="46.67018" lon="5.46032">
        <ele>219.19999694824</ele>
        <time>2020-09-12T07:28:27.000Z</time>
      </trkpt>
      <trkpt lat="46.67031" lon="5.4604">
        <ele>219.19999694824</ele>
        <time>2020-09-12T07:28:29.000Z</time>
      </trkpt>
      <trkpt lat="46.67043" lon="5.46046">
        <ele>219.19999694824</ele>
        <time>2020-09-12T07:28:31.000Z</time>
      </trkpt>
      <trkpt lat="46.67057" lon="5.46048">
        <ele>219.19999694824</ele>
        <time>2020-09-12T07:28:33.000Z</time>
      </trkpt>
      <trkpt lat="46.6707" lon="5.46049">
        <ele>219.19999694824</ele>
        <time>2020-09-12T07:28:35.000Z</time>
      </trkpt>
      <trkpt lat="46.67083" lon="5.46048">
        <ele>219.19999694824</ele>
        <time>2020-09-12T07:28:37.000Z</time>
      </trkpt>
      <trkpt lat="46.67097" lon="5.46048">
        <ele>219.39999389648</ele>
        <time>2020-09-12T07:28:39.000Z</time>
      </trkpt>
      <trkpt lat="46.67103" lon="5.46048">
        <ele>219.39999389648</ele>
        <time>2020-09-12T07:28:40.000Z</time>
      </trkpt>
      <trkpt lat="46.67109" lon="5.46047">
        <ele>219.39999389648</ele>
        <time>2020-09-12T07:28:41.000Z</time>
      </trkpt>
      <trkpt lat="46.67116" lon="5.46046">
        <ele>219.39999389648</ele>
        <time>2020-09-12T07:28:42.000Z</time>
      </trkpt>
      <trkpt lat="46.67122" lon="5.46045">
        <ele>219.60000610352</ele>
        <time>2020-09-12T07:28:43.000Z</time>
      </trkpt>
      <trkpt lat="46.67135" lon="5.46044">
        <ele>219.60000610352</ele>
        <time>2020-09-12T07:28:45.000Z</time>
      </trkpt>
      <trkpt lat="46.67147" lon="5.46043">
        <ele>219.60000610352</ele>
        <time>2020-09-12T07:28:47.000Z</time>
      </trkpt>
      <trkpt lat="46.67158" lon="5.46044">
        <ele>219.60000610352</ele>
        <time>2020-09-12T07:28:49.000Z</time>
      </trkpt>
      <trkpt lat="46.67162" lon="5.46045">
        <ele>219.80000305176</ele>
        <time>2020-09-12T07:28:50.000Z</time>
      </trkpt>
      <trkpt lat="46.67165" lon="5.46047">
        <ele>219.80000305176</ele>
        <time>2020-09-12T07:28:51.000Z</time>
      </trkpt>
      <trkpt lat="46.67168" lon="5.46049">
        <ele>219.80000305176</ele>
        <time>2020-09-12T07:28:52.000Z</time>
      </trkpt>
      <trkpt lat="46.67169" lon="5.4605">
        <ele>219.80000305176</ele>
        <time>2020-09-12T07:28:53.000Z</time>
      </trkpt>
      <trkpt lat="46.67169" lon="5.4605">
        <ele>219.80000305176</ele>
        <time>2020-09-12T07:28:55.000Z</time>
      </trkpt>
      <trkpt lat="46.67171" lon="5.46052">
        <ele>221.39999389648</ele>
        <time>2020-09-12T07:29:04.000Z</time>
      </trkpt>
      <trkpt lat="46.67173" lon="5.46053">
        <ele>221.39999389648</ele>
        <time>2020-09-12T07:29:05.000Z</time>
      </trkpt>
      <trkpt lat="46.67178" lon="5.46054">
        <ele>221.39999389648</ele>
        <time>2020-09-12T07:29:07.000Z</time>
      </trkpt>
      <trkpt lat="46.67182" lon="5.46053">
        <ele>221.39999389648</ele>
        <time>2020-09-12T07:29:08.000Z</time>
      </trkpt>
      <trkpt lat="46.67186" lon="5.46052">
        <ele>221.39999389648</ele>
        <time>2020-09-12T07:29:09.000Z</time>
      </trkpt>
      <trkpt lat="46.67197" lon="5.46052">
        <ele>221.39999389648</ele>
        <time>2020-09-12T07:29:11.000Z</time>
      </trkpt>
      <trkpt lat="46.67203" lon="5.46053">
        <ele>221.39999389648</ele>
        <time>2020-09-12T07:29:12.000Z</time>
      </trkpt>
      <trkpt lat="46.67208" lon="5.46055">
        <ele>221.39999389648</ele>
        <time>2020-09-12T07:29:13.000Z</time>
      </trkpt>
      <trkpt lat="46.67214" lon="5.46057">
        <ele>221.39999389648</ele>
        <time>2020-09-12T07:29:14.000Z</time>
      </trkpt>
      <trkpt lat="46.67221" lon="5.4606">
        <ele>221</ele>
        <time>2020-09-12T07:29:15.000Z</time>
      </trkpt>
      <trkpt lat="46.67234" lon="5.46066">
        <ele>220.80000305176</ele>
        <time>2020-09-12T07:29:17.000Z</time>
      </trkpt>
      <trkpt lat="46.67247" lon="5.46073">
        <ele>220</ele>
        <time>2020-09-12T07:29:19.000Z</time>
      </trkpt>
      <trkpt lat="46.67262" lon="5.4608">
        <ele>219.80000305176</ele>
        <time>2020-09-12T07:29:21.000Z</time>
      </trkpt>
      <trkpt lat="46.67276" lon="5.46087">
        <ele>219.60000610352</ele>
        <time>2020-09-12T07:29:23.000Z</time>
      </trkpt>
      <trkpt lat="46.67284" lon="5.46091">
        <ele>219.60000610352</ele>
        <time>2020-09-12T07:29:24.000Z</time>
      </trkpt>
      <trkpt lat="46.67291" lon="5.46095">
        <ele>219.60000610352</ele>
        <time>2020-09-12T07:29:25.000Z</time>
      </trkpt>
      <trkpt lat="46.67306" lon="5.46103">
        <ele>219.39999389648</ele>
        <time>2020-09-12T07:29:27.000Z</time>
      </trkpt>
      <trkpt lat="46.6732" lon="5.4611">
        <ele>219.19999694824</ele>
        <time>2020-09-12T07:29:29.000Z</time>
      </trkpt>
      <trkpt lat="46.67335" lon="5.46117">
        <ele>219.19999694824</ele>
        <time>2020-09-12T07:29:31.000Z</time>
      </trkpt>
      <trkpt lat="46.67349" lon="5.46124">
        <ele>219</ele>
        <time>2020-09-12T07:29:33.000Z</time>
      </trkpt>
      <trkpt lat="46.67363" lon="5.4613">
        <ele>219</ele>
        <time>2020-09-12T07:29:35.000Z</time>
      </trkpt>
      <trkpt lat="46.67368" lon="5.46133">
        <ele>219</ele>
        <time>2020-09-12T07:29:36.000Z</time>
      </trkpt>
      <trkpt lat="46.67372" lon="5.46136">
        <ele>219</ele>
        <time>2020-09-12T07:29:37.000Z</time>
      </trkpt>
      <trkpt lat="46.67375" lon="5.46137">
        <ele>219</ele>
        <time>2020-09-12T07:29:39.000Z</time>
      </trkpt>
      <trkpt lat="46.67375" lon="5.46137">
        <ele>219</ele>
        <time>2020-09-12T07:29:40.000Z</time>
      </trkpt>
      <trkpt lat="46.67377" lon="5.46138">
        <ele>221.19999694824</ele>
        <time>2020-09-12T07:30:38.000Z</time>
      </trkpt>
      <trkpt lat="46.67378" lon="5.46138">
        <ele>221.19999694824</ele>
        <time>2020-09-12T07:30:39.000Z</time>
      </trkpt>
      <trkpt lat="46.67382" lon="5.4614">
        <ele>221.19999694824</ele>
        <time>2020-09-12T07:30:41.000Z</time>
      </trkpt>
      <trkpt lat="46.67387" lon="5.46142">
        <ele>221.19999694824</ele>
        <time>2020-09-12T07:30:43.000Z</time>
      </trkpt>
      <trkpt lat="46.67394" lon="5.46145">
        <ele>221.19999694824</ele>
        <time>2020-09-12T07:30:45.000Z</time>
      </trkpt>
      <trkpt lat="46.67403" lon="5.4615">
        <ele>221.19999694824</ele>
        <time>2020-09-12T07:30:47.000Z</time>
      </trkpt>
      <trkpt lat="46.67415" lon="5.46155">
        <ele>221.19999694824</ele>
        <time>2020-09-12T07:30:49.000Z</time>
      </trkpt>
      <trkpt lat="46.67421" lon="5.46158">
        <ele>221.19999694824</ele>
        <time>2020-09-12T07:30:50.000Z</time>
      </trkpt>
      <trkpt lat="46.67427" lon="5.46162">
        <ele>221</ele>
        <time>2020-09-12T07:30:51.000Z</time>
      </trkpt>
      <trkpt lat="46.6744" lon="5.46169">
        <ele>220.60000610352</ele>
        <time>2020-09-12T07:30:53.000Z</time>
      </trkpt>
      <trkpt lat="46.67454" lon="5.46175">
        <ele>220.60000610352</ele>
        <time>2020-09-12T07:30:55.000Z</time>
      </trkpt>
      <trkpt lat="46.67467" lon="5.46182">
        <ele>220</ele>
        <time>2020-09-12T07:30:57.000Z</time>
      </trkpt>
      <trkpt lat="46.67474" lon="5.46185">
        <ele>220</ele>
        <time>2020-09-12T07:30:58.000Z</time>
      </trkpt>
      <trkpt lat="46.67481" lon="5.46189">
        <ele>219.80000305176</ele>
        <time>2020-09-12T07:30:59.000Z</time>
      </trkpt>
      <trkpt lat="46.67495" lon="5.46195">
        <ele>219.80000305176</ele>
        <time>2020-09-12T07:31:01.000Z</time>
      </trkpt>
      <trkpt lat="46.67508" lon="5.46202">
        <ele>219.60000610352</ele>
        <time>2020-09-12T07:31:03.000Z</time>
      </trkpt>
      <trkpt lat="46.67522" lon="5.46209">
        <ele>219.39999389648</ele>
        <time>2020-09-12T07:31:05.000Z</time>
      </trkpt>
      <trkpt lat="46.67536" lon="5.46215">
        <ele>219.39999389648</ele>
        <time>2020-09-12T07:31:07.000Z</time>
      </trkpt>
      <trkpt lat="46.67549" lon="5.46222">
        <ele>219.39999389648</ele>
        <time>2020-09-12T07:31:09.000Z</time>
      </trkpt>
      <trkpt lat="46.67563" lon="5.46229">
        <ele>219.39999389648</ele>
        <time>2020-09-12T07:31:11.000Z</time>
      </trkpt>
      <trkpt lat="46.6757" lon="5.46232">
        <ele>219.39999389648</ele>
        <time>2020-09-12T07:31:12.000Z</time>
      </trkpt>
      <trkpt lat="46.67577" lon="5.46235">
        <ele>219.39999389648</ele>
        <time>2020-09-12T07:31:13.000Z</time>
      </trkpt>
      <trkpt lat="46.67591" lon="5.46242">
        <ele>219.39999389648</ele>
        <time>2020-09-12T07:31:15.000Z</time>
      </trkpt>
      <trkpt lat="46.67606" lon="5.46249">
        <ele>219.39999389648</ele>
        <time>2020-09-12T07:31:17.000Z</time>
      </trkpt>
      <trkpt lat="46.6762" lon="5.46256">
        <ele>219.39999389648</ele>
        <time>2020-09-12T07:31:19.000Z</time>
      </trkpt>
      <trkpt lat="46.67628" lon="5.4626">
        <ele>219.39999389648</ele>
        <time>2020-09-12T07:31:20.000Z</time>
      </trkpt>
      <trkpt lat="46.67635" lon="5.46263">
        <ele>219.39999389648</ele>
        <time>2020-09-12T07:31:21.000Z</time>
      </trkpt>
      <trkpt lat="46.67649" lon="5.4627">
        <ele>219.39999389648</ele>
        <time>2020-09-12T07:31:23.000Z</time>
      </trkpt>
      <trkpt lat="46.67664" lon="5.46278">
        <ele>219.39999389648</ele>
        <time>2020-09-12T07:31:25.000Z</time>
      </trkpt>
      <trkpt lat="46.67678" lon="5.46284">
        <ele>219.39999389648</ele>
        <time>2020-09-12T07:31:27.000Z</time>
      </trkpt>
      <trkpt lat="46.67692" lon="5.46291">
        <ele>219.39999389648</ele>
        <time>2020-09-12T07:31:29.000Z</time>
      </trkpt>
      <trkpt lat="46.67706" lon="5.46298">
        <ele>219.39999389648</ele>
        <time>2020-09-12T07:31:31.000Z</time>
      </trkpt>
      <trkpt lat="46.6772" lon="5.46305">
        <ele>219.39999389648</ele>
        <time>2020-09-12T07:31:33.000Z</time>
      </trkpt>
      <trkpt lat="46.67734" lon="5.46312">
        <ele>219.39999389648</ele>
        <time>2020-09-12T07:31:35.000Z</time>
      </trkpt>
      <trkpt lat="46.67748" lon="5.46318">
        <ele>219.39999389648</ele>
        <time>2020-09-12T07:31:37.000Z</time>
      </trkpt>
      <trkpt lat="46.67762" lon="5.46325">
        <ele>219.60000610352</ele>
        <time>2020-09-12T07:31:39.000Z</time>
      </trkpt>
      <trkpt lat="46.67769" lon="5.46329">
        <ele>219.60000610352</ele>
        <time>2020-09-12T07:31:40.000Z</time>
      </trkpt>
      <trkpt lat="46.67776" lon="5.46333">
        <ele>219.80000305176</ele>
        <time>2020-09-12T07:31:41.000Z</time>
      </trkpt>
      <trkpt lat="46.67791" lon="5.4634">
        <ele>220.19999694824</ele>
        <time>2020-09-12T07:31:43.000Z</time>
      </trkpt>
      <trkpt lat="46.67805" lon="5.46347">
        <ele>220.60000610352</ele>
        <time>2020-09-12T07:31:45.000Z</time>
      </trkpt>
      <trkpt lat="46.67819" lon="5.46354">
        <ele>220.60000610352</ele>
        <time>2020-09-12T07:31:47.000Z</time>
      </trkpt>
      <trkpt lat="46.67827" lon="5.46358">
        <ele>220.60000610352</ele>
        <time>2020-09-12T07:31:48.000Z</time>
      </trkpt>
      <trkpt lat="46.67834" lon="5.46361">
        <ele>220.60000610352</ele>
        <time>2020-09-12T07:31:49.000Z</time>
      </trkpt>
      <trkpt lat="46.67848" lon="5.46369">
        <ele>220.60000610352</ele>
        <time>2020-09-12T07:31:51.000Z</time>
      </trkpt>
      <trkpt lat="46.67863" lon="5.46376">
        <ele>220.60000610352</ele>
        <time>2020-09-12T07:31:53.000Z</time>
      </trkpt>
      <trkpt lat="46.67878" lon="5.46383">
        <ele>220.60000610352</ele>
        <time>2020-09-12T07:31:55.000Z</time>
      </trkpt>
      <trkpt lat="46.67892" lon="5.4639">
        <ele>220.60000610352</ele>
        <time>2020-09-12T07:31:57.000Z</time>
      </trkpt>
      <trkpt lat="46.67907" lon="5.46397">
        <ele>220.39999389648</ele>
        <time>2020-09-12T07:31:59.000Z</time>
      </trkpt>
      <trkpt lat="46.67922" lon="5.46404">
        <ele>220.39999389648</ele>
        <time>2020-09-12T07:32:01.000Z</time>
      </trkpt>
      <trkpt lat="46.67936" lon="5.46412">
        <ele>220.19999694824</ele>
        <time>2020-09-12T07:32:03.000Z</time>
      </trkpt>
      <trkpt lat="46.67951" lon="5.46419">
        <ele>220.19999694824</ele>
        <time>2020-09-12T07:32:05.000Z</time>
      </trkpt>
      <trkpt lat="46.67966" lon="5.46426">
        <ele>220.19999694824</ele>
        <time>2020-09-12T07:32:07.000Z</time>
      </trkpt>
      <trkpt lat="46.6798" lon="5.46433">
        <ele>220.19999694824</ele>
        <time>2020-09-12T07:32:09.000Z</time>
      </trkpt>
      <trkpt lat="46.67988" lon="5.46437">
        <ele>220.19999694824</ele>
        <time>2020-09-12T07:32:10.000Z</time>
      </trkpt>
      <trkpt lat="46.67995" lon="5.4644">
        <ele>220.19999694824</ele>
        <time>2020-09-12T07:32:11.000Z</time>
      </trkpt>
      <trkpt lat="46.6801" lon="5.46448">
        <ele>220.19999694824</ele>
        <time>2020-09-12T07:32:13.000Z</time>
      </trkpt>
      <trkpt lat="46.68025" lon="5.46455">
        <ele>220.19999694824</ele>
        <time>2020-09-12T07:32:15.000Z</time>
      </trkpt>
      <trkpt lat="46.68039" lon="5.46462">
        <ele>220.19999694824</ele>
        <time>2020-09-12T07:32:17.000Z</time>
      </trkpt>
      <trkpt lat="46.68054" lon="5.46469">
        <ele>220.19999694824</ele>
        <time>2020-09-12T07:32:19.000Z</time>
      </trkpt>
      <trkpt lat="46.68068" lon="5.46476">
        <ele>220.19999694824</ele>
        <time>2020-09-12T07:32:21.000Z</time>
      </trkpt>
      <trkpt lat="46.68083" lon="5.46483">
        <ele>220.19999694824</ele>
        <time>2020-09-12T07:32:23.000Z</time>
      </trkpt>
      <trkpt lat="46.68098" lon="5.46491">
        <ele>220.19999694824</ele>
        <time>2020-09-12T07:32:25.000Z</time>
      </trkpt>
      <trkpt lat="46.68113" lon="5.46498">
        <ele>220.19999694824</ele>
        <time>2020-09-12T07:32:27.000Z</time>
      </trkpt>
      <trkpt lat="46.68127" lon="5.46505">
        <ele>220.19999694824</ele>
        <time>2020-09-12T07:32:29.000Z</time>
      </trkpt>
      <trkpt lat="46.68142" lon="5.46513">
        <ele>219.80000305176</ele>
        <time>2020-09-12T07:32:31.000Z</time>
      </trkpt>
      <trkpt lat="46.68157" lon="5.4652">
        <ele>219.80000305176</ele>
        <time>2020-09-12T07:32:33.000Z</time>
      </trkpt>
      <trkpt lat="46.68171" lon="5.46529">
        <ele>219.80000305176</ele>
        <time>2020-09-12T07:32:35.000Z</time>
      </trkpt>
      <trkpt lat="46.68185" lon="5.46538">
        <ele>219.60000610352</ele>
        <time>2020-09-12T07:32:37.000Z</time>
      </trkpt>
      <trkpt lat="46.68199" lon="5.46549">
        <ele>219.39999389648</ele>
        <time>2020-09-12T07:32:39.000Z</time>
      </trkpt>
      <trkpt lat="46.68213" lon="5.4656">
        <ele>219.39999389648</ele>
        <time>2020-09-12T07:32:41.000Z</time>
      </trkpt>
      <trkpt lat="46.68227" lon="5.46571">
        <ele>219.19999694824</ele>
        <time>2020-09-12T07:32:43.000Z</time>
      </trkpt>
      <trkpt lat="46.68241" lon="5.46582">
        <ele>218.80000305176</ele>
        <time>2020-09-12T07:32:45.000Z</time>
      </trkpt>
      <trkpt lat="46.68256" lon="5.46594">
        <ele>218.80000305176</ele>
        <time>2020-09-12T07:32:47.000Z</time>
      </trkpt>
      <trkpt lat="46.68271" lon="5.46606">
        <ele>218.60000610352</ele>
        <time>2020-09-12T07:32:49.000Z</time>
      </trkpt>
      <trkpt lat="46.68286" lon="5.46618">
        <ele>218.39999389648</ele>
        <time>2020-09-12T07:32:51.000Z</time>
      </trkpt>
      <trkpt lat="46.68303" lon="5.46631">
        <ele>218.19999694824</ele>
        <time>2020-09-12T07:32:53.000Z</time>
      </trkpt>
      <trkpt lat="46.6832" lon="5.46646">
        <ele>217.80000305176</ele>
        <time>2020-09-12T07:32:55.000Z</time>
      </trkpt>
      <trkpt lat="46.68336" lon="5.46662">
        <ele>217.60000610352</ele>
        <time>2020-09-12T07:32:57.000Z</time>
      </trkpt>
      <trkpt lat="46.68352" lon="5.46681">
        <ele>216.80000305176</ele>
        <time>2020-09-12T07:32:59.000Z</time>
      </trkpt>
      <trkpt lat="46.6836" lon="5.46691">
        <ele>215.60000610352</ele>
        <time>2020-09-12T07:33:00.000Z</time>
      </trkpt>
      <trkpt lat="46.68367" lon="5.46701">
        <ele>215</ele>
        <time>2020-09-12T07:33:01.000Z</time>
      </trkpt>
      <trkpt lat="46.68374" lon="5.46712">
        <ele>214.39999389648</ele>
        <time>2020-09-12T07:33:02.000Z</time>
      </trkpt>
      <trkpt lat="46.68381" lon="5.46722">
        <ele>214</ele>
        <time>2020-09-12T07:33:03.000Z</time>
      </trkpt>
      <trkpt lat="46.68394" lon="5.46742">
        <ele>213.19999694824</ele>
        <time>2020-09-12T07:33:05.000Z</time>
      </trkpt>
      <trkpt lat="46.68405" lon="5.4676">
        <ele>213</ele>
        <time>2020-09-12T07:33:07.000Z</time>
      </trkpt>
      <trkpt lat="46.68411" lon="5.46769">
        <ele>213</ele>
        <time>2020-09-12T07:33:08.000Z</time>
      </trkpt>
      <trkpt lat="46.68416" lon="5.46778">
        <ele>213</ele>
        <time>2020-09-12T07:33:09.000Z</time>
      </trkpt>
      <trkpt lat="46.68426" lon="5.46794">
        <ele>213</ele>
        <time>2020-09-12T07:33:11.000Z</time>
      </trkpt>
      <trkpt lat="46.68436" lon="5.4681">
        <ele>213</ele>
        <time>2020-09-12T07:33:13.000Z</time>
      </trkpt>
      <trkpt lat="46.68446" lon="5.46826">
        <ele>213.39999389648</ele>
        <time>2020-09-12T07:33:15.000Z</time>
      </trkpt>
      <trkpt lat="46.68455" lon="5.46842">
        <ele>214.39999389648</ele>
        <time>2020-09-12T07:33:17.000Z</time>
      </trkpt>
      <trkpt lat="46.68465" lon="5.46858">
        <ele>215.19999694824</ele>
        <time>2020-09-12T07:33:19.000Z</time>
      </trkpt>
      <trkpt lat="46.6847" lon="5.46867">
        <ele>215.39999389648</ele>
        <time>2020-09-12T07:33:20.000Z</time>
      </trkpt>
      <trkpt lat="46.68474" lon="5.46875">
        <ele>216</ele>
        <time>2020-09-12T07:33:21.000Z</time>
      </trkpt>
      <trkpt lat="46.68484" lon="5.46891">
        <ele>216.60000610352</ele>
        <time>2020-09-12T07:33:23.000Z</time>
      </trkpt>
      <trkpt lat="46.68493" lon="5.46908">
        <ele>216.80000305176</ele>
        <time>2020-09-12T07:33:25.000Z</time>
      </trkpt>
      <trkpt lat="46.68498" lon="5.46916">
        <ele>217</ele>
        <time>2020-09-12T07:33:26.000Z</time>
      </trkpt>
      <trkpt lat="46.68502" lon="5.46924">
        <ele>217.19999694824</ele>
        <time>2020-09-12T07:33:27.000Z</time>
      </trkpt>
      <trkpt lat="46.68511" lon="5.4694">
        <ele>217.39999389648</ele>
        <time>2020-09-12T07:33:29.000Z</time>
      </trkpt>
      <trkpt lat="46.6852" lon="5.46955">
        <ele>217.60000610352</ele>
        <time>2020-09-12T07:33:31.000Z</time>
      </trkpt>
      <trkpt lat="46.68528" lon="5.4697">
        <ele>217.60000610352</ele>
        <time>2020-09-12T07:33:33.000Z</time>
      </trkpt>
      <trkpt lat="46.68532" lon="5.46977">
        <ele>217.80000305176</ele>
        <time>2020-09-12T07:33:34.000Z</time>
      </trkpt>
      <trkpt lat="46.68536" lon="5.46984">
        <ele>218</ele>
        <time>2020-09-12T07:33:35.000Z</time>
      </trkpt>
      <trkpt lat="46.68544" lon="5.46998">
        <ele>218.19999694824</ele>
        <time>2020-09-12T07:33:37.000Z</time>
      </trkpt>
      <trkpt lat="46.68552" lon="5.47012">
        <ele>218.39999389648</ele>
        <time>2020-09-12T07:33:39.000Z</time>
      </trkpt>
      <trkpt lat="46.6856" lon="5.47026">
        <ele>218.60000610352</ele>
        <time>2020-09-12T07:33:41.000Z</time>
      </trkpt>
      <trkpt lat="46.68568" lon="5.4704">
        <ele>219.39999389648</ele>
        <time>2020-09-12T07:33:43.000Z</time>
      </trkpt>
      <trkpt lat="46.68572" lon="5.47047">
        <ele>219.60000610352</ele>
        <time>2020-09-12T07:33:44.000Z</time>
      </trkpt>
      <trkpt lat="46.68577" lon="5.47055">
        <ele>219.80000305176</ele>
        <time>2020-09-12T07:33:45.000Z</time>
      </trkpt>
      <trkpt lat="46.68585" lon="5.47069">
        <ele>220.19999694824</ele>
        <time>2020-09-12T07:33:47.000Z</time>
      </trkpt>
      <trkpt lat="46.68593" lon="5.47084">
        <ele>220.19999694824</ele>
        <time>2020-09-12T07:33:49.000Z</time>
      </trkpt>
      <trkpt lat="46.68602" lon="5.47099">
        <ele>220.19999694824</ele>
        <time>2020-09-12T07:33:51.000Z</time>
      </trkpt>
      <trkpt lat="46.68611" lon="5.47115">
        <ele>220.19999694824</ele>
        <time>2020-09-12T07:33:53.000Z</time>
      </trkpt>
      <trkpt lat="46.68615" lon="5.47122">
        <ele>220.19999694824</ele>
        <time>2020-09-12T07:33:54.000Z</time>
      </trkpt>
      <trkpt lat="46.68619" lon="5.4713">
        <ele>220.39999389648</ele>
        <time>2020-09-12T07:33:55.000Z</time>
      </trkpt>
      <trkpt lat="46.68628" lon="5.47147">
        <ele>220.39999389648</ele>
        <time>2020-09-12T07:33:57.000Z</time>
      </trkpt>
      <trkpt lat="46.68637" lon="5.47163">
        <ele>220.39999389648</ele>
        <time>2020-09-12T07:33:59.000Z</time>
      </trkpt>
      <trkpt lat="46.68646" lon="5.47179">
        <ele>220.39999389648</ele>
        <time>2020-09-12T07:34:01.000Z</time>
      </trkpt>
      <trkpt lat="46.68655" lon="5.47195">
        <ele>220.19999694824</ele>
        <time>2020-09-12T07:34:03.000Z</time>
      </trkpt>
      <trkpt lat="46.68664" lon="5.47212">
        <ele>220</ele>
        <time>2020-09-12T07:34:05.000Z</time>
      </trkpt>
      <trkpt lat="46.68674" lon="5.47229">
        <ele>220</ele>
        <time>2020-09-12T07:34:07.000Z</time>
      </trkpt>
      <trkpt lat="46.68683" lon="5.47247">
        <ele>220</ele>
        <time>2020-09-12T07:34:09.000Z</time>
      </trkpt>
      <trkpt lat="46.68688" lon="5.47256">
        <ele>220</ele>
        <time>2020-09-12T07:34:10.000Z</time>
      </trkpt>
      <trkpt lat="46.68693" lon="5.47264">
        <ele>219.80000305176</ele>
        <time>2020-09-12T07:34:11.000Z</time>
      </trkpt>
      <trkpt lat="46.68702" lon="5.47282">
        <ele>219.60000610352</ele>
        <time>2020-09-12T07:34:13.000Z</time>
      </trkpt>
      <trkpt lat="46.68711" lon="5.473">
        <ele>219.19999694824</ele>
        <time>2020-09-12T07:34:15.000Z</time>
      </trkpt>
      <trkpt lat="46.68721" lon="5.47318">
        <ele>219.19999694824</ele>
        <time>2020-09-12T07:34:17.000Z</time>
      </trkpt>
      <trkpt lat="46.68732" lon="5.47335">
        <ele>219</ele>
        <time>2020-09-12T07:34:19.000Z</time>
      </trkpt>
      <trkpt lat="46.68746" lon="5.47346">
        <ele>218.39999389648</ele>
        <time>2020-09-12T07:34:21.000Z</time>
      </trkpt>
      <trkpt lat="46.68754" lon="5.47349">
        <ele>218.19999694824</ele>
        <time>2020-09-12T07:34:22.000Z</time>
      </trkpt>
      <trkpt lat="46.68762" lon="5.47351">
        <ele>218.19999694824</ele>
        <time>2020-09-12T07:34:23.000Z</time>
      </trkpt>
      <trkpt lat="46.6877" lon="5.47352">
        <ele>218.19999694824</ele>
        <time>2020-09-12T07:34:24.000Z</time>
      </trkpt>
      <trkpt lat="46.68778" lon="5.47353">
        <ele>217.80000305176</ele>
        <time>2020-09-12T07:34:25.000Z</time>
      </trkpt>
      <trkpt lat="46.68787" lon="5.47354">
        <ele>217.39999389648</ele>
        <time>2020-09-12T07:34:26.000Z</time>
      </trkpt>
      <trkpt lat="46.68795" lon="5.47354">
        <ele>217</ele>
        <time>2020-09-12T07:34:27.000Z</time>
      </trkpt>
      <trkpt lat="46.68811" lon="5.47357">
        <ele>216.80000305176</ele>
        <time>2020-09-12T07:34:29.000Z</time>
      </trkpt>
      <trkpt lat="46.68826" lon="5.47362">
        <ele>216.60000610352</ele>
        <time>2020-09-12T07:34:31.000Z</time>
      </trkpt>
      <trkpt lat="46.68839" lon="5.47368">
        <ele>216.60000610352</ele>
        <time>2020-09-12T07:34:33.000Z</time>
      </trkpt>
      <trkpt lat="46.68851" lon="5.47375">
        <ele>216.60000610352</ele>
        <time>2020-09-12T07:34:35.000Z</time>
      </trkpt>
      <trkpt lat="46.68863" lon="5.47385">
        <ele>216.60000610352</ele>
        <time>2020-09-12T07:34:37.000Z</time>
      </trkpt>
      <trkpt lat="46.68868" lon="5.4739">
        <ele>216.80000305176</ele>
        <time>2020-09-12T07:34:38.000Z</time>
      </trkpt>
      <trkpt lat="46.68873" lon="5.47395">
        <ele>216.80000305176</ele>
        <time>2020-09-12T07:34:39.000Z</time>
      </trkpt>
      <trkpt lat="46.68883" lon="5.47404">
        <ele>217.19999694824</ele>
        <time>2020-09-12T07:34:41.000Z</time>
      </trkpt>
      <trkpt lat="46.68892" lon="5.47415">
        <ele>218</ele>
        <time>2020-09-12T07:34:43.000Z</time>
      </trkpt>
      <trkpt lat="46.68896" lon="5.47421">
        <ele>218.39999389648</ele>
        <time>2020-09-12T07:34:44.000Z</time>
      </trkpt>
      <trkpt lat="46.68901" lon="5.47427">
        <ele>218.80000305176</ele>
        <time>2020-09-12T07:34:45.000Z</time>
      </trkpt>
      <trkpt lat="46.68909" lon="5.47439">
        <ele>219.39999389648</ele>
        <time>2020-09-12T07:34:47.000Z</time>
      </trkpt>
      <trkpt lat="46.68913" lon="5.47445">
        <ele>219.39999389648</ele>
        <time>2020-09-12T07:34:48.000Z</time>
      </trkpt>
      <trkpt lat="46.68917" lon="5.47451">
        <ele>219.60000610352</ele>
        <time>2020-09-12T07:34:49.000Z</time>
      </trkpt>
      <trkpt lat="46.68925" lon="5.47464">
        <ele>220.19999694824</ele>
        <time>2020-09-12T07:34:51.000Z</time>
      </trkpt>
      <trkpt lat="46.6893" lon="5.47471">
        <ele>220.60000610352</ele>
        <time>2020-09-12T07:34:52.000Z</time>
      </trkpt>
      <trkpt lat="46.68934" lon="5.47478">
        <ele>220.80000305176</ele>
        <time>2020-09-12T07:34:53.000Z</time>
      </trkpt>
      <trkpt lat="46.68938" lon="5.47485">
        <ele>221.19999694824</ele>
        <time>2020-09-12T07:34:54.000Z</time>
      </trkpt>
      <trkpt lat="46.68942" lon="5.47492">
        <ele>221.39999389648</ele>
        <time>2020-09-12T07:34:55.000Z</time>
      </trkpt>
      <trkpt lat="46.68947" lon="5.47499">
        <ele>221.60000610352</ele>
        <time>2020-09-12T07:34:56.000Z</time>
      </trkpt>
      <trkpt lat="46.68951" lon="5.47506">
        <ele>221.60000610352</ele>
        <time>2020-09-12T07:34:57.000Z</time>
      </trkpt>
      <trkpt lat="46.6896" lon="5.4752">
        <ele>221.80000305176</ele>
        <time>2020-09-12T07:34:59.000Z</time>
      </trkpt>
      <trkpt lat="46.68969" lon="5.47535">
        <ele>221.80000305176</ele>
        <time>2020-09-12T07:35:01.000Z</time>
      </trkpt>
      <trkpt lat="46.68978" lon="5.47549">
        <ele>221.80000305176</ele>
        <time>2020-09-12T07:35:03.000Z</time>
      </trkpt>
      <trkpt lat="46.68982" lon="5.47557">
        <ele>221.80000305176</ele>
        <time>2020-09-12T07:35:04.000Z</time>
      </trkpt>
      <trkpt lat="46.68987" lon="5.47564">
        <ele>221.80000305176</ele>
        <time>2020-09-12T07:35:05.000Z</time>
      </trkpt>
      <trkpt lat="46.68996" lon="5.47579">
        <ele>222</ele>
        <time>2020-09-12T07:35:07.000Z</time>
      </trkpt>
      <trkpt lat="46.69005" lon="5.47594">
        <ele>222</ele>
        <time>2020-09-12T07:35:09.000Z</time>
      </trkpt>
      <trkpt lat="46.69015" lon="5.47609">
        <ele>222</ele>
        <time>2020-09-12T07:35:11.000Z</time>
      </trkpt>
      <trkpt lat="46.69025" lon="5.47625">
        <ele>222</ele>
        <time>2020-09-12T07:35:13.000Z</time>
      </trkpt>
      <trkpt lat="46.69029" lon="5.47633">
        <ele>222</ele>
        <time>2020-09-12T07:35:14.000Z</time>
      </trkpt>
      <trkpt lat="46.69034" lon="5.47641">
        <ele>222</ele>
        <time>2020-09-12T07:35:15.000Z</time>
      </trkpt>
      <trkpt lat="46.69044" lon="5.47656">
        <ele>222</ele>
        <time>2020-09-12T07:35:17.000Z</time>
      </trkpt>
      <trkpt lat="46.69054" lon="5.47672">
        <ele>222</ele>
        <time>2020-09-12T07:35:19.000Z</time>
      </trkpt>
      <trkpt lat="46.69064" lon="5.47687">
        <ele>222</ele>
        <time>2020-09-12T07:35:21.000Z</time>
      </trkpt>
      <trkpt lat="46.69074" lon="5.47703">
        <ele>222</ele>
        <time>2020-09-12T07:35:23.000Z</time>
      </trkpt>
      <trkpt lat="46.69083" lon="5.47718">
        <ele>222</ele>
        <time>2020-09-12T07:35:25.000Z</time>
      </trkpt>
      <trkpt lat="46.69093" lon="5.47734">
        <ele>222</ele>
        <time>2020-09-12T07:35:27.000Z</time>
      </trkpt>
      <trkpt lat="46.69103" lon="5.47749">
        <ele>222</ele>
        <time>2020-09-12T07:35:29.000Z</time>
      </trkpt>
      <trkpt lat="46.69113" lon="5.47765">
        <ele>222</ele>
        <time>2020-09-12T07:35:31.000Z</time>
      </trkpt>
      <trkpt lat="46.69122" lon="5.4778">
        <ele>222</ele>
        <time>2020-09-12T07:35:33.000Z</time>
      </trkpt>
      <trkpt lat="46.69132" lon="5.47797">
        <ele>222</ele>
        <time>2020-09-12T07:35:35.000Z</time>
      </trkpt>
      <trkpt lat="46.69142" lon="5.47812">
        <ele>222</ele>
        <time>2020-09-12T07:35:37.000Z</time>
      </trkpt>
      <trkpt lat="46.69152" lon="5.47828">
        <ele>221.80000305176</ele>
        <time>2020-09-12T07:35:39.000Z</time>
      </trkpt>
      <trkpt lat="46.69162" lon="5.47843">
        <ele>221.80000305176</ele>
        <time>2020-09-12T07:35:41.000Z</time>
      </trkpt>
      <trkpt lat="46.69172" lon="5.47859">
        <ele>221.80000305176</ele>
        <time>2020-09-12T07:35:43.000Z</time>
      </trkpt>
      <trkpt lat="46.69182" lon="5.47876">
        <ele>221.60000610352</ele>
        <time>2020-09-12T07:35:45.000Z</time>
      </trkpt>
      <trkpt lat="46.69192" lon="5.47893">
        <ele>221.60000610352</ele>
        <time>2020-09-12T07:35:47.000Z</time>
      </trkpt>
      <trkpt lat="46.69198" lon="5.47901">
        <ele>221.60000610352</ele>
        <time>2020-09-12T07:35:48.000Z</time>
      </trkpt>
      <trkpt lat="46.69203" lon="5.4791">
        <ele>221.60000610352</ele>
        <time>2020-09-12T07:35:49.000Z</time>
      </trkpt>
      <trkpt lat="46.69213" lon="5.47927">
        <ele>221.39999389648</ele>
        <time>2020-09-12T07:35:51.000Z</time>
      </trkpt>
      <trkpt lat="46.69224" lon="5.47944">
        <ele>221.39999389648</ele>
        <time>2020-09-12T07:35:53.000Z</time>
      </trkpt>
      <trkpt lat="46.6923" lon="5.47952">
        <ele>220.60000610352</ele>
        <time>2020-09-12T07:35:54.000Z</time>
      </trkpt>
      <trkpt lat="46.69237" lon="5.47957">
        <ele>220.39999389648</ele>
        <time>2020-09-12T07:35:55.000Z</time>
      </trkpt>
      <trkpt lat="46.69251" lon="5.47958">
        <ele>219.80000305176</ele>
        <time>2020-09-12T07:35:57.000Z</time>
      </trkpt>
      <trkpt lat="46.69264" lon="5.47947">
        <ele>219.19999694824</ele>
        <time>2020-09-12T07:35:59.000Z</time>
      </trkpt>
      <trkpt lat="46.69271" lon="5.47941">
        <ele>219.19999694824</ele>
        <time>2020-09-12T07:36:00.000Z</time>
      </trkpt>
      <trkpt lat="46.69278" lon="5.47933">
        <ele>219</ele>
        <time>2020-09-12T07:36:01.000Z</time>
      </trkpt>
      <trkpt lat="46.69292" lon="5.4792">
        <ele>218.80000305176</ele>
        <time>2020-09-12T07:36:03.000Z</time>
      </trkpt>
      <trkpt lat="46.69307" lon="5.47907">
        <ele>218.60000610352</ele>
        <time>2020-09-12T07:36:05.000Z</time>
      </trkpt>
      <trkpt lat="46.69315" lon="5.47902">
        <ele>218.39999389648</ele>
        <time>2020-09-12T07:36:06.000Z</time>
      </trkpt>
      <trkpt lat="46.69324" lon="5.479">
        <ele>218.39999389648</ele>
        <time>2020-09-12T07:36:07.000Z</time>
      </trkpt>
      <trkpt lat="46.6934" lon="5.47897">
        <ele>218</ele>
        <time>2020-09-12T07:36:09.000Z</time>
      </trkpt>
      <trkpt lat="46.69348" lon="5.47897">
        <ele>217.19999694824</ele>
        <time>2020-09-12T07:36:10.000Z</time>
      </trkpt>
      <trkpt lat="46.69356" lon="5.47896">
        <ele>217</ele>
        <time>2020-09-12T07:36:11.000Z</time>
      </trkpt>
      <trkpt lat="46.69372" lon="5.47895">
        <ele>216.39999389648</ele>
        <time>2020-09-12T07:36:13.000Z</time>
      </trkpt>
      <trkpt lat="46.69387" lon="5.47892">
        <ele>216.19999694824</ele>
        <time>2020-09-12T07:36:15.000Z</time>
      </trkpt>
      <trkpt lat="46.69402" lon="5.4789">
        <ele>216</ele>
        <time>2020-09-12T07:36:17.000Z</time>
      </trkpt>
      <trkpt lat="46.69409" lon="5.47889">
        <ele>216</ele>
        <time>2020-09-12T07:36:18.000Z</time>
      </trkpt>
      <trkpt lat="46.69417" lon="5.47887">
        <ele>216</ele>
        <time>2020-09-12T07:36:19.000Z</time>
      </trkpt>
      <trkpt lat="46.69431" lon="5.47885">
        <ele>216</ele>
        <time>2020-09-12T07:36:21.000Z</time>
      </trkpt>
      <trkpt lat="46.69445" lon="5.47882">
        <ele>216</ele>
        <time>2020-09-12T07:36:23.000Z</time>
      </trkpt>
      <trkpt lat="46.6946" lon="5.47879">
        <ele>216.19999694824</ele>
        <time>2020-09-12T07:36:25.000Z</time>
      </trkpt>
      <trkpt lat="46.69474" lon="5.47878">
        <ele>216.19999694824</ele>
        <time>2020-09-12T07:36:27.000Z</time>
      </trkpt>
      <trkpt lat="46.69481" lon="5.47878">
        <ele>216.19999694824</ele>
        <time>2020-09-12T07:36:28.000Z</time>
      </trkpt>
      <trkpt lat="46.69488" lon="5.47878">
        <ele>216.19999694824</ele>
        <time>2020-09-12T07:36:29.000Z</time>
      </trkpt>
      <trkpt lat="46.69502" lon="5.47882">
        <ele>216.19999694824</ele>
        <time>2020-09-12T07:36:31.000Z</time>
      </trkpt>
      <trkpt lat="46.69515" lon="5.47886">
        <ele>216.39999389648</ele>
        <time>2020-09-12T07:36:33.000Z</time>
      </trkpt>
      <trkpt lat="46.69527" lon="5.4789">
        <ele>216.60000610352</ele>
        <time>2020-09-12T07:36:35.000Z</time>
      </trkpt>
      <trkpt lat="46.69538" lon="5.47894">
        <ele>216.80000305176</ele>
        <time>2020-09-12T07:36:37.000Z</time>
      </trkpt>
      <trkpt lat="46.69543" lon="5.47897">
        <ele>216.80000305176</ele>
        <time>2020-09-12T07:36:38.000Z</time>
      </trkpt>
      <trkpt lat="46.69549" lon="5.479">
        <ele>216.80000305176</ele>
        <time>2020-09-12T07:36:39.000Z</time>
      </trkpt>
      <trkpt lat="46.69558" lon="5.47909">
        <ele>217.19999694824</ele>
        <time>2020-09-12T07:36:41.000Z</time>
      </trkpt>
      <trkpt lat="46.69567" lon="5.47919">
        <ele>218</ele>
        <time>2020-09-12T07:36:43.000Z</time>
      </trkpt>
      <trkpt lat="46.69571" lon="5.47926">
        <ele>218.19999694824</ele>
        <time>2020-09-12T07:36:44.000Z</time>
      </trkpt>
      <trkpt lat="46.69576" lon="5.47932">
        <ele>218.39999389648</ele>
        <time>2020-09-12T07:36:45.000Z</time>
      </trkpt>
      <trkpt lat="46.69584" lon="5.47946">
        <ele>219.19999694824</ele>
        <time>2020-09-12T07:36:47.000Z</time>
      </trkpt>
      <trkpt lat="46.69592" lon="5.4796">
        <ele>219.60000610352</ele>
        <time>2020-09-12T07:36:49.000Z</time>
      </trkpt>
      <trkpt lat="46.69596" lon="5.47968">
        <ele>219.80000305176</ele>
        <time>2020-09-12T07:36:50.000Z</time>
      </trkpt>
      <trkpt lat="46.69601" lon="5.47975">
        <ele>220</ele>
        <time>2020-09-12T07:36:51.000Z</time>
      </trkpt>
      <trkpt lat="46.6961" lon="5.4799">
        <ele>220</ele>
        <time>2020-09-12T07:36:53.000Z</time>
      </trkpt>
      <trkpt lat="46.69619" lon="5.48004">
        <ele>220</ele>
        <time>2020-09-12T07:36:55.000Z</time>
      </trkpt>
      <trkpt lat="46.69628" lon="5.48018">
        <ele>220.19999694824</ele>
        <time>2020-09-12T07:36:57.000Z</time>
      </trkpt>
      <trkpt lat="46.69637" lon="5.48032">
        <ele>220.19999694824</ele>
        <time>2020-09-12T07:36:59.000Z</time>
      </trkpt>
      <trkpt lat="46.69647" lon="5.48045">
        <ele>220.19999694824</ele>
        <time>2020-09-12T07:37:01.000Z</time>
      </trkpt>
      <trkpt lat="46.69656" lon="5.48058">
        <ele>220.19999694824</ele>
        <time>2020-09-12T07:37:03.000Z</time>
      </trkpt>
      <trkpt lat="46.69665" lon="5.48072">
        <ele>220.39999389648</ele>
        <time>2020-09-12T07:37:05.000Z</time>
      </trkpt>
      <trkpt lat="46.69674" lon="5.48085">
        <ele>220.39999389648</ele>
        <time>2020-09-12T07:37:07.000Z</time>
      </trkpt>
      <trkpt lat="46.69683" lon="5.48098">
        <ele>220.60000610352</ele>
        <time>2020-09-12T07:37:09.000Z</time>
      </trkpt>
      <trkpt lat="46.69692" lon="5.48112">
        <ele>220.80000305176</ele>
        <time>2020-09-12T07:37:11.000Z</time>
      </trkpt>
      <trkpt lat="46.69696" lon="5.48119">
        <ele>220.80000305176</ele>
        <time>2020-09-12T07:37:12.000Z</time>
      </trkpt>
      <trkpt lat="46.69701" lon="5.48126">
        <ele>221</ele>
        <time>2020-09-12T07:37:13.000Z</time>
      </trkpt>
      <trkpt lat="46.6971" lon="5.48139">
        <ele>221.19999694824</ele>
        <time>2020-09-12T07:37:15.000Z</time>
      </trkpt>
      <trkpt lat="46.69718" lon="5.48153">
        <ele>221.39999389648</ele>
        <time>2020-09-12T07:37:17.000Z</time>
      </trkpt>
      <trkpt lat="46.69727" lon="5.48166">
        <ele>221.39999389648</ele>
        <time>2020-09-12T07:37:19.000Z</time>
      </trkpt>
      <trkpt lat="46.69732" lon="5.48173">
        <ele>221.60000610352</ele>
        <time>2020-09-12T07:37:20.000Z</time>
      </trkpt>
      <trkpt lat="46.69736" lon="5.4818">
        <ele>221.60000610352</ele>
        <time>2020-09-12T07:37:21.000Z</time>
      </trkpt>
      <trkpt lat="46.69745" lon="5.48193">
        <ele>221.80000305176</ele>
        <time>2020-09-12T07:37:23.000Z</time>
      </trkpt>
      <trkpt lat="46.69753" lon="5.48206">
        <ele>222</ele>
        <time>2020-09-12T07:37:25.000Z</time>
      </trkpt>
      <trkpt lat="46.69761" lon="5.4822">
        <ele>222</ele>
        <time>2020-09-12T07:37:27.000Z</time>
      </trkpt>
      <trkpt lat="46.69765" lon="5.48227">
        <ele>222.19999694824</ele>
        <time>2020-09-12T07:37:28.000Z</time>
      </trkpt>
      <trkpt lat="46.69769" lon="5.48234">
        <ele>222.19999694824</ele>
        <time>2020-09-12T07:37:29.000Z</time>
      </trkpt>
      <trkpt lat="46.69777" lon="5.48247">
        <ele>222.60000610352</ele>
        <time>2020-09-12T07:37:31.000Z</time>
      </trkpt>
      <trkpt lat="46.69786" lon="5.4826">
        <ele>222.80000305176</ele>
        <time>2020-09-12T07:37:33.000Z</time>
      </trkpt>
      <trkpt lat="46.69795" lon="5.48272">
        <ele>223</ele>
        <time>2020-09-12T07:37:35.000Z</time>
      </trkpt>
      <trkpt lat="46.69805" lon="5.48285">
        <ele>223.19999694824</ele>
        <time>2020-09-12T07:37:37.000Z</time>
      </trkpt>
      <trkpt lat="46.69814" lon="5.48299">
        <ele>223.19999694824</ele>
        <time>2020-09-12T07:37:39.000Z</time>
      </trkpt>
      <trkpt lat="46.69822" lon="5.48312">
        <ele>223.19999694824</ele>
        <time>2020-09-12T07:37:41.000Z</time>
      </trkpt>
      <trkpt lat="46.69832" lon="5.48326">
        <ele>223.39999389648</ele>
        <time>2020-09-12T07:37:43.000Z</time>
      </trkpt>
      <trkpt lat="46.69842" lon="5.4834">
        <ele>223.60000610352</ele>
        <time>2020-09-12T07:37:45.000Z</time>
      </trkpt>
      <trkpt lat="46.69851" lon="5.48356">
        <ele>223.60000610352</ele>
        <time>2020-09-12T07:37:47.000Z</time>
      </trkpt>
      <trkpt lat="46.69857" lon="5.48364">
        <ele>223.60000610352</ele>
        <time>2020-09-12T07:37:48.000Z</time>
      </trkpt>
      <trkpt lat="46.69862" lon="5.48372">
        <ele>223.60000610352</ele>
        <time>2020-09-12T07:37:49.000Z</time>
      </trkpt>
      <trkpt lat="46.69872" lon="5.48387">
        <ele>223.60000610352</ele>
        <time>2020-09-12T07:37:51.000Z</time>
      </trkpt>
      <trkpt lat="46.69882" lon="5.48403">
        <ele>223.39999389648</ele>
        <time>2020-09-12T07:37:53.000Z</time>
      </trkpt>
      <trkpt lat="46.69892" lon="5.48418">
        <ele>223.39999389648</ele>
        <time>2020-09-12T07:37:55.000Z</time>
      </trkpt>
      <trkpt lat="46.69901" lon="5.48433">
        <ele>223.19999694824</ele>
        <time>2020-09-12T07:37:57.000Z</time>
      </trkpt>
      <trkpt lat="46.69911" lon="5.48446">
        <ele>223.19999694824</ele>
        <time>2020-09-12T07:37:59.000Z</time>
      </trkpt>
      <trkpt lat="46.69919" lon="5.4846">
        <ele>223.19999694824</ele>
        <time>2020-09-12T07:38:01.000Z</time>
      </trkpt>
      <trkpt lat="46.69928" lon="5.48473">
        <ele>223.19999694824</ele>
        <time>2020-09-12T07:38:03.000Z</time>
      </trkpt>
      <trkpt lat="46.69937" lon="5.48486">
        <ele>223.39999389648</ele>
        <time>2020-09-12T07:38:05.000Z</time>
      </trkpt>
      <trkpt lat="46.69941" lon="5.48492">
        <ele>223.60000610352</ele>
        <time>2020-09-12T07:38:06.000Z</time>
      </trkpt>
      <trkpt lat="46.69945" lon="5.48499">
        <ele>223.60000610352</ele>
        <time>2020-09-12T07:38:07.000Z</time>
      </trkpt>
      <trkpt lat="46.69949" lon="5.48506">
        <ele>223.80000305176</ele>
        <time>2020-09-12T07:38:08.000Z</time>
      </trkpt>
      <trkpt lat="46.69954" lon="5.48512">
        <ele>224.19999694824</ele>
        <time>2020-09-12T07:38:09.000Z</time>
      </trkpt>
      <trkpt lat="46.69959" lon="5.48518">
        <ele>224.39999389648</ele>
        <time>2020-09-12T07:38:10.000Z</time>
      </trkpt>
      <trkpt lat="46.69968" lon="5.48531">
        <ele>224.60000610352</ele>
        <time>2020-09-12T07:38:12.000Z</time>
      </trkpt>
      <trkpt lat="46.69972" lon="5.48538">
        <ele>224.60000610352</ele>
        <time>2020-09-12T07:38:13.000Z</time>
      </trkpt>
      <trkpt lat="46.69977" lon="5.48544">
        <ele>224.60000610352</ele>
        <time>2020-09-12T07:38:14.000Z</time>
      </trkpt>
      <trkpt lat="46.69985" lon="5.48557">
        <ele>224.60000610352</ele>
        <time>2020-09-12T07:38:16.000Z</time>
      </trkpt>
      <trkpt lat="46.69994" lon="5.48571">
        <ele>224.80000305176</ele>
        <time>2020-09-12T07:38:18.000Z</time>
      </trkpt>
      <trkpt lat="46.70002" lon="5.48586">
        <ele>225</ele>
        <time>2020-09-12T07:38:20.000Z</time>
      </trkpt>
      <trkpt lat="46.70011" lon="5.486">
        <ele>225.19999694824</ele>
        <time>2020-09-12T07:38:22.000Z</time>
      </trkpt>
      <trkpt lat="46.70021" lon="5.48612">
        <ele>225.39999389648</ele>
        <time>2020-09-12T07:38:24.000Z</time>
      </trkpt>
      <trkpt lat="46.7003" lon="5.48624">
        <ele>225.60000610352</ele>
        <time>2020-09-12T07:38:26.000Z</time>
      </trkpt>
      <trkpt lat="46.70041" lon="5.48625">
        <ele>225.60000610352</ele>
        <time>2020-09-12T07:38:28.000Z</time>
      </trkpt>
      <trkpt lat="46.70048" lon="5.48621">
        <ele>225.60000610352</ele>
        <time>2020-09-12T07:38:29.000Z</time>
      </trkpt>
      <trkpt lat="46.70053" lon="5.48615">
        <ele>225.60000610352</ele>
        <time>2020-09-12T07:38:30.000Z</time>
      </trkpt>
      <trkpt lat="46.70064" lon="5.486">
        <ele>225.60000610352</ele>
        <time>2020-09-12T07:38:32.000Z</time>
      </trkpt>
      <trkpt lat="46.7007" lon="5.48592">
        <ele>225.60000610352</ele>
        <time>2020-09-12T07:38:33.000Z</time>
      </trkpt>
      <trkpt lat="46.70076" lon="5.48584">
        <ele>225.60000610352</ele>
        <time>2020-09-12T07:38:34.000Z</time>
      </trkpt>
      <trkpt lat="46.70088" lon="5.48569">
        <ele>225.39999389648</ele>
        <time>2020-09-12T07:38:36.000Z</time>
      </trkpt>
      <trkpt lat="46.701" lon="5.48554">
        <ele>224.80000305176</ele>
        <time>2020-09-12T07:38:38.000Z</time>
      </trkpt>
      <trkpt lat="46.70113" lon="5.48541">
        <ele>224.60000610352</ele>
        <time>2020-09-12T07:38:40.000Z</time>
      </trkpt>
      <trkpt lat="46.70126" lon="5.48528">
        <ele>224.19999694824</ele>
        <time>2020-09-12T07:38:42.000Z</time>
      </trkpt>
      <trkpt lat="46.7014" lon="5.48517">
        <ele>223.80000305176</ele>
        <time>2020-09-12T07:38:44.000Z</time>
      </trkpt>
      <trkpt lat="46.70153" lon="5.48507">
        <ele>223.39999389648</ele>
        <time>2020-09-12T07:38:46.000Z</time>
      </trkpt>
      <trkpt lat="46.70167" lon="5.48499">
        <ele>223.39999389648</ele>
        <time>2020-09-12T07:38:48.000Z</time>
      </trkpt>
      <trkpt lat="46.70181" lon="5.4849">
        <ele>223.39999389648</ele>
        <time>2020-09-12T07:38:50.000Z</time>
      </trkpt>
      <trkpt lat="46.70195" lon="5.48483">
        <ele>223.39999389648</ele>
        <time>2020-09-12T07:38:52.000Z</time>
      </trkpt>
      <trkpt lat="46.7021" lon="5.48475">
        <ele>223.60000610352</ele>
        <time>2020-09-12T07:38:54.000Z</time>
      </trkpt>
      <trkpt lat="46.70217" lon="5.48471">
        <ele>223.60000610352</ele>
        <time>2020-09-12T07:38:55.000Z</time>
      </trkpt>
      <trkpt lat="46.70224" lon="5.48467">
        <ele>223.80000305176</ele>
        <time>2020-09-12T07:38:56.000Z</time>
      </trkpt>
      <trkpt lat="46.70239" lon="5.48459">
        <ele>223.80000305176</ele>
        <time>2020-09-12T07:38:58.000Z</time>
      </trkpt>
      <trkpt lat="46.70253" lon="5.4845">
        <ele>223.80000305176</ele>
        <time>2020-09-12T07:39:00.000Z</time>
      </trkpt>
      <trkpt lat="46.70267" lon="5.48442">
        <ele>223.80000305176</ele>
        <time>2020-09-12T07:39:02.000Z</time>
      </trkpt>
      <trkpt lat="46.70282" lon="5.48435">
        <ele>223.80000305176</ele>
        <time>2020-09-12T07:39:04.000Z</time>
      </trkpt>
      <trkpt lat="46.7029" lon="5.48431">
        <ele>223.80000305176</ele>
        <time>2020-09-12T07:39:05.000Z</time>
      </trkpt>
      <trkpt lat="46.70297" lon="5.48427">
        <ele>223.80000305176</ele>
        <time>2020-09-12T07:39:06.000Z</time>
      </trkpt>
      <trkpt lat="46.70312" lon="5.48419">
        <ele>223.80000305176</ele>
        <time>2020-09-12T07:39:08.000Z</time>
      </trkpt>
      <trkpt lat="46.70327" lon="5.48412">
        <ele>223.60000610352</ele>
        <time>2020-09-12T07:39:10.000Z</time>
      </trkpt>
      <trkpt lat="46.70341" lon="5.48403">
        <ele>223.60000610352</ele>
        <time>2020-09-12T07:39:12.000Z</time>
      </trkpt>
      <trkpt lat="46.70357" lon="5.48395">
        <ele>223.60000610352</ele>
        <time>2020-09-12T07:39:14.000Z</time>
      </trkpt>
      <trkpt lat="46.70372" lon="5.48386">
        <ele>223.60000610352</ele>
        <time>2020-09-12T07:39:16.000Z</time>
      </trkpt>
      <trkpt lat="46.70387" lon="5.48378">
        <ele>223.60000610352</ele>
        <time>2020-09-12T07:39:18.000Z</time>
      </trkpt>
      <trkpt lat="46.70402" lon="5.48368">
        <ele>223.39999389648</ele>
        <time>2020-09-12T07:39:20.000Z</time>
      </trkpt>
      <trkpt lat="46.70418" lon="5.48359">
        <ele>223.39999389648</ele>
        <time>2020-09-12T07:39:22.000Z</time>
      </trkpt>
      <trkpt lat="46.70426" lon="5.48354">
        <ele>223.39999389648</ele>
        <time>2020-09-12T07:39:23.000Z</time>
      </trkpt>
      <trkpt lat="46.70433" lon="5.48349">
        <ele>223.39999389648</ele>
        <time>2020-09-12T07:39:24.000Z</time>
      </trkpt>
      <trkpt lat="46.70449" lon="5.48339">
        <ele>223.39999389648</ele>
        <time>2020-09-12T07:39:26.000Z</time>
      </trkpt>
      <trkpt lat="46.70465" lon="5.48329">
        <ele>223.39999389648</ele>
        <time>2020-09-12T07:39:28.000Z</time>
      </trkpt>
      <trkpt lat="46.70481" lon="5.48319">
        <ele>223.19999694824</ele>
        <time>2020-09-12T07:39:30.000Z</time>
      </trkpt>
      <trkpt lat="46.70497" lon="5.4831">
        <ele>223.19999694824</ele>
        <time>2020-09-12T07:39:32.000Z</time>
      </trkpt>
      <trkpt lat="46.70505" lon="5.48305">
        <ele>223.19999694824</ele>
        <time>2020-09-12T07:39:33.000Z</time>
      </trkpt>
      <trkpt lat="46.70514" lon="5.483">
        <ele>223</ele>
        <time>2020-09-12T07:39:34.000Z</time>
      </trkpt>
      <trkpt lat="46.70531" lon="5.48291">
        <ele>222.60000610352</ele>
        <time>2020-09-12T07:39:36.000Z</time>
      </trkpt>
      <trkpt lat="46.7054" lon="5.48287">
        <ele>222.39999389648</ele>
        <time>2020-09-12T07:39:37.000Z</time>
      </trkpt>
      <trkpt lat="46.70549" lon="5.48282">
        <ele>222.19999694824</ele>
        <time>2020-09-12T07:39:38.000Z</time>
      </trkpt>
      <trkpt lat="46.70567" lon="5.48273">
        <ele>222</ele>
        <time>2020-09-12T07:39:40.000Z</time>
      </trkpt>
      <trkpt lat="46.70584" lon="5.48263">
        <ele>221.60000610352</ele>
        <time>2020-09-12T07:39:42.000Z</time>
      </trkpt>
      <trkpt lat="46.70593" lon="5.48258">
        <ele>221.39999389648</ele>
        <time>2020-09-12T07:39:43.000Z</time>
      </trkpt>
      <trkpt lat="46.70602" lon="5.48253">
        <ele>221</ele>
        <time>2020-09-12T07:39:44.000Z</time>
      </trkpt>
      <trkpt lat="46.70619" lon="5.48242">
        <ele>220.39999389648</ele>
        <time>2020-09-12T07:39:46.000Z</time>
      </trkpt>
      <trkpt lat="46.70628" lon="5.48237">
        <ele>220.19999694824</ele>
        <time>2020-09-12T07:39:47.000Z</time>
      </trkpt>
      <trkpt lat="46.70637" lon="5.48232">
        <ele>220</ele>
        <time>2020-09-12T07:39:48.000Z</time>
      </trkpt>
      <trkpt lat="46.70654" lon="5.48222">
        <ele>219.39999389648</ele>
        <time>2020-09-12T07:39:50.000Z</time>
      </trkpt>
      <trkpt lat="46.70662" lon="5.48217">
        <ele>219.19999694824</ele>
        <time>2020-09-12T07:39:51.000Z</time>
      </trkpt>
      <trkpt lat="46.70671" lon="5.48211">
        <ele>219</ele>
        <time>2020-09-12T07:39:52.000Z</time>
      </trkpt>
      <trkpt lat="46.7068" lon="5.48206">
        <ele>219</ele>
        <time>2020-09-12T07:39:53.000Z</time>
      </trkpt>
      <trkpt lat="46.70688" lon="5.48201">
        <ele>218.80000305176</ele>
        <time>2020-09-12T07:39:54.000Z</time>
      </trkpt>
      <trkpt lat="46.70706" lon="5.4819">
        <ele>218.60000610352</ele>
        <time>2020-09-12T07:39:56.000Z</time>
      </trkpt>
      <trkpt lat="46.70723" lon="5.4818">
        <ele>218.39999389648</ele>
        <time>2020-09-12T07:39:58.000Z</time>
      </trkpt>
      <trkpt lat="46.7074" lon="5.48169">
        <ele>218.19999694824</ele>
        <time>2020-09-12T07:40:00.000Z</time>
      </trkpt>
      <trkpt lat="46.70758" lon="5.48158">
        <ele>217.80000305176</ele>
        <time>2020-09-12T07:40:02.000Z</time>
      </trkpt>
      <trkpt lat="46.70776" lon="5.48147">
        <ele>217.80000305176</ele>
        <time>2020-09-12T07:40:04.000Z</time>
      </trkpt>
      <trkpt lat="46.70785" lon="5.48142">
        <ele>217.60000610352</ele>
        <time>2020-09-12T07:40:05.000Z</time>
      </trkpt>
      <trkpt lat="46.70794" lon="5.48137">
        <ele>217.60000610352</ele>
        <time>2020-09-12T07:40:06.000Z</time>
      </trkpt>
      <trkpt lat="46.70812" lon="5.48126">
        <ele>217.19999694824</ele>
        <time>2020-09-12T07:40:08.000Z</time>
      </trkpt>
      <trkpt lat="46.70821" lon="5.48121">
        <ele>217</ele>
        <time>2020-09-12T07:40:09.000Z</time>
      </trkpt>
      <trkpt lat="46.7083" lon="5.48115">
        <ele>216.80000305176</ele>
        <time>2020-09-12T07:40:10.000Z</time>
      </trkpt>
      <trkpt lat="46.70849" lon="5.48104">
        <ele>216.19999694824</ele>
        <time>2020-09-12T07:40:12.000Z</time>
      </trkpt>
      <trkpt lat="46.70858" lon="5.48099">
        <ele>215.60000610352</ele>
        <time>2020-09-12T07:40:13.000Z</time>
      </trkpt>
      <trkpt lat="46.70868" lon="5.48093">
        <ele>215.19999694824</ele>
        <time>2020-09-12T07:40:14.000Z</time>
      </trkpt>
      <trkpt lat="46.70878" lon="5.48087">
        <ele>215</ele>
        <time>2020-09-12T07:40:15.000Z</time>
      </trkpt>
      <trkpt lat="46.70887" lon="5.48082">
        <ele>214.39999389648</ele>
        <time>2020-09-12T07:40:16.000Z</time>
      </trkpt>
      <trkpt lat="46.70907" lon="5.4807">
        <ele>213.60000610352</ele>
        <time>2020-09-12T07:40:18.000Z</time>
      </trkpt>
      <trkpt lat="46.70918" lon="5.48065">
        <ele>213.19999694824</ele>
        <time>2020-09-12T07:40:19.000Z</time>
      </trkpt>
      <trkpt lat="46.70928" lon="5.48059">
        <ele>212.80000305176</ele>
        <time>2020-09-12T07:40:20.000Z</time>
      </trkpt>
      <trkpt lat="46.70938" lon="5.48053">
        <ele>212.19999694824</ele>
        <time>2020-09-12T07:40:21.000Z</time>
      </trkpt>
      <trkpt lat="46.70948" lon="5.48047">
        <ele>211.80000305176</ele>
        <time>2020-09-12T07:40:22.000Z</time>
      </trkpt>
      <trkpt lat="46.70959" lon="5.4804">
        <ele>211.19999694824</ele>
        <time>2020-09-12T07:40:23.000Z</time>
      </trkpt>
      <trkpt lat="46.70969" lon="5.48034">
        <ele>210.60000610352</ele>
        <time>2020-09-12T07:40:24.000Z</time>
      </trkpt>
      <trkpt lat="46.7098" lon="5.48027">
        <ele>210</ele>
        <time>2020-09-12T07:40:25.000Z</time>
      </trkpt>
      <trkpt lat="46.7099" lon="5.48021">
        <ele>209.39999389648</ele>
        <time>2020-09-12T07:40:26.000Z</time>
      </trkpt>
      <trkpt lat="46.71001" lon="5.48015">
        <ele>208.80000305176</ele>
        <time>2020-09-12T07:40:27.000Z</time>
      </trkpt>
      <trkpt lat="46.71011" lon="5.48008">
        <ele>208.19999694824</ele>
        <time>2020-09-12T07:40:28.000Z</time>
      </trkpt>
      <trkpt lat="46.71031" lon="5.47995">
        <ele>207.39999389648</ele>
        <time>2020-09-12T07:40:30.000Z</time>
      </trkpt>
      <trkpt lat="46.71051" lon="5.47982">
        <ele>206.19999694824</ele>
        <time>2020-09-12T07:40:32.000Z</time>
      </trkpt>
      <trkpt lat="46.71061" lon="5.47976">
        <ele>205.60000610352</ele>
        <time>2020-09-12T07:40:33.000Z</time>
      </trkpt>
      <trkpt lat="46.7107" lon="5.4797">
        <ele>204.80000305176</ele>
        <time>2020-09-12T07:40:34.000Z</time>
      </trkpt>
      <trkpt lat="46.71089" lon="5.47957">
        <ele>203.39999389648</ele>
        <time>2020-09-12T07:40:36.000Z</time>
      </trkpt>
      <trkpt lat="46.71106" lon="5.47945">
        <ele>203</ele>
        <time>2020-09-12T07:40:38.000Z</time>
      </trkpt>
      <trkpt lat="46.71124" lon="5.47932">
        <ele>202.80000305176</ele>
        <time>2020-09-12T07:40:40.000Z</time>
      </trkpt>
      <trkpt lat="46.71141" lon="5.4792">
        <ele>202.80000305176</ele>
        <time>2020-09-12T07:40:42.000Z</time>
      </trkpt>
      <trkpt lat="46.71158" lon="5.47908">
        <ele>202.80000305176</ele>
        <time>2020-09-12T07:40:44.000Z</time>
      </trkpt>
      <trkpt lat="46.71174" lon="5.47896">
        <ele>202.60000610352</ele>
        <time>2020-09-12T07:40:46.000Z</time>
      </trkpt>
      <trkpt lat="46.7119" lon="5.47884">
        <ele>202.60000610352</ele>
        <time>2020-09-12T07:40:48.000Z</time>
      </trkpt>
      <trkpt lat="46.71207" lon="5.47873">
        <ele>202.80000305176</ele>
        <time>2020-09-12T07:40:50.000Z</time>
      </trkpt>
      <trkpt lat="46.71215" lon="5.47867">
        <ele>202.80000305176</ele>
        <time>2020-09-12T07:40:51.000Z</time>
      </trkpt>
      <trkpt lat="46.71223" lon="5.47862">
        <ele>202.80000305176</ele>
        <time>2020-09-12T07:40:52.000Z</time>
      </trkpt>
      <trkpt lat="46.71238" lon="5.47851">
        <ele>202.80000305176</ele>
        <time>2020-09-12T07:40:54.000Z</time>
      </trkpt>
      <trkpt lat="46.71254" lon="5.4784">
        <ele>202.80000305176</ele>
        <time>2020-09-12T07:40:56.000Z</time>
      </trkpt>
      <trkpt lat="46.71269" lon="5.47829">
        <ele>202.80000305176</ele>
        <time>2020-09-12T07:40:58.000Z</time>
      </trkpt>
      <trkpt lat="46.71284" lon="5.47817">
        <ele>202.80000305176</ele>
        <time>2020-09-12T07:41:00.000Z</time>
      </trkpt>
      <trkpt lat="46.71298" lon="5.47805">
        <ele>202.80000305176</ele>
        <time>2020-09-12T07:41:02.000Z</time>
      </trkpt>
      <trkpt lat="46.71312" lon="5.47792">
        <ele>203</ele>
        <time>2020-09-12T07:41:04.000Z</time>
      </trkpt>
      <trkpt lat="46.71326" lon="5.47778">
        <ele>203</ele>
        <time>2020-09-12T07:41:06.000Z</time>
      </trkpt>
      <trkpt lat="46.71338" lon="5.47764">
        <ele>203.19999694824</ele>
        <time>2020-09-12T07:41:08.000Z</time>
      </trkpt>
      <trkpt lat="46.71351" lon="5.47748">
        <ele>203.19999694824</ele>
        <time>2020-09-12T07:41:10.000Z</time>
      </trkpt>
      <trkpt lat="46.71363" lon="5.47732">
        <ele>203.39999389648</ele>
        <time>2020-09-12T07:41:12.000Z</time>
      </trkpt>
      <trkpt lat="46.71374" lon="5.47716">
        <ele>203.39999389648</ele>
        <time>2020-09-12T07:41:14.000Z</time>
      </trkpt>
      <trkpt lat="46.7138" lon="5.47709">
        <ele>203.60000610352</ele>
        <time>2020-09-12T07:41:15.000Z</time>
      </trkpt>
      <trkpt lat="46.71387" lon="5.47705">
        <ele>203.60000610352</ele>
        <time>2020-09-12T07:41:16.000Z</time>
      </trkpt>
      <trkpt lat="46.71395" lon="5.47703">
        <ele>203.60000610352</ele>
        <time>2020-09-12T07:41:17.000Z</time>
      </trkpt>
      <trkpt lat="46.71411" lon="5.47706">
        <ele>203.60000610352</ele>
        <time>2020-09-12T07:41:19.000Z</time>
      </trkpt>
      <trkpt lat="46.71428" lon="5.47709">
        <ele>203.60000610352</ele>
        <time>2020-09-12T07:41:21.000Z</time>
      </trkpt>
      <trkpt lat="46.71436" lon="5.47707">
        <ele>203.60000610352</ele>
        <time>2020-09-12T07:41:22.000Z</time>
      </trkpt>
      <trkpt lat="46.71444" lon="5.47704">
        <ele>203.60000610352</ele>
        <time>2020-09-12T07:41:23.000Z</time>
      </trkpt>
      <trkpt lat="46.71453" lon="5.47699">
        <ele>203.60000610352</ele>
        <time>2020-09-12T07:41:24.000Z</time>
      </trkpt>
      <trkpt lat="46.7146" lon="5.47694">
        <ele>203.60000610352</ele>
        <time>2020-09-12T07:41:25.000Z</time>
      </trkpt>
      <trkpt lat="46.71468" lon="5.47689">
        <ele>203.60000610352</ele>
        <time>2020-09-12T07:41:26.000Z</time>
      </trkpt>
      <trkpt lat="46.71483" lon="5.47679">
        <ele>203.39999389648</ele>
        <time>2020-09-12T07:41:28.000Z</time>
      </trkpt>
      <trkpt lat="46.71491" lon="5.47673">
        <ele>203</ele>
        <time>2020-09-12T07:41:29.000Z</time>
      </trkpt>
      <trkpt lat="46.71499" lon="5.47668">
        <ele>202.80000305176</ele>
        <time>2020-09-12T07:41:30.000Z</time>
      </trkpt>
      <trkpt lat="46.71506" lon="5.47663">
        <ele>202.19999694824</ele>
        <time>2020-09-12T07:41:31.000Z</time>
      </trkpt>
      <trkpt lat="46.71514" lon="5.47658">
        <ele>202</ele>
        <time>2020-09-12T07:41:32.000Z</time>
      </trkpt>
      <trkpt lat="46.7153" lon="5.47647">
        <ele>201.60000610352</ele>
        <time>2020-09-12T07:41:34.000Z</time>
      </trkpt>
      <trkpt lat="46.71545" lon="5.47637">
        <ele>201.39999389648</ele>
        <time>2020-09-12T07:41:36.000Z</time>
      </trkpt>
      <trkpt lat="46.7156" lon="5.47627">
        <ele>201.39999389648</ele>
        <time>2020-09-12T07:41:38.000Z</time>
      </trkpt>
      <trkpt lat="46.71574" lon="5.47616">
        <ele>201.19999694824</ele>
        <time>2020-09-12T07:41:40.000Z</time>
      </trkpt>
      <trkpt lat="46.71589" lon="5.47606">
        <ele>201.19999694824</ele>
        <time>2020-09-12T07:41:42.000Z</time>
      </trkpt>
      <trkpt lat="46.71603" lon="5.47597">
        <ele>201.19999694824</ele>
        <time>2020-09-12T07:41:44.000Z</time>
      </trkpt>
      <trkpt lat="46.71617" lon="5.47588">
        <ele>201.19999694824</ele>
        <time>2020-09-12T07:41:46.000Z</time>
      </trkpt>
      <trkpt lat="46.71625" lon="5.47584">
        <ele>201.19999694824</ele>
        <time>2020-09-12T07:41:47.000Z</time>
      </trkpt>
      <trkpt lat="46.71633" lon="5.47583">
        <ele>201.19999694824</ele>
        <time>2020-09-12T07:41:48.000Z</time>
      </trkpt>
      <trkpt lat="46.71648" lon="5.47582">
        <ele>201.39999389648</ele>
        <time>2020-09-12T07:41:50.000Z</time>
      </trkpt>
      <trkpt lat="46.71655" lon="5.47583">
        <ele>201.39999389648</ele>
        <time>2020-09-12T07:41:51.000Z</time>
      </trkpt>
      <trkpt lat="46.71662" lon="5.47584">
        <ele>201.39999389648</ele>
        <time>2020-09-12T07:41:52.000Z</time>
      </trkpt>
      <trkpt lat="46.71676" lon="5.47585">
        <ele>201.19999694824</ele>
        <time>2020-09-12T07:41:54.000Z</time>
      </trkpt>
      <trkpt lat="46.7169" lon="5.47583">
        <ele>201.60000610352</ele>
        <time>2020-09-12T07:41:56.000Z</time>
      </trkpt>
      <trkpt lat="46.71703" lon="5.47578">
        <ele>201.60000610352</ele>
        <time>2020-09-12T07:41:58.000Z</time>
      </trkpt>
      <trkpt lat="46.71716" lon="5.47574">
        <ele>201.80000305176</ele>
        <time>2020-09-12T07:42:00.000Z</time>
      </trkpt>
      <trkpt lat="46.7173" lon="5.47578">
        <ele>202</ele>
        <time>2020-09-12T07:42:02.000Z</time>
      </trkpt>
      <trkpt lat="46.71741" lon="5.47596">
        <ele>202.19999694824</ele>
        <time>2020-09-12T07:42:04.000Z</time>
      </trkpt>
      <trkpt lat="46.71744" lon="5.47607">
        <ele>202.19999694824</ele>
        <time>2020-09-12T07:42:05.000Z</time>
      </trkpt>
      <trkpt lat="46.71749" lon="5.47618">
        <ele>202.19999694824</ele>
        <time>2020-09-12T07:42:06.000Z</time>
      </trkpt>
      <trkpt lat="46.71762" lon="5.47635">
        <ele>202.19999694824</ele>
        <time>2020-09-12T07:42:08.000Z</time>
      </trkpt>
      <trkpt lat="46.71779" lon="5.47645">
        <ele>202.19999694824</ele>
        <time>2020-09-12T07:42:10.000Z</time>
      </trkpt>
      <trkpt lat="46.71788" lon="5.47649">
        <ele>201.60000610352</ele>
        <time>2020-09-12T07:42:11.000Z</time>
      </trkpt>
      <trkpt lat="46.71797" lon="5.47652">
        <ele>200</ele>
        <time>2020-09-12T07:42:12.000Z</time>
      </trkpt>
      <trkpt lat="46.71814" lon="5.47658">
        <ele>198.80000305176</ele>
        <time>2020-09-12T07:42:14.000Z</time>
      </trkpt>
      <trkpt lat="46.71831" lon="5.47662">
        <ele>198</ele>
        <time>2020-09-12T07:42:16.000Z</time>
      </trkpt>
      <trkpt lat="46.7184" lon="5.47663">
        <ele>197.60000610352</ele>
        <time>2020-09-12T07:42:17.000Z</time>
      </trkpt>
      <trkpt lat="46.71849" lon="5.47664">
        <ele>197.39999389648</ele>
        <time>2020-09-12T07:42:18.000Z</time>
      </trkpt>
      <trkpt lat="46.71866" lon="5.47664">
        <ele>197.19999694824</ele>
        <time>2020-09-12T07:42:20.000Z</time>
      </trkpt>
      <trkpt lat="46.71883" lon="5.47663">
        <ele>197</ele>
        <time>2020-09-12T07:42:22.000Z</time>
      </trkpt>
      <trkpt lat="46.71899" lon="5.47663">
        <ele>197</ele>
        <time>2020-09-12T07:42:24.000Z</time>
      </trkpt>
      <trkpt lat="46.71908" lon="5.47662">
        <ele>197</ele>
        <time>2020-09-12T07:42:25.000Z</time>
      </trkpt>
      <trkpt lat="46.71916" lon="5.47661">
        <ele>197</ele>
        <time>2020-09-12T07:42:26.000Z</time>
      </trkpt>
      <trkpt lat="46.71932" lon="5.4766">
        <ele>197</ele>
        <time>2020-09-12T07:42:28.000Z</time>
      </trkpt>
      <trkpt lat="46.71948" lon="5.47658">
        <ele>197</ele>
        <time>2020-09-12T07:42:30.000Z</time>
      </trkpt>
      <trkpt lat="46.71964" lon="5.47657">
        <ele>197.19999694824</ele>
        <time>2020-09-12T07:42:32.000Z</time>
      </trkpt>
      <trkpt lat="46.7198" lon="5.47655">
        <ele>197.19999694824</ele>
        <time>2020-09-12T07:42:34.000Z</time>
      </trkpt>
      <trkpt lat="46.71996" lon="5.47653">
        <ele>197.39999389648</ele>
        <time>2020-09-12T07:42:36.000Z</time>
      </trkpt>
      <trkpt lat="46.72004" lon="5.47652">
        <ele>197.39999389648</ele>
        <time>2020-09-12T07:42:37.000Z</time>
      </trkpt>
      <trkpt lat="46.72012" lon="5.47651">
        <ele>197.39999389648</ele>
        <time>2020-09-12T07:42:38.000Z</time>
      </trkpt>
      <trkpt lat="46.72027" lon="5.47649">
        <ele>197.39999389648</ele>
        <time>2020-09-12T07:42:40.000Z</time>
      </trkpt>
      <trkpt lat="46.72043" lon="5.47648">
        <ele>197.19999694824</ele>
        <time>2020-09-12T07:42:42.000Z</time>
      </trkpt>
      <trkpt lat="46.72059" lon="5.47647">
        <ele>197.19999694824</ele>
        <time>2020-09-12T07:42:44.000Z</time>
      </trkpt>
      <trkpt lat="46.72075" lon="5.47646">
        <ele>197.19999694824</ele>
        <time>2020-09-12T07:42:46.000Z</time>
      </trkpt>
      <trkpt lat="46.72091" lon="5.47644">
        <ele>197</ele>
        <time>2020-09-12T07:42:48.000Z</time>
      </trkpt>
      <trkpt lat="46.72099" lon="5.47643">
        <ele>197</ele>
        <time>2020-09-12T07:42:49.000Z</time>
      </trkpt>
      <trkpt lat="46.72106" lon="5.47641">
        <ele>196.80000305176</ele>
        <time>2020-09-12T07:42:50.000Z</time>
      </trkpt>
      <trkpt lat="46.72122" lon="5.47639">
        <ele>196.80000305176</ele>
        <time>2020-09-12T07:42:52.000Z</time>
      </trkpt>
      <trkpt lat="46.72138" lon="5.47638">
        <ele>196.80000305176</ele>
        <time>2020-09-12T07:42:54.000Z</time>
      </trkpt>
      <trkpt lat="46.72145" lon="5.47637">
        <ele>196.80000305176</ele>
        <time>2020-09-12T07:42:55.000Z</time>
      </trkpt>
      <trkpt lat="46.72153" lon="5.47637">
        <ele>196.60000610352</ele>
        <time>2020-09-12T07:42:56.000Z</time>
      </trkpt>
      <trkpt lat="46.72168" lon="5.47635">
        <ele>196.60000610352</ele>
        <time>2020-09-12T07:42:58.000Z</time>
      </trkpt>
      <trkpt lat="46.72183" lon="5.47634">
        <ele>196.60000610352</ele>
        <time>2020-09-12T07:43:00.000Z</time>
      </trkpt>
      <trkpt lat="46.72199" lon="5.47633">
        <ele>196.60000610352</ele>
        <time>2020-09-12T07:43:02.000Z</time>
      </trkpt>
      <trkpt lat="46.72206" lon="5.47633">
        <ele>196.60000610352</ele>
        <time>2020-09-12T07:43:03.000Z</time>
      </trkpt>
      <trkpt lat="46.72214" lon="5.47632">
        <ele>196.60000610352</ele>
        <time>2020-09-12T07:43:04.000Z</time>
      </trkpt>
      <trkpt lat="46.72229" lon="5.47631">
        <ele>196.39999389648</ele>
        <time>2020-09-12T07:43:06.000Z</time>
      </trkpt>
      <trkpt lat="46.72244" lon="5.4763">
        <ele>196.39999389648</ele>
        <time>2020-09-12T07:43:08.000Z</time>
      </trkpt>
      <trkpt lat="46.72259" lon="5.47629">
        <ele>196.39999389648</ele>
        <time>2020-09-12T07:43:10.000Z</time>
      </trkpt>
      <trkpt lat="46.72274" lon="5.47629">
        <ele>196.19999694824</ele>
        <time>2020-09-12T07:43:12.000Z</time>
      </trkpt>
      <trkpt lat="46.72281" lon="5.47631">
        <ele>196.19999694824</ele>
        <time>2020-09-12T07:43:13.000Z</time>
      </trkpt>
      <trkpt lat="46.72289" lon="5.47633">
        <ele>196.19999694824</ele>
        <time>2020-09-12T07:43:14.000Z</time>
      </trkpt>
      <trkpt lat="46.72304" lon="5.47639">
        <ele>196.19999694824</ele>
        <time>2020-09-12T07:43:16.000Z</time>
      </trkpt>
      <trkpt lat="46.72319" lon="5.47646">
        <ele>196.19999694824</ele>
        <time>2020-09-12T07:43:18.000Z</time>
      </trkpt>
      <trkpt lat="46.72334" lon="5.47652">
        <ele>196.19999694824</ele>
        <time>2020-09-12T07:43:20.000Z</time>
      </trkpt>
      <trkpt lat="46.72348" lon="5.47658">
        <ele>196.19999694824</ele>
        <time>2020-09-12T07:43:22.000Z</time>
      </trkpt>
      <trkpt lat="46.72363" lon="5.47664">
        <ele>196.39999389648</ele>
        <time>2020-09-12T07:43:24.000Z</time>
      </trkpt>
      <trkpt lat="46.72377" lon="5.4767">
        <ele>196.39999389648</ele>
        <time>2020-09-12T07:43:26.000Z</time>
      </trkpt>
      <trkpt lat="46.72392" lon="5.47676">
        <ele>196.39999389648</ele>
        <time>2020-09-12T07:43:28.000Z</time>
      </trkpt>
      <trkpt lat="46.72406" lon="5.47682">
        <ele>196.39999389648</ele>
        <time>2020-09-12T07:43:30.000Z</time>
      </trkpt>
      <trkpt lat="46.72421" lon="5.47688">
        <ele>196.39999389648</ele>
        <time>2020-09-12T07:43:32.000Z</time>
      </trkpt>
      <trkpt lat="46.72435" lon="5.47694">
        <ele>196.39999389648</ele>
        <time>2020-09-12T07:43:34.000Z</time>
      </trkpt>
      <trkpt lat="46.72449" lon="5.477">
        <ele>196.39999389648</ele>
        <time>2020-09-12T07:43:36.000Z</time>
      </trkpt>
      <trkpt lat="46.72463" lon="5.47705">
        <ele>196.39999389648</ele>
        <time>2020-09-12T07:43:38.000Z</time>
      </trkpt>
      <trkpt lat="46.7247" lon="5.47708">
        <ele>196.39999389648</ele>
        <time>2020-09-12T07:43:39.000Z</time>
      </trkpt>
      <trkpt lat="46.72477" lon="5.47711">
        <ele>196.39999389648</ele>
        <time>2020-09-12T07:43:40.000Z</time>
      </trkpt>
      <trkpt lat="46.72491" lon="5.47717">
        <ele>196.39999389648</ele>
        <time>2020-09-12T07:43:42.000Z</time>
      </trkpt>
      <trkpt lat="46.72505" lon="5.47724">
        <ele>196.39999389648</ele>
        <time>2020-09-12T07:43:44.000Z</time>
      </trkpt>
      <trkpt lat="46.72519" lon="5.47733">
        <ele>196.39999389648</ele>
        <time>2020-09-12T07:43:46.000Z</time>
      </trkpt>
      <trkpt lat="46.72532" lon="5.47742">
        <ele>196.39999389648</ele>
        <time>2020-09-12T07:43:48.000Z</time>
      </trkpt>
      <trkpt lat="46.72545" lon="5.47752">
        <ele>196.39999389648</ele>
        <time>2020-09-12T07:43:50.000Z</time>
      </trkpt>
      <trkpt lat="46.72558" lon="5.47761">
        <ele>196.39999389648</ele>
        <time>2020-09-12T07:43:52.000Z</time>
      </trkpt>
      <trkpt lat="46.72571" lon="5.47771">
        <ele>196.60000610352</ele>
        <time>2020-09-12T07:43:54.000Z</time>
      </trkpt>
      <trkpt lat="46.72584" lon="5.47781">
        <ele>196.60000610352</ele>
        <time>2020-09-12T07:43:56.000Z</time>
      </trkpt>
      <trkpt lat="46.72597" lon="5.4779">
        <ele>196.60000610352</ele>
        <time>2020-09-12T07:43:58.000Z</time>
      </trkpt>
      <trkpt lat="46.72609" lon="5.478">
        <ele>196.60000610352</ele>
        <time>2020-09-12T07:44:00.000Z</time>
      </trkpt>
      <trkpt lat="46.72622" lon="5.4781">
        <ele>196.60000610352</ele>
        <time>2020-09-12T07:44:02.000Z</time>
      </trkpt>
      <trkpt lat="46.72635" lon="5.47819">
        <ele>196.60000610352</ele>
        <time>2020-09-12T07:44:04.000Z</time>
      </trkpt>
      <trkpt lat="46.72648" lon="5.47828">
        <ele>196.80000305176</ele>
        <time>2020-09-12T07:44:06.000Z</time>
      </trkpt>
      <trkpt lat="46.72661" lon="5.47838">
        <ele>196.80000305176</ele>
        <time>2020-09-12T07:44:08.000Z</time>
      </trkpt>
      <trkpt lat="46.72673" lon="5.47848">
        <ele>196.80000305176</ele>
        <time>2020-09-12T07:44:10.000Z</time>
      </trkpt>
      <trkpt lat="46.72686" lon="5.47857">
        <ele>197</ele>
        <time>2020-09-12T07:44:12.000Z</time>
      </trkpt>
      <trkpt lat="46.727" lon="5.47867">
        <ele>197</ele>
        <time>2020-09-12T07:44:14.000Z</time>
      </trkpt>
      <trkpt lat="46.72713" lon="5.47877">
        <ele>197</ele>
        <time>2020-09-12T07:44:16.000Z</time>
      </trkpt>
      <trkpt lat="46.72719" lon="5.47881">
        <ele>197</ele>
        <time>2020-09-12T07:44:17.000Z</time>
      </trkpt>
      <trkpt lat="46.72726" lon="5.47886">
        <ele>197</ele>
        <time>2020-09-12T07:44:18.000Z</time>
      </trkpt>
      <trkpt lat="46.72739" lon="5.47896">
        <ele>197</ele>
        <time>2020-09-12T07:44:20.000Z</time>
      </trkpt>
      <trkpt lat="46.72751" lon="5.47906">
        <ele>197</ele>
        <time>2020-09-12T07:44:22.000Z</time>
      </trkpt>
      <trkpt lat="46.72764" lon="5.47916">
        <ele>197.19999694824</ele>
        <time>2020-09-12T07:44:24.000Z</time>
      </trkpt>
      <trkpt lat="46.72777" lon="5.47926">
        <ele>197.19999694824</ele>
        <time>2020-09-12T07:44:26.000Z</time>
      </trkpt>
      <trkpt lat="46.72791" lon="5.47935">
        <ele>197.39999389648</ele>
        <time>2020-09-12T07:44:28.000Z</time>
      </trkpt>
      <trkpt lat="46.72804" lon="5.47945">
        <ele>197.39999389648</ele>
        <time>2020-09-12T07:44:30.000Z</time>
      </trkpt>
      <trkpt lat="46.72811" lon="5.47949">
        <ele>197.39999389648</ele>
        <time>2020-09-12T07:44:31.000Z</time>
      </trkpt>
      <trkpt lat="46.72818" lon="5.47954">
        <ele>197.39999389648</ele>
        <time>2020-09-12T07:44:32.000Z</time>
      </trkpt>
      <trkpt lat="46.72831" lon="5.47963">
        <ele>197.39999389648</ele>
        <time>2020-09-12T07:44:34.000Z</time>
      </trkpt>
      <trkpt lat="46.72844" lon="5.47972">
        <ele>197.39999389648</ele>
        <time>2020-09-12T07:44:36.000Z</time>
      </trkpt>
      <trkpt lat="46.72858" lon="5.47981">
        <ele>197.39999389648</ele>
        <time>2020-09-12T07:44:38.000Z</time>
      </trkpt>
      <trkpt lat="46.72864" lon="5.47985">
        <ele>197.39999389648</ele>
        <time>2020-09-12T07:44:39.000Z</time>
      </trkpt>
      <trkpt lat="46.72871" lon="5.4799">
        <ele>197.39999389648</ele>
        <time>2020-09-12T07:44:40.000Z</time>
      </trkpt>
      <trkpt lat="46.72883" lon="5.48">
        <ele>197.39999389648</ele>
        <time>2020-09-12T07:44:42.000Z</time>
      </trkpt>
      <trkpt lat="46.72896" lon="5.48009">
        <ele>197.19999694824</ele>
        <time>2020-09-12T07:44:44.000Z</time>
      </trkpt>
      <trkpt lat="46.72909" lon="5.48019">
        <ele>197.19999694824</ele>
        <time>2020-09-12T07:44:46.000Z</time>
      </trkpt>
      <trkpt lat="46.72916" lon="5.48023">
        <ele>197.19999694824</ele>
        <time>2020-09-12T07:44:47.000Z</time>
      </trkpt>
      <trkpt lat="46.72922" lon="5.48028">
        <ele>197.19999694824</ele>
        <time>2020-09-12T07:44:48.000Z</time>
      </trkpt>
      <trkpt lat="46.72935" lon="5.48037">
        <ele>197.19999694824</ele>
        <time>2020-09-12T07:44:50.000Z</time>
      </trkpt>
      <trkpt lat="46.72947" lon="5.48046">
        <ele>197.19999694824</ele>
        <time>2020-09-12T07:44:52.000Z</time>
      </trkpt>
      <trkpt lat="46.7296" lon="5.48056">
        <ele>197.19999694824</ele>
        <time>2020-09-12T07:44:54.000Z</time>
      </trkpt>
      <trkpt lat="46.72973" lon="5.48065">
        <ele>197.39999389648</ele>
        <time>2020-09-12T07:44:56.000Z</time>
      </trkpt>
      <trkpt lat="46.72986" lon="5.48073">
        <ele>197.39999389648</ele>
        <time>2020-09-12T07:44:58.000Z</time>
      </trkpt>
      <trkpt lat="46.72999" lon="5.48083">
        <ele>197.39999389648</ele>
        <time>2020-09-12T07:45:00.000Z</time>
      </trkpt>
      <trkpt lat="46.73011" lon="5.48092">
        <ele>197.39999389648</ele>
        <time>2020-09-12T07:45:02.000Z</time>
      </trkpt>
      <trkpt lat="46.73024" lon="5.48101">
        <ele>197.39999389648</ele>
        <time>2020-09-12T07:45:04.000Z</time>
      </trkpt>
      <trkpt lat="46.73036" lon="5.48109">
        <ele>197.60000610352</ele>
        <time>2020-09-12T07:45:06.000Z</time>
      </trkpt>
      <trkpt lat="46.73043" lon="5.48113">
        <ele>197.60000610352</ele>
        <time>2020-09-12T07:45:07.000Z</time>
      </trkpt>
      <trkpt lat="46.73049" lon="5.48117">
        <ele>197.60000610352</ele>
        <time>2020-09-12T07:45:08.000Z</time>
      </trkpt>
      <trkpt lat="46.73055" lon="5.4812">
        <ele>197.60000610352</ele>
        <time>2020-09-12T07:45:09.000Z</time>
      </trkpt>
      <trkpt lat="46.73061" lon="5.48124">
        <ele>197.80000305176</ele>
        <time>2020-09-12T07:45:10.000Z</time>
      </trkpt>
      <trkpt lat="46.73074" lon="5.48129">
        <ele>197.80000305176</ele>
        <time>2020-09-12T07:45:12.000Z</time>
      </trkpt>
      <trkpt lat="46.73086" lon="5.48135">
        <ele>197.80000305176</ele>
        <time>2020-09-12T07:45:14.000Z</time>
      </trkpt>
      <trkpt lat="46.73093" lon="5.48137">
        <ele>197.80000305176</ele>
        <time>2020-09-12T07:45:15.000Z</time>
      </trkpt>
      <trkpt lat="46.73099" lon="5.4814">
        <ele>197.80000305176</ele>
        <time>2020-09-12T07:45:16.000Z</time>
      </trkpt>
      <trkpt lat="46.73111" lon="5.48145">
        <ele>198</ele>
        <time>2020-09-12T07:45:18.000Z</time>
      </trkpt>
      <trkpt lat="46.73124" lon="5.4815">
        <ele>198</ele>
        <time>2020-09-12T07:45:20.000Z</time>
      </trkpt>
      <trkpt lat="46.73137" lon="5.48156">
        <ele>198.19999694824</ele>
        <time>2020-09-12T07:45:22.000Z</time>
      </trkpt>
      <trkpt lat="46.73143" lon="5.48159">
        <ele>198.19999694824</ele>
        <time>2020-09-12T07:45:23.000Z</time>
      </trkpt>
      <trkpt lat="46.7315" lon="5.48162">
        <ele>198.19999694824</ele>
        <time>2020-09-12T07:45:24.000Z</time>
      </trkpt>
      <trkpt lat="46.73163" lon="5.48167">
        <ele>198.19999694824</ele>
        <time>2020-09-12T07:45:26.000Z</time>
      </trkpt>
      <trkpt lat="46.73176" lon="5.48172">
        <ele>198.19999694824</ele>
        <time>2020-09-12T07:45:28.000Z</time>
      </trkpt>
      <trkpt lat="46.7319" lon="5.48178">
        <ele>198.19999694824</ele>
        <time>2020-09-12T07:45:30.000Z</time>
      </trkpt>
      <trkpt lat="46.73203" lon="5.48184">
        <ele>198</ele>
        <time>2020-09-12T07:45:32.000Z</time>
      </trkpt>
      <trkpt lat="46.73216" lon="5.4819">
        <ele>198</ele>
        <time>2020-09-12T07:45:34.000Z</time>
      </trkpt>
      <trkpt lat="46.73229" lon="5.48195">
        <ele>198</ele>
        <time>2020-09-12T07:45:36.000Z</time>
      </trkpt>
      <trkpt lat="46.73243" lon="5.482">
        <ele>198</ele>
        <time>2020-09-12T07:45:38.000Z</time>
      </trkpt>
      <trkpt lat="46.73256" lon="5.48205">
        <ele>198.19999694824</ele>
        <time>2020-09-12T07:45:40.000Z</time>
      </trkpt>
      <trkpt lat="46.73269" lon="5.48211">
        <ele>198.19999694824</ele>
        <time>2020-09-12T07:45:42.000Z</time>
      </trkpt>
      <trkpt lat="46.73282" lon="5.48217">
        <ele>198.19999694824</ele>
        <time>2020-09-12T07:45:44.000Z</time>
      </trkpt>
      <trkpt lat="46.73296" lon="5.48223">
        <ele>198.39999389648</ele>
        <time>2020-09-12T07:45:46.000Z</time>
      </trkpt>
      <trkpt lat="46.73309" lon="5.48228">
        <ele>198.39999389648</ele>
        <time>2020-09-12T07:45:48.000Z</time>
      </trkpt>
      <trkpt lat="46.73322" lon="5.48234">
        <ele>198.39999389648</ele>
        <time>2020-09-12T07:45:50.000Z</time>
      </trkpt>
      <trkpt lat="46.73329" lon="5.48236">
        <ele>198.39999389648</ele>
        <time>2020-09-12T07:45:51.000Z</time>
      </trkpt>
      <trkpt lat="46.73336" lon="5.48239">
        <ele>198.39999389648</ele>
        <time>2020-09-12T07:45:52.000Z</time>
      </trkpt>
      <trkpt lat="46.73349" lon="5.48245">
        <ele>198.39999389648</ele>
        <time>2020-09-12T07:45:54.000Z</time>
      </trkpt>
      <trkpt lat="46.73363" lon="5.48251">
        <ele>198.39999389648</ele>
        <time>2020-09-12T07:45:56.000Z</time>
      </trkpt>
      <trkpt lat="46.73376" lon="5.48256">
        <ele>198.39999389648</ele>
        <time>2020-09-12T07:45:58.000Z</time>
      </trkpt>
      <trkpt lat="46.7339" lon="5.48262">
        <ele>198.60000610352</ele>
        <time>2020-09-12T07:46:00.000Z</time>
      </trkpt>
      <trkpt lat="46.73404" lon="5.48268">
        <ele>198.60000610352</ele>
        <time>2020-09-12T07:46:02.000Z</time>
      </trkpt>
      <trkpt lat="46.73417" lon="5.48274">
        <ele>198.60000610352</ele>
        <time>2020-09-12T07:46:04.000Z</time>
      </trkpt>
      <trkpt lat="46.7343" lon="5.48281">
        <ele>198.60000610352</ele>
        <time>2020-09-12T07:46:06.000Z</time>
      </trkpt>
      <trkpt lat="46.73443" lon="5.48288">
        <ele>198.60000610352</ele>
        <time>2020-09-12T07:46:08.000Z</time>
      </trkpt>
      <trkpt lat="46.7345" lon="5.48292">
        <ele>198.60000610352</ele>
        <time>2020-09-12T07:46:09.000Z</time>
      </trkpt>
      <trkpt lat="46.73456" lon="5.48296">
        <ele>198.60000610352</ele>
        <time>2020-09-12T07:46:10.000Z</time>
      </trkpt>
      <trkpt lat="46.73469" lon="5.48305">
        <ele>198.60000610352</ele>
        <time>2020-09-12T07:46:12.000Z</time>
      </trkpt>
      <trkpt lat="46.73482" lon="5.48312">
        <ele>198.80000305176</ele>
        <time>2020-09-12T07:46:14.000Z</time>
      </trkpt>
      <trkpt lat="46.73495" lon="5.4832">
        <ele>198.80000305176</ele>
        <time>2020-09-12T07:46:16.000Z</time>
      </trkpt>
      <trkpt lat="46.73508" lon="5.48328">
        <ele>198.80000305176</ele>
        <time>2020-09-12T07:46:18.000Z</time>
      </trkpt>
      <trkpt lat="46.73514" lon="5.48332">
        <ele>198.80000305176</ele>
        <time>2020-09-12T07:46:19.000Z</time>
      </trkpt>
      <trkpt lat="46.7352" lon="5.48336">
        <ele>198.80000305176</ele>
        <time>2020-09-12T07:46:20.000Z</time>
      </trkpt>
      <trkpt lat="46.73527" lon="5.4834">
        <ele>198.80000305176</ele>
        <time>2020-09-12T07:46:21.000Z</time>
      </trkpt>
      <trkpt lat="46.73533" lon="5.48344">
        <ele>198.80000305176</ele>
        <time>2020-09-12T07:46:22.000Z</time>
      </trkpt>
      <trkpt lat="46.73546" lon="5.48352">
        <ele>198.80000305176</ele>
        <time>2020-09-12T07:46:24.000Z</time>
      </trkpt>
      <trkpt lat="46.73558" lon="5.4836">
        <ele>198.80000305176</ele>
        <time>2020-09-12T07:46:26.000Z</time>
      </trkpt>
      <trkpt lat="46.73571" lon="5.48368">
        <ele>198.80000305176</ele>
        <time>2020-09-12T07:46:28.000Z</time>
      </trkpt>
      <trkpt lat="46.73584" lon="5.48376">
        <ele>198.80000305176</ele>
        <time>2020-09-12T07:46:30.000Z</time>
      </trkpt>
      <trkpt lat="46.73596" lon="5.48385">
        <ele>198.80000305176</ele>
        <time>2020-09-12T07:46:32.000Z</time>
      </trkpt>
      <trkpt lat="46.73609" lon="5.48392">
        <ele>198.80000305176</ele>
        <time>2020-09-12T07:46:34.000Z</time>
      </trkpt>
      <trkpt lat="46.73621" lon="5.48401">
        <ele>198.80000305176</ele>
        <time>2020-09-12T07:46:36.000Z</time>
      </trkpt>
      <trkpt lat="46.73634" lon="5.48409">
        <ele>198.80000305176</ele>
        <time>2020-09-12T07:46:38.000Z</time>
      </trkpt>
      <trkpt lat="46.73646" lon="5.48416">
        <ele>198.80000305176</ele>
        <time>2020-09-12T07:46:40.000Z</time>
      </trkpt>
      <trkpt lat="46.73659" lon="5.48424">
        <ele>198.80000305176</ele>
        <time>2020-09-12T07:46:42.000Z</time>
      </trkpt>
      <trkpt lat="46.73672" lon="5.48433">
        <ele>199</ele>
        <time>2020-09-12T07:46:44.000Z</time>
      </trkpt>
      <trkpt lat="46.73684" lon="5.48441">
        <ele>199.19999694824</ele>
        <time>2020-09-12T07:46:46.000Z</time>
      </trkpt>
      <trkpt lat="46.73697" lon="5.4845">
        <ele>199.39999389648</ele>
        <time>2020-09-12T07:46:48.000Z</time>
      </trkpt>
      <trkpt lat="46.73709" lon="5.48459">
        <ele>199.39999389648</ele>
        <time>2020-09-12T07:46:50.000Z</time>
      </trkpt>
      <trkpt lat="46.73722" lon="5.48468">
        <ele>199.60000610352</ele>
        <time>2020-09-12T07:46:52.000Z</time>
      </trkpt>
      <trkpt lat="46.73734" lon="5.48476">
        <ele>199.60000610352</ele>
        <time>2020-09-12T07:46:54.000Z</time>
      </trkpt>
      <trkpt lat="46.73747" lon="5.48485">
        <ele>199.80000305176</ele>
        <time>2020-09-12T07:46:56.000Z</time>
      </trkpt>
      <trkpt lat="46.73759" lon="5.48493">
        <ele>200</ele>
        <time>2020-09-12T07:46:58.000Z</time>
      </trkpt>
      <trkpt lat="46.73772" lon="5.48502">
        <ele>200.19999694824</ele>
        <time>2020-09-12T07:47:00.000Z</time>
      </trkpt>
      <trkpt lat="46.73785" lon="5.48511">
        <ele>200.19999694824</ele>
        <time>2020-09-12T07:47:02.000Z</time>
      </trkpt>
      <trkpt lat="46.73798" lon="5.48519">
        <ele>200.19999694824</ele>
        <time>2020-09-12T07:47:04.000Z</time>
      </trkpt>
      <trkpt lat="46.73811" lon="5.48527">
        <ele>200.19999694824</ele>
        <time>2020-09-12T07:47:06.000Z</time>
      </trkpt>
      <trkpt lat="46.73824" lon="5.48535">
        <ele>200.19999694824</ele>
        <time>2020-09-12T07:47:08.000Z</time>
      </trkpt>
      <trkpt lat="46.73837" lon="5.48544">
        <ele>200.39999389648</ele>
        <time>2020-09-12T07:47:10.000Z</time>
      </trkpt>
      <trkpt lat="46.7385" lon="5.48553">
        <ele>200.39999389648</ele>
        <time>2020-09-12T07:47:12.000Z</time>
      </trkpt>
      <trkpt lat="46.73863" lon="5.48562">
        <ele>200.39999389648</ele>
        <time>2020-09-12T07:47:14.000Z</time>
      </trkpt>
      <trkpt lat="46.73876" lon="5.48571">
        <ele>200.60000610352</ele>
        <time>2020-09-12T07:47:16.000Z</time>
      </trkpt>
      <trkpt lat="46.73889" lon="5.4858">
        <ele>200.60000610352</ele>
        <time>2020-09-12T07:47:18.000Z</time>
      </trkpt>
      <trkpt lat="46.73903" lon="5.48588">
        <ele>200.60000610352</ele>
        <time>2020-09-12T07:47:20.000Z</time>
      </trkpt>
      <trkpt lat="46.73916" lon="5.48597">
        <ele>200.60000610352</ele>
        <time>2020-09-12T07:47:22.000Z</time>
      </trkpt>
      <trkpt lat="46.7393" lon="5.48603">
        <ele>200.60000610352</ele>
        <time>2020-09-12T07:47:24.000Z</time>
      </trkpt>
      <trkpt lat="46.73945" lon="5.48608">
        <ele>200.60000610352</ele>
        <time>2020-09-12T07:47:26.000Z</time>
      </trkpt>
      <trkpt lat="46.7396" lon="5.48607">
        <ele>200.60000610352</ele>
        <time>2020-09-12T07:47:28.000Z</time>
      </trkpt>
      <trkpt lat="46.73974" lon="5.48604">
        <ele>200.39999389648</ele>
        <time>2020-09-12T07:47:30.000Z</time>
      </trkpt>
      <trkpt lat="46.73988" lon="5.48597">
        <ele>200.39999389648</ele>
        <time>2020-09-12T07:47:32.000Z</time>
      </trkpt>
      <trkpt lat="46.74002" lon="5.48589">
        <ele>200.39999389648</ele>
        <time>2020-09-12T07:47:34.000Z</time>
      </trkpt>
      <trkpt lat="46.74008" lon="5.48584">
        <ele>200.39999389648</ele>
        <time>2020-09-12T07:47:35.000Z</time>
      </trkpt>
      <trkpt lat="46.74015" lon="5.48579">
        <ele>200.39999389648</ele>
        <time>2020-09-12T07:47:36.000Z</time>
      </trkpt>
      <trkpt lat="46.74028" lon="5.48569">
        <ele>200.39999389648</ele>
        <time>2020-09-12T07:47:38.000Z</time>
      </trkpt>
      <trkpt lat="46.74041" lon="5.48559">
        <ele>200.39999389648</ele>
        <time>2020-09-12T07:47:40.000Z</time>
      </trkpt>
      <trkpt lat="46.74055" lon="5.48549">
        <ele>200.39999389648</ele>
        <time>2020-09-12T07:47:42.000Z</time>
      </trkpt>
      <trkpt lat="46.74068" lon="5.48539">
        <ele>200.39999389648</ele>
        <time>2020-09-12T07:47:44.000Z</time>
      </trkpt>
      <trkpt lat="46.74081" lon="5.4853">
        <ele>200.39999389648</ele>
        <time>2020-09-12T07:47:46.000Z</time>
      </trkpt>
      <trkpt lat="46.74094" lon="5.48521">
        <ele>200.39999389648</ele>
        <time>2020-09-12T07:47:48.000Z</time>
      </trkpt>
      <trkpt lat="46.74107" lon="5.48511">
        <ele>200.39999389648</ele>
        <time>2020-09-12T07:47:50.000Z</time>
      </trkpt>
      <trkpt lat="46.74113" lon="5.48506">
        <ele>200.60000610352</ele>
        <time>2020-09-12T07:47:51.000Z</time>
      </trkpt>
      <trkpt lat="46.7412" lon="5.48502">
        <ele>200.60000610352</ele>
        <time>2020-09-12T07:47:52.000Z</time>
      </trkpt>
      <trkpt lat="46.74132" lon="5.48494">
        <ele>200.60000610352</ele>
        <time>2020-09-12T07:47:54.000Z</time>
      </trkpt>
      <trkpt lat="46.74138" lon="5.4849">
        <ele>200.60000610352</ele>
        <time>2020-09-12T07:47:55.000Z</time>
      </trkpt>
      <trkpt lat="46.74145" lon="5.48487">
        <ele>200.60000610352</ele>
        <time>2020-09-12T07:47:56.000Z</time>
      </trkpt>
      <trkpt lat="46.74159" lon="5.48486">
        <ele>200.60000610352</ele>
        <time>2020-09-12T07:47:58.000Z</time>
      </trkpt>
      <trkpt lat="46.74165" lon="5.48488">
        <ele>200.80000305176</ele>
        <time>2020-09-12T07:47:59.000Z</time>
      </trkpt>
      <trkpt lat="46.74171" lon="5.48491">
        <ele>200.80000305176</ele>
        <time>2020-09-12T07:48:00.000Z</time>
      </trkpt>
      <trkpt lat="46.74183" lon="5.48503">
        <ele>200.80000305176</ele>
        <time>2020-09-12T07:48:02.000Z</time>
      </trkpt>
      <trkpt lat="46.74191" lon="5.4852">
        <ele>200.80000305176</ele>
        <time>2020-09-12T07:48:04.000Z</time>
      </trkpt>
      <trkpt lat="46.74195" lon="5.4853">
        <ele>200.80000305176</ele>
        <time>2020-09-12T07:48:05.000Z</time>
      </trkpt>
      <trkpt lat="46.74197" lon="5.48541">
        <ele>200.80000305176</ele>
        <time>2020-09-12T07:48:06.000Z</time>
      </trkpt>
      <trkpt lat="46.74202" lon="5.48561">
        <ele>200.80000305176</ele>
        <time>2020-09-12T07:48:08.000Z</time>
      </trkpt>
      <trkpt lat="46.74207" lon="5.48582">
        <ele>200.80000305176</ele>
        <time>2020-09-12T07:48:10.000Z</time>
      </trkpt>
      <trkpt lat="46.74212" lon="5.48603">
        <ele>200.60000610352</ele>
        <time>2020-09-12T07:48:12.000Z</time>
      </trkpt>
      <trkpt lat="46.74213" lon="5.48613">
        <ele>200.60000610352</ele>
        <time>2020-09-12T07:48:13.000Z</time>
      </trkpt>
      <trkpt lat="46.74214" lon="5.48624">
        <ele>200.60000610352</ele>
        <time>2020-09-12T07:48:14.000Z</time>
      </trkpt>
      <trkpt lat="46.74215" lon="5.48646">
        <ele>200.39999389648</ele>
        <time>2020-09-12T07:48:16.000Z</time>
      </trkpt>
      <trkpt lat="46.74216" lon="5.48667">
        <ele>200.39999389648</ele>
        <time>2020-09-12T07:48:18.000Z</time>
      </trkpt>
      <trkpt lat="46.74217" lon="5.48689">
        <ele>200.39999389648</ele>
        <time>2020-09-12T07:48:20.000Z</time>
      </trkpt>
      <trkpt lat="46.74218" lon="5.4871">
        <ele>200.19999694824</ele>
        <time>2020-09-12T07:48:22.000Z</time>
      </trkpt>
      <trkpt lat="46.74219" lon="5.4873">
        <ele>200.19999694824</ele>
        <time>2020-09-12T07:48:24.000Z</time>
      </trkpt>
      <trkpt lat="46.74221" lon="5.48751">
        <ele>200.19999694824</ele>
        <time>2020-09-12T07:48:26.000Z</time>
      </trkpt>
      <trkpt lat="46.74225" lon="5.4877">
        <ele>200.19999694824</ele>
        <time>2020-09-12T07:48:28.000Z</time>
      </trkpt>
      <trkpt lat="46.7423" lon="5.4879">
        <ele>200.19999694824</ele>
        <time>2020-09-12T07:48:30.000Z</time>
      </trkpt>
      <trkpt lat="46.74235" lon="5.48809">
        <ele>200.19999694824</ele>
        <time>2020-09-12T07:48:32.000Z</time>
      </trkpt>
      <trkpt lat="46.7424" lon="5.48828">
        <ele>200.19999694824</ele>
        <time>2020-09-12T07:48:34.000Z</time>
      </trkpt>
      <trkpt lat="46.74246" lon="5.48847">
        <ele>200.19999694824</ele>
        <time>2020-09-12T07:48:36.000Z</time>
      </trkpt>
      <trkpt lat="46.74253" lon="5.48865">
        <ele>200.39999389648</ele>
        <time>2020-09-12T07:48:38.000Z</time>
      </trkpt>
      <trkpt lat="46.74257" lon="5.48874">
        <ele>200.39999389648</ele>
        <time>2020-09-12T07:48:39.000Z</time>
      </trkpt>
      <trkpt lat="46.7426" lon="5.48883">
        <ele>200.39999389648</ele>
        <time>2020-09-12T07:48:40.000Z</time>
      </trkpt>
      <trkpt lat="46.74266" lon="5.48902">
        <ele>200.39999389648</ele>
        <time>2020-09-12T07:48:42.000Z</time>
      </trkpt>
      <trkpt lat="46.74273" lon="5.4892">
        <ele>200.39999389648</ele>
        <time>2020-09-12T07:48:44.000Z</time>
      </trkpt>
      <trkpt lat="46.7428" lon="5.48937">
        <ele>200.60000610352</ele>
        <time>2020-09-12T07:48:46.000Z</time>
      </trkpt>
      <trkpt lat="46.74288" lon="5.48953">
        <ele>200.80000305176</ele>
        <time>2020-09-12T07:48:48.000Z</time>
      </trkpt>
      <trkpt lat="46.74297" lon="5.48969">
        <ele>200.80000305176</ele>
        <time>2020-09-12T07:48:50.000Z</time>
      </trkpt>
      <trkpt lat="46.74306" lon="5.48985">
        <ele>201</ele>
        <time>2020-09-12T07:48:52.000Z</time>
      </trkpt>
      <trkpt lat="46.74316" lon="5.49">
        <ele>201.19999694824</ele>
        <time>2020-09-12T07:48:54.000Z</time>
      </trkpt>
      <trkpt lat="46.74321" lon="5.49007">
        <ele>201.19999694824</ele>
        <time>2020-09-12T07:48:55.000Z</time>
      </trkpt>
      <trkpt lat="46.74326" lon="5.49015">
        <ele>201.19999694824</ele>
        <time>2020-09-12T07:48:56.000Z</time>
      </trkpt>
      <trkpt lat="46.74335" lon="5.49033">
        <ele>201.39999389648</ele>
        <time>2020-09-12T07:48:58.000Z</time>
      </trkpt>
      <trkpt lat="46.74342" lon="5.49051">
        <ele>201.39999389648</ele>
        <time>2020-09-12T07:49:00.000Z</time>
      </trkpt>
      <trkpt lat="46.74346" lon="5.49061">
        <ele>201.39999389648</ele>
        <time>2020-09-12T07:49:01.000Z</time>
      </trkpt>
      <trkpt lat="46.74349" lon="5.49071">
        <ele>201.39999389648</ele>
        <time>2020-09-12T07:49:02.000Z</time>
      </trkpt>
      <trkpt lat="46.74356" lon="5.4909">
        <ele>201.39999389648</ele>
        <time>2020-09-12T07:49:04.000Z</time>
      </trkpt>
      <trkpt lat="46.74362" lon="5.4911">
        <ele>201.19999694824</ele>
        <time>2020-09-12T07:49:06.000Z</time>
      </trkpt>
      <trkpt lat="46.74369" lon="5.49129">
        <ele>201.19999694824</ele>
        <time>2020-09-12T07:49:08.000Z</time>
      </trkpt>
      <trkpt lat="46.74376" lon="5.49147">
        <ele>201.19999694824</ele>
        <time>2020-09-12T07:49:10.000Z</time>
      </trkpt>
      <trkpt lat="46.74383" lon="5.49166">
        <ele>201.19999694824</ele>
        <time>2020-09-12T07:49:12.000Z</time>
      </trkpt>
      <trkpt lat="46.7439" lon="5.49184">
        <ele>201.19999694824</ele>
        <time>2020-09-12T07:49:14.000Z</time>
      </trkpt>
      <trkpt lat="46.74397" lon="5.49202">
        <ele>201.19999694824</ele>
        <time>2020-09-12T07:49:16.000Z</time>
      </trkpt>
      <trkpt lat="46.74404" lon="5.4922">
        <ele>201.19999694824</ele>
        <time>2020-09-12T07:49:18.000Z</time>
      </trkpt>
      <trkpt lat="46.74411" lon="5.49238">
        <ele>201.19999694824</ele>
        <time>2020-09-12T07:49:20.000Z</time>
      </trkpt>
      <trkpt lat="46.74417" lon="5.49256">
        <ele>201.19999694824</ele>
        <time>2020-09-12T07:49:22.000Z</time>
      </trkpt>
      <trkpt lat="46.74422" lon="5.49275">
        <ele>201.39999389648</ele>
        <time>2020-09-12T07:49:24.000Z</time>
      </trkpt>
      <trkpt lat="46.74424" lon="5.49284">
        <ele>201.39999389648</ele>
        <time>2020-09-12T07:49:25.000Z</time>
      </trkpt>
      <trkpt lat="46.74425" lon="5.49294">
        <ele>201.39999389648</ele>
        <time>2020-09-12T07:49:26.000Z</time>
      </trkpt>
      <trkpt lat="46.74425" lon="5.49313">
        <ele>201.60000610352</ele>
        <time>2020-09-12T07:49:28.000Z</time>
      </trkpt>
      <trkpt lat="46.74423" lon="5.49332">
        <ele>201.60000610352</ele>
        <time>2020-09-12T07:49:30.000Z</time>
      </trkpt>
      <trkpt lat="46.7442" lon="5.4935">
        <ele>202.19999694824</ele>
        <time>2020-09-12T07:49:32.000Z</time>
      </trkpt>
      <trkpt lat="46.74417" lon="5.49369">
        <ele>202.80000305176</ele>
        <time>2020-09-12T07:49:34.000Z</time>
      </trkpt>
      <trkpt lat="46.74417" lon="5.49379">
        <ele>203</ele>
        <time>2020-09-12T07:49:35.000Z</time>
      </trkpt>
      <trkpt lat="46.74417" lon="5.49388">
        <ele>203</ele>
        <time>2020-09-12T07:49:36.000Z</time>
      </trkpt>
      <trkpt lat="46.74419" lon="5.49407">
        <ele>203.19999694824</ele>
        <time>2020-09-12T07:49:38.000Z</time>
      </trkpt>
      <trkpt lat="46.74422" lon="5.49425">
        <ele>203.19999694824</ele>
        <time>2020-09-12T07:49:40.000Z</time>
      </trkpt>
      <trkpt lat="46.74424" lon="5.49433">
        <ele>203.19999694824</ele>
        <time>2020-09-12T07:49:41.000Z</time>
      </trkpt>
      <trkpt lat="46.74428" lon="5.4944">
        <ele>203.19999694824</ele>
        <time>2020-09-12T07:49:42.000Z</time>
      </trkpt>
      <trkpt lat="46.74436" lon="5.49454">
        <ele>203.19999694824</ele>
        <time>2020-09-12T07:49:44.000Z</time>
      </trkpt>
      <trkpt lat="46.74444" lon="5.49469">
        <ele>203.39999389648</ele>
        <time>2020-09-12T07:49:46.000Z</time>
      </trkpt>
      <trkpt lat="46.74452" lon="5.49484">
        <ele>203.39999389648</ele>
        <time>2020-09-12T07:49:48.000Z</time>
      </trkpt>
      <trkpt lat="46.74461" lon="5.49498">
        <ele>203.39999389648</ele>
        <time>2020-09-12T07:49:50.000Z</time>
      </trkpt>
      <trkpt lat="46.7447" lon="5.49511">
        <ele>203.39999389648</ele>
        <time>2020-09-12T07:49:52.000Z</time>
      </trkpt>
      <trkpt lat="46.74479" lon="5.49523">
        <ele>203.39999389648</ele>
        <time>2020-09-12T07:49:54.000Z</time>
      </trkpt>
      <trkpt lat="46.74482" lon="5.4953">
        <ele>203.39999389648</ele>
        <time>2020-09-12T07:49:55.000Z</time>
      </trkpt>
      <trkpt lat="46.74482" lon="5.49537">
        <ele>203.39999389648</ele>
        <time>2020-09-12T07:49:56.000Z</time>
      </trkpt>
      <trkpt lat="46.7448" lon="5.49545">
        <ele>203.60000610352</ele>
        <time>2020-09-12T07:49:57.000Z</time>
      </trkpt>
      <trkpt lat="46.74479" lon="5.49552">
        <ele>203.60000610352</ele>
        <time>2020-09-12T07:49:58.000Z</time>
      </trkpt>
      <trkpt lat="46.74476" lon="5.49568">
        <ele>203.60000610352</ele>
        <time>2020-09-12T07:50:00.000Z</time>
      </trkpt>
      <trkpt lat="46.74473" lon="5.49576">
        <ele>203.80000305176</ele>
        <time>2020-09-12T07:50:01.000Z</time>
      </trkpt>
      <trkpt lat="46.74471" lon="5.49584">
        <ele>204</ele>
        <time>2020-09-12T07:50:02.000Z</time>
      </trkpt>
      <trkpt lat="46.74465" lon="5.49601">
        <ele>204.19999694824</ele>
        <time>2020-09-12T07:50:04.000Z</time>
      </trkpt>
      <trkpt lat="46.7446" lon="5.49619">
        <ele>204.19999694824</ele>
        <time>2020-09-12T07:50:06.000Z</time>
      </trkpt>
      <trkpt lat="46.74457" lon="5.49627">
        <ele>204.19999694824</ele>
        <time>2020-09-12T07:50:07.000Z</time>
      </trkpt>
      <trkpt lat="46.74453" lon="5.49635">
        <ele>204.19999694824</ele>
        <time>2020-09-12T07:50:08.000Z</time>
      </trkpt>
      <trkpt lat="46.74443" lon="5.49649">
        <ele>204.19999694824</ele>
        <time>2020-09-12T07:50:10.000Z</time>
      </trkpt>
      <trkpt lat="46.74433" lon="5.4966">
        <ele>204.19999694824</ele>
        <time>2020-09-12T07:50:12.000Z</time>
      </trkpt>
      <trkpt lat="46.74427" lon="5.49665">
        <ele>204.19999694824</ele>
        <time>2020-09-12T07:50:13.000Z</time>
      </trkpt>
      <trkpt lat="46.74421" lon="5.4967">
        <ele>204.19999694824</ele>
        <time>2020-09-12T07:50:14.000Z</time>
      </trkpt>
      <trkpt lat="46.74409" lon="5.49678">
        <ele>204.19999694824</ele>
        <time>2020-09-12T07:50:16.000Z</time>
      </trkpt>
      <trkpt lat="46.74395" lon="5.49683">
        <ele>204.19999694824</ele>
        <time>2020-09-12T07:50:18.000Z</time>
      </trkpt>
      <trkpt lat="46.74382" lon="5.49688">
        <ele>204.19999694824</ele>
        <time>2020-09-12T07:50:20.000Z</time>
      </trkpt>
      <trkpt lat="46.74369" lon="5.49691">
        <ele>204.39999389648</ele>
        <time>2020-09-12T07:50:22.000Z</time>
      </trkpt>
      <trkpt lat="46.74356" lon="5.49694">
        <ele>204.80000305176</ele>
        <time>2020-09-12T07:50:24.000Z</time>
      </trkpt>
      <trkpt lat="46.74343" lon="5.49696">
        <ele>204.80000305176</ele>
        <time>2020-09-12T07:50:26.000Z</time>
      </trkpt>
      <trkpt lat="46.7433" lon="5.497">
        <ele>204.80000305176</ele>
        <time>2020-09-12T07:50:28.000Z</time>
      </trkpt>
      <trkpt lat="46.74325" lon="5.49707">
        <ele>204.80000305176</ele>
        <time>2020-09-12T07:50:29.000Z</time>
      </trkpt>
      <trkpt lat="46.74324" lon="5.49716">
        <ele>204.80000305176</ele>
        <time>2020-09-12T07:50:30.000Z</time>
      </trkpt>
      <trkpt lat="46.74325" lon="5.49725">
        <ele>204.80000305176</ele>
        <time>2020-09-12T07:50:31.000Z</time>
      </trkpt>
      <trkpt lat="46.74327" lon="5.49734">
        <ele>204.80000305176</ele>
        <time>2020-09-12T07:50:32.000Z</time>
      </trkpt>
      <trkpt lat="46.7433" lon="5.49744">
        <ele>204.80000305176</ele>
        <time>2020-09-12T07:50:33.000Z</time>
      </trkpt>
      <trkpt lat="46.74333" lon="5.49753">
        <ele>204.80000305176</ele>
        <time>2020-09-12T07:50:34.000Z</time>
      </trkpt>
      <trkpt lat="46.74339" lon="5.49773">
        <ele>204.19999694824</ele>
        <time>2020-09-12T07:50:36.000Z</time>
      </trkpt>
      <trkpt lat="46.74342" lon="5.49782">
        <ele>204</ele>
        <time>2020-09-12T07:50:37.000Z</time>
      </trkpt>
      <trkpt lat="46.74344" lon="5.49792">
        <ele>204</ele>
        <time>2020-09-12T07:50:38.000Z</time>
      </trkpt>
      <trkpt lat="46.7435" lon="5.49812">
        <ele>203.80000305176</ele>
        <time>2020-09-12T07:50:40.000Z</time>
      </trkpt>
      <trkpt lat="46.74354" lon="5.49832">
        <ele>203.60000610352</ele>
        <time>2020-09-12T07:50:42.000Z</time>
      </trkpt>
      <trkpt lat="46.74358" lon="5.49852">
        <ele>203.39999389648</ele>
        <time>2020-09-12T07:50:44.000Z</time>
      </trkpt>
      <trkpt lat="46.74362" lon="5.49873">
        <ele>203.39999389648</ele>
        <time>2020-09-12T07:50:46.000Z</time>
      </trkpt>
      <trkpt lat="46.74366" lon="5.49893">
        <ele>203.39999389648</ele>
        <time>2020-09-12T07:50:48.000Z</time>
      </trkpt>
      <trkpt lat="46.74369" lon="5.49912">
        <ele>203.39999389648</ele>
        <time>2020-09-12T07:50:50.000Z</time>
      </trkpt>
      <trkpt lat="46.74373" lon="5.49932">
        <ele>203.39999389648</ele>
        <time>2020-09-12T07:50:52.000Z</time>
      </trkpt>
      <trkpt lat="46.74375" lon="5.49942">
        <ele>203.39999389648</ele>
        <time>2020-09-12T07:50:53.000Z</time>
      </trkpt>
      <trkpt lat="46.74377" lon="5.49951">
        <ele>203.60000610352</ele>
        <time>2020-09-12T07:50:54.000Z</time>
      </trkpt>
      <trkpt lat="46.74379" lon="5.49961">
        <ele>203.80000305176</ele>
        <time>2020-09-12T07:50:55.000Z</time>
      </trkpt>
      <trkpt lat="46.7438" lon="5.49971">
        <ele>203.80000305176</ele>
        <time>2020-09-12T07:50:56.000Z</time>
      </trkpt>
      <trkpt lat="46.74381" lon="5.4999">
        <ele>204</ele>
        <time>2020-09-12T07:50:58.000Z</time>
      </trkpt>
      <trkpt lat="46.74378" lon="5.50009">
        <ele>204</ele>
        <time>2020-09-12T07:51:00.000Z</time>
      </trkpt>
      <trkpt lat="46.74375" lon="5.50017">
        <ele>204.19999694824</ele>
        <time>2020-09-12T07:51:01.000Z</time>
      </trkpt>
      <trkpt lat="46.74371" lon="5.50026">
        <ele>204.19999694824</ele>
        <time>2020-09-12T07:51:02.000Z</time>
      </trkpt>
      <trkpt lat="46.74367" lon="5.50033">
        <ele>204.39999389648</ele>
        <time>2020-09-12T07:51:03.000Z</time>
      </trkpt>
      <trkpt lat="46.74363" lon="5.50041">
        <ele>204.39999389648</ele>
        <time>2020-09-12T07:51:04.000Z</time>
      </trkpt>
      <trkpt lat="46.74355" lon="5.50056">
        <ele>204.39999389648</ele>
        <time>2020-09-12T07:51:06.000Z</time>
      </trkpt>
      <trkpt lat="46.74351" lon="5.50064">
        <ele>204.60000610352</ele>
        <time>2020-09-12T07:51:07.000Z</time>
      </trkpt>
      <trkpt lat="46.74347" lon="5.50072">
        <ele>204.60000610352</ele>
        <time>2020-09-12T07:51:08.000Z</time>
      </trkpt>
      <trkpt lat="46.74338" lon="5.50087">
        <ele>204.60000610352</ele>
        <time>2020-09-12T07:51:10.000Z</time>
      </trkpt>
      <trkpt lat="46.7433" lon="5.50103">
        <ele>204.60000610352</ele>
        <time>2020-09-12T07:51:12.000Z</time>
      </trkpt>
      <trkpt lat="46.74322" lon="5.50119">
        <ele>204.60000610352</ele>
        <time>2020-09-12T07:51:14.000Z</time>
      </trkpt>
      <trkpt lat="46.74315" lon="5.50135">
        <ele>204.60000610352</ele>
        <time>2020-09-12T07:51:16.000Z</time>
      </trkpt>
      <trkpt lat="46.74311" lon="5.50143">
        <ele>204.60000610352</ele>
        <time>2020-09-12T07:51:17.000Z</time>
      </trkpt>
      <trkpt lat="46.74306" lon="5.50151">
        <ele>204.60000610352</ele>
        <time>2020-09-12T07:51:18.000Z</time>
      </trkpt>
      <trkpt lat="46.74298" lon="5.50167">
        <ele>204.60000610352</ele>
        <time>2020-09-12T07:51:20.000Z</time>
      </trkpt>
      <trkpt lat="46.74291" lon="5.50184">
        <ele>204.60000610352</ele>
        <time>2020-09-12T07:51:22.000Z</time>
      </trkpt>
      <trkpt lat="46.74287" lon="5.50193">
        <ele>204.39999389648</ele>
        <time>2020-09-12T07:51:23.000Z</time>
      </trkpt>
      <trkpt lat="46.74283" lon="5.50201">
        <ele>204.19999694824</ele>
        <time>2020-09-12T07:51:24.000Z</time>
      </trkpt>
      <trkpt lat="46.74275" lon="5.50218">
        <ele>204.39999389648</ele>
        <time>2020-09-12T07:51:26.000Z</time>
      </trkpt>
      <trkpt lat="46.74268" lon="5.50235">
        <ele>204.19999694824</ele>
        <time>2020-09-12T07:51:28.000Z</time>
      </trkpt>
      <trkpt lat="46.7426" lon="5.50251">
        <ele>204.39999389648</ele>
        <time>2020-09-12T07:51:30.000Z</time>
      </trkpt>
      <trkpt lat="46.74253" lon="5.50268">
        <ele>204.39999389648</ele>
        <time>2020-09-12T07:51:32.000Z</time>
      </trkpt>
      <trkpt lat="46.74246" lon="5.50284">
        <ele>204.39999389648</ele>
        <time>2020-09-12T07:51:34.000Z</time>
      </trkpt>
      <trkpt lat="46.74238" lon="5.50301">
        <ele>204.39999389648</ele>
        <time>2020-09-12T07:51:36.000Z</time>
      </trkpt>
      <trkpt lat="46.74231" lon="5.50317">
        <ele>204.19999694824</ele>
        <time>2020-09-12T07:51:38.000Z</time>
      </trkpt>
      <trkpt lat="46.74224" lon="5.50333">
        <ele>204.39999389648</ele>
        <time>2020-09-12T07:51:40.000Z</time>
      </trkpt>
      <trkpt lat="46.74217" lon="5.50349">
        <ele>204.39999389648</ele>
        <time>2020-09-12T07:51:42.000Z</time>
      </trkpt>
      <trkpt lat="46.74211" lon="5.50366">
        <ele>204.39999389648</ele>
        <time>2020-09-12T07:51:44.000Z</time>
      </trkpt>
      <trkpt lat="46.74204" lon="5.50382">
        <ele>204.39999389648</ele>
        <time>2020-09-12T07:51:46.000Z</time>
      </trkpt>
      <trkpt lat="46.74197" lon="5.50398">
        <ele>204.60000610352</ele>
        <time>2020-09-12T07:51:48.000Z</time>
      </trkpt>
      <trkpt lat="46.74189" lon="5.50414">
        <ele>204.60000610352</ele>
        <time>2020-09-12T07:51:50.000Z</time>
      </trkpt>
      <trkpt lat="46.74183" lon="5.50431">
        <ele>204.39999389648</ele>
        <time>2020-09-12T07:51:52.000Z</time>
      </trkpt>
      <trkpt lat="46.74177" lon="5.50448">
        <ele>204.80000305176</ele>
        <time>2020-09-12T07:51:54.000Z</time>
      </trkpt>
      <trkpt lat="46.74171" lon="5.50466">
        <ele>204.60000610352</ele>
        <time>2020-09-12T07:51:56.000Z</time>
      </trkpt>
      <trkpt lat="46.74167" lon="5.50484">
        <ele>204.80000305176</ele>
        <time>2020-09-12T07:51:58.000Z</time>
      </trkpt>
      <trkpt lat="46.74164" lon="5.50493">
        <ele>205</ele>
        <time>2020-09-12T07:51:59.000Z</time>
      </trkpt>
      <trkpt lat="46.74162" lon="5.50502">
        <ele>205</ele>
        <time>2020-09-12T07:52:00.000Z</time>
      </trkpt>
      <trkpt lat="46.7416" lon="5.50511">
        <ele>205</ele>
        <time>2020-09-12T07:52:01.000Z</time>
      </trkpt>
      <trkpt lat="46.74159" lon="5.5052">
        <ele>205</ele>
        <time>2020-09-12T07:52:02.000Z</time>
      </trkpt>
      <trkpt lat="46.74155" lon="5.50538">
        <ele>205</ele>
        <time>2020-09-12T07:52:04.000Z</time>
      </trkpt>
      <trkpt lat="46.74152" lon="5.50555">
        <ele>205.19999694824</ele>
        <time>2020-09-12T07:52:06.000Z</time>
      </trkpt>
      <trkpt lat="46.74151" lon="5.50563">
        <ele>205.19999694824</ele>
        <time>2020-09-12T07:52:07.000Z</time>
      </trkpt>
      <trkpt lat="46.7415" lon="5.50572">
        <ele>205.19999694824</ele>
        <time>2020-09-12T07:52:08.000Z</time>
      </trkpt>
      <trkpt lat="46.74148" lon="5.50589">
        <ele>205.39999389648</ele>
        <time>2020-09-12T07:52:10.000Z</time>
      </trkpt>
      <trkpt lat="46.74148" lon="5.50605">
        <ele>205.60000610352</ele>
        <time>2020-09-12T07:52:12.000Z</time>
      </trkpt>
      <trkpt lat="46.74149" lon="5.50613">
        <ele>205.80000305176</ele>
        <time>2020-09-12T07:52:13.000Z</time>
      </trkpt>
      <trkpt lat="46.74149" lon="5.50621">
        <ele>205.80000305176</ele>
        <time>2020-09-12T07:52:14.000Z</time>
      </trkpt>
      <trkpt lat="46.74151" lon="5.50635">
        <ele>206.39999389648</ele>
        <time>2020-09-12T07:52:16.000Z</time>
      </trkpt>
      <trkpt lat="46.74154" lon="5.5065">
        <ele>206.80000305176</ele>
        <time>2020-09-12T07:52:18.000Z</time>
      </trkpt>
      <trkpt lat="46.74155" lon="5.50657">
        <ele>207.19999694824</ele>
        <time>2020-09-12T07:52:19.000Z</time>
      </trkpt>
      <trkpt lat="46.74157" lon="5.50664">
        <ele>207.80000305176</ele>
        <time>2020-09-12T07:52:20.000Z</time>
      </trkpt>
      <trkpt lat="46.7416" lon="5.50677">
        <ele>208.39999389648</ele>
        <time>2020-09-12T07:52:22.000Z</time>
      </trkpt>
      <trkpt lat="46.74164" lon="5.50691">
        <ele>209</ele>
        <time>2020-09-12T07:52:24.000Z</time>
      </trkpt>
      <trkpt lat="46.74167" lon="5.50705">
        <ele>209.60000610352</ele>
        <time>2020-09-12T07:52:26.000Z</time>
      </trkpt>
      <trkpt lat="46.74171" lon="5.50719">
        <ele>210</ele>
        <time>2020-09-12T07:52:28.000Z</time>
      </trkpt>
      <trkpt lat="46.74175" lon="5.50733">
        <ele>210.39999389648</ele>
        <time>2020-09-12T07:52:30.000Z</time>
      </trkpt>
      <trkpt lat="46.74177" lon="5.5074">
        <ele>210.60000610352</ele>
        <time>2020-09-12T07:52:31.000Z</time>
      </trkpt>
      <trkpt lat="46.74178" lon="5.50748">
        <ele>210.80000305176</ele>
        <time>2020-09-12T07:52:32.000Z</time>
      </trkpt>
      <trkpt lat="46.74182" lon="5.50762">
        <ele>211</ele>
        <time>2020-09-12T07:52:34.000Z</time>
      </trkpt>
      <trkpt lat="46.74186" lon="5.50777">
        <ele>211.39999389648</ele>
        <time>2020-09-12T07:52:36.000Z</time>
      </trkpt>
      <trkpt lat="46.7419" lon="5.50792">
        <ele>211.80000305176</ele>
        <time>2020-09-12T07:52:38.000Z</time>
      </trkpt>
      <trkpt lat="46.74191" lon="5.508">
        <ele>212</ele>
        <time>2020-09-12T07:52:39.000Z</time>
      </trkpt>
      <trkpt lat="46.74193" lon="5.50808">
        <ele>212</ele>
        <time>2020-09-12T07:52:40.000Z</time>
      </trkpt>
      <trkpt lat="46.74196" lon="5.50824">
        <ele>212.19999694824</ele>
        <time>2020-09-12T07:52:42.000Z</time>
      </trkpt>
      <trkpt lat="46.742" lon="5.5084">
        <ele>212.39999389648</ele>
        <time>2020-09-12T07:52:44.000Z</time>
      </trkpt>
      <trkpt lat="46.74204" lon="5.50856">
        <ele>212.60000610352</ele>
        <time>2020-09-12T07:52:46.000Z</time>
      </trkpt>
      <trkpt lat="46.74206" lon="5.50864">
        <ele>212.60000610352</ele>
        <time>2020-09-12T07:52:47.000Z</time>
      </trkpt>
      <trkpt lat="46.74207" lon="5.50872">
        <ele>212.60000610352</ele>
        <time>2020-09-12T07:52:48.000Z</time>
      </trkpt>
      <trkpt lat="46.7421" lon="5.50887">
        <ele>212.80000305176</ele>
        <time>2020-09-12T07:52:50.000Z</time>
      </trkpt>
      <trkpt lat="46.74215" lon="5.50902">
        <ele>212.80000305176</ele>
        <time>2020-09-12T07:52:52.000Z</time>
      </trkpt>
      <trkpt lat="46.74219" lon="5.50917">
        <ele>212.80000305176</ele>
        <time>2020-09-12T07:52:54.000Z</time>
      </trkpt>
      <trkpt lat="46.74222" lon="5.50932">
        <ele>213</ele>
        <time>2020-09-12T07:52:56.000Z</time>
      </trkpt>
      <trkpt lat="46.74226" lon="5.50947">
        <ele>213</ele>
        <time>2020-09-12T07:52:58.000Z</time>
      </trkpt>
      <trkpt lat="46.7423" lon="5.50961">
        <ele>213.39999389648</ele>
        <time>2020-09-12T07:53:00.000Z</time>
      </trkpt>
      <trkpt lat="46.74234" lon="5.50974">
        <ele>213.80000305176</ele>
        <time>2020-09-12T07:53:02.000Z</time>
      </trkpt>
      <trkpt lat="46.74235" lon="5.5098">
        <ele>214</ele>
        <time>2020-09-12T07:53:03.000Z</time>
      </trkpt>
      <trkpt lat="46.74237" lon="5.50986">
        <ele>214.19999694824</ele>
        <time>2020-09-12T07:53:04.000Z</time>
      </trkpt>
      <trkpt lat="46.74242" lon="5.50998">
        <ele>214.60000610352</ele>
        <time>2020-09-12T07:53:06.000Z</time>
      </trkpt>
      <trkpt lat="46.74247" lon="5.51008">
        <ele>215.39999389648</ele>
        <time>2020-09-12T07:53:08.000Z</time>
      </trkpt>
      <trkpt lat="46.7425" lon="5.51014">
        <ele>215.60000610352</ele>
        <time>2020-09-12T07:53:09.000Z</time>
      </trkpt>
      <trkpt lat="46.74252" lon="5.51019">
        <ele>216</ele>
        <time>2020-09-12T07:53:10.000Z</time>
      </trkpt>
      <trkpt lat="46.74254" lon="5.51024">
        <ele>216.39999389648</ele>
        <time>2020-09-12T07:53:11.000Z</time>
      </trkpt>
      <trkpt lat="46.74257" lon="5.51029">
        <ele>216.80000305176</ele>
        <time>2020-09-12T07:53:12.000Z</time>
      </trkpt>
      <trkpt lat="46.74261" lon="5.5104">
        <ele>217.39999389648</ele>
        <time>2020-09-12T07:53:14.000Z</time>
      </trkpt>
      <trkpt lat="46.74263" lon="5.51045">
        <ele>217.80000305176</ele>
        <time>2020-09-12T07:53:15.000Z</time>
      </trkpt>
      <trkpt lat="46.74265" lon="5.51051">
        <ele>218</ele>
        <time>2020-09-12T07:53:16.000Z</time>
      </trkpt>
      <trkpt lat="46.74266" lon="5.51057">
        <ele>218.39999389648</ele>
        <time>2020-09-12T07:53:17.000Z</time>
      </trkpt>
      <trkpt lat="46.74267" lon="5.51062">
        <ele>218.60000610352</ele>
        <time>2020-09-12T07:53:18.000Z</time>
      </trkpt>
      <trkpt lat="46.74268" lon="5.51075">
        <ele>219.39999389648</ele>
        <time>2020-09-12T07:53:20.000Z</time>
      </trkpt>
      <trkpt lat="46.74269" lon="5.51081">
        <ele>219.80000305176</ele>
        <time>2020-09-12T07:53:21.000Z</time>
      </trkpt>
      <trkpt lat="46.74269" lon="5.51088">
        <ele>220.19999694824</ele>
        <time>2020-09-12T07:53:22.000Z</time>
      </trkpt>
      <trkpt lat="46.74269" lon="5.51095">
        <ele>220.39999389648</ele>
        <time>2020-09-12T07:53:23.000Z</time>
      </trkpt>
      <trkpt lat="46.74269" lon="5.51102">
        <ele>220.60000610352</ele>
        <time>2020-09-12T07:53:24.000Z</time>
      </trkpt>
      <trkpt lat="46.74269" lon="5.5111">
        <ele>221</ele>
        <time>2020-09-12T07:53:25.000Z</time>
      </trkpt>
      <trkpt lat="46.74268" lon="5.51117">
        <ele>221.19999694824</ele>
        <time>2020-09-12T07:53:26.000Z</time>
      </trkpt>
      <trkpt lat="46.74268" lon="5.51133">
        <ele>221.39999389648</ele>
        <time>2020-09-12T07:53:28.000Z</time>
      </trkpt>
      <trkpt lat="46.74268" lon="5.51149">
        <ele>221.60000610352</ele>
        <time>2020-09-12T07:53:30.000Z</time>
      </trkpt>
      <trkpt lat="46.74268" lon="5.51158">
        <ele>221.60000610352</ele>
        <time>2020-09-12T07:53:31.000Z</time>
      </trkpt>
      <trkpt lat="46.74268" lon="5.51167">
        <ele>221.60000610352</ele>
        <time>2020-09-12T07:53:32.000Z</time>
      </trkpt>
      <trkpt lat="46.74268" lon="5.51186">
        <ele>221.80000305176</ele>
        <time>2020-09-12T07:53:34.000Z</time>
      </trkpt>
      <trkpt lat="46.74267" lon="5.51206">
        <ele>221.80000305176</ele>
        <time>2020-09-12T07:53:36.000Z</time>
      </trkpt>
      <trkpt lat="46.74267" lon="5.51216">
        <ele>221.39999389648</ele>
        <time>2020-09-12T07:53:37.000Z</time>
      </trkpt>
      <trkpt lat="46.74267" lon="5.51227">
        <ele>221.19999694824</ele>
        <time>2020-09-12T07:53:38.000Z</time>
      </trkpt>
      <trkpt lat="46.74268" lon="5.51247">
        <ele>221</ele>
        <time>2020-09-12T07:53:40.000Z</time>
      </trkpt>
      <trkpt lat="46.74269" lon="5.51267">
        <ele>220.39999389648</ele>
        <time>2020-09-12T07:53:42.000Z</time>
      </trkpt>
      <trkpt lat="46.74269" lon="5.51286">
        <ele>220.19999694824</ele>
        <time>2020-09-12T07:53:44.000Z</time>
      </trkpt>
      <trkpt lat="46.7427" lon="5.51295">
        <ele>220.19999694824</ele>
        <time>2020-09-12T07:53:45.000Z</time>
      </trkpt>
      <trkpt lat="46.7427" lon="5.51305">
        <ele>220.19999694824</ele>
        <time>2020-09-12T07:53:46.000Z</time>
      </trkpt>
      <trkpt lat="46.74271" lon="5.51323">
        <ele>220.19999694824</ele>
        <time>2020-09-12T07:53:48.000Z</time>
      </trkpt>
      <trkpt lat="46.74271" lon="5.51341">
        <ele>220.19999694824</ele>
        <time>2020-09-12T07:53:50.000Z</time>
      </trkpt>
      <trkpt lat="46.74272" lon="5.5136">
        <ele>220.39999389648</ele>
        <time>2020-09-12T07:53:52.000Z</time>
      </trkpt>
      <trkpt lat="46.74273" lon="5.51377">
        <ele>220.80000305176</ele>
        <time>2020-09-12T07:53:54.000Z</time>
      </trkpt>
      <trkpt lat="46.74273" lon="5.51395">
        <ele>220.80000305176</ele>
        <time>2020-09-12T07:53:56.000Z</time>
      </trkpt>
      <trkpt lat="46.74274" lon="5.51404">
        <ele>221</ele>
        <time>2020-09-12T07:53:57.000Z</time>
      </trkpt>
      <trkpt lat="46.74274" lon="5.51413">
        <ele>221</ele>
        <time>2020-09-12T07:53:58.000Z</time>
      </trkpt>
      <trkpt lat="46.74276" lon="5.5143">
        <ele>221</ele>
        <time>2020-09-12T07:54:00.000Z</time>
      </trkpt>
      <trkpt lat="46.74276" lon="5.51447">
        <ele>221</ele>
        <time>2020-09-12T07:54:02.000Z</time>
      </trkpt>
      <trkpt lat="46.74276" lon="5.51464">
        <ele>221.39999389648</ele>
        <time>2020-09-12T07:54:04.000Z</time>
      </trkpt>
      <trkpt lat="46.74275" lon="5.51472">
        <ele>221.39999389648</ele>
        <time>2020-09-12T07:54:05.000Z</time>
      </trkpt>
      <trkpt lat="46.74275" lon="5.51481">
        <ele>221.80000305176</ele>
        <time>2020-09-12T07:54:06.000Z</time>
      </trkpt>
      <trkpt lat="46.74273" lon="5.51498">
        <ele>222.19999694824</ele>
        <time>2020-09-12T07:54:08.000Z</time>
      </trkpt>
      <trkpt lat="46.74273" lon="5.51515">
        <ele>222.60000610352</ele>
        <time>2020-09-12T07:54:10.000Z</time>
      </trkpt>
      <trkpt lat="46.74274" lon="5.51532">
        <ele>222.80000305176</ele>
        <time>2020-09-12T07:54:12.000Z</time>
      </trkpt>
      <trkpt lat="46.74275" lon="5.51541">
        <ele>222.60000610352</ele>
        <time>2020-09-12T07:54:13.000Z</time>
      </trkpt>
      <trkpt lat="46.74277" lon="5.51548">
        <ele>222.80000305176</ele>
        <time>2020-09-12T07:54:14.000Z</time>
      </trkpt>
      <trkpt lat="46.74284" lon="5.51563">
        <ele>223.19999694824</ele>
        <time>2020-09-12T07:54:16.000Z</time>
      </trkpt>
      <trkpt lat="46.74287" lon="5.5157">
        <ele>223.19999694824</ele>
        <time>2020-09-12T07:54:17.000Z</time>
      </trkpt>
      <trkpt lat="46.74291" lon="5.51576">
        <ele>223.39999389648</ele>
        <time>2020-09-12T07:54:18.000Z</time>
      </trkpt>
      <trkpt lat="46.74296" lon="5.51582">
        <ele>223.60000610352</ele>
        <time>2020-09-12T07:54:19.000Z</time>
      </trkpt>
      <trkpt lat="46.743" lon="5.51588">
        <ele>223.80000305176</ele>
        <time>2020-09-12T07:54:20.000Z</time>
      </trkpt>
      <trkpt lat="46.74308" lon="5.51601">
        <ele>224</ele>
        <time>2020-09-12T07:54:22.000Z</time>
      </trkpt>
      <trkpt lat="46.74312" lon="5.51607">
        <ele>224.19999694824</ele>
        <time>2020-09-12T07:54:23.000Z</time>
      </trkpt>
      <trkpt lat="46.74316" lon="5.51613">
        <ele>224.60000610352</ele>
        <time>2020-09-12T07:54:24.000Z</time>
      </trkpt>
      <trkpt lat="46.74323" lon="5.51624">
        <ele>225</ele>
        <time>2020-09-12T07:54:26.000Z</time>
      </trkpt>
      <trkpt lat="46.7433" lon="5.51635">
        <ele>225.19999694824</ele>
        <time>2020-09-12T07:54:28.000Z</time>
      </trkpt>
      <trkpt lat="46.74337" lon="5.51646">
        <ele>225.39999389648</ele>
        <time>2020-09-12T07:54:30.000Z</time>
      </trkpt>
      <trkpt lat="46.74341" lon="5.51651">
        <ele>225.60000610352</ele>
        <time>2020-09-12T07:54:31.000Z</time>
      </trkpt>
      <trkpt lat="46.74345" lon="5.51656">
        <ele>225.80000305176</ele>
        <time>2020-09-12T07:54:32.000Z</time>
      </trkpt>
      <trkpt lat="46.74353" lon="5.51664">
        <ele>226.19999694824</ele>
        <time>2020-09-12T07:54:34.000Z</time>
      </trkpt>
      <trkpt lat="46.74357" lon="5.51669">
        <ele>226.60000610352</ele>
        <time>2020-09-12T07:54:35.000Z</time>
      </trkpt>
      <trkpt lat="46.74361" lon="5.51673">
        <ele>227</ele>
        <time>2020-09-12T07:54:36.000Z</time>
      </trkpt>
      <trkpt lat="46.7437" lon="5.51681">
        <ele>227.60000610352</ele>
        <time>2020-09-12T07:54:38.000Z</time>
      </trkpt>
      <trkpt lat="46.74374" lon="5.51686">
        <ele>227.80000305176</ele>
        <time>2020-09-12T07:54:39.000Z</time>
      </trkpt>
      <trkpt lat="46.74378" lon="5.51689">
        <ele>228</ele>
        <time>2020-09-12T07:54:40.000Z</time>
      </trkpt>
      <trkpt lat="46.74387" lon="5.51697">
        <ele>228.19999694824</ele>
        <time>2020-09-12T07:54:42.000Z</time>
      </trkpt>
      <trkpt lat="46.74395" lon="5.51705">
        <ele>228.39999389648</ele>
        <time>2020-09-12T07:54:44.000Z</time>
      </trkpt>
      <trkpt lat="46.74404" lon="5.51713">
        <ele>228.80000305176</ele>
        <time>2020-09-12T07:54:46.000Z</time>
      </trkpt>
      <trkpt lat="46.74409" lon="5.51717">
        <ele>229</ele>
        <time>2020-09-12T07:54:47.000Z</time>
      </trkpt>
      <trkpt lat="46.74413" lon="5.51721">
        <ele>229.19999694824</ele>
        <time>2020-09-12T07:54:48.000Z</time>
      </trkpt>
      <trkpt lat="46.74422" lon="5.5173">
        <ele>229.80000305176</ele>
        <time>2020-09-12T07:54:50.000Z</time>
      </trkpt>
      <trkpt lat="46.74431" lon="5.51739">
        <ele>230</ele>
        <time>2020-09-12T07:54:52.000Z</time>
      </trkpt>
      <trkpt lat="46.74436" lon="5.51743">
        <ele>230</ele>
        <time>2020-09-12T07:54:53.000Z</time>
      </trkpt>
      <trkpt lat="46.74441" lon="5.51747">
        <ele>230</ele>
        <time>2020-09-12T07:54:54.000Z</time>
      </trkpt>
      <trkpt lat="46.7445" lon="5.51755">
        <ele>230.19999694824</ele>
        <time>2020-09-12T07:54:56.000Z</time>
      </trkpt>
      <trkpt lat="46.7446" lon="5.51763">
        <ele>230.39999389648</ele>
        <time>2020-09-12T07:54:58.000Z</time>
      </trkpt>
      <trkpt lat="46.7447" lon="5.5177">
        <ele>230.60000610352</ele>
        <time>2020-09-12T07:55:00.000Z</time>
      </trkpt>
      <trkpt lat="46.7448" lon="5.51777">
        <ele>230.80000305176</ele>
        <time>2020-09-12T07:55:02.000Z</time>
      </trkpt>
      <trkpt lat="46.74491" lon="5.51783">
        <ele>231</ele>
        <time>2020-09-12T07:55:04.000Z</time>
      </trkpt>
      <trkpt lat="46.74501" lon="5.51789">
        <ele>231.19999694824</ele>
        <time>2020-09-12T07:55:06.000Z</time>
      </trkpt>
      <trkpt lat="46.74506" lon="5.51792">
        <ele>231.39999389648</ele>
        <time>2020-09-12T07:55:07.000Z</time>
      </trkpt>
      <trkpt lat="46.74511" lon="5.51795">
        <ele>231.39999389648</ele>
        <time>2020-09-12T07:55:08.000Z</time>
      </trkpt>
      <trkpt lat="46.74521" lon="5.51801">
        <ele>231.80000305176</ele>
        <time>2020-09-12T07:55:10.000Z</time>
      </trkpt>
      <trkpt lat="46.74532" lon="5.51807">
        <ele>232</ele>
        <time>2020-09-12T07:55:12.000Z</time>
      </trkpt>
      <trkpt lat="46.74537" lon="5.5181">
        <ele>232.19999694824</ele>
        <time>2020-09-12T07:55:13.000Z</time>
      </trkpt>
      <trkpt lat="46.74542" lon="5.51813">
        <ele>232.39999389648</ele>
        <time>2020-09-12T07:55:14.000Z</time>
      </trkpt>
      <trkpt lat="46.74552" lon="5.51819">
        <ele>232.60000610352</ele>
        <time>2020-09-12T07:55:16.000Z</time>
      </trkpt>
      <trkpt lat="46.74563" lon="5.51825">
        <ele>232.80000305176</ele>
        <time>2020-09-12T07:55:18.000Z</time>
      </trkpt>
      <trkpt lat="46.74568" lon="5.51828">
        <ele>232.80000305176</ele>
        <time>2020-09-12T07:55:19.000Z</time>
      </trkpt>
      <trkpt lat="46.74573" lon="5.51831">
        <ele>232.80000305176</ele>
        <time>2020-09-12T07:55:20.000Z</time>
      </trkpt>
      <trkpt lat="46.74584" lon="5.51837">
        <ele>233</ele>
        <time>2020-09-12T07:55:22.000Z</time>
      </trkpt>
      <trkpt lat="46.74595" lon="5.51842">
        <ele>233</ele>
        <time>2020-09-12T07:55:24.000Z</time>
      </trkpt>
      <trkpt lat="46.74606" lon="5.51848">
        <ele>233</ele>
        <time>2020-09-12T07:55:26.000Z</time>
      </trkpt>
      <trkpt lat="46.74616" lon="5.51853">
        <ele>233.19999694824</ele>
        <time>2020-09-12T07:55:28.000Z</time>
      </trkpt>
      <trkpt lat="46.7462" lon="5.51856">
        <ele>233.19999694824</ele>
        <time>2020-09-12T07:55:29.000Z</time>
      </trkpt>
      <trkpt lat="46.74622" lon="5.51858">
        <ele>233.19999694824</ele>
        <time>2020-09-12T07:55:30.000Z</time>
      </trkpt>
      <trkpt lat="46.74626" lon="5.5186">
        <ele>233.19999694824</ele>
        <time>2020-09-12T07:55:32.000Z</time>
      </trkpt>
      <trkpt lat="46.74626" lon="5.51861">
        <ele>233.19999694824</ele>
        <time>2020-09-12T07:55:34.000Z</time>
      </trkpt>
      <trkpt lat="46.74629" lon="5.51861">
        <ele>234.19999694824</ele>
        <time>2020-09-12T07:56:13.000Z</time>
      </trkpt>
      <trkpt lat="46.74631" lon="5.51862">
        <ele>234.19999694824</ele>
        <time>2020-09-12T07:56:14.000Z</time>
      </trkpt>
      <trkpt lat="46.74636" lon="5.51866">
        <ele>234.19999694824</ele>
        <time>2020-09-12T07:56:16.000Z</time>
      </trkpt>
      <trkpt lat="46.7464" lon="5.51869">
        <ele>234.19999694824</ele>
        <time>2020-09-12T07:56:17.000Z</time>
      </trkpt>
      <trkpt lat="46.74645" lon="5.51872">
        <ele>234.19999694824</ele>
        <time>2020-09-12T07:56:18.000Z</time>
      </trkpt>
      <trkpt lat="46.74656" lon="5.5188">
        <ele>234.19999694824</ele>
        <time>2020-09-12T07:56:20.000Z</time>
      </trkpt>
      <trkpt lat="46.74668" lon="5.51888">
        <ele>234.19999694824</ele>
        <time>2020-09-12T07:56:22.000Z</time>
      </trkpt>
      <trkpt lat="46.74681" lon="5.51897">
        <ele>234</ele>
        <time>2020-09-12T07:56:24.000Z</time>
      </trkpt>
      <trkpt lat="46.74693" lon="5.51909">
        <ele>233.19999694824</ele>
        <time>2020-09-12T07:56:26.000Z</time>
      </trkpt>
      <trkpt lat="46.74705" lon="5.51923">
        <ele>232.60000610352</ele>
        <time>2020-09-12T07:56:28.000Z</time>
      </trkpt>
      <trkpt lat="46.74716" lon="5.51939">
        <ele>232</ele>
        <time>2020-09-12T07:56:30.000Z</time>
      </trkpt>
      <trkpt lat="46.74727" lon="5.51954">
        <ele>231.60000610352</ele>
        <time>2020-09-12T07:56:32.000Z</time>
      </trkpt>
      <trkpt lat="46.74739" lon="5.51967">
        <ele>231.19999694824</ele>
        <time>2020-09-12T07:56:34.000Z</time>
      </trkpt>
      <trkpt lat="46.74745" lon="5.51974">
        <ele>231</ele>
        <time>2020-09-12T07:56:35.000Z</time>
      </trkpt>
      <trkpt lat="46.74751" lon="5.51981">
        <ele>230.80000305176</ele>
        <time>2020-09-12T07:56:36.000Z</time>
      </trkpt>
      <trkpt lat="46.74763" lon="5.51993">
        <ele>230.60000610352</ele>
        <time>2020-09-12T07:56:38.000Z</time>
      </trkpt>
      <trkpt lat="46.74776" lon="5.52005">
        <ele>230.39999389648</ele>
        <time>2020-09-12T07:56:40.000Z</time>
      </trkpt>
      <trkpt lat="46.7479" lon="5.52016">
        <ele>230.39999389648</ele>
        <time>2020-09-12T07:56:42.000Z</time>
      </trkpt>
      <trkpt lat="46.74797" lon="5.52021">
        <ele>230.39999389648</ele>
        <time>2020-09-12T07:56:43.000Z</time>
      </trkpt>
      <trkpt lat="46.74804" lon="5.52025">
        <ele>230.39999389648</ele>
        <time>2020-09-12T07:56:44.000Z</time>
      </trkpt>
      <trkpt lat="46.74818" lon="5.52033">
        <ele>230.39999389648</ele>
        <time>2020-09-12T07:56:46.000Z</time>
      </trkpt>
      <trkpt lat="46.74832" lon="5.52041">
        <ele>230.19999694824</ele>
        <time>2020-09-12T07:56:48.000Z</time>
      </trkpt>
      <trkpt lat="46.74847" lon="5.52048">
        <ele>230.19999694824</ele>
        <time>2020-09-12T07:56:50.000Z</time>
      </trkpt>
      <trkpt lat="46.74861" lon="5.52055">
        <ele>230.19999694824</ele>
        <time>2020-09-12T07:56:52.000Z</time>
      </trkpt>
      <trkpt lat="46.74876" lon="5.52061">
        <ele>230.19999694824</ele>
        <time>2020-09-12T07:56:54.000Z</time>
      </trkpt>
      <trkpt lat="46.7489" lon="5.52067">
        <ele>230.19999694824</ele>
        <time>2020-09-12T07:56:56.000Z</time>
      </trkpt>
      <trkpt lat="46.74905" lon="5.52075">
        <ele>230.19999694824</ele>
        <time>2020-09-12T07:56:58.000Z</time>
      </trkpt>
      <trkpt lat="46.74921" lon="5.52085">
        <ele>230</ele>
        <time>2020-09-12T07:57:00.000Z</time>
      </trkpt>
      <trkpt lat="46.74937" lon="5.52097">
        <ele>229.80000305176</ele>
        <time>2020-09-12T07:57:02.000Z</time>
      </trkpt>
      <trkpt lat="46.74953" lon="5.52108">
        <ele>229.19999694824</ele>
        <time>2020-09-12T07:57:04.000Z</time>
      </trkpt>
      <trkpt lat="46.74969" lon="5.52119">
        <ele>228.60000610352</ele>
        <time>2020-09-12T07:57:06.000Z</time>
      </trkpt>
      <trkpt lat="46.74976" lon="5.52123">
        <ele>228.19999694824</ele>
        <time>2020-09-12T07:57:07.000Z</time>
      </trkpt>
      <trkpt lat="46.74984" lon="5.52127">
        <ele>227.80000305176</ele>
        <time>2020-09-12T07:57:08.000Z</time>
      </trkpt>
      <trkpt lat="46.74992" lon="5.52131">
        <ele>227</ele>
        <time>2020-09-12T07:57:09.000Z</time>
      </trkpt>
      <trkpt lat="46.74999" lon="5.52135">
        <ele>226</ele>
        <time>2020-09-12T07:57:10.000Z</time>
      </trkpt>
      <trkpt lat="46.75014" lon="5.52142">
        <ele>225.80000305176</ele>
        <time>2020-09-12T07:57:12.000Z</time>
      </trkpt>
      <trkpt lat="46.75029" lon="5.52149">
        <ele>225.60000610352</ele>
        <time>2020-09-12T07:57:14.000Z</time>
      </trkpt>
      <trkpt lat="46.75035" lon="5.52153">
        <ele>225.60000610352</ele>
        <time>2020-09-12T07:57:15.000Z</time>
      </trkpt>
      <trkpt lat="46.75041" lon="5.52159">
        <ele>225.60000610352</ele>
        <time>2020-09-12T07:57:16.000Z</time>
      </trkpt>
      <trkpt lat="46.75052" lon="5.52173">
        <ele>225.60000610352</ele>
        <time>2020-09-12T07:57:18.000Z</time>
      </trkpt>
      <trkpt lat="46.75056" lon="5.52181">
        <ele>225.60000610352</ele>
        <time>2020-09-12T07:57:19.000Z</time>
      </trkpt>
      <trkpt lat="46.75063" lon="5.52197">
        <ele>225.60000610352</ele>
        <time>2020-09-12T07:57:21.000Z</time>
      </trkpt>
      <trkpt lat="46.75068" lon="5.52213">
        <ele>226.19999694824</ele>
        <time>2020-09-12T07:57:23.000Z</time>
      </trkpt>
      <trkpt lat="46.7507" lon="5.52222">
        <ele>226.39999389648</ele>
        <time>2020-09-12T07:57:24.000Z</time>
      </trkpt>
      <trkpt lat="46.75076" lon="5.52239">
        <ele>227</ele>
        <time>2020-09-12T07:57:26.000Z</time>
      </trkpt>
      <trkpt lat="46.7508" lon="5.52247">
        <ele>227.19999694824</ele>
        <time>2020-09-12T07:57:27.000Z</time>
      </trkpt>
      <trkpt lat="46.75085" lon="5.52255">
        <ele>227.19999694824</ele>
        <time>2020-09-12T07:57:28.000Z</time>
      </trkpt>
      <trkpt lat="46.75089" lon="5.52263">
        <ele>227.39999389648</ele>
        <time>2020-09-12T07:57:29.000Z</time>
      </trkpt>
      <trkpt lat="46.75094" lon="5.5227">
        <ele>227.60000610352</ele>
        <time>2020-09-12T07:57:30.000Z</time>
      </trkpt>
      <trkpt lat="46.75104" lon="5.52285">
        <ele>227.60000610352</ele>
        <time>2020-09-12T07:57:32.000Z</time>
      </trkpt>
      <trkpt lat="46.75109" lon="5.52292">
        <ele>227.80000305176</ele>
        <time>2020-09-12T07:57:33.000Z</time>
      </trkpt>
      <trkpt lat="46.75115" lon="5.52299">
        <ele>227.80000305176</ele>
        <time>2020-09-12T07:57:34.000Z</time>
      </trkpt>
      <trkpt lat="46.75125" lon="5.52312">
        <ele>227.80000305176</ele>
        <time>2020-09-12T07:57:36.000Z</time>
      </trkpt>
      <trkpt lat="46.75136" lon="5.52325">
        <ele>228</ele>
        <time>2020-09-12T07:57:38.000Z</time>
      </trkpt>
      <trkpt lat="46.75147" lon="5.52338">
        <ele>228.39999389648</ele>
        <time>2020-09-12T07:57:40.000Z</time>
      </trkpt>
      <trkpt lat="46.75158" lon="5.5235">
        <ele>228.80000305176</ele>
        <time>2020-09-12T07:57:42.000Z</time>
      </trkpt>
      <trkpt lat="46.75168" lon="5.52362">
        <ele>229</ele>
        <time>2020-09-12T07:57:44.000Z</time>
      </trkpt>
      <trkpt lat="46.75179" lon="5.52373">
        <ele>229.39999389648</ele>
        <time>2020-09-12T07:57:46.000Z</time>
      </trkpt>
      <trkpt lat="46.75184" lon="5.52378">
        <ele>229.39999389648</ele>
        <time>2020-09-12T07:57:47.000Z</time>
      </trkpt>
      <trkpt lat="46.7519" lon="5.52384">
        <ele>229.60000610352</ele>
        <time>2020-09-12T07:57:48.000Z</time>
      </trkpt>
      <trkpt lat="46.75201" lon="5.52396">
        <ele>230</ele>
        <time>2020-09-12T07:57:50.000Z</time>
      </trkpt>
      <trkpt lat="46.75213" lon="5.52406">
        <ele>230.19999694824</ele>
        <time>2020-09-12T07:57:52.000Z</time>
      </trkpt>
      <trkpt lat="46.7522" lon="5.5241">
        <ele>230.19999694824</ele>
        <time>2020-09-12T07:57:53.000Z</time>
      </trkpt>
      <trkpt lat="46.75226" lon="5.52414">
        <ele>230.19999694824</ele>
        <time>2020-09-12T07:57:54.000Z</time>
      </trkpt>
      <trkpt lat="46.7524" lon="5.52423">
        <ele>230.39999389648</ele>
        <time>2020-09-12T07:57:56.000Z</time>
      </trkpt>
      <trkpt lat="46.75255" lon="5.52434">
        <ele>230.39999389648</ele>
        <time>2020-09-12T07:57:58.000Z</time>
      </trkpt>
      <trkpt lat="46.75269" lon="5.52445">
        <ele>230.39999389648</ele>
        <time>2020-09-12T07:58:00.000Z</time>
      </trkpt>
      <trkpt lat="46.75283" lon="5.52458">
        <ele>230.39999389648</ele>
        <time>2020-09-12T07:58:02.000Z</time>
      </trkpt>
      <trkpt lat="46.75299" lon="5.52471">
        <ele>229.80000305176</ele>
        <time>2020-09-12T07:58:04.000Z</time>
      </trkpt>
      <trkpt lat="46.75314" lon="5.52484">
        <ele>229.19999694824</ele>
        <time>2020-09-12T07:58:06.000Z</time>
      </trkpt>
      <trkpt lat="46.75328" lon="5.52497">
        <ele>228.39999389648</ele>
        <time>2020-09-12T07:58:08.000Z</time>
      </trkpt>
      <trkpt lat="46.75336" lon="5.52503">
        <ele>227.80000305176</ele>
        <time>2020-09-12T07:58:09.000Z</time>
      </trkpt>
      <trkpt lat="46.75343" lon="5.52509">
        <ele>227.19999694824</ele>
        <time>2020-09-12T07:58:10.000Z</time>
      </trkpt>
      <trkpt lat="46.75357" lon="5.52521">
        <ele>227</ele>
        <time>2020-09-12T07:58:12.000Z</time>
      </trkpt>
      <trkpt lat="46.7537" lon="5.52531">
        <ele>226.80000305176</ele>
        <time>2020-09-12T07:58:14.000Z</time>
      </trkpt>
      <trkpt lat="46.75376" lon="5.52536">
        <ele>226.80000305176</ele>
        <time>2020-09-12T07:58:15.000Z</time>
      </trkpt>
      <trkpt lat="46.75382" lon="5.52541">
        <ele>226.80000305176</ele>
        <time>2020-09-12T07:58:16.000Z</time>
      </trkpt>
      <trkpt lat="46.75394" lon="5.5255">
        <ele>226.80000305176</ele>
        <time>2020-09-12T07:58:18.000Z</time>
      </trkpt>
      <trkpt lat="46.75404" lon="5.52559">
        <ele>227</ele>
        <time>2020-09-12T07:58:20.000Z</time>
      </trkpt>
      <trkpt lat="46.75409" lon="5.52565">
        <ele>227.39999389648</ele>
        <time>2020-09-12T07:58:21.000Z</time>
      </trkpt>
      <trkpt lat="46.75413" lon="5.5257">
        <ele>227.80000305176</ele>
        <time>2020-09-12T07:58:22.000Z</time>
      </trkpt>
      <trkpt lat="46.75421" lon="5.52581">
        <ele>228.39999389648</ele>
        <time>2020-09-12T07:58:24.000Z</time>
      </trkpt>
      <trkpt lat="46.75425" lon="5.52586">
        <ele>228.80000305176</ele>
        <time>2020-09-12T07:58:25.000Z</time>
      </trkpt>
      <trkpt lat="46.75429" lon="5.5259">
        <ele>229.39999389648</ele>
        <time>2020-09-12T07:58:26.000Z</time>
      </trkpt>
      <trkpt lat="46.75432" lon="5.52595">
        <ele>229.60000610352</ele>
        <time>2020-09-12T07:58:27.000Z</time>
      </trkpt>
      <trkpt lat="46.75435" lon="5.52599">
        <ele>230</ele>
        <time>2020-09-12T07:58:28.000Z</time>
      </trkpt>
      <trkpt lat="46.75442" lon="5.52606">
        <ele>230.80000305176</ele>
        <time>2020-09-12T07:58:30.000Z</time>
      </trkpt>
      <trkpt lat="46.75446" lon="5.5261">
        <ele>231.19999694824</ele>
        <time>2020-09-12T07:58:31.000Z</time>
      </trkpt>
      <trkpt lat="46.75449" lon="5.52613">
        <ele>231.80000305176</ele>
        <time>2020-09-12T07:58:32.000Z</time>
      </trkpt>
      <trkpt lat="46.75453" lon="5.52617">
        <ele>232.19999694824</ele>
        <time>2020-09-12T07:58:33.000Z</time>
      </trkpt>
      <trkpt lat="46.75456" lon="5.52621">
        <ele>232.80000305176</ele>
        <time>2020-09-12T07:58:34.000Z</time>
      </trkpt>
      <trkpt lat="46.75463" lon="5.52629">
        <ele>233.60000610352</ele>
        <time>2020-09-12T07:58:36.000Z</time>
      </trkpt>
      <trkpt lat="46.7547" lon="5.52636">
        <ele>234.60000610352</ele>
        <time>2020-09-12T07:58:38.000Z</time>
      </trkpt>
      <trkpt lat="46.75474" lon="5.5264">
        <ele>234.80000305176</ele>
        <time>2020-09-12T07:58:39.000Z</time>
      </trkpt>
      <trkpt lat="46.75478" lon="5.52645">
        <ele>235</ele>
        <time>2020-09-12T07:58:40.000Z</time>
      </trkpt>
      <trkpt lat="46.75488" lon="5.52653">
        <ele>235.19999694824</ele>
        <time>2020-09-12T07:58:42.000Z</time>
      </trkpt>
      <trkpt lat="46.75498" lon="5.52661">
        <ele>235.39999389648</ele>
        <time>2020-09-12T07:58:44.000Z</time>
      </trkpt>
      <trkpt lat="46.75504" lon="5.52665">
        <ele>235.60000610352</ele>
        <time>2020-09-12T07:58:45.000Z</time>
      </trkpt>
      <trkpt lat="46.7551" lon="5.52669">
        <ele>235.60000610352</ele>
        <time>2020-09-12T07:58:46.000Z</time>
      </trkpt>
      <trkpt lat="46.75523" lon="5.52677">
        <ele>235.80000305176</ele>
        <time>2020-09-12T07:58:48.000Z</time>
      </trkpt>
      <trkpt lat="46.75538" lon="5.52684">
        <ele>235.80000305176</ele>
        <time>2020-09-12T07:58:50.000Z</time>
      </trkpt>
      <trkpt lat="46.75546" lon="5.52689">
        <ele>235.80000305176</ele>
        <time>2020-09-12T07:58:51.000Z</time>
      </trkpt>
      <trkpt lat="46.75554" lon="5.52693">
        <ele>235.80000305176</ele>
        <time>2020-09-12T07:58:52.000Z</time>
      </trkpt>
      <trkpt lat="46.75571" lon="5.52703">
        <ele>235.80000305176</ele>
        <time>2020-09-12T07:58:54.000Z</time>
      </trkpt>
      <trkpt lat="46.75588" lon="5.52715">
        <ele>235.39999389648</ele>
        <time>2020-09-12T07:58:56.000Z</time>
      </trkpt>
      <trkpt lat="46.75597" lon="5.52721">
        <ele>235</ele>
        <time>2020-09-12T07:58:57.000Z</time>
      </trkpt>
      <trkpt lat="46.75605" lon="5.52728">
        <ele>234.60000610352</ele>
        <time>2020-09-12T07:58:58.000Z</time>
      </trkpt>
      <trkpt lat="46.75622" lon="5.52744">
        <ele>233.39999389648</ele>
        <time>2020-09-12T07:59:00.000Z</time>
      </trkpt>
      <trkpt lat="46.75629" lon="5.52754">
        <ele>232.60000610352</ele>
        <time>2020-09-12T07:59:01.000Z</time>
      </trkpt>
      <trkpt lat="46.75636" lon="5.52764">
        <ele>232</ele>
        <time>2020-09-12T07:59:02.000Z</time>
      </trkpt>
      <trkpt lat="46.7565" lon="5.52784">
        <ele>231.19999694824</ele>
        <time>2020-09-12T07:59:04.000Z</time>
      </trkpt>
      <trkpt lat="46.75657" lon="5.52793">
        <ele>230.80000305176</ele>
        <time>2020-09-12T07:59:05.000Z</time>
      </trkpt>
      <trkpt lat="46.75665" lon="5.52802">
        <ele>230</ele>
        <time>2020-09-12T07:59:06.000Z</time>
      </trkpt>
      <trkpt lat="46.75672" lon="5.5281">
        <ele>229.39999389648</ele>
        <time>2020-09-12T07:59:07.000Z</time>
      </trkpt>
      <trkpt lat="46.7568" lon="5.52817">
        <ele>229</ele>
        <time>2020-09-12T07:59:08.000Z</time>
      </trkpt>
      <trkpt lat="46.75696" lon="5.52831">
        <ele>228.60000610352</ele>
        <time>2020-09-12T07:59:10.000Z</time>
      </trkpt>
      <trkpt lat="46.75711" lon="5.52844">
        <ele>228.60000610352</ele>
        <time>2020-09-12T07:59:12.000Z</time>
      </trkpt>
      <trkpt lat="46.75725" lon="5.52856">
        <ele>228.39999389648</ele>
        <time>2020-09-12T07:59:14.000Z</time>
      </trkpt>
      <trkpt lat="46.75738" lon="5.52868">
        <ele>228.39999389648</ele>
        <time>2020-09-12T07:59:16.000Z</time>
      </trkpt>
      <trkpt lat="46.75749" lon="5.5288">
        <ele>228.39999389648</ele>
        <time>2020-09-12T07:59:18.000Z</time>
      </trkpt>
      <trkpt lat="46.75761" lon="5.52892">
        <ele>229</ele>
        <time>2020-09-12T07:59:20.000Z</time>
      </trkpt>
      <trkpt lat="46.75771" lon="5.52904">
        <ele>229.60000610352</ele>
        <time>2020-09-12T07:59:22.000Z</time>
      </trkpt>
      <trkpt lat="46.75776" lon="5.52911">
        <ele>230</ele>
        <time>2020-09-12T07:59:23.000Z</time>
      </trkpt>
      <trkpt lat="46.7578" lon="5.52919">
        <ele>230.60000610352</ele>
        <time>2020-09-12T07:59:24.000Z</time>
      </trkpt>
      <trkpt lat="46.75785" lon="5.52936">
        <ele>231.60000610352</ele>
        <time>2020-09-12T07:59:26.000Z</time>
      </trkpt>
      <trkpt lat="46.75788" lon="5.52945">
        <ele>232</ele>
        <time>2020-09-12T07:59:27.000Z</time>
      </trkpt>
      <trkpt lat="46.7579" lon="5.52954">
        <ele>232.39999389648</ele>
        <time>2020-09-12T07:59:28.000Z</time>
      </trkpt>
      <trkpt lat="46.75794" lon="5.52973">
        <ele>232.60000610352</ele>
        <time>2020-09-12T07:59:30.000Z</time>
      </trkpt>
      <trkpt lat="46.75798" lon="5.52993">
        <ele>232.80000305176</ele>
        <time>2020-09-12T07:59:32.000Z</time>
      </trkpt>
      <trkpt lat="46.75802" lon="5.53014">
        <ele>232.80000305176</ele>
        <time>2020-09-12T07:59:34.000Z</time>
      </trkpt>
      <trkpt lat="46.75809" lon="5.53036">
        <ele>232.80000305176</ele>
        <time>2020-09-12T07:59:36.000Z</time>
      </trkpt>
      <trkpt lat="46.75814" lon="5.53045">
        <ele>232.80000305176</ele>
        <time>2020-09-12T07:59:37.000Z</time>
      </trkpt>
      <trkpt lat="46.75821" lon="5.53052">
        <ele>232.80000305176</ele>
        <time>2020-09-12T07:59:38.000Z</time>
      </trkpt>
      <trkpt lat="46.7583" lon="5.53056">
        <ele>232.80000305176</ele>
        <time>2020-09-12T07:59:39.000Z</time>
      </trkpt>
      <trkpt lat="46.7584" lon="5.53057">
        <ele>232.80000305176</ele>
        <time>2020-09-12T07:59:40.000Z</time>
      </trkpt>
      <trkpt lat="46.75851" lon="5.53058">
        <ele>232.60000610352</ele>
        <time>2020-09-12T07:59:41.000Z</time>
      </trkpt>
      <trkpt lat="46.75861" lon="5.53058">
        <ele>232</ele>
        <time>2020-09-12T07:59:42.000Z</time>
      </trkpt>
      <trkpt lat="46.75872" lon="5.53058">
        <ele>231.39999389648</ele>
        <time>2020-09-12T07:59:43.000Z</time>
      </trkpt>
      <trkpt lat="46.75884" lon="5.53059">
        <ele>231</ele>
        <time>2020-09-12T07:59:44.000Z</time>
      </trkpt>
      <trkpt lat="46.75895" lon="5.53059">
        <ele>230.39999389648</ele>
        <time>2020-09-12T07:59:45.000Z</time>
      </trkpt>
      <trkpt lat="46.75907" lon="5.5306">
        <ele>229.80000305176</ele>
        <time>2020-09-12T07:59:46.000Z</time>
      </trkpt>
      <trkpt lat="46.75918" lon="5.5306">
        <ele>228.80000305176</ele>
        <time>2020-09-12T07:59:47.000Z</time>
      </trkpt>
      <trkpt lat="46.7593" lon="5.53061">
        <ele>227.80000305176</ele>
        <time>2020-09-12T07:59:48.000Z</time>
      </trkpt>
      <trkpt lat="46.75942" lon="5.53062">
        <ele>226.60000610352</ele>
        <time>2020-09-12T07:59:49.000Z</time>
      </trkpt>
      <trkpt lat="46.75954" lon="5.53063">
        <ele>225.39999389648</ele>
        <time>2020-09-12T07:59:50.000Z</time>
      </trkpt>
      <trkpt lat="46.75966" lon="5.53064">
        <ele>224.39999389648</ele>
        <time>2020-09-12T07:59:51.000Z</time>
      </trkpt>
      <trkpt lat="46.75978" lon="5.53064">
        <ele>223.19999694824</ele>
        <time>2020-09-12T07:59:52.000Z</time>
      </trkpt>
      <trkpt lat="46.75998" lon="5.53066">
        <ele>221.39999389648</ele>
        <time>2020-09-12T07:59:54.000Z</time>
      </trkpt>
      <trkpt lat="46.76006" lon="5.53068">
        <ele>220.19999694824</ele>
        <time>2020-09-12T07:59:55.000Z</time>
      </trkpt>
      <trkpt lat="46.76014" lon="5.5307">
        <ele>219</ele>
        <time>2020-09-12T07:59:56.000Z</time>
      </trkpt>
      <trkpt lat="46.76022" lon="5.53073">
        <ele>217.80000305176</ele>
        <time>2020-09-12T07:59:57.000Z</time>
      </trkpt>
      <trkpt lat="46.76028" lon="5.53076">
        <ele>217</ele>
        <time>2020-09-12T07:59:58.000Z</time>
      </trkpt>
      <trkpt lat="46.76032" lon="5.53079">
        <ele>216.60000610352</ele>
        <time>2020-09-12T07:59:59.000Z</time>
      </trkpt>
      <trkpt lat="46.76035" lon="5.53082">
        <ele>216.39999389648</ele>
        <time>2020-09-12T08:00:00.000Z</time>
      </trkpt>
      <trkpt lat="46.76036" lon="5.53084">
        <ele>216.19999694824</ele>
        <time>2020-09-12T08:00:01.000Z</time>
      </trkpt>
      <trkpt lat="46.76036" lon="5.53087">
        <ele>216.19999694824</ele>
        <time>2020-09-12T08:00:02.000Z</time>
      </trkpt>
      <trkpt lat="46.76034" lon="5.53097">
        <ele>216.19999694824</ele>
        <time>2020-09-12T08:00:04.000Z</time>
      </trkpt>
      <trkpt lat="46.7603" lon="5.5311">
        <ele>216.19999694824</ele>
        <time>2020-09-12T08:00:06.000Z</time>
      </trkpt>
      <trkpt lat="46.76025" lon="5.53124">
        <ele>216.19999694824</ele>
        <time>2020-09-12T08:00:08.000Z</time>
      </trkpt>
      <trkpt lat="46.76023" lon="5.53131">
        <ele>216.19999694824</ele>
        <time>2020-09-12T08:00:09.000Z</time>
      </trkpt>
      <trkpt lat="46.7602" lon="5.53139">
        <ele>216.19999694824</ele>
        <time>2020-09-12T08:00:10.000Z</time>
      </trkpt>
      <trkpt lat="46.76015" lon="5.53156">
        <ele>216.19999694824</ele>
        <time>2020-09-12T08:00:12.000Z</time>
      </trkpt>
      <trkpt lat="46.76011" lon="5.53174">
        <ele>216.39999389648</ele>
        <time>2020-09-12T08:00:14.000Z</time>
      </trkpt>
      <trkpt lat="46.76008" lon="5.53192">
        <ele>216.39999389648</ele>
        <time>2020-09-12T08:00:16.000Z</time>
      </trkpt>
      <trkpt lat="46.76005" lon="5.53211">
        <ele>216.39999389648</ele>
        <time>2020-09-12T08:00:18.000Z</time>
      </trkpt>
      <trkpt lat="46.76003" lon="5.53231">
        <ele>216.39999389648</ele>
        <time>2020-09-12T08:00:20.000Z</time>
      </trkpt>
      <trkpt lat="46.76001" lon="5.53251">
        <ele>216.39999389648</ele>
        <time>2020-09-12T08:00:22.000Z</time>
      </trkpt>
      <trkpt lat="46.75999" lon="5.53271">
        <ele>216.39999389648</ele>
        <time>2020-09-12T08:00:24.000Z</time>
      </trkpt>
      <trkpt lat="46.75998" lon="5.53291">
        <ele>216.39999389648</ele>
        <time>2020-09-12T08:00:26.000Z</time>
      </trkpt>
      <trkpt lat="46.75996" lon="5.53311">
        <ele>216.39999389648</ele>
        <time>2020-09-12T08:00:28.000Z</time>
      </trkpt>
      <trkpt lat="46.75994" lon="5.53331">
        <ele>216.39999389648</ele>
        <time>2020-09-12T08:00:30.000Z</time>
      </trkpt>
      <trkpt lat="46.75992" lon="5.53351">
        <ele>216.39999389648</ele>
        <time>2020-09-12T08:00:32.000Z</time>
      </trkpt>
      <trkpt lat="46.75991" lon="5.53371">
        <ele>216.39999389648</ele>
        <time>2020-09-12T08:00:34.000Z</time>
      </trkpt>
      <trkpt lat="46.75989" lon="5.5339">
        <ele>216.39999389648</ele>
        <time>2020-09-12T08:00:36.000Z</time>
      </trkpt>
      <trkpt lat="46.75988" lon="5.5341">
        <ele>216.39999389648</ele>
        <time>2020-09-12T08:00:38.000Z</time>
      </trkpt>
      <trkpt lat="46.75987" lon="5.53429">
        <ele>216.39999389648</ele>
        <time>2020-09-12T08:00:40.000Z</time>
      </trkpt>
      <trkpt lat="46.75987" lon="5.53438">
        <ele>216.39999389648</ele>
        <time>2020-09-12T08:00:41.000Z</time>
      </trkpt>
      <trkpt lat="46.75986" lon="5.53447">
        <ele>216.39999389648</ele>
        <time>2020-09-12T08:00:42.000Z</time>
      </trkpt>
      <trkpt lat="46.75986" lon="5.53465">
        <ele>216.60000610352</ele>
        <time>2020-09-12T08:00:44.000Z</time>
      </trkpt>
      <trkpt lat="46.75986" lon="5.53483">
        <ele>216.80000305176</ele>
        <time>2020-09-12T08:00:46.000Z</time>
      </trkpt>
      <trkpt lat="46.75985" lon="5.53499">
        <ele>217</ele>
        <time>2020-09-12T08:00:48.000Z</time>
      </trkpt>
      <trkpt lat="46.75985" lon="5.53507">
        <ele>217.19999694824</ele>
        <time>2020-09-12T08:00:49.000Z</time>
      </trkpt>
      <trkpt lat="46.75984" lon="5.53515">
        <ele>217.39999389648</ele>
        <time>2020-09-12T08:00:50.000Z</time>
      </trkpt>
      <trkpt lat="46.75984" lon="5.53523">
        <ele>217.60000610352</ele>
        <time>2020-09-12T08:00:51.000Z</time>
      </trkpt>
      <trkpt lat="46.75983" lon="5.53531">
        <ele>217.60000610352</ele>
        <time>2020-09-12T08:00:52.000Z</time>
      </trkpt>
      <trkpt lat="46.75982" lon="5.53539">
        <ele>217.80000305176</ele>
        <time>2020-09-12T08:00:53.000Z</time>
      </trkpt>
      <trkpt lat="46.7598" lon="5.53546">
        <ele>218.19999694824</ele>
        <time>2020-09-12T08:00:54.000Z</time>
      </trkpt>
      <trkpt lat="46.75977" lon="5.53561">
        <ele>218.80000305176</ele>
        <time>2020-09-12T08:00:56.000Z</time>
      </trkpt>
      <trkpt lat="46.75976" lon="5.53577">
        <ele>219.19999694824</ele>
        <time>2020-09-12T08:00:58.000Z</time>
      </trkpt>
      <trkpt lat="46.75975" lon="5.53593">
        <ele>219.80000305176</ele>
        <time>2020-09-12T08:01:00.000Z</time>
      </trkpt>
      <trkpt lat="46.75974" lon="5.5361">
        <ele>220.39999389648</ele>
        <time>2020-09-12T08:01:02.000Z</time>
      </trkpt>
      <trkpt lat="46.75975" lon="5.53627">
        <ele>221</ele>
        <time>2020-09-12T08:01:04.000Z</time>
      </trkpt>
      <trkpt lat="46.75975" lon="5.53636">
        <ele>221.39999389648</ele>
        <time>2020-09-12T08:01:05.000Z</time>
      </trkpt>
      <trkpt lat="46.75977" lon="5.53644">
        <ele>221.60000610352</ele>
        <time>2020-09-12T08:01:06.000Z</time>
      </trkpt>
      <trkpt lat="46.75979" lon="5.53652">
        <ele>221.80000305176</ele>
        <time>2020-09-12T08:01:07.000Z</time>
      </trkpt>
      <trkpt lat="46.75981" lon="5.53659">
        <ele>222</ele>
        <time>2020-09-12T08:01:08.000Z</time>
      </trkpt>
      <trkpt lat="46.75985" lon="5.53667">
        <ele>222.19999694824</ele>
        <time>2020-09-12T08:01:09.000Z</time>
      </trkpt>
      <trkpt lat="46.75988" lon="5.53675">
        <ele>222.39999389648</ele>
        <time>2020-09-12T08:01:10.000Z</time>
      </trkpt>
      <trkpt lat="46.75991" lon="5.53684">
        <ele>222.39999389648</ele>
        <time>2020-09-12T08:01:11.000Z</time>
      </trkpt>
      <trkpt lat="46.75994" lon="5.53694">
        <ele>222.39999389648</ele>
        <time>2020-09-12T08:01:12.000Z</time>
      </trkpt>
      <trkpt lat="46.75998" lon="5.53716">
        <ele>222.39999389648</ele>
        <time>2020-09-12T08:01:14.000Z</time>
      </trkpt>
      <trkpt lat="46.75998" lon="5.5374">
        <ele>222.39999389648</ele>
        <time>2020-09-12T08:01:16.000Z</time>
      </trkpt>
      <trkpt lat="46.75996" lon="5.53765">
        <ele>222.39999389648</ele>
        <time>2020-09-12T08:01:18.000Z</time>
      </trkpt>
      <trkpt lat="46.75993" lon="5.53789">
        <ele>222.19999694824</ele>
        <time>2020-09-12T08:01:20.000Z</time>
      </trkpt>
      <trkpt lat="46.7599" lon="5.53813">
        <ele>221.19999694824</ele>
        <time>2020-09-12T08:01:22.000Z</time>
      </trkpt>
      <trkpt lat="46.75989" lon="5.53825">
        <ele>220.80000305176</ele>
        <time>2020-09-12T08:01:23.000Z</time>
      </trkpt>
      <trkpt lat="46.75988" lon="5.53837">
        <ele>220.39999389648</ele>
        <time>2020-09-12T08:01:24.000Z</time>
      </trkpt>
      <trkpt lat="46.75986" lon="5.53861">
        <ele>220</ele>
        <time>2020-09-12T08:01:26.000Z</time>
      </trkpt>
      <trkpt lat="46.75985" lon="5.53873">
        <ele>220</ele>
        <time>2020-09-12T08:01:27.000Z</time>
      </trkpt>
      <trkpt lat="46.75984" lon="5.53885">
        <ele>219.80000305176</ele>
        <time>2020-09-12T08:01:28.000Z</time>
      </trkpt>
      <trkpt lat="46.75981" lon="5.53908">
        <ele>219.19999694824</ele>
        <time>2020-09-12T08:01:30.000Z</time>
      </trkpt>
      <trkpt lat="46.75979" lon="5.53919">
        <ele>219.19999694824</ele>
        <time>2020-09-12T08:01:31.000Z</time>
      </trkpt>
      <trkpt lat="46.75976" lon="5.5393">
        <ele>219.19999694824</ele>
        <time>2020-09-12T08:01:32.000Z</time>
      </trkpt>
      <trkpt lat="46.75971" lon="5.5395">
        <ele>219</ele>
        <time>2020-09-12T08:01:34.000Z</time>
      </trkpt>
      <trkpt lat="46.75969" lon="5.53971">
        <ele>219</ele>
        <time>2020-09-12T08:01:36.000Z</time>
      </trkpt>
      <trkpt lat="46.75967" lon="5.53991">
        <ele>219</ele>
        <time>2020-09-12T08:01:38.000Z</time>
      </trkpt>
      <trkpt lat="46.75965" lon="5.54011">
        <ele>219.19999694824</ele>
        <time>2020-09-12T08:01:40.000Z</time>
      </trkpt>
      <trkpt lat="46.75961" lon="5.5403">
        <ele>219.39999389648</ele>
        <time>2020-09-12T08:01:42.000Z</time>
      </trkpt>
      <trkpt lat="46.75961" lon="5.5404">
        <ele>219.80000305176</ele>
        <time>2020-09-12T08:01:43.000Z</time>
      </trkpt>
      <trkpt lat="46.75961" lon="5.5405">
        <ele>220.19999694824</ele>
        <time>2020-09-12T08:01:44.000Z</time>
      </trkpt>
      <trkpt lat="46.75964" lon="5.5407">
        <ele>221</ele>
        <time>2020-09-12T08:01:46.000Z</time>
      </trkpt>
      <trkpt lat="46.75965" lon="5.5408">
        <ele>221.39999389648</ele>
        <time>2020-09-12T08:01:47.000Z</time>
      </trkpt>
      <trkpt lat="46.75967" lon="5.5409">
        <ele>221.80000305176</ele>
        <time>2020-09-12T08:01:48.000Z</time>
      </trkpt>
      <trkpt lat="46.75969" lon="5.541">
        <ele>222</ele>
        <time>2020-09-12T08:01:49.000Z</time>
      </trkpt>
      <trkpt lat="46.75971" lon="5.54111">
        <ele>222.19999694824</ele>
        <time>2020-09-12T08:01:50.000Z</time>
      </trkpt>
      <trkpt lat="46.75974" lon="5.54133">
        <ele>222.39999389648</ele>
        <time>2020-09-12T08:01:52.000Z</time>
      </trkpt>
      <trkpt lat="46.75977" lon="5.54155">
        <ele>222.60000610352</ele>
        <time>2020-09-12T08:01:54.000Z</time>
      </trkpt>
      <trkpt lat="46.7598" lon="5.54179">
        <ele>222.60000610352</ele>
        <time>2020-09-12T08:01:56.000Z</time>
      </trkpt>
      <trkpt lat="46.75983" lon="5.54202">
        <ele>222.60000610352</ele>
        <time>2020-09-12T08:01:58.000Z</time>
      </trkpt>
      <trkpt lat="46.75986" lon="5.54226">
        <ele>222.39999389648</ele>
        <time>2020-09-12T08:02:00.000Z</time>
      </trkpt>
      <trkpt lat="46.75988" lon="5.54237">
        <ele>222.19999694824</ele>
        <time>2020-09-12T08:02:01.000Z</time>
      </trkpt>
      <trkpt lat="46.75989" lon="5.54249">
        <ele>222</ele>
        <time>2020-09-12T08:02:02.000Z</time>
      </trkpt>
      <trkpt lat="46.75992" lon="5.54273">
        <ele>221.80000305176</ele>
        <time>2020-09-12T08:02:04.000Z</time>
      </trkpt>
      <trkpt lat="46.75996" lon="5.54297">
        <ele>221.39999389648</ele>
        <time>2020-09-12T08:02:06.000Z</time>
      </trkpt>
      <trkpt lat="46.75998" lon="5.5432">
        <ele>221.19999694824</ele>
        <time>2020-09-12T08:02:08.000Z</time>
      </trkpt>
      <trkpt lat="46.76001" lon="5.54344">
        <ele>221</ele>
        <time>2020-09-12T08:02:10.000Z</time>
      </trkpt>
      <trkpt lat="46.76002" lon="5.54356">
        <ele>220.80000305176</ele>
        <time>2020-09-12T08:02:11.000Z</time>
      </trkpt>
      <trkpt lat="46.76004" lon="5.54368">
        <ele>220.60000610352</ele>
        <time>2020-09-12T08:02:12.000Z</time>
      </trkpt>
      <trkpt lat="46.76006" lon="5.54391">
        <ele>220.39999389648</ele>
        <time>2020-09-12T08:02:14.000Z</time>
      </trkpt>
      <trkpt lat="46.76009" lon="5.54414">
        <ele>220.19999694824</ele>
        <time>2020-09-12T08:02:16.000Z</time>
      </trkpt>
      <trkpt lat="46.76012" lon="5.54436">
        <ele>220.19999694824</ele>
        <time>2020-09-12T08:02:18.000Z</time>
      </trkpt>
      <trkpt lat="46.76014" lon="5.54457">
        <ele>220.19999694824</ele>
        <time>2020-09-12T08:02:20.000Z</time>
      </trkpt>
      <trkpt lat="46.76015" lon="5.54468">
        <ele>220.19999694824</ele>
        <time>2020-09-12T08:02:21.000Z</time>
      </trkpt>
      <trkpt lat="46.76017" lon="5.54478">
        <ele>220.19999694824</ele>
        <time>2020-09-12T08:02:22.000Z</time>
      </trkpt>
      <trkpt lat="46.76019" lon="5.54498">
        <ele>220.19999694824</ele>
        <time>2020-09-12T08:02:24.000Z</time>
      </trkpt>
      <trkpt lat="46.76021" lon="5.54518">
        <ele>220.39999389648</ele>
        <time>2020-09-12T08:02:26.000Z</time>
      </trkpt>
      <trkpt lat="46.76024" lon="5.54538">
        <ele>221.19999694824</ele>
        <time>2020-09-12T08:02:28.000Z</time>
      </trkpt>
      <trkpt lat="46.76026" lon="5.54557">
        <ele>221.39999389648</ele>
        <time>2020-09-12T08:02:30.000Z</time>
      </trkpt>
      <trkpt lat="46.76027" lon="5.54576">
        <ele>221.60000610352</ele>
        <time>2020-09-12T08:02:32.000Z</time>
      </trkpt>
      <trkpt lat="46.76029" lon="5.54594">
        <ele>221.80000305176</ele>
        <time>2020-09-12T08:02:34.000Z</time>
      </trkpt>
      <trkpt lat="46.7603" lon="5.54604">
        <ele>221.80000305176</ele>
        <time>2020-09-12T08:02:35.000Z</time>
      </trkpt>
      <trkpt lat="46.7603" lon="5.54613">
        <ele>222</ele>
        <time>2020-09-12T08:02:36.000Z</time>
      </trkpt>
      <trkpt lat="46.7603" lon="5.5463">
        <ele>222.39999389648</ele>
        <time>2020-09-12T08:02:38.000Z</time>
      </trkpt>
      <trkpt lat="46.7603" lon="5.54648">
        <ele>222.80000305176</ele>
        <time>2020-09-12T08:02:40.000Z</time>
      </trkpt>
      <trkpt lat="46.76029" lon="5.54656">
        <ele>223</ele>
        <time>2020-09-12T08:02:41.000Z</time>
      </trkpt>
      <trkpt lat="46.76028" lon="5.54665">
        <ele>223.19999694824</ele>
        <time>2020-09-12T08:02:42.000Z</time>
      </trkpt>
      <trkpt lat="46.76027" lon="5.54683">
        <ele>223.60000610352</ele>
        <time>2020-09-12T08:02:44.000Z</time>
      </trkpt>
      <trkpt lat="46.76024" lon="5.54701">
        <ele>224</ele>
        <time>2020-09-12T08:02:46.000Z</time>
      </trkpt>
      <trkpt lat="46.76023" lon="5.5471">
        <ele>224.19999694824</ele>
        <time>2020-09-12T08:02:47.000Z</time>
      </trkpt>
      <trkpt lat="46.76022" lon="5.5472">
        <ele>224.39999389648</ele>
        <time>2020-09-12T08:02:48.000Z</time>
      </trkpt>
      <trkpt lat="46.76019" lon="5.54739">
        <ele>224.60000610352</ele>
        <time>2020-09-12T08:02:50.000Z</time>
      </trkpt>
      <trkpt lat="46.76016" lon="5.54758">
        <ele>224.60000610352</ele>
        <time>2020-09-12T08:02:52.000Z</time>
      </trkpt>
      <trkpt lat="46.76014" lon="5.54778">
        <ele>224.80000305176</ele>
        <time>2020-09-12T08:02:54.000Z</time>
      </trkpt>
      <trkpt lat="46.76011" lon="5.54797">
        <ele>224.80000305176</ele>
        <time>2020-09-12T08:02:56.000Z</time>
      </trkpt>
      <trkpt lat="46.76009" lon="5.54817">
        <ele>224.80000305176</ele>
        <time>2020-09-12T08:02:58.000Z</time>
      </trkpt>
      <trkpt lat="46.76007" lon="5.54837">
        <ele>224.80000305176</ele>
        <time>2020-09-12T08:03:00.000Z</time>
      </trkpt>
      <trkpt lat="46.76005" lon="5.54857">
        <ele>224.60000610352</ele>
        <time>2020-09-12T08:03:02.000Z</time>
      </trkpt>
      <trkpt lat="46.76003" lon="5.54878">
        <ele>224.60000610352</ele>
        <time>2020-09-12T08:03:04.000Z</time>
      </trkpt>
      <trkpt lat="46.76002" lon="5.54899">
        <ele>224.60000610352</ele>
        <time>2020-09-12T08:03:06.000Z</time>
      </trkpt>
      <trkpt lat="46.76001" lon="5.5492">
        <ele>224.39999389648</ele>
        <time>2020-09-12T08:03:08.000Z</time>
      </trkpt>
      <trkpt lat="46.76001" lon="5.54941">
        <ele>224.39999389648</ele>
        <time>2020-09-12T08:03:10.000Z</time>
      </trkpt>
      <trkpt lat="46.76002" lon="5.54962">
        <ele>224.39999389648</ele>
        <time>2020-09-12T08:03:12.000Z</time>
      </trkpt>
      <trkpt lat="46.76002" lon="5.54983">
        <ele>224.39999389648</ele>
        <time>2020-09-12T08:03:14.000Z</time>
      </trkpt>
      <trkpt lat="46.76003" lon="5.55005">
        <ele>224.39999389648</ele>
        <time>2020-09-12T08:03:16.000Z</time>
      </trkpt>
      <trkpt lat="46.76003" lon="5.55026">
        <ele>224.39999389648</ele>
        <time>2020-09-12T08:03:18.000Z</time>
      </trkpt>
      <trkpt lat="46.76003" lon="5.55047">
        <ele>224.39999389648</ele>
        <time>2020-09-12T08:03:20.000Z</time>
      </trkpt>
      <trkpt lat="46.76003" lon="5.55068">
        <ele>224.39999389648</ele>
        <time>2020-09-12T08:03:22.000Z</time>
      </trkpt>
      <trkpt lat="46.76003" lon="5.55089">
        <ele>224.39999389648</ele>
        <time>2020-09-12T08:03:24.000Z</time>
      </trkpt>
      <trkpt lat="46.76004" lon="5.55109">
        <ele>224.60000610352</ele>
        <time>2020-09-12T08:03:26.000Z</time>
      </trkpt>
      <trkpt lat="46.76004" lon="5.55129">
        <ele>224.60000610352</ele>
        <time>2020-09-12T08:03:28.000Z</time>
      </trkpt>
      <trkpt lat="46.76004" lon="5.55149">
        <ele>224.80000305176</ele>
        <time>2020-09-12T08:03:30.000Z</time>
      </trkpt>
      <trkpt lat="46.76004" lon="5.55169">
        <ele>224.80000305176</ele>
        <time>2020-09-12T08:03:32.000Z</time>
      </trkpt>
      <trkpt lat="46.76004" lon="5.55179">
        <ele>225</ele>
        <time>2020-09-12T08:03:33.000Z</time>
      </trkpt>
      <trkpt lat="46.76004" lon="5.55189">
        <ele>225</ele>
        <time>2020-09-12T08:03:34.000Z</time>
      </trkpt>
      <trkpt lat="46.76004" lon="5.55199">
        <ele>225.19999694824</ele>
        <time>2020-09-12T08:03:35.000Z</time>
      </trkpt>
      <trkpt lat="46.76004" lon="5.55209">
        <ele>225.39999389648</ele>
        <time>2020-09-12T08:03:36.000Z</time>
      </trkpt>
      <trkpt lat="46.76005" lon="5.55228">
        <ele>225.60000610352</ele>
        <time>2020-09-12T08:03:38.000Z</time>
      </trkpt>
      <trkpt lat="46.76005" lon="5.55248">
        <ele>226</ele>
        <time>2020-09-12T08:03:40.000Z</time>
      </trkpt>
      <trkpt lat="46.76005" lon="5.55268">
        <ele>226.19999694824</ele>
        <time>2020-09-12T08:03:42.000Z</time>
      </trkpt>
      <trkpt lat="46.76005" lon="5.55278">
        <ele>226.19999694824</ele>
        <time>2020-09-12T08:03:43.000Z</time>
      </trkpt>
      <trkpt lat="46.76005" lon="5.55288">
        <ele>226.39999389648</ele>
        <time>2020-09-12T08:03:44.000Z</time>
      </trkpt>
      <trkpt lat="46.76006" lon="5.55308">
        <ele>226.60000610352</ele>
        <time>2020-09-12T08:03:46.000Z</time>
      </trkpt>
      <trkpt lat="46.76006" lon="5.55328">
        <ele>227</ele>
        <time>2020-09-12T08:03:48.000Z</time>
      </trkpt>
      <trkpt lat="46.76006" lon="5.55348">
        <ele>227.19999694824</ele>
        <time>2020-09-12T08:03:50.000Z</time>
      </trkpt>
      <trkpt lat="46.76006" lon="5.55368">
        <ele>227.39999389648</ele>
        <time>2020-09-12T08:03:52.000Z</time>
      </trkpt>
      <trkpt lat="46.76005" lon="5.55387">
        <ele>227.60000610352</ele>
        <time>2020-09-12T08:03:54.000Z</time>
      </trkpt>
      <trkpt lat="46.76004" lon="5.55407">
        <ele>227.60000610352</ele>
        <time>2020-09-12T08:03:56.000Z</time>
      </trkpt>
      <trkpt lat="46.76002" lon="5.55427">
        <ele>227.80000305176</ele>
        <time>2020-09-12T08:03:58.000Z</time>
      </trkpt>
      <trkpt lat="46.76" lon="5.55446">
        <ele>227.80000305176</ele>
        <time>2020-09-12T08:04:00.000Z</time>
      </trkpt>
      <trkpt lat="46.75999" lon="5.55466">
        <ele>228</ele>
        <time>2020-09-12T08:04:02.000Z</time>
      </trkpt>
      <trkpt lat="46.75997" lon="5.55486">
        <ele>228.19999694824</ele>
        <time>2020-09-12T08:04:04.000Z</time>
      </trkpt>
      <trkpt lat="46.75995" lon="5.55505">
        <ele>228.19999694824</ele>
        <time>2020-09-12T08:04:06.000Z</time>
      </trkpt>
      <trkpt lat="46.75994" lon="5.55515">
        <ele>228.39999389648</ele>
        <time>2020-09-12T08:04:07.000Z</time>
      </trkpt>
      <trkpt lat="46.75994" lon="5.55524">
        <ele>228.39999389648</ele>
        <time>2020-09-12T08:04:08.000Z</time>
      </trkpt>
      <trkpt lat="46.75992" lon="5.55543">
        <ele>228.60000610352</ele>
        <time>2020-09-12T08:04:10.000Z</time>
      </trkpt>
      <trkpt lat="46.75991" lon="5.55562">
        <ele>228.60000610352</ele>
        <time>2020-09-12T08:04:12.000Z</time>
      </trkpt>
      <trkpt lat="46.75989" lon="5.55582">
        <ele>228.80000305176</ele>
        <time>2020-09-12T08:04:14.000Z</time>
      </trkpt>
      <trkpt lat="46.75988" lon="5.55601">
        <ele>228.80000305176</ele>
        <time>2020-09-12T08:04:16.000Z</time>
      </trkpt>
      <trkpt lat="46.75987" lon="5.5561">
        <ele>228.80000305176</ele>
        <time>2020-09-12T08:04:17.000Z</time>
      </trkpt>
      <trkpt lat="46.75987" lon="5.5562">
        <ele>229</ele>
        <time>2020-09-12T08:04:18.000Z</time>
      </trkpt>
      <trkpt lat="46.75985" lon="5.55639">
        <ele>229</ele>
        <time>2020-09-12T08:04:20.000Z</time>
      </trkpt>
      <trkpt lat="46.75983" lon="5.55658">
        <ele>229</ele>
        <time>2020-09-12T08:04:22.000Z</time>
      </trkpt>
      <trkpt lat="46.75982" lon="5.55676">
        <ele>229.19999694824</ele>
        <time>2020-09-12T08:04:24.000Z</time>
      </trkpt>
      <trkpt lat="46.7598" lon="5.55695">
        <ele>229.39999389648</ele>
        <time>2020-09-12T08:04:26.000Z</time>
      </trkpt>
      <trkpt lat="46.75978" lon="5.55714">
        <ele>229.60000610352</ele>
        <time>2020-09-12T08:04:28.000Z</time>
      </trkpt>
      <trkpt lat="46.75976" lon="5.55732">
        <ele>229.60000610352</ele>
        <time>2020-09-12T08:04:30.000Z</time>
      </trkpt>
      <trkpt lat="46.75973" lon="5.55749">
        <ele>229.80000305176</ele>
        <time>2020-09-12T08:04:32.000Z</time>
      </trkpt>
      <trkpt lat="46.75969" lon="5.55767">
        <ele>230</ele>
        <time>2020-09-12T08:04:34.000Z</time>
      </trkpt>
      <trkpt lat="46.75965" lon="5.55784">
        <ele>230.19999694824</ele>
        <time>2020-09-12T08:04:36.000Z</time>
      </trkpt>
      <trkpt lat="46.75963" lon="5.55792">
        <ele>230.39999389648</ele>
        <time>2020-09-12T08:04:37.000Z</time>
      </trkpt>
      <trkpt lat="46.75961" lon="5.558">
        <ele>230.60000610352</ele>
        <time>2020-09-12T08:04:38.000Z</time>
      </trkpt>
      <trkpt lat="46.75955" lon="5.55817">
        <ele>230.80000305176</ele>
        <time>2020-09-12T08:04:40.000Z</time>
      </trkpt>
      <trkpt lat="46.75949" lon="5.55832">
        <ele>231.19999694824</ele>
        <time>2020-09-12T08:04:42.000Z</time>
      </trkpt>
      <trkpt lat="46.75944" lon="5.55847">
        <ele>231.19999694824</ele>
        <time>2020-09-12T08:04:44.000Z</time>
      </trkpt>
      <trkpt lat="46.7594" lon="5.5586">
        <ele>231.39999389648</ele>
        <time>2020-09-12T08:04:46.000Z</time>
      </trkpt>
      <trkpt lat="46.75939" lon="5.55867">
        <ele>231.39999389648</ele>
        <time>2020-09-12T08:04:47.000Z</time>
      </trkpt>
      <trkpt lat="46.75938" lon="5.55873">
        <ele>231.39999389648</ele>
        <time>2020-09-12T08:04:48.000Z</time>
      </trkpt>
      <trkpt lat="46.75937" lon="5.55879">
        <ele>231.39999389648</ele>
        <time>2020-09-12T08:04:49.000Z</time>
      </trkpt>
      <trkpt lat="46.75937" lon="5.55885">
        <ele>231.60000610352</ele>
        <time>2020-09-12T08:04:50.000Z</time>
      </trkpt>
      <trkpt lat="46.75939" lon="5.55891">
        <ele>232</ele>
        <time>2020-09-12T08:04:51.000Z</time>
      </trkpt>
      <trkpt lat="46.75943" lon="5.55897">
        <ele>232.19999694824</ele>
        <time>2020-09-12T08:04:52.000Z</time>
      </trkpt>
      <trkpt lat="46.75948" lon="5.55901">
        <ele>232.80000305176</ele>
        <time>2020-09-12T08:04:53.000Z</time>
      </trkpt>
      <trkpt lat="46.75954" lon="5.55904">
        <ele>233</ele>
        <time>2020-09-12T08:04:54.000Z</time>
      </trkpt>
      <trkpt lat="46.75966" lon="5.55911">
        <ele>233.19999694824</ele>
        <time>2020-09-12T08:04:56.000Z</time>
      </trkpt>
      <trkpt lat="46.75978" lon="5.55922">
        <ele>233.19999694824</ele>
        <time>2020-09-12T08:04:58.000Z</time>
      </trkpt>
      <trkpt lat="46.75991" lon="5.55935">
        <ele>233.19999694824</ele>
        <time>2020-09-12T08:05:00.000Z</time>
      </trkpt>
      <trkpt lat="46.76005" lon="5.55949">
        <ele>233.19999694824</ele>
        <time>2020-09-12T08:05:02.000Z</time>
      </trkpt>
      <trkpt lat="46.7602" lon="5.55963">
        <ele>233</ele>
        <time>2020-09-12T08:05:04.000Z</time>
      </trkpt>
      <trkpt lat="46.76035" lon="5.55979">
        <ele>231.80000305176</ele>
        <time>2020-09-12T08:05:06.000Z</time>
      </trkpt>
      <trkpt lat="46.76042" lon="5.55987">
        <ele>231.39999389648</ele>
        <time>2020-09-12T08:05:07.000Z</time>
      </trkpt>
      <trkpt lat="46.7605" lon="5.55994">
        <ele>230.80000305176</ele>
        <time>2020-09-12T08:05:08.000Z</time>
      </trkpt>
      <trkpt lat="46.76058" lon="5.56002">
        <ele>230.19999694824</ele>
        <time>2020-09-12T08:05:09.000Z</time>
      </trkpt>
      <trkpt lat="46.76065" lon="5.56009">
        <ele>229.80000305176</ele>
        <time>2020-09-12T08:05:10.000Z</time>
      </trkpt>
      <trkpt lat="46.76081" lon="5.56022">
        <ele>228.60000610352</ele>
        <time>2020-09-12T08:05:12.000Z</time>
      </trkpt>
      <trkpt lat="46.7609" lon="5.56027">
        <ele>227.80000305176</ele>
        <time>2020-09-12T08:05:13.000Z</time>
      </trkpt>
      <trkpt lat="46.76098" lon="5.56031">
        <ele>227.39999389648</ele>
        <time>2020-09-12T08:05:14.000Z</time>
      </trkpt>
      <trkpt lat="46.76115" lon="5.56039">
        <ele>226.60000610352</ele>
        <time>2020-09-12T08:05:16.000Z</time>
      </trkpt>
      <trkpt lat="46.76123" lon="5.56043">
        <ele>226.39999389648</ele>
        <time>2020-09-12T08:05:17.000Z</time>
      </trkpt>
      <trkpt lat="46.76131" lon="5.56047">
        <ele>226</ele>
        <time>2020-09-12T08:05:18.000Z</time>
      </trkpt>
      <trkpt lat="46.76147" lon="5.56054">
        <ele>225.39999389648</ele>
        <time>2020-09-12T08:05:20.000Z</time>
      </trkpt>
      <trkpt lat="46.76155" lon="5.56057">
        <ele>225.19999694824</ele>
        <time>2020-09-12T08:05:21.000Z</time>
      </trkpt>
      <trkpt lat="46.76162" lon="5.56061">
        <ele>225</ele>
        <time>2020-09-12T08:05:22.000Z</time>
      </trkpt>
      <trkpt lat="46.76178" lon="5.56067">
        <ele>225</ele>
        <time>2020-09-12T08:05:24.000Z</time>
      </trkpt>
      <trkpt lat="46.76192" lon="5.56072">
        <ele>225</ele>
        <time>2020-09-12T08:05:26.000Z</time>
      </trkpt>
      <trkpt lat="46.762" lon="5.56073">
        <ele>225</ele>
        <time>2020-09-12T08:05:27.000Z</time>
      </trkpt>
      <trkpt lat="46.76207" lon="5.56073">
        <ele>225</ele>
        <time>2020-09-12T08:05:28.000Z</time>
      </trkpt>
      <trkpt lat="46.76221" lon="5.56071">
        <ele>225</ele>
        <time>2020-09-12T08:05:30.000Z</time>
      </trkpt>
      <trkpt lat="46.76228" lon="5.56071">
        <ele>225.39999389648</ele>
        <time>2020-09-12T08:05:31.000Z</time>
      </trkpt>
      <trkpt lat="46.76234" lon="5.56075">
        <ele>225.39999389648</ele>
        <time>2020-09-12T08:05:32.000Z</time>
      </trkpt>
      <trkpt lat="46.76242" lon="5.56089">
        <ele>225.80000305176</ele>
        <time>2020-09-12T08:05:34.000Z</time>
      </trkpt>
      <trkpt lat="46.76242" lon="5.56098">
        <ele>226.19999694824</ele>
        <time>2020-09-12T08:05:35.000Z</time>
      </trkpt>
      <trkpt lat="46.76242" lon="5.56107">
        <ele>226.60000610352</ele>
        <time>2020-09-12T08:05:36.000Z</time>
      </trkpt>
      <trkpt lat="46.7624" lon="5.56127">
        <ele>227.19999694824</ele>
        <time>2020-09-12T08:05:38.000Z</time>
      </trkpt>
      <trkpt lat="46.7624" lon="5.56137">
        <ele>227.60000610352</ele>
        <time>2020-09-12T08:05:39.000Z</time>
      </trkpt>
      <trkpt lat="46.7624" lon="5.56146">
        <ele>228</ele>
        <time>2020-09-12T08:05:40.000Z</time>
      </trkpt>
      <trkpt lat="46.76241" lon="5.56156">
        <ele>228.19999694824</ele>
        <time>2020-09-12T08:05:41.000Z</time>
      </trkpt>
      <trkpt lat="46.76241" lon="5.56166">
        <ele>228.39999389648</ele>
        <time>2020-09-12T08:05:42.000Z</time>
      </trkpt>
      <trkpt lat="46.76243" lon="5.56185">
        <ele>229.19999694824</ele>
        <time>2020-09-12T08:05:44.000Z</time>
      </trkpt>
      <trkpt lat="46.76244" lon="5.56195">
        <ele>229.39999389648</ele>
        <time>2020-09-12T08:05:45.000Z</time>
      </trkpt>
      <trkpt lat="46.76245" lon="5.56205">
        <ele>229.60000610352</ele>
        <time>2020-09-12T08:05:46.000Z</time>
      </trkpt>
      <trkpt lat="46.76247" lon="5.56224">
        <ele>230</ele>
        <time>2020-09-12T08:05:48.000Z</time>
      </trkpt>
      <trkpt lat="46.76249" lon="5.56243">
        <ele>230.39999389648</ele>
        <time>2020-09-12T08:05:50.000Z</time>
      </trkpt>
      <trkpt lat="46.76251" lon="5.56263">
        <ele>230.80000305176</ele>
        <time>2020-09-12T08:05:52.000Z</time>
      </trkpt>
      <trkpt lat="46.76253" lon="5.56282">
        <ele>230.80000305176</ele>
        <time>2020-09-12T08:05:54.000Z</time>
      </trkpt>
      <trkpt lat="46.76254" lon="5.56302">
        <ele>231</ele>
        <time>2020-09-12T08:05:56.000Z</time>
      </trkpt>
      <trkpt lat="46.76256" lon="5.56321">
        <ele>231.19999694824</ele>
        <time>2020-09-12T08:05:58.000Z</time>
      </trkpt>
      <trkpt lat="46.76258" lon="5.5634">
        <ele>231.19999694824</ele>
        <time>2020-09-12T08:06:00.000Z</time>
      </trkpt>
      <trkpt lat="46.7626" lon="5.56359">
        <ele>231.19999694824</ele>
        <time>2020-09-12T08:06:02.000Z</time>
      </trkpt>
      <trkpt lat="46.76262" lon="5.56378">
        <ele>231.39999389648</ele>
        <time>2020-09-12T08:06:04.000Z</time>
      </trkpt>
      <trkpt lat="46.76263" lon="5.56397">
        <ele>231.39999389648</ele>
        <time>2020-09-12T08:06:06.000Z</time>
      </trkpt>
      <trkpt lat="46.76264" lon="5.56416">
        <ele>231.60000610352</ele>
        <time>2020-09-12T08:06:08.000Z</time>
      </trkpt>
      <trkpt lat="46.76265" lon="5.56436">
        <ele>231.60000610352</ele>
        <time>2020-09-12T08:06:10.000Z</time>
      </trkpt>
      <trkpt lat="46.76265" lon="5.56455">
        <ele>231.80000305176</ele>
        <time>2020-09-12T08:06:12.000Z</time>
      </trkpt>
      <trkpt lat="46.76266" lon="5.56475">
        <ele>232</ele>
        <time>2020-09-12T08:06:14.000Z</time>
      </trkpt>
      <trkpt lat="46.76266" lon="5.56495">
        <ele>232</ele>
        <time>2020-09-12T08:06:16.000Z</time>
      </trkpt>
      <trkpt lat="46.76266" lon="5.56515">
        <ele>232.19999694824</ele>
        <time>2020-09-12T08:06:18.000Z</time>
      </trkpt>
      <trkpt lat="46.76266" lon="5.56535">
        <ele>232.19999694824</ele>
        <time>2020-09-12T08:06:20.000Z</time>
      </trkpt>
      <trkpt lat="46.76265" lon="5.56556">
        <ele>232.19999694824</ele>
        <time>2020-09-12T08:06:22.000Z</time>
      </trkpt>
      <trkpt lat="46.76266" lon="5.56566">
        <ele>232.19999694824</ele>
        <time>2020-09-12T08:06:23.000Z</time>
      </trkpt>
      <trkpt lat="46.76266" lon="5.56576">
        <ele>232.39999389648</ele>
        <time>2020-09-12T08:06:24.000Z</time>
      </trkpt>
      <trkpt lat="46.76266" lon="5.56586">
        <ele>232.39999389648</ele>
        <time>2020-09-12T08:06:25.000Z</time>
      </trkpt>
      <trkpt lat="46.76265" lon="5.56596">
        <ele>232.39999389648</ele>
        <time>2020-09-12T08:06:26.000Z</time>
      </trkpt>
      <trkpt lat="46.76265" lon="5.56616">
        <ele>232.39999389648</ele>
        <time>2020-09-12T08:06:28.000Z</time>
      </trkpt>
      <trkpt lat="46.76265" lon="5.56626">
        <ele>232.39999389648</ele>
        <time>2020-09-12T08:06:29.000Z</time>
      </trkpt>
      <trkpt lat="46.76266" lon="5.56636">
        <ele>232.39999389648</ele>
        <time>2020-09-12T08:06:30.000Z</time>
      </trkpt>
      <trkpt lat="46.76268" lon="5.56655">
        <ele>232.39999389648</ele>
        <time>2020-09-12T08:06:32.000Z</time>
      </trkpt>
      <trkpt lat="46.7627" lon="5.56675">
        <ele>232.60000610352</ele>
        <time>2020-09-12T08:06:34.000Z</time>
      </trkpt>
      <trkpt lat="46.76273" lon="5.56694">
        <ele>232.80000305176</ele>
        <time>2020-09-12T08:06:36.000Z</time>
      </trkpt>
      <trkpt lat="46.76277" lon="5.56713">
        <ele>233</ele>
        <time>2020-09-12T08:06:38.000Z</time>
      </trkpt>
      <trkpt lat="46.76281" lon="5.56732">
        <ele>233.39999389648</ele>
        <time>2020-09-12T08:06:40.000Z</time>
      </trkpt>
      <trkpt lat="46.76283" lon="5.56742">
        <ele>233.39999389648</ele>
        <time>2020-09-12T08:06:41.000Z</time>
      </trkpt>
      <trkpt lat="46.76285" lon="5.56752">
        <ele>233.80000305176</ele>
        <time>2020-09-12T08:06:42.000Z</time>
      </trkpt>
      <trkpt lat="46.76289" lon="5.56771">
        <ele>234</ele>
        <time>2020-09-12T08:06:44.000Z</time>
      </trkpt>
      <trkpt lat="46.76293" lon="5.5679">
        <ele>234.19999694824</ele>
        <time>2020-09-12T08:06:46.000Z</time>
      </trkpt>
      <trkpt lat="46.76297" lon="5.5681">
        <ele>234.19999694824</ele>
        <time>2020-09-12T08:06:48.000Z</time>
      </trkpt>
      <trkpt lat="46.76302" lon="5.56829">
        <ele>234.39999389648</ele>
        <time>2020-09-12T08:06:50.000Z</time>
      </trkpt>
      <trkpt lat="46.76304" lon="5.56838">
        <ele>234.39999389648</ele>
        <time>2020-09-12T08:06:51.000Z</time>
      </trkpt>
      <trkpt lat="46.76306" lon="5.56848">
        <ele>234.39999389648</ele>
        <time>2020-09-12T08:06:52.000Z</time>
      </trkpt>
      <trkpt lat="46.76311" lon="5.56867">
        <ele>234.39999389648</ele>
        <time>2020-09-12T08:06:54.000Z</time>
      </trkpt>
      <trkpt lat="46.76315" lon="5.56886">
        <ele>234.39999389648</ele>
        <time>2020-09-12T08:06:56.000Z</time>
      </trkpt>
      <trkpt lat="46.7632" lon="5.56905">
        <ele>234.39999389648</ele>
        <time>2020-09-12T08:06:58.000Z</time>
      </trkpt>
      <trkpt lat="46.76324" lon="5.56924">
        <ele>234.39999389648</ele>
        <time>2020-09-12T08:07:00.000Z</time>
      </trkpt>
      <trkpt lat="46.76329" lon="5.56943">
        <ele>234.60000610352</ele>
        <time>2020-09-12T08:07:02.000Z</time>
      </trkpt>
      <trkpt lat="46.76333" lon="5.56962">
        <ele>234.60000610352</ele>
        <time>2020-09-12T08:07:04.000Z</time>
      </trkpt>
      <trkpt lat="46.76337" lon="5.56982">
        <ele>234.80000305176</ele>
        <time>2020-09-12T08:07:06.000Z</time>
      </trkpt>
      <trkpt lat="46.7634" lon="5.57001">
        <ele>235</ele>
        <time>2020-09-12T08:07:08.000Z</time>
      </trkpt>
      <trkpt lat="46.76342" lon="5.57011">
        <ele>235</ele>
        <time>2020-09-12T08:07:09.000Z</time>
      </trkpt>
      <trkpt lat="46.76344" lon="5.57021">
        <ele>235</ele>
        <time>2020-09-12T08:07:10.000Z</time>
      </trkpt>
      <trkpt lat="46.76347" lon="5.57041">
        <ele>235.19999694824</ele>
        <time>2020-09-12T08:07:12.000Z</time>
      </trkpt>
      <trkpt lat="46.76349" lon="5.57061">
        <ele>235.19999694824</ele>
        <time>2020-09-12T08:07:14.000Z</time>
      </trkpt>
      <trkpt lat="46.76351" lon="5.5708">
        <ele>235.39999389648</ele>
        <time>2020-09-12T08:07:16.000Z</time>
      </trkpt>
      <trkpt lat="46.76352" lon="5.5709">
        <ele>235.39999389648</ele>
        <time>2020-09-12T08:07:17.000Z</time>
      </trkpt>
      <trkpt lat="46.76353" lon="5.571">
        <ele>235.39999389648</ele>
        <time>2020-09-12T08:07:18.000Z</time>
      </trkpt>
      <trkpt lat="46.76354" lon="5.5712">
        <ele>235.39999389648</ele>
        <time>2020-09-12T08:07:20.000Z</time>
      </trkpt>
      <trkpt lat="46.76355" lon="5.5714">
        <ele>235.39999389648</ele>
        <time>2020-09-12T08:07:22.000Z</time>
      </trkpt>
      <trkpt lat="46.76355" lon="5.57161">
        <ele>235.60000610352</ele>
        <time>2020-09-12T08:07:24.000Z</time>
      </trkpt>
      <trkpt lat="46.76356" lon="5.57181">
        <ele>235.60000610352</ele>
        <time>2020-09-12T08:07:26.000Z</time>
      </trkpt>
      <trkpt lat="46.76357" lon="5.57192">
        <ele>235.39999389648</ele>
        <time>2020-09-12T08:07:27.000Z</time>
      </trkpt>
      <trkpt lat="46.76357" lon="5.57202">
        <ele>235.39999389648</ele>
        <time>2020-09-12T08:07:28.000Z</time>
      </trkpt>
      <trkpt lat="46.76358" lon="5.57223">
        <ele>235.39999389648</ele>
        <time>2020-09-12T08:07:30.000Z</time>
      </trkpt>
      <trkpt lat="46.76359" lon="5.57244">
        <ele>235.39999389648</ele>
        <time>2020-09-12T08:07:32.000Z</time>
      </trkpt>
      <trkpt lat="46.7636" lon="5.57265">
        <ele>235.39999389648</ele>
        <time>2020-09-12T08:07:34.000Z</time>
      </trkpt>
      <trkpt lat="46.76361" lon="5.57285">
        <ele>235.39999389648</ele>
        <time>2020-09-12T08:07:36.000Z</time>
      </trkpt>
      <trkpt lat="46.76361" lon="5.57306">
        <ele>235.39999389648</ele>
        <time>2020-09-12T08:07:38.000Z</time>
      </trkpt>
      <trkpt lat="46.76362" lon="5.57327">
        <ele>235.39999389648</ele>
        <time>2020-09-12T08:07:40.000Z</time>
      </trkpt>
      <trkpt lat="46.76363" lon="5.57348">
        <ele>235.39999389648</ele>
        <time>2020-09-12T08:07:42.000Z</time>
      </trkpt>
      <trkpt lat="46.76364" lon="5.57369">
        <ele>235.80000305176</ele>
        <time>2020-09-12T08:07:44.000Z</time>
      </trkpt>
      <trkpt lat="46.76364" lon="5.5738">
        <ele>235.60000610352</ele>
        <time>2020-09-12T08:07:45.000Z</time>
      </trkpt>
      <trkpt lat="46.76365" lon="5.5739">
        <ele>235.60000610352</ele>
        <time>2020-09-12T08:07:46.000Z</time>
      </trkpt>
      <trkpt lat="46.76366" lon="5.57411">
        <ele>235.80000305176</ele>
        <time>2020-09-12T08:07:48.000Z</time>
      </trkpt>
      <trkpt lat="46.76367" lon="5.57431">
        <ele>235.80000305176</ele>
        <time>2020-09-12T08:07:50.000Z</time>
      </trkpt>
      <trkpt lat="46.7637" lon="5.5745">
        <ele>236</ele>
        <time>2020-09-12T08:07:52.000Z</time>
      </trkpt>
      <trkpt lat="46.76371" lon="5.5746">
        <ele>236</ele>
        <time>2020-09-12T08:07:53.000Z</time>
      </trkpt>
      <trkpt lat="46.76373" lon="5.5747">
        <ele>236.19999694824</ele>
        <time>2020-09-12T08:07:54.000Z</time>
      </trkpt>
      <trkpt lat="46.76376" lon="5.57489">
        <ele>236.19999694824</ele>
        <time>2020-09-12T08:07:56.000Z</time>
      </trkpt>
      <trkpt lat="46.7638" lon="5.57508">
        <ele>236.60000610352</ele>
        <time>2020-09-12T08:07:58.000Z</time>
      </trkpt>
      <trkpt lat="46.76383" lon="5.57527">
        <ele>236.60000610352</ele>
        <time>2020-09-12T08:08:00.000Z</time>
      </trkpt>
      <trkpt lat="46.76387" lon="5.57546">
        <ele>236.80000305176</ele>
        <time>2020-09-12T08:08:02.000Z</time>
      </trkpt>
      <trkpt lat="46.76391" lon="5.57565">
        <ele>237</ele>
        <time>2020-09-12T08:08:04.000Z</time>
      </trkpt>
      <trkpt lat="46.76394" lon="5.57583">
        <ele>237.39999389648</ele>
        <time>2020-09-12T08:08:06.000Z</time>
      </trkpt>
      <trkpt lat="46.76398" lon="5.57602">
        <ele>237.60000610352</ele>
        <time>2020-09-12T08:08:08.000Z</time>
      </trkpt>
      <trkpt lat="46.76402" lon="5.57621">
        <ele>237.60000610352</ele>
        <time>2020-09-12T08:08:10.000Z</time>
      </trkpt>
      <trkpt lat="46.76407" lon="5.5764">
        <ele>237.80000305176</ele>
        <time>2020-09-12T08:08:12.000Z</time>
      </trkpt>
      <trkpt lat="46.76411" lon="5.57658">
        <ele>238</ele>
        <time>2020-09-12T08:08:14.000Z</time>
      </trkpt>
      <trkpt lat="46.76415" lon="5.57677">
        <ele>238</ele>
        <time>2020-09-12T08:08:16.000Z</time>
      </trkpt>
      <trkpt lat="46.76419" lon="5.57695">
        <ele>238.19999694824</ele>
        <time>2020-09-12T08:08:18.000Z</time>
      </trkpt>
      <trkpt lat="46.76424" lon="5.57714">
        <ele>238.19999694824</ele>
        <time>2020-09-12T08:08:20.000Z</time>
      </trkpt>
      <trkpt lat="46.76429" lon="5.57732">
        <ele>238.39999389648</ele>
        <time>2020-09-12T08:08:22.000Z</time>
      </trkpt>
      <trkpt lat="46.76433" lon="5.57752">
        <ele>238.39999389648</ele>
        <time>2020-09-12T08:08:24.000Z</time>
      </trkpt>
      <trkpt lat="46.76436" lon="5.57771">
        <ele>238.39999389648</ele>
        <time>2020-09-12T08:08:26.000Z</time>
      </trkpt>
      <trkpt lat="46.76437" lon="5.57781">
        <ele>238.60000610352</ele>
        <time>2020-09-12T08:08:27.000Z</time>
      </trkpt>
      <trkpt lat="46.76438" lon="5.57792">
        <ele>238.60000610352</ele>
        <time>2020-09-12T08:08:28.000Z</time>
      </trkpt>
      <trkpt lat="46.76439" lon="5.57812">
        <ele>238.80000305176</ele>
        <time>2020-09-12T08:08:30.000Z</time>
      </trkpt>
      <trkpt lat="46.76439" lon="5.57831">
        <ele>239</ele>
        <time>2020-09-12T08:08:32.000Z</time>
      </trkpt>
      <trkpt lat="46.76439" lon="5.57841">
        <ele>239</ele>
        <time>2020-09-12T08:08:33.000Z</time>
      </trkpt>
      <trkpt lat="46.76438" lon="5.57851">
        <ele>239</ele>
        <time>2020-09-12T08:08:34.000Z</time>
      </trkpt>
      <trkpt lat="46.76437" lon="5.5787">
        <ele>239.19999694824</ele>
        <time>2020-09-12T08:08:36.000Z</time>
      </trkpt>
      <trkpt lat="46.76435" lon="5.57889">
        <ele>239.39999389648</ele>
        <time>2020-09-12T08:08:38.000Z</time>
      </trkpt>
      <trkpt lat="46.76433" lon="5.57908">
        <ele>239.39999389648</ele>
        <time>2020-09-12T08:08:40.000Z</time>
      </trkpt>
      <trkpt lat="46.76432" lon="5.57927">
        <ele>239.60000610352</ele>
        <time>2020-09-12T08:08:42.000Z</time>
      </trkpt>
      <trkpt lat="46.7643" lon="5.57946">
        <ele>239.60000610352</ele>
        <time>2020-09-12T08:08:44.000Z</time>
      </trkpt>
      <trkpt lat="46.76429" lon="5.57965">
        <ele>239.80000305176</ele>
        <time>2020-09-12T08:08:46.000Z</time>
      </trkpt>
      <trkpt lat="46.76427" lon="5.57984">
        <ele>240</ele>
        <time>2020-09-12T08:08:48.000Z</time>
      </trkpt>
      <trkpt lat="46.76426" lon="5.58003">
        <ele>240.19999694824</ele>
        <time>2020-09-12T08:08:50.000Z</time>
      </trkpt>
      <trkpt lat="46.76424" lon="5.58022">
        <ele>240.39999389648</ele>
        <time>2020-09-12T08:08:52.000Z</time>
      </trkpt>
      <trkpt lat="46.76423" lon="5.58041">
        <ele>240.39999389648</ele>
        <time>2020-09-12T08:08:54.000Z</time>
      </trkpt>
      <trkpt lat="46.76422" lon="5.58059">
        <ele>240.60000610352</ele>
        <time>2020-09-12T08:08:56.000Z</time>
      </trkpt>
      <trkpt lat="46.76421" lon="5.58068">
        <ele>240.60000610352</ele>
        <time>2020-09-12T08:08:57.000Z</time>
      </trkpt>
      <trkpt lat="46.7642" lon="5.58077">
        <ele>240.60000610352</ele>
        <time>2020-09-12T08:08:58.000Z</time>
      </trkpt>
      <trkpt lat="46.76418" lon="5.58096">
        <ele>240.60000610352</ele>
        <time>2020-09-12T08:09:00.000Z</time>
      </trkpt>
      <trkpt lat="46.76417" lon="5.58114">
        <ele>240.60000610352</ele>
        <time>2020-09-12T08:09:02.000Z</time>
      </trkpt>
      <trkpt lat="46.76416" lon="5.58132">
        <ele>240.60000610352</ele>
        <time>2020-09-12T08:09:04.000Z</time>
      </trkpt>
      <trkpt lat="46.76415" lon="5.5815">
        <ele>240.80000305176</ele>
        <time>2020-09-12T08:09:06.000Z</time>
      </trkpt>
      <trkpt lat="46.76414" lon="5.58158">
        <ele>240.80000305176</ele>
        <time>2020-09-12T08:09:07.000Z</time>
      </trkpt>
      <trkpt lat="46.76414" lon="5.58167">
        <ele>240.80000305176</ele>
        <time>2020-09-12T08:09:08.000Z</time>
      </trkpt>
      <trkpt lat="46.76413" lon="5.58186">
        <ele>241</ele>
        <time>2020-09-12T08:09:10.000Z</time>
      </trkpt>
      <trkpt lat="46.76413" lon="5.58204">
        <ele>241</ele>
        <time>2020-09-12T08:09:12.000Z</time>
      </trkpt>
      <trkpt lat="46.76413" lon="5.58222">
        <ele>241.19999694824</ele>
        <time>2020-09-12T08:09:14.000Z</time>
      </trkpt>
      <trkpt lat="46.76413" lon="5.58241">
        <ele>241.19999694824</ele>
        <time>2020-09-12T08:09:16.000Z</time>
      </trkpt>
      <trkpt lat="46.76414" lon="5.5826">
        <ele>241.39999389648</ele>
        <time>2020-09-12T08:09:18.000Z</time>
      </trkpt>
      <trkpt lat="46.76416" lon="5.58278">
        <ele>241.60000610352</ele>
        <time>2020-09-12T08:09:20.000Z</time>
      </trkpt>
      <trkpt lat="46.76419" lon="5.58297">
        <ele>241.60000610352</ele>
        <time>2020-09-12T08:09:22.000Z</time>
      </trkpt>
      <trkpt lat="46.7642" lon="5.58306">
        <ele>241.80000305176</ele>
        <time>2020-09-12T08:09:23.000Z</time>
      </trkpt>
      <trkpt lat="46.76422" lon="5.58315">
        <ele>241.80000305176</ele>
        <time>2020-09-12T08:09:24.000Z</time>
      </trkpt>
      <trkpt lat="46.76425" lon="5.58333">
        <ele>241.80000305176</ele>
        <time>2020-09-12T08:09:26.000Z</time>
      </trkpt>
      <trkpt lat="46.76428" lon="5.58351">
        <ele>242</ele>
        <time>2020-09-12T08:09:28.000Z</time>
      </trkpt>
      <trkpt lat="46.76431" lon="5.58369">
        <ele>242</ele>
        <time>2020-09-12T08:09:30.000Z</time>
      </trkpt>
      <trkpt lat="46.76432" lon="5.58378">
        <ele>242</ele>
        <time>2020-09-12T08:09:31.000Z</time>
      </trkpt>
      <trkpt lat="46.76434" lon="5.58387">
        <ele>242.19999694824</ele>
        <time>2020-09-12T08:09:32.000Z</time>
      </trkpt>
      <trkpt lat="46.76436" lon="5.58406">
        <ele>242.19999694824</ele>
        <time>2020-09-12T08:09:34.000Z</time>
      </trkpt>
      <trkpt lat="46.76437" lon="5.58415">
        <ele>242.19999694824</ele>
        <time>2020-09-12T08:09:35.000Z</time>
      </trkpt>
      <trkpt lat="46.76438" lon="5.58425">
        <ele>242.19999694824</ele>
        <time>2020-09-12T08:09:36.000Z</time>
      </trkpt>
      <trkpt lat="46.76439" lon="5.58443">
        <ele>242.19999694824</ele>
        <time>2020-09-12T08:09:38.000Z</time>
      </trkpt>
      <trkpt lat="46.7644" lon="5.58462">
        <ele>242.19999694824</ele>
        <time>2020-09-12T08:09:40.000Z</time>
      </trkpt>
      <trkpt lat="46.76441" lon="5.5848">
        <ele>242.39999389648</ele>
        <time>2020-09-12T08:09:42.000Z</time>
      </trkpt>
      <trkpt lat="46.76443" lon="5.58499">
        <ele>242.39999389648</ele>
        <time>2020-09-12T08:09:44.000Z</time>
      </trkpt>
      <trkpt lat="46.76444" lon="5.58518">
        <ele>242.39999389648</ele>
        <time>2020-09-12T08:09:46.000Z</time>
      </trkpt>
      <trkpt lat="46.76445" lon="5.58536">
        <ele>242.39999389648</ele>
        <time>2020-09-12T08:09:48.000Z</time>
      </trkpt>
      <trkpt lat="46.76446" lon="5.58555">
        <ele>242.39999389648</ele>
        <time>2020-09-12T08:09:50.000Z</time>
      </trkpt>
      <trkpt lat="46.76448" lon="5.58573">
        <ele>242.39999389648</ele>
        <time>2020-09-12T08:09:52.000Z</time>
      </trkpt>
      <trkpt lat="46.76448" lon="5.58592">
        <ele>242.60000610352</ele>
        <time>2020-09-12T08:09:54.000Z</time>
      </trkpt>
      <trkpt lat="46.76449" lon="5.58611">
        <ele>242.60000610352</ele>
        <time>2020-09-12T08:09:56.000Z</time>
      </trkpt>
      <trkpt lat="46.7645" lon="5.58629">
        <ele>242.60000610352</ele>
        <time>2020-09-12T08:09:58.000Z</time>
      </trkpt>
      <trkpt lat="46.76449" lon="5.58648">
        <ele>242.80000305176</ele>
        <time>2020-09-12T08:10:00.000Z</time>
      </trkpt>
      <trkpt lat="46.76448" lon="5.58668">
        <ele>243.19999694824</ele>
        <time>2020-09-12T08:10:02.000Z</time>
      </trkpt>
      <trkpt lat="46.76447" lon="5.58687">
        <ele>243.39999389648</ele>
        <time>2020-09-12T08:10:04.000Z</time>
      </trkpt>
      <trkpt lat="46.76445" lon="5.58706">
        <ele>243.60000610352</ele>
        <time>2020-09-12T08:10:06.000Z</time>
      </trkpt>
      <trkpt lat="46.76444" lon="5.58725">
        <ele>243.60000610352</ele>
        <time>2020-09-12T08:10:08.000Z</time>
      </trkpt>
      <trkpt lat="46.76443" lon="5.58735">
        <ele>243.60000610352</ele>
        <time>2020-09-12T08:10:09.000Z</time>
      </trkpt>
      <trkpt lat="46.76442" lon="5.58744">
        <ele>243.60000610352</ele>
        <time>2020-09-12T08:10:10.000Z</time>
      </trkpt>
      <trkpt lat="46.76441" lon="5.58764">
        <ele>243.80000305176</ele>
        <time>2020-09-12T08:10:12.000Z</time>
      </trkpt>
      <trkpt lat="46.7644" lon="5.58783">
        <ele>243.80000305176</ele>
        <time>2020-09-12T08:10:14.000Z</time>
      </trkpt>
      <trkpt lat="46.76438" lon="5.58803">
        <ele>244</ele>
        <time>2020-09-12T08:10:16.000Z</time>
      </trkpt>
      <trkpt lat="46.76437" lon="5.58822">
        <ele>244.19999694824</ele>
        <time>2020-09-12T08:10:18.000Z</time>
      </trkpt>
      <trkpt lat="46.76436" lon="5.58842">
        <ele>244.19999694824</ele>
        <time>2020-09-12T08:10:20.000Z</time>
      </trkpt>
      <trkpt lat="46.76434" lon="5.58861">
        <ele>244.19999694824</ele>
        <time>2020-09-12T08:10:22.000Z</time>
      </trkpt>
      <trkpt lat="46.76433" lon="5.58881">
        <ele>244.39999389648</ele>
        <time>2020-09-12T08:10:24.000Z</time>
      </trkpt>
      <trkpt lat="46.76432" lon="5.589">
        <ele>244.39999389648</ele>
        <time>2020-09-12T08:10:26.000Z</time>
      </trkpt>
      <trkpt lat="46.7643" lon="5.58919">
        <ele>244.39999389648</ele>
        <time>2020-09-12T08:10:28.000Z</time>
      </trkpt>
      <trkpt lat="46.76429" lon="5.58939">
        <ele>244.60000610352</ele>
        <time>2020-09-12T08:10:30.000Z</time>
      </trkpt>
      <trkpt lat="46.76428" lon="5.58949">
        <ele>244.60000610352</ele>
        <time>2020-09-12T08:10:31.000Z</time>
      </trkpt>
      <trkpt lat="46.76428" lon="5.58959">
        <ele>244.80000305176</ele>
        <time>2020-09-12T08:10:32.000Z</time>
      </trkpt>
      <trkpt lat="46.76426" lon="5.58978">
        <ele>244.80000305176</ele>
        <time>2020-09-12T08:10:34.000Z</time>
      </trkpt>
      <trkpt lat="46.76425" lon="5.58998">
        <ele>245</ele>
        <time>2020-09-12T08:10:36.000Z</time>
      </trkpt>
      <trkpt lat="46.76423" lon="5.59018">
        <ele>245</ele>
        <time>2020-09-12T08:10:38.000Z</time>
      </trkpt>
      <trkpt lat="46.76422" lon="5.59038">
        <ele>245</ele>
        <time>2020-09-12T08:10:40.000Z</time>
      </trkpt>
      <trkpt lat="46.76421" lon="5.59047">
        <ele>245</ele>
        <time>2020-09-12T08:10:41.000Z</time>
      </trkpt>
      <trkpt lat="46.76421" lon="5.59057">
        <ele>245</ele>
        <time>2020-09-12T08:10:42.000Z</time>
      </trkpt>
      <trkpt lat="46.76419" lon="5.59078">
        <ele>245</ele>
        <time>2020-09-12T08:10:44.000Z</time>
      </trkpt>
      <trkpt lat="46.76418" lon="5.59098">
        <ele>245</ele>
        <time>2020-09-12T08:10:46.000Z</time>
      </trkpt>
      <trkpt lat="46.76416" lon="5.59118">
        <ele>244.80000305176</ele>
        <time>2020-09-12T08:10:48.000Z</time>
      </trkpt>
      <trkpt lat="46.76415" lon="5.59128">
        <ele>244.80000305176</ele>
        <time>2020-09-12T08:10:49.000Z</time>
      </trkpt>
      <trkpt lat="46.76414" lon="5.59138">
        <ele>244.80000305176</ele>
        <time>2020-09-12T08:10:50.000Z</time>
      </trkpt>
      <trkpt lat="46.76413" lon="5.59158">
        <ele>244.80000305176</ele>
        <time>2020-09-12T08:10:52.000Z</time>
      </trkpt>
      <trkpt lat="46.76412" lon="5.59179">
        <ele>244.80000305176</ele>
        <time>2020-09-12T08:10:54.000Z</time>
      </trkpt>
      <trkpt lat="46.7641" lon="5.59199">
        <ele>244.80000305176</ele>
        <time>2020-09-12T08:10:56.000Z</time>
      </trkpt>
      <trkpt lat="46.76409" lon="5.59209">
        <ele>244.80000305176</ele>
        <time>2020-09-12T08:10:57.000Z</time>
      </trkpt>
      <trkpt lat="46.76408" lon="5.5922">
        <ele>244.80000305176</ele>
        <time>2020-09-12T08:10:58.000Z</time>
      </trkpt>
      <trkpt lat="46.76407" lon="5.5924">
        <ele>244.80000305176</ele>
        <time>2020-09-12T08:11:00.000Z</time>
      </trkpt>
      <trkpt lat="46.76405" lon="5.59261">
        <ele>244.80000305176</ele>
        <time>2020-09-12T08:11:02.000Z</time>
      </trkpt>
      <trkpt lat="46.76404" lon="5.59283">
        <ele>244.80000305176</ele>
        <time>2020-09-12T08:11:04.000Z</time>
      </trkpt>
      <trkpt lat="46.76403" lon="5.59293">
        <ele>244.60000610352</ele>
        <time>2020-09-12T08:11:05.000Z</time>
      </trkpt>
      <trkpt lat="46.76402" lon="5.59304">
        <ele>244.60000610352</ele>
        <time>2020-09-12T08:11:06.000Z</time>
      </trkpt>
      <trkpt lat="46.76401" lon="5.59324">
        <ele>244.39999389648</ele>
        <time>2020-09-12T08:11:08.000Z</time>
      </trkpt>
      <trkpt lat="46.76399" lon="5.59346">
        <ele>244.39999389648</ele>
        <time>2020-09-12T08:11:10.000Z</time>
      </trkpt>
      <trkpt lat="46.76398" lon="5.59366">
        <ele>244.39999389648</ele>
        <time>2020-09-12T08:11:12.000Z</time>
      </trkpt>
      <trkpt lat="46.76397" lon="5.59387">
        <ele>244.19999694824</ele>
        <time>2020-09-12T08:11:14.000Z</time>
      </trkpt>
      <trkpt lat="46.76396" lon="5.59407">
        <ele>244.19999694824</ele>
        <time>2020-09-12T08:11:16.000Z</time>
      </trkpt>
      <trkpt lat="46.76394" lon="5.59428">
        <ele>244.19999694824</ele>
        <time>2020-09-12T08:11:18.000Z</time>
      </trkpt>
      <trkpt lat="46.76392" lon="5.5945">
        <ele>244.39999389648</ele>
        <time>2020-09-12T08:11:20.000Z</time>
      </trkpt>
      <trkpt lat="46.76391" lon="5.59472">
        <ele>244.39999389648</ele>
        <time>2020-09-12T08:11:22.000Z</time>
      </trkpt>
      <trkpt lat="46.76389" lon="5.59494">
        <ele>244.39999389648</ele>
        <time>2020-09-12T08:11:24.000Z</time>
      </trkpt>
      <trkpt lat="46.76388" lon="5.59515">
        <ele>244.39999389648</ele>
        <time>2020-09-12T08:11:26.000Z</time>
      </trkpt>
      <trkpt lat="46.76386" lon="5.59537">
        <ele>244.60000610352</ele>
        <time>2020-09-12T08:11:28.000Z</time>
      </trkpt>
      <trkpt lat="46.76383" lon="5.59558">
        <ele>244.39999389648</ele>
        <time>2020-09-12T08:11:30.000Z</time>
      </trkpt>
      <trkpt lat="46.76382" lon="5.59569">
        <ele>244.39999389648</ele>
        <time>2020-09-12T08:11:31.000Z</time>
      </trkpt>
      <trkpt lat="46.76381" lon="5.5958">
        <ele>244.39999389648</ele>
        <time>2020-09-12T08:11:32.000Z</time>
      </trkpt>
      <trkpt lat="46.76378" lon="5.59602">
        <ele>244.19999694824</ele>
        <time>2020-09-12T08:11:34.000Z</time>
      </trkpt>
      <trkpt lat="46.76376" lon="5.59624">
        <ele>244.19999694824</ele>
        <time>2020-09-12T08:11:36.000Z</time>
      </trkpt>
      <trkpt lat="46.76373" lon="5.59645">
        <ele>244.19999694824</ele>
        <time>2020-09-12T08:11:38.000Z</time>
      </trkpt>
      <trkpt lat="46.7637" lon="5.59667">
        <ele>244</ele>
        <time>2020-09-12T08:11:40.000Z</time>
      </trkpt>
      <trkpt lat="46.76368" lon="5.59677">
        <ele>244</ele>
        <time>2020-09-12T08:11:41.000Z</time>
      </trkpt>
      <trkpt lat="46.76366" lon="5.59687">
        <ele>244</ele>
        <time>2020-09-12T08:11:42.000Z</time>
      </trkpt>
      <trkpt lat="46.76362" lon="5.59707">
        <ele>244</ele>
        <time>2020-09-12T08:11:44.000Z</time>
      </trkpt>
      <trkpt lat="46.76358" lon="5.59725">
        <ele>244</ele>
        <time>2020-09-12T08:11:46.000Z</time>
      </trkpt>
      <trkpt lat="46.76353" lon="5.59744">
        <ele>244</ele>
        <time>2020-09-12T08:11:48.000Z</time>
      </trkpt>
      <trkpt lat="46.76348" lon="5.59762">
        <ele>244</ele>
        <time>2020-09-12T08:11:50.000Z</time>
      </trkpt>
      <trkpt lat="46.76343" lon="5.5978">
        <ele>244</ele>
        <time>2020-09-12T08:11:52.000Z</time>
      </trkpt>
      <trkpt lat="46.76339" lon="5.59796">
        <ele>244.19999694824</ele>
        <time>2020-09-12T08:11:54.000Z</time>
      </trkpt>
      <trkpt lat="46.76337" lon="5.59804">
        <ele>244.19999694824</ele>
        <time>2020-09-12T08:11:55.000Z</time>
      </trkpt>
      <trkpt lat="46.76334" lon="5.59813">
        <ele>244.19999694824</ele>
        <time>2020-09-12T08:11:56.000Z</time>
      </trkpt>
      <trkpt lat="46.76329" lon="5.59831">
        <ele>244.19999694824</ele>
        <time>2020-09-12T08:11:58.000Z</time>
      </trkpt>
      <trkpt lat="46.76323" lon="5.5985">
        <ele>244.19999694824</ele>
        <time>2020-09-12T08:12:00.000Z</time>
      </trkpt>
      <trkpt lat="46.7632" lon="5.59859">
        <ele>244</ele>
        <time>2020-09-12T08:12:01.000Z</time>
      </trkpt>
      <trkpt lat="46.76317" lon="5.59869">
        <ele>244</ele>
        <time>2020-09-12T08:12:02.000Z</time>
      </trkpt>
      <trkpt lat="46.76311" lon="5.59888">
        <ele>244</ele>
        <time>2020-09-12T08:12:04.000Z</time>
      </trkpt>
      <trkpt lat="46.76305" lon="5.59907">
        <ele>243.80000305176</ele>
        <time>2020-09-12T08:12:06.000Z</time>
      </trkpt>
      <trkpt lat="46.76298" lon="5.59925">
        <ele>243.60000610352</ele>
        <time>2020-09-12T08:12:08.000Z</time>
      </trkpt>
      <trkpt lat="46.76295" lon="5.59933">
        <ele>243.60000610352</ele>
        <time>2020-09-12T08:12:09.000Z</time>
      </trkpt>
      <trkpt lat="46.76292" lon="5.5994">
        <ele>243.60000610352</ele>
        <time>2020-09-12T08:12:10.000Z</time>
      </trkpt>
      <trkpt lat="46.76286" lon="5.59957">
        <ele>243.60000610352</ele>
        <time>2020-09-12T08:12:12.000Z</time>
      </trkpt>
      <trkpt lat="46.76278" lon="5.59973">
        <ele>243.60000610352</ele>
        <time>2020-09-12T08:12:14.000Z</time>
      </trkpt>
      <trkpt lat="46.76271" lon="5.5999">
        <ele>243.60000610352</ele>
        <time>2020-09-12T08:12:16.000Z</time>
      </trkpt>
      <trkpt lat="46.76263" lon="5.60007">
        <ele>243.80000305176</ele>
        <time>2020-09-12T08:12:18.000Z</time>
      </trkpt>
      <trkpt lat="46.76255" lon="5.60024">
        <ele>244</ele>
        <time>2020-09-12T08:12:20.000Z</time>
      </trkpt>
      <trkpt lat="46.76247" lon="5.60042">
        <ele>244.39999389648</ele>
        <time>2020-09-12T08:12:22.000Z</time>
      </trkpt>
      <trkpt lat="46.76239" lon="5.60059">
        <ele>244.60000610352</ele>
        <time>2020-09-12T08:12:24.000Z</time>
      </trkpt>
      <trkpt lat="46.7623" lon="5.60076">
        <ele>244.80000305176</ele>
        <time>2020-09-12T08:12:26.000Z</time>
      </trkpt>
      <trkpt lat="46.76222" lon="5.60094">
        <ele>244.80000305176</ele>
        <time>2020-09-12T08:12:28.000Z</time>
      </trkpt>
      <trkpt lat="46.76213" lon="5.60111">
        <ele>244.80000305176</ele>
        <time>2020-09-12T08:12:30.000Z</time>
      </trkpt>
      <trkpt lat="46.76204" lon="5.60129">
        <ele>244.80000305176</ele>
        <time>2020-09-12T08:12:32.000Z</time>
      </trkpt>
      <trkpt lat="46.76196" lon="5.60146">
        <ele>244.80000305176</ele>
        <time>2020-09-12T08:12:34.000Z</time>
      </trkpt>
      <trkpt lat="46.76187" lon="5.60163">
        <ele>244.80000305176</ele>
        <time>2020-09-12T08:12:36.000Z</time>
      </trkpt>
      <trkpt lat="46.76178" lon="5.6018">
        <ele>245</ele>
        <time>2020-09-12T08:12:38.000Z</time>
      </trkpt>
      <trkpt lat="46.76169" lon="5.60197">
        <ele>245</ele>
        <time>2020-09-12T08:12:40.000Z</time>
      </trkpt>
      <trkpt lat="46.76164" lon="5.60206">
        <ele>245</ele>
        <time>2020-09-12T08:12:41.000Z</time>
      </trkpt>
      <trkpt lat="46.7616" lon="5.60215">
        <ele>245</ele>
        <time>2020-09-12T08:12:42.000Z</time>
      </trkpt>
      <trkpt lat="46.7615" lon="5.60233">
        <ele>244.80000305176</ele>
        <time>2020-09-12T08:12:44.000Z</time>
      </trkpt>
      <trkpt lat="46.7614" lon="5.60252">
        <ele>244.80000305176</ele>
        <time>2020-09-12T08:12:46.000Z</time>
      </trkpt>
      <trkpt lat="46.7613" lon="5.60272">
        <ele>244.80000305176</ele>
        <time>2020-09-12T08:12:48.000Z</time>
      </trkpt>
      <trkpt lat="46.76124" lon="5.60282">
        <ele>244.60000610352</ele>
        <time>2020-09-12T08:12:49.000Z</time>
      </trkpt>
      <trkpt lat="46.76119" lon="5.60292">
        <ele>244.60000610352</ele>
        <time>2020-09-12T08:12:50.000Z</time>
      </trkpt>
      <trkpt lat="46.76108" lon="5.60314">
        <ele>244.39999389648</ele>
        <time>2020-09-12T08:12:52.000Z</time>
      </trkpt>
      <trkpt lat="46.76097" lon="5.60336">
        <ele>244</ele>
        <time>2020-09-12T08:12:54.000Z</time>
      </trkpt>
      <trkpt lat="46.76087" lon="5.60359">
        <ele>243.39999389648</ele>
        <time>2020-09-12T08:12:56.000Z</time>
      </trkpt>
      <trkpt lat="46.76076" lon="5.60384">
        <ele>243</ele>
        <time>2020-09-12T08:12:58.000Z</time>
      </trkpt>
      <trkpt lat="46.76067" lon="5.60409">
        <ele>242.39999389648</ele>
        <time>2020-09-12T08:13:00.000Z</time>
      </trkpt>
      <trkpt lat="46.76059" lon="5.60434">
        <ele>242</ele>
        <time>2020-09-12T08:13:02.000Z</time>
      </trkpt>
      <trkpt lat="46.76055" lon="5.60447">
        <ele>241.60000610352</ele>
        <time>2020-09-12T08:13:03.000Z</time>
      </trkpt>
      <trkpt lat="46.76052" lon="5.60459">
        <ele>241.39999389648</ele>
        <time>2020-09-12T08:13:04.000Z</time>
      </trkpt>
      <trkpt lat="46.76045" lon="5.60484">
        <ele>240.60000610352</ele>
        <time>2020-09-12T08:13:06.000Z</time>
      </trkpt>
      <trkpt lat="46.76042" lon="5.60497">
        <ele>240.19999694824</ele>
        <time>2020-09-12T08:13:07.000Z</time>
      </trkpt>
      <trkpt lat="46.76039" lon="5.6051">
        <ele>239.80000305176</ele>
        <time>2020-09-12T08:13:08.000Z</time>
      </trkpt>
      <trkpt lat="46.76037" lon="5.60522">
        <ele>239.19999694824</ele>
        <time>2020-09-12T08:13:09.000Z</time>
      </trkpt>
      <trkpt lat="46.76034" lon="5.60535">
        <ele>239</ele>
        <time>2020-09-12T08:13:10.000Z</time>
      </trkpt>
      <trkpt lat="46.76029" lon="5.6056">
        <ele>239</ele>
        <time>2020-09-12T08:13:12.000Z</time>
      </trkpt>
      <trkpt lat="46.76024" lon="5.60584">
        <ele>239</ele>
        <time>2020-09-12T08:13:14.000Z</time>
      </trkpt>
      <trkpt lat="46.7602" lon="5.60608">
        <ele>239</ele>
        <time>2020-09-12T08:13:16.000Z</time>
      </trkpt>
      <trkpt lat="46.76015" lon="5.60632">
        <ele>239</ele>
        <time>2020-09-12T08:13:18.000Z</time>
      </trkpt>
      <trkpt lat="46.76009" lon="5.60654">
        <ele>239</ele>
        <time>2020-09-12T08:13:20.000Z</time>
      </trkpt>
      <trkpt lat="46.76004" lon="5.60676">
        <ele>239.19999694824</ele>
        <time>2020-09-12T08:13:22.000Z</time>
      </trkpt>
      <trkpt lat="46.75997" lon="5.60697">
        <ele>239.19999694824</ele>
        <time>2020-09-12T08:13:24.000Z</time>
      </trkpt>
      <trkpt lat="46.75993" lon="5.60707">
        <ele>239.19999694824</ele>
        <time>2020-09-12T08:13:25.000Z</time>
      </trkpt>
      <trkpt lat="46.75989" lon="5.60717">
        <ele>239.19999694824</ele>
        <time>2020-09-12T08:13:26.000Z</time>
      </trkpt>
      <trkpt lat="46.7598" lon="5.60736">
        <ele>239.19999694824</ele>
        <time>2020-09-12T08:13:28.000Z</time>
      </trkpt>
      <trkpt lat="46.7597" lon="5.60754">
        <ele>239.19999694824</ele>
        <time>2020-09-12T08:13:30.000Z</time>
      </trkpt>
      <trkpt lat="46.75965" lon="5.60762">
        <ele>239.19999694824</ele>
        <time>2020-09-12T08:13:31.000Z</time>
      </trkpt>
      <trkpt lat="46.7596" lon="5.6077">
        <ele>239.19999694824</ele>
        <time>2020-09-12T08:13:32.000Z</time>
      </trkpt>
      <trkpt lat="46.75949" lon="5.60785">
        <ele>239.19999694824</ele>
        <time>2020-09-12T08:13:34.000Z</time>
      </trkpt>
      <trkpt lat="46.75939" lon="5.60799">
        <ele>239.39999389648</ele>
        <time>2020-09-12T08:13:36.000Z</time>
      </trkpt>
      <trkpt lat="46.75928" lon="5.60813">
        <ele>239.39999389648</ele>
        <time>2020-09-12T08:13:38.000Z</time>
      </trkpt>
      <trkpt lat="46.75917" lon="5.60826">
        <ele>239.80000305176</ele>
        <time>2020-09-12T08:13:40.000Z</time>
      </trkpt>
      <trkpt lat="46.75906" lon="5.60838">
        <ele>240.19999694824</ele>
        <time>2020-09-12T08:13:42.000Z</time>
      </trkpt>
      <trkpt lat="46.75894" lon="5.6085">
        <ele>240.39999389648</ele>
        <time>2020-09-12T08:13:44.000Z</time>
      </trkpt>
      <trkpt lat="46.75883" lon="5.60861">
        <ele>241</ele>
        <time>2020-09-12T08:13:46.000Z</time>
      </trkpt>
      <trkpt lat="46.75871" lon="5.60872">
        <ele>241.19999694824</ele>
        <time>2020-09-12T08:13:48.000Z</time>
      </trkpt>
      <trkpt lat="46.75858" lon="5.60884">
        <ele>241.39999389648</ele>
        <time>2020-09-12T08:13:50.000Z</time>
      </trkpt>
      <trkpt lat="46.75846" lon="5.60895">
        <ele>241.39999389648</ele>
        <time>2020-09-12T08:13:52.000Z</time>
      </trkpt>
      <trkpt lat="46.75833" lon="5.60906">
        <ele>241.39999389648</ele>
        <time>2020-09-12T08:13:54.000Z</time>
      </trkpt>
      <trkpt lat="46.75827" lon="5.60912">
        <ele>241.39999389648</ele>
        <time>2020-09-12T08:13:55.000Z</time>
      </trkpt>
      <trkpt lat="46.75821" lon="5.60917">
        <ele>241.39999389648</ele>
        <time>2020-09-12T08:13:56.000Z</time>
      </trkpt>
      <trkpt lat="46.75808" lon="5.60927">
        <ele>241.39999389648</ele>
        <time>2020-09-12T08:13:58.000Z</time>
      </trkpt>
      <trkpt lat="46.75796" lon="5.60937">
        <ele>241.39999389648</ele>
        <time>2020-09-12T08:14:00.000Z</time>
      </trkpt>
      <trkpt lat="46.75783" lon="5.60947">
        <ele>241.39999389648</ele>
        <time>2020-09-12T08:14:02.000Z</time>
      </trkpt>
      <trkpt lat="46.75771" lon="5.60956">
        <ele>241.39999389648</ele>
        <time>2020-09-12T08:14:04.000Z</time>
      </trkpt>
      <trkpt lat="46.75758" lon="5.60964">
        <ele>241.39999389648</ele>
        <time>2020-09-12T08:14:06.000Z</time>
      </trkpt>
      <trkpt lat="46.75746" lon="5.60973">
        <ele>241.60000610352</ele>
        <time>2020-09-12T08:14:08.000Z</time>
      </trkpt>
      <trkpt lat="46.75735" lon="5.60981">
        <ele>241.60000610352</ele>
        <time>2020-09-12T08:14:10.000Z</time>
      </trkpt>
      <trkpt lat="46.75723" lon="5.60989">
        <ele>241.80000305176</ele>
        <time>2020-09-12T08:14:12.000Z</time>
      </trkpt>
      <trkpt lat="46.75712" lon="5.60997">
        <ele>242.19999694824</ele>
        <time>2020-09-12T08:14:14.000Z</time>
      </trkpt>
      <trkpt lat="46.757" lon="5.61005">
        <ele>242.39999389648</ele>
        <time>2020-09-12T08:14:16.000Z</time>
      </trkpt>
      <trkpt lat="46.7569" lon="5.61014">
        <ele>242.60000610352</ele>
        <time>2020-09-12T08:14:18.000Z</time>
      </trkpt>
      <trkpt lat="46.75679" lon="5.61023">
        <ele>243</ele>
        <time>2020-09-12T08:14:20.000Z</time>
      </trkpt>
      <trkpt lat="46.75674" lon="5.61028">
        <ele>243.19999694824</ele>
        <time>2020-09-12T08:14:21.000Z</time>
      </trkpt>
      <trkpt lat="46.75669" lon="5.61033">
        <ele>243.19999694824</ele>
        <time>2020-09-12T08:14:22.000Z</time>
      </trkpt>
      <trkpt lat="46.75658" lon="5.61042">
        <ele>243.39999389648</ele>
        <time>2020-09-12T08:14:24.000Z</time>
      </trkpt>
      <trkpt lat="46.75648" lon="5.61052">
        <ele>243.80000305176</ele>
        <time>2020-09-12T08:14:26.000Z</time>
      </trkpt>
      <trkpt lat="46.75637" lon="5.61062">
        <ele>244</ele>
        <time>2020-09-12T08:14:28.000Z</time>
      </trkpt>
      <trkpt lat="46.75627" lon="5.61073">
        <ele>244.19999694824</ele>
        <time>2020-09-12T08:14:30.000Z</time>
      </trkpt>
      <trkpt lat="46.75622" lon="5.61078">
        <ele>244.19999694824</ele>
        <time>2020-09-12T08:14:31.000Z</time>
      </trkpt>
      <trkpt lat="46.75617" lon="5.61083">
        <ele>244.39999389648</ele>
        <time>2020-09-12T08:14:32.000Z</time>
      </trkpt>
      <trkpt lat="46.75606" lon="5.61094">
        <ele>244.60000610352</ele>
        <time>2020-09-12T08:14:34.000Z</time>
      </trkpt>
      <trkpt lat="46.75595" lon="5.61104">
        <ele>244.80000305176</ele>
        <time>2020-09-12T08:14:36.000Z</time>
      </trkpt>
      <trkpt lat="46.75585" lon="5.61114">
        <ele>244.80000305176</ele>
        <time>2020-09-12T08:14:38.000Z</time>
      </trkpt>
      <trkpt lat="46.75575" lon="5.61125">
        <ele>244.80000305176</ele>
        <time>2020-09-12T08:14:40.000Z</time>
      </trkpt>
      <trkpt lat="46.75566" lon="5.61135">
        <ele>245</ele>
        <time>2020-09-12T08:14:42.000Z</time>
      </trkpt>
      <trkpt lat="46.75556" lon="5.61144">
        <ele>245</ele>
        <time>2020-09-12T08:14:44.000Z</time>
      </trkpt>
      <trkpt lat="46.75552" lon="5.61149">
        <ele>245.19999694824</ele>
        <time>2020-09-12T08:14:45.000Z</time>
      </trkpt>
      <trkpt lat="46.75549" lon="5.61153">
        <ele>245.19999694824</ele>
        <time>2020-09-12T08:14:46.000Z</time>
      </trkpt>
      <trkpt lat="46.75546" lon="5.61157">
        <ele>245.19999694824</ele>
        <time>2020-09-12T08:14:47.000Z</time>
      </trkpt>
      <trkpt lat="46.75544" lon="5.61162">
        <ele>245.19999694824</ele>
        <time>2020-09-12T08:14:48.000Z</time>
      </trkpt>
      <trkpt lat="46.75546" lon="5.61168">
        <ele>245.39999389648</ele>
        <time>2020-09-12T08:14:49.000Z</time>
      </trkpt>
      <trkpt lat="46.75549" lon="5.61174">
        <ele>245.80000305176</ele>
        <time>2020-09-12T08:14:50.000Z</time>
      </trkpt>
      <trkpt lat="46.75556" lon="5.61185">
        <ele>246.19999694824</ele>
        <time>2020-09-12T08:14:52.000Z</time>
      </trkpt>
      <trkpt lat="46.7556" lon="5.6119">
        <ele>246.39999389648</ele>
        <time>2020-09-12T08:14:53.000Z</time>
      </trkpt>
      <trkpt lat="46.75565" lon="5.61195">
        <ele>246.60000610352</ele>
        <time>2020-09-12T08:14:54.000Z</time>
      </trkpt>
      <trkpt lat="46.75573" lon="5.61206">
        <ele>246.60000610352</ele>
        <time>2020-09-12T08:14:56.000Z</time>
      </trkpt>
      <trkpt lat="46.75582" lon="5.61217">
        <ele>246.80000305176</ele>
        <time>2020-09-12T08:14:58.000Z</time>
      </trkpt>
      <trkpt lat="46.75587" lon="5.61222">
        <ele>246.80000305176</ele>
        <time>2020-09-12T08:14:59.000Z</time>
      </trkpt>
      <trkpt lat="46.75591" lon="5.61227">
        <ele>246.80000305176</ele>
        <time>2020-09-12T08:15:00.000Z</time>
      </trkpt>
      <trkpt lat="46.75601" lon="5.61237">
        <ele>246.80000305176</ele>
        <time>2020-09-12T08:15:02.000Z</time>
      </trkpt>
      <trkpt lat="46.75611" lon="5.61248">
        <ele>246.60000610352</ele>
        <time>2020-09-12T08:15:04.000Z</time>
      </trkpt>
      <trkpt lat="46.75616" lon="5.61254">
        <ele>246.60000610352</ele>
        <time>2020-09-12T08:15:05.000Z</time>
      </trkpt>
      <trkpt lat="46.75622" lon="5.61261">
        <ele>246.60000610352</ele>
        <time>2020-09-12T08:15:06.000Z</time>
      </trkpt>
      <trkpt lat="46.75633" lon="5.61276">
        <ele>246.60000610352</ele>
        <time>2020-09-12T08:15:08.000Z</time>
      </trkpt>
      <trkpt lat="46.75644" lon="5.61293">
        <ele>246</ele>
        <time>2020-09-12T08:15:10.000Z</time>
      </trkpt>
      <trkpt lat="46.75654" lon="5.6131">
        <ele>245.60000610352</ele>
        <time>2020-09-12T08:15:12.000Z</time>
      </trkpt>
      <trkpt lat="46.75659" lon="5.61319">
        <ele>245.39999389648</ele>
        <time>2020-09-12T08:15:13.000Z</time>
      </trkpt>
      <trkpt lat="46.75664" lon="5.61328">
        <ele>245</ele>
        <time>2020-09-12T08:15:14.000Z</time>
      </trkpt>
      <trkpt lat="46.75674" lon="5.61347">
        <ele>244.80000305176</ele>
        <time>2020-09-12T08:15:16.000Z</time>
      </trkpt>
      <trkpt lat="46.75685" lon="5.61365">
        <ele>244.60000610352</ele>
        <time>2020-09-12T08:15:18.000Z</time>
      </trkpt>
      <trkpt lat="46.75695" lon="5.61383">
        <ele>244.60000610352</ele>
        <time>2020-09-12T08:15:20.000Z</time>
      </trkpt>
      <trkpt lat="46.75701" lon="5.61393">
        <ele>244.39999389648</ele>
        <time>2020-09-12T08:15:21.000Z</time>
      </trkpt>
      <trkpt lat="46.75706" lon="5.61402">
        <ele>244.39999389648</ele>
        <time>2020-09-12T08:15:22.000Z</time>
      </trkpt>
      <trkpt lat="46.75716" lon="5.61421">
        <ele>244.39999389648</ele>
        <time>2020-09-12T08:15:24.000Z</time>
      </trkpt>
      <trkpt lat="46.75726" lon="5.6144">
        <ele>244.19999694824</ele>
        <time>2020-09-12T08:15:26.000Z</time>
      </trkpt>
      <trkpt lat="46.75736" lon="5.61459">
        <ele>244.19999694824</ele>
        <time>2020-09-12T08:15:28.000Z</time>
      </trkpt>
      <trkpt lat="46.75745" lon="5.61476">
        <ele>244</ele>
        <time>2020-09-12T08:15:30.000Z</time>
      </trkpt>
      <trkpt lat="46.75755" lon="5.61493">
        <ele>243.80000305176</ele>
        <time>2020-09-12T08:15:32.000Z</time>
      </trkpt>
      <trkpt lat="46.75764" lon="5.6151">
        <ele>243.80000305176</ele>
        <time>2020-09-12T08:15:34.000Z</time>
      </trkpt>
      <trkpt lat="46.75773" lon="5.61526">
        <ele>243.80000305176</ele>
        <time>2020-09-12T08:15:36.000Z</time>
      </trkpt>
      <trkpt lat="46.75777" lon="5.61534">
        <ele>243.80000305176</ele>
        <time>2020-09-12T08:15:37.000Z</time>
      </trkpt>
      <trkpt lat="46.75782" lon="5.61542">
        <ele>243.80000305176</ele>
        <time>2020-09-12T08:15:38.000Z</time>
      </trkpt>
      <trkpt lat="46.75791" lon="5.61557">
        <ele>243.80000305176</ele>
        <time>2020-09-12T08:15:40.000Z</time>
      </trkpt>
      <trkpt lat="46.75797" lon="5.61565">
        <ele>243.80000305176</ele>
        <time>2020-09-12T08:15:41.000Z</time>
      </trkpt>
      <trkpt lat="46.75803" lon="5.61571">
        <ele>243.80000305176</ele>
        <time>2020-09-12T08:15:42.000Z</time>
      </trkpt>
      <trkpt lat="46.75809" lon="5.61577">
        <ele>243.80000305176</ele>
        <time>2020-09-12T08:15:43.000Z</time>
      </trkpt>
      <trkpt lat="46.75815" lon="5.61583">
        <ele>243.80000305176</ele>
        <time>2020-09-12T08:15:44.000Z</time>
      </trkpt>
      <trkpt lat="46.75827" lon="5.61595">
        <ele>243.80000305176</ele>
        <time>2020-09-12T08:15:46.000Z</time>
      </trkpt>
      <trkpt lat="46.75838" lon="5.61611">
        <ele>243.80000305176</ele>
        <time>2020-09-12T08:15:48.000Z</time>
      </trkpt>
      <trkpt lat="46.75847" lon="5.61628">
        <ele>243.80000305176</ele>
        <time>2020-09-12T08:15:50.000Z</time>
      </trkpt>
      <trkpt lat="46.75855" lon="5.61643">
        <ele>243.80000305176</ele>
        <time>2020-09-12T08:15:52.000Z</time>
      </trkpt>
      <trkpt lat="46.75861" lon="5.61658">
        <ele>243.80000305176</ele>
        <time>2020-09-12T08:15:54.000Z</time>
      </trkpt>
      <trkpt lat="46.75865" lon="5.61666">
        <ele>243.80000305176</ele>
        <time>2020-09-12T08:15:55.000Z</time>
      </trkpt>
      <trkpt lat="46.75868" lon="5.61673">
        <ele>243.80000305176</ele>
        <time>2020-09-12T08:15:56.000Z</time>
      </trkpt>
      <trkpt lat="46.75873" lon="5.61686">
        <ele>244</ele>
        <time>2020-09-12T08:15:58.000Z</time>
      </trkpt>
      <trkpt lat="46.75878" lon="5.61698">
        <ele>244.60000610352</ele>
        <time>2020-09-12T08:16:00.000Z</time>
      </trkpt>
      <trkpt lat="46.75881" lon="5.61704">
        <ele>245</ele>
        <time>2020-09-12T08:16:01.000Z</time>
      </trkpt>
      <trkpt lat="46.75883" lon="5.6171">
        <ele>245</ele>
        <time>2020-09-12T08:16:02.000Z</time>
      </trkpt>
      <trkpt lat="46.75885" lon="5.61716">
        <ele>245.60000610352</ele>
        <time>2020-09-12T08:16:03.000Z</time>
      </trkpt>
      <trkpt lat="46.75887" lon="5.61721">
        <ele>246</ele>
        <time>2020-09-12T08:16:04.000Z</time>
      </trkpt>
      <trkpt lat="46.7589" lon="5.61732">
        <ele>246.80000305176</ele>
        <time>2020-09-12T08:16:06.000Z</time>
      </trkpt>
      <trkpt lat="46.75893" lon="5.61743">
        <ele>247.80000305176</ele>
        <time>2020-09-12T08:16:08.000Z</time>
      </trkpt>
      <trkpt lat="46.75894" lon="5.61749">
        <ele>248.39999389648</ele>
        <time>2020-09-12T08:16:09.000Z</time>
      </trkpt>
      <trkpt lat="46.75895" lon="5.61755">
        <ele>249</ele>
        <time>2020-09-12T08:16:10.000Z</time>
      </trkpt>
      <trkpt lat="46.75896" lon="5.6176">
        <ele>249.39999389648</ele>
        <time>2020-09-12T08:16:11.000Z</time>
      </trkpt>
      <trkpt lat="46.75896" lon="5.61766">
        <ele>249.80000305176</ele>
        <time>2020-09-12T08:16:12.000Z</time>
      </trkpt>
      <trkpt lat="46.75895" lon="5.61777">
        <ele>250.60000610352</ele>
        <time>2020-09-12T08:16:14.000Z</time>
      </trkpt>
      <trkpt lat="46.75894" lon="5.61782">
        <ele>250.80000305176</ele>
        <time>2020-09-12T08:16:15.000Z</time>
      </trkpt>
      <trkpt lat="46.75891" lon="5.61787">
        <ele>251</ele>
        <time>2020-09-12T08:16:16.000Z</time>
      </trkpt>
      <trkpt lat="46.75889" lon="5.61791">
        <ele>251.39999389648</ele>
        <time>2020-09-12T08:16:17.000Z</time>
      </trkpt>
      <trkpt lat="46.75885" lon="5.61794">
        <ele>251.80000305176</ele>
        <time>2020-09-12T08:16:18.000Z</time>
      </trkpt>
      <trkpt lat="46.75881" lon="5.61796">
        <ele>252.19999694824</ele>
        <time>2020-09-12T08:16:19.000Z</time>
      </trkpt>
      <trkpt lat="46.75877" lon="5.61798">
        <ele>252.39999389648</ele>
        <time>2020-09-12T08:16:20.000Z</time>
      </trkpt>
      <trkpt lat="46.75873" lon="5.618">
        <ele>252.80000305176</ele>
        <time>2020-09-12T08:16:21.000Z</time>
      </trkpt>
      <trkpt lat="46.75869" lon="5.61801">
        <ele>253</ele>
        <time>2020-09-12T08:16:22.000Z</time>
      </trkpt>
      <trkpt lat="46.75861" lon="5.61803">
        <ele>253.39999389648</ele>
        <time>2020-09-12T08:16:24.000Z</time>
      </trkpt>
      <trkpt lat="46.75857" lon="5.61803">
        <ele>253.60000610352</ele>
        <time>2020-09-12T08:16:25.000Z</time>
      </trkpt>
      <trkpt lat="46.75853" lon="5.61804">
        <ele>253.80000305176</ele>
        <time>2020-09-12T08:16:26.000Z</time>
      </trkpt>
      <trkpt lat="46.75845" lon="5.61804">
        <ele>254.39999389648</ele>
        <time>2020-09-12T08:16:28.000Z</time>
      </trkpt>
      <trkpt lat="46.75837" lon="5.61804">
        <ele>254.60000610352</ele>
        <time>2020-09-12T08:16:30.000Z</time>
      </trkpt>
      <trkpt lat="46.75833" lon="5.61804">
        <ele>254.80000305176</ele>
        <time>2020-09-12T08:16:31.000Z</time>
      </trkpt>
      <trkpt lat="46.75829" lon="5.61804">
        <ele>255.19999694824</ele>
        <time>2020-09-12T08:16:32.000Z</time>
      </trkpt>
      <trkpt lat="46.75821" lon="5.61804">
        <ele>255.60000610352</ele>
        <time>2020-09-12T08:16:34.000Z</time>
      </trkpt>
      <trkpt lat="46.75813" lon="5.61804">
        <ele>256</ele>
        <time>2020-09-12T08:16:36.000Z</time>
      </trkpt>
      <trkpt lat="46.75805" lon="5.61804">
        <ele>256.39999389648</ele>
        <time>2020-09-12T08:16:38.000Z</time>
      </trkpt>
      <trkpt lat="46.75798" lon="5.61803">
        <ele>256.60000610352</ele>
        <time>2020-09-12T08:16:40.000Z</time>
      </trkpt>
      <trkpt lat="46.75794" lon="5.61803">
        <ele>257</ele>
        <time>2020-09-12T08:16:41.000Z</time>
      </trkpt>
      <trkpt lat="46.7579" lon="5.61804">
        <ele>257.20001220703</ele>
        <time>2020-09-12T08:16:42.000Z</time>
      </trkpt>
      <trkpt lat="46.75782" lon="5.61804">
        <ele>257.60000610352</ele>
        <time>2020-09-12T08:16:44.000Z</time>
      </trkpt>
      <trkpt lat="46.75775" lon="5.61804">
        <ele>258</ele>
        <time>2020-09-12T08:16:46.000Z</time>
      </trkpt>
      <trkpt lat="46.75767" lon="5.61804">
        <ele>258.39999389648</ele>
        <time>2020-09-12T08:16:48.000Z</time>
      </trkpt>
      <trkpt lat="46.75763" lon="5.61804">
        <ele>258.60000610352</ele>
        <time>2020-09-12T08:16:49.000Z</time>
      </trkpt>
      <trkpt lat="46.75759" lon="5.61804">
        <ele>258.79998779297</ele>
        <time>2020-09-12T08:16:50.000Z</time>
      </trkpt>
      <trkpt lat="46.75751" lon="5.61803">
        <ele>259.20001220703</ele>
        <time>2020-09-12T08:16:52.000Z</time>
      </trkpt>
      <trkpt lat="46.75747" lon="5.61804">
        <ele>259.60000610352</ele>
        <time>2020-09-12T08:16:53.000Z</time>
      </trkpt>
      <trkpt lat="46.75743" lon="5.61804">
        <ele>259.79998779297</ele>
        <time>2020-09-12T08:16:54.000Z</time>
      </trkpt>
      <trkpt lat="46.75735" lon="5.61803">
        <ele>260.39999389648</ele>
        <time>2020-09-12T08:16:56.000Z</time>
      </trkpt>
      <trkpt lat="46.75727" lon="5.61802">
        <ele>260.79998779297</ele>
        <time>2020-09-12T08:16:58.000Z</time>
      </trkpt>
      <trkpt lat="46.75719" lon="5.61802">
        <ele>261.20001220703</ele>
        <time>2020-09-12T08:17:00.000Z</time>
      </trkpt>
      <trkpt lat="46.75711" lon="5.61802">
        <ele>261.60000610352</ele>
        <time>2020-09-12T08:17:02.000Z</time>
      </trkpt>
      <trkpt lat="46.75706" lon="5.61802">
        <ele>262</ele>
        <time>2020-09-12T08:17:03.000Z</time>
      </trkpt>
      <trkpt lat="46.75702" lon="5.61802">
        <ele>262.20001220703</ele>
        <time>2020-09-12T08:17:04.000Z</time>
      </trkpt>
      <trkpt lat="46.75694" lon="5.61801">
        <ele>262.39999389648</ele>
        <time>2020-09-12T08:17:06.000Z</time>
      </trkpt>
      <trkpt lat="46.7569" lon="5.61801">
        <ele>262.60000610352</ele>
        <time>2020-09-12T08:17:07.000Z</time>
      </trkpt>
      <trkpt lat="46.75686" lon="5.61802">
        <ele>262.60000610352</ele>
        <time>2020-09-12T08:17:08.000Z</time>
      </trkpt>
      <trkpt lat="46.75678" lon="5.61802">
        <ele>263</ele>
        <time>2020-09-12T08:17:10.000Z</time>
      </trkpt>
      <trkpt lat="46.75671" lon="5.61803">
        <ele>263.39999389648</ele>
        <time>2020-09-12T08:17:12.000Z</time>
      </trkpt>
      <trkpt lat="46.75666" lon="5.61804">
        <ele>263.79998779297</ele>
        <time>2020-09-12T08:17:13.000Z</time>
      </trkpt>
      <trkpt lat="46.75662" lon="5.61805">
        <ele>263.79998779297</ele>
        <time>2020-09-12T08:17:14.000Z</time>
      </trkpt>
      <trkpt lat="46.75658" lon="5.61806">
        <ele>264</ele>
        <time>2020-09-12T08:17:15.000Z</time>
      </trkpt>
      <trkpt lat="46.75654" lon="5.61807">
        <ele>264.20001220703</ele>
        <time>2020-09-12T08:17:16.000Z</time>
      </trkpt>
      <trkpt lat="46.75645" lon="5.61809">
        <ele>264.60000610352</ele>
        <time>2020-09-12T08:17:18.000Z</time>
      </trkpt>
      <trkpt lat="46.75637" lon="5.6181">
        <ele>264.79998779297</ele>
        <time>2020-09-12T08:17:20.000Z</time>
      </trkpt>
      <trkpt lat="46.75629" lon="5.61812">
        <ele>265</ele>
        <time>2020-09-12T08:17:22.000Z</time>
      </trkpt>
      <trkpt lat="46.7562" lon="5.61814">
        <ele>265.39999389648</ele>
        <time>2020-09-12T08:17:24.000Z</time>
      </trkpt>
      <trkpt lat="46.75612" lon="5.61816">
        <ele>265.39999389648</ele>
        <time>2020-09-12T08:17:26.000Z</time>
      </trkpt>
      <trkpt lat="46.75604" lon="5.61819">
        <ele>265.60000610352</ele>
        <time>2020-09-12T08:17:28.000Z</time>
      </trkpt>
      <trkpt lat="46.75596" lon="5.61822">
        <ele>266.20001220703</ele>
        <time>2020-09-12T08:17:30.000Z</time>
      </trkpt>
      <trkpt lat="46.75592" lon="5.61824">
        <ele>266.60000610352</ele>
        <time>2020-09-12T08:17:31.000Z</time>
      </trkpt>
      <trkpt lat="46.75588" lon="5.61828">
        <ele>266.79998779297</ele>
        <time>2020-09-12T08:17:32.000Z</time>
      </trkpt>
      <trkpt lat="46.75583" lon="5.61837">
        <ele>267.39999389648</ele>
        <time>2020-09-12T08:17:34.000Z</time>
      </trkpt>
      <trkpt lat="46.75582" lon="5.61843">
        <ele>267.39999389648</ele>
        <time>2020-09-12T08:17:35.000Z</time>
      </trkpt>
      <trkpt lat="46.75582" lon="5.61849">
        <ele>267.60000610352</ele>
        <time>2020-09-12T08:17:36.000Z</time>
      </trkpt>
      <trkpt lat="46.75585" lon="5.61861">
        <ele>268</ele>
        <time>2020-09-12T08:17:38.000Z</time>
      </trkpt>
      <trkpt lat="46.75591" lon="5.61869">
        <ele>268.20001220703</ele>
        <time>2020-09-12T08:17:40.000Z</time>
      </trkpt>
      <trkpt lat="46.75595" lon="5.6187">
        <ele>268.39999389648</ele>
        <time>2020-09-12T08:17:41.000Z</time>
      </trkpt>
      <trkpt lat="46.75599" lon="5.61871">
        <ele>268.60000610352</ele>
        <time>2020-09-12T08:17:42.000Z</time>
      </trkpt>
      <trkpt lat="46.75608" lon="5.61868">
        <ele>269</ele>
        <time>2020-09-12T08:17:44.000Z</time>
      </trkpt>
      <trkpt lat="46.75612" lon="5.61865">
        <ele>269.20001220703</ele>
        <time>2020-09-12T08:17:45.000Z</time>
      </trkpt>
      <trkpt lat="46.75617" lon="5.61862">
        <ele>269.39999389648</ele>
        <time>2020-09-12T08:17:46.000Z</time>
      </trkpt>
      <trkpt lat="46.75621" lon="5.6186">
        <ele>269.39999389648</ele>
        <time>2020-09-12T08:17:47.000Z</time>
      </trkpt>
      <trkpt lat="46.75625" lon="5.61857">
        <ele>269.60000610352</ele>
        <time>2020-09-12T08:17:48.000Z</time>
      </trkpt>
      <trkpt lat="46.75634" lon="5.61853">
        <ele>270</ele>
        <time>2020-09-12T08:17:50.000Z</time>
      </trkpt>
      <trkpt lat="46.75639" lon="5.61852">
        <ele>270</ele>
        <time>2020-09-12T08:17:51.000Z</time>
      </trkpt>
      <trkpt lat="46.75643" lon="5.61851">
        <ele>270.20001220703</ele>
        <time>2020-09-12T08:17:52.000Z</time>
      </trkpt>
      <trkpt lat="46.75653" lon="5.6185">
        <ele>270.39999389648</ele>
        <time>2020-09-12T08:17:54.000Z</time>
      </trkpt>
      <trkpt lat="46.75657" lon="5.6185">
        <ele>270.60000610352</ele>
        <time>2020-09-12T08:17:55.000Z</time>
      </trkpt>
      <trkpt lat="46.75662" lon="5.61849">
        <ele>270.79998779297</ele>
        <time>2020-09-12T08:17:56.000Z</time>
      </trkpt>
      <trkpt lat="46.75671" lon="5.61849">
        <ele>271.20001220703</ele>
        <time>2020-09-12T08:17:58.000Z</time>
      </trkpt>
      <trkpt lat="46.7568" lon="5.6185">
        <ele>271.79998779297</ele>
        <time>2020-09-12T08:18:00.000Z</time>
      </trkpt>
      <trkpt lat="46.75689" lon="5.61851">
        <ele>272.20001220703</ele>
        <time>2020-09-12T08:18:02.000Z</time>
      </trkpt>
      <trkpt lat="46.75694" lon="5.61852">
        <ele>272.39999389648</ele>
        <time>2020-09-12T08:18:03.000Z</time>
      </trkpt>
      <trkpt lat="46.75698" lon="5.61853">
        <ele>272.60000610352</ele>
        <time>2020-09-12T08:18:04.000Z</time>
      </trkpt>
      <trkpt lat="46.75706" lon="5.6186">
        <ele>272.79998779297</ele>
        <time>2020-09-12T08:18:06.000Z</time>
      </trkpt>
      <trkpt lat="46.7571" lon="5.61863">
        <ele>273.20001220703</ele>
        <time>2020-09-12T08:18:07.000Z</time>
      </trkpt>
      <trkpt lat="46.75713" lon="5.61867">
        <ele>273.39999389648</ele>
        <time>2020-09-12T08:18:08.000Z</time>
      </trkpt>
      <trkpt lat="46.75721" lon="5.61875">
        <ele>273.79998779297</ele>
        <time>2020-09-12T08:18:10.000Z</time>
      </trkpt>
      <trkpt lat="46.75724" lon="5.61878">
        <ele>274</ele>
        <time>2020-09-12T08:18:11.000Z</time>
      </trkpt>
      <trkpt lat="46.75728" lon="5.61882">
        <ele>274</ele>
        <time>2020-09-12T08:18:12.000Z</time>
      </trkpt>
      <trkpt lat="46.75735" lon="5.6189">
        <ele>274.39999389648</ele>
        <time>2020-09-12T08:18:14.000Z</time>
      </trkpt>
      <trkpt lat="46.75742" lon="5.61898">
        <ele>274.79998779297</ele>
        <time>2020-09-12T08:18:16.000Z</time>
      </trkpt>
      <trkpt lat="46.75745" lon="5.61902">
        <ele>275</ele>
        <time>2020-09-12T08:18:17.000Z</time>
      </trkpt>
      <trkpt lat="46.75749" lon="5.61906">
        <ele>275.39999389648</ele>
        <time>2020-09-12T08:18:18.000Z</time>
      </trkpt>
      <trkpt lat="46.75755" lon="5.61914">
        <ele>275.79998779297</ele>
        <time>2020-09-12T08:18:20.000Z</time>
      </trkpt>
      <trkpt lat="46.75762" lon="5.61922">
        <ele>276.20001220703</ele>
        <time>2020-09-12T08:18:22.000Z</time>
      </trkpt>
      <trkpt lat="46.75768" lon="5.6193">
        <ele>276.39999389648</ele>
        <time>2020-09-12T08:18:24.000Z</time>
      </trkpt>
      <trkpt lat="46.75771" lon="5.61934">
        <ele>276.60000610352</ele>
        <time>2020-09-12T08:18:25.000Z</time>
      </trkpt>
      <trkpt lat="46.75774" lon="5.61939">
        <ele>277</ele>
        <time>2020-09-12T08:18:26.000Z</time>
      </trkpt>
      <trkpt lat="46.75779" lon="5.61948">
        <ele>277.20001220703</ele>
        <time>2020-09-12T08:18:28.000Z</time>
      </trkpt>
      <trkpt lat="46.75785" lon="5.61957">
        <ele>278</ele>
        <time>2020-09-12T08:18:30.000Z</time>
      </trkpt>
      <trkpt lat="46.75789" lon="5.61967">
        <ele>278.39999389648</ele>
        <time>2020-09-12T08:18:32.000Z</time>
      </trkpt>
      <trkpt lat="46.75792" lon="5.61972">
        <ele>278.79998779297</ele>
        <time>2020-09-12T08:18:33.000Z</time>
      </trkpt>
      <trkpt lat="46.75794" lon="5.61977">
        <ele>278.79998779297</ele>
        <time>2020-09-12T08:18:34.000Z</time>
      </trkpt>
      <trkpt lat="46.75798" lon="5.61987">
        <ele>279.39999389648</ele>
        <time>2020-09-12T08:18:36.000Z</time>
      </trkpt>
      <trkpt lat="46.758" lon="5.61992">
        <ele>279.39999389648</ele>
        <time>2020-09-12T08:18:37.000Z</time>
      </trkpt>
      <trkpt lat="46.75802" lon="5.61997">
        <ele>279.60000610352</ele>
        <time>2020-09-12T08:18:38.000Z</time>
      </trkpt>
      <trkpt lat="46.75806" lon="5.62008">
        <ele>280</ele>
        <time>2020-09-12T08:18:40.000Z</time>
      </trkpt>
      <trkpt lat="46.75809" lon="5.62019">
        <ele>280.60000610352</ele>
        <time>2020-09-12T08:18:42.000Z</time>
      </trkpt>
      <trkpt lat="46.75813" lon="5.6203">
        <ele>281</ele>
        <time>2020-09-12T08:18:44.000Z</time>
      </trkpt>
      <trkpt lat="46.75816" lon="5.62041">
        <ele>281.20001220703</ele>
        <time>2020-09-12T08:18:46.000Z</time>
      </trkpt>
      <trkpt lat="46.75819" lon="5.62053">
        <ele>281.60000610352</ele>
        <time>2020-09-12T08:18:48.000Z</time>
      </trkpt>
      <trkpt lat="46.75822" lon="5.62064">
        <ele>282</ele>
        <time>2020-09-12T08:18:50.000Z</time>
      </trkpt>
      <trkpt lat="46.75825" lon="5.62076">
        <ele>282.39999389648</ele>
        <time>2020-09-12T08:18:52.000Z</time>
      </trkpt>
      <trkpt lat="46.75828" lon="5.62088">
        <ele>282.79998779297</ele>
        <time>2020-09-12T08:18:54.000Z</time>
      </trkpt>
      <trkpt lat="46.75831" lon="5.62099">
        <ele>283.20001220703</ele>
        <time>2020-09-12T08:18:56.000Z</time>
      </trkpt>
      <trkpt lat="46.75834" lon="5.62111">
        <ele>283.79998779297</ele>
        <time>2020-09-12T08:18:58.000Z</time>
      </trkpt>
      <trkpt lat="46.75835" lon="5.62117">
        <ele>284</ele>
        <time>2020-09-12T08:18:59.000Z</time>
      </trkpt>
      <trkpt lat="46.75837" lon="5.62123">
        <ele>284.20001220703</ele>
        <time>2020-09-12T08:19:00.000Z</time>
      </trkpt>
      <trkpt lat="46.7584" lon="5.62136">
        <ele>284.60000610352</ele>
        <time>2020-09-12T08:19:02.000Z</time>
      </trkpt>
      <trkpt lat="46.75842" lon="5.62142">
        <ele>284.79998779297</ele>
        <time>2020-09-12T08:19:03.000Z</time>
      </trkpt>
      <trkpt lat="46.75844" lon="5.62148">
        <ele>284.79998779297</ele>
        <time>2020-09-12T08:19:04.000Z</time>
      </trkpt>
      <trkpt lat="46.75845" lon="5.62154">
        <ele>285</ele>
        <time>2020-09-12T08:19:05.000Z</time>
      </trkpt>
      <trkpt lat="46.75847" lon="5.6216">
        <ele>285.39999389648</ele>
        <time>2020-09-12T08:19:06.000Z</time>
      </trkpt>
      <trkpt lat="46.7585" lon="5.62172">
        <ele>285.60000610352</ele>
        <time>2020-09-12T08:19:08.000Z</time>
      </trkpt>
      <trkpt lat="46.75853" lon="5.62184">
        <ele>286</ele>
        <time>2020-09-12T08:19:10.000Z</time>
      </trkpt>
      <trkpt lat="46.75854" lon="5.6219">
        <ele>286.20001220703</ele>
        <time>2020-09-12T08:19:11.000Z</time>
      </trkpt>
      <trkpt lat="46.75856" lon="5.62196">
        <ele>286.20001220703</ele>
        <time>2020-09-12T08:19:12.000Z</time>
      </trkpt>
      <trkpt lat="46.75858" lon="5.62201">
        <ele>286.39999389648</ele>
        <time>2020-09-12T08:19:13.000Z</time>
      </trkpt>
      <trkpt lat="46.75859" lon="5.62207">
        <ele>286.60000610352</ele>
        <time>2020-09-12T08:19:14.000Z</time>
      </trkpt>
      <trkpt lat="46.75862" lon="5.62219">
        <ele>287.20001220703</ele>
        <time>2020-09-12T08:19:16.000Z</time>
      </trkpt>
      <trkpt lat="46.75865" lon="5.6223">
        <ele>287.60000610352</ele>
        <time>2020-09-12T08:19:18.000Z</time>
      </trkpt>
      <trkpt lat="46.75867" lon="5.62242">
        <ele>288</ele>
        <time>2020-09-12T08:19:20.000Z</time>
      </trkpt>
      <trkpt lat="46.75868" lon="5.62248">
        <ele>288</ele>
        <time>2020-09-12T08:19:21.000Z</time>
      </trkpt>
      <trkpt lat="46.7587" lon="5.62254">
        <ele>288</ele>
        <time>2020-09-12T08:19:22.000Z</time>
      </trkpt>
      <trkpt lat="46.75872" lon="5.62265">
        <ele>288.39999389648</ele>
        <time>2020-09-12T08:19:24.000Z</time>
      </trkpt>
      <trkpt lat="46.75875" lon="5.62277">
        <ele>289</ele>
        <time>2020-09-12T08:19:26.000Z</time>
      </trkpt>
      <trkpt lat="46.75876" lon="5.62282">
        <ele>289.20001220703</ele>
        <time>2020-09-12T08:19:27.000Z</time>
      </trkpt>
      <trkpt lat="46.75877" lon="5.62288">
        <ele>289.60000610352</ele>
        <time>2020-09-12T08:19:28.000Z</time>
      </trkpt>
      <trkpt lat="46.75879" lon="5.62299">
        <ele>290.20001220703</ele>
        <time>2020-09-12T08:19:30.000Z</time>
      </trkpt>
      <trkpt lat="46.7588" lon="5.62304">
        <ele>290.39999389648</ele>
        <time>2020-09-12T08:19:31.000Z</time>
      </trkpt>
      <trkpt lat="46.75881" lon="5.6231">
        <ele>290.79998779297</ele>
        <time>2020-09-12T08:19:32.000Z</time>
      </trkpt>
      <trkpt lat="46.75882" lon="5.62321">
        <ele>291.39999389648</ele>
        <time>2020-09-12T08:19:34.000Z</time>
      </trkpt>
      <trkpt lat="46.75883" lon="5.62326">
        <ele>291.60000610352</ele>
        <time>2020-09-12T08:19:35.000Z</time>
      </trkpt>
      <trkpt lat="46.75884" lon="5.62332">
        <ele>292</ele>
        <time>2020-09-12T08:19:36.000Z</time>
      </trkpt>
      <trkpt lat="46.75885" lon="5.62343">
        <ele>292.39999389648</ele>
        <time>2020-09-12T08:19:38.000Z</time>
      </trkpt>
      <trkpt lat="46.75887" lon="5.62354">
        <ele>292.79998779297</ele>
        <time>2020-09-12T08:19:40.000Z</time>
      </trkpt>
      <trkpt lat="46.75888" lon="5.62364">
        <ele>293.20001220703</ele>
        <time>2020-09-12T08:19:42.000Z</time>
      </trkpt>
      <trkpt lat="46.7589" lon="5.62375">
        <ele>293.60000610352</ele>
        <time>2020-09-12T08:19:44.000Z</time>
      </trkpt>
      <trkpt lat="46.7589" lon="5.6238">
        <ele>293.79998779297</ele>
        <time>2020-09-12T08:19:45.000Z</time>
      </trkpt>
      <trkpt lat="46.75891" lon="5.62386">
        <ele>294</ele>
        <time>2020-09-12T08:19:46.000Z</time>
      </trkpt>
      <trkpt lat="46.75893" lon="5.62397">
        <ele>294.60000610352</ele>
        <time>2020-09-12T08:19:48.000Z</time>
      </trkpt>
      <trkpt lat="46.75894" lon="5.62407">
        <ele>295</ele>
        <time>2020-09-12T08:19:50.000Z</time>
      </trkpt>
      <trkpt lat="46.75896" lon="5.62418">
        <ele>295.39999389648</ele>
        <time>2020-09-12T08:19:52.000Z</time>
      </trkpt>
      <trkpt lat="46.75897" lon="5.6243">
        <ele>295.79998779297</ele>
        <time>2020-09-12T08:19:54.000Z</time>
      </trkpt>
      <trkpt lat="46.75898" lon="5.62436">
        <ele>296</ele>
        <time>2020-09-12T08:19:55.000Z</time>
      </trkpt>
      <trkpt lat="46.75898" lon="5.62442">
        <ele>296.20001220703</ele>
        <time>2020-09-12T08:19:56.000Z</time>
      </trkpt>
      <trkpt lat="46.75899" lon="5.62454">
        <ele>297</ele>
        <time>2020-09-12T08:19:58.000Z</time>
      </trkpt>
      <trkpt lat="46.759" lon="5.62459">
        <ele>297.20001220703</ele>
        <time>2020-09-12T08:19:59.000Z</time>
      </trkpt>
      <trkpt lat="46.75901" lon="5.62465">
        <ele>297.20001220703</ele>
        <time>2020-09-12T08:20:00.000Z</time>
      </trkpt>
      <trkpt lat="46.75902" lon="5.62477">
        <ele>297.60000610352</ele>
        <time>2020-09-12T08:20:02.000Z</time>
      </trkpt>
      <trkpt lat="46.75903" lon="5.62489">
        <ele>298</ele>
        <time>2020-09-12T08:20:04.000Z</time>
      </trkpt>
      <trkpt lat="46.75903" lon="5.62495">
        <ele>298.20001220703</ele>
        <time>2020-09-12T08:20:05.000Z</time>
      </trkpt>
      <trkpt lat="46.75904" lon="5.62501">
        <ele>298.39999389648</ele>
        <time>2020-09-12T08:20:06.000Z</time>
      </trkpt>
      <trkpt lat="46.75905" lon="5.62512">
        <ele>298.79998779297</ele>
        <time>2020-09-12T08:20:08.000Z</time>
      </trkpt>
      <trkpt lat="46.75905" lon="5.62518">
        <ele>299</ele>
        <time>2020-09-12T08:20:09.000Z</time>
      </trkpt>
      <trkpt lat="46.75906" lon="5.62524">
        <ele>299.20001220703</ele>
        <time>2020-09-12T08:20:10.000Z</time>
      </trkpt>
      <trkpt lat="46.75906" lon="5.6253">
        <ele>299.20001220703</ele>
        <time>2020-09-12T08:20:11.000Z</time>
      </trkpt>
      <trkpt lat="46.75907" lon="5.62536">
        <ele>299.39999389648</ele>
        <time>2020-09-12T08:20:12.000Z</time>
      </trkpt>
      <trkpt lat="46.75909" lon="5.62547">
        <ele>299.60000610352</ele>
        <time>2020-09-12T08:20:14.000Z</time>
      </trkpt>
      <trkpt lat="46.7591" lon="5.62558">
        <ele>300.20001220703</ele>
        <time>2020-09-12T08:20:16.000Z</time>
      </trkpt>
      <trkpt lat="46.7591" lon="5.62564">
        <ele>300.39999389648</ele>
        <time>2020-09-12T08:20:17.000Z</time>
      </trkpt>
      <trkpt lat="46.7591" lon="5.6257">
        <ele>300.60000610352</ele>
        <time>2020-09-12T08:20:18.000Z</time>
      </trkpt>
      <trkpt lat="46.75911" lon="5.62581">
        <ele>301</ele>
        <time>2020-09-12T08:20:20.000Z</time>
      </trkpt>
      <trkpt lat="46.75912" lon="5.62592">
        <ele>301.39999389648</ele>
        <time>2020-09-12T08:20:22.000Z</time>
      </trkpt>
      <trkpt lat="46.75914" lon="5.62603">
        <ele>302</ele>
        <time>2020-09-12T08:20:24.000Z</time>
      </trkpt>
      <trkpt lat="46.75915" lon="5.62615">
        <ele>302.39999389648</ele>
        <time>2020-09-12T08:20:26.000Z</time>
      </trkpt>
      <trkpt lat="46.75915" lon="5.6262">
        <ele>302.79998779297</ele>
        <time>2020-09-12T08:20:27.000Z</time>
      </trkpt>
      <trkpt lat="46.75916" lon="5.62626">
        <ele>303.20001220703</ele>
        <time>2020-09-12T08:20:28.000Z</time>
      </trkpt>
      <trkpt lat="46.75917" lon="5.62638">
        <ele>303.79998779297</ele>
        <time>2020-09-12T08:20:30.000Z</time>
      </trkpt>
      <trkpt lat="46.75919" lon="5.62649">
        <ele>304.20001220703</ele>
        <time>2020-09-12T08:20:32.000Z</time>
      </trkpt>
      <trkpt lat="46.7592" lon="5.62661">
        <ele>304.60000610352</ele>
        <time>2020-09-12T08:20:34.000Z</time>
      </trkpt>
      <trkpt lat="46.75921" lon="5.62666">
        <ele>304.60000610352</ele>
        <time>2020-09-12T08:20:35.000Z</time>
      </trkpt>
      <trkpt lat="46.75922" lon="5.62672">
        <ele>304.79998779297</ele>
        <time>2020-09-12T08:20:36.000Z</time>
      </trkpt>
      <trkpt lat="46.75922" lon="5.62683">
        <ele>305.20001220703</ele>
        <time>2020-09-12T08:20:38.000Z</time>
      </trkpt>
      <trkpt lat="46.75923" lon="5.62694">
        <ele>305.60000610352</ele>
        <time>2020-09-12T08:20:40.000Z</time>
      </trkpt>
      <trkpt lat="46.75924" lon="5.62699">
        <ele>305.79998779297</ele>
        <time>2020-09-12T08:20:41.000Z</time>
      </trkpt>
      <trkpt lat="46.75925" lon="5.62704">
        <ele>306</ele>
        <time>2020-09-12T08:20:42.000Z</time>
      </trkpt>
      <trkpt lat="46.75926" lon="5.62715">
        <ele>306.39999389648</ele>
        <time>2020-09-12T08:20:44.000Z</time>
      </trkpt>
      <trkpt lat="46.75928" lon="5.62727">
        <ele>307</ele>
        <time>2020-09-12T08:20:46.000Z</time>
      </trkpt>
      <trkpt lat="46.7593" lon="5.62738">
        <ele>307.39999389648</ele>
        <time>2020-09-12T08:20:48.000Z</time>
      </trkpt>
      <trkpt lat="46.75932" lon="5.6275">
        <ele>307.79998779297</ele>
        <time>2020-09-12T08:20:50.000Z</time>
      </trkpt>
      <trkpt lat="46.75933" lon="5.62755">
        <ele>308.20001220703</ele>
        <time>2020-09-12T08:20:51.000Z</time>
      </trkpt>
      <trkpt lat="46.75934" lon="5.62761">
        <ele>308.20001220703</ele>
        <time>2020-09-12T08:20:52.000Z</time>
      </trkpt>
      <trkpt lat="46.75937" lon="5.62771">
        <ele>308.60000610352</ele>
        <time>2020-09-12T08:20:54.000Z</time>
      </trkpt>
      <trkpt lat="46.75939" lon="5.62782">
        <ele>309.39999389648</ele>
        <time>2020-09-12T08:20:56.000Z</time>
      </trkpt>
      <trkpt lat="46.75943" lon="5.62792">
        <ele>309.79998779297</ele>
        <time>2020-09-12T08:20:58.000Z</time>
      </trkpt>
      <trkpt lat="46.75946" lon="5.62803">
        <ele>310.39999389648</ele>
        <time>2020-09-12T08:21:00.000Z</time>
      </trkpt>
      <trkpt lat="46.75948" lon="5.62808">
        <ele>310.60000610352</ele>
        <time>2020-09-12T08:21:01.000Z</time>
      </trkpt>
      <trkpt lat="46.7595" lon="5.62813">
        <ele>310.60000610352</ele>
        <time>2020-09-12T08:21:02.000Z</time>
      </trkpt>
      <trkpt lat="46.75955" lon="5.62822">
        <ele>311.20001220703</ele>
        <time>2020-09-12T08:21:04.000Z</time>
      </trkpt>
      <trkpt lat="46.75958" lon="5.62826">
        <ele>311.20001220703</ele>
        <time>2020-09-12T08:21:05.000Z</time>
      </trkpt>
      <trkpt lat="46.7596" lon="5.62831">
        <ele>311.39999389648</ele>
        <time>2020-09-12T08:21:06.000Z</time>
      </trkpt>
      <trkpt lat="46.75963" lon="5.62835">
        <ele>311.60000610352</ele>
        <time>2020-09-12T08:21:07.000Z</time>
      </trkpt>
      <trkpt lat="46.75965" lon="5.6284">
        <ele>311.79998779297</ele>
        <time>2020-09-12T08:21:08.000Z</time>
      </trkpt>
      <trkpt lat="46.75971" lon="5.62849">
        <ele>312.39999389648</ele>
        <time>2020-09-12T08:21:10.000Z</time>
      </trkpt>
      <trkpt lat="46.75975" lon="5.62859">
        <ele>312.60000610352</ele>
        <time>2020-09-12T08:21:12.000Z</time>
      </trkpt>
      <trkpt lat="46.75977" lon="5.62863">
        <ele>313</ele>
        <time>2020-09-12T08:21:13.000Z</time>
      </trkpt>
      <trkpt lat="46.75979" lon="5.62868">
        <ele>313</ele>
        <time>2020-09-12T08:21:14.000Z</time>
      </trkpt>
      <trkpt lat="46.75981" lon="5.62873">
        <ele>313</ele>
        <time>2020-09-12T08:21:15.000Z</time>
      </trkpt>
      <trkpt lat="46.75983" lon="5.62878">
        <ele>313.39999389648</ele>
        <time>2020-09-12T08:21:16.000Z</time>
      </trkpt>
      <trkpt lat="46.75986" lon="5.62889">
        <ele>313.60000610352</ele>
        <time>2020-09-12T08:21:18.000Z</time>
      </trkpt>
      <trkpt lat="46.75987" lon="5.62894">
        <ele>313.79998779297</ele>
        <time>2020-09-12T08:21:19.000Z</time>
      </trkpt>
      <trkpt lat="46.75988" lon="5.629">
        <ele>314</ele>
        <time>2020-09-12T08:21:20.000Z</time>
      </trkpt>
      <trkpt lat="46.7599" lon="5.62911">
        <ele>314.60000610352</ele>
        <time>2020-09-12T08:21:22.000Z</time>
      </trkpt>
      <trkpt lat="46.75991" lon="5.62917">
        <ele>314.60000610352</ele>
        <time>2020-09-12T08:21:23.000Z</time>
      </trkpt>
      <trkpt lat="46.75992" lon="5.62923">
        <ele>315</ele>
        <time>2020-09-12T08:21:24.000Z</time>
      </trkpt>
      <trkpt lat="46.75993" lon="5.62935">
        <ele>315.60000610352</ele>
        <time>2020-09-12T08:21:26.000Z</time>
      </trkpt>
      <trkpt lat="46.75995" lon="5.62946">
        <ele>316</ele>
        <time>2020-09-12T08:21:28.000Z</time>
      </trkpt>
      <trkpt lat="46.75997" lon="5.62958">
        <ele>316.39999389648</ele>
        <time>2020-09-12T08:21:30.000Z</time>
      </trkpt>
      <trkpt lat="46.75998" lon="5.62969">
        <ele>317</ele>
        <time>2020-09-12T08:21:32.000Z</time>
      </trkpt>
      <trkpt lat="46.75999" lon="5.62974">
        <ele>317.20001220703</ele>
        <time>2020-09-12T08:21:33.000Z</time>
      </trkpt>
      <trkpt lat="46.76" lon="5.6298">
        <ele>317.20001220703</ele>
        <time>2020-09-12T08:21:34.000Z</time>
      </trkpt>
      <trkpt lat="46.76002" lon="5.62991">
        <ele>317.60000610352</ele>
        <time>2020-09-12T08:21:36.000Z</time>
      </trkpt>
      <trkpt lat="46.76005" lon="5.63002">
        <ele>318</ele>
        <time>2020-09-12T08:21:38.000Z</time>
      </trkpt>
      <trkpt lat="46.76006" lon="5.63008">
        <ele>318.20001220703</ele>
        <time>2020-09-12T08:21:39.000Z</time>
      </trkpt>
      <trkpt lat="46.76008" lon="5.63013">
        <ele>318.60000610352</ele>
        <time>2020-09-12T08:21:40.000Z</time>
      </trkpt>
      <trkpt lat="46.7601" lon="5.63023">
        <ele>319</ele>
        <time>2020-09-12T08:21:42.000Z</time>
      </trkpt>
      <trkpt lat="46.76013" lon="5.63034">
        <ele>319.39999389648</ele>
        <time>2020-09-12T08:21:44.000Z</time>
      </trkpt>
      <trkpt lat="46.76017" lon="5.63044">
        <ele>319.79998779297</ele>
        <time>2020-09-12T08:21:46.000Z</time>
      </trkpt>
      <trkpt lat="46.76022" lon="5.63053">
        <ele>320.20001220703</ele>
        <time>2020-09-12T08:21:48.000Z</time>
      </trkpt>
      <trkpt lat="46.76024" lon="5.63058">
        <ele>320.39999389648</ele>
        <time>2020-09-12T08:21:49.000Z</time>
      </trkpt>
      <trkpt lat="46.76027" lon="5.63063">
        <ele>320.60000610352</ele>
        <time>2020-09-12T08:21:50.000Z</time>
      </trkpt>
      <trkpt lat="46.76029" lon="5.63068">
        <ele>320.79998779297</ele>
        <time>2020-09-12T08:21:51.000Z</time>
      </trkpt>
      <trkpt lat="46.76031" lon="5.63073">
        <ele>321.20001220703</ele>
        <time>2020-09-12T08:21:52.000Z</time>
      </trkpt>
      <trkpt lat="46.76033" lon="5.63078">
        <ele>321.39999389648</ele>
        <time>2020-09-12T08:21:53.000Z</time>
      </trkpt>
      <trkpt lat="46.76035" lon="5.63083">
        <ele>321.60000610352</ele>
        <time>2020-09-12T08:21:54.000Z</time>
      </trkpt>
      <trkpt lat="46.76041" lon="5.63092">
        <ele>322</ele>
        <time>2020-09-12T08:21:56.000Z</time>
      </trkpt>
      <trkpt lat="46.76046" lon="5.631">
        <ele>322.39999389648</ele>
        <time>2020-09-12T08:21:58.000Z</time>
      </trkpt>
      <trkpt lat="46.76048" lon="5.63105">
        <ele>322.60000610352</ele>
        <time>2020-09-12T08:21:59.000Z</time>
      </trkpt>
      <trkpt lat="46.76051" lon="5.63109">
        <ele>322.60000610352</ele>
        <time>2020-09-12T08:22:00.000Z</time>
      </trkpt>
      <trkpt lat="46.76056" lon="5.63118">
        <ele>323</ele>
        <time>2020-09-12T08:22:02.000Z</time>
      </trkpt>
      <trkpt lat="46.76062" lon="5.63127">
        <ele>323.39999389648</ele>
        <time>2020-09-12T08:22:04.000Z</time>
      </trkpt>
      <trkpt lat="46.76065" lon="5.63132">
        <ele>323.60000610352</ele>
        <time>2020-09-12T08:22:05.000Z</time>
      </trkpt>
      <trkpt lat="46.76068" lon="5.63136">
        <ele>323.79998779297</ele>
        <time>2020-09-12T08:22:06.000Z</time>
      </trkpt>
      <trkpt lat="46.76074" lon="5.63146">
        <ele>324.20001220703</ele>
        <time>2020-09-12T08:22:08.000Z</time>
      </trkpt>
      <trkpt lat="46.76079" lon="5.63155">
        <ele>324.39999389648</ele>
        <time>2020-09-12T08:22:10.000Z</time>
      </trkpt>
      <trkpt lat="46.76083" lon="5.63166">
        <ele>324.60000610352</ele>
        <time>2020-09-12T08:22:12.000Z</time>
      </trkpt>
      <trkpt lat="46.76086" lon="5.63177">
        <ele>324.60000610352</ele>
        <time>2020-09-12T08:22:14.000Z</time>
      </trkpt>
      <trkpt lat="46.76087" lon="5.63189">
        <ele>325</ele>
        <time>2020-09-12T08:22:16.000Z</time>
      </trkpt>
      <trkpt lat="46.76089" lon="5.632">
        <ele>325.20001220703</ele>
        <time>2020-09-12T08:22:18.000Z</time>
      </trkpt>
      <trkpt lat="46.7609" lon="5.63211">
        <ele>325.60000610352</ele>
        <time>2020-09-12T08:22:20.000Z</time>
      </trkpt>
      <trkpt lat="46.76092" lon="5.63217">
        <ele>325.79998779297</ele>
        <time>2020-09-12T08:22:21.000Z</time>
      </trkpt>
      <trkpt lat="46.76093" lon="5.63222">
        <ele>326</ele>
        <time>2020-09-12T08:22:22.000Z</time>
      </trkpt>
      <trkpt lat="46.76098" lon="5.63233">
        <ele>326.60000610352</ele>
        <time>2020-09-12T08:22:24.000Z</time>
      </trkpt>
      <trkpt lat="46.76103" lon="5.63243">
        <ele>327</ele>
        <time>2020-09-12T08:22:26.000Z</time>
      </trkpt>
      <trkpt lat="46.76109" lon="5.63252">
        <ele>327.20001220703</ele>
        <time>2020-09-12T08:22:28.000Z</time>
      </trkpt>
      <trkpt lat="46.76116" lon="5.63261">
        <ele>327.60000610352</ele>
        <time>2020-09-12T08:22:30.000Z</time>
      </trkpt>
      <trkpt lat="46.76124" lon="5.63269">
        <ele>328</ele>
        <time>2020-09-12T08:22:32.000Z</time>
      </trkpt>
      <trkpt lat="46.76132" lon="5.63277">
        <ele>328.39999389648</ele>
        <time>2020-09-12T08:22:34.000Z</time>
      </trkpt>
      <trkpt lat="46.76136" lon="5.6328">
        <ele>328.60000610352</ele>
        <time>2020-09-12T08:22:35.000Z</time>
      </trkpt>
      <trkpt lat="46.7614" lon="5.63283">
        <ele>328.60000610352</ele>
        <time>2020-09-12T08:22:36.000Z</time>
      </trkpt>
      <trkpt lat="46.76149" lon="5.63288">
        <ele>328.79998779297</ele>
        <time>2020-09-12T08:22:38.000Z</time>
      </trkpt>
      <trkpt lat="46.76153" lon="5.6329">
        <ele>329</ele>
        <time>2020-09-12T08:22:39.000Z</time>
      </trkpt>
      <trkpt lat="46.76157" lon="5.63292">
        <ele>329.20001220703</ele>
        <time>2020-09-12T08:22:40.000Z</time>
      </trkpt>
      <trkpt lat="46.76166" lon="5.63296">
        <ele>329.60000610352</ele>
        <time>2020-09-12T08:22:42.000Z</time>
      </trkpt>
      <trkpt lat="46.76175" lon="5.63299">
        <ele>329.79998779297</ele>
        <time>2020-09-12T08:22:44.000Z</time>
      </trkpt>
      <trkpt lat="46.7618" lon="5.63301">
        <ele>330</ele>
        <time>2020-09-12T08:22:45.000Z</time>
      </trkpt>
      <trkpt lat="46.76184" lon="5.63303">
        <ele>330</ele>
        <time>2020-09-12T08:22:46.000Z</time>
      </trkpt>
      <trkpt lat="46.76193" lon="5.63307">
        <ele>330.60000610352</ele>
        <time>2020-09-12T08:22:48.000Z</time>
      </trkpt>
      <trkpt lat="46.76201" lon="5.63313">
        <ele>331</ele>
        <time>2020-09-12T08:22:50.000Z</time>
      </trkpt>
      <trkpt lat="46.76205" lon="5.63317">
        <ele>331.20001220703</ele>
        <time>2020-09-12T08:22:51.000Z</time>
      </trkpt>
      <trkpt lat="46.76209" lon="5.63321">
        <ele>331.39999389648</ele>
        <time>2020-09-12T08:22:52.000Z</time>
      </trkpt>
      <trkpt lat="46.76217" lon="5.63329">
        <ele>331.60000610352</ele>
        <time>2020-09-12T08:22:54.000Z</time>
      </trkpt>
      <trkpt lat="46.76224" lon="5.63338">
        <ele>332</ele>
        <time>2020-09-12T08:22:56.000Z</time>
      </trkpt>
      <trkpt lat="46.7623" lon="5.63347">
        <ele>332.20001220703</ele>
        <time>2020-09-12T08:22:58.000Z</time>
      </trkpt>
      <trkpt lat="46.76233" lon="5.63351">
        <ele>332.39999389648</ele>
        <time>2020-09-12T08:22:59.000Z</time>
      </trkpt>
      <trkpt lat="46.76236" lon="5.63356">
        <ele>332.60000610352</ele>
        <time>2020-09-12T08:23:00.000Z</time>
      </trkpt>
      <trkpt lat="46.76243" lon="5.63364">
        <ele>333</ele>
        <time>2020-09-12T08:23:02.000Z</time>
      </trkpt>
      <trkpt lat="46.7625" lon="5.63372">
        <ele>333.39999389648</ele>
        <time>2020-09-12T08:23:04.000Z</time>
      </trkpt>
      <trkpt lat="46.76257" lon="5.63379">
        <ele>334</ele>
        <time>2020-09-12T08:23:06.000Z</time>
      </trkpt>
      <trkpt lat="46.76264" lon="5.63386">
        <ele>334.20001220703</ele>
        <time>2020-09-12T08:23:08.000Z</time>
      </trkpt>
      <trkpt lat="46.76268" lon="5.6339">
        <ele>334.60000610352</ele>
        <time>2020-09-12T08:23:09.000Z</time>
      </trkpt>
      <trkpt lat="46.76271" lon="5.63394">
        <ele>334.60000610352</ele>
        <time>2020-09-12T08:23:10.000Z</time>
      </trkpt>
      <trkpt lat="46.76279" lon="5.63402">
        <ele>335.20001220703</ele>
        <time>2020-09-12T08:23:12.000Z</time>
      </trkpt>
      <trkpt lat="46.76286" lon="5.63412">
        <ele>335.39999389648</ele>
        <time>2020-09-12T08:23:14.000Z</time>
      </trkpt>
      <trkpt lat="46.76289" lon="5.63418">
        <ele>335.60000610352</ele>
        <time>2020-09-12T08:23:15.000Z</time>
      </trkpt>
      <trkpt lat="46.76292" lon="5.63424">
        <ele>335.79998779297</ele>
        <time>2020-09-12T08:23:16.000Z</time>
      </trkpt>
      <trkpt lat="46.76297" lon="5.63436">
        <ele>336.20001220703</ele>
        <time>2020-09-12T08:23:18.000Z</time>
      </trkpt>
      <trkpt lat="46.76301" lon="5.63449">
        <ele>336.60000610352</ele>
        <time>2020-09-12T08:23:20.000Z</time>
      </trkpt>
      <trkpt lat="46.76305" lon="5.63463">
        <ele>336.79998779297</ele>
        <time>2020-09-12T08:23:22.000Z</time>
      </trkpt>
      <trkpt lat="46.7631" lon="5.63477">
        <ele>337</ele>
        <time>2020-09-12T08:23:24.000Z</time>
      </trkpt>
      <trkpt lat="46.76312" lon="5.63483">
        <ele>337.20001220703</ele>
        <time>2020-09-12T08:23:25.000Z</time>
      </trkpt>
      <trkpt lat="46.76315" lon="5.6349">
        <ele>337.39999389648</ele>
        <time>2020-09-12T08:23:26.000Z</time>
      </trkpt>
      <trkpt lat="46.76322" lon="5.635">
        <ele>337.39999389648</ele>
        <time>2020-09-12T08:23:28.000Z</time>
      </trkpt>
      <trkpt lat="46.76328" lon="5.63511">
        <ele>337.39999389648</ele>
        <time>2020-09-12T08:23:30.000Z</time>
      </trkpt>
      <trkpt lat="46.76334" lon="5.63521">
        <ele>337.60000610352</ele>
        <time>2020-09-12T08:23:32.000Z</time>
      </trkpt>
      <trkpt lat="46.76336" lon="5.63527">
        <ele>337.79998779297</ele>
        <time>2020-09-12T08:23:33.000Z</time>
      </trkpt>
      <trkpt lat="46.76338" lon="5.63532">
        <ele>338</ele>
        <time>2020-09-12T08:23:34.000Z</time>
      </trkpt>
      <trkpt lat="46.76342" lon="5.63544">
        <ele>338.39999389648</ele>
        <time>2020-09-12T08:23:36.000Z</time>
      </trkpt>
      <trkpt lat="46.76345" lon="5.63555">
        <ele>339</ele>
        <time>2020-09-12T08:23:38.000Z</time>
      </trkpt>
      <trkpt lat="46.76348" lon="5.63565">
        <ele>339.39999389648</ele>
        <time>2020-09-12T08:23:40.000Z</time>
      </trkpt>
      <trkpt lat="46.76352" lon="5.63576">
        <ele>340.20001220703</ele>
        <time>2020-09-12T08:23:42.000Z</time>
      </trkpt>
      <trkpt lat="46.76356" lon="5.63585">
        <ele>340.60000610352</ele>
        <time>2020-09-12T08:23:44.000Z</time>
      </trkpt>
      <trkpt lat="46.76358" lon="5.6359">
        <ele>341</ele>
        <time>2020-09-12T08:23:45.000Z</time>
      </trkpt>
      <trkpt lat="46.76361" lon="5.63594">
        <ele>341.20001220703</ele>
        <time>2020-09-12T08:23:46.000Z</time>
      </trkpt>
      <trkpt lat="46.76367" lon="5.63602">
        <ele>341.60000610352</ele>
        <time>2020-09-12T08:23:48.000Z</time>
      </trkpt>
      <trkpt lat="46.76373" lon="5.63609">
        <ele>342.20001220703</ele>
        <time>2020-09-12T08:23:50.000Z</time>
      </trkpt>
      <trkpt lat="46.76377" lon="5.63612">
        <ele>342.39999389648</ele>
        <time>2020-09-12T08:23:51.000Z</time>
      </trkpt>
      <trkpt lat="46.76381" lon="5.63614">
        <ele>342.60000610352</ele>
        <time>2020-09-12T08:23:52.000Z</time>
      </trkpt>
      <trkpt lat="46.76389" lon="5.63617">
        <ele>343</ele>
        <time>2020-09-12T08:23:54.000Z</time>
      </trkpt>
      <trkpt lat="46.76393" lon="5.63619">
        <ele>343.20001220703</ele>
        <time>2020-09-12T08:23:55.000Z</time>
      </trkpt>
      <trkpt lat="46.76397" lon="5.6362">
        <ele>343.39999389648</ele>
        <time>2020-09-12T08:23:56.000Z</time>
      </trkpt>
      <trkpt lat="46.76401" lon="5.63621">
        <ele>343.39999389648</ele>
        <time>2020-09-12T08:23:57.000Z</time>
      </trkpt>
      <trkpt lat="46.76405" lon="5.63621">
        <ele>343.39999389648</ele>
        <time>2020-09-12T08:23:58.000Z</time>
      </trkpt>
      <trkpt lat="46.76413" lon="5.63621">
        <ele>343.79998779297</ele>
        <time>2020-09-12T08:24:00.000Z</time>
      </trkpt>
      <trkpt lat="46.76421" lon="5.63619">
        <ele>344.20001220703</ele>
        <time>2020-09-12T08:24:02.000Z</time>
      </trkpt>
      <trkpt lat="46.76425" lon="5.63618">
        <ele>344.20001220703</ele>
        <time>2020-09-12T08:24:03.000Z</time>
      </trkpt>
      <trkpt lat="46.76429" lon="5.63618">
        <ele>344.39999389648</ele>
        <time>2020-09-12T08:24:04.000Z</time>
      </trkpt>
      <trkpt lat="46.76437" lon="5.63617">
        <ele>345</ele>
        <time>2020-09-12T08:24:06.000Z</time>
      </trkpt>
      <trkpt lat="46.76441" lon="5.63618">
        <ele>345.20001220703</ele>
        <time>2020-09-12T08:24:07.000Z</time>
      </trkpt>
      <trkpt lat="46.76445" lon="5.63618">
        <ele>345.39999389648</ele>
        <time>2020-09-12T08:24:08.000Z</time>
      </trkpt>
      <trkpt lat="46.76453" lon="5.63619">
        <ele>345.79998779297</ele>
        <time>2020-09-12T08:24:10.000Z</time>
      </trkpt>
      <trkpt lat="46.76462" lon="5.6362">
        <ele>346.20001220703</ele>
        <time>2020-09-12T08:24:12.000Z</time>
      </trkpt>
      <trkpt lat="46.7647" lon="5.63621">
        <ele>346.39999389648</ele>
        <time>2020-09-12T08:24:14.000Z</time>
      </trkpt>
      <trkpt lat="46.76478" lon="5.63622">
        <ele>346.79998779297</ele>
        <time>2020-09-12T08:24:16.000Z</time>
      </trkpt>
      <trkpt lat="46.76486" lon="5.63625">
        <ele>347.39999389648</ele>
        <time>2020-09-12T08:24:18.000Z</time>
      </trkpt>
      <trkpt lat="46.7649" lon="5.63626">
        <ele>347.60000610352</ele>
        <time>2020-09-12T08:24:19.000Z</time>
      </trkpt>
      <trkpt lat="46.76494" lon="5.63627">
        <ele>347.79998779297</ele>
        <time>2020-09-12T08:24:20.000Z</time>
      </trkpt>
      <trkpt lat="46.76503" lon="5.6363">
        <ele>348</ele>
        <time>2020-09-12T08:24:22.000Z</time>
      </trkpt>
      <trkpt lat="46.76507" lon="5.63631">
        <ele>348</ele>
        <time>2020-09-12T08:24:23.000Z</time>
      </trkpt>
      <trkpt lat="46.76511" lon="5.63634">
        <ele>348.20001220703</ele>
        <time>2020-09-12T08:24:24.000Z</time>
      </trkpt>
      <trkpt lat="46.76514" lon="5.63637">
        <ele>348.39999389648</ele>
        <time>2020-09-12T08:24:25.000Z</time>
      </trkpt>
      <trkpt lat="46.76518" lon="5.63641">
        <ele>348.79998779297</ele>
        <time>2020-09-12T08:24:26.000Z</time>
      </trkpt>
      <trkpt lat="46.76521" lon="5.63652">
        <ele>349.20001220703</ele>
        <time>2020-09-12T08:24:28.000Z</time>
      </trkpt>
      <trkpt lat="46.7652" lon="5.63664">
        <ele>349.60000610352</ele>
        <time>2020-09-12T08:24:30.000Z</time>
      </trkpt>
      <trkpt lat="46.76517" lon="5.63669">
        <ele>349.79998779297</ele>
        <time>2020-09-12T08:24:31.000Z</time>
      </trkpt>
      <trkpt lat="46.76515" lon="5.63673">
        <ele>349.79998779297</ele>
        <time>2020-09-12T08:24:32.000Z</time>
      </trkpt>
      <trkpt lat="46.76507" lon="5.63679">
        <ele>350</ele>
        <time>2020-09-12T08:24:34.000Z</time>
      </trkpt>
      <trkpt lat="46.76503" lon="5.6368">
        <ele>350.20001220703</ele>
        <time>2020-09-12T08:24:35.000Z</time>
      </trkpt>
      <trkpt lat="46.76499" lon="5.63682">
        <ele>350.39999389648</ele>
        <time>2020-09-12T08:24:36.000Z</time>
      </trkpt>
      <trkpt lat="46.76491" lon="5.63684">
        <ele>350.79998779297</ele>
        <time>2020-09-12T08:24:38.000Z</time>
      </trkpt>
      <trkpt lat="46.76483" lon="5.63687">
        <ele>351.39999389648</ele>
        <time>2020-09-12T08:24:40.000Z</time>
      </trkpt>
      <trkpt lat="46.76475" lon="5.63689">
        <ele>351.79998779297</ele>
        <time>2020-09-12T08:24:42.000Z</time>
      </trkpt>
      <trkpt lat="46.76466" lon="5.63692">
        <ele>352.20001220703</ele>
        <time>2020-09-12T08:24:44.000Z</time>
      </trkpt>
      <trkpt lat="46.76458" lon="5.63694">
        <ele>352.60000610352</ele>
        <time>2020-09-12T08:24:46.000Z</time>
      </trkpt>
      <trkpt lat="46.76454" lon="5.63695">
        <ele>353</ele>
        <time>2020-09-12T08:24:47.000Z</time>
      </trkpt>
      <trkpt lat="46.7645" lon="5.63696">
        <ele>353.20001220703</ele>
        <time>2020-09-12T08:24:48.000Z</time>
      </trkpt>
      <trkpt lat="46.76441" lon="5.63697">
        <ele>353.79998779297</ele>
        <time>2020-09-12T08:24:50.000Z</time>
      </trkpt>
      <trkpt lat="46.76437" lon="5.63697">
        <ele>354</ele>
        <time>2020-09-12T08:24:51.000Z</time>
      </trkpt>
      <trkpt lat="46.76433" lon="5.63696">
        <ele>354.20001220703</ele>
        <time>2020-09-12T08:24:52.000Z</time>
      </trkpt>
      <trkpt lat="46.76425" lon="5.63694">
        <ele>354.60000610352</ele>
        <time>2020-09-12T08:24:54.000Z</time>
      </trkpt>
      <trkpt lat="46.76419" lon="5.63691">
        <ele>355.20001220703</ele>
        <time>2020-09-12T08:24:56.000Z</time>
      </trkpt>
      <trkpt lat="46.76416" lon="5.6369">
        <ele>355.39999389648</ele>
        <time>2020-09-12T08:24:57.000Z</time>
      </trkpt>
      <trkpt lat="46.76414" lon="5.63688">
        <ele>355.60000610352</ele>
        <time>2020-09-12T08:24:58.000Z</time>
      </trkpt>
      <trkpt lat="46.76408" lon="5.63684">
        <ele>356.20001220703</ele>
        <time>2020-09-12T08:25:00.000Z</time>
      </trkpt>
      <trkpt lat="46.76405" lon="5.63682">
        <ele>356.39999389648</ele>
        <time>2020-09-12T08:25:01.000Z</time>
      </trkpt>
      <trkpt lat="46.76401" lon="5.63679">
        <ele>356.60000610352</ele>
        <time>2020-09-12T08:25:02.000Z</time>
      </trkpt>
      <trkpt lat="46.76396" lon="5.63674">
        <ele>357.20001220703</ele>
        <time>2020-09-12T08:25:04.000Z</time>
      </trkpt>
      <trkpt lat="46.76393" lon="5.63672">
        <ele>357.39999389648</ele>
        <time>2020-09-12T08:25:05.000Z</time>
      </trkpt>
      <trkpt lat="46.76391" lon="5.63669">
        <ele>357.60000610352</ele>
        <time>2020-09-12T08:25:06.000Z</time>
      </trkpt>
      <trkpt lat="46.76385" lon="5.63664">
        <ele>358</ele>
        <time>2020-09-12T08:25:08.000Z</time>
      </trkpt>
      <trkpt lat="46.7638" lon="5.63658">
        <ele>358.39999389648</ele>
        <time>2020-09-12T08:25:10.000Z</time>
      </trkpt>
      <trkpt lat="46.76374" lon="5.63652">
        <ele>359.20001220703</ele>
        <time>2020-09-12T08:25:12.000Z</time>
      </trkpt>
      <trkpt lat="46.76371" lon="5.63649">
        <ele>359.39999389648</ele>
        <time>2020-09-12T08:25:13.000Z</time>
      </trkpt>
      <trkpt lat="46.76369" lon="5.63646">
        <ele>359.60000610352</ele>
        <time>2020-09-12T08:25:14.000Z</time>
      </trkpt>
      <trkpt lat="46.76364" lon="5.63642">
        <ele>360.39999389648</ele>
        <time>2020-09-12T08:25:16.000Z</time>
      </trkpt>
      <trkpt lat="46.76361" lon="5.6364">
        <ele>360.60000610352</ele>
        <time>2020-09-12T08:25:17.000Z</time>
      </trkpt>
      <trkpt lat="46.76358" lon="5.63638">
        <ele>360.79998779297</ele>
        <time>2020-09-12T08:25:18.000Z</time>
      </trkpt>
      <trkpt lat="46.76352" lon="5.63634">
        <ele>361</ele>
        <time>2020-09-12T08:25:20.000Z</time>
      </trkpt>
      <trkpt lat="46.76346" lon="5.6363">
        <ele>361.39999389648</ele>
        <time>2020-09-12T08:25:22.000Z</time>
      </trkpt>
      <trkpt lat="46.76342" lon="5.63627">
        <ele>361.60000610352</ele>
        <time>2020-09-12T08:25:23.000Z</time>
      </trkpt>
      <trkpt lat="46.76338" lon="5.63624">
        <ele>361.79998779297</ele>
        <time>2020-09-12T08:25:24.000Z</time>
      </trkpt>
      <trkpt lat="46.76329" lon="5.63617">
        <ele>362</ele>
        <time>2020-09-12T08:25:26.000Z</time>
      </trkpt>
      <trkpt lat="46.76321" lon="5.63612">
        <ele>362.39999389648</ele>
        <time>2020-09-12T08:25:28.000Z</time>
      </trkpt>
      <trkpt lat="46.76314" lon="5.63607">
        <ele>362.79998779297</ele>
        <time>2020-09-12T08:25:30.000Z</time>
      </trkpt>
      <trkpt lat="46.7631" lon="5.63605">
        <ele>362.79998779297</ele>
        <time>2020-09-12T08:25:31.000Z</time>
      </trkpt>
      <trkpt lat="46.76306" lon="5.63603">
        <ele>363</ele>
        <time>2020-09-12T08:25:32.000Z</time>
      </trkpt>
      <trkpt lat="46.76298" lon="5.63599">
        <ele>363</ele>
        <time>2020-09-12T08:25:34.000Z</time>
      </trkpt>
      <trkpt lat="46.76291" lon="5.63595">
        <ele>363.39999389648</ele>
        <time>2020-09-12T08:25:36.000Z</time>
      </trkpt>
      <trkpt lat="46.76287" lon="5.63594">
        <ele>363.79998779297</ele>
        <time>2020-09-12T08:25:37.000Z</time>
      </trkpt>
      <trkpt lat="46.76283" lon="5.63592">
        <ele>364</ele>
        <time>2020-09-12T08:25:38.000Z</time>
      </trkpt>
      <trkpt lat="46.76275" lon="5.63589">
        <ele>364.39999389648</ele>
        <time>2020-09-12T08:25:40.000Z</time>
      </trkpt>
      <trkpt lat="46.76272" lon="5.63587">
        <ele>364.60000610352</ele>
        <time>2020-09-12T08:25:41.000Z</time>
      </trkpt>
      <trkpt lat="46.76268" lon="5.63585">
        <ele>364.79998779297</ele>
        <time>2020-09-12T08:25:42.000Z</time>
      </trkpt>
      <trkpt lat="46.76261" lon="5.63582">
        <ele>365.20001220703</ele>
        <time>2020-09-12T08:25:44.000Z</time>
      </trkpt>
      <trkpt lat="46.76254" lon="5.63578">
        <ele>365.79998779297</ele>
        <time>2020-09-12T08:25:46.000Z</time>
      </trkpt>
      <trkpt lat="46.76251" lon="5.63576">
        <ele>366</ele>
        <time>2020-09-12T08:25:47.000Z</time>
      </trkpt>
      <trkpt lat="46.76248" lon="5.63574">
        <ele>366.20001220703</ele>
        <time>2020-09-12T08:25:48.000Z</time>
      </trkpt>
      <trkpt lat="46.76242" lon="5.63568">
        <ele>366.79998779297</ele>
        <time>2020-09-12T08:25:50.000Z</time>
      </trkpt>
      <trkpt lat="46.76236" lon="5.63561">
        <ele>367.20001220703</ele>
        <time>2020-09-12T08:25:52.000Z</time>
      </trkpt>
      <trkpt lat="46.76231" lon="5.63553">
        <ele>367.39999389648</ele>
        <time>2020-09-12T08:25:54.000Z</time>
      </trkpt>
      <trkpt lat="46.76226" lon="5.63544">
        <ele>367.79998779297</ele>
        <time>2020-09-12T08:25:56.000Z</time>
      </trkpt>
      <trkpt lat="46.76224" lon="5.63539">
        <ele>368.20001220703</ele>
        <time>2020-09-12T08:25:57.000Z</time>
      </trkpt>
      <trkpt lat="46.76221" lon="5.63534">
        <ele>368.20001220703</ele>
        <time>2020-09-12T08:25:58.000Z</time>
      </trkpt>
      <trkpt lat="46.76217" lon="5.63524">
        <ele>368.60000610352</ele>
        <time>2020-09-12T08:26:00.000Z</time>
      </trkpt>
      <trkpt lat="46.76214" lon="5.63519">
        <ele>368.79998779297</ele>
        <time>2020-09-12T08:26:01.000Z</time>
      </trkpt>
      <trkpt lat="46.76212" lon="5.63513">
        <ele>369</ele>
        <time>2020-09-12T08:26:02.000Z</time>
      </trkpt>
      <trkpt lat="46.76209" lon="5.63508">
        <ele>369.20001220703</ele>
        <time>2020-09-12T08:26:03.000Z</time>
      </trkpt>
      <trkpt lat="46.76207" lon="5.63503">
        <ele>369.39999389648</ele>
        <time>2020-09-12T08:26:04.000Z</time>
      </trkpt>
      <trkpt lat="46.76201" lon="5.63493">
        <ele>370</ele>
        <time>2020-09-12T08:26:06.000Z</time>
      </trkpt>
      <trkpt lat="46.76198" lon="5.63489">
        <ele>370.20001220703</ele>
        <time>2020-09-12T08:26:07.000Z</time>
      </trkpt>
      <trkpt lat="46.76194" lon="5.63484">
        <ele>370.39999389648</ele>
        <time>2020-09-12T08:26:08.000Z</time>
      </trkpt>
      <trkpt lat="46.7619" lon="5.63481">
        <ele>370.39999389648</ele>
        <time>2020-09-12T08:26:09.000Z</time>
      </trkpt>
      <trkpt lat="46.76186" lon="5.63478">
        <ele>370.60000610352</ele>
        <time>2020-09-12T08:26:10.000Z</time>
      </trkpt>
      <trkpt lat="46.76176" lon="5.63473">
        <ele>371</ele>
        <time>2020-09-12T08:26:12.000Z</time>
      </trkpt>
      <trkpt lat="46.76167" lon="5.63467">
        <ele>371.20001220703</ele>
        <time>2020-09-12T08:26:14.000Z</time>
      </trkpt>
      <trkpt lat="46.76162" lon="5.63464">
        <ele>371.39999389648</ele>
        <time>2020-09-12T08:26:15.000Z</time>
      </trkpt>
      <trkpt lat="46.76157" lon="5.63461">
        <ele>371.39999389648</ele>
        <time>2020-09-12T08:26:16.000Z</time>
      </trkpt>
      <trkpt lat="46.76148" lon="5.63456">
        <ele>371.60000610352</ele>
        <time>2020-09-12T08:26:18.000Z</time>
      </trkpt>
      <trkpt lat="46.76138" lon="5.63451">
        <ele>371.79998779297</ele>
        <time>2020-09-12T08:26:20.000Z</time>
      </trkpt>
      <trkpt lat="46.76128" lon="5.63445">
        <ele>371.79998779297</ele>
        <time>2020-09-12T08:26:22.000Z</time>
      </trkpt>
      <trkpt lat="46.76123" lon="5.63443">
        <ele>371.79998779297</ele>
        <time>2020-09-12T08:26:23.000Z</time>
      </trkpt>
      <trkpt lat="46.76118" lon="5.6344">
        <ele>371.79998779297</ele>
        <time>2020-09-12T08:26:24.000Z</time>
      </trkpt>
      <trkpt lat="46.76108" lon="5.63435">
        <ele>372</ele>
        <time>2020-09-12T08:26:26.000Z</time>
      </trkpt>
      <trkpt lat="46.76097" lon="5.63431">
        <ele>372</ele>
        <time>2020-09-12T08:26:28.000Z</time>
      </trkpt>
      <trkpt lat="46.76093" lon="5.63429">
        <ele>372.20001220703</ele>
        <time>2020-09-12T08:26:29.000Z</time>
      </trkpt>
      <trkpt lat="46.76088" lon="5.63427">
        <ele>372.20001220703</ele>
        <time>2020-09-12T08:26:30.000Z</time>
      </trkpt>
      <trkpt lat="46.76079" lon="5.63423">
        <ele>372.39999389648</ele>
        <time>2020-09-12T08:26:32.000Z</time>
      </trkpt>
      <trkpt lat="46.76074" lon="5.63421">
        <ele>372.39999389648</ele>
        <time>2020-09-12T08:26:33.000Z</time>
      </trkpt>
      <trkpt lat="46.7607" lon="5.6342">
        <ele>372.60000610352</ele>
        <time>2020-09-12T08:26:34.000Z</time>
      </trkpt>
      <trkpt lat="46.7606" lon="5.63418">
        <ele>373</ele>
        <time>2020-09-12T08:26:36.000Z</time>
      </trkpt>
      <trkpt lat="46.76056" lon="5.63417">
        <ele>373.20001220703</ele>
        <time>2020-09-12T08:26:37.000Z</time>
      </trkpt>
      <trkpt lat="46.76051" lon="5.63417">
        <ele>373.39999389648</ele>
        <time>2020-09-12T08:26:38.000Z</time>
      </trkpt>
      <trkpt lat="46.76041" lon="5.63417">
        <ele>374</ele>
        <time>2020-09-12T08:26:40.000Z</time>
      </trkpt>
      <trkpt lat="46.76036" lon="5.63417">
        <ele>374.39999389648</ele>
        <time>2020-09-12T08:26:41.000Z</time>
      </trkpt>
      <trkpt lat="46.76031" lon="5.63417">
        <ele>374.79998779297</ele>
        <time>2020-09-12T08:26:42.000Z</time>
      </trkpt>
      <trkpt lat="46.76021" lon="5.63416">
        <ele>375.39999389648</ele>
        <time>2020-09-12T08:26:44.000Z</time>
      </trkpt>
      <trkpt lat="46.76012" lon="5.63415">
        <ele>375.79998779297</ele>
        <time>2020-09-12T08:26:46.000Z</time>
      </trkpt>
      <trkpt lat="46.76003" lon="5.63414">
        <ele>376.20001220703</ele>
        <time>2020-09-12T08:26:48.000Z</time>
      </trkpt>
      <trkpt lat="46.75999" lon="5.63414">
        <ele>376.39999389648</ele>
        <time>2020-09-12T08:26:49.000Z</time>
      </trkpt>
      <trkpt lat="46.75995" lon="5.63413">
        <ele>376.60000610352</ele>
        <time>2020-09-12T08:26:50.000Z</time>
      </trkpt>
      <trkpt lat="46.75986" lon="5.63412">
        <ele>377</ele>
        <time>2020-09-12T08:26:52.000Z</time>
      </trkpt>
      <trkpt lat="46.75978" lon="5.63409">
        <ele>377.60000610352</ele>
        <time>2020-09-12T08:26:54.000Z</time>
      </trkpt>
      <trkpt lat="46.75974" lon="5.63408">
        <ele>377.79998779297</ele>
        <time>2020-09-12T08:26:55.000Z</time>
      </trkpt>
      <trkpt lat="46.7597" lon="5.63406">
        <ele>378</ele>
        <time>2020-09-12T08:26:56.000Z</time>
      </trkpt>
      <trkpt lat="46.75967" lon="5.63403">
        <ele>378.20001220703</ele>
        <time>2020-09-12T08:26:57.000Z</time>
      </trkpt>
      <trkpt lat="46.75963" lon="5.63401">
        <ele>378.39999389648</ele>
        <time>2020-09-12T08:26:58.000Z</time>
      </trkpt>
      <trkpt lat="46.75956" lon="5.63395">
        <ele>378.79998779297</ele>
        <time>2020-09-12T08:27:00.000Z</time>
      </trkpt>
      <trkpt lat="46.75953" lon="5.63392">
        <ele>378.60000610352</ele>
        <time>2020-09-12T08:27:01.000Z</time>
      </trkpt>
      <trkpt lat="46.7595" lon="5.6339">
        <ele>378.79998779297</ele>
        <time>2020-09-12T08:27:02.000Z</time>
      </trkpt>
      <trkpt lat="46.75943" lon="5.63384">
        <ele>379.20001220703</ele>
        <time>2020-09-12T08:27:04.000Z</time>
      </trkpt>
      <trkpt lat="46.75936" lon="5.63378">
        <ele>379.60000610352</ele>
        <time>2020-09-12T08:27:06.000Z</time>
      </trkpt>
      <trkpt lat="46.75934" lon="5.63374">
        <ele>380</ele>
        <time>2020-09-12T08:27:07.000Z</time>
      </trkpt>
      <trkpt lat="46.75931" lon="5.63371">
        <ele>380.20001220703</ele>
        <time>2020-09-12T08:27:08.000Z</time>
      </trkpt>
      <trkpt lat="46.75928" lon="5.63368">
        <ele>380.39999389648</ele>
        <time>2020-09-12T08:27:09.000Z</time>
      </trkpt>
      <trkpt lat="46.75925" lon="5.63365">
        <ele>380.79998779297</ele>
        <time>2020-09-12T08:27:10.000Z</time>
      </trkpt>
      <trkpt lat="46.75919" lon="5.63359">
        <ele>381.20001220703</ele>
        <time>2020-09-12T08:27:12.000Z</time>
      </trkpt>
      <trkpt lat="46.75913" lon="5.63353">
        <ele>381.79998779297</ele>
        <time>2020-09-12T08:27:14.000Z</time>
      </trkpt>
      <trkpt lat="46.75907" lon="5.63346">
        <ele>382.20001220703</ele>
        <time>2020-09-12T08:27:16.000Z</time>
      </trkpt>
      <trkpt lat="46.75901" lon="5.6334">
        <ele>382.60000610352</ele>
        <time>2020-09-12T08:27:18.000Z</time>
      </trkpt>
      <trkpt lat="46.75896" lon="5.63334">
        <ele>383.20001220703</ele>
        <time>2020-09-12T08:27:20.000Z</time>
      </trkpt>
      <trkpt lat="46.75893" lon="5.63332">
        <ele>383.39999389648</ele>
        <time>2020-09-12T08:27:21.000Z</time>
      </trkpt>
      <trkpt lat="46.75889" lon="5.63328">
        <ele>383.39999389648</ele>
        <time>2020-09-12T08:27:22.000Z</time>
      </trkpt>
      <trkpt lat="46.75886" lon="5.63325">
        <ele>383.79998779297</ele>
        <time>2020-09-12T08:27:23.000Z</time>
      </trkpt>
      <trkpt lat="46.75883" lon="5.63321">
        <ele>384</ele>
        <time>2020-09-12T08:27:24.000Z</time>
      </trkpt>
      <trkpt lat="46.75877" lon="5.63315">
        <ele>384.20001220703</ele>
        <time>2020-09-12T08:27:26.000Z</time>
      </trkpt>
      <trkpt lat="46.75871" lon="5.63309">
        <ele>385</ele>
        <time>2020-09-12T08:27:28.000Z</time>
      </trkpt>
      <trkpt lat="46.75865" lon="5.63304">
        <ele>385.60000610352</ele>
        <time>2020-09-12T08:27:30.000Z</time>
      </trkpt>
      <trkpt lat="46.75862" lon="5.63301">
        <ele>385.79998779297</ele>
        <time>2020-09-12T08:27:31.000Z</time>
      </trkpt>
      <trkpt lat="46.75859" lon="5.63299">
        <ele>386.20001220703</ele>
        <time>2020-09-12T08:27:32.000Z</time>
      </trkpt>
      <trkpt lat="46.75853" lon="5.63292">
        <ele>386.39999389648</ele>
        <time>2020-09-12T08:27:34.000Z</time>
      </trkpt>
      <trkpt lat="46.75849" lon="5.63289">
        <ele>386.60000610352</ele>
        <time>2020-09-12T08:27:35.000Z</time>
      </trkpt>
      <trkpt lat="46.75845" lon="5.63285">
        <ele>386.79998779297</ele>
        <time>2020-09-12T08:27:36.000Z</time>
      </trkpt>
      <trkpt lat="46.75838" lon="5.63278">
        <ele>387.39999389648</ele>
        <time>2020-09-12T08:27:38.000Z</time>
      </trkpt>
      <trkpt lat="46.75831" lon="5.63271">
        <ele>387.79998779297</ele>
        <time>2020-09-12T08:27:40.000Z</time>
      </trkpt>
      <trkpt lat="46.75824" lon="5.63265">
        <ele>388.60000610352</ele>
        <time>2020-09-12T08:27:42.000Z</time>
      </trkpt>
      <trkpt lat="46.75817" lon="5.6326">
        <ele>388.79998779297</ele>
        <time>2020-09-12T08:27:44.000Z</time>
      </trkpt>
      <trkpt lat="46.75813" lon="5.63257">
        <ele>388.79998779297</ele>
        <time>2020-09-12T08:27:45.000Z</time>
      </trkpt>
      <trkpt lat="46.7581" lon="5.63255">
        <ele>389.20001220703</ele>
        <time>2020-09-12T08:27:46.000Z</time>
      </trkpt>
      <trkpt lat="46.75803" lon="5.6325">
        <ele>389.79998779297</ele>
        <time>2020-09-12T08:27:48.000Z</time>
      </trkpt>
      <trkpt lat="46.758" lon="5.63248">
        <ele>390</ele>
        <time>2020-09-12T08:27:49.000Z</time>
      </trkpt>
      <trkpt lat="46.75796" lon="5.63246">
        <ele>390.20001220703</ele>
        <time>2020-09-12T08:27:50.000Z</time>
      </trkpt>
      <trkpt lat="46.7579" lon="5.63243">
        <ele>390.79998779297</ele>
        <time>2020-09-12T08:27:52.000Z</time>
      </trkpt>
      <trkpt lat="46.75787" lon="5.63241">
        <ele>391</ele>
        <time>2020-09-12T08:27:53.000Z</time>
      </trkpt>
      <trkpt lat="46.75784" lon="5.63239">
        <ele>391.20001220703</ele>
        <time>2020-09-12T08:27:54.000Z</time>
      </trkpt>
      <trkpt lat="46.75778" lon="5.63236">
        <ele>391.60000610352</ele>
        <time>2020-09-12T08:27:56.000Z</time>
      </trkpt>
      <trkpt lat="46.75772" lon="5.63233">
        <ele>392</ele>
        <time>2020-09-12T08:27:58.000Z</time>
      </trkpt>
      <trkpt lat="46.75766" lon="5.63228">
        <ele>392.39999389648</ele>
        <time>2020-09-12T08:28:00.000Z</time>
      </trkpt>
      <trkpt lat="46.75763" lon="5.63226">
        <ele>392.60000610352</ele>
        <time>2020-09-12T08:28:01.000Z</time>
      </trkpt>
      <trkpt lat="46.75759" lon="5.63223">
        <ele>392.79998779297</ele>
        <time>2020-09-12T08:28:02.000Z</time>
      </trkpt>
      <trkpt lat="46.75754" lon="5.63218">
        <ele>393.20001220703</ele>
        <time>2020-09-12T08:28:04.000Z</time>
      </trkpt>
      <trkpt lat="46.7575" lon="5.63212">
        <ele>393.79998779297</ele>
        <time>2020-09-12T08:28:06.000Z</time>
      </trkpt>
      <trkpt lat="46.75746" lon="5.63205">
        <ele>394.39999389648</ele>
        <time>2020-09-12T08:28:08.000Z</time>
      </trkpt>
      <trkpt lat="46.75742" lon="5.63199">
        <ele>394.79998779297</ele>
        <time>2020-09-12T08:28:10.000Z</time>
      </trkpt>
      <trkpt lat="46.7574" lon="5.63196">
        <ele>395.39999389648</ele>
        <time>2020-09-12T08:28:11.000Z</time>
      </trkpt>
      <trkpt lat="46.75738" lon="5.63193">
        <ele>395.60000610352</ele>
        <time>2020-09-12T08:28:12.000Z</time>
      </trkpt>
      <trkpt lat="46.75735" lon="5.63187">
        <ele>395.79998779297</ele>
        <time>2020-09-12T08:28:14.000Z</time>
      </trkpt>
      <trkpt lat="46.75731" lon="5.63179">
        <ele>396.39999389648</ele>
        <time>2020-09-12T08:28:16.000Z</time>
      </trkpt>
      <trkpt lat="46.75729" lon="5.63176">
        <ele>396.60000610352</ele>
        <time>2020-09-12T08:28:17.000Z</time>
      </trkpt>
      <trkpt lat="46.75727" lon="5.63172">
        <ele>397</ele>
        <time>2020-09-12T08:28:18.000Z</time>
      </trkpt>
      <trkpt lat="46.75723" lon="5.63165">
        <ele>397.39999389648</ele>
        <time>2020-09-12T08:28:20.000Z</time>
      </trkpt>
      <trkpt lat="46.75721" lon="5.63161">
        <ele>397.79998779297</ele>
        <time>2020-09-12T08:28:21.000Z</time>
      </trkpt>
      <trkpt lat="46.75719" lon="5.63157">
        <ele>398.20001220703</ele>
        <time>2020-09-12T08:28:22.000Z</time>
      </trkpt>
      <trkpt lat="46.75717" lon="5.63152">
        <ele>398.60000610352</ele>
        <time>2020-09-12T08:28:23.000Z</time>
      </trkpt>
      <trkpt lat="46.75716" lon="5.63149">
        <ele>398.79998779297</ele>
        <time>2020-09-12T08:28:24.000Z</time>
      </trkpt>
      <trkpt lat="46.75715" lon="5.63145">
        <ele>399</ele>
        <time>2020-09-12T08:28:25.000Z</time>
      </trkpt>
      <trkpt lat="46.75713" lon="5.63141">
        <ele>399</ele>
        <time>2020-09-12T08:28:26.000Z</time>
      </trkpt>
      <trkpt lat="46.75712" lon="5.63136">
        <ele>399.39999389648</ele>
        <time>2020-09-12T08:28:27.000Z</time>
      </trkpt>
      <trkpt lat="46.75711" lon="5.63132">
        <ele>399.60000610352</ele>
        <time>2020-09-12T08:28:28.000Z</time>
      </trkpt>
      <trkpt lat="46.75709" lon="5.63125">
        <ele>399.79998779297</ele>
        <time>2020-09-12T08:28:30.000Z</time>
      </trkpt>
      <trkpt lat="46.75707" lon="5.63121">
        <ele>400</ele>
        <time>2020-09-12T08:28:31.000Z</time>
      </trkpt>
      <trkpt lat="46.75705" lon="5.63115">
        <ele>400.20001220703</ele>
        <time>2020-09-12T08:28:32.000Z</time>
      </trkpt>
      <trkpt lat="46.75703" lon="5.63109">
        <ele>400.39999389648</ele>
        <time>2020-09-12T08:28:33.000Z</time>
      </trkpt>
      <trkpt lat="46.75701" lon="5.63104">
        <ele>400.60000610352</ele>
        <time>2020-09-12T08:28:34.000Z</time>
      </trkpt>
      <trkpt lat="46.75697" lon="5.63092">
        <ele>401.20001220703</ele>
        <time>2020-09-12T08:28:36.000Z</time>
      </trkpt>
      <trkpt lat="46.75694" lon="5.63081">
        <ele>401.39999389648</ele>
        <time>2020-09-12T08:28:38.000Z</time>
      </trkpt>
      <trkpt lat="46.75689" lon="5.63068">
        <ele>402.20001220703</ele>
        <time>2020-09-12T08:28:40.000Z</time>
      </trkpt>
      <trkpt lat="46.75684" lon="5.63054">
        <ele>402.60000610352</ele>
        <time>2020-09-12T08:28:42.000Z</time>
      </trkpt>
      <trkpt lat="46.7568" lon="5.63042">
        <ele>402.79998779297</ele>
        <time>2020-09-12T08:28:44.000Z</time>
      </trkpt>
      <trkpt lat="46.75675" lon="5.63031">
        <ele>402.79998779297</ele>
        <time>2020-09-12T08:28:46.000Z</time>
      </trkpt>
      <trkpt lat="46.75673" lon="5.63025">
        <ele>402.79998779297</ele>
        <time>2020-09-12T08:28:47.000Z</time>
      </trkpt>
      <trkpt lat="46.75671" lon="5.6302">
        <ele>402.79998779297</ele>
        <time>2020-09-12T08:28:48.000Z</time>
      </trkpt>
      <trkpt lat="46.75666" lon="5.6301">
        <ele>403</ele>
        <time>2020-09-12T08:28:50.000Z</time>
      </trkpt>
      <trkpt lat="46.75661" lon="5.63001">
        <ele>403.39999389648</ele>
        <time>2020-09-12T08:28:52.000Z</time>
      </trkpt>
      <trkpt lat="46.75658" lon="5.62997">
        <ele>403.60000610352</ele>
        <time>2020-09-12T08:28:53.000Z</time>
      </trkpt>
      <trkpt lat="46.75655" lon="5.62992">
        <ele>403.79998779297</ele>
        <time>2020-09-12T08:28:54.000Z</time>
      </trkpt>
      <trkpt lat="46.7565" lon="5.62984">
        <ele>404.39999389648</ele>
        <time>2020-09-12T08:28:56.000Z</time>
      </trkpt>
      <trkpt lat="46.75645" lon="5.62976">
        <ele>405</ele>
        <time>2020-09-12T08:28:58.000Z</time>
      </trkpt>
      <trkpt lat="46.7564" lon="5.62968">
        <ele>405.20001220703</ele>
        <time>2020-09-12T08:29:00.000Z</time>
      </trkpt>
      <trkpt lat="46.75637" lon="5.62964">
        <ele>405.60000610352</ele>
        <time>2020-09-12T08:29:01.000Z</time>
      </trkpt>
      <trkpt lat="46.75634" lon="5.6296">
        <ele>405.79998779297</ele>
        <time>2020-09-12T08:29:02.000Z</time>
      </trkpt>
      <trkpt lat="46.7563" lon="5.62953">
        <ele>406</ele>
        <time>2020-09-12T08:29:04.000Z</time>
      </trkpt>
      <trkpt lat="46.75626" lon="5.62945">
        <ele>406.39999389648</ele>
        <time>2020-09-12T08:29:06.000Z</time>
      </trkpt>
      <trkpt lat="46.75624" lon="5.62941">
        <ele>406.60000610352</ele>
        <time>2020-09-12T08:29:07.000Z</time>
      </trkpt>
      <trkpt lat="46.75622" lon="5.62938">
        <ele>406.79998779297</ele>
        <time>2020-09-12T08:29:08.000Z</time>
      </trkpt>
      <trkpt lat="46.75618" lon="5.62929">
        <ele>407.39999389648</ele>
        <time>2020-09-12T08:29:10.000Z</time>
      </trkpt>
      <trkpt lat="46.75614" lon="5.62917">
        <ele>407.60000610352</ele>
        <time>2020-09-12T08:29:12.000Z</time>
      </trkpt>
      <trkpt lat="46.75609" lon="5.62903">
        <ele>408</ele>
        <time>2020-09-12T08:29:14.000Z</time>
      </trkpt>
      <trkpt lat="46.75606" lon="5.62891">
        <ele>408.60000610352</ele>
        <time>2020-09-12T08:29:16.000Z</time>
      </trkpt>
      <trkpt lat="46.75605" lon="5.62885">
        <ele>408.60000610352</ele>
        <time>2020-09-12T08:29:17.000Z</time>
      </trkpt>
      <trkpt lat="46.75603" lon="5.62879">
        <ele>408.79998779297</ele>
        <time>2020-09-12T08:29:18.000Z</time>
      </trkpt>
      <trkpt lat="46.756" lon="5.62868">
        <ele>409.20001220703</ele>
        <time>2020-09-12T08:29:20.000Z</time>
      </trkpt>
      <trkpt lat="46.75597" lon="5.62862">
        <ele>409.39999389648</ele>
        <time>2020-09-12T08:29:21.000Z</time>
      </trkpt>
      <trkpt lat="46.75596" lon="5.62857">
        <ele>409.60000610352</ele>
        <time>2020-09-12T08:29:22.000Z</time>
      </trkpt>
      <trkpt lat="46.75594" lon="5.62851">
        <ele>409.79998779297</ele>
        <time>2020-09-12T08:29:23.000Z</time>
      </trkpt>
      <trkpt lat="46.75592" lon="5.62845">
        <ele>410</ele>
        <time>2020-09-12T08:29:24.000Z</time>
      </trkpt>
      <trkpt lat="46.75589" lon="5.62834">
        <ele>410.60000610352</ele>
        <time>2020-09-12T08:29:26.000Z</time>
      </trkpt>
      <trkpt lat="46.75587" lon="5.62823">
        <ele>411.20001220703</ele>
        <time>2020-09-12T08:29:28.000Z</time>
      </trkpt>
      <trkpt lat="46.75585" lon="5.62811">
        <ele>411.60000610352</ele>
        <time>2020-09-12T08:29:30.000Z</time>
      </trkpt>
      <trkpt lat="46.75585" lon="5.62805">
        <ele>412</ele>
        <time>2020-09-12T08:29:31.000Z</time>
      </trkpt>
      <trkpt lat="46.75585" lon="5.62798">
        <ele>412.39999389648</ele>
        <time>2020-09-12T08:29:32.000Z</time>
      </trkpt>
      <trkpt lat="46.75586" lon="5.62786">
        <ele>412.79998779297</ele>
        <time>2020-09-12T08:29:34.000Z</time>
      </trkpt>
      <trkpt lat="46.75587" lon="5.6278">
        <ele>413</ele>
        <time>2020-09-12T08:29:35.000Z</time>
      </trkpt>
      <trkpt lat="46.75588" lon="5.62774">
        <ele>413.20001220703</ele>
        <time>2020-09-12T08:29:36.000Z</time>
      </trkpt>
      <trkpt lat="46.75589" lon="5.62769">
        <ele>413.39999389648</ele>
        <time>2020-09-12T08:29:37.000Z</time>
      </trkpt>
      <trkpt lat="46.7559" lon="5.62763">
        <ele>413.60000610352</ele>
        <time>2020-09-12T08:29:38.000Z</time>
      </trkpt>
      <trkpt lat="46.75593" lon="5.62752">
        <ele>414.20001220703</ele>
        <time>2020-09-12T08:29:40.000Z</time>
      </trkpt>
      <trkpt lat="46.75596" lon="5.62742">
        <ele>414.60000610352</ele>
        <time>2020-09-12T08:29:42.000Z</time>
      </trkpt>
      <trkpt lat="46.75598" lon="5.62733">
        <ele>415.20001220703</ele>
        <time>2020-09-12T08:29:44.000Z</time>
      </trkpt>
      <trkpt lat="46.756" lon="5.62729">
        <ele>415.39999389648</ele>
        <time>2020-09-12T08:29:45.000Z</time>
      </trkpt>
      <trkpt lat="46.75602" lon="5.62725">
        <ele>415.79998779297</ele>
        <time>2020-09-12T08:29:46.000Z</time>
      </trkpt>
      <trkpt lat="46.75606" lon="5.62717">
        <ele>416.20001220703</ele>
        <time>2020-09-12T08:29:48.000Z</time>
      </trkpt>
      <trkpt lat="46.75609" lon="5.62714">
        <ele>416.39999389648</ele>
        <time>2020-09-12T08:29:49.000Z</time>
      </trkpt>
      <trkpt lat="46.75612" lon="5.62711">
        <ele>416.79998779297</ele>
        <time>2020-09-12T08:29:50.000Z</time>
      </trkpt>
      <trkpt lat="46.75617" lon="5.62707">
        <ele>417.39999389648</ele>
        <time>2020-09-12T08:29:52.000Z</time>
      </trkpt>
      <trkpt lat="46.75619" lon="5.62706">
        <ele>417.60000610352</ele>
        <time>2020-09-12T08:29:53.000Z</time>
      </trkpt>
      <trkpt lat="46.75622" lon="5.62705">
        <ele>417.79998779297</ele>
        <time>2020-09-12T08:29:54.000Z</time>
      </trkpt>
      <trkpt lat="46.75624" lon="5.62703">
        <ele>418</ele>
        <time>2020-09-12T08:29:55.000Z</time>
      </trkpt>
      <trkpt lat="46.75627" lon="5.62703">
        <ele>418.20001220703</ele>
        <time>2020-09-12T08:29:56.000Z</time>
      </trkpt>
      <trkpt lat="46.75634" lon="5.62703">
        <ele>418.60000610352</ele>
        <time>2020-09-12T08:29:58.000Z</time>
      </trkpt>
      <trkpt lat="46.75641" lon="5.62703">
        <ele>419</ele>
        <time>2020-09-12T08:30:00.000Z</time>
      </trkpt>
      <trkpt lat="46.75647" lon="5.62705">
        <ele>419.20001220703</ele>
        <time>2020-09-12T08:30:02.000Z</time>
      </trkpt>
      <trkpt lat="46.75654" lon="5.62706">
        <ele>419.60000610352</ele>
        <time>2020-09-12T08:30:04.000Z</time>
      </trkpt>
      <trkpt lat="46.7566" lon="5.62707">
        <ele>420</ele>
        <time>2020-09-12T08:30:06.000Z</time>
      </trkpt>
      <trkpt lat="46.75664" lon="5.62707">
        <ele>420.20001220703</ele>
        <time>2020-09-12T08:30:07.000Z</time>
      </trkpt>
      <trkpt lat="46.75667" lon="5.62708">
        <ele>420.39999389648</ele>
        <time>2020-09-12T08:30:08.000Z</time>
      </trkpt>
      <trkpt lat="46.7567" lon="5.62709">
        <ele>421</ele>
        <time>2020-09-12T08:30:09.000Z</time>
      </trkpt>
      <trkpt lat="46.75674" lon="5.62709">
        <ele>421.20001220703</ele>
        <time>2020-09-12T08:30:10.000Z</time>
      </trkpt>
      <trkpt lat="46.75681" lon="5.6271">
        <ele>421.60000610352</ele>
        <time>2020-09-12T08:30:12.000Z</time>
      </trkpt>
      <trkpt lat="46.75688" lon="5.62711">
        <ele>422</ele>
        <time>2020-09-12T08:30:14.000Z</time>
      </trkpt>
      <trkpt lat="46.75691" lon="5.62711">
        <ele>422</ele>
        <time>2020-09-12T08:30:15.000Z</time>
      </trkpt>
      <trkpt lat="46.75695" lon="5.62711">
        <ele>422.20001220703</ele>
        <time>2020-09-12T08:30:16.000Z</time>
      </trkpt>
      <trkpt lat="46.75702" lon="5.62711">
        <ele>422.60000610352</ele>
        <time>2020-09-12T08:30:18.000Z</time>
      </trkpt>
      <trkpt lat="46.75709" lon="5.62709">
        <ele>423</ele>
        <time>2020-09-12T08:30:20.000Z</time>
      </trkpt>
      <trkpt lat="46.75716" lon="5.62707">
        <ele>423.20001220703</ele>
        <time>2020-09-12T08:30:22.000Z</time>
      </trkpt>
      <trkpt lat="46.75722" lon="5.62703">
        <ele>423.39999389648</ele>
        <time>2020-09-12T08:30:24.000Z</time>
      </trkpt>
      <trkpt lat="46.75727" lon="5.62697">
        <ele>423.79998779297</ele>
        <time>2020-09-12T08:30:26.000Z</time>
      </trkpt>
      <trkpt lat="46.75728" lon="5.62692">
        <ele>424</ele>
        <time>2020-09-12T08:30:27.000Z</time>
      </trkpt>
      <trkpt lat="46.75727" lon="5.62687">
        <ele>424.20001220703</ele>
        <time>2020-09-12T08:30:28.000Z</time>
      </trkpt>
      <trkpt lat="46.75723" lon="5.62678">
        <ele>425</ele>
        <time>2020-09-12T08:30:30.000Z</time>
      </trkpt>
      <trkpt lat="46.75715" lon="5.62674">
        <ele>425.39999389648</ele>
        <time>2020-09-12T08:30:32.000Z</time>
      </trkpt>
      <trkpt lat="46.75707" lon="5.62671">
        <ele>425.79998779297</ele>
        <time>2020-09-12T08:30:34.000Z</time>
      </trkpt>
      <trkpt lat="46.757" lon="5.62667">
        <ele>426.20001220703</ele>
        <time>2020-09-12T08:30:36.000Z</time>
      </trkpt>
      <trkpt lat="46.75696" lon="5.62665">
        <ele>426.60000610352</ele>
        <time>2020-09-12T08:30:37.000Z</time>
      </trkpt>
      <trkpt lat="46.75692" lon="5.62662">
        <ele>426.79998779297</ele>
        <time>2020-09-12T08:30:38.000Z</time>
      </trkpt>
      <trkpt lat="46.75686" lon="5.62655">
        <ele>427</ele>
        <time>2020-09-12T08:30:40.000Z</time>
      </trkpt>
      <trkpt lat="46.75679" lon="5.62648">
        <ele>427.39999389648</ele>
        <time>2020-09-12T08:30:42.000Z</time>
      </trkpt>
      <trkpt lat="46.75676" lon="5.62645">
        <ele>427.60000610352</ele>
        <time>2020-09-12T08:30:43.000Z</time>
      </trkpt>
      <trkpt lat="46.75672" lon="5.62641">
        <ele>427.79998779297</ele>
        <time>2020-09-12T08:30:44.000Z</time>
      </trkpt>
      <trkpt lat="46.75666" lon="5.62635">
        <ele>428</ele>
        <time>2020-09-12T08:30:46.000Z</time>
      </trkpt>
      <trkpt lat="46.75659" lon="5.62628">
        <ele>428.39999389648</ele>
        <time>2020-09-12T08:30:48.000Z</time>
      </trkpt>
      <trkpt lat="46.75655" lon="5.62624">
        <ele>428.60000610352</ele>
        <time>2020-09-12T08:30:49.000Z</time>
      </trkpt>
      <trkpt lat="46.75652" lon="5.62621">
        <ele>428.79998779297</ele>
        <time>2020-09-12T08:30:50.000Z</time>
      </trkpt>
      <trkpt lat="46.75645" lon="5.62613">
        <ele>429.20001220703</ele>
        <time>2020-09-12T08:30:52.000Z</time>
      </trkpt>
      <trkpt lat="46.75638" lon="5.62605">
        <ele>429.60000610352</ele>
        <time>2020-09-12T08:30:54.000Z</time>
      </trkpt>
      <trkpt lat="46.7563" lon="5.62597">
        <ele>430.20001220703</ele>
        <time>2020-09-12T08:30:56.000Z</time>
      </trkpt>
      <trkpt lat="46.75623" lon="5.62589">
        <ele>430.60000610352</ele>
        <time>2020-09-12T08:30:58.000Z</time>
      </trkpt>
      <trkpt lat="46.75619" lon="5.62586">
        <ele>430.79998779297</ele>
        <time>2020-09-12T08:30:59.000Z</time>
      </trkpt>
      <trkpt lat="46.75615" lon="5.62581">
        <ele>431</ele>
        <time>2020-09-12T08:31:00.000Z</time>
      </trkpt>
      <trkpt lat="46.75606" lon="5.62573">
        <ele>431</ele>
        <time>2020-09-12T08:31:02.000Z</time>
      </trkpt>
      <trkpt lat="46.75601" lon="5.62569">
        <ele>431.20001220703</ele>
        <time>2020-09-12T08:31:03.000Z</time>
      </trkpt>
      <trkpt lat="46.75596" lon="5.62566">
        <ele>431.20001220703</ele>
        <time>2020-09-12T08:31:04.000Z</time>
      </trkpt>
      <trkpt lat="46.75584" lon="5.62563">
        <ele>431.20001220703</ele>
        <time>2020-09-12T08:31:06.000Z</time>
      </trkpt>
      <trkpt lat="46.75579" lon="5.62564">
        <ele>431.20001220703</ele>
        <time>2020-09-12T08:31:07.000Z</time>
      </trkpt>
      <trkpt lat="46.75573" lon="5.62565">
        <ele>431.20001220703</ele>
        <time>2020-09-12T08:31:08.000Z</time>
      </trkpt>
      <trkpt lat="46.75562" lon="5.62569">
        <ele>431.20001220703</ele>
        <time>2020-09-12T08:31:10.000Z</time>
      </trkpt>
      <trkpt lat="46.75551" lon="5.62572">
        <ele>431.20001220703</ele>
        <time>2020-09-12T08:31:12.000Z</time>
      </trkpt>
      <trkpt lat="46.75546" lon="5.62573">
        <ele>431.20001220703</ele>
        <time>2020-09-12T08:31:13.000Z</time>
      </trkpt>
      <trkpt lat="46.75541" lon="5.62574">
        <ele>431.20001220703</ele>
        <time>2020-09-12T08:31:14.000Z</time>
      </trkpt>
      <trkpt lat="46.75531" lon="5.62578">
        <ele>431.20001220703</ele>
        <time>2020-09-12T08:31:16.000Z</time>
      </trkpt>
      <trkpt lat="46.75521" lon="5.62582">
        <ele>431.20001220703</ele>
        <time>2020-09-12T08:31:18.000Z</time>
      </trkpt>
      <trkpt lat="46.75517" lon="5.62584">
        <ele>431.20001220703</ele>
        <time>2020-09-12T08:31:19.000Z</time>
      </trkpt>
      <trkpt lat="46.75512" lon="5.62586">
        <ele>431.20001220703</ele>
        <time>2020-09-12T08:31:20.000Z</time>
      </trkpt>
      <trkpt lat="46.75508" lon="5.62589">
        <ele>431.39999389648</ele>
        <time>2020-09-12T08:31:21.000Z</time>
      </trkpt>
      <trkpt lat="46.75504" lon="5.62591">
        <ele>431.79998779297</ele>
        <time>2020-09-12T08:31:22.000Z</time>
      </trkpt>
      <trkpt lat="46.755" lon="5.62594">
        <ele>432</ele>
        <time>2020-09-12T08:31:23.000Z</time>
      </trkpt>
      <trkpt lat="46.75496" lon="5.62597">
        <ele>432.20001220703</ele>
        <time>2020-09-12T08:31:24.000Z</time>
      </trkpt>
      <trkpt lat="46.75492" lon="5.626">
        <ele>432.39999389648</ele>
        <time>2020-09-12T08:31:25.000Z</time>
      </trkpt>
      <trkpt lat="46.75488" lon="5.62604">
        <ele>432.79998779297</ele>
        <time>2020-09-12T08:31:26.000Z</time>
      </trkpt>
      <trkpt lat="46.75485" lon="5.62608">
        <ele>433.20001220703</ele>
        <time>2020-09-12T08:31:27.000Z</time>
      </trkpt>
      <trkpt lat="46.75481" lon="5.62612">
        <ele>433.60000610352</ele>
        <time>2020-09-12T08:31:28.000Z</time>
      </trkpt>
      <trkpt lat="46.75478" lon="5.62616">
        <ele>433.79998779297</ele>
        <time>2020-09-12T08:31:29.000Z</time>
      </trkpt>
      <trkpt lat="46.75474" lon="5.62619">
        <ele>434.20001220703</ele>
        <time>2020-09-12T08:31:30.000Z</time>
      </trkpt>
      <trkpt lat="46.75466" lon="5.62626">
        <ele>435</ele>
        <time>2020-09-12T08:31:32.000Z</time>
      </trkpt>
      <trkpt lat="46.75462" lon="5.6263">
        <ele>435.39999389648</ele>
        <time>2020-09-12T08:31:33.000Z</time>
      </trkpt>
      <trkpt lat="46.75458" lon="5.62633">
        <ele>435.60000610352</ele>
        <time>2020-09-12T08:31:34.000Z</time>
      </trkpt>
      <trkpt lat="46.75454" lon="5.62636">
        <ele>436</ele>
        <time>2020-09-12T08:31:35.000Z</time>
      </trkpt>
      <trkpt lat="46.75449" lon="5.62639">
        <ele>436.20001220703</ele>
        <time>2020-09-12T08:31:36.000Z</time>
      </trkpt>
      <trkpt lat="46.75445" lon="5.62643">
        <ele>436.60000610352</ele>
        <time>2020-09-12T08:31:37.000Z</time>
      </trkpt>
      <trkpt lat="46.75441" lon="5.62646">
        <ele>436.79998779297</ele>
        <time>2020-09-12T08:31:38.000Z</time>
      </trkpt>
      <trkpt lat="46.75433" lon="5.62653">
        <ele>437.39999389648</ele>
        <time>2020-09-12T08:31:40.000Z</time>
      </trkpt>
      <trkpt lat="46.75425" lon="5.62659">
        <ele>438</ele>
        <time>2020-09-12T08:31:42.000Z</time>
      </trkpt>
      <trkpt lat="46.75418" lon="5.62665">
        <ele>438.39999389648</ele>
        <time>2020-09-12T08:31:44.000Z</time>
      </trkpt>
      <trkpt lat="46.75414" lon="5.62668">
        <ele>438.60000610352</ele>
        <time>2020-09-12T08:31:45.000Z</time>
      </trkpt>
      <trkpt lat="46.7541" lon="5.6267">
        <ele>439</ele>
        <time>2020-09-12T08:31:46.000Z</time>
      </trkpt>
      <trkpt lat="46.75403" lon="5.62675">
        <ele>439.60000610352</ele>
        <time>2020-09-12T08:31:48.000Z</time>
      </trkpt>
      <trkpt lat="46.75396" lon="5.62681">
        <ele>440.20001220703</ele>
        <time>2020-09-12T08:31:50.000Z</time>
      </trkpt>
      <trkpt lat="46.75393" lon="5.62684">
        <ele>440.39999389648</ele>
        <time>2020-09-12T08:31:51.000Z</time>
      </trkpt>
      <trkpt lat="46.75389" lon="5.62687">
        <ele>440.60000610352</ele>
        <time>2020-09-12T08:31:52.000Z</time>
      </trkpt>
      <trkpt lat="46.75384" lon="5.62694">
        <ele>441.20001220703</ele>
        <time>2020-09-12T08:31:54.000Z</time>
      </trkpt>
      <trkpt lat="46.75378" lon="5.62702">
        <ele>441.79998779297</ele>
        <time>2020-09-12T08:31:56.000Z</time>
      </trkpt>
      <trkpt lat="46.75373" lon="5.62711">
        <ele>442.60000610352</ele>
        <time>2020-09-12T08:31:58.000Z</time>
      </trkpt>
      <trkpt lat="46.7537" lon="5.62722">
        <ele>443.20001220703</ele>
        <time>2020-09-12T08:32:00.000Z</time>
      </trkpt>
      <trkpt lat="46.75369" lon="5.62728">
        <ele>443.39999389648</ele>
        <time>2020-09-12T08:32:01.000Z</time>
      </trkpt>
      <trkpt lat="46.75368" lon="5.62734">
        <ele>443.60000610352</ele>
        <time>2020-09-12T08:32:02.000Z</time>
      </trkpt>
      <trkpt lat="46.75367" lon="5.62746">
        <ele>444.39999389648</ele>
        <time>2020-09-12T08:32:04.000Z</time>
      </trkpt>
      <trkpt lat="46.75368" lon="5.6276">
        <ele>444.79998779297</ele>
        <time>2020-09-12T08:32:06.000Z</time>
      </trkpt>
      <trkpt lat="46.75369" lon="5.62766">
        <ele>445</ele>
        <time>2020-09-12T08:32:07.000Z</time>
      </trkpt>
      <trkpt lat="46.75371" lon="5.62773">
        <ele>445.20001220703</ele>
        <time>2020-09-12T08:32:08.000Z</time>
      </trkpt>
      <trkpt lat="46.75374" lon="5.62786">
        <ele>445.20001220703</ele>
        <time>2020-09-12T08:32:10.000Z</time>
      </trkpt>
      <trkpt lat="46.75379" lon="5.62798">
        <ele>445.39999389648</ele>
        <time>2020-09-12T08:32:12.000Z</time>
      </trkpt>
      <trkpt lat="46.75383" lon="5.62811">
        <ele>445.60000610352</ele>
        <time>2020-09-12T08:32:14.000Z</time>
      </trkpt>
      <trkpt lat="46.75387" lon="5.62825">
        <ele>445.60000610352</ele>
        <time>2020-09-12T08:32:16.000Z</time>
      </trkpt>
      <trkpt lat="46.7539" lon="5.62839">
        <ele>445.79998779297</ele>
        <time>2020-09-12T08:32:18.000Z</time>
      </trkpt>
      <trkpt lat="46.75393" lon="5.62846">
        <ele>445.79998779297</ele>
        <time>2020-09-12T08:32:19.000Z</time>
      </trkpt>
      <trkpt lat="46.75396" lon="5.62853">
        <ele>446</ele>
        <time>2020-09-12T08:32:20.000Z</time>
      </trkpt>
      <trkpt lat="46.75401" lon="5.62867">
        <ele>446.20001220703</ele>
        <time>2020-09-12T08:32:22.000Z</time>
      </trkpt>
      <trkpt lat="46.75405" lon="5.62883">
        <ele>446.20001220703</ele>
        <time>2020-09-12T08:32:24.000Z</time>
      </trkpt>
      <trkpt lat="46.75407" lon="5.62891">
        <ele>446.39999389648</ele>
        <time>2020-09-12T08:32:25.000Z</time>
      </trkpt>
      <trkpt lat="46.75408" lon="5.62899">
        <ele>446.39999389648</ele>
        <time>2020-09-12T08:32:26.000Z</time>
      </trkpt>
      <trkpt lat="46.75411" lon="5.62917">
        <ele>446.39999389648</ele>
        <time>2020-09-12T08:32:28.000Z</time>
      </trkpt>
      <trkpt lat="46.75414" lon="5.62935">
        <ele>446.39999389648</ele>
        <time>2020-09-12T08:32:30.000Z</time>
      </trkpt>
      <trkpt lat="46.75417" lon="5.62954">
        <ele>446.39999389648</ele>
        <time>2020-09-12T08:32:32.000Z</time>
      </trkpt>
      <trkpt lat="46.75421" lon="5.62972">
        <ele>446.20001220703</ele>
        <time>2020-09-12T08:32:34.000Z</time>
      </trkpt>
      <trkpt lat="46.75426" lon="5.62989">
        <ele>445.79998779297</ele>
        <time>2020-09-12T08:32:36.000Z</time>
      </trkpt>
      <trkpt lat="46.75431" lon="5.63007">
        <ele>445.20001220703</ele>
        <time>2020-09-12T08:32:38.000Z</time>
      </trkpt>
      <trkpt lat="46.75434" lon="5.63015">
        <ele>444.79998779297</ele>
        <time>2020-09-12T08:32:39.000Z</time>
      </trkpt>
      <trkpt lat="46.75438" lon="5.63023">
        <ele>444.60000610352</ele>
        <time>2020-09-12T08:32:40.000Z</time>
      </trkpt>
      <trkpt lat="46.75445" lon="5.63039">
        <ele>444.39999389648</ele>
        <time>2020-09-12T08:32:42.000Z</time>
      </trkpt>
      <trkpt lat="46.75453" lon="5.63055">
        <ele>444.20001220703</ele>
        <time>2020-09-12T08:32:44.000Z</time>
      </trkpt>
      <trkpt lat="46.75457" lon="5.63062">
        <ele>444.20001220703</ele>
        <time>2020-09-12T08:32:45.000Z</time>
      </trkpt>
      <trkpt lat="46.75461" lon="5.63069">
        <ele>444.20001220703</ele>
        <time>2020-09-12T08:32:46.000Z</time>
      </trkpt>
      <trkpt lat="46.75468" lon="5.63083">
        <ele>444.20001220703</ele>
        <time>2020-09-12T08:32:48.000Z</time>
      </trkpt>
      <trkpt lat="46.75475" lon="5.63097">
        <ele>444.20001220703</ele>
        <time>2020-09-12T08:32:50.000Z</time>
      </trkpt>
      <trkpt lat="46.75481" lon="5.63111">
        <ele>444.39999389648</ele>
        <time>2020-09-12T08:32:52.000Z</time>
      </trkpt>
      <trkpt lat="46.75486" lon="5.63124">
        <ele>444.60000610352</ele>
        <time>2020-09-12T08:32:54.000Z</time>
      </trkpt>
      <trkpt lat="46.7549" lon="5.63139">
        <ele>445</ele>
        <time>2020-09-12T08:32:56.000Z</time>
      </trkpt>
      <trkpt lat="46.75493" lon="5.63153">
        <ele>445.60000610352</ele>
        <time>2020-09-12T08:32:58.000Z</time>
      </trkpt>
      <trkpt lat="46.75497" lon="5.63167">
        <ele>446</ele>
        <time>2020-09-12T08:33:00.000Z</time>
      </trkpt>
      <trkpt lat="46.755" lon="5.63181">
        <ele>446.60000610352</ele>
        <time>2020-09-12T08:33:02.000Z</time>
      </trkpt>
      <trkpt lat="46.75502" lon="5.63188">
        <ele>447.39999389648</ele>
        <time>2020-09-12T08:33:03.000Z</time>
      </trkpt>
      <trkpt lat="46.75503" lon="5.63195">
        <ele>447.60000610352</ele>
        <time>2020-09-12T08:33:04.000Z</time>
      </trkpt>
      <trkpt lat="46.75506" lon="5.63209">
        <ele>448.20001220703</ele>
        <time>2020-09-12T08:33:06.000Z</time>
      </trkpt>
      <trkpt lat="46.7551" lon="5.63223">
        <ele>448.60000610352</ele>
        <time>2020-09-12T08:33:08.000Z</time>
      </trkpt>
      <trkpt lat="46.75513" lon="5.63237">
        <ele>449</ele>
        <time>2020-09-12T08:33:10.000Z</time>
      </trkpt>
      <trkpt lat="46.75516" lon="5.63253">
        <ele>449.39999389648</ele>
        <time>2020-09-12T08:33:12.000Z</time>
      </trkpt>
      <trkpt lat="46.75518" lon="5.63268">
        <ele>449.79998779297</ele>
        <time>2020-09-12T08:33:14.000Z</time>
      </trkpt>
      <trkpt lat="46.75519" lon="5.63276">
        <ele>450.20001220703</ele>
        <time>2020-09-12T08:33:15.000Z</time>
      </trkpt>
      <trkpt lat="46.75519" lon="5.63285">
        <ele>450.60000610352</ele>
        <time>2020-09-12T08:33:16.000Z</time>
      </trkpt>
      <trkpt lat="46.7552" lon="5.63301">
        <ele>450.79998779297</ele>
        <time>2020-09-12T08:33:18.000Z</time>
      </trkpt>
      <trkpt lat="46.75521" lon="5.63309">
        <ele>450.79998779297</ele>
        <time>2020-09-12T08:33:19.000Z</time>
      </trkpt>
      <trkpt lat="46.75521" lon="5.63317">
        <ele>451</ele>
        <time>2020-09-12T08:33:20.000Z</time>
      </trkpt>
      <trkpt lat="46.75521" lon="5.63333">
        <ele>451.20001220703</ele>
        <time>2020-09-12T08:33:22.000Z</time>
      </trkpt>
      <trkpt lat="46.75521" lon="5.63349">
        <ele>451.20001220703</ele>
        <time>2020-09-12T08:33:24.000Z</time>
      </trkpt>
      <trkpt lat="46.75521" lon="5.63357">
        <ele>451.20001220703</ele>
        <time>2020-09-12T08:33:25.000Z</time>
      </trkpt>
      <trkpt lat="46.75521" lon="5.63365">
        <ele>451.20001220703</ele>
        <time>2020-09-12T08:33:26.000Z</time>
      </trkpt>
      <trkpt lat="46.7552" lon="5.6338">
        <ele>451.39999389648</ele>
        <time>2020-09-12T08:33:28.000Z</time>
      </trkpt>
      <trkpt lat="46.75521" lon="5.63396">
        <ele>451.60000610352</ele>
        <time>2020-09-12T08:33:30.000Z</time>
      </trkpt>
      <trkpt lat="46.75521" lon="5.63412">
        <ele>452</ele>
        <time>2020-09-12T08:33:32.000Z</time>
      </trkpt>
      <trkpt lat="46.75522" lon="5.63429">
        <ele>452.39999389648</ele>
        <time>2020-09-12T08:33:34.000Z</time>
      </trkpt>
      <trkpt lat="46.75523" lon="5.63438">
        <ele>452.60000610352</ele>
        <time>2020-09-12T08:33:35.000Z</time>
      </trkpt>
      <trkpt lat="46.75524" lon="5.63446">
        <ele>452.60000610352</ele>
        <time>2020-09-12T08:33:36.000Z</time>
      </trkpt>
      <trkpt lat="46.75526" lon="5.63464">
        <ele>452.60000610352</ele>
        <time>2020-09-12T08:33:38.000Z</time>
      </trkpt>
      <trkpt lat="46.75528" lon="5.63482">
        <ele>452.60000610352</ele>
        <time>2020-09-12T08:33:40.000Z</time>
      </trkpt>
      <trkpt lat="46.7553" lon="5.63501">
        <ele>452.60000610352</ele>
        <time>2020-09-12T08:33:42.000Z</time>
      </trkpt>
      <trkpt lat="46.75531" lon="5.6351">
        <ele>452.60000610352</ele>
        <time>2020-09-12T08:33:43.000Z</time>
      </trkpt>
      <trkpt lat="46.75532" lon="5.63519">
        <ele>452.60000610352</ele>
        <time>2020-09-12T08:33:44.000Z</time>
      </trkpt>
      <trkpt lat="46.75534" lon="5.63538">
        <ele>452.60000610352</ele>
        <time>2020-09-12T08:33:46.000Z</time>
      </trkpt>
      <trkpt lat="46.75536" lon="5.63556">
        <ele>452.60000610352</ele>
        <time>2020-09-12T08:33:48.000Z</time>
      </trkpt>
      <trkpt lat="46.75538" lon="5.63575">
        <ele>452.39999389648</ele>
        <time>2020-09-12T08:33:50.000Z</time>
      </trkpt>
      <trkpt lat="46.75539" lon="5.63584">
        <ele>452.39999389648</ele>
        <time>2020-09-12T08:33:51.000Z</time>
      </trkpt>
      <trkpt lat="46.7554" lon="5.63593">
        <ele>452.20001220703</ele>
        <time>2020-09-12T08:33:52.000Z</time>
      </trkpt>
      <trkpt lat="46.75542" lon="5.63612">
        <ele>452.20001220703</ele>
        <time>2020-09-12T08:33:54.000Z</time>
      </trkpt>
      <trkpt lat="46.75544" lon="5.6363">
        <ele>452.20001220703</ele>
        <time>2020-09-12T08:33:56.000Z</time>
      </trkpt>
      <trkpt lat="46.75546" lon="5.63648">
        <ele>452.20001220703</ele>
        <time>2020-09-12T08:33:58.000Z</time>
      </trkpt>
      <trkpt lat="46.75548" lon="5.63666">
        <ele>452.20001220703</ele>
        <time>2020-09-12T08:34:00.000Z</time>
      </trkpt>
      <trkpt lat="46.75551" lon="5.63684">
        <ele>452.20001220703</ele>
        <time>2020-09-12T08:34:02.000Z</time>
      </trkpt>
      <trkpt lat="46.75554" lon="5.63701">
        <ele>452.20001220703</ele>
        <time>2020-09-12T08:34:04.000Z</time>
      </trkpt>
      <trkpt lat="46.75558" lon="5.63719">
        <ele>452.20001220703</ele>
        <time>2020-09-12T08:34:06.000Z</time>
      </trkpt>
      <trkpt lat="46.7556" lon="5.63728">
        <ele>452.39999389648</ele>
        <time>2020-09-12T08:34:07.000Z</time>
      </trkpt>
      <trkpt lat="46.75561" lon="5.63737">
        <ele>452.39999389648</ele>
        <time>2020-09-12T08:34:08.000Z</time>
      </trkpt>
      <trkpt lat="46.75565" lon="5.63755">
        <ele>452.39999389648</ele>
        <time>2020-09-12T08:34:10.000Z</time>
      </trkpt>
      <trkpt lat="46.75568" lon="5.63773">
        <ele>452.39999389648</ele>
        <time>2020-09-12T08:34:12.000Z</time>
      </trkpt>
      <trkpt lat="46.7557" lon="5.6379">
        <ele>452.39999389648</ele>
        <time>2020-09-12T08:34:14.000Z</time>
      </trkpt>
      <trkpt lat="46.75573" lon="5.63807">
        <ele>452.39999389648</ele>
        <time>2020-09-12T08:34:16.000Z</time>
      </trkpt>
      <trkpt lat="46.75574" lon="5.63815">
        <ele>452.39999389648</ele>
        <time>2020-09-12T08:34:17.000Z</time>
      </trkpt>
      <trkpt lat="46.75575" lon="5.63824">
        <ele>452.60000610352</ele>
        <time>2020-09-12T08:34:18.000Z</time>
      </trkpt>
      <trkpt lat="46.75577" lon="5.63839">
        <ele>452.39999389648</ele>
        <time>2020-09-12T08:34:20.000Z</time>
      </trkpt>
      <trkpt lat="46.7558" lon="5.63855">
        <ele>452.39999389648</ele>
        <time>2020-09-12T08:34:22.000Z</time>
      </trkpt>
      <trkpt lat="46.75583" lon="5.63869">
        <ele>452.60000610352</ele>
        <time>2020-09-12T08:34:24.000Z</time>
      </trkpt>
      <trkpt lat="46.75585" lon="5.63876">
        <ele>452.79998779297</ele>
        <time>2020-09-12T08:34:25.000Z</time>
      </trkpt>
      <trkpt lat="46.75586" lon="5.63882">
        <ele>453</ele>
        <time>2020-09-12T08:34:26.000Z</time>
      </trkpt>
      <trkpt lat="46.75588" lon="5.63889">
        <ele>453.20001220703</ele>
        <time>2020-09-12T08:34:27.000Z</time>
      </trkpt>
      <trkpt lat="46.7559" lon="5.63894">
        <ele>453.20001220703</ele>
        <time>2020-09-12T08:34:28.000Z</time>
      </trkpt>
      <trkpt lat="46.75595" lon="5.63906">
        <ele>454.20001220703</ele>
        <time>2020-09-12T08:34:30.000Z</time>
      </trkpt>
      <trkpt lat="46.756" lon="5.63918">
        <ele>454.60000610352</ele>
        <time>2020-09-12T08:34:32.000Z</time>
      </trkpt>
      <trkpt lat="46.75606" lon="5.63929">
        <ele>455</ele>
        <time>2020-09-12T08:34:34.000Z</time>
      </trkpt>
      <trkpt lat="46.75609" lon="5.63935">
        <ele>455.20001220703</ele>
        <time>2020-09-12T08:34:35.000Z</time>
      </trkpt>
      <trkpt lat="46.75612" lon="5.6394">
        <ele>455.60000610352</ele>
        <time>2020-09-12T08:34:36.000Z</time>
      </trkpt>
      <trkpt lat="46.7562" lon="5.63949">
        <ele>456</ele>
        <time>2020-09-12T08:34:38.000Z</time>
      </trkpt>
      <trkpt lat="46.75623" lon="5.63953">
        <ele>456</ele>
        <time>2020-09-12T08:34:39.000Z</time>
      </trkpt>
      <trkpt lat="46.75627" lon="5.63958">
        <ele>456.39999389648</ele>
        <time>2020-09-12T08:34:40.000Z</time>
      </trkpt>
      <trkpt lat="46.75635" lon="5.63966">
        <ele>457</ele>
        <time>2020-09-12T08:34:42.000Z</time>
      </trkpt>
      <trkpt lat="46.75643" lon="5.63974">
        <ele>457.20001220703</ele>
        <time>2020-09-12T08:34:44.000Z</time>
      </trkpt>
      <trkpt lat="46.75647" lon="5.63978">
        <ele>457.39999389648</ele>
        <time>2020-09-12T08:34:45.000Z</time>
      </trkpt>
      <trkpt lat="46.7565" lon="5.63982">
        <ele>457.60000610352</ele>
        <time>2020-09-12T08:34:46.000Z</time>
      </trkpt>
      <trkpt lat="46.75658" lon="5.6399">
        <ele>458</ele>
        <time>2020-09-12T08:34:48.000Z</time>
      </trkpt>
      <trkpt lat="46.75666" lon="5.63997">
        <ele>458.20001220703</ele>
        <time>2020-09-12T08:34:50.000Z</time>
      </trkpt>
      <trkpt lat="46.7567" lon="5.64001">
        <ele>458.39999389648</ele>
        <time>2020-09-12T08:34:51.000Z</time>
      </trkpt>
      <trkpt lat="46.75673" lon="5.64004">
        <ele>458.79998779297</ele>
        <time>2020-09-12T08:34:52.000Z</time>
      </trkpt>
      <trkpt lat="46.75681" lon="5.64011">
        <ele>459.39999389648</ele>
        <time>2020-09-12T08:34:54.000Z</time>
      </trkpt>
      <trkpt lat="46.75685" lon="5.64014">
        <ele>459.60000610352</ele>
        <time>2020-09-12T08:34:55.000Z</time>
      </trkpt>
      <trkpt lat="46.75689" lon="5.64018">
        <ele>459.79998779297</ele>
        <time>2020-09-12T08:34:56.000Z</time>
      </trkpt>
      <trkpt lat="46.75697" lon="5.64025">
        <ele>460</ele>
        <time>2020-09-12T08:34:58.000Z</time>
      </trkpt>
      <trkpt lat="46.75701" lon="5.64028">
        <ele>460.39999389648</ele>
        <time>2020-09-12T08:34:59.000Z</time>
      </trkpt>
      <trkpt lat="46.75704" lon="5.64032">
        <ele>460.60000610352</ele>
        <time>2020-09-12T08:35:00.000Z</time>
      </trkpt>
      <trkpt lat="46.75713" lon="5.64039">
        <ele>461</ele>
        <time>2020-09-12T08:35:02.000Z</time>
      </trkpt>
      <trkpt lat="46.75721" lon="5.64047">
        <ele>461.60000610352</ele>
        <time>2020-09-12T08:35:04.000Z</time>
      </trkpt>
      <trkpt lat="46.75725" lon="5.64051">
        <ele>462</ele>
        <time>2020-09-12T08:35:05.000Z</time>
      </trkpt>
      <trkpt lat="46.75729" lon="5.64055">
        <ele>462.20001220703</ele>
        <time>2020-09-12T08:35:06.000Z</time>
      </trkpt>
      <trkpt lat="46.75738" lon="5.64064">
        <ele>462.39999389648</ele>
        <time>2020-09-12T08:35:08.000Z</time>
      </trkpt>
      <trkpt lat="46.75746" lon="5.64073">
        <ele>462.39999389648</ele>
        <time>2020-09-12T08:35:10.000Z</time>
      </trkpt>
      <trkpt lat="46.75755" lon="5.64082">
        <ele>462.60000610352</ele>
        <time>2020-09-12T08:35:12.000Z</time>
      </trkpt>
      <trkpt lat="46.75764" lon="5.64092">
        <ele>462.79998779297</ele>
        <time>2020-09-12T08:35:14.000Z</time>
      </trkpt>
      <trkpt lat="46.75768" lon="5.64098">
        <ele>462.79998779297</ele>
        <time>2020-09-12T08:35:15.000Z</time>
      </trkpt>
      <trkpt lat="46.75772" lon="5.64103">
        <ele>462.79998779297</ele>
        <time>2020-09-12T08:35:16.000Z</time>
      </trkpt>
      <trkpt lat="46.7578" lon="5.64114">
        <ele>462.79998779297</ele>
        <time>2020-09-12T08:35:18.000Z</time>
      </trkpt>
      <trkpt lat="46.75788" lon="5.64126">
        <ele>463</ele>
        <time>2020-09-12T08:35:20.000Z</time>
      </trkpt>
      <trkpt lat="46.75796" lon="5.64137">
        <ele>463</ele>
        <time>2020-09-12T08:35:22.000Z</time>
      </trkpt>
      <trkpt lat="46.75803" lon="5.64149">
        <ele>463.20001220703</ele>
        <time>2020-09-12T08:35:24.000Z</time>
      </trkpt>
      <trkpt lat="46.7581" lon="5.64161">
        <ele>463.20001220703</ele>
        <time>2020-09-12T08:35:26.000Z</time>
      </trkpt>
      <trkpt lat="46.75816" lon="5.64174">
        <ele>463.39999389648</ele>
        <time>2020-09-12T08:35:28.000Z</time>
      </trkpt>
      <trkpt lat="46.75819" lon="5.64181">
        <ele>463.60000610352</ele>
        <time>2020-09-12T08:35:29.000Z</time>
      </trkpt>
      <trkpt lat="46.75824" lon="5.64194">
        <ele>463.79998779297</ele>
        <time>2020-09-12T08:35:31.000Z</time>
      </trkpt>
      <trkpt lat="46.7583" lon="5.64207">
        <ele>464</ele>
        <time>2020-09-12T08:35:33.000Z</time>
      </trkpt>
      <trkpt lat="46.75833" lon="5.64213">
        <ele>464</ele>
        <time>2020-09-12T08:35:34.000Z</time>
      </trkpt>
      <trkpt lat="46.75838" lon="5.64227">
        <ele>464.60000610352</ele>
        <time>2020-09-12T08:35:36.000Z</time>
      </trkpt>
      <trkpt lat="46.75845" lon="5.64241">
        <ele>465</ele>
        <time>2020-09-12T08:35:38.000Z</time>
      </trkpt>
      <trkpt lat="46.75852" lon="5.64254">
        <ele>465</ele>
        <time>2020-09-12T08:35:40.000Z</time>
      </trkpt>
      <trkpt lat="46.75856" lon="5.64262">
        <ele>465.20001220703</ele>
        <time>2020-09-12T08:35:41.000Z</time>
      </trkpt>
      <trkpt lat="46.7586" lon="5.64269">
        <ele>465.20001220703</ele>
        <time>2020-09-12T08:35:42.000Z</time>
      </trkpt>
      <trkpt lat="46.75868" lon="5.64284">
        <ele>465.20001220703</ele>
        <time>2020-09-12T08:35:44.000Z</time>
      </trkpt>
      <trkpt lat="46.75877" lon="5.643">
        <ele>465.20001220703</ele>
        <time>2020-09-12T08:35:46.000Z</time>
      </trkpt>
      <trkpt lat="46.75887" lon="5.64317">
        <ele>465.20001220703</ele>
        <time>2020-09-12T08:35:48.000Z</time>
      </trkpt>
      <trkpt lat="46.75896" lon="5.64335">
        <ele>465</ele>
        <time>2020-09-12T08:35:50.000Z</time>
      </trkpt>
      <trkpt lat="46.75906" lon="5.64354">
        <ele>464.60000610352</ele>
        <time>2020-09-12T08:35:52.000Z</time>
      </trkpt>
      <trkpt lat="46.75917" lon="5.64374">
        <ele>464</ele>
        <time>2020-09-12T08:35:54.000Z</time>
      </trkpt>
      <trkpt lat="46.75922" lon="5.64385">
        <ele>463.79998779297</ele>
        <time>2020-09-12T08:35:55.000Z</time>
      </trkpt>
      <trkpt lat="46.75927" lon="5.64395">
        <ele>463.60000610352</ele>
        <time>2020-09-12T08:35:56.000Z</time>
      </trkpt>
      <trkpt lat="46.75932" lon="5.64406">
        <ele>463.20001220703</ele>
        <time>2020-09-12T08:35:57.000Z</time>
      </trkpt>
      <trkpt lat="46.75937" lon="5.64417">
        <ele>463</ele>
        <time>2020-09-12T08:35:58.000Z</time>
      </trkpt>
      <trkpt lat="46.75946" lon="5.64439">
        <ele>462.60000610352</ele>
        <time>2020-09-12T08:36:00.000Z</time>
      </trkpt>
      <trkpt lat="46.75951" lon="5.64449">
        <ele>462.20001220703</ele>
        <time>2020-09-12T08:36:01.000Z</time>
      </trkpt>
      <trkpt lat="46.75955" lon="5.6446">
        <ele>462</ele>
        <time>2020-09-12T08:36:02.000Z</time>
      </trkpt>
      <trkpt lat="46.75959" lon="5.64471">
        <ele>461.60000610352</ele>
        <time>2020-09-12T08:36:03.000Z</time>
      </trkpt>
      <trkpt lat="46.75963" lon="5.64482">
        <ele>461.20001220703</ele>
        <time>2020-09-12T08:36:04.000Z</time>
      </trkpt>
      <trkpt lat="46.7597" lon="5.64505">
        <ele>460.79998779297</ele>
        <time>2020-09-12T08:36:06.000Z</time>
      </trkpt>
      <trkpt lat="46.75977" lon="5.64528">
        <ele>460.60000610352</ele>
        <time>2020-09-12T08:36:08.000Z</time>
      </trkpt>
      <trkpt lat="46.75982" lon="5.6455">
        <ele>460.60000610352</ele>
        <time>2020-09-12T08:36:10.000Z</time>
      </trkpt>
      <trkpt lat="46.75987" lon="5.64573">
        <ele>460.39999389648</ele>
        <time>2020-09-12T08:36:12.000Z</time>
      </trkpt>
      <trkpt lat="46.75991" lon="5.64595">
        <ele>460.39999389648</ele>
        <time>2020-09-12T08:36:14.000Z</time>
      </trkpt>
      <trkpt lat="46.75995" lon="5.64618">
        <ele>460.39999389648</ele>
        <time>2020-09-12T08:36:16.000Z</time>
      </trkpt>
      <trkpt lat="46.75997" lon="5.64629">
        <ele>460.60000610352</ele>
        <time>2020-09-12T08:36:17.000Z</time>
      </trkpt>
      <trkpt lat="46.75999" lon="5.6464">
        <ele>460.60000610352</ele>
        <time>2020-09-12T08:36:18.000Z</time>
      </trkpt>
      <trkpt lat="46.76003" lon="5.64662">
        <ele>460.60000610352</ele>
        <time>2020-09-12T08:36:20.000Z</time>
      </trkpt>
      <trkpt lat="46.76007" lon="5.64683">
        <ele>460.60000610352</ele>
        <time>2020-09-12T08:36:22.000Z</time>
      </trkpt>
      <trkpt lat="46.76011" lon="5.64705">
        <ele>460.79998779297</ele>
        <time>2020-09-12T08:36:24.000Z</time>
      </trkpt>
      <trkpt lat="46.76015" lon="5.64726">
        <ele>461.20001220703</ele>
        <time>2020-09-12T08:36:26.000Z</time>
      </trkpt>
      <trkpt lat="46.7602" lon="5.64747">
        <ele>461.20001220703</ele>
        <time>2020-09-12T08:36:28.000Z</time>
      </trkpt>
      <trkpt lat="46.76025" lon="5.64768">
        <ele>461.20001220703</ele>
        <time>2020-09-12T08:36:30.000Z</time>
      </trkpt>
      <trkpt lat="46.76029" lon="5.64788">
        <ele>461.39999389648</ele>
        <time>2020-09-12T08:36:32.000Z</time>
      </trkpt>
      <trkpt lat="46.76033" lon="5.64808">
        <ele>461.79998779297</ele>
        <time>2020-09-12T08:36:34.000Z</time>
      </trkpt>
      <trkpt lat="46.76037" lon="5.64827">
        <ele>462</ele>
        <time>2020-09-12T08:36:36.000Z</time>
      </trkpt>
      <trkpt lat="46.7604" lon="5.64845">
        <ele>462.39999389648</ele>
        <time>2020-09-12T08:36:38.000Z</time>
      </trkpt>
      <trkpt lat="46.76044" lon="5.64863">
        <ele>462.60000610352</ele>
        <time>2020-09-12T08:36:40.000Z</time>
      </trkpt>
      <trkpt lat="46.76048" lon="5.6488">
        <ele>462.79998779297</ele>
        <time>2020-09-12T08:36:42.000Z</time>
      </trkpt>
      <trkpt lat="46.7605" lon="5.64888">
        <ele>463</ele>
        <time>2020-09-12T08:36:43.000Z</time>
      </trkpt>
      <trkpt lat="46.76053" lon="5.64897">
        <ele>463.39999389648</ele>
        <time>2020-09-12T08:36:44.000Z</time>
      </trkpt>
      <trkpt lat="46.76057" lon="5.64913">
        <ele>464</ele>
        <time>2020-09-12T08:36:46.000Z</time>
      </trkpt>
      <trkpt lat="46.76061" lon="5.64929">
        <ele>464.60000610352</ele>
        <time>2020-09-12T08:36:48.000Z</time>
      </trkpt>
      <trkpt lat="46.76066" lon="5.64945">
        <ele>465.20001220703</ele>
        <time>2020-09-12T08:36:50.000Z</time>
      </trkpt>
      <trkpt lat="46.76068" lon="5.64953">
        <ele>465.39999389648</ele>
        <time>2020-09-12T08:36:51.000Z</time>
      </trkpt>
      <trkpt lat="46.76069" lon="5.64961">
        <ele>465.60000610352</ele>
        <time>2020-09-12T08:36:52.000Z</time>
      </trkpt>
      <trkpt lat="46.76071" lon="5.64969">
        <ele>466</ele>
        <time>2020-09-12T08:36:53.000Z</time>
      </trkpt>
      <trkpt lat="46.76072" lon="5.64977">
        <ele>466.39999389648</ele>
        <time>2020-09-12T08:36:54.000Z</time>
      </trkpt>
      <trkpt lat="46.76072" lon="5.64985">
        <ele>467.20001220703</ele>
        <time>2020-09-12T08:36:55.000Z</time>
      </trkpt>
      <trkpt lat="46.76072" lon="5.64994">
        <ele>467.39999389648</ele>
        <time>2020-09-12T08:36:56.000Z</time>
      </trkpt>
      <trkpt lat="46.76072" lon="5.65002">
        <ele>467.60000610352</ele>
        <time>2020-09-12T08:36:57.000Z</time>
      </trkpt>
      <trkpt lat="46.76071" lon="5.6501">
        <ele>467.79998779297</ele>
        <time>2020-09-12T08:36:58.000Z</time>
      </trkpt>
      <trkpt lat="46.7607" lon="5.65026">
        <ele>468</ele>
        <time>2020-09-12T08:37:00.000Z</time>
      </trkpt>
      <trkpt lat="46.76069" lon="5.65034">
        <ele>468.20001220703</ele>
        <time>2020-09-12T08:37:01.000Z</time>
      </trkpt>
      <trkpt lat="46.76068" lon="5.65042">
        <ele>468.20001220703</ele>
        <time>2020-09-12T08:37:02.000Z</time>
      </trkpt>
      <trkpt lat="46.76066" lon="5.65057">
        <ele>468.39999389648</ele>
        <time>2020-09-12T08:37:04.000Z</time>
      </trkpt>
      <trkpt lat="46.76064" lon="5.65072">
        <ele>468.60000610352</ele>
        <time>2020-09-12T08:37:06.000Z</time>
      </trkpt>
      <trkpt lat="46.76064" lon="5.6508">
        <ele>468.79998779297</ele>
        <time>2020-09-12T08:37:07.000Z</time>
      </trkpt>
      <trkpt lat="46.76063" lon="5.65087">
        <ele>469</ele>
        <time>2020-09-12T08:37:08.000Z</time>
      </trkpt>
      <trkpt lat="46.76062" lon="5.65095">
        <ele>469.20001220703</ele>
        <time>2020-09-12T08:37:09.000Z</time>
      </trkpt>
      <trkpt lat="46.76061" lon="5.65102">
        <ele>469.39999389648</ele>
        <time>2020-09-12T08:37:10.000Z</time>
      </trkpt>
      <trkpt lat="46.76059" lon="5.65117">
        <ele>469.79998779297</ele>
        <time>2020-09-12T08:37:12.000Z</time>
      </trkpt>
      <trkpt lat="46.76058" lon="5.65132">
        <ele>470.20001220703</ele>
        <time>2020-09-12T08:37:14.000Z</time>
      </trkpt>
      <trkpt lat="46.76056" lon="5.65147">
        <ele>470.39999389648</ele>
        <time>2020-09-12T08:37:16.000Z</time>
      </trkpt>
      <trkpt lat="46.76055" lon="5.65154">
        <ele>470.79998779297</ele>
        <time>2020-09-12T08:37:17.000Z</time>
      </trkpt>
      <trkpt lat="46.76055" lon="5.65161">
        <ele>471</ele>
        <time>2020-09-12T08:37:18.000Z</time>
      </trkpt>
      <trkpt lat="46.76054" lon="5.65169">
        <ele>471.20001220703</ele>
        <time>2020-09-12T08:37:19.000Z</time>
      </trkpt>
      <trkpt lat="46.76053" lon="5.65176">
        <ele>471.39999389648</ele>
        <time>2020-09-12T08:37:20.000Z</time>
      </trkpt>
      <trkpt lat="46.76052" lon="5.6519">
        <ele>471.79998779297</ele>
        <time>2020-09-12T08:37:22.000Z</time>
      </trkpt>
      <trkpt lat="46.76051" lon="5.65204">
        <ele>472.39999389648</ele>
        <time>2020-09-12T08:37:24.000Z</time>
      </trkpt>
      <trkpt lat="46.7605" lon="5.6521">
        <ele>472.60000610352</ele>
        <time>2020-09-12T08:37:25.000Z</time>
      </trkpt>
      <trkpt lat="46.7605" lon="5.65217">
        <ele>472.79998779297</ele>
        <time>2020-09-12T08:37:26.000Z</time>
      </trkpt>
      <trkpt lat="46.76049" lon="5.6523">
        <ele>473</ele>
        <time>2020-09-12T08:37:28.000Z</time>
      </trkpt>
      <trkpt lat="46.76049" lon="5.65242">
        <ele>473.60000610352</ele>
        <time>2020-09-12T08:37:30.000Z</time>
      </trkpt>
      <trkpt lat="46.76048" lon="5.65254">
        <ele>474</ele>
        <time>2020-09-12T08:37:32.000Z</time>
      </trkpt>
      <trkpt lat="46.76048" lon="5.65266">
        <ele>474.60000610352</ele>
        <time>2020-09-12T08:37:34.000Z</time>
      </trkpt>
      <trkpt lat="46.76048" lon="5.65271">
        <ele>475</ele>
        <time>2020-09-12T08:37:35.000Z</time>
      </trkpt>
      <trkpt lat="46.76047" lon="5.65277">
        <ele>475.39999389648</ele>
        <time>2020-09-12T08:37:36.000Z</time>
      </trkpt>
      <trkpt lat="46.76047" lon="5.65289">
        <ele>475.79998779297</ele>
        <time>2020-09-12T08:37:38.000Z</time>
      </trkpt>
      <trkpt lat="46.76047" lon="5.653">
        <ele>476.20001220703</ele>
        <time>2020-09-12T08:37:40.000Z</time>
      </trkpt>
      <trkpt lat="46.76046" lon="5.65312">
        <ele>476.39999389648</ele>
        <time>2020-09-12T08:37:42.000Z</time>
      </trkpt>
      <trkpt lat="46.76046" lon="5.65323">
        <ele>476.79998779297</ele>
        <time>2020-09-12T08:37:44.000Z</time>
      </trkpt>
      <trkpt lat="46.76045" lon="5.65329">
        <ele>477</ele>
        <time>2020-09-12T08:37:45.000Z</time>
      </trkpt>
      <trkpt lat="46.76045" lon="5.65335">
        <ele>477.20001220703</ele>
        <time>2020-09-12T08:37:46.000Z</time>
      </trkpt>
      <trkpt lat="46.76045" lon="5.65347">
        <ele>477.60000610352</ele>
        <time>2020-09-12T08:37:48.000Z</time>
      </trkpt>
      <trkpt lat="46.76044" lon="5.65359">
        <ele>478</ele>
        <time>2020-09-12T08:37:50.000Z</time>
      </trkpt>
      <trkpt lat="46.76044" lon="5.65365">
        <ele>478.20001220703</ele>
        <time>2020-09-12T08:37:51.000Z</time>
      </trkpt>
      <trkpt lat="46.76044" lon="5.65371">
        <ele>478.20001220703</ele>
        <time>2020-09-12T08:37:52.000Z</time>
      </trkpt>
      <trkpt lat="46.76043" lon="5.65384">
        <ele>478.79998779297</ele>
        <time>2020-09-12T08:37:54.000Z</time>
      </trkpt>
      <trkpt lat="46.76042" lon="5.65397">
        <ele>479.20001220703</ele>
        <time>2020-09-12T08:37:56.000Z</time>
      </trkpt>
      <trkpt lat="46.76042" lon="5.6541">
        <ele>479.60000610352</ele>
        <time>2020-09-12T08:37:58.000Z</time>
      </trkpt>
      <trkpt lat="46.76041" lon="5.65424">
        <ele>480</ele>
        <time>2020-09-12T08:38:00.000Z</time>
      </trkpt>
      <trkpt lat="46.76041" lon="5.65438">
        <ele>480.39999389648</ele>
        <time>2020-09-12T08:38:02.000Z</time>
      </trkpt>
      <trkpt lat="46.76042" lon="5.65452">
        <ele>480.60000610352</ele>
        <time>2020-09-12T08:38:04.000Z</time>
      </trkpt>
      <trkpt lat="46.76042" lon="5.65459">
        <ele>480.60000610352</ele>
        <time>2020-09-12T08:38:05.000Z</time>
      </trkpt>
      <trkpt lat="46.76042" lon="5.65466">
        <ele>480.79998779297</ele>
        <time>2020-09-12T08:38:06.000Z</time>
      </trkpt>
      <trkpt lat="46.76042" lon="5.6548">
        <ele>480.79998779297</ele>
        <time>2020-09-12T08:38:08.000Z</time>
      </trkpt>
      <trkpt lat="46.76042" lon="5.65495">
        <ele>481</ele>
        <time>2020-09-12T08:38:10.000Z</time>
      </trkpt>
      <trkpt lat="46.76042" lon="5.65509">
        <ele>481</ele>
        <time>2020-09-12T08:38:12.000Z</time>
      </trkpt>
      <trkpt lat="46.76041" lon="5.65523">
        <ele>481.39999389648</ele>
        <time>2020-09-12T08:38:14.000Z</time>
      </trkpt>
      <trkpt lat="46.76041" lon="5.6553">
        <ele>481.39999389648</ele>
        <time>2020-09-12T08:38:15.000Z</time>
      </trkpt>
      <trkpt lat="46.76041" lon="5.65537">
        <ele>481.60000610352</ele>
        <time>2020-09-12T08:38:16.000Z</time>
      </trkpt>
      <trkpt lat="46.76041" lon="5.6555">
        <ele>481.79998779297</ele>
        <time>2020-09-12T08:38:18.000Z</time>
      </trkpt>
      <trkpt lat="46.7604" lon="5.65563">
        <ele>481.79998779297</ele>
        <time>2020-09-12T08:38:20.000Z</time>
      </trkpt>
      <trkpt lat="46.7604" lon="5.65575">
        <ele>482.20001220703</ele>
        <time>2020-09-12T08:38:22.000Z</time>
      </trkpt>
      <trkpt lat="46.7604" lon="5.65581">
        <ele>482.39999389648</ele>
        <time>2020-09-12T08:38:23.000Z</time>
      </trkpt>
      <trkpt lat="46.76039" lon="5.65587">
        <ele>482.60000610352</ele>
        <time>2020-09-12T08:38:24.000Z</time>
      </trkpt>
      <trkpt lat="46.76039" lon="5.65599">
        <ele>483</ele>
        <time>2020-09-12T08:38:26.000Z</time>
      </trkpt>
      <trkpt lat="46.76039" lon="5.65611">
        <ele>483.39999389648</ele>
        <time>2020-09-12T08:38:28.000Z</time>
      </trkpt>
      <trkpt lat="46.7604" lon="5.65623">
        <ele>483.60000610352</ele>
        <time>2020-09-12T08:38:30.000Z</time>
      </trkpt>
      <trkpt lat="46.7604" lon="5.65628">
        <ele>483.79998779297</ele>
        <time>2020-09-12T08:38:31.000Z</time>
      </trkpt>
      <trkpt lat="46.76041" lon="5.65634">
        <ele>484.20001220703</ele>
        <time>2020-09-12T08:38:32.000Z</time>
      </trkpt>
      <trkpt lat="46.76043" lon="5.65646">
        <ele>484.60000610352</ele>
        <time>2020-09-12T08:38:34.000Z</time>
      </trkpt>
      <trkpt lat="46.76044" lon="5.65652">
        <ele>485</ele>
        <time>2020-09-12T08:38:35.000Z</time>
      </trkpt>
      <trkpt lat="46.76046" lon="5.65657">
        <ele>485.39999389648</ele>
        <time>2020-09-12T08:38:36.000Z</time>
      </trkpt>
      <trkpt lat="46.76048" lon="5.65662">
        <ele>485.79998779297</ele>
        <time>2020-09-12T08:38:37.000Z</time>
      </trkpt>
      <trkpt lat="46.7605" lon="5.65667">
        <ele>486</ele>
        <time>2020-09-12T08:38:38.000Z</time>
      </trkpt>
      <trkpt lat="46.76053" lon="5.65677">
        <ele>486.39999389648</ele>
        <time>2020-09-12T08:38:40.000Z</time>
      </trkpt>
      <trkpt lat="46.76057" lon="5.65686">
        <ele>487</ele>
        <time>2020-09-12T08:38:42.000Z</time>
      </trkpt>
      <trkpt lat="46.7606" lon="5.65696">
        <ele>487.60000610352</ele>
        <time>2020-09-12T08:38:44.000Z</time>
      </trkpt>
      <trkpt lat="46.76061" lon="5.657">
        <ele>488</ele>
        <time>2020-09-12T08:38:45.000Z</time>
      </trkpt>
      <trkpt lat="46.76063" lon="5.65705">
        <ele>488.20001220703</ele>
        <time>2020-09-12T08:38:46.000Z</time>
      </trkpt>
      <trkpt lat="46.76066" lon="5.65713">
        <ele>488.39999389648</ele>
        <time>2020-09-12T08:38:48.000Z</time>
      </trkpt>
      <trkpt lat="46.76071" lon="5.65721">
        <ele>488.79998779297</ele>
        <time>2020-09-12T08:38:50.000Z</time>
      </trkpt>
      <trkpt lat="46.76074" lon="5.65725">
        <ele>489.20001220703</ele>
        <time>2020-09-12T08:38:51.000Z</time>
      </trkpt>
      <trkpt lat="46.76078" lon="5.65729">
        <ele>490</ele>
        <time>2020-09-12T08:38:52.000Z</time>
      </trkpt>
      <trkpt lat="46.76081" lon="5.65733">
        <ele>490.39999389648</ele>
        <time>2020-09-12T08:38:53.000Z</time>
      </trkpt>
      <trkpt lat="46.76084" lon="5.65736">
        <ele>490.39999389648</ele>
        <time>2020-09-12T08:38:54.000Z</time>
      </trkpt>
      <trkpt lat="46.7609" lon="5.65743">
        <ele>490.79998779297</ele>
        <time>2020-09-12T08:38:56.000Z</time>
      </trkpt>
      <trkpt lat="46.76095" lon="5.6575">
        <ele>491.39999389648</ele>
        <time>2020-09-12T08:38:58.000Z</time>
      </trkpt>
      <trkpt lat="46.76098" lon="5.65753">
        <ele>491.60000610352</ele>
        <time>2020-09-12T08:38:59.000Z</time>
      </trkpt>
      <trkpt lat="46.76101" lon="5.65757">
        <ele>491.79998779297</ele>
        <time>2020-09-12T08:39:00.000Z</time>
      </trkpt>
      <trkpt lat="46.76107" lon="5.65763">
        <ele>492.39999389648</ele>
        <time>2020-09-12T08:39:02.000Z</time>
      </trkpt>
      <trkpt lat="46.76113" lon="5.65769">
        <ele>492.39999389648</ele>
        <time>2020-09-12T08:39:04.000Z</time>
      </trkpt>
      <trkpt lat="46.76119" lon="5.65775">
        <ele>492.79998779297</ele>
        <time>2020-09-12T08:39:06.000Z</time>
      </trkpt>
      <trkpt lat="46.76125" lon="5.65781">
        <ele>493.39999389648</ele>
        <time>2020-09-12T08:39:08.000Z</time>
      </trkpt>
      <trkpt lat="46.76132" lon="5.65786">
        <ele>493.79998779297</ele>
        <time>2020-09-12T08:39:10.000Z</time>
      </trkpt>
      <trkpt lat="46.76138" lon="5.65792">
        <ele>494</ele>
        <time>2020-09-12T08:39:12.000Z</time>
      </trkpt>
      <trkpt lat="46.76143" lon="5.65797">
        <ele>494.39999389648</ele>
        <time>2020-09-12T08:39:14.000Z</time>
      </trkpt>
      <trkpt lat="46.7615" lon="5.65803">
        <ele>495</ele>
        <time>2020-09-12T08:39:16.000Z</time>
      </trkpt>
      <trkpt lat="46.76157" lon="5.65808">
        <ele>495.39999389648</ele>
        <time>2020-09-12T08:39:18.000Z</time>
      </trkpt>
      <trkpt lat="46.7616" lon="5.6581">
        <ele>495.60000610352</ele>
        <time>2020-09-12T08:39:19.000Z</time>
      </trkpt>
      <trkpt lat="46.76163" lon="5.65813">
        <ele>495.79998779297</ele>
        <time>2020-09-12T08:39:20.000Z</time>
      </trkpt>
      <trkpt lat="46.76168" lon="5.65818">
        <ele>496.20001220703</ele>
        <time>2020-09-12T08:39:22.000Z</time>
      </trkpt>
      <trkpt lat="46.76174" lon="5.65822">
        <ele>496.60000610352</ele>
        <time>2020-09-12T08:39:24.000Z</time>
      </trkpt>
      <trkpt lat="46.76179" lon="5.65827">
        <ele>497</ele>
        <time>2020-09-12T08:39:26.000Z</time>
      </trkpt>
      <trkpt lat="46.76183" lon="5.6583">
        <ele>497.20001220703</ele>
        <time>2020-09-12T08:39:27.000Z</time>
      </trkpt>
      <trkpt lat="46.76186" lon="5.65832">
        <ele>497.60000610352</ele>
        <time>2020-09-12T08:39:28.000Z</time>
      </trkpt>
      <trkpt lat="46.76189" lon="5.65835">
        <ele>497.60000610352</ele>
        <time>2020-09-12T08:39:29.000Z</time>
      </trkpt>
      <trkpt lat="46.76192" lon="5.65838">
        <ele>497.79998779297</ele>
        <time>2020-09-12T08:39:30.000Z</time>
      </trkpt>
      <trkpt lat="46.76199" lon="5.65844">
        <ele>498.39999389648</ele>
        <time>2020-09-12T08:39:32.000Z</time>
      </trkpt>
      <trkpt lat="46.76207" lon="5.65851">
        <ele>499</ele>
        <time>2020-09-12T08:39:34.000Z</time>
      </trkpt>
      <trkpt lat="46.76214" lon="5.65859">
        <ele>499.39999389648</ele>
        <time>2020-09-12T08:39:36.000Z</time>
      </trkpt>
      <trkpt lat="46.76222" lon="5.65868">
        <ele>499.60000610352</ele>
        <time>2020-09-12T08:39:38.000Z</time>
      </trkpt>
      <trkpt lat="46.76228" lon="5.65877">
        <ele>500.20001220703</ele>
        <time>2020-09-12T08:39:40.000Z</time>
      </trkpt>
      <trkpt lat="46.76233" lon="5.65885">
        <ele>500.39999389648</ele>
        <time>2020-09-12T08:39:42.000Z</time>
      </trkpt>
      <trkpt lat="46.76238" lon="5.65894">
        <ele>500.79998779297</ele>
        <time>2020-09-12T08:39:44.000Z</time>
      </trkpt>
      <trkpt lat="46.76244" lon="5.65903">
        <ele>501.20001220703</ele>
        <time>2020-09-12T08:39:46.000Z</time>
      </trkpt>
      <trkpt lat="46.76249" lon="5.65912">
        <ele>501.60000610352</ele>
        <time>2020-09-12T08:39:48.000Z</time>
      </trkpt>
      <trkpt lat="46.76255" lon="5.65921">
        <ele>502.39999389648</ele>
        <time>2020-09-12T08:39:50.000Z</time>
      </trkpt>
      <trkpt lat="46.7626" lon="5.6593">
        <ele>502.79998779297</ele>
        <time>2020-09-12T08:39:52.000Z</time>
      </trkpt>
      <trkpt lat="46.76265" lon="5.65938">
        <ele>503</ele>
        <time>2020-09-12T08:39:54.000Z</time>
      </trkpt>
      <trkpt lat="46.7627" lon="5.65947">
        <ele>503.39999389648</ele>
        <time>2020-09-12T08:39:56.000Z</time>
      </trkpt>
      <trkpt lat="46.76274" lon="5.65956">
        <ele>503.79998779297</ele>
        <time>2020-09-12T08:39:58.000Z</time>
      </trkpt>
      <trkpt lat="46.76277" lon="5.65965">
        <ele>504.20001220703</ele>
        <time>2020-09-12T08:40:00.000Z</time>
      </trkpt>
      <trkpt lat="46.76281" lon="5.65973">
        <ele>504.60000610352</ele>
        <time>2020-09-12T08:40:02.000Z</time>
      </trkpt>
      <trkpt lat="46.76284" lon="5.6598">
        <ele>504.79998779297</ele>
        <time>2020-09-12T08:40:04.000Z</time>
      </trkpt>
      <trkpt lat="46.76288" lon="5.65987">
        <ele>505.20001220703</ele>
        <time>2020-09-12T08:40:06.000Z</time>
      </trkpt>
      <trkpt lat="46.76292" lon="5.65995">
        <ele>505.79998779297</ele>
        <time>2020-09-12T08:40:08.000Z</time>
      </trkpt>
      <trkpt lat="46.76295" lon="5.66002">
        <ele>506.20001220703</ele>
        <time>2020-09-12T08:40:10.000Z</time>
      </trkpt>
      <trkpt lat="46.763" lon="5.66009">
        <ele>506.60000610352</ele>
        <time>2020-09-12T08:40:12.000Z</time>
      </trkpt>
      <trkpt lat="46.76303" lon="5.66012">
        <ele>506.79998779297</ele>
        <time>2020-09-12T08:40:13.000Z</time>
      </trkpt>
      <trkpt lat="46.76308" lon="5.66016">
        <ele>507</ele>
        <time>2020-09-12T08:40:14.000Z</time>
      </trkpt>
      <trkpt lat="46.76311" lon="5.6602">
        <ele>507.39999389648</ele>
        <time>2020-09-12T08:40:15.000Z</time>
      </trkpt>
      <trkpt lat="46.76315" lon="5.66024">
        <ele>507.60000610352</ele>
        <time>2020-09-12T08:40:16.000Z</time>
      </trkpt>
      <trkpt lat="46.76319" lon="5.66028">
        <ele>507.79998779297</ele>
        <time>2020-09-12T08:40:17.000Z</time>
      </trkpt>
      <trkpt lat="46.76322" lon="5.66032">
        <ele>508</ele>
        <time>2020-09-12T08:40:18.000Z</time>
      </trkpt>
      <trkpt lat="46.76327" lon="5.66039">
        <ele>508.60000610352</ele>
        <time>2020-09-12T08:40:20.000Z</time>
      </trkpt>
      <trkpt lat="46.76336" lon="5.66047">
        <ele>509</ele>
        <time>2020-09-12T08:40:22.000Z</time>
      </trkpt>
      <trkpt lat="46.76344" lon="5.66055">
        <ele>509.39999389648</ele>
        <time>2020-09-12T08:40:24.000Z</time>
      </trkpt>
      <trkpt lat="46.7635" lon="5.66064">
        <ele>509.79998779297</ele>
        <time>2020-09-12T08:40:26.000Z</time>
      </trkpt>
      <trkpt lat="46.76358" lon="5.66073">
        <ele>510.20001220703</ele>
        <time>2020-09-12T08:40:28.000Z</time>
      </trkpt>
      <trkpt lat="46.76364" lon="5.66083">
        <ele>510.79998779297</ele>
        <time>2020-09-12T08:40:30.000Z</time>
      </trkpt>
      <trkpt lat="46.7637" lon="5.66087">
        <ele>511</ele>
        <time>2020-09-12T08:40:31.000Z</time>
      </trkpt>
      <trkpt lat="46.76375" lon="5.66092">
        <ele>511.39999389648</ele>
        <time>2020-09-12T08:40:32.000Z</time>
      </trkpt>
      <trkpt lat="46.76378" lon="5.66096">
        <ele>511.60000610352</ele>
        <time>2020-09-12T08:40:33.000Z</time>
      </trkpt>
      <trkpt lat="46.76382" lon="5.661">
        <ele>511.79998779297</ele>
        <time>2020-09-12T08:40:34.000Z</time>
      </trkpt>
      <trkpt lat="46.7639" lon="5.66109">
        <ele>512.20001220703</ele>
        <time>2020-09-12T08:40:36.000Z</time>
      </trkpt>
      <trkpt lat="46.76396" lon="5.66118">
        <ele>512.59997558594</ele>
        <time>2020-09-12T08:40:38.000Z</time>
      </trkpt>
      <trkpt lat="46.76399" lon="5.66122">
        <ele>512.79998779297</ele>
        <time>2020-09-12T08:40:39.000Z</time>
      </trkpt>
      <trkpt lat="46.76402" lon="5.66126">
        <ele>513</ele>
        <time>2020-09-12T08:40:40.000Z</time>
      </trkpt>
      <trkpt lat="46.76407" lon="5.66135">
        <ele>513.40002441406</ele>
        <time>2020-09-12T08:40:42.000Z</time>
      </trkpt>
      <trkpt lat="46.76414" lon="5.66144">
        <ele>513.59997558594</ele>
        <time>2020-09-12T08:40:44.000Z</time>
      </trkpt>
      <trkpt lat="46.76419" lon="5.66152">
        <ele>514.20001220703</ele>
        <time>2020-09-12T08:40:46.000Z</time>
      </trkpt>
      <trkpt lat="46.76422" lon="5.66156">
        <ele>514.20001220703</ele>
        <time>2020-09-12T08:40:47.000Z</time>
      </trkpt>
      <trkpt lat="46.76425" lon="5.6616">
        <ele>514.79998779297</ele>
        <time>2020-09-12T08:40:48.000Z</time>
      </trkpt>
      <trkpt lat="46.76429" lon="5.66169">
        <ele>515.20001220703</ele>
        <time>2020-09-12T08:40:50.000Z</time>
      </trkpt>
      <trkpt lat="46.76431" lon="5.66173">
        <ele>515.20001220703</ele>
        <time>2020-09-12T08:40:51.000Z</time>
      </trkpt>
      <trkpt lat="46.76433" lon="5.66177">
        <ele>515.40002441406</ele>
        <time>2020-09-12T08:40:52.000Z</time>
      </trkpt>
      <trkpt lat="46.76438" lon="5.66185">
        <ele>515.79998779297</ele>
        <time>2020-09-12T08:40:54.000Z</time>
      </trkpt>
      <trkpt lat="46.76443" lon="5.66193">
        <ele>516.40002441406</ele>
        <time>2020-09-12T08:40:56.000Z</time>
      </trkpt>
      <trkpt lat="46.76446" lon="5.66197">
        <ele>516.40002441406</ele>
        <time>2020-09-12T08:40:57.000Z</time>
      </trkpt>
      <trkpt lat="46.76448" lon="5.66201">
        <ele>516.59997558594</ele>
        <time>2020-09-12T08:40:58.000Z</time>
      </trkpt>
      <trkpt lat="46.76451" lon="5.66205">
        <ele>516.79998779297</ele>
        <time>2020-09-12T08:40:59.000Z</time>
      </trkpt>
      <trkpt lat="46.76457" lon="5.66213">
        <ele>517.20001220703</ele>
        <time>2020-09-12T08:41:01.000Z</time>
      </trkpt>
      <trkpt lat="46.76461" lon="5.66217">
        <ele>517.40002441406</ele>
        <time>2020-09-12T08:41:02.000Z</time>
      </trkpt>
      <trkpt lat="46.76464" lon="5.66221">
        <ele>517.59997558594</ele>
        <time>2020-09-12T08:41:03.000Z</time>
      </trkpt>
      <trkpt lat="46.76467" lon="5.66225">
        <ele>517.79998779297</ele>
        <time>2020-09-12T08:41:04.000Z</time>
      </trkpt>
      <trkpt lat="46.76471" lon="5.66229">
        <ele>518</ele>
        <time>2020-09-12T08:41:05.000Z</time>
      </trkpt>
      <trkpt lat="46.76478" lon="5.66238">
        <ele>518.59997558594</ele>
        <time>2020-09-12T08:41:07.000Z</time>
      </trkpt>
      <trkpt lat="46.76483" lon="5.66247">
        <ele>519</ele>
        <time>2020-09-12T08:41:09.000Z</time>
      </trkpt>
      <trkpt lat="46.76489" lon="5.66257">
        <ele>519.40002441406</ele>
        <time>2020-09-12T08:41:11.000Z</time>
      </trkpt>
      <trkpt lat="46.76492" lon="5.66261">
        <ele>519.40002441406</ele>
        <time>2020-09-12T08:41:12.000Z</time>
      </trkpt>
      <trkpt lat="46.76495" lon="5.66266">
        <ele>519.59997558594</ele>
        <time>2020-09-12T08:41:13.000Z</time>
      </trkpt>
      <trkpt lat="46.765" lon="5.66275">
        <ele>520</ele>
        <time>2020-09-12T08:41:15.000Z</time>
      </trkpt>
      <trkpt lat="46.76504" lon="5.66285">
        <ele>520.59997558594</ele>
        <time>2020-09-12T08:41:17.000Z</time>
      </trkpt>
      <trkpt lat="46.76506" lon="5.6629">
        <ele>520.79998779297</ele>
        <time>2020-09-12T08:41:18.000Z</time>
      </trkpt>
      <trkpt lat="46.76509" lon="5.66294">
        <ele>521.20001220703</ele>
        <time>2020-09-12T08:41:19.000Z</time>
      </trkpt>
      <trkpt lat="46.76513" lon="5.66304">
        <ele>521.59997558594</ele>
        <time>2020-09-12T08:41:21.000Z</time>
      </trkpt>
      <trkpt lat="46.76517" lon="5.66314">
        <ele>522.20001220703</ele>
        <time>2020-09-12T08:41:23.000Z</time>
      </trkpt>
      <trkpt lat="46.76523" lon="5.66323">
        <ele>522.59997558594</ele>
        <time>2020-09-12T08:41:25.000Z</time>
      </trkpt>
      <trkpt lat="46.76528" lon="5.66333">
        <ele>523</ele>
        <time>2020-09-12T08:41:27.000Z</time>
      </trkpt>
      <trkpt lat="46.76531" lon="5.66337">
        <ele>523.40002441406</ele>
        <time>2020-09-12T08:41:28.000Z</time>
      </trkpt>
      <trkpt lat="46.76533" lon="5.66342">
        <ele>523.40002441406</ele>
        <time>2020-09-12T08:41:29.000Z</time>
      </trkpt>
      <trkpt lat="46.76539" lon="5.66351">
        <ele>523.79998779297</ele>
        <time>2020-09-12T08:41:31.000Z</time>
      </trkpt>
      <trkpt lat="46.76545" lon="5.66361">
        <ele>524.20001220703</ele>
        <time>2020-09-12T08:41:33.000Z</time>
      </trkpt>
      <trkpt lat="46.7655" lon="5.6637">
        <ele>524.79998779297</ele>
        <time>2020-09-12T08:41:35.000Z</time>
      </trkpt>
      <trkpt lat="46.76555" lon="5.6638">
        <ele>525.20001220703</ele>
        <time>2020-09-12T08:41:37.000Z</time>
      </trkpt>
      <trkpt lat="46.76558" lon="5.66384">
        <ele>525.40002441406</ele>
        <time>2020-09-12T08:41:38.000Z</time>
      </trkpt>
      <trkpt lat="46.7656" lon="5.66389">
        <ele>525.59997558594</ele>
        <time>2020-09-12T08:41:39.000Z</time>
      </trkpt>
      <trkpt lat="46.76565" lon="5.66399">
        <ele>526.20001220703</ele>
        <time>2020-09-12T08:41:41.000Z</time>
      </trkpt>
      <trkpt lat="46.76569" lon="5.66408">
        <ele>526.40002441406</ele>
        <time>2020-09-12T08:41:43.000Z</time>
      </trkpt>
      <trkpt lat="46.76572" lon="5.66416">
        <ele>526.79998779297</ele>
        <time>2020-09-12T08:41:45.000Z</time>
      </trkpt>
      <trkpt lat="46.76577" lon="5.66424">
        <ele>527.40002441406</ele>
        <time>2020-09-12T08:41:47.000Z</time>
      </trkpt>
      <trkpt lat="46.76579" lon="5.66427">
        <ele>527.59997558594</ele>
        <time>2020-09-12T08:41:48.000Z</time>
      </trkpt>
      <trkpt lat="46.76581" lon="5.66431">
        <ele>527.79998779297</ele>
        <time>2020-09-12T08:41:49.000Z</time>
      </trkpt>
      <trkpt lat="46.76586" lon="5.66439">
        <ele>528.20001220703</ele>
        <time>2020-09-12T08:41:51.000Z</time>
      </trkpt>
      <trkpt lat="46.76592" lon="5.66447">
        <ele>528.59997558594</ele>
        <time>2020-09-12T08:41:53.000Z</time>
      </trkpt>
      <trkpt lat="46.76597" lon="5.66451">
        <ele>528.79998779297</ele>
        <time>2020-09-12T08:41:54.000Z</time>
      </trkpt>
      <trkpt lat="46.76599" lon="5.66456">
        <ele>529</ele>
        <time>2020-09-12T08:41:55.000Z</time>
      </trkpt>
      <trkpt lat="46.76602" lon="5.6646">
        <ele>529.20001220703</ele>
        <time>2020-09-12T08:41:56.000Z</time>
      </trkpt>
      <trkpt lat="46.76605" lon="5.66465">
        <ele>529.40002441406</ele>
        <time>2020-09-12T08:41:57.000Z</time>
      </trkpt>
      <trkpt lat="46.76613" lon="5.66475">
        <ele>529.79998779297</ele>
        <time>2020-09-12T08:41:59.000Z</time>
      </trkpt>
      <trkpt lat="46.76617" lon="5.66485">
        <ele>530.20001220703</ele>
        <time>2020-09-12T08:42:01.000Z</time>
      </trkpt>
      <trkpt lat="46.76619" lon="5.66491">
        <ele>530.59997558594</ele>
        <time>2020-09-12T08:42:02.000Z</time>
      </trkpt>
      <trkpt lat="46.7662" lon="5.66497">
        <ele>530.79998779297</ele>
        <time>2020-09-12T08:42:03.000Z</time>
      </trkpt>
      <trkpt lat="46.76622" lon="5.66508">
        <ele>531</ele>
        <time>2020-09-12T08:42:05.000Z</time>
      </trkpt>
      <trkpt lat="46.76626" lon="5.66519">
        <ele>531.59997558594</ele>
        <time>2020-09-12T08:42:07.000Z</time>
      </trkpt>
      <trkpt lat="46.76629" lon="5.66525">
        <ele>531.79998779297</ele>
        <time>2020-09-12T08:42:08.000Z</time>
      </trkpt>
      <trkpt lat="46.76629" lon="5.66537">
        <ele>532.40002441406</ele>
        <time>2020-09-12T08:42:10.000Z</time>
      </trkpt>
      <trkpt lat="46.76627" lon="5.66548">
        <ele>532.79998779297</ele>
        <time>2020-09-12T08:42:12.000Z</time>
      </trkpt>
      <trkpt lat="46.76626" lon="5.66554">
        <ele>533</ele>
        <time>2020-09-12T08:42:13.000Z</time>
      </trkpt>
      <trkpt lat="46.76624" lon="5.66559">
        <ele>533</ele>
        <time>2020-09-12T08:42:14.000Z</time>
      </trkpt>
      <trkpt lat="46.7662" lon="5.66568">
        <ele>533.40002441406</ele>
        <time>2020-09-12T08:42:16.000Z</time>
      </trkpt>
      <trkpt lat="46.76618" lon="5.66572">
        <ele>534</ele>
        <time>2020-09-12T08:42:17.000Z</time>
      </trkpt>
      <trkpt lat="46.76612" lon="5.66579">
        <ele>534.40002441406</ele>
        <time>2020-09-12T08:42:19.000Z</time>
      </trkpt>
      <trkpt lat="46.76607" lon="5.66586">
        <ele>535</ele>
        <time>2020-09-12T08:42:21.000Z</time>
      </trkpt>
      <trkpt lat="46.76604" lon="5.66589">
        <ele>535.40002441406</ele>
        <time>2020-09-12T08:42:22.000Z</time>
      </trkpt>
      <trkpt lat="46.76601" lon="5.66592">
        <ele>535.59997558594</ele>
        <time>2020-09-12T08:42:23.000Z</time>
      </trkpt>
      <trkpt lat="46.76596" lon="5.66596">
        <ele>536</ele>
        <time>2020-09-12T08:42:25.000Z</time>
      </trkpt>
      <trkpt lat="46.7659" lon="5.66599">
        <ele>536.20001220703</ele>
        <time>2020-09-12T08:42:27.000Z</time>
      </trkpt>
      <trkpt lat="46.76586" lon="5.666">
        <ele>536.40002441406</ele>
        <time>2020-09-12T08:42:28.000Z</time>
      </trkpt>
      <trkpt lat="46.76582" lon="5.66603">
        <ele>536.59997558594</ele>
        <time>2020-09-12T08:42:29.000Z</time>
      </trkpt>
      <trkpt lat="46.76573" lon="5.66609">
        <ele>537</ele>
        <time>2020-09-12T08:42:31.000Z</time>
      </trkpt>
      <trkpt lat="46.76568" lon="5.66613">
        <ele>537.20001220703</ele>
        <time>2020-09-12T08:42:32.000Z</time>
      </trkpt>
      <trkpt lat="46.76564" lon="5.66618">
        <ele>537.40002441406</ele>
        <time>2020-09-12T08:42:33.000Z</time>
      </trkpt>
      <trkpt lat="46.76554" lon="5.66626">
        <ele>537.59997558594</ele>
        <time>2020-09-12T08:42:35.000Z</time>
      </trkpt>
      <trkpt lat="46.76544" lon="5.66634">
        <ele>537.59997558594</ele>
        <time>2020-09-12T08:42:37.000Z</time>
      </trkpt>
      <trkpt lat="46.76533" lon="5.66643">
        <ele>537.59997558594</ele>
        <time>2020-09-12T08:42:39.000Z</time>
      </trkpt>
      <trkpt lat="46.76521" lon="5.66652">
        <ele>537.59997558594</ele>
        <time>2020-09-12T08:42:41.000Z</time>
      </trkpt>
      <trkpt lat="46.76509" lon="5.66664">
        <ele>537.40002441406</ele>
        <time>2020-09-12T08:42:43.000Z</time>
      </trkpt>
      <trkpt lat="46.76498" lon="5.66676">
        <ele>537.20001220703</ele>
        <time>2020-09-12T08:42:45.000Z</time>
      </trkpt>
      <trkpt lat="46.76488" lon="5.66691">
        <ele>536.79998779297</ele>
        <time>2020-09-12T08:42:47.000Z</time>
      </trkpt>
      <trkpt lat="46.76479" lon="5.6671">
        <ele>536.40002441406</ele>
        <time>2020-09-12T08:42:49.000Z</time>
      </trkpt>
      <trkpt lat="46.76472" lon="5.6673">
        <ele>535.40002441406</ele>
        <time>2020-09-12T08:42:51.000Z</time>
      </trkpt>
      <trkpt lat="46.76469" lon="5.66742">
        <ele>535.20001220703</ele>
        <time>2020-09-12T08:42:52.000Z</time>
      </trkpt>
      <trkpt lat="46.76468" lon="5.66753">
        <ele>535</ele>
        <time>2020-09-12T08:42:53.000Z</time>
      </trkpt>
      <trkpt lat="46.76466" lon="5.66765">
        <ele>535</ele>
        <time>2020-09-12T08:42:54.000Z</time>
      </trkpt>
      <trkpt lat="46.76465" lon="5.66777">
        <ele>534.59997558594</ele>
        <time>2020-09-12T08:42:55.000Z</time>
      </trkpt>
      <trkpt lat="46.76464" lon="5.66802">
        <ele>534.40002441406</ele>
        <time>2020-09-12T08:42:57.000Z</time>
      </trkpt>
      <trkpt lat="46.76465" lon="5.66814">
        <ele>534.20001220703</ele>
        <time>2020-09-12T08:42:58.000Z</time>
      </trkpt>
      <trkpt lat="46.76466" lon="5.66826">
        <ele>533.79998779297</ele>
        <time>2020-09-12T08:42:59.000Z</time>
      </trkpt>
      <trkpt lat="46.76466" lon="5.66838">
        <ele>533</ele>
        <time>2020-09-12T08:43:00.000Z</time>
      </trkpt>
      <trkpt lat="46.76466" lon="5.6685">
        <ele>532.59997558594</ele>
        <time>2020-09-12T08:43:01.000Z</time>
      </trkpt>
      <trkpt lat="46.76466" lon="5.66862">
        <ele>531.79998779297</ele>
        <time>2020-09-12T08:43:02.000Z</time>
      </trkpt>
      <trkpt lat="46.76466" lon="5.66875">
        <ele>531.20001220703</ele>
        <time>2020-09-12T08:43:03.000Z</time>
      </trkpt>
      <trkpt lat="46.76467" lon="5.66887">
        <ele>530.79998779297</ele>
        <time>2020-09-12T08:43:04.000Z</time>
      </trkpt>
      <trkpt lat="46.76467" lon="5.66899">
        <ele>530.59997558594</ele>
        <time>2020-09-12T08:43:05.000Z</time>
      </trkpt>
      <trkpt lat="46.76468" lon="5.66922">
        <ele>530</ele>
        <time>2020-09-12T08:43:07.000Z</time>
      </trkpt>
      <trkpt lat="46.76469" lon="5.66945">
        <ele>529.59997558594</ele>
        <time>2020-09-12T08:43:09.000Z</time>
      </trkpt>
      <trkpt lat="46.7647" lon="5.66956">
        <ele>529.40002441406</ele>
        <time>2020-09-12T08:43:10.000Z</time>
      </trkpt>
      <trkpt lat="46.76471" lon="5.66968">
        <ele>529</ele>
        <time>2020-09-12T08:43:11.000Z</time>
      </trkpt>
      <trkpt lat="46.76474" lon="5.66991">
        <ele>528.40002441406</ele>
        <time>2020-09-12T08:43:13.000Z</time>
      </trkpt>
      <trkpt lat="46.76477" lon="5.67014">
        <ele>528</ele>
        <time>2020-09-12T08:43:15.000Z</time>
      </trkpt>
      <trkpt lat="46.76479" lon="5.67026">
        <ele>527.59997558594</ele>
        <time>2020-09-12T08:43:16.000Z</time>
      </trkpt>
      <trkpt lat="46.7648" lon="5.67037">
        <ele>527.59997558594</ele>
        <time>2020-09-12T08:43:17.000Z</time>
      </trkpt>
      <trkpt lat="46.76483" lon="5.67061">
        <ele>527.40002441406</ele>
        <time>2020-09-12T08:43:19.000Z</time>
      </trkpt>
      <trkpt lat="46.76486" lon="5.67085">
        <ele>527.40002441406</ele>
        <time>2020-09-12T08:43:21.000Z</time>
      </trkpt>
      <trkpt lat="46.7649" lon="5.67109">
        <ele>527.20001220703</ele>
        <time>2020-09-12T08:43:23.000Z</time>
      </trkpt>
      <trkpt lat="46.76493" lon="5.67133">
        <ele>527</ele>
        <time>2020-09-12T08:43:25.000Z</time>
      </trkpt>
      <trkpt lat="46.76497" lon="5.67157">
        <ele>526.40002441406</ele>
        <time>2020-09-12T08:43:27.000Z</time>
      </trkpt>
      <trkpt lat="46.765" lon="5.67181">
        <ele>526.20001220703</ele>
        <time>2020-09-12T08:43:29.000Z</time>
      </trkpt>
      <trkpt lat="46.76502" lon="5.67193">
        <ele>526</ele>
        <time>2020-09-12T08:43:30.000Z</time>
      </trkpt>
      <trkpt lat="46.76504" lon="5.67205">
        <ele>526</ele>
        <time>2020-09-12T08:43:31.000Z</time>
      </trkpt>
      <trkpt lat="46.76507" lon="5.67229">
        <ele>525.59997558594</ele>
        <time>2020-09-12T08:43:33.000Z</time>
      </trkpt>
      <trkpt lat="46.7651" lon="5.67252">
        <ele>525.40002441406</ele>
        <time>2020-09-12T08:43:35.000Z</time>
      </trkpt>
      <trkpt lat="46.76513" lon="5.67275">
        <ele>525.20001220703</ele>
        <time>2020-09-12T08:43:37.000Z</time>
      </trkpt>
      <trkpt lat="46.76516" lon="5.67286">
        <ele>525</ele>
        <time>2020-09-12T08:43:38.000Z</time>
      </trkpt>
      <trkpt lat="46.76518" lon="5.67298">
        <ele>524.79998779297</ele>
        <time>2020-09-12T08:43:39.000Z</time>
      </trkpt>
      <trkpt lat="46.76522" lon="5.67322">
        <ele>524.20001220703</ele>
        <time>2020-09-12T08:43:41.000Z</time>
      </trkpt>
      <trkpt lat="46.76526" lon="5.67335">
        <ele>524</ele>
        <time>2020-09-12T08:43:42.000Z</time>
      </trkpt>
      <trkpt lat="46.76529" lon="5.67348">
        <ele>523.79998779297</ele>
        <time>2020-09-12T08:43:43.000Z</time>
      </trkpt>
      <trkpt lat="46.76534" lon="5.67374">
        <ele>523.40002441406</ele>
        <time>2020-09-12T08:43:45.000Z</time>
      </trkpt>
      <trkpt lat="46.76538" lon="5.67401">
        <ele>523</ele>
        <time>2020-09-12T08:43:47.000Z</time>
      </trkpt>
      <trkpt lat="46.76542" lon="5.67426">
        <ele>522.40002441406</ele>
        <time>2020-09-12T08:43:49.000Z</time>
      </trkpt>
      <trkpt lat="46.76544" lon="5.67438">
        <ele>522</ele>
        <time>2020-09-12T08:43:50.000Z</time>
      </trkpt>
      <trkpt lat="46.76546" lon="5.6745">
        <ele>521.59997558594</ele>
        <time>2020-09-12T08:43:51.000Z</time>
      </trkpt>
      <trkpt lat="46.76549" lon="5.67473">
        <ele>521.40002441406</ele>
        <time>2020-09-12T08:43:53.000Z</time>
      </trkpt>
      <trkpt lat="46.76552" lon="5.67496">
        <ele>521.40002441406</ele>
        <time>2020-09-12T08:43:55.000Z</time>
      </trkpt>
      <trkpt lat="46.76554" lon="5.67506">
        <ele>521.40002441406</ele>
        <time>2020-09-12T08:43:56.000Z</time>
      </trkpt>
      <trkpt lat="46.76555" lon="5.67516">
        <ele>521.40002441406</ele>
        <time>2020-09-12T08:43:57.000Z</time>
      </trkpt>
      <trkpt lat="46.76559" lon="5.67535">
        <ele>521.40002441406</ele>
        <time>2020-09-12T08:43:59.000Z</time>
      </trkpt>
      <trkpt lat="46.76562" lon="5.67555">
        <ele>521.40002441406</ele>
        <time>2020-09-12T08:44:01.000Z</time>
      </trkpt>
      <trkpt lat="46.76566" lon="5.67576">
        <ele>522</ele>
        <time>2020-09-12T08:44:03.000Z</time>
      </trkpt>
      <trkpt lat="46.76569" lon="5.67587">
        <ele>522.40002441406</ele>
        <time>2020-09-12T08:44:04.000Z</time>
      </trkpt>
      <trkpt lat="46.76571" lon="5.67597">
        <ele>522.59997558594</ele>
        <time>2020-09-12T08:44:05.000Z</time>
      </trkpt>
      <trkpt lat="46.76577" lon="5.67619">
        <ele>522.59997558594</ele>
        <time>2020-09-12T08:44:07.000Z</time>
      </trkpt>
      <trkpt lat="46.76583" lon="5.67642">
        <ele>522.79998779297</ele>
        <time>2020-09-12T08:44:09.000Z</time>
      </trkpt>
      <trkpt lat="46.76588" lon="5.67666">
        <ele>522.79998779297</ele>
        <time>2020-09-12T08:44:11.000Z</time>
      </trkpt>
      <trkpt lat="46.76591" lon="5.67678">
        <ele>522.79998779297</ele>
        <time>2020-09-12T08:44:12.000Z</time>
      </trkpt>
      <trkpt lat="46.76593" lon="5.67691">
        <ele>522.79998779297</ele>
        <time>2020-09-12T08:44:13.000Z</time>
      </trkpt>
      <trkpt lat="46.76597" lon="5.67718">
        <ele>522.20001220703</ele>
        <time>2020-09-12T08:44:15.000Z</time>
      </trkpt>
      <trkpt lat="46.76601" lon="5.67745">
        <ele>521.40002441406</ele>
        <time>2020-09-12T08:44:17.000Z</time>
      </trkpt>
      <trkpt lat="46.76602" lon="5.6776">
        <ele>521</ele>
        <time>2020-09-12T08:44:18.000Z</time>
      </trkpt>
      <trkpt lat="46.76604" lon="5.67774">
        <ele>520.59997558594</ele>
        <time>2020-09-12T08:44:19.000Z</time>
      </trkpt>
      <trkpt lat="46.76605" lon="5.67789">
        <ele>520.40002441406</ele>
        <time>2020-09-12T08:44:20.000Z</time>
      </trkpt>
      <trkpt lat="46.76607" lon="5.67803">
        <ele>519.79998779297</ele>
        <time>2020-09-12T08:44:21.000Z</time>
      </trkpt>
      <trkpt lat="46.7661" lon="5.67833">
        <ele>519.20001220703</ele>
        <time>2020-09-12T08:44:23.000Z</time>
      </trkpt>
      <trkpt lat="46.76612" lon="5.67862">
        <ele>518</ele>
        <time>2020-09-12T08:44:25.000Z</time>
      </trkpt>
      <trkpt lat="46.76613" lon="5.67891">
        <ele>516.79998779297</ele>
        <time>2020-09-12T08:44:27.000Z</time>
      </trkpt>
      <trkpt lat="46.76616" lon="5.67918">
        <ele>515.59997558594</ele>
        <time>2020-09-12T08:44:29.000Z</time>
      </trkpt>
      <trkpt lat="46.76617" lon="5.67931">
        <ele>515.20001220703</ele>
        <time>2020-09-12T08:44:30.000Z</time>
      </trkpt>
      <trkpt lat="46.76618" lon="5.67945">
        <ele>514.79998779297</ele>
        <time>2020-09-12T08:44:31.000Z</time>
      </trkpt>
      <trkpt lat="46.76619" lon="5.6797">
        <ele>514.40002441406</ele>
        <time>2020-09-12T08:44:33.000Z</time>
      </trkpt>
      <trkpt lat="46.7662" lon="5.67982">
        <ele>514.40002441406</ele>
        <time>2020-09-12T08:44:34.000Z</time>
      </trkpt>
      <trkpt lat="46.76621" lon="5.67994">
        <ele>514.40002441406</ele>
        <time>2020-09-12T08:44:35.000Z</time>
      </trkpt>
      <trkpt lat="46.76622" lon="5.68018">
        <ele>514.40002441406</ele>
        <time>2020-09-12T08:44:37.000Z</time>
      </trkpt>
      <trkpt lat="46.76622" lon="5.68041">
        <ele>514.40002441406</ele>
        <time>2020-09-12T08:44:39.000Z</time>
      </trkpt>
      <trkpt lat="46.76622" lon="5.68064">
        <ele>515</ele>
        <time>2020-09-12T08:44:41.000Z</time>
      </trkpt>
      <trkpt lat="46.76622" lon="5.68088">
        <ele>515.40002441406</ele>
        <time>2020-09-12T08:44:43.000Z</time>
      </trkpt>
      <trkpt lat="46.76621" lon="5.681">
        <ele>515.79998779297</ele>
        <time>2020-09-12T08:44:44.000Z</time>
      </trkpt>
      <trkpt lat="46.76621" lon="5.68112">
        <ele>515.79998779297</ele>
        <time>2020-09-12T08:44:45.000Z</time>
      </trkpt>
      <trkpt lat="46.76621" lon="5.68124">
        <ele>516</ele>
        <time>2020-09-12T08:44:46.000Z</time>
      </trkpt>
      <trkpt lat="46.76621" lon="5.68135">
        <ele>516</ele>
        <time>2020-09-12T08:44:47.000Z</time>
      </trkpt>
      <trkpt lat="46.76621" lon="5.68155">
        <ele>516.20001220703</ele>
        <time>2020-09-12T08:44:49.000Z</time>
      </trkpt>
      <trkpt lat="46.76621" lon="5.68173">
        <ele>516.20001220703</ele>
        <time>2020-09-12T08:44:51.000Z</time>
      </trkpt>
      <trkpt lat="46.76621" lon="5.68191">
        <ele>516.40002441406</ele>
        <time>2020-09-12T08:44:53.000Z</time>
      </trkpt>
      <trkpt lat="46.76622" lon="5.6821">
        <ele>516.40002441406</ele>
        <time>2020-09-12T08:44:55.000Z</time>
      </trkpt>
      <trkpt lat="46.76625" lon="5.68231">
        <ele>516.40002441406</ele>
        <time>2020-09-12T08:44:57.000Z</time>
      </trkpt>
      <trkpt lat="46.76628" lon="5.68254">
        <ele>516.40002441406</ele>
        <time>2020-09-12T08:44:59.000Z</time>
      </trkpt>
      <trkpt lat="46.76633" lon="5.68278">
        <ele>516.20001220703</ele>
        <time>2020-09-12T08:45:01.000Z</time>
      </trkpt>
      <trkpt lat="46.76637" lon="5.68305">
        <ele>516</ele>
        <time>2020-09-12T08:45:03.000Z</time>
      </trkpt>
      <trkpt lat="46.76641" lon="5.68333">
        <ele>516</ele>
        <time>2020-09-12T08:45:05.000Z</time>
      </trkpt>
      <trkpt lat="46.76643" lon="5.68362">
        <ele>515.59997558594</ele>
        <time>2020-09-12T08:45:07.000Z</time>
      </trkpt>
      <trkpt lat="46.76644" lon="5.68391">
        <ele>514.59997558594</ele>
        <time>2020-09-12T08:45:09.000Z</time>
      </trkpt>
      <trkpt lat="46.76644" lon="5.6842">
        <ele>513.20001220703</ele>
        <time>2020-09-12T08:45:11.000Z</time>
      </trkpt>
      <trkpt lat="46.76644" lon="5.68434">
        <ele>511.79998779297</ele>
        <time>2020-09-12T08:45:12.000Z</time>
      </trkpt>
      <trkpt lat="46.76644" lon="5.68448">
        <ele>511</ele>
        <time>2020-09-12T08:45:13.000Z</time>
      </trkpt>
      <trkpt lat="46.76644" lon="5.68461">
        <ele>510.39999389648</ele>
        <time>2020-09-12T08:45:14.000Z</time>
      </trkpt>
      <trkpt lat="46.76644" lon="5.68475">
        <ele>510.20001220703</ele>
        <time>2020-09-12T08:45:15.000Z</time>
      </trkpt>
      <trkpt lat="46.76643" lon="5.68501">
        <ele>510.20001220703</ele>
        <time>2020-09-12T08:45:17.000Z</time>
      </trkpt>
      <trkpt lat="46.76643" lon="5.68526">
        <ele>510</ele>
        <time>2020-09-12T08:45:19.000Z</time>
      </trkpt>
      <trkpt lat="46.76643" lon="5.68551">
        <ele>510</ele>
        <time>2020-09-12T08:45:21.000Z</time>
      </trkpt>
      <trkpt lat="46.76643" lon="5.68575">
        <ele>510</ele>
        <time>2020-09-12T08:45:23.000Z</time>
      </trkpt>
      <trkpt lat="46.76643" lon="5.68598">
        <ele>510.20001220703</ele>
        <time>2020-09-12T08:45:25.000Z</time>
      </trkpt>
      <trkpt lat="46.76643" lon="5.6861">
        <ele>510.39999389648</ele>
        <time>2020-09-12T08:45:26.000Z</time>
      </trkpt>
      <trkpt lat="46.76643" lon="5.68621">
        <ele>510.79998779297</ele>
        <time>2020-09-12T08:45:27.000Z</time>
      </trkpt>
      <trkpt lat="46.76643" lon="5.68644">
        <ele>511.20001220703</ele>
        <time>2020-09-12T08:45:29.000Z</time>
      </trkpt>
      <trkpt lat="46.76643" lon="5.68666">
        <ele>511.60000610352</ele>
        <time>2020-09-12T08:45:31.000Z</time>
      </trkpt>
      <trkpt lat="46.76643" lon="5.68687">
        <ele>511.79998779297</ele>
        <time>2020-09-12T08:45:33.000Z</time>
      </trkpt>
      <trkpt lat="46.76643" lon="5.68708">
        <ele>512.20001220703</ele>
        <time>2020-09-12T08:45:35.000Z</time>
      </trkpt>
      <trkpt lat="46.76643" lon="5.68729">
        <ele>512.59997558594</ele>
        <time>2020-09-12T08:45:37.000Z</time>
      </trkpt>
      <trkpt lat="46.76643" lon="5.68739">
        <ele>512.59997558594</ele>
        <time>2020-09-12T08:45:38.000Z</time>
      </trkpt>
      <trkpt lat="46.76643" lon="5.68749">
        <ele>513</ele>
        <time>2020-09-12T08:45:39.000Z</time>
      </trkpt>
      <trkpt lat="46.76644" lon="5.68768">
        <ele>513.40002441406</ele>
        <time>2020-09-12T08:45:41.000Z</time>
      </trkpt>
      <trkpt lat="46.76643" lon="5.68778">
        <ele>514</ele>
        <time>2020-09-12T08:45:42.000Z</time>
      </trkpt>
      <trkpt lat="46.76643" lon="5.68788">
        <ele>514.20001220703</ele>
        <time>2020-09-12T08:45:43.000Z</time>
      </trkpt>
      <trkpt lat="46.76643" lon="5.68807">
        <ele>514.59997558594</ele>
        <time>2020-09-12T08:45:45.000Z</time>
      </trkpt>
      <trkpt lat="46.76643" lon="5.68827">
        <ele>515</ele>
        <time>2020-09-12T08:45:47.000Z</time>
      </trkpt>
      <trkpt lat="46.76643" lon="5.68837">
        <ele>515</ele>
        <time>2020-09-12T08:45:48.000Z</time>
      </trkpt>
      <trkpt lat="46.76643" lon="5.68847">
        <ele>515.20001220703</ele>
        <time>2020-09-12T08:45:49.000Z</time>
      </trkpt>
      <trkpt lat="46.76643" lon="5.68866">
        <ele>515.20001220703</ele>
        <time>2020-09-12T08:45:51.000Z</time>
      </trkpt>
      <trkpt lat="46.76643" lon="5.68886">
        <ele>515.59997558594</ele>
        <time>2020-09-12T08:45:53.000Z</time>
      </trkpt>
      <trkpt lat="46.76642" lon="5.68905">
        <ele>515.79998779297</ele>
        <time>2020-09-12T08:45:55.000Z</time>
      </trkpt>
      <trkpt lat="46.76642" lon="5.68924">
        <ele>516.20001220703</ele>
        <time>2020-09-12T08:45:57.000Z</time>
      </trkpt>
      <trkpt lat="46.76642" lon="5.68943">
        <ele>517</ele>
        <time>2020-09-12T08:45:59.000Z</time>
      </trkpt>
      <trkpt lat="46.76643" lon="5.68953">
        <ele>517.20001220703</ele>
        <time>2020-09-12T08:46:00.000Z</time>
      </trkpt>
      <trkpt lat="46.76643" lon="5.68963">
        <ele>517.40002441406</ele>
        <time>2020-09-12T08:46:01.000Z</time>
      </trkpt>
      <trkpt lat="46.76644" lon="5.68973">
        <ele>517.40002441406</ele>
        <time>2020-09-12T08:46:02.000Z</time>
      </trkpt>
      <trkpt lat="46.76645" lon="5.68983">
        <ele>517.59997558594</ele>
        <time>2020-09-12T08:46:03.000Z</time>
      </trkpt>
      <trkpt lat="46.76647" lon="5.69003">
        <ele>517.79998779297</ele>
        <time>2020-09-12T08:46:05.000Z</time>
      </trkpt>
      <trkpt lat="46.76649" lon="5.69023">
        <ele>518.40002441406</ele>
        <time>2020-09-12T08:46:07.000Z</time>
      </trkpt>
      <trkpt lat="46.7665" lon="5.69043">
        <ele>518.40002441406</ele>
        <time>2020-09-12T08:46:09.000Z</time>
      </trkpt>
      <trkpt lat="46.76651" lon="5.69064">
        <ele>518.59997558594</ele>
        <time>2020-09-12T08:46:11.000Z</time>
      </trkpt>
      <trkpt lat="46.76653" lon="5.69084">
        <ele>518.79998779297</ele>
        <time>2020-09-12T08:46:13.000Z</time>
      </trkpt>
      <trkpt lat="46.76656" lon="5.69104">
        <ele>518.79998779297</ele>
        <time>2020-09-12T08:46:15.000Z</time>
      </trkpt>
      <trkpt lat="46.76658" lon="5.69123">
        <ele>519.20001220703</ele>
        <time>2020-09-12T08:46:17.000Z</time>
      </trkpt>
      <trkpt lat="46.7666" lon="5.69142">
        <ele>519.40002441406</ele>
        <time>2020-09-12T08:46:19.000Z</time>
      </trkpt>
      <trkpt lat="46.76662" lon="5.69161">
        <ele>519.59997558594</ele>
        <time>2020-09-12T08:46:21.000Z</time>
      </trkpt>
      <trkpt lat="46.76665" lon="5.6918">
        <ele>519.59997558594</ele>
        <time>2020-09-12T08:46:23.000Z</time>
      </trkpt>
      <trkpt lat="46.76667" lon="5.69199">
        <ele>520</ele>
        <time>2020-09-12T08:46:25.000Z</time>
      </trkpt>
      <trkpt lat="46.76669" lon="5.69219">
        <ele>520.40002441406</ele>
        <time>2020-09-12T08:46:27.000Z</time>
      </trkpt>
      <trkpt lat="46.76671" lon="5.69229">
        <ele>520.79998779297</ele>
        <time>2020-09-12T08:46:28.000Z</time>
      </trkpt>
      <trkpt lat="46.76673" lon="5.69239">
        <ele>521.20001220703</ele>
        <time>2020-09-12T08:46:29.000Z</time>
      </trkpt>
      <trkpt lat="46.76676" lon="5.6926">
        <ele>521.40002441406</ele>
        <time>2020-09-12T08:46:31.000Z</time>
      </trkpt>
      <trkpt lat="46.76681" lon="5.69282">
        <ele>521.40002441406</ele>
        <time>2020-09-12T08:46:33.000Z</time>
      </trkpt>
      <trkpt lat="46.76686" lon="5.69305">
        <ele>521.40002441406</ele>
        <time>2020-09-12T08:46:35.000Z</time>
      </trkpt>
      <trkpt lat="46.76692" lon="5.69329">
        <ele>521.40002441406</ele>
        <time>2020-09-12T08:46:37.000Z</time>
      </trkpt>
      <trkpt lat="46.76698" lon="5.69354">
        <ele>521.40002441406</ele>
        <time>2020-09-12T08:46:39.000Z</time>
      </trkpt>
      <trkpt lat="46.76705" lon="5.69381">
        <ele>521</ele>
        <time>2020-09-12T08:46:41.000Z</time>
      </trkpt>
      <trkpt lat="46.76712" lon="5.69408">
        <ele>520.20001220703</ele>
        <time>2020-09-12T08:46:43.000Z</time>
      </trkpt>
      <trkpt lat="46.76719" lon="5.69436">
        <ele>519.59997558594</ele>
        <time>2020-09-12T08:46:45.000Z</time>
      </trkpt>
      <trkpt lat="46.76722" lon="5.69451">
        <ele>519.40002441406</ele>
        <time>2020-09-12T08:46:46.000Z</time>
      </trkpt>
      <trkpt lat="46.76726" lon="5.69465">
        <ele>518.79998779297</ele>
        <time>2020-09-12T08:46:47.000Z</time>
      </trkpt>
      <trkpt lat="46.7673" lon="5.6948">
        <ele>518.20001220703</ele>
        <time>2020-09-12T08:46:48.000Z</time>
      </trkpt>
      <trkpt lat="46.76733" lon="5.69495">
        <ele>517.40002441406</ele>
        <time>2020-09-12T08:46:49.000Z</time>
      </trkpt>
      <trkpt lat="46.76735" lon="5.6951">
        <ele>516.59997558594</ele>
        <time>2020-09-12T08:46:50.000Z</time>
      </trkpt>
      <trkpt lat="46.76737" lon="5.69525">
        <ele>516</ele>
        <time>2020-09-12T08:46:51.000Z</time>
      </trkpt>
      <trkpt lat="46.76739" lon="5.6954">
        <ele>515.20001220703</ele>
        <time>2020-09-12T08:46:52.000Z</time>
      </trkpt>
      <trkpt lat="46.7674" lon="5.69555">
        <ele>514.59997558594</ele>
        <time>2020-09-12T08:46:53.000Z</time>
      </trkpt>
      <trkpt lat="46.76741" lon="5.6957">
        <ele>514</ele>
        <time>2020-09-12T08:46:54.000Z</time>
      </trkpt>
      <trkpt lat="46.76742" lon="5.69585">
        <ele>513.40002441406</ele>
        <time>2020-09-12T08:46:55.000Z</time>
      </trkpt>
      <trkpt lat="46.76742" lon="5.69599">
        <ele>512.59997558594</ele>
        <time>2020-09-12T08:46:56.000Z</time>
      </trkpt>
      <trkpt lat="46.76742" lon="5.69613">
        <ele>512.20001220703</ele>
        <time>2020-09-12T08:46:57.000Z</time>
      </trkpt>
      <trkpt lat="46.76743" lon="5.69641">
        <ele>511.79998779297</ele>
        <time>2020-09-12T08:46:59.000Z</time>
      </trkpt>
      <trkpt lat="46.76741" lon="5.69667">
        <ele>511.79998779297</ele>
        <time>2020-09-12T08:47:01.000Z</time>
      </trkpt>
      <trkpt lat="46.76739" lon="5.69691">
        <ele>511.79998779297</ele>
        <time>2020-09-12T08:47:03.000Z</time>
      </trkpt>
      <trkpt lat="46.76735" lon="5.69714">
        <ele>511.79998779297</ele>
        <time>2020-09-12T08:47:05.000Z</time>
      </trkpt>
      <trkpt lat="46.76733" lon="5.69725">
        <ele>511.79998779297</ele>
        <time>2020-09-12T08:47:06.000Z</time>
      </trkpt>
      <trkpt lat="46.76731" lon="5.69736">
        <ele>512</ele>
        <time>2020-09-12T08:47:07.000Z</time>
      </trkpt>
      <trkpt lat="46.76727" lon="5.69757">
        <ele>512.40002441406</ele>
        <time>2020-09-12T08:47:09.000Z</time>
      </trkpt>
      <trkpt lat="46.76724" lon="5.69779">
        <ele>513.20001220703</ele>
        <time>2020-09-12T08:47:11.000Z</time>
      </trkpt>
      <trkpt lat="46.76721" lon="5.69789">
        <ele>513.79998779297</ele>
        <time>2020-09-12T08:47:12.000Z</time>
      </trkpt>
      <trkpt lat="46.76719" lon="5.698">
        <ele>514</ele>
        <time>2020-09-12T08:47:13.000Z</time>
      </trkpt>
      <trkpt lat="46.76715" lon="5.69821">
        <ele>514.79998779297</ele>
        <time>2020-09-12T08:47:15.000Z</time>
      </trkpt>
      <trkpt lat="46.7671" lon="5.69842">
        <ele>515.20001220703</ele>
        <time>2020-09-12T08:47:17.000Z</time>
      </trkpt>
      <trkpt lat="46.76706" lon="5.69863">
        <ele>515.79998779297</ele>
        <time>2020-09-12T08:47:19.000Z</time>
      </trkpt>
      <trkpt lat="46.76703" lon="5.69874">
        <ele>515.79998779297</ele>
        <time>2020-09-12T08:47:20.000Z</time>
      </trkpt>
      <trkpt lat="46.76701" lon="5.69885">
        <ele>516.20001220703</ele>
        <time>2020-09-12T08:47:21.000Z</time>
      </trkpt>
      <trkpt lat="46.76696" lon="5.69908">
        <ele>516.40002441406</ele>
        <time>2020-09-12T08:47:23.000Z</time>
      </trkpt>
      <trkpt lat="46.76691" lon="5.69932">
        <ele>516.40002441406</ele>
        <time>2020-09-12T08:47:25.000Z</time>
      </trkpt>
      <trkpt lat="46.76687" lon="5.69956">
        <ele>516.40002441406</ele>
        <time>2020-09-12T08:47:27.000Z</time>
      </trkpt>
      <trkpt lat="46.76683" lon="5.69982">
        <ele>516.40002441406</ele>
        <time>2020-09-12T08:47:29.000Z</time>
      </trkpt>
      <trkpt lat="46.76679" lon="5.70009">
        <ele>516.20001220703</ele>
        <time>2020-09-12T08:47:31.000Z</time>
      </trkpt>
      <trkpt lat="46.76676" lon="5.70037">
        <ele>515.79998779297</ele>
        <time>2020-09-12T08:47:33.000Z</time>
      </trkpt>
      <trkpt lat="46.76673" lon="5.70066">
        <ele>515.59997558594</ele>
        <time>2020-09-12T08:47:35.000Z</time>
      </trkpt>
      <trkpt lat="46.7667" lon="5.70094">
        <ele>514.79998779297</ele>
        <time>2020-09-12T08:47:37.000Z</time>
      </trkpt>
      <trkpt lat="46.76667" lon="5.70123">
        <ele>514.59997558594</ele>
        <time>2020-09-12T08:47:39.000Z</time>
      </trkpt>
      <trkpt lat="46.76664" lon="5.70151">
        <ele>513.79998779297</ele>
        <time>2020-09-12T08:47:41.000Z</time>
      </trkpt>
      <trkpt lat="46.76663" lon="5.70165">
        <ele>513.20001220703</ele>
        <time>2020-09-12T08:47:42.000Z</time>
      </trkpt>
      <trkpt lat="46.76661" lon="5.70179">
        <ele>512.59997558594</ele>
        <time>2020-09-12T08:47:43.000Z</time>
      </trkpt>
      <trkpt lat="46.7666" lon="5.70194">
        <ele>512</ele>
        <time>2020-09-12T08:47:44.000Z</time>
      </trkpt>
      <trkpt lat="46.76658" lon="5.70208">
        <ele>511.39999389648</ele>
        <time>2020-09-12T08:47:45.000Z</time>
      </trkpt>
      <trkpt lat="46.76656" lon="5.70222">
        <ele>511</ele>
        <time>2020-09-12T08:47:46.000Z</time>
      </trkpt>
      <trkpt lat="46.76655" lon="5.70236">
        <ele>510.79998779297</ele>
        <time>2020-09-12T08:47:47.000Z</time>
      </trkpt>
      <trkpt lat="46.76651" lon="5.70265">
        <ele>510.39999389648</ele>
        <time>2020-09-12T08:47:49.000Z</time>
      </trkpt>
      <trkpt lat="46.76648" lon="5.70293">
        <ele>510.20001220703</ele>
        <time>2020-09-12T08:47:51.000Z</time>
      </trkpt>
      <trkpt lat="46.76645" lon="5.7032">
        <ele>510</ele>
        <time>2020-09-12T08:47:53.000Z</time>
      </trkpt>
      <trkpt lat="46.76642" lon="5.70347">
        <ele>510</ele>
        <time>2020-09-12T08:47:55.000Z</time>
      </trkpt>
      <trkpt lat="46.76639" lon="5.70374">
        <ele>509.79998779297</ele>
        <time>2020-09-12T08:47:57.000Z</time>
      </trkpt>
      <trkpt lat="46.76636" lon="5.70401">
        <ele>509.79998779297</ele>
        <time>2020-09-12T08:47:59.000Z</time>
      </trkpt>
      <trkpt lat="46.76633" lon="5.70427">
        <ele>509.79998779297</ele>
        <time>2020-09-12T08:48:01.000Z</time>
      </trkpt>
      <trkpt lat="46.7663" lon="5.70453">
        <ele>509.60000610352</ele>
        <time>2020-09-12T08:48:03.000Z</time>
      </trkpt>
      <trkpt lat="46.76627" lon="5.70477">
        <ele>509.60000610352</ele>
        <time>2020-09-12T08:48:05.000Z</time>
      </trkpt>
      <trkpt lat="46.76626" lon="5.70489">
        <ele>509.60000610352</ele>
        <time>2020-09-12T08:48:06.000Z</time>
      </trkpt>
      <trkpt lat="46.76624" lon="5.70501">
        <ele>509.79998779297</ele>
        <time>2020-09-12T08:48:07.000Z</time>
      </trkpt>
      <trkpt lat="46.76621" lon="5.70524">
        <ele>509.79998779297</ele>
        <time>2020-09-12T08:48:09.000Z</time>
      </trkpt>
      <trkpt lat="46.76618" lon="5.70547">
        <ele>509.79998779297</ele>
        <time>2020-09-12T08:48:11.000Z</time>
      </trkpt>
      <trkpt lat="46.76615" lon="5.70568">
        <ele>510.20001220703</ele>
        <time>2020-09-12T08:48:13.000Z</time>
      </trkpt>
      <trkpt lat="46.76613" lon="5.70578">
        <ele>510.60000610352</ele>
        <time>2020-09-12T08:48:14.000Z</time>
      </trkpt>
      <trkpt lat="46.76611" lon="5.70589">
        <ele>511</ele>
        <time>2020-09-12T08:48:15.000Z</time>
      </trkpt>
      <trkpt lat="46.76606" lon="5.70609">
        <ele>511.79998779297</ele>
        <time>2020-09-12T08:48:17.000Z</time>
      </trkpt>
      <trkpt lat="46.76604" lon="5.7062">
        <ele>512</ele>
        <time>2020-09-12T08:48:18.000Z</time>
      </trkpt>
      <trkpt lat="46.76602" lon="5.7063">
        <ele>512.40002441406</ele>
        <time>2020-09-12T08:48:19.000Z</time>
      </trkpt>
      <trkpt lat="46.76598" lon="5.70649">
        <ele>513</ele>
        <time>2020-09-12T08:48:21.000Z</time>
      </trkpt>
      <trkpt lat="46.76595" lon="5.70659">
        <ele>513.20001220703</ele>
        <time>2020-09-12T08:48:22.000Z</time>
      </trkpt>
      <trkpt lat="46.76593" lon="5.70668">
        <ele>513.59997558594</ele>
        <time>2020-09-12T08:48:23.000Z</time>
      </trkpt>
      <trkpt lat="46.76591" lon="5.70677">
        <ele>513.79998779297</ele>
        <time>2020-09-12T08:48:24.000Z</time>
      </trkpt>
      <trkpt lat="46.76589" lon="5.70687">
        <ele>514.20001220703</ele>
        <time>2020-09-12T08:48:25.000Z</time>
      </trkpt>
      <trkpt lat="46.76587" lon="5.70697">
        <ele>514.40002441406</ele>
        <time>2020-09-12T08:48:26.000Z</time>
      </trkpt>
      <trkpt lat="46.76584" lon="5.70706">
        <ele>514.79998779297</ele>
        <time>2020-09-12T08:48:27.000Z</time>
      </trkpt>
      <trkpt lat="46.76582" lon="5.70717">
        <ele>515</ele>
        <time>2020-09-12T08:48:28.000Z</time>
      </trkpt>
      <trkpt lat="46.76577" lon="5.70737">
        <ele>515.59997558594</ele>
        <time>2020-09-12T08:48:30.000Z</time>
      </trkpt>
      <trkpt lat="46.76573" lon="5.70758">
        <ele>516.20001220703</ele>
        <time>2020-09-12T08:48:32.000Z</time>
      </trkpt>
      <trkpt lat="46.7657" lon="5.70769">
        <ele>516.40002441406</ele>
        <time>2020-09-12T08:48:33.000Z</time>
      </trkpt>
      <trkpt lat="46.76568" lon="5.7078">
        <ele>516.59997558594</ele>
        <time>2020-09-12T08:48:34.000Z</time>
      </trkpt>
      <trkpt lat="46.76565" lon="5.70791">
        <ele>516.79998779297</ele>
        <time>2020-09-12T08:48:35.000Z</time>
      </trkpt>
      <trkpt lat="46.7656" lon="5.70814">
        <ele>516.79998779297</ele>
        <time>2020-09-12T08:48:37.000Z</time>
      </trkpt>
      <trkpt lat="46.76554" lon="5.70837">
        <ele>516.79998779297</ele>
        <time>2020-09-12T08:48:39.000Z</time>
      </trkpt>
      <trkpt lat="46.76548" lon="5.70862">
        <ele>516.79998779297</ele>
        <time>2020-09-12T08:48:41.000Z</time>
      </trkpt>
      <trkpt lat="46.76543" lon="5.70887">
        <ele>516.79998779297</ele>
        <time>2020-09-12T08:48:43.000Z</time>
      </trkpt>
      <trkpt lat="46.7654" lon="5.709">
        <ele>516.79998779297</ele>
        <time>2020-09-12T08:48:44.000Z</time>
      </trkpt>
      <trkpt lat="46.76538" lon="5.70914">
        <ele>516.59997558594</ele>
        <time>2020-09-12T08:48:45.000Z</time>
      </trkpt>
      <trkpt lat="46.76533" lon="5.70943">
        <ele>516.20001220703</ele>
        <time>2020-09-12T08:48:47.000Z</time>
      </trkpt>
      <trkpt lat="46.76529" lon="5.70972">
        <ele>515.40002441406</ele>
        <time>2020-09-12T08:48:49.000Z</time>
      </trkpt>
      <trkpt lat="46.76527" lon="5.70987">
        <ele>515</ele>
        <time>2020-09-12T08:48:50.000Z</time>
      </trkpt>
      <trkpt lat="46.76526" lon="5.71002">
        <ele>514.59997558594</ele>
        <time>2020-09-12T08:48:51.000Z</time>
      </trkpt>
      <trkpt lat="46.76524" lon="5.71017">
        <ele>514</ele>
        <time>2020-09-12T08:48:52.000Z</time>
      </trkpt>
      <trkpt lat="46.76522" lon="5.71032">
        <ele>513.40002441406</ele>
        <time>2020-09-12T08:48:53.000Z</time>
      </trkpt>
      <trkpt lat="46.7652" lon="5.71047">
        <ele>512.59997558594</ele>
        <time>2020-09-12T08:48:54.000Z</time>
      </trkpt>
      <trkpt lat="46.76519" lon="5.71062">
        <ele>511.79998779297</ele>
        <time>2020-09-12T08:48:55.000Z</time>
      </trkpt>
      <trkpt lat="46.76517" lon="5.71076">
        <ele>511</ele>
        <time>2020-09-12T08:48:56.000Z</time>
      </trkpt>
      <trkpt lat="46.76515" lon="5.71091">
        <ele>510.39999389648</ele>
        <time>2020-09-12T08:48:57.000Z</time>
      </trkpt>
      <trkpt lat="46.76514" lon="5.71107">
        <ele>510</ele>
        <time>2020-09-12T08:48:58.000Z</time>
      </trkpt>
      <trkpt lat="46.76512" lon="5.71122">
        <ele>509.60000610352</ele>
        <time>2020-09-12T08:48:59.000Z</time>
      </trkpt>
      <trkpt lat="46.76511" lon="5.71136">
        <ele>509.39999389648</ele>
        <time>2020-09-12T08:49:00.000Z</time>
      </trkpt>
      <trkpt lat="46.76509" lon="5.71151">
        <ele>509.39999389648</ele>
        <time>2020-09-12T08:49:01.000Z</time>
      </trkpt>
      <trkpt lat="46.76506" lon="5.7118">
        <ele>508.79998779297</ele>
        <time>2020-09-12T08:49:03.000Z</time>
      </trkpt>
      <trkpt lat="46.76504" lon="5.71208">
        <ele>508</ele>
        <time>2020-09-12T08:49:05.000Z</time>
      </trkpt>
      <trkpt lat="46.76502" lon="5.71222">
        <ele>507.79998779297</ele>
        <time>2020-09-12T08:49:06.000Z</time>
      </trkpt>
      <trkpt lat="46.765" lon="5.71236">
        <ele>507.60000610352</ele>
        <time>2020-09-12T08:49:07.000Z</time>
      </trkpt>
      <trkpt lat="46.76498" lon="5.71264">
        <ele>507.20001220703</ele>
        <time>2020-09-12T08:49:09.000Z</time>
      </trkpt>
      <trkpt lat="46.76495" lon="5.71292">
        <ele>507.20001220703</ele>
        <time>2020-09-12T08:49:11.000Z</time>
      </trkpt>
      <trkpt lat="46.76492" lon="5.7132">
        <ele>507</ele>
        <time>2020-09-12T08:49:13.000Z</time>
      </trkpt>
      <trkpt lat="46.76489" lon="5.71348">
        <ele>507</ele>
        <time>2020-09-12T08:49:15.000Z</time>
      </trkpt>
      <trkpt lat="46.76486" lon="5.71376">
        <ele>507</ele>
        <time>2020-09-12T08:49:17.000Z</time>
      </trkpt>
      <trkpt lat="46.76483" lon="5.71404">
        <ele>507</ele>
        <time>2020-09-12T08:49:19.000Z</time>
      </trkpt>
      <trkpt lat="46.76481" lon="5.71417">
        <ele>506.60000610352</ele>
        <time>2020-09-12T08:49:20.000Z</time>
      </trkpt>
      <trkpt lat="46.76479" lon="5.71431">
        <ele>506.39999389648</ele>
        <time>2020-09-12T08:49:21.000Z</time>
      </trkpt>
      <trkpt lat="46.76476" lon="5.71458">
        <ele>505.79998779297</ele>
        <time>2020-09-12T08:49:23.000Z</time>
      </trkpt>
      <trkpt lat="46.76475" lon="5.71472">
        <ele>505.60000610352</ele>
        <time>2020-09-12T08:49:24.000Z</time>
      </trkpt>
      <trkpt lat="46.76473" lon="5.71485">
        <ele>505.60000610352</ele>
        <time>2020-09-12T08:49:25.000Z</time>
      </trkpt>
      <trkpt lat="46.7647" lon="5.71512">
        <ele>505.39999389648</ele>
        <time>2020-09-12T08:49:27.000Z</time>
      </trkpt>
      <trkpt lat="46.76469" lon="5.71526">
        <ele>505.39999389648</ele>
        <time>2020-09-12T08:49:28.000Z</time>
      </trkpt>
      <trkpt lat="46.76467" lon="5.71539">
        <ele>505.39999389648</ele>
        <time>2020-09-12T08:49:29.000Z</time>
      </trkpt>
      <trkpt lat="46.76465" lon="5.71565">
        <ele>505.20001220703</ele>
        <time>2020-09-12T08:49:31.000Z</time>
      </trkpt>
      <trkpt lat="46.76462" lon="5.7159">
        <ele>505.20001220703</ele>
        <time>2020-09-12T08:49:33.000Z</time>
      </trkpt>
      <trkpt lat="46.76459" lon="5.71614">
        <ele>505.20001220703</ele>
        <time>2020-09-12T08:49:35.000Z</time>
      </trkpt>
      <trkpt lat="46.76456" lon="5.71637">
        <ele>505.20001220703</ele>
        <time>2020-09-12T08:49:37.000Z</time>
      </trkpt>
      <trkpt lat="46.76453" lon="5.71658">
        <ele>505.20001220703</ele>
        <time>2020-09-12T08:49:39.000Z</time>
      </trkpt>
      <trkpt lat="46.76451" lon="5.71679">
        <ele>505.39999389648</ele>
        <time>2020-09-12T08:49:41.000Z</time>
      </trkpt>
      <trkpt lat="46.76449" lon="5.71688">
        <ele>505.39999389648</ele>
        <time>2020-09-12T08:49:42.000Z</time>
      </trkpt>
      <trkpt lat="46.76448" lon="5.71698">
        <ele>505.39999389648</ele>
        <time>2020-09-12T08:49:43.000Z</time>
      </trkpt>
      <trkpt lat="46.76445" lon="5.71716">
        <ele>506</ele>
        <time>2020-09-12T08:49:45.000Z</time>
      </trkpt>
      <trkpt lat="46.76441" lon="5.71733">
        <ele>506.39999389648</ele>
        <time>2020-09-12T08:49:47.000Z</time>
      </trkpt>
      <trkpt lat="46.76439" lon="5.71742">
        <ele>506.39999389648</ele>
        <time>2020-09-12T08:49:48.000Z</time>
      </trkpt>
      <trkpt lat="46.76438" lon="5.71751">
        <ele>506.60000610352</ele>
        <time>2020-09-12T08:49:49.000Z</time>
      </trkpt>
      <trkpt lat="46.76433" lon="5.71767">
        <ele>507.39999389648</ele>
        <time>2020-09-12T08:49:51.000Z</time>
      </trkpt>
      <trkpt lat="46.76429" lon="5.71784">
        <ele>508</ele>
        <time>2020-09-12T08:49:53.000Z</time>
      </trkpt>
      <trkpt lat="46.76425" lon="5.718">
        <ele>508.39999389648</ele>
        <time>2020-09-12T08:49:55.000Z</time>
      </trkpt>
      <trkpt lat="46.7642" lon="5.71816">
        <ele>509</ele>
        <time>2020-09-12T08:49:57.000Z</time>
      </trkpt>
      <trkpt lat="46.76415" lon="5.71831">
        <ele>509.39999389648</ele>
        <time>2020-09-12T08:49:59.000Z</time>
      </trkpt>
      <trkpt lat="46.76413" lon="5.71839">
        <ele>509.79998779297</ele>
        <time>2020-09-12T08:50:00.000Z</time>
      </trkpt>
      <trkpt lat="46.7641" lon="5.71848">
        <ele>510.20001220703</ele>
        <time>2020-09-12T08:50:01.000Z</time>
      </trkpt>
      <trkpt lat="46.76405" lon="5.71864">
        <ele>510.79998779297</ele>
        <time>2020-09-12T08:50:03.000Z</time>
      </trkpt>
      <trkpt lat="46.764" lon="5.71881">
        <ele>511.20001220703</ele>
        <time>2020-09-12T08:50:05.000Z</time>
      </trkpt>
      <trkpt lat="46.76397" lon="5.7189">
        <ele>511.20001220703</ele>
        <time>2020-09-12T08:50:06.000Z</time>
      </trkpt>
      <trkpt lat="46.76394" lon="5.71898">
        <ele>511.39999389648</ele>
        <time>2020-09-12T08:50:07.000Z</time>
      </trkpt>
      <trkpt lat="46.76389" lon="5.71915">
        <ele>511.60000610352</ele>
        <time>2020-09-12T08:50:09.000Z</time>
      </trkpt>
      <trkpt lat="46.76384" lon="5.71933">
        <ele>511.79998779297</ele>
        <time>2020-09-12T08:50:11.000Z</time>
      </trkpt>
      <trkpt lat="46.76379" lon="5.71951">
        <ele>512</ele>
        <time>2020-09-12T08:50:13.000Z</time>
      </trkpt>
      <trkpt lat="46.76376" lon="5.7196">
        <ele>512</ele>
        <time>2020-09-12T08:50:14.000Z</time>
      </trkpt>
      <trkpt lat="46.76373" lon="5.71969">
        <ele>512</ele>
        <time>2020-09-12T08:50:15.000Z</time>
      </trkpt>
      <trkpt lat="46.76368" lon="5.71989">
        <ele>512</ele>
        <time>2020-09-12T08:50:17.000Z</time>
      </trkpt>
      <trkpt lat="46.76364" lon="5.72009">
        <ele>512</ele>
        <time>2020-09-12T08:50:19.000Z</time>
      </trkpt>
      <trkpt lat="46.7636" lon="5.7203">
        <ele>512</ele>
        <time>2020-09-12T08:50:21.000Z</time>
      </trkpt>
      <trkpt lat="46.76356" lon="5.72052">
        <ele>512</ele>
        <time>2020-09-12T08:50:23.000Z</time>
      </trkpt>
      <trkpt lat="46.76353" lon="5.72073">
        <ele>511.60000610352</ele>
        <time>2020-09-12T08:50:25.000Z</time>
      </trkpt>
      <trkpt lat="46.76349" lon="5.72095">
        <ele>511.39999389648</ele>
        <time>2020-09-12T08:50:27.000Z</time>
      </trkpt>
      <trkpt lat="46.76345" lon="5.72117">
        <ele>511</ele>
        <time>2020-09-12T08:50:29.000Z</time>
      </trkpt>
      <trkpt lat="46.76343" lon="5.72128">
        <ele>510.79998779297</ele>
        <time>2020-09-12T08:50:30.000Z</time>
      </trkpt>
      <trkpt lat="46.76342" lon="5.72139">
        <ele>510.60000610352</ele>
        <time>2020-09-12T08:50:31.000Z</time>
      </trkpt>
      <trkpt lat="46.7634" lon="5.72151">
        <ele>510.39999389648</ele>
        <time>2020-09-12T08:50:32.000Z</time>
      </trkpt>
      <trkpt lat="46.76338" lon="5.72162">
        <ele>510.20001220703</ele>
        <time>2020-09-12T08:50:33.000Z</time>
      </trkpt>
      <trkpt lat="46.76333" lon="5.72185">
        <ele>510</ele>
        <time>2020-09-12T08:50:35.000Z</time>
      </trkpt>
      <trkpt lat="46.76327" lon="5.72207">
        <ele>509.79998779297</ele>
        <time>2020-09-12T08:50:37.000Z</time>
      </trkpt>
      <trkpt lat="46.76324" lon="5.72218">
        <ele>509.79998779297</ele>
        <time>2020-09-12T08:50:38.000Z</time>
      </trkpt>
      <trkpt lat="46.76321" lon="5.72229">
        <ele>509.79998779297</ele>
        <time>2020-09-12T08:50:39.000Z</time>
      </trkpt>
      <trkpt lat="46.76314" lon="5.72251">
        <ele>509.79998779297</ele>
        <time>2020-09-12T08:50:41.000Z</time>
      </trkpt>
      <trkpt lat="46.76307" lon="5.72272">
        <ele>509.79998779297</ele>
        <time>2020-09-12T08:50:43.000Z</time>
      </trkpt>
      <trkpt lat="46.76301" lon="5.72292">
        <ele>509.79998779297</ele>
        <time>2020-09-12T08:50:45.000Z</time>
      </trkpt>
      <trkpt lat="46.76297" lon="5.72302">
        <ele>509.79998779297</ele>
        <time>2020-09-12T08:50:46.000Z</time>
      </trkpt>
      <trkpt lat="46.76294" lon="5.72312">
        <ele>509.79998779297</ele>
        <time>2020-09-12T08:50:47.000Z</time>
      </trkpt>
      <trkpt lat="46.76287" lon="5.72332">
        <ele>509.79998779297</ele>
        <time>2020-09-12T08:50:49.000Z</time>
      </trkpt>
      <trkpt lat="46.7628" lon="5.72353">
        <ele>510</ele>
        <time>2020-09-12T08:50:51.000Z</time>
      </trkpt>
      <trkpt lat="46.76274" lon="5.72373">
        <ele>510.20001220703</ele>
        <time>2020-09-12T08:50:53.000Z</time>
      </trkpt>
      <trkpt lat="46.76267" lon="5.72392">
        <ele>510.39999389648</ele>
        <time>2020-09-12T08:50:55.000Z</time>
      </trkpt>
      <trkpt lat="46.7626" lon="5.72411">
        <ele>510.39999389648</ele>
        <time>2020-09-12T08:50:57.000Z</time>
      </trkpt>
      <trkpt lat="46.76256" lon="5.72421">
        <ele>510.60000610352</ele>
        <time>2020-09-12T08:50:58.000Z</time>
      </trkpt>
      <trkpt lat="46.76251" lon="5.72429">
        <ele>510.60000610352</ele>
        <time>2020-09-12T08:50:59.000Z</time>
      </trkpt>
      <trkpt lat="46.76239" lon="5.72443">
        <ele>510.79998779297</ele>
        <time>2020-09-12T08:51:01.000Z</time>
      </trkpt>
      <trkpt lat="46.76233" lon="5.7245">
        <ele>511</ele>
        <time>2020-09-12T08:51:02.000Z</time>
      </trkpt>
      <trkpt lat="46.76227" lon="5.72456">
        <ele>511</ele>
        <time>2020-09-12T08:51:03.000Z</time>
      </trkpt>
      <trkpt lat="46.76214" lon="5.72467">
        <ele>511.20001220703</ele>
        <time>2020-09-12T08:51:05.000Z</time>
      </trkpt>
      <trkpt lat="46.76202" lon="5.72479">
        <ele>511.39999389648</ele>
        <time>2020-09-12T08:51:07.000Z</time>
      </trkpt>
      <trkpt lat="46.76189" lon="5.72491">
        <ele>511.39999389648</ele>
        <time>2020-09-12T08:51:09.000Z</time>
      </trkpt>
      <trkpt lat="46.76177" lon="5.72503">
        <ele>511.60000610352</ele>
        <time>2020-09-12T08:51:11.000Z</time>
      </trkpt>
      <trkpt lat="46.76171" lon="5.72509">
        <ele>511.79998779297</ele>
        <time>2020-09-12T08:51:12.000Z</time>
      </trkpt>
      <trkpt lat="46.76165" lon="5.72515">
        <ele>511.79998779297</ele>
        <time>2020-09-12T08:51:13.000Z</time>
      </trkpt>
      <trkpt lat="46.76153" lon="5.72527">
        <ele>512</ele>
        <time>2020-09-12T08:51:15.000Z</time>
      </trkpt>
      <trkpt lat="46.76141" lon="5.72538">
        <ele>512.59997558594</ele>
        <time>2020-09-12T08:51:17.000Z</time>
      </trkpt>
      <trkpt lat="46.76129" lon="5.72549">
        <ele>513</ele>
        <time>2020-09-12T08:51:19.000Z</time>
      </trkpt>
      <trkpt lat="46.76117" lon="5.72559">
        <ele>513.20001220703</ele>
        <time>2020-09-12T08:51:21.000Z</time>
      </trkpt>
      <trkpt lat="46.76105" lon="5.72569">
        <ele>513.40002441406</ele>
        <time>2020-09-12T08:51:23.000Z</time>
      </trkpt>
      <trkpt lat="46.76093" lon="5.72577">
        <ele>513.59997558594</ele>
        <time>2020-09-12T08:51:25.000Z</time>
      </trkpt>
      <trkpt lat="46.76081" lon="5.72585">
        <ele>514</ele>
        <time>2020-09-12T08:51:27.000Z</time>
      </trkpt>
      <trkpt lat="46.76075" lon="5.72588">
        <ele>514.20001220703</ele>
        <time>2020-09-12T08:51:28.000Z</time>
      </trkpt>
      <trkpt lat="46.76069" lon="5.72592">
        <ele>514.40002441406</ele>
        <time>2020-09-12T08:51:29.000Z</time>
      </trkpt>
      <trkpt lat="46.76057" lon="5.72599">
        <ele>514.79998779297</ele>
        <time>2020-09-12T08:51:31.000Z</time>
      </trkpt>
      <trkpt lat="46.76045" lon="5.72606">
        <ele>515.40002441406</ele>
        <time>2020-09-12T08:51:33.000Z</time>
      </trkpt>
      <trkpt lat="46.76033" lon="5.72614">
        <ele>515.79998779297</ele>
        <time>2020-09-12T08:51:35.000Z</time>
      </trkpt>
      <trkpt lat="46.7602" lon="5.72621">
        <ele>516.40002441406</ele>
        <time>2020-09-12T08:51:37.000Z</time>
      </trkpt>
      <trkpt lat="46.76014" lon="5.72625">
        <ele>516.79998779297</ele>
        <time>2020-09-12T08:51:38.000Z</time>
      </trkpt>
      <trkpt lat="46.76008" lon="5.72629">
        <ele>517.20001220703</ele>
        <time>2020-09-12T08:51:39.000Z</time>
      </trkpt>
      <trkpt lat="46.75995" lon="5.72637">
        <ele>517.59997558594</ele>
        <time>2020-09-12T08:51:41.000Z</time>
      </trkpt>
      <trkpt lat="46.75982" lon="5.72646">
        <ele>517.59997558594</ele>
        <time>2020-09-12T08:51:43.000Z</time>
      </trkpt>
      <trkpt lat="46.75968" lon="5.72655">
        <ele>517.59997558594</ele>
        <time>2020-09-12T08:51:45.000Z</time>
      </trkpt>
      <trkpt lat="46.75954" lon="5.72665">
        <ele>517.59997558594</ele>
        <time>2020-09-12T08:51:47.000Z</time>
      </trkpt>
      <trkpt lat="46.75939" lon="5.72674">
        <ele>517.59997558594</ele>
        <time>2020-09-12T08:51:49.000Z</time>
      </trkpt>
      <trkpt lat="46.75924" lon="5.72682">
        <ele>517.40002441406</ele>
        <time>2020-09-12T08:51:51.000Z</time>
      </trkpt>
      <trkpt lat="46.75908" lon="5.72687">
        <ele>517.20001220703</ele>
        <time>2020-09-12T08:51:53.000Z</time>
      </trkpt>
      <trkpt lat="46.75892" lon="5.72686">
        <ele>516.79998779297</ele>
        <time>2020-09-12T08:51:55.000Z</time>
      </trkpt>
      <trkpt lat="46.75876" lon="5.72682">
        <ele>516.59997558594</ele>
        <time>2020-09-12T08:51:57.000Z</time>
      </trkpt>
      <trkpt lat="46.75861" lon="5.72677">
        <ele>516.40002441406</ele>
        <time>2020-09-12T08:51:59.000Z</time>
      </trkpt>
      <trkpt lat="46.75845" lon="5.72671">
        <ele>516</ele>
        <time>2020-09-12T08:52:01.000Z</time>
      </trkpt>
      <trkpt lat="46.75829" lon="5.72665">
        <ele>515.79998779297</ele>
        <time>2020-09-12T08:52:03.000Z</time>
      </trkpt>
      <trkpt lat="46.75812" lon="5.7266">
        <ele>515.59997558594</ele>
        <time>2020-09-12T08:52:05.000Z</time>
      </trkpt>
      <trkpt lat="46.75795" lon="5.72654">
        <ele>515.59997558594</ele>
        <time>2020-09-12T08:52:07.000Z</time>
      </trkpt>
      <trkpt lat="46.75787" lon="5.72652">
        <ele>515.59997558594</ele>
        <time>2020-09-12T08:52:08.000Z</time>
      </trkpt>
      <trkpt lat="46.75778" lon="5.7265">
        <ele>515.40002441406</ele>
        <time>2020-09-12T08:52:09.000Z</time>
      </trkpt>
      <trkpt lat="46.75762" lon="5.72647">
        <ele>514.79998779297</ele>
        <time>2020-09-12T08:52:11.000Z</time>
      </trkpt>
      <trkpt lat="46.75754" lon="5.72646">
        <ele>514.20001220703</ele>
        <time>2020-09-12T08:52:12.000Z</time>
      </trkpt>
      <trkpt lat="46.75745" lon="5.72645">
        <ele>513.59997558594</ele>
        <time>2020-09-12T08:52:13.000Z</time>
      </trkpt>
      <trkpt lat="46.75729" lon="5.72643">
        <ele>513.20001220703</ele>
        <time>2020-09-12T08:52:15.000Z</time>
      </trkpt>
      <trkpt lat="46.75721" lon="5.72642">
        <ele>513.20001220703</ele>
        <time>2020-09-12T08:52:16.000Z</time>
      </trkpt>
      <trkpt lat="46.75713" lon="5.72641">
        <ele>513.20001220703</ele>
        <time>2020-09-12T08:52:17.000Z</time>
      </trkpt>
      <trkpt lat="46.75696" lon="5.72639">
        <ele>513</ele>
        <time>2020-09-12T08:52:19.000Z</time>
      </trkpt>
      <trkpt lat="46.7568" lon="5.72638">
        <ele>513</ele>
        <time>2020-09-12T08:52:21.000Z</time>
      </trkpt>
      <trkpt lat="46.75664" lon="5.72636">
        <ele>512.79998779297</ele>
        <time>2020-09-12T08:52:23.000Z</time>
      </trkpt>
      <trkpt lat="46.75647" lon="5.72634">
        <ele>512.59997558594</ele>
        <time>2020-09-12T08:52:25.000Z</time>
      </trkpt>
      <trkpt lat="46.75632" lon="5.72632">
        <ele>512.59997558594</ele>
        <time>2020-09-12T08:52:27.000Z</time>
      </trkpt>
      <trkpt lat="46.75618" lon="5.72631">
        <ele>512.59997558594</ele>
        <time>2020-09-12T08:52:29.000Z</time>
      </trkpt>
      <trkpt lat="46.75612" lon="5.72631">
        <ele>512.59997558594</ele>
        <time>2020-09-12T08:52:30.000Z</time>
      </trkpt>
      <trkpt lat="46.75609" lon="5.7263">
        <ele>512.59997558594</ele>
        <time>2020-09-12T08:52:31.000Z</time>
      </trkpt>
      <trkpt lat="46.75605" lon="5.72631">
        <ele>512.59997558594</ele>
        <time>2020-09-12T08:52:33.000Z</time>
      </trkpt>
      <trkpt lat="46.75605" lon="5.7263">
        <ele>512.59997558594</ele>
        <time>2020-09-12T08:52:35.000Z</time>
      </trkpt>
      <trkpt lat="46.75605" lon="5.7263">
        <ele>514.20001220703</ele>
        <time>2020-09-12T08:53:44.000Z</time>
      </trkpt>
      <trkpt lat="46.75603" lon="5.7263">
        <ele>514.20001220703</ele>
        <time>2020-09-12T08:53:45.000Z</time>
      </trkpt>
      <trkpt lat="46.75601" lon="5.7263">
        <ele>514.20001220703</ele>
        <time>2020-09-12T08:53:46.000Z</time>
      </trkpt>
      <trkpt lat="46.75598" lon="5.7263">
        <ele>514.20001220703</ele>
        <time>2020-09-12T08:53:47.000Z</time>
      </trkpt>
      <trkpt lat="46.75592" lon="5.7263">
        <ele>514.20001220703</ele>
        <time>2020-09-12T08:53:49.000Z</time>
      </trkpt>
      <trkpt lat="46.75583" lon="5.7263">
        <ele>514</ele>
        <time>2020-09-12T08:53:51.000Z</time>
      </trkpt>
      <trkpt lat="46.75573" lon="5.72629">
        <ele>514</ele>
        <time>2020-09-12T08:53:53.000Z</time>
      </trkpt>
      <trkpt lat="46.7556" lon="5.72627">
        <ele>514</ele>
        <time>2020-09-12T08:53:55.000Z</time>
      </trkpt>
      <trkpt lat="46.75553" lon="5.72626">
        <ele>513.79998779297</ele>
        <time>2020-09-12T08:53:56.000Z</time>
      </trkpt>
      <trkpt lat="46.75546" lon="5.72624">
        <ele>513.79998779297</ele>
        <time>2020-09-12T08:53:57.000Z</time>
      </trkpt>
      <trkpt lat="46.75532" lon="5.72619">
        <ele>513.40002441406</ele>
        <time>2020-09-12T08:53:59.000Z</time>
      </trkpt>
      <trkpt lat="46.75518" lon="5.72613">
        <ele>513.20001220703</ele>
        <time>2020-09-12T08:54:01.000Z</time>
      </trkpt>
      <trkpt lat="46.75511" lon="5.72611">
        <ele>512.79998779297</ele>
        <time>2020-09-12T08:54:02.000Z</time>
      </trkpt>
      <trkpt lat="46.75504" lon="5.72608">
        <ele>512.59997558594</ele>
        <time>2020-09-12T08:54:03.000Z</time>
      </trkpt>
      <trkpt lat="46.7549" lon="5.72602">
        <ele>512.20001220703</ele>
        <time>2020-09-12T08:54:05.000Z</time>
      </trkpt>
      <trkpt lat="46.75476" lon="5.72595">
        <ele>512</ele>
        <time>2020-09-12T08:54:07.000Z</time>
      </trkpt>
      <trkpt lat="46.75462" lon="5.72588">
        <ele>511.60000610352</ele>
        <time>2020-09-12T08:54:09.000Z</time>
      </trkpt>
      <trkpt lat="46.75455" lon="5.72584">
        <ele>511.60000610352</ele>
        <time>2020-09-12T08:54:10.000Z</time>
      </trkpt>
      <trkpt lat="46.75447" lon="5.72579">
        <ele>511.39999389648</ele>
        <time>2020-09-12T08:54:11.000Z</time>
      </trkpt>
      <trkpt lat="46.7544" lon="5.72573">
        <ele>511.20001220703</ele>
        <time>2020-09-12T08:54:12.000Z</time>
      </trkpt>
      <trkpt lat="46.75433" lon="5.72566">
        <ele>510.79998779297</ele>
        <time>2020-09-12T08:54:13.000Z</time>
      </trkpt>
      <trkpt lat="46.75426" lon="5.72558">
        <ele>510.60000610352</ele>
        <time>2020-09-12T08:54:14.000Z</time>
      </trkpt>
      <trkpt lat="46.75419" lon="5.72551">
        <ele>510.39999389648</ele>
        <time>2020-09-12T08:54:15.000Z</time>
      </trkpt>
      <trkpt lat="46.75412" lon="5.72544">
        <ele>510</ele>
        <time>2020-09-12T08:54:16.000Z</time>
      </trkpt>
      <trkpt lat="46.75404" lon="5.72539">
        <ele>509.79998779297</ele>
        <time>2020-09-12T08:54:17.000Z</time>
      </trkpt>
      <trkpt lat="46.75397" lon="5.72535">
        <ele>509.60000610352</ele>
        <time>2020-09-12T08:54:18.000Z</time>
      </trkpt>
      <trkpt lat="46.75389" lon="5.72533">
        <ele>509.39999389648</ele>
        <time>2020-09-12T08:54:19.000Z</time>
      </trkpt>
      <trkpt lat="46.75373" lon="5.7253">
        <ele>508.39999389648</ele>
        <time>2020-09-12T08:54:21.000Z</time>
      </trkpt>
      <trkpt lat="46.75365" lon="5.7253">
        <ele>508.20001220703</ele>
        <time>2020-09-12T08:54:22.000Z</time>
      </trkpt>
      <trkpt lat="46.75357" lon="5.7253">
        <ele>508.20001220703</ele>
        <time>2020-09-12T08:54:23.000Z</time>
      </trkpt>
      <trkpt lat="46.75342" lon="5.72528">
        <ele>508</ele>
        <time>2020-09-12T08:54:25.000Z</time>
      </trkpt>
      <trkpt lat="46.75326" lon="5.72524">
        <ele>508</ele>
        <time>2020-09-12T08:54:27.000Z</time>
      </trkpt>
      <trkpt lat="46.75318" lon="5.72522">
        <ele>508</ele>
        <time>2020-09-12T08:54:28.000Z</time>
      </trkpt>
      <trkpt lat="46.75311" lon="5.72519">
        <ele>508</ele>
        <time>2020-09-12T08:54:29.000Z</time>
      </trkpt>
      <trkpt lat="46.75296" lon="5.72515">
        <ele>508</ele>
        <time>2020-09-12T08:54:31.000Z</time>
      </trkpt>
      <trkpt lat="46.75281" lon="5.72511">
        <ele>508.20001220703</ele>
        <time>2020-09-12T08:54:33.000Z</time>
      </trkpt>
      <trkpt lat="46.75268" lon="5.72508">
        <ele>508.20001220703</ele>
        <time>2020-09-12T08:54:35.000Z</time>
      </trkpt>
      <trkpt lat="46.75261" lon="5.72508">
        <ele>508.20001220703</ele>
        <time>2020-09-12T08:54:36.000Z</time>
      </trkpt>
      <trkpt lat="46.75255" lon="5.72507">
        <ele>508.39999389648</ele>
        <time>2020-09-12T08:54:37.000Z</time>
      </trkpt>
      <trkpt lat="46.75243" lon="5.72506">
        <ele>508.39999389648</ele>
        <time>2020-09-12T08:54:39.000Z</time>
      </trkpt>
      <trkpt lat="46.75232" lon="5.72505">
        <ele>508.60000610352</ele>
        <time>2020-09-12T08:54:41.000Z</time>
      </trkpt>
      <trkpt lat="46.7522" lon="5.72504">
        <ele>509</ele>
        <time>2020-09-12T08:54:43.000Z</time>
      </trkpt>
      <trkpt lat="46.7521" lon="5.72504">
        <ele>509.79998779297</ele>
        <time>2020-09-12T08:54:45.000Z</time>
      </trkpt>
      <trkpt lat="46.75199" lon="5.72504">
        <ele>510.60000610352</ele>
        <time>2020-09-12T08:54:47.000Z</time>
      </trkpt>
      <trkpt lat="46.75194" lon="5.72503">
        <ele>511</ele>
        <time>2020-09-12T08:54:48.000Z</time>
      </trkpt>
      <trkpt lat="46.75189" lon="5.72501">
        <ele>511.39999389648</ele>
        <time>2020-09-12T08:54:49.000Z</time>
      </trkpt>
      <trkpt lat="46.75184" lon="5.72499">
        <ele>511.79998779297</ele>
        <time>2020-09-12T08:54:50.000Z</time>
      </trkpt>
      <trkpt lat="46.7518" lon="5.72499">
        <ele>512.20001220703</ele>
        <time>2020-09-12T08:54:51.000Z</time>
      </trkpt>
      <trkpt lat="46.75173" lon="5.72506">
        <ele>513</ele>
        <time>2020-09-12T08:54:53.000Z</time>
      </trkpt>
      <trkpt lat="46.75168" lon="5.72519">
        <ele>514.40002441406</ele>
        <time>2020-09-12T08:54:55.000Z</time>
      </trkpt>
      <trkpt lat="46.75166" lon="5.72526">
        <ele>514.59997558594</ele>
        <time>2020-09-12T08:54:56.000Z</time>
      </trkpt>
      <trkpt lat="46.75165" lon="5.72533">
        <ele>514.79998779297</ele>
        <time>2020-09-12T08:54:57.000Z</time>
      </trkpt>
      <trkpt lat="46.75161" lon="5.72546">
        <ele>515</ele>
        <time>2020-09-12T08:54:59.000Z</time>
      </trkpt>
      <trkpt lat="46.75157" lon="5.72559">
        <ele>515.20001220703</ele>
        <time>2020-09-12T08:55:01.000Z</time>
      </trkpt>
      <trkpt lat="46.75152" lon="5.72572">
        <ele>515.59997558594</ele>
        <time>2020-09-12T08:55:03.000Z</time>
      </trkpt>
      <trkpt lat="46.75147" lon="5.72585">
        <ele>516</ele>
        <time>2020-09-12T08:55:05.000Z</time>
      </trkpt>
      <trkpt lat="46.75144" lon="5.72591">
        <ele>516.20001220703</ele>
        <time>2020-09-12T08:55:06.000Z</time>
      </trkpt>
      <trkpt lat="46.75141" lon="5.72597">
        <ele>516.20001220703</ele>
        <time>2020-09-12T08:55:07.000Z</time>
      </trkpt>
      <trkpt lat="46.75134" lon="5.7261">
        <ele>516.40002441406</ele>
        <time>2020-09-12T08:55:09.000Z</time>
      </trkpt>
      <trkpt lat="46.75128" lon="5.72624">
        <ele>516.79998779297</ele>
        <time>2020-09-12T08:55:11.000Z</time>
      </trkpt>
      <trkpt lat="46.75126" lon="5.72631">
        <ele>517</ele>
        <time>2020-09-12T08:55:12.000Z</time>
      </trkpt>
      <trkpt lat="46.75124" lon="5.72639">
        <ele>517</ele>
        <time>2020-09-12T08:55:13.000Z</time>
      </trkpt>
      <trkpt lat="46.75121" lon="5.72656">
        <ele>517.40002441406</ele>
        <time>2020-09-12T08:55:15.000Z</time>
      </trkpt>
      <trkpt lat="46.75118" lon="5.72673">
        <ele>517.59997558594</ele>
        <time>2020-09-12T08:55:17.000Z</time>
      </trkpt>
      <trkpt lat="46.75116" lon="5.72682">
        <ele>517.59997558594</ele>
        <time>2020-09-12T08:55:18.000Z</time>
      </trkpt>
      <trkpt lat="46.75114" lon="5.7269">
        <ele>517.59997558594</ele>
        <time>2020-09-12T08:55:19.000Z</time>
      </trkpt>
      <trkpt lat="46.75111" lon="5.72707">
        <ele>517.59997558594</ele>
        <time>2020-09-12T08:55:21.000Z</time>
      </trkpt>
      <trkpt lat="46.75107" lon="5.72724">
        <ele>517.79998779297</ele>
        <time>2020-09-12T08:55:23.000Z</time>
      </trkpt>
      <trkpt lat="46.75105" lon="5.72732">
        <ele>517.79998779297</ele>
        <time>2020-09-12T08:55:24.000Z</time>
      </trkpt>
      <trkpt lat="46.75102" lon="5.7274">
        <ele>517.79998779297</ele>
        <time>2020-09-12T08:55:25.000Z</time>
      </trkpt>
      <trkpt lat="46.751" lon="5.72748">
        <ele>517.79998779297</ele>
        <time>2020-09-12T08:55:26.000Z</time>
      </trkpt>
      <trkpt lat="46.75098" lon="5.72756">
        <ele>517.79998779297</ele>
        <time>2020-09-12T08:55:27.000Z</time>
      </trkpt>
      <trkpt lat="46.75093" lon="5.72771">
        <ele>518</ele>
        <time>2020-09-12T08:55:29.000Z</time>
      </trkpt>
      <trkpt lat="46.75089" lon="5.72785">
        <ele>518.40002441406</ele>
        <time>2020-09-12T08:55:31.000Z</time>
      </trkpt>
      <trkpt lat="46.75086" lon="5.72799">
        <ele>518.40002441406</ele>
        <time>2020-09-12T08:55:33.000Z</time>
      </trkpt>
      <trkpt lat="46.75083" lon="5.72813">
        <ele>519</ele>
        <time>2020-09-12T08:55:35.000Z</time>
      </trkpt>
      <trkpt lat="46.75081" lon="5.72827">
        <ele>519.40002441406</ele>
        <time>2020-09-12T08:55:37.000Z</time>
      </trkpt>
      <trkpt lat="46.7508" lon="5.72841">
        <ele>520.20001220703</ele>
        <time>2020-09-12T08:55:39.000Z</time>
      </trkpt>
      <trkpt lat="46.75079" lon="5.72848">
        <ele>520.59997558594</ele>
        <time>2020-09-12T08:55:40.000Z</time>
      </trkpt>
      <trkpt lat="46.75078" lon="5.72855">
        <ele>521</ele>
        <time>2020-09-12T08:55:41.000Z</time>
      </trkpt>
      <trkpt lat="46.75077" lon="5.72862">
        <ele>521.59997558594</ele>
        <time>2020-09-12T08:55:42.000Z</time>
      </trkpt>
      <trkpt lat="46.75075" lon="5.72868">
        <ele>522</ele>
        <time>2020-09-12T08:55:43.000Z</time>
      </trkpt>
      <trkpt lat="46.75072" lon="5.72879">
        <ele>522.59997558594</ele>
        <time>2020-09-12T08:55:45.000Z</time>
      </trkpt>
      <trkpt lat="46.75069" lon="5.72884">
        <ele>522.79998779297</ele>
        <time>2020-09-12T08:55:46.000Z</time>
      </trkpt>
      <trkpt lat="46.75067" lon="5.72889">
        <ele>523</ele>
        <time>2020-09-12T08:55:47.000Z</time>
      </trkpt>
      <trkpt lat="46.75062" lon="5.72898">
        <ele>523.79998779297</ele>
        <time>2020-09-12T08:55:49.000Z</time>
      </trkpt>
      <trkpt lat="46.75055" lon="5.72907">
        <ele>524.20001220703</ele>
        <time>2020-09-12T08:55:51.000Z</time>
      </trkpt>
      <trkpt lat="46.75048" lon="5.72914">
        <ele>525</ele>
        <time>2020-09-12T08:55:53.000Z</time>
      </trkpt>
      <trkpt lat="46.75041" lon="5.72919">
        <ele>525.79998779297</ele>
        <time>2020-09-12T08:55:55.000Z</time>
      </trkpt>
      <trkpt lat="46.75037" lon="5.72921">
        <ele>526.20001220703</ele>
        <time>2020-09-12T08:55:56.000Z</time>
      </trkpt>
      <trkpt lat="46.75033" lon="5.72923">
        <ele>526.40002441406</ele>
        <time>2020-09-12T08:55:57.000Z</time>
      </trkpt>
      <trkpt lat="46.75025" lon="5.72927">
        <ele>527</ele>
        <time>2020-09-12T08:55:59.000Z</time>
      </trkpt>
      <trkpt lat="46.75017" lon="5.72931">
        <ele>527.20001220703</ele>
        <time>2020-09-12T08:56:01.000Z</time>
      </trkpt>
      <trkpt lat="46.75008" lon="5.72936">
        <ele>527.59997558594</ele>
        <time>2020-09-12T08:56:03.000Z</time>
      </trkpt>
      <trkpt lat="46.74999" lon="5.7294">
        <ele>528</ele>
        <time>2020-09-12T08:56:05.000Z</time>
      </trkpt>
      <trkpt lat="46.74989" lon="5.72945">
        <ele>528.40002441406</ele>
        <time>2020-09-12T08:56:07.000Z</time>
      </trkpt>
      <trkpt lat="46.74978" lon="5.7295">
        <ele>528.59997558594</ele>
        <time>2020-09-12T08:56:09.000Z</time>
      </trkpt>
      <trkpt lat="46.74967" lon="5.72955">
        <ele>528.79998779297</ele>
        <time>2020-09-12T08:56:11.000Z</time>
      </trkpt>
      <trkpt lat="46.74956" lon="5.72961">
        <ele>528.79998779297</ele>
        <time>2020-09-12T08:56:13.000Z</time>
      </trkpt>
      <trkpt lat="46.74944" lon="5.72966">
        <ele>528.79998779297</ele>
        <time>2020-09-12T08:56:15.000Z</time>
      </trkpt>
      <trkpt lat="46.74931" lon="5.72972">
        <ele>528.79998779297</ele>
        <time>2020-09-12T08:56:17.000Z</time>
      </trkpt>
      <trkpt lat="46.7492" lon="5.72979">
        <ele>528.59997558594</ele>
        <time>2020-09-12T08:56:19.000Z</time>
      </trkpt>
      <trkpt lat="46.74908" lon="5.72986">
        <ele>528.40002441406</ele>
        <time>2020-09-12T08:56:21.000Z</time>
      </trkpt>
      <trkpt lat="46.74903" lon="5.7299">
        <ele>528.40002441406</ele>
        <time>2020-09-12T08:56:22.000Z</time>
      </trkpt>
      <trkpt lat="46.74898" lon="5.72994">
        <ele>528.40002441406</ele>
        <time>2020-09-12T08:56:23.000Z</time>
      </trkpt>
      <trkpt lat="46.74889" lon="5.73003">
        <ele>528.40002441406</ele>
        <time>2020-09-12T08:56:25.000Z</time>
      </trkpt>
      <trkpt lat="46.74881" lon="5.73011">
        <ele>528.40002441406</ele>
        <time>2020-09-12T08:56:27.000Z</time>
      </trkpt>
      <trkpt lat="46.74873" lon="5.7302">
        <ele>528.79998779297</ele>
        <time>2020-09-12T08:56:29.000Z</time>
      </trkpt>
      <trkpt lat="46.74865" lon="5.73029">
        <ele>529.40002441406</ele>
        <time>2020-09-12T08:56:31.000Z</time>
      </trkpt>
      <trkpt lat="46.74858" lon="5.73038">
        <ele>530.20001220703</ele>
        <time>2020-09-12T08:56:33.000Z</time>
      </trkpt>
      <trkpt lat="46.74854" lon="5.73043">
        <ele>530.59997558594</ele>
        <time>2020-09-12T08:56:34.000Z</time>
      </trkpt>
      <trkpt lat="46.7485" lon="5.73049">
        <ele>531</ele>
        <time>2020-09-12T08:56:35.000Z</time>
      </trkpt>
      <trkpt lat="46.74847" lon="5.73055">
        <ele>531.20001220703</ele>
        <time>2020-09-12T08:56:36.000Z</time>
      </trkpt>
      <trkpt lat="46.74843" lon="5.73061">
        <ele>531.59997558594</ele>
        <time>2020-09-12T08:56:37.000Z</time>
      </trkpt>
      <trkpt lat="46.7484" lon="5.73068">
        <ele>531.79998779297</ele>
        <time>2020-09-12T08:56:38.000Z</time>
      </trkpt>
      <trkpt lat="46.74837" lon="5.73075">
        <ele>532</ele>
        <time>2020-09-12T08:56:39.000Z</time>
      </trkpt>
      <trkpt lat="46.7483" lon="5.73089">
        <ele>532.59997558594</ele>
        <time>2020-09-12T08:56:41.000Z</time>
      </trkpt>
      <trkpt lat="46.74827" lon="5.73096">
        <ele>532.79998779297</ele>
        <time>2020-09-12T08:56:42.000Z</time>
      </trkpt>
      <trkpt lat="46.74824" lon="5.73104">
        <ele>533</ele>
        <time>2020-09-12T08:56:43.000Z</time>
      </trkpt>
      <trkpt lat="46.74818" lon="5.7312">
        <ele>533.20001220703</ele>
        <time>2020-09-12T08:56:45.000Z</time>
      </trkpt>
      <trkpt lat="46.74812" lon="5.73136">
        <ele>533.40002441406</ele>
        <time>2020-09-12T08:56:47.000Z</time>
      </trkpt>
      <trkpt lat="46.74806" lon="5.73151">
        <ele>533.59997558594</ele>
        <time>2020-09-12T08:56:49.000Z</time>
      </trkpt>
      <trkpt lat="46.74799" lon="5.73164">
        <ele>533.79998779297</ele>
        <time>2020-09-12T08:56:51.000Z</time>
      </trkpt>
      <trkpt lat="46.74791" lon="5.73177">
        <ele>534</ele>
        <time>2020-09-12T08:56:53.000Z</time>
      </trkpt>
      <trkpt lat="46.74787" lon="5.73182">
        <ele>534</ele>
        <time>2020-09-12T08:56:54.000Z</time>
      </trkpt>
      <trkpt lat="46.74782" lon="5.73187">
        <ele>534.20001220703</ele>
        <time>2020-09-12T08:56:55.000Z</time>
      </trkpt>
      <trkpt lat="46.74777" lon="5.73192">
        <ele>534.20001220703</ele>
        <time>2020-09-12T08:56:56.000Z</time>
      </trkpt>
      <trkpt lat="46.74772" lon="5.73197">
        <ele>534.20001220703</ele>
        <time>2020-09-12T08:56:57.000Z</time>
      </trkpt>
      <trkpt lat="46.74761" lon="5.73204">
        <ele>534.59997558594</ele>
        <time>2020-09-12T08:56:59.000Z</time>
      </trkpt>
      <trkpt lat="46.7475" lon="5.73211">
        <ele>535</ele>
        <time>2020-09-12T08:57:01.000Z</time>
      </trkpt>
      <trkpt lat="46.74745" lon="5.73214">
        <ele>535</ele>
        <time>2020-09-12T08:57:02.000Z</time>
      </trkpt>
      <trkpt lat="46.7474" lon="5.73218">
        <ele>535.20001220703</ele>
        <time>2020-09-12T08:57:03.000Z</time>
      </trkpt>
      <trkpt lat="46.7473" lon="5.73225">
        <ele>535.20001220703</ele>
        <time>2020-09-12T08:57:05.000Z</time>
      </trkpt>
      <trkpt lat="46.74721" lon="5.73233">
        <ele>535.40002441406</ele>
        <time>2020-09-12T08:57:07.000Z</time>
      </trkpt>
      <trkpt lat="46.74716" lon="5.73237">
        <ele>535.59997558594</ele>
        <time>2020-09-12T08:57:08.000Z</time>
      </trkpt>
      <trkpt lat="46.74707" lon="5.73245">
        <ele>535.59997558594</ele>
        <time>2020-09-12T08:57:10.000Z</time>
      </trkpt>
      <trkpt lat="46.74697" lon="5.73252">
        <ele>536</ele>
        <time>2020-09-12T08:57:12.000Z</time>
      </trkpt>
      <trkpt lat="46.74692" lon="5.73256">
        <ele>536.40002441406</ele>
        <time>2020-09-12T08:57:13.000Z</time>
      </trkpt>
      <trkpt lat="46.74687" lon="5.7326">
        <ele>536.79998779297</ele>
        <time>2020-09-12T08:57:14.000Z</time>
      </trkpt>
      <trkpt lat="46.74677" lon="5.73268">
        <ele>537.40002441406</ele>
        <time>2020-09-12T08:57:16.000Z</time>
      </trkpt>
      <trkpt lat="46.74666" lon="5.73275">
        <ele>537.79998779297</ele>
        <time>2020-09-12T08:57:18.000Z</time>
      </trkpt>
      <trkpt lat="46.7466" lon="5.73278">
        <ele>537.79998779297</ele>
        <time>2020-09-12T08:57:19.000Z</time>
      </trkpt>
      <trkpt lat="46.74654" lon="5.7328">
        <ele>537.79998779297</ele>
        <time>2020-09-12T08:57:20.000Z</time>
      </trkpt>
      <trkpt lat="46.74647" lon="5.73282">
        <ele>537.79998779297</ele>
        <time>2020-09-12T08:57:21.000Z</time>
      </trkpt>
      <trkpt lat="46.74635" lon="5.73282">
        <ele>538.20001220703</ele>
        <time>2020-09-12T08:57:23.000Z</time>
      </trkpt>
      <trkpt lat="46.74623" lon="5.73281">
        <ele>538.20001220703</ele>
        <time>2020-09-12T08:57:25.000Z</time>
      </trkpt>
      <trkpt lat="46.74612" lon="5.73281">
        <ele>538.40002441406</ele>
        <time>2020-09-12T08:57:27.000Z</time>
      </trkpt>
      <trkpt lat="46.74602" lon="5.73281">
        <ele>538.40002441406</ele>
        <time>2020-09-12T08:57:29.000Z</time>
      </trkpt>
      <trkpt lat="46.74596" lon="5.73282">
        <ele>538.40002441406</ele>
        <time>2020-09-12T08:57:30.000Z</time>
      </trkpt>
      <trkpt lat="46.74591" lon="5.73283">
        <ele>538.59997558594</ele>
        <time>2020-09-12T08:57:31.000Z</time>
      </trkpt>
      <trkpt lat="46.7458" lon="5.73284">
        <ele>538.79998779297</ele>
        <time>2020-09-12T08:57:33.000Z</time>
      </trkpt>
      <trkpt lat="46.74569" lon="5.73287">
        <ele>539.79998779297</ele>
        <time>2020-09-12T08:57:35.000Z</time>
      </trkpt>
      <trkpt lat="46.74558" lon="5.7329">
        <ele>540.40002441406</ele>
        <time>2020-09-12T08:57:37.000Z</time>
      </trkpt>
      <trkpt lat="46.74552" lon="5.73293">
        <ele>540.59997558594</ele>
        <time>2020-09-12T08:57:38.000Z</time>
      </trkpt>
      <trkpt lat="46.74546" lon="5.73295">
        <ele>540.59997558594</ele>
        <time>2020-09-12T08:57:39.000Z</time>
      </trkpt>
      <trkpt lat="46.74533" lon="5.73301">
        <ele>540.59997558594</ele>
        <time>2020-09-12T08:57:41.000Z</time>
      </trkpt>
      <trkpt lat="46.74519" lon="5.73306">
        <ele>540.59997558594</ele>
        <time>2020-09-12T08:57:43.000Z</time>
      </trkpt>
      <trkpt lat="46.74506" lon="5.73313">
        <ele>540.59997558594</ele>
        <time>2020-09-12T08:57:45.000Z</time>
      </trkpt>
      <trkpt lat="46.74499" lon="5.73316">
        <ele>540.59997558594</ele>
        <time>2020-09-12T08:57:46.000Z</time>
      </trkpt>
      <trkpt lat="46.74492" lon="5.73319">
        <ele>540.59997558594</ele>
        <time>2020-09-12T08:57:47.000Z</time>
      </trkpt>
      <trkpt lat="46.74477" lon="5.73326">
        <ele>540.40002441406</ele>
        <time>2020-09-12T08:57:49.000Z</time>
      </trkpt>
      <trkpt lat="46.74461" lon="5.73335">
        <ele>540</ele>
        <time>2020-09-12T08:57:51.000Z</time>
      </trkpt>
      <trkpt lat="46.74454" lon="5.7334">
        <ele>539.79998779297</ele>
        <time>2020-09-12T08:57:52.000Z</time>
      </trkpt>
      <trkpt lat="46.74446" lon="5.73346">
        <ele>539.59997558594</ele>
        <time>2020-09-12T08:57:53.000Z</time>
      </trkpt>
      <trkpt lat="46.74431" lon="5.7336">
        <ele>539.40002441406</ele>
        <time>2020-09-12T08:57:55.000Z</time>
      </trkpt>
      <trkpt lat="46.74416" lon="5.73376">
        <ele>539</ele>
        <time>2020-09-12T08:57:57.000Z</time>
      </trkpt>
      <trkpt lat="46.74409" lon="5.73384">
        <ele>538.59997558594</ele>
        <time>2020-09-12T08:57:58.000Z</time>
      </trkpt>
      <trkpt lat="46.74401" lon="5.73391">
        <ele>538</ele>
        <time>2020-09-12T08:57:59.000Z</time>
      </trkpt>
      <trkpt lat="46.74386" lon="5.73407">
        <ele>537</ele>
        <time>2020-09-12T08:58:01.000Z</time>
      </trkpt>
      <trkpt lat="46.7437" lon="5.73424">
        <ele>536.40002441406</ele>
        <time>2020-09-12T08:58:03.000Z</time>
      </trkpt>
      <trkpt lat="46.74362" lon="5.73433">
        <ele>535.79998779297</ele>
        <time>2020-09-12T08:58:04.000Z</time>
      </trkpt>
      <trkpt lat="46.74353" lon="5.73442">
        <ele>535.40002441406</ele>
        <time>2020-09-12T08:58:05.000Z</time>
      </trkpt>
      <trkpt lat="46.74337" lon="5.73459">
        <ele>535</ele>
        <time>2020-09-12T08:58:07.000Z</time>
      </trkpt>
      <trkpt lat="46.74328" lon="5.73468">
        <ele>534.79998779297</ele>
        <time>2020-09-12T08:58:08.000Z</time>
      </trkpt>
      <trkpt lat="46.74319" lon="5.73476">
        <ele>534.59997558594</ele>
        <time>2020-09-12T08:58:09.000Z</time>
      </trkpt>
      <trkpt lat="46.74301" lon="5.73493">
        <ele>533.79998779297</ele>
        <time>2020-09-12T08:58:11.000Z</time>
      </trkpt>
      <trkpt lat="46.74283" lon="5.7351">
        <ele>533.20001220703</ele>
        <time>2020-09-12T08:58:13.000Z</time>
      </trkpt>
      <trkpt lat="46.74265" lon="5.73528">
        <ele>532.20001220703</ele>
        <time>2020-09-12T08:58:15.000Z</time>
      </trkpt>
      <trkpt lat="46.74257" lon="5.73537">
        <ele>531.79998779297</ele>
        <time>2020-09-12T08:58:16.000Z</time>
      </trkpt>
      <trkpt lat="46.74248" lon="5.73546">
        <ele>531.20001220703</ele>
        <time>2020-09-12T08:58:17.000Z</time>
      </trkpt>
      <trkpt lat="46.74232" lon="5.73564">
        <ele>530.20001220703</ele>
        <time>2020-09-12T08:58:19.000Z</time>
      </trkpt>
      <trkpt lat="46.74225" lon="5.73573">
        <ele>529.79998779297</ele>
        <time>2020-09-12T08:58:20.000Z</time>
      </trkpt>
      <trkpt lat="46.74217" lon="5.73581">
        <ele>529.59997558594</ele>
        <time>2020-09-12T08:58:21.000Z</time>
      </trkpt>
      <trkpt lat="46.74209" lon="5.73589">
        <ele>529.40002441406</ele>
        <time>2020-09-12T08:58:22.000Z</time>
      </trkpt>
      <trkpt lat="46.74202" lon="5.73597">
        <ele>529.20001220703</ele>
        <time>2020-09-12T08:58:23.000Z</time>
      </trkpt>
      <trkpt lat="46.74188" lon="5.73612">
        <ele>529.40002441406</ele>
        <time>2020-09-12T08:58:25.000Z</time>
      </trkpt>
      <trkpt lat="46.74174" lon="5.73626">
        <ele>529.20001220703</ele>
        <time>2020-09-12T08:58:27.000Z</time>
      </trkpt>
      <trkpt lat="46.7416" lon="5.73639">
        <ele>529.20001220703</ele>
        <time>2020-09-12T08:58:29.000Z</time>
      </trkpt>
      <trkpt lat="46.74147" lon="5.73651">
        <ele>529.79998779297</ele>
        <time>2020-09-12T08:58:31.000Z</time>
      </trkpt>
      <trkpt lat="46.74134" lon="5.73662">
        <ele>530.20001220703</ele>
        <time>2020-09-12T08:58:33.000Z</time>
      </trkpt>
      <trkpt lat="46.74121" lon="5.73673">
        <ele>530.40002441406</ele>
        <time>2020-09-12T08:58:35.000Z</time>
      </trkpt>
      <trkpt lat="46.74115" lon="5.73679">
        <ele>530.59997558594</ele>
        <time>2020-09-12T08:58:36.000Z</time>
      </trkpt>
      <trkpt lat="46.74109" lon="5.73684">
        <ele>530.59997558594</ele>
        <time>2020-09-12T08:58:37.000Z</time>
      </trkpt>
      <trkpt lat="46.74097" lon="5.73694">
        <ele>531.20001220703</ele>
        <time>2020-09-12T08:58:39.000Z</time>
      </trkpt>
      <trkpt lat="46.74086" lon="5.73704">
        <ele>531.79998779297</ele>
        <time>2020-09-12T08:58:41.000Z</time>
      </trkpt>
      <trkpt lat="46.74076" lon="5.73712">
        <ele>532</ele>
        <time>2020-09-12T08:58:43.000Z</time>
      </trkpt>
      <trkpt lat="46.74067" lon="5.73721">
        <ele>532.40002441406</ele>
        <time>2020-09-12T08:58:45.000Z</time>
      </trkpt>
      <trkpt lat="46.74058" lon="5.7373">
        <ele>533</ele>
        <time>2020-09-12T08:58:47.000Z</time>
      </trkpt>
      <trkpt lat="46.74048" lon="5.73739">
        <ele>534</ele>
        <time>2020-09-12T08:58:49.000Z</time>
      </trkpt>
      <trkpt lat="46.74044" lon="5.73743">
        <ele>534.59997558594</ele>
        <time>2020-09-12T08:58:50.000Z</time>
      </trkpt>
      <trkpt lat="46.74039" lon="5.73747">
        <ele>535.20001220703</ele>
        <time>2020-09-12T08:58:51.000Z</time>
      </trkpt>
      <trkpt lat="46.74034" lon="5.73751">
        <ele>535.59997558594</ele>
        <time>2020-09-12T08:58:52.000Z</time>
      </trkpt>
      <trkpt lat="46.74029" lon="5.73755">
        <ele>536</ele>
        <time>2020-09-12T08:58:53.000Z</time>
      </trkpt>
      <trkpt lat="46.7402" lon="5.73763">
        <ele>536.79998779297</ele>
        <time>2020-09-12T08:58:55.000Z</time>
      </trkpt>
      <trkpt lat="46.7401" lon="5.73769">
        <ele>537.40002441406</ele>
        <time>2020-09-12T08:58:57.000Z</time>
      </trkpt>
      <trkpt lat="46.74006" lon="5.73772">
        <ele>537.59997558594</ele>
        <time>2020-09-12T08:58:58.000Z</time>
      </trkpt>
      <trkpt lat="46.74001" lon="5.73775">
        <ele>537.79998779297</ele>
        <time>2020-09-12T08:58:59.000Z</time>
      </trkpt>
      <trkpt lat="46.73997" lon="5.73778">
        <ele>537.79998779297</ele>
        <time>2020-09-12T08:59:00.000Z</time>
      </trkpt>
      <trkpt lat="46.73988" lon="5.73784">
        <ele>538</ele>
        <time>2020-09-12T08:59:02.000Z</time>
      </trkpt>
      <trkpt lat="46.73984" lon="5.73786">
        <ele>538</ele>
        <time>2020-09-12T08:59:03.000Z</time>
      </trkpt>
      <trkpt lat="46.73974" lon="5.73792">
        <ele>538.59997558594</ele>
        <time>2020-09-12T08:59:05.000Z</time>
      </trkpt>
      <trkpt lat="46.73969" lon="5.73795">
        <ele>538.79998779297</ele>
        <time>2020-09-12T08:59:06.000Z</time>
      </trkpt>
      <trkpt lat="46.73964" lon="5.73799">
        <ele>539.20001220703</ele>
        <time>2020-09-12T08:59:07.000Z</time>
      </trkpt>
      <trkpt lat="46.73955" lon="5.73805">
        <ele>539.79998779297</ele>
        <time>2020-09-12T08:59:09.000Z</time>
      </trkpt>
      <trkpt lat="46.7395" lon="5.73808">
        <ele>540</ele>
        <time>2020-09-12T08:59:10.000Z</time>
      </trkpt>
      <trkpt lat="46.73946" lon="5.73811">
        <ele>540.40002441406</ele>
        <time>2020-09-12T08:59:11.000Z</time>
      </trkpt>
      <trkpt lat="46.73936" lon="5.73817">
        <ele>540.40002441406</ele>
        <time>2020-09-12T08:59:13.000Z</time>
      </trkpt>
      <trkpt lat="46.73927" lon="5.73823">
        <ele>540.79998779297</ele>
        <time>2020-09-12T08:59:15.000Z</time>
      </trkpt>
      <trkpt lat="46.73922" lon="5.73826">
        <ele>540.79998779297</ele>
        <time>2020-09-12T08:59:16.000Z</time>
      </trkpt>
      <trkpt lat="46.73917" lon="5.7383">
        <ele>541.20001220703</ele>
        <time>2020-09-12T08:59:17.000Z</time>
      </trkpt>
      <trkpt lat="46.73907" lon="5.73836">
        <ele>541.79998779297</ele>
        <time>2020-09-12T08:59:19.000Z</time>
      </trkpt>
      <trkpt lat="46.73897" lon="5.73842">
        <ele>542</ele>
        <time>2020-09-12T08:59:21.000Z</time>
      </trkpt>
      <trkpt lat="46.73887" lon="5.73847">
        <ele>542.20001220703</ele>
        <time>2020-09-12T08:59:23.000Z</time>
      </trkpt>
      <trkpt lat="46.73878" lon="5.73853">
        <ele>542.40002441406</ele>
        <time>2020-09-12T08:59:25.000Z</time>
      </trkpt>
      <trkpt lat="46.73868" lon="5.73858">
        <ele>542.59997558594</ele>
        <time>2020-09-12T08:59:27.000Z</time>
      </trkpt>
      <trkpt lat="46.73862" lon="5.7386">
        <ele>542.59997558594</ele>
        <time>2020-09-12T08:59:28.000Z</time>
      </trkpt>
      <trkpt lat="46.73857" lon="5.73862">
        <ele>542.79998779297</ele>
        <time>2020-09-12T08:59:29.000Z</time>
      </trkpt>
      <trkpt lat="46.73851" lon="5.73863">
        <ele>543</ele>
        <time>2020-09-12T08:59:30.000Z</time>
      </trkpt>
      <trkpt lat="46.73844" lon="5.73863">
        <ele>543.20001220703</ele>
        <time>2020-09-12T08:59:31.000Z</time>
      </trkpt>
      <trkpt lat="46.73831" lon="5.73864">
        <ele>543.40002441406</ele>
        <time>2020-09-12T08:59:33.000Z</time>
      </trkpt>
      <trkpt lat="46.73817" lon="5.73866">
        <ele>543.40002441406</ele>
        <time>2020-09-12T08:59:35.000Z</time>
      </trkpt>
      <trkpt lat="46.73802" lon="5.73868">
        <ele>543.40002441406</ele>
        <time>2020-09-12T08:59:37.000Z</time>
      </trkpt>
      <trkpt lat="46.73794" lon="5.73869">
        <ele>543.40002441406</ele>
        <time>2020-09-12T08:59:38.000Z</time>
      </trkpt>
      <trkpt lat="46.73786" lon="5.7387">
        <ele>543.40002441406</ele>
        <time>2020-09-12T08:59:39.000Z</time>
      </trkpt>
      <trkpt lat="46.7377" lon="5.73873">
        <ele>543.20001220703</ele>
        <time>2020-09-12T08:59:41.000Z</time>
      </trkpt>
      <trkpt lat="46.73754" lon="5.73877">
        <ele>542.79998779297</ele>
        <time>2020-09-12T08:59:43.000Z</time>
      </trkpt>
      <trkpt lat="46.73738" lon="5.73881">
        <ele>542.40002441406</ele>
        <time>2020-09-12T08:59:45.000Z</time>
      </trkpt>
      <trkpt lat="46.7373" lon="5.73884">
        <ele>542</ele>
        <time>2020-09-12T08:59:46.000Z</time>
      </trkpt>
      <trkpt lat="46.73723" lon="5.73886">
        <ele>541.79998779297</ele>
        <time>2020-09-12T08:59:47.000Z</time>
      </trkpt>
      <trkpt lat="46.73708" lon="5.73892">
        <ele>541</ele>
        <time>2020-09-12T08:59:49.000Z</time>
      </trkpt>
      <trkpt lat="46.737" lon="5.73895">
        <ele>541</ele>
        <time>2020-09-12T08:59:50.000Z</time>
      </trkpt>
      <trkpt lat="46.73693" lon="5.73898">
        <ele>540.79998779297</ele>
        <time>2020-09-12T08:59:51.000Z</time>
      </trkpt>
      <trkpt lat="46.73678" lon="5.73903">
        <ele>540.79998779297</ele>
        <time>2020-09-12T08:59:53.000Z</time>
      </trkpt>
      <trkpt lat="46.7367" lon="5.73906">
        <ele>540.59997558594</ele>
        <time>2020-09-12T08:59:54.000Z</time>
      </trkpt>
      <trkpt lat="46.73662" lon="5.7391">
        <ele>540.59997558594</ele>
        <time>2020-09-12T08:59:55.000Z</time>
      </trkpt>
      <trkpt lat="46.73646" lon="5.73916">
        <ele>540.40002441406</ele>
        <time>2020-09-12T08:59:57.000Z</time>
      </trkpt>
      <trkpt lat="46.73629" lon="5.73923">
        <ele>540.40002441406</ele>
        <time>2020-09-12T08:59:59.000Z</time>
      </trkpt>
      <trkpt lat="46.73612" lon="5.73929">
        <ele>540.20001220703</ele>
        <time>2020-09-12T09:00:01.000Z</time>
      </trkpt>
      <trkpt lat="46.73594" lon="5.73936">
        <ele>540</ele>
        <time>2020-09-12T09:00:03.000Z</time>
      </trkpt>
      <trkpt lat="46.73585" lon="5.73939">
        <ele>539.79998779297</ele>
        <time>2020-09-12T09:00:04.000Z</time>
      </trkpt>
      <trkpt lat="46.73576" lon="5.73942">
        <ele>539.59997558594</ele>
        <time>2020-09-12T09:00:05.000Z</time>
      </trkpt>
      <trkpt lat="46.73558" lon="5.73948">
        <ele>539.20001220703</ele>
        <time>2020-09-12T09:00:07.000Z</time>
      </trkpt>
      <trkpt lat="46.73541" lon="5.73953">
        <ele>538.59997558594</ele>
        <time>2020-09-12T09:00:09.000Z</time>
      </trkpt>
      <trkpt lat="46.73524" lon="5.73957">
        <ele>538.20001220703</ele>
        <time>2020-09-12T09:00:11.000Z</time>
      </trkpt>
      <trkpt lat="46.73507" lon="5.73958">
        <ele>538</ele>
        <time>2020-09-12T09:00:13.000Z</time>
      </trkpt>
      <trkpt lat="46.73489" lon="5.73959">
        <ele>537.79998779297</ele>
        <time>2020-09-12T09:00:15.000Z</time>
      </trkpt>
      <trkpt lat="46.7347" lon="5.73959">
        <ele>537.59997558594</ele>
        <time>2020-09-12T09:00:17.000Z</time>
      </trkpt>
      <trkpt lat="46.73461" lon="5.73959">
        <ele>537.40002441406</ele>
        <time>2020-09-12T09:00:18.000Z</time>
      </trkpt>
      <trkpt lat="46.73451" lon="5.73959">
        <ele>537.40002441406</ele>
        <time>2020-09-12T09:00:19.000Z</time>
      </trkpt>
      <trkpt lat="46.73433" lon="5.73959">
        <ele>537.40002441406</ele>
        <time>2020-09-12T09:00:21.000Z</time>
      </trkpt>
      <trkpt lat="46.73414" lon="5.7396">
        <ele>537.20001220703</ele>
        <time>2020-09-12T09:00:23.000Z</time>
      </trkpt>
      <trkpt lat="46.73405" lon="5.73961">
        <ele>537</ele>
        <time>2020-09-12T09:00:24.000Z</time>
      </trkpt>
      <trkpt lat="46.73396" lon="5.73962">
        <ele>536.79998779297</ele>
        <time>2020-09-12T09:00:25.000Z</time>
      </trkpt>
      <trkpt lat="46.73379" lon="5.73965">
        <ele>536.79998779297</ele>
        <time>2020-09-12T09:00:27.000Z</time>
      </trkpt>
      <trkpt lat="46.73362" lon="5.73968">
        <ele>536.59997558594</ele>
        <time>2020-09-12T09:00:29.000Z</time>
      </trkpt>
      <trkpt lat="46.73354" lon="5.7397">
        <ele>536.59997558594</ele>
        <time>2020-09-12T09:00:30.000Z</time>
      </trkpt>
      <trkpt lat="46.73346" lon="5.73972">
        <ele>536.59997558594</ele>
        <time>2020-09-12T09:00:31.000Z</time>
      </trkpt>
      <trkpt lat="46.7333" lon="5.73976">
        <ele>536.59997558594</ele>
        <time>2020-09-12T09:00:33.000Z</time>
      </trkpt>
      <trkpt lat="46.73315" lon="5.7398">
        <ele>536.79998779297</ele>
        <time>2020-09-12T09:00:35.000Z</time>
      </trkpt>
      <trkpt lat="46.73301" lon="5.73984">
        <ele>537</ele>
        <time>2020-09-12T09:00:37.000Z</time>
      </trkpt>
      <trkpt lat="46.73286" lon="5.73988">
        <ele>537.20001220703</ele>
        <time>2020-09-12T09:00:39.000Z</time>
      </trkpt>
      <trkpt lat="46.73272" lon="5.73991">
        <ele>537.59997558594</ele>
        <time>2020-09-12T09:00:41.000Z</time>
      </trkpt>
      <trkpt lat="46.73257" lon="5.73994">
        <ele>538</ele>
        <time>2020-09-12T09:00:43.000Z</time>
      </trkpt>
      <trkpt lat="46.73243" lon="5.73998">
        <ele>538.40002441406</ele>
        <time>2020-09-12T09:00:45.000Z</time>
      </trkpt>
      <trkpt lat="46.73236" lon="5.74">
        <ele>538.59997558594</ele>
        <time>2020-09-12T09:00:46.000Z</time>
      </trkpt>
      <trkpt lat="46.73229" lon="5.74001">
        <ele>538.59997558594</ele>
        <time>2020-09-12T09:00:47.000Z</time>
      </trkpt>
      <trkpt lat="46.73215" lon="5.74005">
        <ele>538.79998779297</ele>
        <time>2020-09-12T09:00:49.000Z</time>
      </trkpt>
      <trkpt lat="46.73201" lon="5.74008">
        <ele>539</ele>
        <time>2020-09-12T09:00:51.000Z</time>
      </trkpt>
      <trkpt lat="46.73187" lon="5.74011">
        <ele>539.20001220703</ele>
        <time>2020-09-12T09:00:53.000Z</time>
      </trkpt>
      <trkpt lat="46.73174" lon="5.74014">
        <ele>539.40002441406</ele>
        <time>2020-09-12T09:00:55.000Z</time>
      </trkpt>
      <trkpt lat="46.73161" lon="5.74017">
        <ele>539.40002441406</ele>
        <time>2020-09-12T09:00:57.000Z</time>
      </trkpt>
      <trkpt lat="46.73147" lon="5.7402">
        <ele>539.59997558594</ele>
        <time>2020-09-12T09:00:59.000Z</time>
      </trkpt>
      <trkpt lat="46.73134" lon="5.74023">
        <ele>539.79998779297</ele>
        <time>2020-09-12T09:01:01.000Z</time>
      </trkpt>
      <trkpt lat="46.73121" lon="5.74026">
        <ele>539.79998779297</ele>
        <time>2020-09-12T09:01:03.000Z</time>
      </trkpt>
      <trkpt lat="46.73115" lon="5.74027">
        <ele>540</ele>
        <time>2020-09-12T09:01:04.000Z</time>
      </trkpt>
      <trkpt lat="46.7311" lon="5.74029">
        <ele>540.40002441406</ele>
        <time>2020-09-12T09:01:05.000Z</time>
      </trkpt>
      <trkpt lat="46.73104" lon="5.74031">
        <ele>540.59997558594</ele>
        <time>2020-09-12T09:01:06.000Z</time>
      </trkpt>
      <trkpt lat="46.73098" lon="5.74034">
        <ele>540.59997558594</ele>
        <time>2020-09-12T09:01:07.000Z</time>
      </trkpt>
      <trkpt lat="46.73088" lon="5.74042">
        <ele>541</ele>
        <time>2020-09-12T09:01:09.000Z</time>
      </trkpt>
      <trkpt lat="46.73079" lon="5.74053">
        <ele>541.40002441406</ele>
        <time>2020-09-12T09:01:11.000Z</time>
      </trkpt>
      <trkpt lat="46.73075" lon="5.7406">
        <ele>541.79998779297</ele>
        <time>2020-09-12T09:01:12.000Z</time>
      </trkpt>
      <trkpt lat="46.73072" lon="5.74067">
        <ele>542</ele>
        <time>2020-09-12T09:01:13.000Z</time>
      </trkpt>
      <trkpt lat="46.7307" lon="5.74075">
        <ele>542.20001220703</ele>
        <time>2020-09-12T09:01:14.000Z</time>
      </trkpt>
      <trkpt lat="46.73067" lon="5.74081">
        <ele>542.40002441406</ele>
        <time>2020-09-12T09:01:15.000Z</time>
      </trkpt>
      <trkpt lat="46.73061" lon="5.74093">
        <ele>543</ele>
        <time>2020-09-12T09:01:17.000Z</time>
      </trkpt>
      <trkpt lat="46.73055" lon="5.74103">
        <ele>543.40002441406</ele>
        <time>2020-09-12T09:01:19.000Z</time>
      </trkpt>
      <trkpt lat="46.73048" lon="5.74113">
        <ele>543.79998779297</ele>
        <time>2020-09-12T09:01:21.000Z</time>
      </trkpt>
      <trkpt lat="46.73045" lon="5.74117">
        <ele>544.20001220703</ele>
        <time>2020-09-12T09:01:22.000Z</time>
      </trkpt>
      <trkpt lat="46.73042" lon="5.74121">
        <ele>544.79998779297</ele>
        <time>2020-09-12T09:01:23.000Z</time>
      </trkpt>
      <trkpt lat="46.73036" lon="5.74129">
        <ele>545.40002441406</ele>
        <time>2020-09-12T09:01:25.000Z</time>
      </trkpt>
      <trkpt lat="46.73033" lon="5.74133">
        <ele>545.59997558594</ele>
        <time>2020-09-12T09:01:26.000Z</time>
      </trkpt>
      <trkpt lat="46.7303" lon="5.74137">
        <ele>545.79998779297</ele>
        <time>2020-09-12T09:01:27.000Z</time>
      </trkpt>
      <trkpt lat="46.73026" lon="5.74147">
        <ele>546.20001220703</ele>
        <time>2020-09-12T09:01:29.000Z</time>
      </trkpt>
      <trkpt lat="46.73024" lon="5.74152">
        <ele>546.40002441406</ele>
        <time>2020-09-12T09:01:30.000Z</time>
      </trkpt>
      <trkpt lat="46.73022" lon="5.74157">
        <ele>546.59997558594</ele>
        <time>2020-09-12T09:01:31.000Z</time>
      </trkpt>
      <trkpt lat="46.7302" lon="5.74162">
        <ele>547</ele>
        <time>2020-09-12T09:01:32.000Z</time>
      </trkpt>
      <trkpt lat="46.73018" lon="5.74167">
        <ele>547.40002441406</ele>
        <time>2020-09-12T09:01:33.000Z</time>
      </trkpt>
      <trkpt lat="46.73017" lon="5.74173">
        <ele>547.79998779297</ele>
        <time>2020-09-12T09:01:34.000Z</time>
      </trkpt>
      <trkpt lat="46.73015" lon="5.74178">
        <ele>548</ele>
        <time>2020-09-12T09:01:35.000Z</time>
      </trkpt>
      <trkpt lat="46.73013" lon="5.74189">
        <ele>548.40002441406</ele>
        <time>2020-09-12T09:01:37.000Z</time>
      </trkpt>
      <trkpt lat="46.73012" lon="5.74195">
        <ele>548.79998779297</ele>
        <time>2020-09-12T09:01:38.000Z</time>
      </trkpt>
      <trkpt lat="46.73011" lon="5.742">
        <ele>549</ele>
        <time>2020-09-12T09:01:39.000Z</time>
      </trkpt>
      <trkpt lat="46.7301" lon="5.74206">
        <ele>549.20001220703</ele>
        <time>2020-09-12T09:01:40.000Z</time>
      </trkpt>
      <trkpt lat="46.73008" lon="5.74211">
        <ele>549.40002441406</ele>
        <time>2020-09-12T09:01:41.000Z</time>
      </trkpt>
      <trkpt lat="46.73006" lon="5.74222">
        <ele>549.79998779297</ele>
        <time>2020-09-12T09:01:43.000Z</time>
      </trkpt>
      <trkpt lat="46.73004" lon="5.74227">
        <ele>550</ele>
        <time>2020-09-12T09:01:44.000Z</time>
      </trkpt>
      <trkpt lat="46.73003" lon="5.74232">
        <ele>550.20001220703</ele>
        <time>2020-09-12T09:01:45.000Z</time>
      </trkpt>
      <trkpt lat="46.72999" lon="5.74242">
        <ele>550.79998779297</ele>
        <time>2020-09-12T09:01:47.000Z</time>
      </trkpt>
      <trkpt lat="46.72997" lon="5.74247">
        <ele>551</ele>
        <time>2020-09-12T09:01:48.000Z</time>
      </trkpt>
      <trkpt lat="46.72995" lon="5.74252">
        <ele>551.20001220703</ele>
        <time>2020-09-12T09:01:49.000Z</time>
      </trkpt>
      <trkpt lat="46.72991" lon="5.74261">
        <ele>551.79998779297</ele>
        <time>2020-09-12T09:01:51.000Z</time>
      </trkpt>
      <trkpt lat="46.72986" lon="5.74271">
        <ele>552.20001220703</ele>
        <time>2020-09-12T09:01:53.000Z</time>
      </trkpt>
      <trkpt lat="46.72981" lon="5.7428">
        <ele>552.79998779297</ele>
        <time>2020-09-12T09:01:55.000Z</time>
      </trkpt>
      <trkpt lat="46.72976" lon="5.74289">
        <ele>553</ele>
        <time>2020-09-12T09:01:57.000Z</time>
      </trkpt>
      <trkpt lat="46.72974" lon="5.74294">
        <ele>553.20001220703</ele>
        <time>2020-09-12T09:01:58.000Z</time>
      </trkpt>
      <trkpt lat="46.72971" lon="5.74299">
        <ele>553.40002441406</ele>
        <time>2020-09-12T09:01:59.000Z</time>
      </trkpt>
      <trkpt lat="46.72969" lon="5.74304">
        <ele>553.79998779297</ele>
        <time>2020-09-12T09:02:00.000Z</time>
      </trkpt>
      <trkpt lat="46.72966" lon="5.7431">
        <ele>554</ele>
        <time>2020-09-12T09:02:01.000Z</time>
      </trkpt>
      <trkpt lat="46.72961" lon="5.74321">
        <ele>554.40002441406</ele>
        <time>2020-09-12T09:02:03.000Z</time>
      </trkpt>
      <trkpt lat="46.72957" lon="5.74332">
        <ele>554.79998779297</ele>
        <time>2020-09-12T09:02:05.000Z</time>
      </trkpt>
      <trkpt lat="46.72954" lon="5.74344">
        <ele>555.20001220703</ele>
        <time>2020-09-12T09:02:07.000Z</time>
      </trkpt>
      <trkpt lat="46.72953" lon="5.7435">
        <ele>555.40002441406</ele>
        <time>2020-09-12T09:02:08.000Z</time>
      </trkpt>
      <trkpt lat="46.72951" lon="5.74355">
        <ele>555.59997558594</ele>
        <time>2020-09-12T09:02:09.000Z</time>
      </trkpt>
      <trkpt lat="46.7295" lon="5.74362">
        <ele>555.59997558594</ele>
        <time>2020-09-12T09:02:10.000Z</time>
      </trkpt>
      <trkpt lat="46.72947" lon="5.74374">
        <ele>555.79998779297</ele>
        <time>2020-09-12T09:02:12.000Z</time>
      </trkpt>
      <trkpt lat="46.72946" lon="5.7438">
        <ele>555.79998779297</ele>
        <time>2020-09-12T09:02:13.000Z</time>
      </trkpt>
      <trkpt lat="46.72944" lon="5.74393">
        <ele>556</ele>
        <time>2020-09-12T09:02:15.000Z</time>
      </trkpt>
      <trkpt lat="46.72942" lon="5.74399">
        <ele>556.40002441406</ele>
        <time>2020-09-12T09:02:16.000Z</time>
      </trkpt>
      <trkpt lat="46.72941" lon="5.74405">
        <ele>556.59997558594</ele>
        <time>2020-09-12T09:02:17.000Z</time>
      </trkpt>
      <trkpt lat="46.72938" lon="5.74418">
        <ele>556.79998779297</ele>
        <time>2020-09-12T09:02:19.000Z</time>
      </trkpt>
      <trkpt lat="46.72934" lon="5.74429">
        <ele>556.79998779297</ele>
        <time>2020-09-12T09:02:21.000Z</time>
      </trkpt>
      <trkpt lat="46.72931" lon="5.74435">
        <ele>557.20001220703</ele>
        <time>2020-09-12T09:02:22.000Z</time>
      </trkpt>
      <trkpt lat="46.72928" lon="5.74441">
        <ele>557.40002441406</ele>
        <time>2020-09-12T09:02:23.000Z</time>
      </trkpt>
      <trkpt lat="46.72926" lon="5.74447">
        <ele>557.59997558594</ele>
        <time>2020-09-12T09:02:24.000Z</time>
      </trkpt>
      <trkpt lat="46.72923" lon="5.74454">
        <ele>557.79998779297</ele>
        <time>2020-09-12T09:02:25.000Z</time>
      </trkpt>
      <trkpt lat="46.72919" lon="5.74469">
        <ele>558</ele>
        <time>2020-09-12T09:02:27.000Z</time>
      </trkpt>
      <trkpt lat="46.72916" lon="5.74485">
        <ele>558.20001220703</ele>
        <time>2020-09-12T09:02:29.000Z</time>
      </trkpt>
      <trkpt lat="46.72912" lon="5.74502">
        <ele>558.20001220703</ele>
        <time>2020-09-12T09:02:31.000Z</time>
      </trkpt>
      <trkpt lat="46.72908" lon="5.7452">
        <ele>558.20001220703</ele>
        <time>2020-09-12T09:02:33.000Z</time>
      </trkpt>
      <trkpt lat="46.72906" lon="5.7453">
        <ele>558.20001220703</ele>
        <time>2020-09-12T09:02:34.000Z</time>
      </trkpt>
      <trkpt lat="46.72904" lon="5.74539">
        <ele>558.20001220703</ele>
        <time>2020-09-12T09:02:35.000Z</time>
      </trkpt>
      <trkpt lat="46.72902" lon="5.74557">
        <ele>558.20001220703</ele>
        <time>2020-09-12T09:02:37.000Z</time>
      </trkpt>
      <trkpt lat="46.72899" lon="5.74574">
        <ele>557.79998779297</ele>
        <time>2020-09-12T09:02:39.000Z</time>
      </trkpt>
      <trkpt lat="46.72897" lon="5.7459">
        <ele>557.79998779297</ele>
        <time>2020-09-12T09:02:41.000Z</time>
      </trkpt>
      <trkpt lat="46.72894" lon="5.74606">
        <ele>557.79998779297</ele>
        <time>2020-09-12T09:02:43.000Z</time>
      </trkpt>
      <trkpt lat="46.72891" lon="5.74622">
        <ele>557.59997558594</ele>
        <time>2020-09-12T09:02:45.000Z</time>
      </trkpt>
      <trkpt lat="46.72887" lon="5.74636">
        <ele>557.79998779297</ele>
        <time>2020-09-12T09:02:47.000Z</time>
      </trkpt>
      <trkpt lat="46.7288" lon="5.74651">
        <ele>558</ele>
        <time>2020-09-12T09:02:49.000Z</time>
      </trkpt>
      <trkpt lat="46.72872" lon="5.74665">
        <ele>558</ele>
        <time>2020-09-12T09:02:51.000Z</time>
      </trkpt>
      <trkpt lat="46.72868" lon="5.74672">
        <ele>558.20001220703</ele>
        <time>2020-09-12T09:02:52.000Z</time>
      </trkpt>
      <trkpt lat="46.72863" lon="5.74677">
        <ele>558.40002441406</ele>
        <time>2020-09-12T09:02:53.000Z</time>
      </trkpt>
      <trkpt lat="46.72857" lon="5.74682">
        <ele>558.40002441406</ele>
        <time>2020-09-12T09:02:54.000Z</time>
      </trkpt>
      <trkpt lat="46.72852" lon="5.74686">
        <ele>558.59997558594</ele>
        <time>2020-09-12T09:02:55.000Z</time>
      </trkpt>
      <trkpt lat="46.72846" lon="5.74688">
        <ele>558.59997558594</ele>
        <time>2020-09-12T09:02:56.000Z</time>
      </trkpt>
      <trkpt lat="46.7284" lon="5.7469">
        <ele>558.79998779297</ele>
        <time>2020-09-12T09:02:57.000Z</time>
      </trkpt>
      <trkpt lat="46.72829" lon="5.7469">
        <ele>559</ele>
        <time>2020-09-12T09:02:59.000Z</time>
      </trkpt>
      <trkpt lat="46.72823" lon="5.74688">
        <ele>559</ele>
        <time>2020-09-12T09:03:00.000Z</time>
      </trkpt>
      <trkpt lat="46.72818" lon="5.74685">
        <ele>559.20001220703</ele>
        <time>2020-09-12T09:03:01.000Z</time>
      </trkpt>
      <trkpt lat="46.72813" lon="5.74682">
        <ele>559.20001220703</ele>
        <time>2020-09-12T09:03:02.000Z</time>
      </trkpt>
      <trkpt lat="46.72808" lon="5.74679">
        <ele>559.40002441406</ele>
        <time>2020-09-12T09:03:03.000Z</time>
      </trkpt>
      <trkpt lat="46.72797" lon="5.74675">
        <ele>559.40002441406</ele>
        <time>2020-09-12T09:03:05.000Z</time>
      </trkpt>
      <trkpt lat="46.72786" lon="5.74675">
        <ele>559.59997558594</ele>
        <time>2020-09-12T09:03:07.000Z</time>
      </trkpt>
      <trkpt lat="46.72781" lon="5.74677">
        <ele>559.59997558594</ele>
        <time>2020-09-12T09:03:08.000Z</time>
      </trkpt>
      <trkpt lat="46.72776" lon="5.74681">
        <ele>560</ele>
        <time>2020-09-12T09:03:09.000Z</time>
      </trkpt>
      <trkpt lat="46.72767" lon="5.74692">
        <ele>560.40002441406</ele>
        <time>2020-09-12T09:03:11.000Z</time>
      </trkpt>
      <trkpt lat="46.72763" lon="5.74699">
        <ele>560.59997558594</ele>
        <time>2020-09-12T09:03:12.000Z</time>
      </trkpt>
      <trkpt lat="46.72759" lon="5.74706">
        <ele>560.59997558594</ele>
        <time>2020-09-12T09:03:13.000Z</time>
      </trkpt>
      <trkpt lat="46.72752" lon="5.74721">
        <ele>561</ele>
        <time>2020-09-12T09:03:15.000Z</time>
      </trkpt>
      <trkpt lat="46.72744" lon="5.74735">
        <ele>561.20001220703</ele>
        <time>2020-09-12T09:03:17.000Z</time>
      </trkpt>
      <trkpt lat="46.72739" lon="5.74742">
        <ele>561.20001220703</ele>
        <time>2020-09-12T09:03:18.000Z</time>
      </trkpt>
      <trkpt lat="46.72734" lon="5.74747">
        <ele>561.20001220703</ele>
        <time>2020-09-12T09:03:19.000Z</time>
      </trkpt>
      <trkpt lat="46.72724" lon="5.74757">
        <ele>561.20001220703</ele>
        <time>2020-09-12T09:03:21.000Z</time>
      </trkpt>
      <trkpt lat="46.72712" lon="5.74764">
        <ele>561.40002441406</ele>
        <time>2020-09-12T09:03:23.000Z</time>
      </trkpt>
      <trkpt lat="46.72701" lon="5.7477">
        <ele>561.40002441406</ele>
        <time>2020-09-12T09:03:25.000Z</time>
      </trkpt>
      <trkpt lat="46.72688" lon="5.74775">
        <ele>561.40002441406</ele>
        <time>2020-09-12T09:03:27.000Z</time>
      </trkpt>
      <trkpt lat="46.72674" lon="5.74775">
        <ele>561.40002441406</ele>
        <time>2020-09-12T09:03:29.000Z</time>
      </trkpt>
      <trkpt lat="46.72667" lon="5.74772">
        <ele>561.40002441406</ele>
        <time>2020-09-12T09:03:30.000Z</time>
      </trkpt>
      <trkpt lat="46.7266" lon="5.74768">
        <ele>561.40002441406</ele>
        <time>2020-09-12T09:03:31.000Z</time>
      </trkpt>
      <trkpt lat="46.72647" lon="5.74757">
        <ele>561.40002441406</ele>
        <time>2020-09-12T09:03:33.000Z</time>
      </trkpt>
      <trkpt lat="46.72641" lon="5.74751">
        <ele>561.40002441406</ele>
        <time>2020-09-12T09:03:34.000Z</time>
      </trkpt>
      <trkpt lat="46.72635" lon="5.74744">
        <ele>561.40002441406</ele>
        <time>2020-09-12T09:03:35.000Z</time>
      </trkpt>
      <trkpt lat="46.72623" lon="5.74731">
        <ele>561.20001220703</ele>
        <time>2020-09-12T09:03:37.000Z</time>
      </trkpt>
      <trkpt lat="46.72611" lon="5.74717">
        <ele>560.59997558594</ele>
        <time>2020-09-12T09:03:39.000Z</time>
      </trkpt>
      <trkpt lat="46.72599" lon="5.74703">
        <ele>560.40002441406</ele>
        <time>2020-09-12T09:03:41.000Z</time>
      </trkpt>
      <trkpt lat="46.72587" lon="5.74688">
        <ele>560.20001220703</ele>
        <time>2020-09-12T09:03:43.000Z</time>
      </trkpt>
      <trkpt lat="46.72574" lon="5.74673">
        <ele>560.20001220703</ele>
        <time>2020-09-12T09:03:45.000Z</time>
      </trkpt>
      <trkpt lat="46.72562" lon="5.74658">
        <ele>560</ele>
        <time>2020-09-12T09:03:47.000Z</time>
      </trkpt>
      <trkpt lat="46.72549" lon="5.74643">
        <ele>559.79998779297</ele>
        <time>2020-09-12T09:03:49.000Z</time>
      </trkpt>
      <trkpt lat="46.72536" lon="5.74627">
        <ele>559.40002441406</ele>
        <time>2020-09-12T09:03:51.000Z</time>
      </trkpt>
      <trkpt lat="46.72529" lon="5.7462">
        <ele>559.40002441406</ele>
        <time>2020-09-12T09:03:52.000Z</time>
      </trkpt>
      <trkpt lat="46.72522" lon="5.74613">
        <ele>559.20001220703</ele>
        <time>2020-09-12T09:03:53.000Z</time>
      </trkpt>
      <trkpt lat="46.72509" lon="5.74599">
        <ele>559.20001220703</ele>
        <time>2020-09-12T09:03:55.000Z</time>
      </trkpt>
      <trkpt lat="46.72496" lon="5.74585">
        <ele>559</ele>
        <time>2020-09-12T09:03:57.000Z</time>
      </trkpt>
      <trkpt lat="46.72482" lon="5.74572">
        <ele>558.79998779297</ele>
        <time>2020-09-12T09:03:59.000Z</time>
      </trkpt>
      <trkpt lat="46.72468" lon="5.74559">
        <ele>558.79998779297</ele>
        <time>2020-09-12T09:04:01.000Z</time>
      </trkpt>
      <trkpt lat="46.72454" lon="5.74547">
        <ele>558.79998779297</ele>
        <time>2020-09-12T09:04:03.000Z</time>
      </trkpt>
      <trkpt lat="46.7244" lon="5.74535">
        <ele>558.59997558594</ele>
        <time>2020-09-12T09:04:05.000Z</time>
      </trkpt>
      <trkpt lat="46.72425" lon="5.74523">
        <ele>558.59997558594</ele>
        <time>2020-09-12T09:04:07.000Z</time>
      </trkpt>
      <trkpt lat="46.72411" lon="5.74511">
        <ele>558.59997558594</ele>
        <time>2020-09-12T09:04:09.000Z</time>
      </trkpt>
      <trkpt lat="46.72404" lon="5.74506">
        <ele>558.59997558594</ele>
        <time>2020-09-12T09:04:10.000Z</time>
      </trkpt>
      <trkpt lat="46.72396" lon="5.745">
        <ele>558.40002441406</ele>
        <time>2020-09-12T09:04:11.000Z</time>
      </trkpt>
      <trkpt lat="46.72382" lon="5.74488">
        <ele>558.40002441406</ele>
        <time>2020-09-12T09:04:13.000Z</time>
      </trkpt>
      <trkpt lat="46.72375" lon="5.74482">
        <ele>558.20001220703</ele>
        <time>2020-09-12T09:04:14.000Z</time>
      </trkpt>
      <trkpt lat="46.72368" lon="5.74476">
        <ele>558.20001220703</ele>
        <time>2020-09-12T09:04:15.000Z</time>
      </trkpt>
      <trkpt lat="46.72353" lon="5.74464">
        <ele>558.20001220703</ele>
        <time>2020-09-12T09:04:17.000Z</time>
      </trkpt>
      <trkpt lat="46.72346" lon="5.74458">
        <ele>558</ele>
        <time>2020-09-12T09:04:18.000Z</time>
      </trkpt>
      <trkpt lat="46.72339" lon="5.74453">
        <ele>558</ele>
        <time>2020-09-12T09:04:19.000Z</time>
      </trkpt>
      <trkpt lat="46.72324" lon="5.74442">
        <ele>558</ele>
        <time>2020-09-12T09:04:21.000Z</time>
      </trkpt>
      <trkpt lat="46.7231" lon="5.74431">
        <ele>558</ele>
        <time>2020-09-12T09:04:23.000Z</time>
      </trkpt>
      <trkpt lat="46.72295" lon="5.74421">
        <ele>558</ele>
        <time>2020-09-12T09:04:25.000Z</time>
      </trkpt>
      <trkpt lat="46.72281" lon="5.7441">
        <ele>558</ele>
        <time>2020-09-12T09:04:27.000Z</time>
      </trkpt>
      <trkpt lat="46.72266" lon="5.74399">
        <ele>558</ele>
        <time>2020-09-12T09:04:29.000Z</time>
      </trkpt>
      <trkpt lat="46.72252" lon="5.74388">
        <ele>558</ele>
        <time>2020-09-12T09:04:31.000Z</time>
      </trkpt>
      <trkpt lat="46.72237" lon="5.74376">
        <ele>558</ele>
        <time>2020-09-12T09:04:33.000Z</time>
      </trkpt>
      <trkpt lat="46.72222" lon="5.74365">
        <ele>558</ele>
        <time>2020-09-12T09:04:35.000Z</time>
      </trkpt>
      <trkpt lat="46.72215" lon="5.7436">
        <ele>557.79998779297</ele>
        <time>2020-09-12T09:04:36.000Z</time>
      </trkpt>
      <trkpt lat="46.72208" lon="5.74354">
        <ele>557.79998779297</ele>
        <time>2020-09-12T09:04:37.000Z</time>
      </trkpt>
      <trkpt lat="46.72194" lon="5.74343">
        <ele>558</ele>
        <time>2020-09-12T09:04:39.000Z</time>
      </trkpt>
      <trkpt lat="46.72179" lon="5.74332">
        <ele>558</ele>
        <time>2020-09-12T09:04:41.000Z</time>
      </trkpt>
      <trkpt lat="46.72165" lon="5.74321">
        <ele>558</ele>
        <time>2020-09-12T09:04:43.000Z</time>
      </trkpt>
      <trkpt lat="46.72151" lon="5.7431">
        <ele>558</ele>
        <time>2020-09-12T09:04:45.000Z</time>
      </trkpt>
      <trkpt lat="46.72137" lon="5.74299">
        <ele>557.79998779297</ele>
        <time>2020-09-12T09:04:47.000Z</time>
      </trkpt>
      <trkpt lat="46.72123" lon="5.74288">
        <ele>557.79998779297</ele>
        <time>2020-09-12T09:04:49.000Z</time>
      </trkpt>
      <trkpt lat="46.72108" lon="5.74277">
        <ele>557.79998779297</ele>
        <time>2020-09-12T09:04:51.000Z</time>
      </trkpt>
      <trkpt lat="46.72094" lon="5.74266">
        <ele>557.79998779297</ele>
        <time>2020-09-12T09:04:53.000Z</time>
      </trkpt>
      <trkpt lat="46.72087" lon="5.7426">
        <ele>557.79998779297</ele>
        <time>2020-09-12T09:04:54.000Z</time>
      </trkpt>
      <trkpt lat="46.7208" lon="5.74255">
        <ele>557.79998779297</ele>
        <time>2020-09-12T09:04:55.000Z</time>
      </trkpt>
      <trkpt lat="46.72065" lon="5.74245">
        <ele>557.79998779297</ele>
        <time>2020-09-12T09:04:57.000Z</time>
      </trkpt>
      <trkpt lat="46.72052" lon="5.74234">
        <ele>557.79998779297</ele>
        <time>2020-09-12T09:04:59.000Z</time>
      </trkpt>
      <trkpt lat="46.72038" lon="5.74224">
        <ele>557.79998779297</ele>
        <time>2020-09-12T09:05:01.000Z</time>
      </trkpt>
      <trkpt lat="46.72025" lon="5.74213">
        <ele>557.79998779297</ele>
        <time>2020-09-12T09:05:03.000Z</time>
      </trkpt>
      <trkpt lat="46.72012" lon="5.74202">
        <ele>557.79998779297</ele>
        <time>2020-09-12T09:05:05.000Z</time>
      </trkpt>
      <trkpt lat="46.71999" lon="5.74192">
        <ele>558</ele>
        <time>2020-09-12T09:05:07.000Z</time>
      </trkpt>
      <trkpt lat="46.71985" lon="5.7418">
        <ele>558.59997558594</ele>
        <time>2020-09-12T09:05:09.000Z</time>
      </trkpt>
      <trkpt lat="46.71978" lon="5.74174">
        <ele>558.59997558594</ele>
        <time>2020-09-12T09:05:10.000Z</time>
      </trkpt>
      <trkpt lat="46.71971" lon="5.74167">
        <ele>558.59997558594</ele>
        <time>2020-09-12T09:05:11.000Z</time>
      </trkpt>
      <trkpt lat="46.71956" lon="5.74154">
        <ele>559</ele>
        <time>2020-09-12T09:05:13.000Z</time>
      </trkpt>
      <trkpt lat="46.7194" lon="5.7414">
        <ele>559</ele>
        <time>2020-09-12T09:05:15.000Z</time>
      </trkpt>
      <trkpt lat="46.71925" lon="5.74126">
        <ele>559</ele>
        <time>2020-09-12T09:05:17.000Z</time>
      </trkpt>
      <trkpt lat="46.71917" lon="5.7412">
        <ele>559</ele>
        <time>2020-09-12T09:05:18.000Z</time>
      </trkpt>
      <trkpt lat="46.7191" lon="5.74113">
        <ele>558.59997558594</ele>
        <time>2020-09-12T09:05:19.000Z</time>
      </trkpt>
      <trkpt lat="46.71895" lon="5.74099">
        <ele>557.79998779297</ele>
        <time>2020-09-12T09:05:21.000Z</time>
      </trkpt>
      <trkpt lat="46.71881" lon="5.74086">
        <ele>557.40002441406</ele>
        <time>2020-09-12T09:05:23.000Z</time>
      </trkpt>
      <trkpt lat="46.71866" lon="5.74072">
        <ele>557.40002441406</ele>
        <time>2020-09-12T09:05:25.000Z</time>
      </trkpt>
      <trkpt lat="46.71852" lon="5.74057">
        <ele>557.20001220703</ele>
        <time>2020-09-12T09:05:27.000Z</time>
      </trkpt>
      <trkpt lat="46.71839" lon="5.74042">
        <ele>557.20001220703</ele>
        <time>2020-09-12T09:05:29.000Z</time>
      </trkpt>
      <trkpt lat="46.71826" lon="5.74027">
        <ele>557</ele>
        <time>2020-09-12T09:05:31.000Z</time>
      </trkpt>
      <trkpt lat="46.71819" lon="5.7402">
        <ele>557</ele>
        <time>2020-09-12T09:05:32.000Z</time>
      </trkpt>
      <trkpt lat="46.71813" lon="5.74013">
        <ele>557</ele>
        <time>2020-09-12T09:05:33.000Z</time>
      </trkpt>
      <trkpt lat="46.71806" lon="5.74006">
        <ele>557</ele>
        <time>2020-09-12T09:05:34.000Z</time>
      </trkpt>
      <trkpt lat="46.71799" lon="5.74">
        <ele>557</ele>
        <time>2020-09-12T09:05:35.000Z</time>
      </trkpt>
      <trkpt lat="46.71783" lon="5.73989">
        <ele>557</ele>
        <time>2020-09-12T09:05:37.000Z</time>
      </trkpt>
      <trkpt lat="46.71768" lon="5.73979">
        <ele>556.79998779297</ele>
        <time>2020-09-12T09:05:39.000Z</time>
      </trkpt>
      <trkpt lat="46.71753" lon="5.73969">
        <ele>556.59997558594</ele>
        <time>2020-09-12T09:05:41.000Z</time>
      </trkpt>
      <trkpt lat="46.71738" lon="5.7396">
        <ele>556.40002441406</ele>
        <time>2020-09-12T09:05:43.000Z</time>
      </trkpt>
      <trkpt lat="46.71723" lon="5.7395">
        <ele>556.20001220703</ele>
        <time>2020-09-12T09:05:45.000Z</time>
      </trkpt>
      <trkpt lat="46.71715" lon="5.73945">
        <ele>556</ele>
        <time>2020-09-12T09:05:46.000Z</time>
      </trkpt>
      <trkpt lat="46.71707" lon="5.73941">
        <ele>555.79998779297</ele>
        <time>2020-09-12T09:05:47.000Z</time>
      </trkpt>
      <trkpt lat="46.717" lon="5.73936">
        <ele>555.79998779297</ele>
        <time>2020-09-12T09:05:48.000Z</time>
      </trkpt>
      <trkpt lat="46.71692" lon="5.73931">
        <ele>555.59997558594</ele>
        <time>2020-09-12T09:05:49.000Z</time>
      </trkpt>
      <trkpt lat="46.71677" lon="5.73922">
        <ele>555.59997558594</ele>
        <time>2020-09-12T09:05:51.000Z</time>
      </trkpt>
      <trkpt lat="46.71662" lon="5.73914">
        <ele>555.59997558594</ele>
        <time>2020-09-12T09:05:53.000Z</time>
      </trkpt>
      <trkpt lat="46.71647" lon="5.73907">
        <ele>555.59997558594</ele>
        <time>2020-09-12T09:05:55.000Z</time>
      </trkpt>
      <trkpt lat="46.71639" lon="5.73904">
        <ele>555.59997558594</ele>
        <time>2020-09-12T09:05:56.000Z</time>
      </trkpt>
      <trkpt lat="46.71631" lon="5.73901">
        <ele>555.59997558594</ele>
        <time>2020-09-12T09:05:57.000Z</time>
      </trkpt>
      <trkpt lat="46.71616" lon="5.73895">
        <ele>555.59997558594</ele>
        <time>2020-09-12T09:05:59.000Z</time>
      </trkpt>
      <trkpt lat="46.71602" lon="5.73889">
        <ele>555.59997558594</ele>
        <time>2020-09-12T09:06:01.000Z</time>
      </trkpt>
      <trkpt lat="46.71587" lon="5.73884">
        <ele>555.40002441406</ele>
        <time>2020-09-12T09:06:03.000Z</time>
      </trkpt>
      <trkpt lat="46.71573" lon="5.73879">
        <ele>555.59997558594</ele>
        <time>2020-09-12T09:06:05.000Z</time>
      </trkpt>
      <trkpt lat="46.7156" lon="5.73874">
        <ele>555.79998779297</ele>
        <time>2020-09-12T09:06:07.000Z</time>
      </trkpt>
      <trkpt lat="46.71546" lon="5.73868">
        <ele>556.59997558594</ele>
        <time>2020-09-12T09:06:09.000Z</time>
      </trkpt>
      <trkpt lat="46.71532" lon="5.73863">
        <ele>557</ele>
        <time>2020-09-12T09:06:11.000Z</time>
      </trkpt>
      <trkpt lat="46.71525" lon="5.7386">
        <ele>557.20001220703</ele>
        <time>2020-09-12T09:06:12.000Z</time>
      </trkpt>
      <trkpt lat="46.71517" lon="5.73857">
        <ele>557.40002441406</ele>
        <time>2020-09-12T09:06:13.000Z</time>
      </trkpt>
      <trkpt lat="46.71502" lon="5.73851">
        <ele>558</ele>
        <time>2020-09-12T09:06:15.000Z</time>
      </trkpt>
      <trkpt lat="46.71487" lon="5.73846">
        <ele>558.20001220703</ele>
        <time>2020-09-12T09:06:17.000Z</time>
      </trkpt>
      <trkpt lat="46.71471" lon="5.7384">
        <ele>558.20001220703</ele>
        <time>2020-09-12T09:06:19.000Z</time>
      </trkpt>
      <trkpt lat="46.71457" lon="5.73834">
        <ele>558.40002441406</ele>
        <time>2020-09-12T09:06:21.000Z</time>
      </trkpt>
      <trkpt lat="46.71442" lon="5.73828">
        <ele>558.40002441406</ele>
        <time>2020-09-12T09:06:23.000Z</time>
      </trkpt>
      <trkpt lat="46.71428" lon="5.73823">
        <ele>558.40002441406</ele>
        <time>2020-09-12T09:06:25.000Z</time>
      </trkpt>
      <trkpt lat="46.71414" lon="5.73817">
        <ele>558.40002441406</ele>
        <time>2020-09-12T09:06:27.000Z</time>
      </trkpt>
      <trkpt lat="46.71401" lon="5.7381">
        <ele>558.40002441406</ele>
        <time>2020-09-12T09:06:29.000Z</time>
      </trkpt>
      <trkpt lat="46.71394" lon="5.73807">
        <ele>558.40002441406</ele>
        <time>2020-09-12T09:06:30.000Z</time>
      </trkpt>
      <trkpt lat="46.71388" lon="5.73804">
        <ele>558.40002441406</ele>
        <time>2020-09-12T09:06:31.000Z</time>
      </trkpt>
      <trkpt lat="46.71374" lon="5.73798">
        <ele>558.40002441406</ele>
        <time>2020-09-12T09:06:33.000Z</time>
      </trkpt>
      <trkpt lat="46.71361" lon="5.73791">
        <ele>558.79998779297</ele>
        <time>2020-09-12T09:06:35.000Z</time>
      </trkpt>
      <trkpt lat="46.71355" lon="5.73787">
        <ele>559.20001220703</ele>
        <time>2020-09-12T09:06:36.000Z</time>
      </trkpt>
      <trkpt lat="46.71348" lon="5.73784">
        <ele>559.20001220703</ele>
        <time>2020-09-12T09:06:37.000Z</time>
      </trkpt>
      <trkpt lat="46.71335" lon="5.73777">
        <ele>559.59997558594</ele>
        <time>2020-09-12T09:06:39.000Z</time>
      </trkpt>
      <trkpt lat="46.71321" lon="5.7377">
        <ele>560</ele>
        <time>2020-09-12T09:06:41.000Z</time>
      </trkpt>
      <trkpt lat="46.71315" lon="5.73767">
        <ele>560.20001220703</ele>
        <time>2020-09-12T09:06:42.000Z</time>
      </trkpt>
      <trkpt lat="46.71308" lon="5.73763">
        <ele>560.40002441406</ele>
        <time>2020-09-12T09:06:43.000Z</time>
      </trkpt>
      <trkpt lat="46.71295" lon="5.73756">
        <ele>560.59997558594</ele>
        <time>2020-09-12T09:06:45.000Z</time>
      </trkpt>
      <trkpt lat="46.71282" lon="5.7375">
        <ele>560.79998779297</ele>
        <time>2020-09-12T09:06:47.000Z</time>
      </trkpt>
      <trkpt lat="46.71269" lon="5.73743">
        <ele>561.20001220703</ele>
        <time>2020-09-12T09:06:49.000Z</time>
      </trkpt>
      <trkpt lat="46.71263" lon="5.7374">
        <ele>561.20001220703</ele>
        <time>2020-09-12T09:06:50.000Z</time>
      </trkpt>
      <trkpt lat="46.71256" lon="5.73736">
        <ele>561.40002441406</ele>
        <time>2020-09-12T09:06:51.000Z</time>
      </trkpt>
      <trkpt lat="46.71244" lon="5.73729">
        <ele>561.40002441406</ele>
        <time>2020-09-12T09:06:53.000Z</time>
      </trkpt>
      <trkpt lat="46.71232" lon="5.73723">
        <ele>561.59997558594</ele>
        <time>2020-09-12T09:06:55.000Z</time>
      </trkpt>
      <trkpt lat="46.7122" lon="5.73717">
        <ele>561.79998779297</ele>
        <time>2020-09-12T09:06:57.000Z</time>
      </trkpt>
      <trkpt lat="46.71214" lon="5.73714">
        <ele>561.79998779297</ele>
        <time>2020-09-12T09:06:58.000Z</time>
      </trkpt>
      <trkpt lat="46.71208" lon="5.73711">
        <ele>562</ele>
        <time>2020-09-12T09:06:59.000Z</time>
      </trkpt>
      <trkpt lat="46.71196" lon="5.73705">
        <ele>562.40002441406</ele>
        <time>2020-09-12T09:07:01.000Z</time>
      </trkpt>
      <trkpt lat="46.71183" lon="5.73698">
        <ele>563</ele>
        <time>2020-09-12T09:07:03.000Z</time>
      </trkpt>
      <trkpt lat="46.71176" lon="5.73695">
        <ele>563.59997558594</ele>
        <time>2020-09-12T09:07:04.000Z</time>
      </trkpt>
      <trkpt lat="46.71169" lon="5.73691">
        <ele>563.79998779297</ele>
        <time>2020-09-12T09:07:05.000Z</time>
      </trkpt>
      <trkpt lat="46.71156" lon="5.73684">
        <ele>564.40002441406</ele>
        <time>2020-09-12T09:07:07.000Z</time>
      </trkpt>
      <trkpt lat="46.71142" lon="5.73676">
        <ele>564.40002441406</ele>
        <time>2020-09-12T09:07:09.000Z</time>
      </trkpt>
      <trkpt lat="46.71128" lon="5.73668">
        <ele>564.40002441406</ele>
        <time>2020-09-12T09:07:11.000Z</time>
      </trkpt>
      <trkpt lat="46.71121" lon="5.73665">
        <ele>564.59997558594</ele>
        <time>2020-09-12T09:07:12.000Z</time>
      </trkpt>
      <trkpt lat="46.71114" lon="5.73661">
        <ele>564.59997558594</ele>
        <time>2020-09-12T09:07:13.000Z</time>
      </trkpt>
      <trkpt lat="46.71101" lon="5.73654">
        <ele>564.59997558594</ele>
        <time>2020-09-12T09:07:15.000Z</time>
      </trkpt>
      <trkpt lat="46.71086" lon="5.73647">
        <ele>564.59997558594</ele>
        <time>2020-09-12T09:07:17.000Z</time>
      </trkpt>
      <trkpt lat="46.71072" lon="5.7364">
        <ele>564.59997558594</ele>
        <time>2020-09-12T09:07:19.000Z</time>
      </trkpt>
      <trkpt lat="46.71058" lon="5.73633">
        <ele>564.40002441406</ele>
        <time>2020-09-12T09:07:21.000Z</time>
      </trkpt>
      <trkpt lat="46.71043" lon="5.73627">
        <ele>564.40002441406</ele>
        <time>2020-09-12T09:07:23.000Z</time>
      </trkpt>
      <trkpt lat="46.7103" lon="5.73621">
        <ele>564.40002441406</ele>
        <time>2020-09-12T09:07:25.000Z</time>
      </trkpt>
      <trkpt lat="46.71016" lon="5.73616">
        <ele>564.59997558594</ele>
        <time>2020-09-12T09:07:27.000Z</time>
      </trkpt>
      <trkpt lat="46.71009" lon="5.73613">
        <ele>564.59997558594</ele>
        <time>2020-09-12T09:07:28.000Z</time>
      </trkpt>
      <trkpt lat="46.71003" lon="5.73611">
        <ele>564.59997558594</ele>
        <time>2020-09-12T09:07:29.000Z</time>
      </trkpt>
      <trkpt lat="46.70989" lon="5.73607">
        <ele>564.59997558594</ele>
        <time>2020-09-12T09:07:31.000Z</time>
      </trkpt>
      <trkpt lat="46.70975" lon="5.73604">
        <ele>564.59997558594</ele>
        <time>2020-09-12T09:07:33.000Z</time>
      </trkpt>
      <trkpt lat="46.7096" lon="5.73602">
        <ele>565</ele>
        <time>2020-09-12T09:07:35.000Z</time>
      </trkpt>
      <trkpt lat="46.70953" lon="5.736">
        <ele>565</ele>
        <time>2020-09-12T09:07:36.000Z</time>
      </trkpt>
      <trkpt lat="46.70946" lon="5.73599">
        <ele>565.20001220703</ele>
        <time>2020-09-12T09:07:37.000Z</time>
      </trkpt>
      <trkpt lat="46.70931" lon="5.73596">
        <ele>565.20001220703</ele>
        <time>2020-09-12T09:07:39.000Z</time>
      </trkpt>
      <trkpt lat="46.70916" lon="5.73594">
        <ele>565.20001220703</ele>
        <time>2020-09-12T09:07:41.000Z</time>
      </trkpt>
      <trkpt lat="46.70902" lon="5.73592">
        <ele>565.40002441406</ele>
        <time>2020-09-12T09:07:43.000Z</time>
      </trkpt>
      <trkpt lat="46.70886" lon="5.73591">
        <ele>565.40002441406</ele>
        <time>2020-09-12T09:07:45.000Z</time>
      </trkpt>
      <trkpt lat="46.7087" lon="5.7359">
        <ele>565.40002441406</ele>
        <time>2020-09-12T09:07:47.000Z</time>
      </trkpt>
      <trkpt lat="46.70854" lon="5.73588">
        <ele>565.40002441406</ele>
        <time>2020-09-12T09:07:49.000Z</time>
      </trkpt>
      <trkpt lat="46.70836" lon="5.73586">
        <ele>565.40002441406</ele>
        <time>2020-09-12T09:07:51.000Z</time>
      </trkpt>
      <trkpt lat="46.70817" lon="5.73582">
        <ele>565.20001220703</ele>
        <time>2020-09-12T09:07:53.000Z</time>
      </trkpt>
      <trkpt lat="46.70798" lon="5.73576">
        <ele>564.79998779297</ele>
        <time>2020-09-12T09:07:55.000Z</time>
      </trkpt>
      <trkpt lat="46.70779" lon="5.73567">
        <ele>564.20001220703</ele>
        <time>2020-09-12T09:07:57.000Z</time>
      </trkpt>
      <trkpt lat="46.7076" lon="5.73558">
        <ele>563.40002441406</ele>
        <time>2020-09-12T09:07:59.000Z</time>
      </trkpt>
      <trkpt lat="46.70741" lon="5.73548">
        <ele>562.20001220703</ele>
        <time>2020-09-12T09:08:01.000Z</time>
      </trkpt>
      <trkpt lat="46.70724" lon="5.73539">
        <ele>561.20001220703</ele>
        <time>2020-09-12T09:08:03.000Z</time>
      </trkpt>
      <trkpt lat="46.70706" lon="5.7353">
        <ele>560.79998779297</ele>
        <time>2020-09-12T09:08:05.000Z</time>
      </trkpt>
      <trkpt lat="46.7069" lon="5.7352">
        <ele>560.59997558594</ele>
        <time>2020-09-12T09:08:07.000Z</time>
      </trkpt>
      <trkpt lat="46.70674" lon="5.73511">
        <ele>560.59997558594</ele>
        <time>2020-09-12T09:08:09.000Z</time>
      </trkpt>
      <trkpt lat="46.70658" lon="5.73502">
        <ele>560.59997558594</ele>
        <time>2020-09-12T09:08:11.000Z</time>
      </trkpt>
      <trkpt lat="46.70642" lon="5.73493">
        <ele>560.59997558594</ele>
        <time>2020-09-12T09:08:13.000Z</time>
      </trkpt>
      <trkpt lat="46.70626" lon="5.73483">
        <ele>560.59997558594</ele>
        <time>2020-09-12T09:08:15.000Z</time>
      </trkpt>
      <trkpt lat="46.70619" lon="5.73478">
        <ele>560.79998779297</ele>
        <time>2020-09-12T09:08:16.000Z</time>
      </trkpt>
      <trkpt lat="46.70611" lon="5.73473">
        <ele>560.79998779297</ele>
        <time>2020-09-12T09:08:17.000Z</time>
      </trkpt>
      <trkpt lat="46.70596" lon="5.73463">
        <ele>560.79998779297</ele>
        <time>2020-09-12T09:08:19.000Z</time>
      </trkpt>
      <trkpt lat="46.70582" lon="5.73452">
        <ele>560.79998779297</ele>
        <time>2020-09-12T09:08:21.000Z</time>
      </trkpt>
      <trkpt lat="46.70568" lon="5.73442">
        <ele>560.79998779297</ele>
        <time>2020-09-12T09:08:23.000Z</time>
      </trkpt>
      <trkpt lat="46.70561" lon="5.73437">
        <ele>560.79998779297</ele>
        <time>2020-09-12T09:08:24.000Z</time>
      </trkpt>
      <trkpt lat="46.70554" lon="5.73432">
        <ele>560.79998779297</ele>
        <time>2020-09-12T09:08:25.000Z</time>
      </trkpt>
      <trkpt lat="46.70539" lon="5.73423">
        <ele>560.79998779297</ele>
        <time>2020-09-12T09:08:27.000Z</time>
      </trkpt>
      <trkpt lat="46.70524" lon="5.73415">
        <ele>560.79998779297</ele>
        <time>2020-09-12T09:08:29.000Z</time>
      </trkpt>
      <trkpt lat="46.70509" lon="5.73407">
        <ele>560.79998779297</ele>
        <time>2020-09-12T09:08:31.000Z</time>
      </trkpt>
      <trkpt lat="46.70502" lon="5.73403">
        <ele>560.79998779297</ele>
        <time>2020-09-12T09:08:32.000Z</time>
      </trkpt>
      <trkpt lat="46.70495" lon="5.73399">
        <ele>560.79998779297</ele>
        <time>2020-09-12T09:08:33.000Z</time>
      </trkpt>
      <trkpt lat="46.70481" lon="5.73391">
        <ele>561</ele>
        <time>2020-09-12T09:08:35.000Z</time>
      </trkpt>
      <trkpt lat="46.70468" lon="5.73383">
        <ele>561</ele>
        <time>2020-09-12T09:08:37.000Z</time>
      </trkpt>
      <trkpt lat="46.70462" lon="5.73378">
        <ele>561</ele>
        <time>2020-09-12T09:08:38.000Z</time>
      </trkpt>
      <trkpt lat="46.70456" lon="5.73373">
        <ele>561</ele>
        <time>2020-09-12T09:08:39.000Z</time>
      </trkpt>
      <trkpt lat="46.70442" lon="5.73361">
        <ele>561.20001220703</ele>
        <time>2020-09-12T09:08:41.000Z</time>
      </trkpt>
      <trkpt lat="46.70429" lon="5.73349">
        <ele>561.20001220703</ele>
        <time>2020-09-12T09:08:43.000Z</time>
      </trkpt>
      <trkpt lat="46.70415" lon="5.73336">
        <ele>561.40002441406</ele>
        <time>2020-09-12T09:08:45.000Z</time>
      </trkpt>
      <trkpt lat="46.70402" lon="5.73324">
        <ele>561.40002441406</ele>
        <time>2020-09-12T09:08:47.000Z</time>
      </trkpt>
      <trkpt lat="46.70395" lon="5.73318">
        <ele>561.40002441406</ele>
        <time>2020-09-12T09:08:48.000Z</time>
      </trkpt>
      <trkpt lat="46.70389" lon="5.73313">
        <ele>561.40002441406</ele>
        <time>2020-09-12T09:08:49.000Z</time>
      </trkpt>
      <trkpt lat="46.70375" lon="5.73303">
        <ele>561.40002441406</ele>
        <time>2020-09-12T09:08:51.000Z</time>
      </trkpt>
      <trkpt lat="46.70361" lon="5.73295">
        <ele>561.40002441406</ele>
        <time>2020-09-12T09:08:53.000Z</time>
      </trkpt>
      <trkpt lat="46.70354" lon="5.73293">
        <ele>561.40002441406</ele>
        <time>2020-09-12T09:08:54.000Z</time>
      </trkpt>
      <trkpt lat="46.70347" lon="5.7329">
        <ele>561.40002441406</ele>
        <time>2020-09-12T09:08:55.000Z</time>
      </trkpt>
      <trkpt lat="46.70332" lon="5.73288">
        <ele>561.40002441406</ele>
        <time>2020-09-12T09:08:57.000Z</time>
      </trkpt>
      <trkpt lat="46.70318" lon="5.73287">
        <ele>561.40002441406</ele>
        <time>2020-09-12T09:08:59.000Z</time>
      </trkpt>
      <trkpt lat="46.7031" lon="5.73286">
        <ele>561.40002441406</ele>
        <time>2020-09-12T09:09:00.000Z</time>
      </trkpt>
      <trkpt lat="46.70303" lon="5.73286">
        <ele>561.40002441406</ele>
        <time>2020-09-12T09:09:01.000Z</time>
      </trkpt>
      <trkpt lat="46.70289" lon="5.73286">
        <ele>562</ele>
        <time>2020-09-12T09:09:03.000Z</time>
      </trkpt>
      <trkpt lat="46.70282" lon="5.73286">
        <ele>562.40002441406</ele>
        <time>2020-09-12T09:09:04.000Z</time>
      </trkpt>
      <trkpt lat="46.70275" lon="5.73285">
        <ele>562.59997558594</ele>
        <time>2020-09-12T09:09:05.000Z</time>
      </trkpt>
      <trkpt lat="46.70263" lon="5.73282">
        <ele>562.79998779297</ele>
        <time>2020-09-12T09:09:07.000Z</time>
      </trkpt>
      <trkpt lat="46.7025" lon="5.73275">
        <ele>563.40002441406</ele>
        <time>2020-09-12T09:09:09.000Z</time>
      </trkpt>
      <trkpt lat="46.70239" lon="5.73267">
        <ele>563.59997558594</ele>
        <time>2020-09-12T09:09:11.000Z</time>
      </trkpt>
      <trkpt lat="46.70227" lon="5.73259">
        <ele>564</ele>
        <time>2020-09-12T09:09:13.000Z</time>
      </trkpt>
      <trkpt lat="46.70216" lon="5.73251">
        <ele>564.40002441406</ele>
        <time>2020-09-12T09:09:15.000Z</time>
      </trkpt>
      <trkpt lat="46.7021" lon="5.73247">
        <ele>564.40002441406</ele>
        <time>2020-09-12T09:09:16.000Z</time>
      </trkpt>
      <trkpt lat="46.70205" lon="5.73243">
        <ele>564.59997558594</ele>
        <time>2020-09-12T09:09:17.000Z</time>
      </trkpt>
      <trkpt lat="46.70194" lon="5.73236">
        <ele>564.59997558594</ele>
        <time>2020-09-12T09:09:19.000Z</time>
      </trkpt>
      <trkpt lat="46.70183" lon="5.73229">
        <ele>564.79998779297</ele>
        <time>2020-09-12T09:09:21.000Z</time>
      </trkpt>
      <trkpt lat="46.70172" lon="5.73222">
        <ele>565.20001220703</ele>
        <time>2020-09-12T09:09:23.000Z</time>
      </trkpt>
      <trkpt lat="46.70166" lon="5.73218">
        <ele>565.40002441406</ele>
        <time>2020-09-12T09:09:24.000Z</time>
      </trkpt>
      <trkpt lat="46.7016" lon="5.73214">
        <ele>565.79998779297</ele>
        <time>2020-09-12T09:09:25.000Z</time>
      </trkpt>
      <trkpt lat="46.70148" lon="5.73205">
        <ele>566</ele>
        <time>2020-09-12T09:09:27.000Z</time>
      </trkpt>
      <trkpt lat="46.70141" lon="5.732">
        <ele>566</ele>
        <time>2020-09-12T09:09:28.000Z</time>
      </trkpt>
      <trkpt lat="46.70135" lon="5.73195">
        <ele>566</ele>
        <time>2020-09-12T09:09:29.000Z</time>
      </trkpt>
      <trkpt lat="46.70128" lon="5.73189">
        <ele>566</ele>
        <time>2020-09-12T09:09:30.000Z</time>
      </trkpt>
      <trkpt lat="46.70122" lon="5.73183">
        <ele>566</ele>
        <time>2020-09-12T09:09:31.000Z</time>
      </trkpt>
      <trkpt lat="46.70112" lon="5.73167">
        <ele>566</ele>
        <time>2020-09-12T09:09:33.000Z</time>
      </trkpt>
      <trkpt lat="46.70106" lon="5.73146">
        <ele>565.40002441406</ele>
        <time>2020-09-12T09:09:35.000Z</time>
      </trkpt>
      <trkpt lat="46.70105" lon="5.73135">
        <ele>565.40002441406</ele>
        <time>2020-09-12T09:09:36.000Z</time>
      </trkpt>
      <trkpt lat="46.70104" lon="5.73124">
        <ele>565.20001220703</ele>
        <time>2020-09-12T09:09:37.000Z</time>
      </trkpt>
      <trkpt lat="46.70101" lon="5.73113">
        <ele>565</ele>
        <time>2020-09-12T09:09:38.000Z</time>
      </trkpt>
      <trkpt lat="46.70098" lon="5.73102">
        <ele>564.79998779297</ele>
        <time>2020-09-12T09:09:39.000Z</time>
      </trkpt>
      <trkpt lat="46.70094" lon="5.73093">
        <ele>564.79998779297</ele>
        <time>2020-09-12T09:09:40.000Z</time>
      </trkpt>
      <trkpt lat="46.70089" lon="5.73084">
        <ele>564.59997558594</ele>
        <time>2020-09-12T09:09:41.000Z</time>
      </trkpt>
      <trkpt lat="46.7008" lon="5.73067">
        <ele>564.40002441406</ele>
        <time>2020-09-12T09:09:43.000Z</time>
      </trkpt>
      <trkpt lat="46.70071" lon="5.73049">
        <ele>564.20001220703</ele>
        <time>2020-09-12T09:09:45.000Z</time>
      </trkpt>
      <trkpt lat="46.70067" lon="5.73041">
        <ele>564.20001220703</ele>
        <time>2020-09-12T09:09:46.000Z</time>
      </trkpt>
      <trkpt lat="46.70062" lon="5.73033">
        <ele>564.20001220703</ele>
        <time>2020-09-12T09:09:47.000Z</time>
      </trkpt>
      <trkpt lat="46.70051" lon="5.73019">
        <ele>563.79998779297</ele>
        <time>2020-09-12T09:09:49.000Z</time>
      </trkpt>
      <trkpt lat="46.70045" lon="5.73014">
        <ele>563.79998779297</ele>
        <time>2020-09-12T09:09:50.000Z</time>
      </trkpt>
      <trkpt lat="46.70039" lon="5.73008">
        <ele>563.79998779297</ele>
        <time>2020-09-12T09:09:51.000Z</time>
      </trkpt>
      <trkpt lat="46.70028" lon="5.72998">
        <ele>563.79998779297</ele>
        <time>2020-09-12T09:09:53.000Z</time>
      </trkpt>
      <trkpt lat="46.70017" lon="5.72986">
        <ele>563.79998779297</ele>
        <time>2020-09-12T09:09:55.000Z</time>
      </trkpt>
      <trkpt lat="46.70006" lon="5.72974">
        <ele>564.20001220703</ele>
        <time>2020-09-12T09:09:57.000Z</time>
      </trkpt>
      <trkpt lat="46.70001" lon="5.72968">
        <ele>564.20001220703</ele>
        <time>2020-09-12T09:09:58.000Z</time>
      </trkpt>
      <trkpt lat="46.69996" lon="5.72962">
        <ele>564.59997558594</ele>
        <time>2020-09-12T09:09:59.000Z</time>
      </trkpt>
      <trkpt lat="46.69987" lon="5.72949">
        <ele>565</ele>
        <time>2020-09-12T09:10:01.000Z</time>
      </trkpt>
      <trkpt lat="46.69982" lon="5.72942">
        <ele>565.40002441406</ele>
        <time>2020-09-12T09:10:02.000Z</time>
      </trkpt>
      <trkpt lat="46.69977" lon="5.72936">
        <ele>565.40002441406</ele>
        <time>2020-09-12T09:10:03.000Z</time>
      </trkpt>
      <trkpt lat="46.69968" lon="5.72922">
        <ele>565.40002441406</ele>
        <time>2020-09-12T09:10:05.000Z</time>
      </trkpt>
      <trkpt lat="46.69963" lon="5.72915">
        <ele>565.40002441406</ele>
        <time>2020-09-12T09:10:06.000Z</time>
      </trkpt>
      <trkpt lat="46.69959" lon="5.72908">
        <ele>565.40002441406</ele>
        <time>2020-09-12T09:10:07.000Z</time>
      </trkpt>
      <trkpt lat="46.69954" lon="5.72901">
        <ele>565.40002441406</ele>
        <time>2020-09-12T09:10:08.000Z</time>
      </trkpt>
      <trkpt lat="46.69949" lon="5.72895">
        <ele>565.40002441406</ele>
        <time>2020-09-12T09:10:09.000Z</time>
      </trkpt>
      <trkpt lat="46.69939" lon="5.72882">
        <ele>565.40002441406</ele>
        <time>2020-09-12T09:10:11.000Z</time>
      </trkpt>
      <trkpt lat="46.69929" lon="5.72869">
        <ele>565.40002441406</ele>
        <time>2020-09-12T09:10:13.000Z</time>
      </trkpt>
      <trkpt lat="46.69919" lon="5.72858">
        <ele>565.40002441406</ele>
        <time>2020-09-12T09:10:15.000Z</time>
      </trkpt>
      <trkpt lat="46.69909" lon="5.72847">
        <ele>565.40002441406</ele>
        <time>2020-09-12T09:10:17.000Z</time>
      </trkpt>
      <trkpt lat="46.69903" lon="5.72843">
        <ele>565.40002441406</ele>
        <time>2020-09-12T09:10:18.000Z</time>
      </trkpt>
      <trkpt lat="46.69897" lon="5.7284">
        <ele>565.40002441406</ele>
        <time>2020-09-12T09:10:19.000Z</time>
      </trkpt>
      <trkpt lat="46.69884" lon="5.72836">
        <ele>565.40002441406</ele>
        <time>2020-09-12T09:10:21.000Z</time>
      </trkpt>
      <trkpt lat="46.6987" lon="5.72831">
        <ele>565.40002441406</ele>
        <time>2020-09-12T09:10:23.000Z</time>
      </trkpt>
      <trkpt lat="46.69857" lon="5.72827">
        <ele>565.59997558594</ele>
        <time>2020-09-12T09:10:25.000Z</time>
      </trkpt>
      <trkpt lat="46.69851" lon="5.72825">
        <ele>565.59997558594</ele>
        <time>2020-09-12T09:10:26.000Z</time>
      </trkpt>
      <trkpt lat="46.69844" lon="5.72824">
        <ele>565.59997558594</ele>
        <time>2020-09-12T09:10:27.000Z</time>
      </trkpt>
      <trkpt lat="46.69832" lon="5.72821">
        <ele>565.79998779297</ele>
        <time>2020-09-12T09:10:29.000Z</time>
      </trkpt>
      <trkpt lat="46.69826" lon="5.72818">
        <ele>565.79998779297</ele>
        <time>2020-09-12T09:10:30.000Z</time>
      </trkpt>
      <trkpt lat="46.6982" lon="5.72816">
        <ele>565.79998779297</ele>
        <time>2020-09-12T09:10:31.000Z</time>
      </trkpt>
      <trkpt lat="46.69808" lon="5.72811">
        <ele>565.79998779297</ele>
        <time>2020-09-12T09:10:33.000Z</time>
      </trkpt>
      <trkpt lat="46.69795" lon="5.72807">
        <ele>566</ele>
        <time>2020-09-12T09:10:35.000Z</time>
      </trkpt>
      <trkpt lat="46.69789" lon="5.72805">
        <ele>566.20001220703</ele>
        <time>2020-09-12T09:10:36.000Z</time>
      </trkpt>
      <trkpt lat="46.69783" lon="5.72803">
        <ele>566.20001220703</ele>
        <time>2020-09-12T09:10:37.000Z</time>
      </trkpt>
      <trkpt lat="46.6977" lon="5.72798">
        <ele>566.20001220703</ele>
        <time>2020-09-12T09:10:39.000Z</time>
      </trkpt>
      <trkpt lat="46.69757" lon="5.72792">
        <ele>566.20001220703</ele>
        <time>2020-09-12T09:10:41.000Z</time>
      </trkpt>
      <trkpt lat="46.69751" lon="5.72787">
        <ele>566.20001220703</ele>
        <time>2020-09-12T09:10:42.000Z</time>
      </trkpt>
      <trkpt lat="46.69745" lon="5.7278">
        <ele>566.20001220703</ele>
        <time>2020-09-12T09:10:43.000Z</time>
      </trkpt>
      <trkpt lat="46.69738" lon="5.72761">
        <ele>566.20001220703</ele>
        <time>2020-09-12T09:10:45.000Z</time>
      </trkpt>
      <trkpt lat="46.69735" lon="5.72753">
        <ele>566.20001220703</ele>
        <time>2020-09-12T09:10:46.000Z</time>
      </trkpt>
      <trkpt lat="46.69733" lon="5.72746">
        <ele>566.20001220703</ele>
        <time>2020-09-12T09:10:47.000Z</time>
      </trkpt>
      <trkpt lat="46.69731" lon="5.7274">
        <ele>566.20001220703</ele>
        <time>2020-09-12T09:10:48.000Z</time>
      </trkpt>
      <trkpt lat="46.69729" lon="5.72734">
        <ele>566.20001220703</ele>
        <time>2020-09-12T09:10:49.000Z</time>
      </trkpt>
      <trkpt lat="46.69722" lon="5.72722">
        <ele>565.59997558594</ele>
        <time>2020-09-12T09:10:51.000Z</time>
      </trkpt>
      <trkpt lat="46.69717" lon="5.72715">
        <ele>565.20001220703</ele>
        <time>2020-09-12T09:10:52.000Z</time>
      </trkpt>
      <trkpt lat="46.69713" lon="5.72708">
        <ele>564.59997558594</ele>
        <time>2020-09-12T09:10:53.000Z</time>
      </trkpt>
      <trkpt lat="46.69704" lon="5.72695">
        <ele>564</ele>
        <time>2020-09-12T09:10:55.000Z</time>
      </trkpt>
      <trkpt lat="46.69695" lon="5.72684">
        <ele>563.79998779297</ele>
        <time>2020-09-12T09:10:57.000Z</time>
      </trkpt>
      <trkpt lat="46.69686" lon="5.72674">
        <ele>563.20001220703</ele>
        <time>2020-09-12T09:10:59.000Z</time>
      </trkpt>
      <trkpt lat="46.69681" lon="5.7267">
        <ele>562.40002441406</ele>
        <time>2020-09-12T09:11:00.000Z</time>
      </trkpt>
      <trkpt lat="46.69677" lon="5.72667">
        <ele>562.20001220703</ele>
        <time>2020-09-12T09:11:01.000Z</time>
      </trkpt>
      <trkpt lat="46.69671" lon="5.72662">
        <ele>562.20001220703</ele>
        <time>2020-09-12T09:11:03.000Z</time>
      </trkpt>
      <trkpt lat="46.69669" lon="5.7266">
        <ele>562.20001220703</ele>
        <time>2020-09-12T09:11:04.000Z</time>
      </trkpt>
      <trkpt lat="46.69666" lon="5.7266">
        <ele>562.20001220703</ele>
        <time>2020-09-12T09:11:05.000Z</time>
      </trkpt>
      <trkpt lat="46.6966" lon="5.72664">
        <ele>562</ele>
        <time>2020-09-12T09:11:07.000Z</time>
      </trkpt>
      <trkpt lat="46.69652" lon="5.7267">
        <ele>562</ele>
        <time>2020-09-12T09:11:09.000Z</time>
      </trkpt>
      <trkpt lat="46.69642" lon="5.72672">
        <ele>562</ele>
        <time>2020-09-12T09:11:11.000Z</time>
      </trkpt>
      <trkpt lat="46.69637" lon="5.72673">
        <ele>562</ele>
        <time>2020-09-12T09:11:12.000Z</time>
      </trkpt>
      <trkpt lat="46.69631" lon="5.72673">
        <ele>562.20001220703</ele>
        <time>2020-09-12T09:11:13.000Z</time>
      </trkpt>
      <trkpt lat="46.69622" lon="5.72675">
        <ele>562.40002441406</ele>
        <time>2020-09-12T09:11:15.000Z</time>
      </trkpt>
      <trkpt lat="46.69612" lon="5.72677">
        <ele>562.40002441406</ele>
        <time>2020-09-12T09:11:17.000Z</time>
      </trkpt>
      <trkpt lat="46.69607" lon="5.72679">
        <ele>562.40002441406</ele>
        <time>2020-09-12T09:11:18.000Z</time>
      </trkpt>
      <trkpt lat="46.69602" lon="5.7268">
        <ele>562.59997558594</ele>
        <time>2020-09-12T09:11:19.000Z</time>
      </trkpt>
      <trkpt lat="46.69592" lon="5.72682">
        <ele>562.59997558594</ele>
        <time>2020-09-12T09:11:21.000Z</time>
      </trkpt>
      <trkpt lat="46.69582" lon="5.72684">
        <ele>563.20001220703</ele>
        <time>2020-09-12T09:11:23.000Z</time>
      </trkpt>
      <trkpt lat="46.69573" lon="5.72687">
        <ele>563.59997558594</ele>
        <time>2020-09-12T09:11:25.000Z</time>
      </trkpt>
      <trkpt lat="46.69563" lon="5.72688">
        <ele>564.20001220703</ele>
        <time>2020-09-12T09:11:27.000Z</time>
      </trkpt>
      <trkpt lat="46.69552" lon="5.7269">
        <ele>564.79998779297</ele>
        <time>2020-09-12T09:11:29.000Z</time>
      </trkpt>
      <trkpt lat="46.69541" lon="5.72694">
        <ele>565.40002441406</ele>
        <time>2020-09-12T09:11:31.000Z</time>
      </trkpt>
      <trkpt lat="46.6953" lon="5.72697">
        <ele>565.79998779297</ele>
        <time>2020-09-12T09:11:33.000Z</time>
      </trkpt>
      <trkpt lat="46.69518" lon="5.727">
        <ele>566</ele>
        <time>2020-09-12T09:11:35.000Z</time>
      </trkpt>
      <trkpt lat="46.69506" lon="5.72704">
        <ele>566.20001220703</ele>
        <time>2020-09-12T09:11:37.000Z</time>
      </trkpt>
      <trkpt lat="46.69492" lon="5.72708">
        <ele>566.20001220703</ele>
        <time>2020-09-12T09:11:39.000Z</time>
      </trkpt>
      <trkpt lat="46.69485" lon="5.7271">
        <ele>566.20001220703</ele>
        <time>2020-09-12T09:11:40.000Z</time>
      </trkpt>
      <trkpt lat="46.69478" lon="5.72712">
        <ele>566.20001220703</ele>
        <time>2020-09-12T09:11:41.000Z</time>
      </trkpt>
      <trkpt lat="46.69464" lon="5.72715">
        <ele>566.20001220703</ele>
        <time>2020-09-12T09:11:43.000Z</time>
      </trkpt>
      <trkpt lat="46.69449" lon="5.72719">
        <ele>565.79998779297</ele>
        <time>2020-09-12T09:11:45.000Z</time>
      </trkpt>
      <trkpt lat="46.69433" lon="5.72723">
        <ele>565.40002441406</ele>
        <time>2020-09-12T09:11:47.000Z</time>
      </trkpt>
      <trkpt lat="46.69418" lon="5.72727">
        <ele>565.20001220703</ele>
        <time>2020-09-12T09:11:49.000Z</time>
      </trkpt>
      <trkpt lat="46.69402" lon="5.72731">
        <ele>564.59997558594</ele>
        <time>2020-09-12T09:11:51.000Z</time>
      </trkpt>
      <trkpt lat="46.69386" lon="5.72735">
        <ele>564.20001220703</ele>
        <time>2020-09-12T09:11:53.000Z</time>
      </trkpt>
      <trkpt lat="46.69371" lon="5.72739">
        <ele>564.20001220703</ele>
        <time>2020-09-12T09:11:55.000Z</time>
      </trkpt>
      <trkpt lat="46.69355" lon="5.72743">
        <ele>564</ele>
        <time>2020-09-12T09:11:57.000Z</time>
      </trkpt>
      <trkpt lat="46.69339" lon="5.72748">
        <ele>563.59997558594</ele>
        <time>2020-09-12T09:11:59.000Z</time>
      </trkpt>
      <trkpt lat="46.69324" lon="5.72752">
        <ele>563.20001220703</ele>
        <time>2020-09-12T09:12:01.000Z</time>
      </trkpt>
      <trkpt lat="46.69308" lon="5.72756">
        <ele>563</ele>
        <time>2020-09-12T09:12:03.000Z</time>
      </trkpt>
      <trkpt lat="46.69293" lon="5.72761">
        <ele>562.79998779297</ele>
        <time>2020-09-12T09:12:05.000Z</time>
      </trkpt>
      <trkpt lat="46.69278" lon="5.72765">
        <ele>562.59997558594</ele>
        <time>2020-09-12T09:12:07.000Z</time>
      </trkpt>
      <trkpt lat="46.69263" lon="5.72769">
        <ele>562.59997558594</ele>
        <time>2020-09-12T09:12:09.000Z</time>
      </trkpt>
      <trkpt lat="46.69248" lon="5.72773">
        <ele>562.59997558594</ele>
        <time>2020-09-12T09:12:11.000Z</time>
      </trkpt>
      <trkpt lat="46.69234" lon="5.72777">
        <ele>562.59997558594</ele>
        <time>2020-09-12T09:12:13.000Z</time>
      </trkpt>
      <trkpt lat="46.6922" lon="5.72781">
        <ele>562.59997558594</ele>
        <time>2020-09-12T09:12:15.000Z</time>
      </trkpt>
      <trkpt lat="46.69207" lon="5.72784">
        <ele>563</ele>
        <time>2020-09-12T09:12:17.000Z</time>
      </trkpt>
      <trkpt lat="46.69194" lon="5.72787">
        <ele>563</ele>
        <time>2020-09-12T09:12:19.000Z</time>
      </trkpt>
      <trkpt lat="46.69182" lon="5.7279">
        <ele>563.20001220703</ele>
        <time>2020-09-12T09:12:21.000Z</time>
      </trkpt>
      <trkpt lat="46.6917" lon="5.72794">
        <ele>563.79998779297</ele>
        <time>2020-09-12T09:12:23.000Z</time>
      </trkpt>
      <trkpt lat="46.69159" lon="5.72796">
        <ele>564.40002441406</ele>
        <time>2020-09-12T09:12:25.000Z</time>
      </trkpt>
      <trkpt lat="46.69148" lon="5.72798">
        <ele>565.40002441406</ele>
        <time>2020-09-12T09:12:27.000Z</time>
      </trkpt>
      <trkpt lat="46.69143" lon="5.72798">
        <ele>565.59997558594</ele>
        <time>2020-09-12T09:12:28.000Z</time>
      </trkpt>
      <trkpt lat="46.69138" lon="5.72799">
        <ele>565.59997558594</ele>
        <time>2020-09-12T09:12:29.000Z</time>
      </trkpt>
      <trkpt lat="46.69128" lon="5.728">
        <ele>566.20001220703</ele>
        <time>2020-09-12T09:12:31.000Z</time>
      </trkpt>
      <trkpt lat="46.69117" lon="5.72801">
        <ele>566.79998779297</ele>
        <time>2020-09-12T09:12:33.000Z</time>
      </trkpt>
      <trkpt lat="46.69107" lon="5.72799">
        <ele>567.59997558594</ele>
        <time>2020-09-12T09:12:35.000Z</time>
      </trkpt>
      <trkpt lat="46.69098" lon="5.72798">
        <ele>567.79998779297</ele>
        <time>2020-09-12T09:12:37.000Z</time>
      </trkpt>
      <trkpt lat="46.69088" lon="5.72798">
        <ele>568.40002441406</ele>
        <time>2020-09-12T09:12:39.000Z</time>
      </trkpt>
      <trkpt lat="46.69082" lon="5.72798">
        <ele>568.59997558594</ele>
        <time>2020-09-12T09:12:40.000Z</time>
      </trkpt>
      <trkpt lat="46.69076" lon="5.72799">
        <ele>568.79998779297</ele>
        <time>2020-09-12T09:12:41.000Z</time>
      </trkpt>
      <trkpt lat="46.69063" lon="5.72798">
        <ele>569.20001220703</ele>
        <time>2020-09-12T09:12:43.000Z</time>
      </trkpt>
      <trkpt lat="46.6905" lon="5.72796">
        <ele>569.59997558594</ele>
        <time>2020-09-12T09:12:45.000Z</time>
      </trkpt>
      <trkpt lat="46.69037" lon="5.72791">
        <ele>569.59997558594</ele>
        <time>2020-09-12T09:12:47.000Z</time>
      </trkpt>
      <trkpt lat="46.69024" lon="5.72785">
        <ele>569.59997558594</ele>
        <time>2020-09-12T09:12:49.000Z</time>
      </trkpt>
      <trkpt lat="46.69018" lon="5.72782">
        <ele>569.59997558594</ele>
        <time>2020-09-12T09:12:50.000Z</time>
      </trkpt>
      <trkpt lat="46.69012" lon="5.72777">
        <ele>569.59997558594</ele>
        <time>2020-09-12T09:12:51.000Z</time>
      </trkpt>
      <trkpt lat="46.68999" lon="5.72768">
        <ele>569.59997558594</ele>
        <time>2020-09-12T09:12:53.000Z</time>
      </trkpt>
      <trkpt lat="46.68986" lon="5.72758">
        <ele>569.40002441406</ele>
        <time>2020-09-12T09:12:55.000Z</time>
      </trkpt>
      <trkpt lat="46.68973" lon="5.72747">
        <ele>569</ele>
        <time>2020-09-12T09:12:57.000Z</time>
      </trkpt>
      <trkpt lat="46.6896" lon="5.72737">
        <ele>569</ele>
        <time>2020-09-12T09:12:59.000Z</time>
      </trkpt>
      <trkpt lat="46.68947" lon="5.72727">
        <ele>568.79998779297</ele>
        <time>2020-09-12T09:13:01.000Z</time>
      </trkpt>
      <trkpt lat="46.68935" lon="5.72716">
        <ele>568.40002441406</ele>
        <time>2020-09-12T09:13:03.000Z</time>
      </trkpt>
      <trkpt lat="46.68922" lon="5.72706">
        <ele>567.79998779297</ele>
        <time>2020-09-12T09:13:05.000Z</time>
      </trkpt>
      <trkpt lat="46.68916" lon="5.72701">
        <ele>567.79998779297</ele>
        <time>2020-09-12T09:13:06.000Z</time>
      </trkpt>
      <trkpt lat="46.68909" lon="5.72696">
        <ele>567.59997558594</ele>
        <time>2020-09-12T09:13:07.000Z</time>
      </trkpt>
      <trkpt lat="46.68895" lon="5.72684">
        <ele>567.40002441406</ele>
        <time>2020-09-12T09:13:09.000Z</time>
      </trkpt>
      <trkpt lat="46.68881" lon="5.72672">
        <ele>567.40002441406</ele>
        <time>2020-09-12T09:13:11.000Z</time>
      </trkpt>
      <trkpt lat="46.68874" lon="5.72666">
        <ele>567.40002441406</ele>
        <time>2020-09-12T09:13:12.000Z</time>
      </trkpt>
      <trkpt lat="46.68867" lon="5.72661">
        <ele>567.40002441406</ele>
        <time>2020-09-12T09:13:13.000Z</time>
      </trkpt>
      <trkpt lat="46.68854" lon="5.72649">
        <ele>567.40002441406</ele>
        <time>2020-09-12T09:13:15.000Z</time>
      </trkpt>
      <trkpt lat="46.6884" lon="5.72637">
        <ele>567.40002441406</ele>
        <time>2020-09-12T09:13:17.000Z</time>
      </trkpt>
      <trkpt lat="46.68826" lon="5.72627">
        <ele>567.40002441406</ele>
        <time>2020-09-12T09:13:19.000Z</time>
      </trkpt>
      <trkpt lat="46.68819" lon="5.72622">
        <ele>567.20001220703</ele>
        <time>2020-09-12T09:13:20.000Z</time>
      </trkpt>
      <trkpt lat="46.68811" lon="5.72617">
        <ele>567.20001220703</ele>
        <time>2020-09-12T09:13:21.000Z</time>
      </trkpt>
      <trkpt lat="46.68797" lon="5.72608">
        <ele>567.20001220703</ele>
        <time>2020-09-12T09:13:23.000Z</time>
      </trkpt>
      <trkpt lat="46.68782" lon="5.726">
        <ele>567</ele>
        <time>2020-09-12T09:13:25.000Z</time>
      </trkpt>
      <trkpt lat="46.68767" lon="5.72591">
        <ele>566.59997558594</ele>
        <time>2020-09-12T09:13:27.000Z</time>
      </trkpt>
      <trkpt lat="46.68752" lon="5.72582">
        <ele>566.40002441406</ele>
        <time>2020-09-12T09:13:29.000Z</time>
      </trkpt>
      <trkpt lat="46.68745" lon="5.72578">
        <ele>566.40002441406</ele>
        <time>2020-09-12T09:13:30.000Z</time>
      </trkpt>
      <trkpt lat="46.68738" lon="5.72574">
        <ele>566.20001220703</ele>
        <time>2020-09-12T09:13:31.000Z</time>
      </trkpt>
      <trkpt lat="46.68723" lon="5.72565">
        <ele>566.20001220703</ele>
        <time>2020-09-12T09:13:33.000Z</time>
      </trkpt>
      <trkpt lat="46.68708" lon="5.72557">
        <ele>566</ele>
        <time>2020-09-12T09:13:35.000Z</time>
      </trkpt>
      <trkpt lat="46.68693" lon="5.72548">
        <ele>565.79998779297</ele>
        <time>2020-09-12T09:13:37.000Z</time>
      </trkpt>
      <trkpt lat="46.68678" lon="5.72539">
        <ele>565.79998779297</ele>
        <time>2020-09-12T09:13:39.000Z</time>
      </trkpt>
      <trkpt lat="46.6867" lon="5.72535">
        <ele>565.79998779297</ele>
        <time>2020-09-12T09:13:40.000Z</time>
      </trkpt>
      <trkpt lat="46.68662" lon="5.72531">
        <ele>565.79998779297</ele>
        <time>2020-09-12T09:13:41.000Z</time>
      </trkpt>
      <trkpt lat="46.68648" lon="5.72523">
        <ele>565.59997558594</ele>
        <time>2020-09-12T09:13:43.000Z</time>
      </trkpt>
      <trkpt lat="46.68633" lon="5.72515">
        <ele>565.40002441406</ele>
        <time>2020-09-12T09:13:45.000Z</time>
      </trkpt>
      <trkpt lat="46.68618" lon="5.72507">
        <ele>565.40002441406</ele>
        <time>2020-09-12T09:13:47.000Z</time>
      </trkpt>
      <trkpt lat="46.68604" lon="5.72498">
        <ele>565.40002441406</ele>
        <time>2020-09-12T09:13:49.000Z</time>
      </trkpt>
      <trkpt lat="46.68588" lon="5.72489">
        <ele>565.20001220703</ele>
        <time>2020-09-12T09:13:51.000Z</time>
      </trkpt>
      <trkpt lat="46.68573" lon="5.7248">
        <ele>565.20001220703</ele>
        <time>2020-09-12T09:13:53.000Z</time>
      </trkpt>
      <trkpt lat="46.68567" lon="5.72476">
        <ele>565.20001220703</ele>
        <time>2020-09-12T09:13:54.000Z</time>
      </trkpt>
      <trkpt lat="46.68559" lon="5.72471">
        <ele>565</ele>
        <time>2020-09-12T09:13:55.000Z</time>
      </trkpt>
      <trkpt lat="46.68545" lon="5.72463">
        <ele>564.79998779297</ele>
        <time>2020-09-12T09:13:57.000Z</time>
      </trkpt>
      <trkpt lat="46.6853" lon="5.72456">
        <ele>564.79998779297</ele>
        <time>2020-09-12T09:13:59.000Z</time>
      </trkpt>
      <trkpt lat="46.68515" lon="5.72446">
        <ele>564.59997558594</ele>
        <time>2020-09-12T09:14:01.000Z</time>
      </trkpt>
      <trkpt lat="46.685" lon="5.72436">
        <ele>564.59997558594</ele>
        <time>2020-09-12T09:14:03.000Z</time>
      </trkpt>
      <trkpt lat="46.68487" lon="5.72426">
        <ele>564.59997558594</ele>
        <time>2020-09-12T09:14:05.000Z</time>
      </trkpt>
      <trkpt lat="46.68474" lon="5.72415">
        <ele>564.40002441406</ele>
        <time>2020-09-12T09:14:07.000Z</time>
      </trkpt>
      <trkpt lat="46.68461" lon="5.72405">
        <ele>564.40002441406</ele>
        <time>2020-09-12T09:14:09.000Z</time>
      </trkpt>
      <trkpt lat="46.68454" lon="5.724">
        <ele>564.40002441406</ele>
        <time>2020-09-12T09:14:10.000Z</time>
      </trkpt>
      <trkpt lat="46.68447" lon="5.72395">
        <ele>564.59997558594</ele>
        <time>2020-09-12T09:14:11.000Z</time>
      </trkpt>
      <trkpt lat="46.68432" lon="5.72388">
        <ele>564.59997558594</ele>
        <time>2020-09-12T09:14:13.000Z</time>
      </trkpt>
      <trkpt lat="46.68419" lon="5.72384">
        <ele>564.59997558594</ele>
        <time>2020-09-12T09:14:15.000Z</time>
      </trkpt>
      <trkpt lat="46.68411" lon="5.72382">
        <ele>564.59997558594</ele>
        <time>2020-09-12T09:14:16.000Z</time>
      </trkpt>
      <trkpt lat="46.68403" lon="5.7238">
        <ele>564.59997558594</ele>
        <time>2020-09-12T09:14:17.000Z</time>
      </trkpt>
      <trkpt lat="46.68394" lon="5.72379">
        <ele>564.59997558594</ele>
        <time>2020-09-12T09:14:18.000Z</time>
      </trkpt>
      <trkpt lat="46.68386" lon="5.72377">
        <ele>564.59997558594</ele>
        <time>2020-09-12T09:14:19.000Z</time>
      </trkpt>
      <trkpt lat="46.68369" lon="5.72376">
        <ele>564.59997558594</ele>
        <time>2020-09-12T09:14:21.000Z</time>
      </trkpt>
      <trkpt lat="46.68361" lon="5.72376">
        <ele>564.40002441406</ele>
        <time>2020-09-12T09:14:22.000Z</time>
      </trkpt>
      <trkpt lat="46.68353" lon="5.72377">
        <ele>564.40002441406</ele>
        <time>2020-09-12T09:14:23.000Z</time>
      </trkpt>
      <trkpt lat="46.68336" lon="5.72378">
        <ele>564.40002441406</ele>
        <time>2020-09-12T09:14:25.000Z</time>
      </trkpt>
      <trkpt lat="46.6832" lon="5.7238">
        <ele>564.20001220703</ele>
        <time>2020-09-12T09:14:27.000Z</time>
      </trkpt>
      <trkpt lat="46.68304" lon="5.72384">
        <ele>564.20001220703</ele>
        <time>2020-09-12T09:14:29.000Z</time>
      </trkpt>
      <trkpt lat="46.68288" lon="5.72389">
        <ele>564</ele>
        <time>2020-09-12T09:14:31.000Z</time>
      </trkpt>
      <trkpt lat="46.68272" lon="5.72395">
        <ele>564</ele>
        <time>2020-09-12T09:14:33.000Z</time>
      </trkpt>
      <trkpt lat="46.68257" lon="5.72401">
        <ele>564</ele>
        <time>2020-09-12T09:14:35.000Z</time>
      </trkpt>
      <trkpt lat="46.68241" lon="5.72406">
        <ele>563.79998779297</ele>
        <time>2020-09-12T09:14:37.000Z</time>
      </trkpt>
      <trkpt lat="46.68233" lon="5.72409">
        <ele>563.79998779297</ele>
        <time>2020-09-12T09:14:38.000Z</time>
      </trkpt>
      <trkpt lat="46.68225" lon="5.72412">
        <ele>563.79998779297</ele>
        <time>2020-09-12T09:14:39.000Z</time>
      </trkpt>
      <trkpt lat="46.68208" lon="5.72416">
        <ele>563.59997558594</ele>
        <time>2020-09-12T09:14:41.000Z</time>
      </trkpt>
      <trkpt lat="46.68192" lon="5.72421">
        <ele>563.40002441406</ele>
        <time>2020-09-12T09:14:43.000Z</time>
      </trkpt>
      <trkpt lat="46.68177" lon="5.72424">
        <ele>563.40002441406</ele>
        <time>2020-09-12T09:14:45.000Z</time>
      </trkpt>
      <trkpt lat="46.68169" lon="5.72425">
        <ele>563.40002441406</ele>
        <time>2020-09-12T09:14:46.000Z</time>
      </trkpt>
      <trkpt lat="46.68162" lon="5.72425">
        <ele>563.20001220703</ele>
        <time>2020-09-12T09:14:47.000Z</time>
      </trkpt>
      <trkpt lat="46.68149" lon="5.72425">
        <ele>563.20001220703</ele>
        <time>2020-09-12T09:14:49.000Z</time>
      </trkpt>
      <trkpt lat="46.68135" lon="5.72424">
        <ele>563.20001220703</ele>
        <time>2020-09-12T09:14:51.000Z</time>
      </trkpt>
      <trkpt lat="46.6812" lon="5.72422">
        <ele>563.20001220703</ele>
        <time>2020-09-12T09:14:53.000Z</time>
      </trkpt>
      <trkpt lat="46.68112" lon="5.72421">
        <ele>563.20001220703</ele>
        <time>2020-09-12T09:14:54.000Z</time>
      </trkpt>
      <trkpt lat="46.68105" lon="5.72419">
        <ele>563</ele>
        <time>2020-09-12T09:14:55.000Z</time>
      </trkpt>
      <trkpt lat="46.68097" lon="5.72416">
        <ele>563</ele>
        <time>2020-09-12T09:14:56.000Z</time>
      </trkpt>
      <trkpt lat="46.6809" lon="5.72412">
        <ele>563</ele>
        <time>2020-09-12T09:14:57.000Z</time>
      </trkpt>
      <trkpt lat="46.68076" lon="5.72408">
        <ele>563</ele>
        <time>2020-09-12T09:14:59.000Z</time>
      </trkpt>
      <trkpt lat="46.68063" lon="5.72402">
        <ele>563</ele>
        <time>2020-09-12T09:15:01.000Z</time>
      </trkpt>
      <trkpt lat="46.6805" lon="5.72396">
        <ele>563</ele>
        <time>2020-09-12T09:15:03.000Z</time>
      </trkpt>
      <trkpt lat="46.68037" lon="5.72389">
        <ele>563</ele>
        <time>2020-09-12T09:15:05.000Z</time>
      </trkpt>
      <trkpt lat="46.68023" lon="5.72381">
        <ele>563</ele>
        <time>2020-09-12T09:15:07.000Z</time>
      </trkpt>
      <trkpt lat="46.68015" lon="5.72377">
        <ele>563</ele>
        <time>2020-09-12T09:15:08.000Z</time>
      </trkpt>
      <trkpt lat="46.68008" lon="5.72371">
        <ele>563</ele>
        <time>2020-09-12T09:15:09.000Z</time>
      </trkpt>
      <trkpt lat="46.67996" lon="5.72363">
        <ele>563</ele>
        <time>2020-09-12T09:15:11.000Z</time>
      </trkpt>
      <trkpt lat="46.67991" lon="5.72359">
        <ele>563</ele>
        <time>2020-09-12T09:15:12.000Z</time>
      </trkpt>
      <trkpt lat="46.67985" lon="5.72353">
        <ele>563</ele>
        <time>2020-09-12T09:15:13.000Z</time>
      </trkpt>
      <trkpt lat="46.67971" lon="5.72343">
        <ele>562.59997558594</ele>
        <time>2020-09-12T09:15:15.000Z</time>
      </trkpt>
      <trkpt lat="46.67965" lon="5.72339">
        <ele>562.40002441406</ele>
        <time>2020-09-12T09:15:16.000Z</time>
      </trkpt>
      <trkpt lat="46.67957" lon="5.72335">
        <ele>562.40002441406</ele>
        <time>2020-09-12T09:15:17.000Z</time>
      </trkpt>
      <trkpt lat="46.67941" lon="5.72324">
        <ele>562.40002441406</ele>
        <time>2020-09-12T09:15:19.000Z</time>
      </trkpt>
      <trkpt lat="46.67928" lon="5.72316">
        <ele>562.40002441406</ele>
        <time>2020-09-12T09:15:21.000Z</time>
      </trkpt>
      <trkpt lat="46.67921" lon="5.72314">
        <ele>562.40002441406</ele>
        <time>2020-09-12T09:15:22.000Z</time>
      </trkpt>
      <trkpt lat="46.67914" lon="5.7231">
        <ele>562.20001220703</ele>
        <time>2020-09-12T09:15:23.000Z</time>
      </trkpt>
      <trkpt lat="46.679" lon="5.72301">
        <ele>562.20001220703</ele>
        <time>2020-09-12T09:15:25.000Z</time>
      </trkpt>
      <trkpt lat="46.67883" lon="5.72291">
        <ele>562.20001220703</ele>
        <time>2020-09-12T09:15:26.000Z</time>
      </trkpt>
      <trkpt lat="46.67883" lon="5.72291">
        <ele>562.20001220703</ele>
        <time>2020-09-12T09:15:27.000Z</time>
      </trkpt>
      <trkpt lat="46.67867" lon="5.72281">
        <ele>562.20001220703</ele>
        <time>2020-09-12T09:15:29.000Z</time>
      </trkpt>
      <trkpt lat="46.67851" lon="5.7227">
        <ele>562</ele>
        <time>2020-09-12T09:15:31.000Z</time>
      </trkpt>
      <trkpt lat="46.67828" lon="5.72252">
        <ele>562</ele>
        <time>2020-09-12T09:15:33.000Z</time>
      </trkpt>
      <trkpt lat="46.67828" lon="5.72252">
        <ele>562</ele>
        <time>2020-09-12T09:15:34.000Z</time>
      </trkpt>
      <trkpt lat="46.67821" lon="5.72246">
        <ele>562</ele>
        <time>2020-09-12T09:15:35.000Z</time>
      </trkpt>
      <trkpt lat="46.67806" lon="5.72236">
        <ele>562</ele>
        <time>2020-09-12T09:15:37.000Z</time>
      </trkpt>
      <trkpt lat="46.67791" lon="5.72225">
        <ele>561.79998779297</ele>
        <time>2020-09-12T09:15:39.000Z</time>
      </trkpt>
      <trkpt lat="46.67783" lon="5.72221">
        <ele>561.79998779297</ele>
        <time>2020-09-12T09:15:40.000Z</time>
      </trkpt>
      <trkpt lat="46.67767" lon="5.72212">
        <ele>561.79998779297</ele>
        <time>2020-09-12T09:15:41.000Z</time>
      </trkpt>
      <trkpt lat="46.6776" lon="5.72208">
        <ele>561.79998779297</ele>
        <time>2020-09-12T09:15:43.000Z</time>
      </trkpt>
      <trkpt lat="46.67744" lon="5.722">
        <ele>561.59997558594</ele>
        <time>2020-09-12T09:15:45.000Z</time>
      </trkpt>
      <trkpt lat="46.67729" lon="5.72191">
        <ele>561.59997558594</ele>
        <time>2020-09-12T09:15:47.000Z</time>
      </trkpt>
      <trkpt lat="46.67723" lon="5.72186">
        <ele>561.59997558594</ele>
        <time>2020-09-12T09:15:48.000Z</time>
      </trkpt>
      <trkpt lat="46.67717" lon="5.72182">
        <ele>561.59997558594</ele>
        <time>2020-09-12T09:15:49.000Z</time>
      </trkpt>
      <trkpt lat="46.67702" lon="5.72172">
        <ele>561.40002441406</ele>
        <time>2020-09-12T09:15:51.000Z</time>
      </trkpt>
      <trkpt lat="46.67688" lon="5.72162">
        <ele>561.40002441406</ele>
        <time>2020-09-12T09:15:53.000Z</time>
      </trkpt>
      <trkpt lat="46.67673" lon="5.72153">
        <ele>561.40002441406</ele>
        <time>2020-09-12T09:15:55.000Z</time>
      </trkpt>
      <trkpt lat="46.67658" lon="5.72145">
        <ele>561.40002441406</ele>
        <time>2020-09-12T09:15:57.000Z</time>
      </trkpt>
      <trkpt lat="46.67643" lon="5.72137">
        <ele>561.59997558594</ele>
        <time>2020-09-12T09:15:59.000Z</time>
      </trkpt>
      <trkpt lat="46.67627" lon="5.72132">
        <ele>561.59997558594</ele>
        <time>2020-09-12T09:16:01.000Z</time>
      </trkpt>
      <trkpt lat="46.67611" lon="5.72129">
        <ele>561.59997558594</ele>
        <time>2020-09-12T09:16:03.000Z</time>
      </trkpt>
      <trkpt lat="46.67594" lon="5.72127">
        <ele>561.59997558594</ele>
        <time>2020-09-12T09:16:05.000Z</time>
      </trkpt>
      <trkpt lat="46.67577" lon="5.72124">
        <ele>561.59997558594</ele>
        <time>2020-09-12T09:16:07.000Z</time>
      </trkpt>
      <trkpt lat="46.6756" lon="5.72121">
        <ele>561.59997558594</ele>
        <time>2020-09-12T09:16:09.000Z</time>
      </trkpt>
      <trkpt lat="46.67553" lon="5.7212">
        <ele>561.40002441406</ele>
        <time>2020-09-12T09:16:10.000Z</time>
      </trkpt>
      <trkpt lat="46.67545" lon="5.72119">
        <ele>561.40002441406</ele>
        <time>2020-09-12T09:16:11.000Z</time>
      </trkpt>
      <trkpt lat="46.67529" lon="5.72117">
        <ele>561.40002441406</ele>
        <time>2020-09-12T09:16:13.000Z</time>
      </trkpt>
      <trkpt lat="46.67513" lon="5.72115">
        <ele>561.20001220703</ele>
        <time>2020-09-12T09:16:15.000Z</time>
      </trkpt>
      <trkpt lat="46.67498" lon="5.72112">
        <ele>561.20001220703</ele>
        <time>2020-09-12T09:16:17.000Z</time>
      </trkpt>
      <trkpt lat="46.67482" lon="5.7211">
        <ele>561.20001220703</ele>
        <time>2020-09-12T09:16:19.000Z</time>
      </trkpt>
      <trkpt lat="46.67466" lon="5.72108">
        <ele>561.20001220703</ele>
        <time>2020-09-12T09:16:21.000Z</time>
      </trkpt>
      <trkpt lat="46.67449" lon="5.72108">
        <ele>561.20001220703</ele>
        <time>2020-09-12T09:16:23.000Z</time>
      </trkpt>
      <trkpt lat="46.67434" lon="5.72108">
        <ele>561</ele>
        <time>2020-09-12T09:16:25.000Z</time>
      </trkpt>
      <trkpt lat="46.67418" lon="5.72109">
        <ele>561</ele>
        <time>2020-09-12T09:16:27.000Z</time>
      </trkpt>
      <trkpt lat="46.67402" lon="5.7211">
        <ele>560.79998779297</ele>
        <time>2020-09-12T09:16:29.000Z</time>
      </trkpt>
      <trkpt lat="46.67386" lon="5.72112">
        <ele>560.79998779297</ele>
        <time>2020-09-12T09:16:31.000Z</time>
      </trkpt>
      <trkpt lat="46.67378" lon="5.72113">
        <ele>560.79998779297</ele>
        <time>2020-09-12T09:16:32.000Z</time>
      </trkpt>
      <trkpt lat="46.67371" lon="5.72113">
        <ele>560.79998779297</ele>
        <time>2020-09-12T09:16:33.000Z</time>
      </trkpt>
      <trkpt lat="46.67363" lon="5.72115">
        <ele>560.79998779297</ele>
        <time>2020-09-12T09:16:34.000Z</time>
      </trkpt>
      <trkpt lat="46.67355" lon="5.72116">
        <ele>560.79998779297</ele>
        <time>2020-09-12T09:16:35.000Z</time>
      </trkpt>
      <trkpt lat="46.6734" lon="5.72118">
        <ele>560.59997558594</ele>
        <time>2020-09-12T09:16:37.000Z</time>
      </trkpt>
      <trkpt lat="46.67332" lon="5.72119">
        <ele>560.59997558594</ele>
        <time>2020-09-12T09:16:38.000Z</time>
      </trkpt>
      <trkpt lat="46.67324" lon="5.7212">
        <ele>560.59997558594</ele>
        <time>2020-09-12T09:16:39.000Z</time>
      </trkpt>
      <trkpt lat="46.67309" lon="5.72123">
        <ele>560.59997558594</ele>
        <time>2020-09-12T09:16:41.000Z</time>
      </trkpt>
      <trkpt lat="46.67293" lon="5.72126">
        <ele>560.59997558594</ele>
        <time>2020-09-12T09:16:43.000Z</time>
      </trkpt>
      <trkpt lat="46.67277" lon="5.72128">
        <ele>560.59997558594</ele>
        <time>2020-09-12T09:16:45.000Z</time>
      </trkpt>
      <trkpt lat="46.6727" lon="5.7213">
        <ele>560.40002441406</ele>
        <time>2020-09-12T09:16:46.000Z</time>
      </trkpt>
      <trkpt lat="46.67263" lon="5.72131">
        <ele>560.40002441406</ele>
        <time>2020-09-12T09:16:47.000Z</time>
      </trkpt>
      <trkpt lat="46.67248" lon="5.72134">
        <ele>560.40002441406</ele>
        <time>2020-09-12T09:16:49.000Z</time>
      </trkpt>
      <trkpt lat="46.67233" lon="5.72136">
        <ele>560.40002441406</ele>
        <time>2020-09-12T09:16:51.000Z</time>
      </trkpt>
      <trkpt lat="46.67225" lon="5.72137">
        <ele>560.40002441406</ele>
        <time>2020-09-12T09:16:52.000Z</time>
      </trkpt>
      <trkpt lat="46.67217" lon="5.72137">
        <ele>560.40002441406</ele>
        <time>2020-09-12T09:16:53.000Z</time>
      </trkpt>
      <trkpt lat="46.67202" lon="5.72137">
        <ele>560.40002441406</ele>
        <time>2020-09-12T09:16:55.000Z</time>
      </trkpt>
      <trkpt lat="46.67187" lon="5.72136">
        <ele>560.40002441406</ele>
        <time>2020-09-12T09:16:57.000Z</time>
      </trkpt>
      <trkpt lat="46.67172" lon="5.72135">
        <ele>560.40002441406</ele>
        <time>2020-09-12T09:16:59.000Z</time>
      </trkpt>
      <trkpt lat="46.67164" lon="5.72135">
        <ele>560.40002441406</ele>
        <time>2020-09-12T09:17:00.000Z</time>
      </trkpt>
      <trkpt lat="46.67156" lon="5.72135">
        <ele>560.40002441406</ele>
        <time>2020-09-12T09:17:01.000Z</time>
      </trkpt>
      <trkpt lat="46.67141" lon="5.72134">
        <ele>560.40002441406</ele>
        <time>2020-09-12T09:17:03.000Z</time>
      </trkpt>
      <trkpt lat="46.67125" lon="5.72134">
        <ele>560.40002441406</ele>
        <time>2020-09-12T09:17:05.000Z</time>
      </trkpt>
      <trkpt lat="46.67109" lon="5.72134">
        <ele>560.40002441406</ele>
        <time>2020-09-12T09:17:07.000Z</time>
      </trkpt>
      <trkpt lat="46.67101" lon="5.72134">
        <ele>560.40002441406</ele>
        <time>2020-09-12T09:17:08.000Z</time>
      </trkpt>
      <trkpt lat="46.67094" lon="5.72134">
        <ele>560</ele>
        <time>2020-09-12T09:17:09.000Z</time>
      </trkpt>
      <trkpt lat="46.67079" lon="5.72134">
        <ele>559.79998779297</ele>
        <time>2020-09-12T09:17:11.000Z</time>
      </trkpt>
      <trkpt lat="46.67065" lon="5.72133">
        <ele>559.40002441406</ele>
        <time>2020-09-12T09:17:13.000Z</time>
      </trkpt>
      <trkpt lat="46.67051" lon="5.72132">
        <ele>559.20001220703</ele>
        <time>2020-09-12T09:17:15.000Z</time>
      </trkpt>
      <trkpt lat="46.67037" lon="5.72132">
        <ele>559.20001220703</ele>
        <time>2020-09-12T09:17:17.000Z</time>
      </trkpt>
      <trkpt lat="46.67022" lon="5.72131">
        <ele>559</ele>
        <time>2020-09-12T09:17:19.000Z</time>
      </trkpt>
      <trkpt lat="46.67008" lon="5.72131">
        <ele>559</ele>
        <time>2020-09-12T09:17:21.000Z</time>
      </trkpt>
      <trkpt lat="46.66994" lon="5.72132">
        <ele>559</ele>
        <time>2020-09-12T09:17:23.000Z</time>
      </trkpt>
      <trkpt lat="46.66986" lon="5.72133">
        <ele>559</ele>
        <time>2020-09-12T09:17:24.000Z</time>
      </trkpt>
      <trkpt lat="46.66979" lon="5.72134">
        <ele>559</ele>
        <time>2020-09-12T09:17:25.000Z</time>
      </trkpt>
      <trkpt lat="46.66964" lon="5.72137">
        <ele>559</ele>
        <time>2020-09-12T09:17:27.000Z</time>
      </trkpt>
      <trkpt lat="46.66949" lon="5.7214">
        <ele>559</ele>
        <time>2020-09-12T09:17:29.000Z</time>
      </trkpt>
      <trkpt lat="46.66934" lon="5.72142">
        <ele>559</ele>
        <time>2020-09-12T09:17:31.000Z</time>
      </trkpt>
      <trkpt lat="46.66919" lon="5.72144">
        <ele>559</ele>
        <time>2020-09-12T09:17:33.000Z</time>
      </trkpt>
      <trkpt lat="46.66904" lon="5.72144">
        <ele>559</ele>
        <time>2020-09-12T09:17:35.000Z</time>
      </trkpt>
      <trkpt lat="46.66888" lon="5.72144">
        <ele>558.59997558594</ele>
        <time>2020-09-12T09:17:37.000Z</time>
      </trkpt>
      <trkpt lat="46.66873" lon="5.72143">
        <ele>558.59997558594</ele>
        <time>2020-09-12T09:17:39.000Z</time>
      </trkpt>
      <trkpt lat="46.66865" lon="5.72142">
        <ele>558.59997558594</ele>
        <time>2020-09-12T09:17:40.000Z</time>
      </trkpt>
      <trkpt lat="46.66857" lon="5.72142">
        <ele>558.59997558594</ele>
        <time>2020-09-12T09:17:41.000Z</time>
      </trkpt>
      <trkpt lat="46.66843" lon="5.7214">
        <ele>558.59997558594</ele>
        <time>2020-09-12T09:17:43.000Z</time>
      </trkpt>
      <trkpt lat="46.66828" lon="5.72138">
        <ele>558.59997558594</ele>
        <time>2020-09-12T09:17:45.000Z</time>
      </trkpt>
      <trkpt lat="46.66813" lon="5.72136">
        <ele>558.59997558594</ele>
        <time>2020-09-12T09:17:47.000Z</time>
      </trkpt>
      <trkpt lat="46.66798" lon="5.72134">
        <ele>558.59997558594</ele>
        <time>2020-09-12T09:17:49.000Z</time>
      </trkpt>
      <trkpt lat="46.66783" lon="5.72132">
        <ele>558.59997558594</ele>
        <time>2020-09-12T09:17:51.000Z</time>
      </trkpt>
      <trkpt lat="46.66768" lon="5.72127">
        <ele>558.59997558594</ele>
        <time>2020-09-12T09:17:53.000Z</time>
      </trkpt>
      <trkpt lat="46.6676" lon="5.72124">
        <ele>558.59997558594</ele>
        <time>2020-09-12T09:17:54.000Z</time>
      </trkpt>
      <trkpt lat="46.66752" lon="5.72119">
        <ele>558.59997558594</ele>
        <time>2020-09-12T09:17:55.000Z</time>
      </trkpt>
      <trkpt lat="46.66746" lon="5.72112">
        <ele>558.59997558594</ele>
        <time>2020-09-12T09:17:56.000Z</time>
      </trkpt>
      <trkpt lat="46.66739" lon="5.72105">
        <ele>558.40002441406</ele>
        <time>2020-09-12T09:17:57.000Z</time>
      </trkpt>
      <trkpt lat="46.66734" lon="5.72097">
        <ele>558.40002441406</ele>
        <time>2020-09-12T09:17:58.000Z</time>
      </trkpt>
      <trkpt lat="46.66728" lon="5.7209">
        <ele>558.40002441406</ele>
        <time>2020-09-12T09:17:59.000Z</time>
      </trkpt>
      <trkpt lat="46.66723" lon="5.72082">
        <ele>558.40002441406</ele>
        <time>2020-09-12T09:18:00.000Z</time>
      </trkpt>
      <trkpt lat="46.66716" lon="5.72076">
        <ele>558.40002441406</ele>
        <time>2020-09-12T09:18:01.000Z</time>
      </trkpt>
      <trkpt lat="46.66703" lon="5.72067">
        <ele>558.40002441406</ele>
        <time>2020-09-12T09:18:03.000Z</time>
      </trkpt>
      <trkpt lat="46.66688" lon="5.72062">
        <ele>558.20001220703</ele>
        <time>2020-09-12T09:18:05.000Z</time>
      </trkpt>
      <trkpt lat="46.66674" lon="5.72058">
        <ele>558</ele>
        <time>2020-09-12T09:18:07.000Z</time>
      </trkpt>
      <trkpt lat="46.66659" lon="5.72055">
        <ele>557.79998779297</ele>
        <time>2020-09-12T09:18:09.000Z</time>
      </trkpt>
      <trkpt lat="46.66644" lon="5.72052">
        <ele>557.79998779297</ele>
        <time>2020-09-12T09:18:11.000Z</time>
      </trkpt>
      <trkpt lat="46.66636" lon="5.72051">
        <ele>557.79998779297</ele>
        <time>2020-09-12T09:18:12.000Z</time>
      </trkpt>
      <trkpt lat="46.66628" lon="5.7205">
        <ele>557.79998779297</ele>
        <time>2020-09-12T09:18:13.000Z</time>
      </trkpt>
      <trkpt lat="46.66613" lon="5.72047">
        <ele>557.79998779297</ele>
        <time>2020-09-12T09:18:15.000Z</time>
      </trkpt>
      <trkpt lat="46.66598" lon="5.72044">
        <ele>557.40002441406</ele>
        <time>2020-09-12T09:18:17.000Z</time>
      </trkpt>
      <trkpt lat="46.66584" lon="5.72041">
        <ele>557.40002441406</ele>
        <time>2020-09-12T09:18:19.000Z</time>
      </trkpt>
      <trkpt lat="46.66576" lon="5.7204">
        <ele>557.20001220703</ele>
        <time>2020-09-12T09:18:20.000Z</time>
      </trkpt>
      <trkpt lat="46.66569" lon="5.72038">
        <ele>557.20001220703</ele>
        <time>2020-09-12T09:18:21.000Z</time>
      </trkpt>
      <trkpt lat="46.66554" lon="5.72035">
        <ele>557.20001220703</ele>
        <time>2020-09-12T09:18:23.000Z</time>
      </trkpt>
      <trkpt lat="46.6654" lon="5.72032">
        <ele>557.20001220703</ele>
        <time>2020-09-12T09:18:25.000Z</time>
      </trkpt>
      <trkpt lat="46.66524" lon="5.72029">
        <ele>557.20001220703</ele>
        <time>2020-09-12T09:18:27.000Z</time>
      </trkpt>
      <trkpt lat="46.66509" lon="5.72027">
        <ele>557.20001220703</ele>
        <time>2020-09-12T09:18:29.000Z</time>
      </trkpt>
      <trkpt lat="46.66495" lon="5.72024">
        <ele>557.20001220703</ele>
        <time>2020-09-12T09:18:31.000Z</time>
      </trkpt>
      <trkpt lat="46.6648" lon="5.72021">
        <ele>557.20001220703</ele>
        <time>2020-09-12T09:18:33.000Z</time>
      </trkpt>
      <trkpt lat="46.66466" lon="5.72018">
        <ele>557.20001220703</ele>
        <time>2020-09-12T09:18:35.000Z</time>
      </trkpt>
      <trkpt lat="46.66451" lon="5.72013">
        <ele>557.20001220703</ele>
        <time>2020-09-12T09:18:37.000Z</time>
      </trkpt>
      <trkpt lat="46.66437" lon="5.72007">
        <ele>557</ele>
        <time>2020-09-12T09:18:39.000Z</time>
      </trkpt>
      <trkpt lat="46.66423" lon="5.72001">
        <ele>557</ele>
        <time>2020-09-12T09:18:41.000Z</time>
      </trkpt>
      <trkpt lat="46.6641" lon="5.71994">
        <ele>556.79998779297</ele>
        <time>2020-09-12T09:18:43.000Z</time>
      </trkpt>
      <trkpt lat="46.66403" lon="5.71991">
        <ele>556.79998779297</ele>
        <time>2020-09-12T09:18:44.000Z</time>
      </trkpt>
      <trkpt lat="46.66395" lon="5.71987">
        <ele>557</ele>
        <time>2020-09-12T09:18:45.000Z</time>
      </trkpt>
      <trkpt lat="46.66382" lon="5.71977">
        <ele>556.79998779297</ele>
        <time>2020-09-12T09:18:47.000Z</time>
      </trkpt>
      <trkpt lat="46.6637" lon="5.71964">
        <ele>556.79998779297</ele>
        <time>2020-09-12T09:18:49.000Z</time>
      </trkpt>
      <trkpt lat="46.66359" lon="5.71949">
        <ele>556.79998779297</ele>
        <time>2020-09-12T09:18:51.000Z</time>
      </trkpt>
      <trkpt lat="46.66349" lon="5.71933">
        <ele>556.79998779297</ele>
        <time>2020-09-12T09:18:53.000Z</time>
      </trkpt>
      <trkpt lat="46.66344" lon="5.71925">
        <ele>556.79998779297</ele>
        <time>2020-09-12T09:18:54.000Z</time>
      </trkpt>
      <trkpt lat="46.66339" lon="5.71918">
        <ele>556.59997558594</ele>
        <time>2020-09-12T09:18:55.000Z</time>
      </trkpt>
      <trkpt lat="46.66327" lon="5.71905">
        <ele>556.59997558594</ele>
        <time>2020-09-12T09:18:57.000Z</time>
      </trkpt>
      <trkpt lat="46.66315" lon="5.71893">
        <ele>556.59997558594</ele>
        <time>2020-09-12T09:18:59.000Z</time>
      </trkpt>
      <trkpt lat="46.66309" lon="5.71887">
        <ele>556.40002441406</ele>
        <time>2020-09-12T09:19:00.000Z</time>
      </trkpt>
      <trkpt lat="46.66302" lon="5.71882">
        <ele>556.40002441406</ele>
        <time>2020-09-12T09:19:01.000Z</time>
      </trkpt>
      <trkpt lat="46.66289" lon="5.71871">
        <ele>556.40002441406</ele>
        <time>2020-09-12T09:19:03.000Z</time>
      </trkpt>
      <trkpt lat="46.66276" lon="5.7186">
        <ele>556.20001220703</ele>
        <time>2020-09-12T09:19:05.000Z</time>
      </trkpt>
      <trkpt lat="46.66263" lon="5.71849">
        <ele>556.20001220703</ele>
        <time>2020-09-12T09:19:07.000Z</time>
      </trkpt>
      <trkpt lat="46.6625" lon="5.71839">
        <ele>556.20001220703</ele>
        <time>2020-09-12T09:19:09.000Z</time>
      </trkpt>
      <trkpt lat="46.66244" lon="5.71833">
        <ele>556.40002441406</ele>
        <time>2020-09-12T09:19:10.000Z</time>
      </trkpt>
      <trkpt lat="46.66237" lon="5.71828">
        <ele>556.40002441406</ele>
        <time>2020-09-12T09:19:11.000Z</time>
      </trkpt>
      <trkpt lat="46.66224" lon="5.71818">
        <ele>556.20001220703</ele>
        <time>2020-09-12T09:19:13.000Z</time>
      </trkpt>
      <trkpt lat="46.6621" lon="5.71808">
        <ele>556.20001220703</ele>
        <time>2020-09-12T09:19:15.000Z</time>
      </trkpt>
      <trkpt lat="46.66198" lon="5.71798">
        <ele>556.20001220703</ele>
        <time>2020-09-12T09:19:17.000Z</time>
      </trkpt>
      <trkpt lat="46.66192" lon="5.71793">
        <ele>556.20001220703</ele>
        <time>2020-09-12T09:19:18.000Z</time>
      </trkpt>
      <trkpt lat="46.66186" lon="5.71788">
        <ele>556.20001220703</ele>
        <time>2020-09-12T09:19:19.000Z</time>
      </trkpt>
      <trkpt lat="46.66174" lon="5.71779">
        <ele>556.20001220703</ele>
        <time>2020-09-12T09:19:21.000Z</time>
      </trkpt>
      <trkpt lat="46.66163" lon="5.71771">
        <ele>556.20001220703</ele>
        <time>2020-09-12T09:19:23.000Z</time>
      </trkpt>
      <trkpt lat="46.66153" lon="5.71764">
        <ele>556.40002441406</ele>
        <time>2020-09-12T09:19:25.000Z</time>
      </trkpt>
      <trkpt lat="46.66142" lon="5.71757">
        <ele>556.20001220703</ele>
        <time>2020-09-12T09:19:27.000Z</time>
      </trkpt>
      <trkpt lat="46.6613" lon="5.71751">
        <ele>556.20001220703</ele>
        <time>2020-09-12T09:19:29.000Z</time>
      </trkpt>
      <trkpt lat="46.66121" lon="5.71746">
        <ele>556</ele>
        <time>2020-09-12T09:19:31.000Z</time>
      </trkpt>
      <trkpt lat="46.66116" lon="5.71742">
        <ele>556</ele>
        <time>2020-09-12T09:19:32.000Z</time>
      </trkpt>
      <trkpt lat="46.66113" lon="5.71737">
        <ele>556</ele>
        <time>2020-09-12T09:19:33.000Z</time>
      </trkpt>
      <trkpt lat="46.66108" lon="5.71722">
        <ele>556</ele>
        <time>2020-09-12T09:19:35.000Z</time>
      </trkpt>
      <trkpt lat="46.66107" lon="5.71702">
        <ele>556</ele>
        <time>2020-09-12T09:19:37.000Z</time>
      </trkpt>
      <trkpt lat="46.66104" lon="5.7168">
        <ele>555.40002441406</ele>
        <time>2020-09-12T09:19:39.000Z</time>
      </trkpt>
      <trkpt lat="46.66098" lon="5.71656">
        <ele>555.20001220703</ele>
        <time>2020-09-12T09:19:41.000Z</time>
      </trkpt>
      <trkpt lat="46.66091" lon="5.7163">
        <ele>554.59997558594</ele>
        <time>2020-09-12T09:19:43.000Z</time>
      </trkpt>
      <trkpt lat="46.66087" lon="5.71616">
        <ele>554.20001220703</ele>
        <time>2020-09-12T09:19:44.000Z</time>
      </trkpt>
      <trkpt lat="46.66083" lon="5.71602">
        <ele>553.79998779297</ele>
        <time>2020-09-12T09:19:45.000Z</time>
      </trkpt>
      <trkpt lat="46.66076" lon="5.71572">
        <ele>552.59997558594</ele>
        <time>2020-09-12T09:19:47.000Z</time>
      </trkpt>
      <trkpt lat="46.66071" lon="5.7154">
        <ele>551.40002441406</ele>
        <time>2020-09-12T09:19:49.000Z</time>
      </trkpt>
      <trkpt lat="46.66071" lon="5.71505">
        <ele>549.59997558594</ele>
        <time>2020-09-12T09:19:51.000Z</time>
      </trkpt>
      <trkpt lat="46.66072" lon="5.71488">
        <ele>549</ele>
        <time>2020-09-12T09:19:52.000Z</time>
      </trkpt>
      <trkpt lat="46.66076" lon="5.7147">
        <ele>548</ele>
        <time>2020-09-12T09:19:53.000Z</time>
      </trkpt>
      <trkpt lat="46.66087" lon="5.71437">
        <ele>546</ele>
        <time>2020-09-12T09:19:55.000Z</time>
      </trkpt>
      <trkpt lat="46.66094" lon="5.71421">
        <ele>545</ele>
        <time>2020-09-12T09:19:56.000Z</time>
      </trkpt>
      <trkpt lat="46.66103" lon="5.71407">
        <ele>544.20001220703</ele>
        <time>2020-09-12T09:19:57.000Z</time>
      </trkpt>
      <trkpt lat="46.66112" lon="5.71393">
        <ele>543.40002441406</ele>
        <time>2020-09-12T09:19:58.000Z</time>
      </trkpt>
      <trkpt lat="46.66122" lon="5.71381">
        <ele>542.59997558594</ele>
        <time>2020-09-12T09:19:59.000Z</time>
      </trkpt>
      <trkpt lat="46.66131" lon="5.71368">
        <ele>541.79998779297</ele>
        <time>2020-09-12T09:20:00.000Z</time>
      </trkpt>
      <trkpt lat="46.66141" lon="5.71357">
        <ele>541</ele>
        <time>2020-09-12T09:20:01.000Z</time>
      </trkpt>
      <trkpt lat="46.66151" lon="5.71345">
        <ele>540</ele>
        <time>2020-09-12T09:20:02.000Z</time>
      </trkpt>
      <trkpt lat="46.66161" lon="5.71333">
        <ele>539</ele>
        <time>2020-09-12T09:20:03.000Z</time>
      </trkpt>
      <trkpt lat="46.66171" lon="5.71322">
        <ele>538.20001220703</ele>
        <time>2020-09-12T09:20:04.000Z</time>
      </trkpt>
      <trkpt lat="46.6618" lon="5.7131">
        <ele>537.20001220703</ele>
        <time>2020-09-12T09:20:05.000Z</time>
      </trkpt>
      <trkpt lat="46.6619" lon="5.71299">
        <ele>536</ele>
        <time>2020-09-12T09:20:06.000Z</time>
      </trkpt>
      <trkpt lat="46.662" lon="5.71287">
        <ele>535</ele>
        <time>2020-09-12T09:20:07.000Z</time>
      </trkpt>
      <trkpt lat="46.66219" lon="5.71265">
        <ele>533.40002441406</ele>
        <time>2020-09-12T09:20:09.000Z</time>
      </trkpt>
      <trkpt lat="46.66237" lon="5.71244">
        <ele>532.40002441406</ele>
        <time>2020-09-12T09:20:11.000Z</time>
      </trkpt>
      <trkpt lat="46.66245" lon="5.71233">
        <ele>531.79998779297</ele>
        <time>2020-09-12T09:20:12.000Z</time>
      </trkpt>
      <trkpt lat="46.66253" lon="5.71223">
        <ele>531.20001220703</ele>
        <time>2020-09-12T09:20:13.000Z</time>
      </trkpt>
      <trkpt lat="46.6627" lon="5.71203">
        <ele>531</ele>
        <time>2020-09-12T09:20:15.000Z</time>
      </trkpt>
      <trkpt lat="46.66278" lon="5.71194">
        <ele>531</ele>
        <time>2020-09-12T09:20:16.000Z</time>
      </trkpt>
      <trkpt lat="46.66286" lon="5.71184">
        <ele>531</ele>
        <time>2020-09-12T09:20:17.000Z</time>
      </trkpt>
      <trkpt lat="46.66301" lon="5.71166">
        <ele>531</ele>
        <time>2020-09-12T09:20:19.000Z</time>
      </trkpt>
      <trkpt lat="46.66316" lon="5.71148">
        <ele>531</ele>
        <time>2020-09-12T09:20:21.000Z</time>
      </trkpt>
      <trkpt lat="46.66331" lon="5.7113">
        <ele>531</ele>
        <time>2020-09-12T09:20:23.000Z</time>
      </trkpt>
      <trkpt lat="46.66346" lon="5.71113">
        <ele>531.59997558594</ele>
        <time>2020-09-12T09:20:25.000Z</time>
      </trkpt>
      <trkpt lat="46.6636" lon="5.71096">
        <ele>532</ele>
        <time>2020-09-12T09:20:27.000Z</time>
      </trkpt>
      <trkpt lat="46.66374" lon="5.7108">
        <ele>532.20001220703</ele>
        <time>2020-09-12T09:20:29.000Z</time>
      </trkpt>
      <trkpt lat="46.6638" lon="5.71072">
        <ele>532.20001220703</ele>
        <time>2020-09-12T09:20:30.000Z</time>
      </trkpt>
      <trkpt lat="46.66387" lon="5.71065">
        <ele>532.40002441406</ele>
        <time>2020-09-12T09:20:31.000Z</time>
      </trkpt>
      <trkpt lat="46.664" lon="5.71049">
        <ele>532.40002441406</ele>
        <time>2020-09-12T09:20:33.000Z</time>
      </trkpt>
      <trkpt lat="46.66412" lon="5.71034">
        <ele>532.59997558594</ele>
        <time>2020-09-12T09:20:35.000Z</time>
      </trkpt>
      <trkpt lat="46.66419" lon="5.71026">
        <ele>532.59997558594</ele>
        <time>2020-09-12T09:20:36.000Z</time>
      </trkpt>
      <trkpt lat="46.66425" lon="5.71019">
        <ele>532.79998779297</ele>
        <time>2020-09-12T09:20:37.000Z</time>
      </trkpt>
      <trkpt lat="46.66431" lon="5.71012">
        <ele>533</ele>
        <time>2020-09-12T09:20:38.000Z</time>
      </trkpt>
      <trkpt lat="46.66438" lon="5.71005">
        <ele>533.40002441406</ele>
        <time>2020-09-12T09:20:39.000Z</time>
      </trkpt>
      <trkpt lat="46.66444" lon="5.70998">
        <ele>533.79998779297</ele>
        <time>2020-09-12T09:20:40.000Z</time>
      </trkpt>
      <trkpt lat="46.6645" lon="5.70991">
        <ele>534</ele>
        <time>2020-09-12T09:20:41.000Z</time>
      </trkpt>
      <trkpt lat="46.66461" lon="5.70977">
        <ele>534.40002441406</ele>
        <time>2020-09-12T09:20:43.000Z</time>
      </trkpt>
      <trkpt lat="46.66473" lon="5.70964">
        <ele>534.79998779297</ele>
        <time>2020-09-12T09:20:45.000Z</time>
      </trkpt>
      <trkpt lat="46.66485" lon="5.7095">
        <ele>535</ele>
        <time>2020-09-12T09:20:47.000Z</time>
      </trkpt>
      <trkpt lat="46.66497" lon="5.70937">
        <ele>535</ele>
        <time>2020-09-12T09:20:49.000Z</time>
      </trkpt>
      <trkpt lat="46.66508" lon="5.70923">
        <ele>535.20001220703</ele>
        <time>2020-09-12T09:20:51.000Z</time>
      </trkpt>
      <trkpt lat="46.66513" lon="5.70916">
        <ele>535.20001220703</ele>
        <time>2020-09-12T09:20:52.000Z</time>
      </trkpt>
      <trkpt lat="46.66519" lon="5.70909">
        <ele>535.40002441406</ele>
        <time>2020-09-12T09:20:53.000Z</time>
      </trkpt>
      <trkpt lat="46.66531" lon="5.70896">
        <ele>535.40002441406</ele>
        <time>2020-09-12T09:20:55.000Z</time>
      </trkpt>
      <trkpt lat="46.66543" lon="5.70884">
        <ele>535.40002441406</ele>
        <time>2020-09-12T09:20:57.000Z</time>
      </trkpt>
      <trkpt lat="46.66557" lon="5.70873">
        <ele>535.40002441406</ele>
        <time>2020-09-12T09:20:59.000Z</time>
      </trkpt>
      <trkpt lat="46.66572" lon="5.70865">
        <ele>535.40002441406</ele>
        <time>2020-09-12T09:21:01.000Z</time>
      </trkpt>
      <trkpt lat="46.66587" lon="5.70859">
        <ele>535.20001220703</ele>
        <time>2020-09-12T09:21:03.000Z</time>
      </trkpt>
      <trkpt lat="46.66594" lon="5.70856">
        <ele>535.20001220703</ele>
        <time>2020-09-12T09:21:04.000Z</time>
      </trkpt>
      <trkpt lat="46.66602" lon="5.70853">
        <ele>535.20001220703</ele>
        <time>2020-09-12T09:21:05.000Z</time>
      </trkpt>
      <trkpt lat="46.66618" lon="5.70847">
        <ele>535</ele>
        <time>2020-09-12T09:21:07.000Z</time>
      </trkpt>
      <trkpt lat="46.66634" lon="5.70841">
        <ele>534.79998779297</ele>
        <time>2020-09-12T09:21:09.000Z</time>
      </trkpt>
      <trkpt lat="46.6665" lon="5.70835">
        <ele>534.59997558594</ele>
        <time>2020-09-12T09:21:11.000Z</time>
      </trkpt>
      <trkpt lat="46.66667" lon="5.70831">
        <ele>534.40002441406</ele>
        <time>2020-09-12T09:21:13.000Z</time>
      </trkpt>
      <trkpt lat="46.66683" lon="5.70829">
        <ele>534</ele>
        <time>2020-09-12T09:21:15.000Z</time>
      </trkpt>
      <trkpt lat="46.66691" lon="5.70828">
        <ele>533.59997558594</ele>
        <time>2020-09-12T09:21:16.000Z</time>
      </trkpt>
      <trkpt lat="46.66699" lon="5.70828">
        <ele>533.40002441406</ele>
        <time>2020-09-12T09:21:17.000Z</time>
      </trkpt>
      <trkpt lat="46.66715" lon="5.70827">
        <ele>533.20001220703</ele>
        <time>2020-09-12T09:21:19.000Z</time>
      </trkpt>
      <trkpt lat="46.6673" lon="5.70825">
        <ele>533.20001220703</ele>
        <time>2020-09-12T09:21:21.000Z</time>
      </trkpt>
      <trkpt lat="46.66744" lon="5.70825">
        <ele>533.20001220703</ele>
        <time>2020-09-12T09:21:23.000Z</time>
      </trkpt>
      <trkpt lat="46.66758" lon="5.70824">
        <ele>533.20001220703</ele>
        <time>2020-09-12T09:21:25.000Z</time>
      </trkpt>
      <trkpt lat="46.66774" lon="5.70823">
        <ele>533.40002441406</ele>
        <time>2020-09-12T09:21:27.000Z</time>
      </trkpt>
      <trkpt lat="46.66788" lon="5.70822">
        <ele>533.59997558594</ele>
        <time>2020-09-12T09:21:29.000Z</time>
      </trkpt>
      <trkpt lat="46.66803" lon="5.70821">
        <ele>533.79998779297</ele>
        <time>2020-09-12T09:21:31.000Z</time>
      </trkpt>
      <trkpt lat="46.66817" lon="5.70819">
        <ele>534.20001220703</ele>
        <time>2020-09-12T09:21:33.000Z</time>
      </trkpt>
      <trkpt lat="46.66824" lon="5.70819">
        <ele>534.40002441406</ele>
        <time>2020-09-12T09:21:34.000Z</time>
      </trkpt>
      <trkpt lat="46.66831" lon="5.70819">
        <ele>534.59997558594</ele>
        <time>2020-09-12T09:21:35.000Z</time>
      </trkpt>
      <trkpt lat="46.66846" lon="5.70817">
        <ele>534.79998779297</ele>
        <time>2020-09-12T09:21:37.000Z</time>
      </trkpt>
      <trkpt lat="46.66861" lon="5.70816">
        <ele>535</ele>
        <time>2020-09-12T09:21:39.000Z</time>
      </trkpt>
      <trkpt lat="46.66877" lon="5.70815">
        <ele>535</ele>
        <time>2020-09-12T09:21:41.000Z</time>
      </trkpt>
      <trkpt lat="46.66894" lon="5.70814">
        <ele>535</ele>
        <time>2020-09-12T09:21:43.000Z</time>
      </trkpt>
      <trkpt lat="46.66911" lon="5.70812">
        <ele>535</ele>
        <time>2020-09-12T09:21:45.000Z</time>
      </trkpt>
      <trkpt lat="46.66928" lon="5.7081">
        <ele>534.79998779297</ele>
        <time>2020-09-12T09:21:47.000Z</time>
      </trkpt>
      <trkpt lat="46.66944" lon="5.70809">
        <ele>534.40002441406</ele>
        <time>2020-09-12T09:21:49.000Z</time>
      </trkpt>
      <trkpt lat="46.66952" lon="5.70808">
        <ele>534.20001220703</ele>
        <time>2020-09-12T09:21:50.000Z</time>
      </trkpt>
      <trkpt lat="46.66961" lon="5.70808">
        <ele>534</ele>
        <time>2020-09-12T09:21:51.000Z</time>
      </trkpt>
      <trkpt lat="46.66976" lon="5.70807">
        <ele>533.40002441406</ele>
        <time>2020-09-12T09:21:53.000Z</time>
      </trkpt>
      <trkpt lat="46.66992" lon="5.70805">
        <ele>533</ele>
        <time>2020-09-12T09:21:55.000Z</time>
      </trkpt>
      <trkpt lat="46.67007" lon="5.708">
        <ele>532.79998779297</ele>
        <time>2020-09-12T09:21:57.000Z</time>
      </trkpt>
      <trkpt lat="46.6702" lon="5.70787">
        <ele>532.79998779297</ele>
        <time>2020-09-12T09:21:59.000Z</time>
      </trkpt>
      <trkpt lat="46.67025" lon="5.70777">
        <ele>532.59997558594</ele>
        <time>2020-09-12T09:22:00.000Z</time>
      </trkpt>
      <trkpt lat="46.67028" lon="5.70765">
        <ele>532.59997558594</ele>
        <time>2020-09-12T09:22:01.000Z</time>
      </trkpt>
      <trkpt lat="46.6703" lon="5.70743">
        <ele>532.59997558594</ele>
        <time>2020-09-12T09:22:03.000Z</time>
      </trkpt>
      <trkpt lat="46.6703" lon="5.70718">
        <ele>532.40002441406</ele>
        <time>2020-09-12T09:22:05.000Z</time>
      </trkpt>
      <trkpt lat="46.67028" lon="5.70692">
        <ele>532.40002441406</ele>
        <time>2020-09-12T09:22:07.000Z</time>
      </trkpt>
      <trkpt lat="46.67027" lon="5.70679">
        <ele>532</ele>
        <time>2020-09-12T09:22:08.000Z</time>
      </trkpt>
      <trkpt lat="46.67025" lon="5.70666">
        <ele>531.79998779297</ele>
        <time>2020-09-12T09:22:09.000Z</time>
      </trkpt>
      <trkpt lat="46.67022" lon="5.70639">
        <ele>530.79998779297</ele>
        <time>2020-09-12T09:22:11.000Z</time>
      </trkpt>
      <trkpt lat="46.67018" lon="5.70612">
        <ele>530</ele>
        <time>2020-09-12T09:22:13.000Z</time>
      </trkpt>
      <trkpt lat="46.67015" lon="5.70598">
        <ele>529.59997558594</ele>
        <time>2020-09-12T09:22:14.000Z</time>
      </trkpt>
      <trkpt lat="46.67012" lon="5.70584">
        <ele>529.20001220703</ele>
        <time>2020-09-12T09:22:15.000Z</time>
      </trkpt>
      <trkpt lat="46.67009" lon="5.70571">
        <ele>528.59997558594</ele>
        <time>2020-09-12T09:22:16.000Z</time>
      </trkpt>
      <trkpt lat="46.67004" lon="5.70557">
        <ele>528</ele>
        <time>2020-09-12T09:22:17.000Z</time>
      </trkpt>
      <trkpt lat="46.66999" lon="5.70544">
        <ele>527.59997558594</ele>
        <time>2020-09-12T09:22:18.000Z</time>
      </trkpt>
      <trkpt lat="46.66994" lon="5.7053">
        <ele>527</ele>
        <time>2020-09-12T09:22:19.000Z</time>
      </trkpt>
      <trkpt lat="46.66984" lon="5.70502">
        <ele>526.20001220703</ele>
        <time>2020-09-12T09:22:21.000Z</time>
      </trkpt>
      <trkpt lat="46.66974" lon="5.70474">
        <ele>525.20001220703</ele>
        <time>2020-09-12T09:22:23.000Z</time>
      </trkpt>
      <trkpt lat="46.66968" lon="5.70459">
        <ele>525</ele>
        <time>2020-09-12T09:22:24.000Z</time>
      </trkpt>
      <trkpt lat="46.66964" lon="5.70445">
        <ele>524.79998779297</ele>
        <time>2020-09-12T09:22:25.000Z</time>
      </trkpt>
      <trkpt lat="46.66954" lon="5.70416">
        <ele>524.20001220703</ele>
        <time>2020-09-12T09:22:27.000Z</time>
      </trkpt>
      <trkpt lat="46.66948" lon="5.70402">
        <ele>524</ele>
        <time>2020-09-12T09:22:28.000Z</time>
      </trkpt>
      <trkpt lat="46.66942" lon="5.70387">
        <ele>523.59997558594</ele>
        <time>2020-09-12T09:22:29.000Z</time>
      </trkpt>
      <trkpt lat="46.66928" lon="5.7036">
        <ele>522.79998779297</ele>
        <time>2020-09-12T09:22:31.000Z</time>
      </trkpt>
      <trkpt lat="46.6692" lon="5.70348">
        <ele>522.59997558594</ele>
        <time>2020-09-12T09:22:32.000Z</time>
      </trkpt>
      <trkpt lat="46.66912" lon="5.70336">
        <ele>522.20001220703</ele>
        <time>2020-09-12T09:22:33.000Z</time>
      </trkpt>
      <trkpt lat="46.66903" lon="5.70326">
        <ele>521.59997558594</ele>
        <time>2020-09-12T09:22:34.000Z</time>
      </trkpt>
      <trkpt lat="46.66894" lon="5.70315">
        <ele>521.20001220703</ele>
        <time>2020-09-12T09:22:35.000Z</time>
      </trkpt>
      <trkpt lat="46.66876" lon="5.70294">
        <ele>519.79998779297</ele>
        <time>2020-09-12T09:22:37.000Z</time>
      </trkpt>
      <trkpt lat="46.66858" lon="5.70273">
        <ele>518.59997558594</ele>
        <time>2020-09-12T09:22:39.000Z</time>
      </trkpt>
      <trkpt lat="46.66849" lon="5.70263">
        <ele>517.40002441406</ele>
        <time>2020-09-12T09:22:40.000Z</time>
      </trkpt>
      <trkpt lat="46.6684" lon="5.70254">
        <ele>516.79998779297</ele>
        <time>2020-09-12T09:22:41.000Z</time>
      </trkpt>
      <trkpt lat="46.6683" lon="5.70244">
        <ele>516.40002441406</ele>
        <time>2020-09-12T09:22:42.000Z</time>
      </trkpt>
      <trkpt lat="46.66821" lon="5.70234">
        <ele>516</ele>
        <time>2020-09-12T09:22:43.000Z</time>
      </trkpt>
      <trkpt lat="46.66812" lon="5.70224">
        <ele>515.59997558594</ele>
        <time>2020-09-12T09:22:44.000Z</time>
      </trkpt>
      <trkpt lat="46.66803" lon="5.70213">
        <ele>515.40002441406</ele>
        <time>2020-09-12T09:22:45.000Z</time>
      </trkpt>
      <trkpt lat="46.66795" lon="5.70201">
        <ele>515</ele>
        <time>2020-09-12T09:22:46.000Z</time>
      </trkpt>
      <trkpt lat="46.66787" lon="5.70189">
        <ele>514.59997558594</ele>
        <time>2020-09-12T09:22:47.000Z</time>
      </trkpt>
      <trkpt lat="46.6678" lon="5.70176">
        <ele>514</ele>
        <time>2020-09-12T09:22:48.000Z</time>
      </trkpt>
      <trkpt lat="46.66773" lon="5.70163">
        <ele>513.40002441406</ele>
        <time>2020-09-12T09:22:49.000Z</time>
      </trkpt>
      <trkpt lat="46.66759" lon="5.70136">
        <ele>512.20001220703</ele>
        <time>2020-09-12T09:22:51.000Z</time>
      </trkpt>
      <trkpt lat="46.66746" lon="5.70109">
        <ele>511.60000610352</ele>
        <time>2020-09-12T09:22:53.000Z</time>
      </trkpt>
      <trkpt lat="46.66734" lon="5.7008">
        <ele>511.20001220703</ele>
        <time>2020-09-12T09:22:55.000Z</time>
      </trkpt>
      <trkpt lat="46.66726" lon="5.70049">
        <ele>511</ele>
        <time>2020-09-12T09:22:57.000Z</time>
      </trkpt>
      <trkpt lat="46.6672" lon="5.70016">
        <ele>511</ele>
        <time>2020-09-12T09:22:59.000Z</time>
      </trkpt>
      <trkpt lat="46.66716" lon="5.69983">
        <ele>510.20001220703</ele>
        <time>2020-09-12T09:23:01.000Z</time>
      </trkpt>
      <trkpt lat="46.66716" lon="5.69966">
        <ele>509.79998779297</ele>
        <time>2020-09-12T09:23:02.000Z</time>
      </trkpt>
      <trkpt lat="46.66717" lon="5.6995">
        <ele>509.20001220703</ele>
        <time>2020-09-12T09:23:03.000Z</time>
      </trkpt>
      <trkpt lat="46.66717" lon="5.69933">
        <ele>508.39999389648</ele>
        <time>2020-09-12T09:23:04.000Z</time>
      </trkpt>
      <trkpt lat="46.66719" lon="5.69916">
        <ele>507.79998779297</ele>
        <time>2020-09-12T09:23:05.000Z</time>
      </trkpt>
      <trkpt lat="46.66722" lon="5.69883">
        <ele>507.39999389648</ele>
        <time>2020-09-12T09:23:07.000Z</time>
      </trkpt>
      <trkpt lat="46.66725" lon="5.69867">
        <ele>507.39999389648</ele>
        <time>2020-09-12T09:23:08.000Z</time>
      </trkpt>
      <trkpt lat="46.66727" lon="5.69851">
        <ele>507</ele>
        <time>2020-09-12T09:23:09.000Z</time>
      </trkpt>
      <trkpt lat="46.66732" lon="5.69819">
        <ele>506.39999389648</ele>
        <time>2020-09-12T09:23:11.000Z</time>
      </trkpt>
      <trkpt lat="46.66734" lon="5.69803">
        <ele>506.20001220703</ele>
        <time>2020-09-12T09:23:12.000Z</time>
      </trkpt>
      <trkpt lat="46.66737" lon="5.69787">
        <ele>505.60000610352</ele>
        <time>2020-09-12T09:23:13.000Z</time>
      </trkpt>
      <trkpt lat="46.66739" lon="5.69772">
        <ele>505</ele>
        <time>2020-09-12T09:23:14.000Z</time>
      </trkpt>
      <trkpt lat="46.66742" lon="5.69757">
        <ele>504.20001220703</ele>
        <time>2020-09-12T09:23:15.000Z</time>
      </trkpt>
      <trkpt lat="46.66744" lon="5.69742">
        <ele>503.60000610352</ele>
        <time>2020-09-12T09:23:16.000Z</time>
      </trkpt>
      <trkpt lat="46.66746" lon="5.69727">
        <ele>503.20001220703</ele>
        <time>2020-09-12T09:23:17.000Z</time>
      </trkpt>
      <trkpt lat="46.6675" lon="5.69698">
        <ele>502.60000610352</ele>
        <time>2020-09-12T09:23:19.000Z</time>
      </trkpt>
      <trkpt lat="46.66753" lon="5.69683">
        <ele>502.39999389648</ele>
        <time>2020-09-12T09:23:20.000Z</time>
      </trkpt>
      <trkpt lat="46.66755" lon="5.6967">
        <ele>502.20001220703</ele>
        <time>2020-09-12T09:23:21.000Z</time>
      </trkpt>
      <trkpt lat="46.66761" lon="5.69643">
        <ele>501.79998779297</ele>
        <time>2020-09-12T09:23:23.000Z</time>
      </trkpt>
      <trkpt lat="46.66768" lon="5.69617">
        <ele>501.60000610352</ele>
        <time>2020-09-12T09:23:25.000Z</time>
      </trkpt>
      <trkpt lat="46.66776" lon="5.69593">
        <ele>501.20001220703</ele>
        <time>2020-09-12T09:23:27.000Z</time>
      </trkpt>
      <trkpt lat="46.6678" lon="5.69582">
        <ele>501</ele>
        <time>2020-09-12T09:23:28.000Z</time>
      </trkpt>
      <trkpt lat="46.66783" lon="5.6957">
        <ele>500.79998779297</ele>
        <time>2020-09-12T09:23:29.000Z</time>
      </trkpt>
      <trkpt lat="46.66791" lon="5.69548">
        <ele>500.60000610352</ele>
        <time>2020-09-12T09:23:31.000Z</time>
      </trkpt>
      <trkpt lat="46.66798" lon="5.69526">
        <ele>500.60000610352</ele>
        <time>2020-09-12T09:23:33.000Z</time>
      </trkpt>
      <trkpt lat="46.66805" lon="5.69506">
        <ele>500.60000610352</ele>
        <time>2020-09-12T09:23:35.000Z</time>
      </trkpt>
      <trkpt lat="46.66812" lon="5.69487">
        <ele>500.60000610352</ele>
        <time>2020-09-12T09:23:37.000Z</time>
      </trkpt>
      <trkpt lat="46.66819" lon="5.69469">
        <ele>500.79998779297</ele>
        <time>2020-09-12T09:23:39.000Z</time>
      </trkpt>
      <trkpt lat="46.66826" lon="5.69452">
        <ele>501.20001220703</ele>
        <time>2020-09-12T09:23:41.000Z</time>
      </trkpt>
      <trkpt lat="46.66833" lon="5.69435">
        <ele>501.79998779297</ele>
        <time>2020-09-12T09:23:43.000Z</time>
      </trkpt>
      <trkpt lat="46.6684" lon="5.6942">
        <ele>502.39999389648</ele>
        <time>2020-09-12T09:23:45.000Z</time>
      </trkpt>
      <trkpt lat="46.66846" lon="5.69405">
        <ele>503.20001220703</ele>
        <time>2020-09-12T09:23:47.000Z</time>
      </trkpt>
      <trkpt lat="46.66851" lon="5.69388">
        <ele>503.79998779297</ele>
        <time>2020-09-12T09:23:49.000Z</time>
      </trkpt>
      <trkpt lat="46.66857" lon="5.69373">
        <ele>504.60000610352</ele>
        <time>2020-09-12T09:23:51.000Z</time>
      </trkpt>
      <trkpt lat="46.6686" lon="5.69366">
        <ele>504.79998779297</ele>
        <time>2020-09-12T09:23:52.000Z</time>
      </trkpt>
      <trkpt lat="46.66862" lon="5.69359">
        <ele>505.39999389648</ele>
        <time>2020-09-12T09:23:53.000Z</time>
      </trkpt>
      <trkpt lat="46.66867" lon="5.69345">
        <ele>506</ele>
        <time>2020-09-12T09:23:55.000Z</time>
      </trkpt>
      <trkpt lat="46.66873" lon="5.69332">
        <ele>506.39999389648</ele>
        <time>2020-09-12T09:23:57.000Z</time>
      </trkpt>
      <trkpt lat="46.66878" lon="5.69319">
        <ele>507</ele>
        <time>2020-09-12T09:23:59.000Z</time>
      </trkpt>
      <trkpt lat="46.66881" lon="5.69313">
        <ele>507.20001220703</ele>
        <time>2020-09-12T09:24:00.000Z</time>
      </trkpt>
      <trkpt lat="46.66884" lon="5.69306">
        <ele>507.39999389648</ele>
        <time>2020-09-12T09:24:01.000Z</time>
      </trkpt>
      <trkpt lat="46.66887" lon="5.693">
        <ele>507.39999389648</ele>
        <time>2020-09-12T09:24:02.000Z</time>
      </trkpt>
      <trkpt lat="46.6689" lon="5.69293">
        <ele>507.60000610352</ele>
        <time>2020-09-12T09:24:03.000Z</time>
      </trkpt>
      <trkpt lat="46.66897" lon="5.6928">
        <ele>507.79998779297</ele>
        <time>2020-09-12T09:24:05.000Z</time>
      </trkpt>
      <trkpt lat="46.66904" lon="5.69268">
        <ele>508.39999389648</ele>
        <time>2020-09-12T09:24:07.000Z</time>
      </trkpt>
      <trkpt lat="46.66912" lon="5.69257">
        <ele>508.60000610352</ele>
        <time>2020-09-12T09:24:09.000Z</time>
      </trkpt>
      <trkpt lat="46.66915" lon="5.69251">
        <ele>509</ele>
        <time>2020-09-12T09:24:10.000Z</time>
      </trkpt>
      <trkpt lat="46.66919" lon="5.69246">
        <ele>509.39999389648</ele>
        <time>2020-09-12T09:24:11.000Z</time>
      </trkpt>
      <trkpt lat="46.66927" lon="5.69235">
        <ele>509.79998779297</ele>
        <time>2020-09-12T09:24:13.000Z</time>
      </trkpt>
      <trkpt lat="46.66935" lon="5.69225">
        <ele>510.20001220703</ele>
        <time>2020-09-12T09:24:15.000Z</time>
      </trkpt>
      <trkpt lat="46.66943" lon="5.69214">
        <ele>510.39999389648</ele>
        <time>2020-09-12T09:24:17.000Z</time>
      </trkpt>
      <trkpt lat="46.66947" lon="5.69208">
        <ele>510.39999389648</ele>
        <time>2020-09-12T09:24:18.000Z</time>
      </trkpt>
      <trkpt lat="46.66951" lon="5.69203">
        <ele>510.60000610352</ele>
        <time>2020-09-12T09:24:19.000Z</time>
      </trkpt>
      <trkpt lat="46.66955" lon="5.69198">
        <ele>510.60000610352</ele>
        <time>2020-09-12T09:24:20.000Z</time>
      </trkpt>
      <trkpt lat="46.66959" lon="5.69193">
        <ele>510.79998779297</ele>
        <time>2020-09-12T09:24:21.000Z</time>
      </trkpt>
      <trkpt lat="46.66967" lon="5.69182">
        <ele>511</ele>
        <time>2020-09-12T09:24:23.000Z</time>
      </trkpt>
      <trkpt lat="46.66975" lon="5.69173">
        <ele>511.20001220703</ele>
        <time>2020-09-12T09:24:25.000Z</time>
      </trkpt>
      <trkpt lat="46.66983" lon="5.69163">
        <ele>511.60000610352</ele>
        <time>2020-09-12T09:24:27.000Z</time>
      </trkpt>
      <trkpt lat="46.66991" lon="5.69154">
        <ele>511.79998779297</ele>
        <time>2020-09-12T09:24:29.000Z</time>
      </trkpt>
      <trkpt lat="46.67" lon="5.69144">
        <ele>512.20001220703</ele>
        <time>2020-09-12T09:24:31.000Z</time>
      </trkpt>
      <trkpt lat="46.67008" lon="5.69134">
        <ele>512.79998779297</ele>
        <time>2020-09-12T09:24:33.000Z</time>
      </trkpt>
      <trkpt lat="46.67012" lon="5.69129">
        <ele>513</ele>
        <time>2020-09-12T09:24:34.000Z</time>
      </trkpt>
      <trkpt lat="46.67016" lon="5.69124">
        <ele>513.20001220703</ele>
        <time>2020-09-12T09:24:35.000Z</time>
      </trkpt>
      <trkpt lat="46.67024" lon="5.69114">
        <ele>514</ele>
        <time>2020-09-12T09:24:37.000Z</time>
      </trkpt>
      <trkpt lat="46.67033" lon="5.69105">
        <ele>514.20001220703</ele>
        <time>2020-09-12T09:24:39.000Z</time>
      </trkpt>
      <trkpt lat="46.6704" lon="5.69095">
        <ele>514.59997558594</ele>
        <time>2020-09-12T09:24:41.000Z</time>
      </trkpt>
      <trkpt lat="46.67044" lon="5.6909">
        <ele>514.59997558594</ele>
        <time>2020-09-12T09:24:42.000Z</time>
      </trkpt>
      <trkpt lat="46.67048" lon="5.69085">
        <ele>514.79998779297</ele>
        <time>2020-09-12T09:24:43.000Z</time>
      </trkpt>
      <trkpt lat="46.67057" lon="5.69076">
        <ele>515</ele>
        <time>2020-09-12T09:24:45.000Z</time>
      </trkpt>
      <trkpt lat="46.67065" lon="5.69066">
        <ele>515.20001220703</ele>
        <time>2020-09-12T09:24:47.000Z</time>
      </trkpt>
      <trkpt lat="46.67073" lon="5.69056">
        <ele>515.40002441406</ele>
        <time>2020-09-12T09:24:49.000Z</time>
      </trkpt>
      <trkpt lat="46.67082" lon="5.69046">
        <ele>515.59997558594</ele>
        <time>2020-09-12T09:24:51.000Z</time>
      </trkpt>
      <trkpt lat="46.67086" lon="5.69041">
        <ele>515.79998779297</ele>
        <time>2020-09-12T09:24:52.000Z</time>
      </trkpt>
      <trkpt lat="46.6709" lon="5.69037">
        <ele>516.20001220703</ele>
        <time>2020-09-12T09:24:53.000Z</time>
      </trkpt>
      <trkpt lat="46.67098" lon="5.69027">
        <ele>516.59997558594</ele>
        <time>2020-09-12T09:24:55.000Z</time>
      </trkpt>
      <trkpt lat="46.67106" lon="5.69017">
        <ele>516.79998779297</ele>
        <time>2020-09-12T09:24:57.000Z</time>
      </trkpt>
      <trkpt lat="46.67113" lon="5.69006">
        <ele>517.20001220703</ele>
        <time>2020-09-12T09:24:59.000Z</time>
      </trkpt>
      <trkpt lat="46.67117" lon="5.69001">
        <ele>517.20001220703</ele>
        <time>2020-09-12T09:25:00.000Z</time>
      </trkpt>
      <trkpt lat="46.6712" lon="5.68994">
        <ele>517.40002441406</ele>
        <time>2020-09-12T09:25:01.000Z</time>
      </trkpt>
      <trkpt lat="46.67123" lon="5.68987">
        <ele>517.79998779297</ele>
        <time>2020-09-12T09:25:02.000Z</time>
      </trkpt>
      <trkpt lat="46.67126" lon="5.6898">
        <ele>518</ele>
        <time>2020-09-12T09:25:03.000Z</time>
      </trkpt>
      <trkpt lat="46.6713" lon="5.68963">
        <ele>518.20001220703</ele>
        <time>2020-09-12T09:25:05.000Z</time>
      </trkpt>
      <trkpt lat="46.67132" lon="5.68955">
        <ele>518.20001220703</ele>
        <time>2020-09-12T09:25:06.000Z</time>
      </trkpt>
      <trkpt lat="46.67134" lon="5.68946">
        <ele>518.20001220703</ele>
        <time>2020-09-12T09:25:07.000Z</time>
      </trkpt>
      <trkpt lat="46.67136" lon="5.68927">
        <ele>518.20001220703</ele>
        <time>2020-09-12T09:25:09.000Z</time>
      </trkpt>
      <trkpt lat="46.67139" lon="5.68907">
        <ele>518.20001220703</ele>
        <time>2020-09-12T09:25:11.000Z</time>
      </trkpt>
      <trkpt lat="46.67141" lon="5.68885">
        <ele>518.20001220703</ele>
        <time>2020-09-12T09:25:13.000Z</time>
      </trkpt>
      <trkpt lat="46.67142" lon="5.68874">
        <ele>518</ele>
        <time>2020-09-12T09:25:14.000Z</time>
      </trkpt>
      <trkpt lat="46.67143" lon="5.68863">
        <ele>517.79998779297</ele>
        <time>2020-09-12T09:25:15.000Z</time>
      </trkpt>
      <trkpt lat="46.67146" lon="5.68838">
        <ele>517.40002441406</ele>
        <time>2020-09-12T09:25:17.000Z</time>
      </trkpt>
      <trkpt lat="46.67148" lon="5.68813">
        <ele>517</ele>
        <time>2020-09-12T09:25:19.000Z</time>
      </trkpt>
      <trkpt lat="46.67149" lon="5.688">
        <ele>516.79998779297</ele>
        <time>2020-09-12T09:25:20.000Z</time>
      </trkpt>
      <trkpt lat="46.6715" lon="5.68787">
        <ele>516.40002441406</ele>
        <time>2020-09-12T09:25:21.000Z</time>
      </trkpt>
      <trkpt lat="46.67151" lon="5.68773">
        <ele>515.79998779297</ele>
        <time>2020-09-12T09:25:22.000Z</time>
      </trkpt>
      <trkpt lat="46.67152" lon="5.68759">
        <ele>515.20001220703</ele>
        <time>2020-09-12T09:25:23.000Z</time>
      </trkpt>
      <trkpt lat="46.67153" lon="5.68744">
        <ele>514.59997558594</ele>
        <time>2020-09-12T09:25:24.000Z</time>
      </trkpt>
      <trkpt lat="46.67154" lon="5.6873">
        <ele>514.20001220703</ele>
        <time>2020-09-12T09:25:25.000Z</time>
      </trkpt>
      <trkpt lat="46.67155" lon="5.68715">
        <ele>513.79998779297</ele>
        <time>2020-09-12T09:25:26.000Z</time>
      </trkpt>
      <trkpt lat="46.67155" lon="5.687">
        <ele>513.40002441406</ele>
        <time>2020-09-12T09:25:27.000Z</time>
      </trkpt>
      <trkpt lat="46.67156" lon="5.68671">
        <ele>512.40002441406</ele>
        <time>2020-09-12T09:25:29.000Z</time>
      </trkpt>
      <trkpt lat="46.67157" lon="5.68655">
        <ele>512.20001220703</ele>
        <time>2020-09-12T09:25:30.000Z</time>
      </trkpt>
      <trkpt lat="46.67157" lon="5.6864">
        <ele>511.60000610352</ele>
        <time>2020-09-12T09:25:31.000Z</time>
      </trkpt>
      <trkpt lat="46.67158" lon="5.68625">
        <ele>511</ele>
        <time>2020-09-12T09:25:32.000Z</time>
      </trkpt>
      <trkpt lat="46.67158" lon="5.6861">
        <ele>510.39999389648</ele>
        <time>2020-09-12T09:25:33.000Z</time>
      </trkpt>
      <trkpt lat="46.67158" lon="5.68594">
        <ele>509.79998779297</ele>
        <time>2020-09-12T09:25:34.000Z</time>
      </trkpt>
      <trkpt lat="46.67158" lon="5.68578">
        <ele>508.79998779297</ele>
        <time>2020-09-12T09:25:35.000Z</time>
      </trkpt>
      <trkpt lat="46.67159" lon="5.68563">
        <ele>508.39999389648</ele>
        <time>2020-09-12T09:25:36.000Z</time>
      </trkpt>
      <trkpt lat="46.67159" lon="5.68547">
        <ele>508</ele>
        <time>2020-09-12T09:25:37.000Z</time>
      </trkpt>
      <trkpt lat="46.6716" lon="5.68515">
        <ele>506.79998779297</ele>
        <time>2020-09-12T09:25:39.000Z</time>
      </trkpt>
      <trkpt lat="46.6716" lon="5.68483">
        <ele>505.60000610352</ele>
        <time>2020-09-12T09:25:41.000Z</time>
      </trkpt>
      <trkpt lat="46.67161" lon="5.68451">
        <ele>504.20001220703</ele>
        <time>2020-09-12T09:25:43.000Z</time>
      </trkpt>
      <trkpt lat="46.67162" lon="5.68421">
        <ele>503.79998779297</ele>
        <time>2020-09-12T09:25:45.000Z</time>
      </trkpt>
      <trkpt lat="46.67163" lon="5.6839">
        <ele>503</ele>
        <time>2020-09-12T09:25:47.000Z</time>
      </trkpt>
      <trkpt lat="46.67163" lon="5.6836">
        <ele>501.79998779297</ele>
        <time>2020-09-12T09:25:49.000Z</time>
      </trkpt>
      <trkpt lat="46.67164" lon="5.68345">
        <ele>501</ele>
        <time>2020-09-12T09:25:50.000Z</time>
      </trkpt>
      <trkpt lat="46.67164" lon="5.6833">
        <ele>500.60000610352</ele>
        <time>2020-09-12T09:25:51.000Z</time>
      </trkpt>
      <trkpt lat="46.67165" lon="5.68302">
        <ele>500.39999389648</ele>
        <time>2020-09-12T09:25:53.000Z</time>
      </trkpt>
      <trkpt lat="46.67166" lon="5.68274">
        <ele>500</ele>
        <time>2020-09-12T09:25:55.000Z</time>
      </trkpt>
      <trkpt lat="46.67166" lon="5.68247">
        <ele>499.79998779297</ele>
        <time>2020-09-12T09:25:57.000Z</time>
      </trkpt>
      <trkpt lat="46.67167" lon="5.6822">
        <ele>499.60000610352</ele>
        <time>2020-09-12T09:25:59.000Z</time>
      </trkpt>
      <trkpt lat="46.67168" lon="5.68194">
        <ele>499.39999389648</ele>
        <time>2020-09-12T09:26:01.000Z</time>
      </trkpt>
      <trkpt lat="46.67168" lon="5.68168">
        <ele>499.39999389648</ele>
        <time>2020-09-12T09:26:03.000Z</time>
      </trkpt>
      <trkpt lat="46.67169" lon="5.68142">
        <ele>499.20001220703</ele>
        <time>2020-09-12T09:26:05.000Z</time>
      </trkpt>
      <trkpt lat="46.6717" lon="5.68117">
        <ele>499</ele>
        <time>2020-09-12T09:26:07.000Z</time>
      </trkpt>
      <trkpt lat="46.67171" lon="5.68091">
        <ele>499</ele>
        <time>2020-09-12T09:26:09.000Z</time>
      </trkpt>
      <trkpt lat="46.67172" lon="5.68065">
        <ele>499</ele>
        <time>2020-09-12T09:26:11.000Z</time>
      </trkpt>
      <trkpt lat="46.67172" lon="5.68039">
        <ele>499</ele>
        <time>2020-09-12T09:26:13.000Z</time>
      </trkpt>
      <trkpt lat="46.67172" lon="5.68012">
        <ele>498.79998779297</ele>
        <time>2020-09-12T09:26:15.000Z</time>
      </trkpt>
      <trkpt lat="46.67173" lon="5.67984">
        <ele>498.79998779297</ele>
        <time>2020-09-12T09:26:17.000Z</time>
      </trkpt>
      <trkpt lat="46.67173" lon="5.67958">
        <ele>498.60000610352</ele>
        <time>2020-09-12T09:26:19.000Z</time>
      </trkpt>
      <trkpt lat="46.67174" lon="5.67931">
        <ele>498.60000610352</ele>
        <time>2020-09-12T09:26:21.000Z</time>
      </trkpt>
      <trkpt lat="46.67175" lon="5.67904">
        <ele>497.79998779297</ele>
        <time>2020-09-12T09:26:23.000Z</time>
      </trkpt>
      <trkpt lat="46.67175" lon="5.67891">
        <ele>497.39999389648</ele>
        <time>2020-09-12T09:26:24.000Z</time>
      </trkpt>
      <trkpt lat="46.67175" lon="5.67878">
        <ele>497</ele>
        <time>2020-09-12T09:26:25.000Z</time>
      </trkpt>
      <trkpt lat="46.67176" lon="5.67853">
        <ele>496.20001220703</ele>
        <time>2020-09-12T09:26:27.000Z</time>
      </trkpt>
      <trkpt lat="46.67177" lon="5.67827">
        <ele>495.79998779297</ele>
        <time>2020-09-12T09:26:29.000Z</time>
      </trkpt>
      <trkpt lat="46.67178" lon="5.67801">
        <ele>495.39999389648</ele>
        <time>2020-09-12T09:26:31.000Z</time>
      </trkpt>
      <trkpt lat="46.67178" lon="5.67789">
        <ele>495.20001220703</ele>
        <time>2020-09-12T09:26:32.000Z</time>
      </trkpt>
      <trkpt lat="46.67178" lon="5.67776">
        <ele>495.20001220703</ele>
        <time>2020-09-12T09:26:33.000Z</time>
      </trkpt>
      <trkpt lat="46.67179" lon="5.67752">
        <ele>495</ele>
        <time>2020-09-12T09:26:35.000Z</time>
      </trkpt>
      <trkpt lat="46.67179" lon="5.67729">
        <ele>495</ele>
        <time>2020-09-12T09:26:37.000Z</time>
      </trkpt>
      <trkpt lat="46.6718" lon="5.67706">
        <ele>495</ele>
        <time>2020-09-12T09:26:39.000Z</time>
      </trkpt>
      <trkpt lat="46.67181" lon="5.67683">
        <ele>495.20001220703</ele>
        <time>2020-09-12T09:26:41.000Z</time>
      </trkpt>
      <trkpt lat="46.67181" lon="5.6766">
        <ele>495.39999389648</ele>
        <time>2020-09-12T09:26:43.000Z</time>
      </trkpt>
      <trkpt lat="46.67182" lon="5.67637">
        <ele>495.39999389648</ele>
        <time>2020-09-12T09:26:45.000Z</time>
      </trkpt>
      <trkpt lat="46.67182" lon="5.67614">
        <ele>495.60000610352</ele>
        <time>2020-09-12T09:26:47.000Z</time>
      </trkpt>
      <trkpt lat="46.67183" lon="5.67593">
        <ele>495.60000610352</ele>
        <time>2020-09-12T09:26:49.000Z</time>
      </trkpt>
      <trkpt lat="46.67183" lon="5.67572">
        <ele>495.60000610352</ele>
        <time>2020-09-12T09:26:51.000Z</time>
      </trkpt>
      <trkpt lat="46.67184" lon="5.67551">
        <ele>495.79998779297</ele>
        <time>2020-09-12T09:26:53.000Z</time>
      </trkpt>
      <trkpt lat="46.67185" lon="5.6753">
        <ele>495.79998779297</ele>
        <time>2020-09-12T09:26:55.000Z</time>
      </trkpt>
      <trkpt lat="46.67185" lon="5.6751">
        <ele>496</ele>
        <time>2020-09-12T09:26:57.000Z</time>
      </trkpt>
      <trkpt lat="46.67185" lon="5.67489">
        <ele>496.39999389648</ele>
        <time>2020-09-12T09:26:59.000Z</time>
      </trkpt>
      <trkpt lat="46.67186" lon="5.67469">
        <ele>497</ele>
        <time>2020-09-12T09:27:01.000Z</time>
      </trkpt>
      <trkpt lat="46.67187" lon="5.6745">
        <ele>497.20001220703</ele>
        <time>2020-09-12T09:27:03.000Z</time>
      </trkpt>
      <trkpt lat="46.67187" lon="5.6743">
        <ele>497.20001220703</ele>
        <time>2020-09-12T09:27:05.000Z</time>
      </trkpt>
      <trkpt lat="46.67188" lon="5.6741">
        <ele>497.20001220703</ele>
        <time>2020-09-12T09:27:07.000Z</time>
      </trkpt>
      <trkpt lat="46.67188" lon="5.674">
        <ele>497.20001220703</ele>
        <time>2020-09-12T09:27:08.000Z</time>
      </trkpt>
      <trkpt lat="46.67189" lon="5.67389">
        <ele>497.20001220703</ele>
        <time>2020-09-12T09:27:09.000Z</time>
      </trkpt>
      <trkpt lat="46.67189" lon="5.67368">
        <ele>497</ele>
        <time>2020-09-12T09:27:11.000Z</time>
      </trkpt>
      <trkpt lat="46.6719" lon="5.67347">
        <ele>496.79998779297</ele>
        <time>2020-09-12T09:27:13.000Z</time>
      </trkpt>
      <trkpt lat="46.67191" lon="5.67325">
        <ele>496.60000610352</ele>
        <time>2020-09-12T09:27:15.000Z</time>
      </trkpt>
      <trkpt lat="46.67191" lon="5.67303">
        <ele>496.60000610352</ele>
        <time>2020-09-12T09:27:17.000Z</time>
      </trkpt>
      <trkpt lat="46.67192" lon="5.67282">
        <ele>496.39999389648</ele>
        <time>2020-09-12T09:27:19.000Z</time>
      </trkpt>
      <trkpt lat="46.67193" lon="5.67261">
        <ele>496.39999389648</ele>
        <time>2020-09-12T09:27:21.000Z</time>
      </trkpt>
      <trkpt lat="46.67194" lon="5.67239">
        <ele>495.79998779297</ele>
        <time>2020-09-12T09:27:23.000Z</time>
      </trkpt>
      <trkpt lat="46.67194" lon="5.67229">
        <ele>495.39999389648</ele>
        <time>2020-09-12T09:27:24.000Z</time>
      </trkpt>
      <trkpt lat="46.67195" lon="5.67218">
        <ele>495.20001220703</ele>
        <time>2020-09-12T09:27:25.000Z</time>
      </trkpt>
      <trkpt lat="46.67195" lon="5.67196">
        <ele>495</ele>
        <time>2020-09-12T09:27:27.000Z</time>
      </trkpt>
      <trkpt lat="46.67196" lon="5.67175">
        <ele>494.79998779297</ele>
        <time>2020-09-12T09:27:29.000Z</time>
      </trkpt>
      <trkpt lat="46.67196" lon="5.67153">
        <ele>494.79998779297</ele>
        <time>2020-09-12T09:27:31.000Z</time>
      </trkpt>
      <trkpt lat="46.67197" lon="5.67131">
        <ele>494.60000610352</ele>
        <time>2020-09-12T09:27:33.000Z</time>
      </trkpt>
      <trkpt lat="46.67196" lon="5.67121">
        <ele>494.60000610352</ele>
        <time>2020-09-12T09:27:34.000Z</time>
      </trkpt>
      <trkpt lat="46.67196" lon="5.6711">
        <ele>494.60000610352</ele>
        <time>2020-09-12T09:27:35.000Z</time>
      </trkpt>
      <trkpt lat="46.67193" lon="5.67088">
        <ele>494.60000610352</ele>
        <time>2020-09-12T09:27:37.000Z</time>
      </trkpt>
      <trkpt lat="46.6719" lon="5.67067">
        <ele>494.60000610352</ele>
        <time>2020-09-12T09:27:39.000Z</time>
      </trkpt>
      <trkpt lat="46.67186" lon="5.67045">
        <ele>494.39999389648</ele>
        <time>2020-09-12T09:27:41.000Z</time>
      </trkpt>
      <trkpt lat="46.67182" lon="5.67022">
        <ele>494.39999389648</ele>
        <time>2020-09-12T09:27:43.000Z</time>
      </trkpt>
      <trkpt lat="46.67178" lon="5.66999">
        <ele>494</ele>
        <time>2020-09-12T09:27:45.000Z</time>
      </trkpt>
      <trkpt lat="46.67174" lon="5.66976">
        <ele>493.79998779297</ele>
        <time>2020-09-12T09:27:47.000Z</time>
      </trkpt>
      <trkpt lat="46.6717" lon="5.66952">
        <ele>493.60000610352</ele>
        <time>2020-09-12T09:27:49.000Z</time>
      </trkpt>
      <trkpt lat="46.67169" lon="5.6694">
        <ele>493.60000610352</ele>
        <time>2020-09-12T09:27:50.000Z</time>
      </trkpt>
      <trkpt lat="46.67167" lon="5.66928">
        <ele>493.39999389648</ele>
        <time>2020-09-12T09:27:51.000Z</time>
      </trkpt>
      <trkpt lat="46.67163" lon="5.66904">
        <ele>493</ele>
        <time>2020-09-12T09:27:53.000Z</time>
      </trkpt>
      <trkpt lat="46.67159" lon="5.6688">
        <ele>492.60000610352</ele>
        <time>2020-09-12T09:27:55.000Z</time>
      </trkpt>
      <trkpt lat="46.67157" lon="5.66867">
        <ele>492.39999389648</ele>
        <time>2020-09-12T09:27:56.000Z</time>
      </trkpt>
      <trkpt lat="46.67154" lon="5.66854">
        <ele>492.20001220703</ele>
        <time>2020-09-12T09:27:57.000Z</time>
      </trkpt>
      <trkpt lat="46.67152" lon="5.66842">
        <ele>492</ele>
        <time>2020-09-12T09:27:58.000Z</time>
      </trkpt>
      <trkpt lat="46.6715" lon="5.6683">
        <ele>491.60000610352</ele>
        <time>2020-09-12T09:27:59.000Z</time>
      </trkpt>
      <trkpt lat="46.67148" lon="5.66818">
        <ele>491.20001220703</ele>
        <time>2020-09-12T09:28:00.000Z</time>
      </trkpt>
      <trkpt lat="46.67146" lon="5.66806">
        <ele>491</ele>
        <time>2020-09-12T09:28:01.000Z</time>
      </trkpt>
      <trkpt lat="46.67144" lon="5.66794">
        <ele>490.79998779297</ele>
        <time>2020-09-12T09:28:02.000Z</time>
      </trkpt>
      <trkpt lat="46.67142" lon="5.66782">
        <ele>490.39999389648</ele>
        <time>2020-09-12T09:28:03.000Z</time>
      </trkpt>
      <trkpt lat="46.6714" lon="5.6677">
        <ele>490.20001220703</ele>
        <time>2020-09-12T09:28:04.000Z</time>
      </trkpt>
      <trkpt lat="46.67138" lon="5.66758">
        <ele>490</ele>
        <time>2020-09-12T09:28:05.000Z</time>
      </trkpt>
      <trkpt lat="46.67135" lon="5.66735">
        <ele>490</ele>
        <time>2020-09-12T09:28:07.000Z</time>
      </trkpt>
      <trkpt lat="46.67133" lon="5.66723">
        <ele>489.79998779297</ele>
        <time>2020-09-12T09:28:08.000Z</time>
      </trkpt>
      <trkpt lat="46.67131" lon="5.66712">
        <ele>489.79998779297</ele>
        <time>2020-09-12T09:28:09.000Z</time>
      </trkpt>
      <trkpt lat="46.67127" lon="5.66689">
        <ele>489.79998779297</ele>
        <time>2020-09-12T09:28:11.000Z</time>
      </trkpt>
      <trkpt lat="46.67123" lon="5.66666">
        <ele>489.79998779297</ele>
        <time>2020-09-12T09:28:13.000Z</time>
      </trkpt>
      <trkpt lat="46.6712" lon="5.66644">
        <ele>489.79998779297</ele>
        <time>2020-09-12T09:28:15.000Z</time>
      </trkpt>
      <trkpt lat="46.67116" lon="5.66622">
        <ele>489.79998779297</ele>
        <time>2020-09-12T09:28:17.000Z</time>
      </trkpt>
      <trkpt lat="46.67114" lon="5.66611">
        <ele>489.79998779297</ele>
        <time>2020-09-12T09:28:18.000Z</time>
      </trkpt>
      <trkpt lat="46.67112" lon="5.666">
        <ele>489.79998779297</ele>
        <time>2020-09-12T09:28:19.000Z</time>
      </trkpt>
      <trkpt lat="46.67109" lon="5.66577">
        <ele>489.79998779297</ele>
        <time>2020-09-12T09:28:21.000Z</time>
      </trkpt>
      <trkpt lat="46.67105" lon="5.66554">
        <ele>490</ele>
        <time>2020-09-12T09:28:23.000Z</time>
      </trkpt>
      <trkpt lat="46.67102" lon="5.66531">
        <ele>490</ele>
        <time>2020-09-12T09:28:25.000Z</time>
      </trkpt>
      <trkpt lat="46.671" lon="5.66519">
        <ele>490</ele>
        <time>2020-09-12T09:28:26.000Z</time>
      </trkpt>
      <trkpt lat="46.67098" lon="5.66507">
        <ele>490</ele>
        <time>2020-09-12T09:28:27.000Z</time>
      </trkpt>
      <trkpt lat="46.67093" lon="5.66485">
        <ele>489.79998779297</ele>
        <time>2020-09-12T09:28:29.000Z</time>
      </trkpt>
      <trkpt lat="46.67086" lon="5.66464">
        <ele>489.79998779297</ele>
        <time>2020-09-12T09:28:31.000Z</time>
      </trkpt>
      <trkpt lat="46.67078" lon="5.66444">
        <ele>489.60000610352</ele>
        <time>2020-09-12T09:28:33.000Z</time>
      </trkpt>
      <trkpt lat="46.67069" lon="5.66425">
        <ele>489.60000610352</ele>
        <time>2020-09-12T09:28:35.000Z</time>
      </trkpt>
      <trkpt lat="46.6706" lon="5.66406">
        <ele>489.39999389648</ele>
        <time>2020-09-12T09:28:37.000Z</time>
      </trkpt>
      <trkpt lat="46.67052" lon="5.66387">
        <ele>489.20001220703</ele>
        <time>2020-09-12T09:28:39.000Z</time>
      </trkpt>
      <trkpt lat="46.67044" lon="5.66369">
        <ele>489.20001220703</ele>
        <time>2020-09-12T09:28:41.000Z</time>
      </trkpt>
      <trkpt lat="46.67036" lon="5.66349">
        <ele>489.20001220703</ele>
        <time>2020-09-12T09:28:43.000Z</time>
      </trkpt>
      <trkpt lat="46.67029" lon="5.66329">
        <ele>489.20001220703</ele>
        <time>2020-09-12T09:28:45.000Z</time>
      </trkpt>
      <trkpt lat="46.67026" lon="5.66318">
        <ele>489.20001220703</ele>
        <time>2020-09-12T09:28:46.000Z</time>
      </trkpt>
      <trkpt lat="46.67024" lon="5.66307">
        <ele>489.20001220703</ele>
        <time>2020-09-12T09:28:47.000Z</time>
      </trkpt>
      <trkpt lat="46.67019" lon="5.66286">
        <ele>489.20001220703</ele>
        <time>2020-09-12T09:28:49.000Z</time>
      </trkpt>
      <trkpt lat="46.67016" lon="5.66264">
        <ele>489.20001220703</ele>
        <time>2020-09-12T09:28:51.000Z</time>
      </trkpt>
      <trkpt lat="46.67011" lon="5.66244">
        <ele>489.20001220703</ele>
        <time>2020-09-12T09:28:53.000Z</time>
      </trkpt>
      <trkpt lat="46.67009" lon="5.66233">
        <ele>489.20001220703</ele>
        <time>2020-09-12T09:28:54.000Z</time>
      </trkpt>
      <trkpt lat="46.67006" lon="5.66223">
        <ele>489.20001220703</ele>
        <time>2020-09-12T09:28:55.000Z</time>
      </trkpt>
      <trkpt lat="46.67" lon="5.66202">
        <ele>489.20001220703</ele>
        <time>2020-09-12T09:28:57.000Z</time>
      </trkpt>
      <trkpt lat="46.66994" lon="5.66182">
        <ele>489.20001220703</ele>
        <time>2020-09-12T09:28:59.000Z</time>
      </trkpt>
      <trkpt lat="46.66987" lon="5.66162">
        <ele>489.20001220703</ele>
        <time>2020-09-12T09:29:01.000Z</time>
      </trkpt>
      <trkpt lat="46.66984" lon="5.66152">
        <ele>489.20001220703</ele>
        <time>2020-09-12T09:29:02.000Z</time>
      </trkpt>
      <trkpt lat="46.6698" lon="5.66142">
        <ele>489.20001220703</ele>
        <time>2020-09-12T09:29:03.000Z</time>
      </trkpt>
      <trkpt lat="46.66973" lon="5.66122">
        <ele>489.20001220703</ele>
        <time>2020-09-12T09:29:05.000Z</time>
      </trkpt>
      <trkpt lat="46.66965" lon="5.66102">
        <ele>489.20001220703</ele>
        <time>2020-09-12T09:29:07.000Z</time>
      </trkpt>
      <trkpt lat="46.66957" lon="5.66082">
        <ele>489.20001220703</ele>
        <time>2020-09-12T09:29:09.000Z</time>
      </trkpt>
      <trkpt lat="46.66949" lon="5.66062">
        <ele>489.20001220703</ele>
        <time>2020-09-12T09:29:11.000Z</time>
      </trkpt>
      <trkpt lat="46.66945" lon="5.66051">
        <ele>489</ele>
        <time>2020-09-12T09:29:12.000Z</time>
      </trkpt>
      <trkpt lat="46.66941" lon="5.66041">
        <ele>489</ele>
        <time>2020-09-12T09:29:13.000Z</time>
      </trkpt>
      <trkpt lat="46.66933" lon="5.66021">
        <ele>489</ele>
        <time>2020-09-12T09:29:15.000Z</time>
      </trkpt>
      <trkpt lat="46.66925" lon="5.66001">
        <ele>488.79998779297</ele>
        <time>2020-09-12T09:29:17.000Z</time>
      </trkpt>
      <trkpt lat="46.66917" lon="5.6598">
        <ele>488.79998779297</ele>
        <time>2020-09-12T09:29:19.000Z</time>
      </trkpt>
      <trkpt lat="46.66913" lon="5.6597">
        <ele>488.79998779297</ele>
        <time>2020-09-12T09:29:20.000Z</time>
      </trkpt>
      <trkpt lat="46.66909" lon="5.6596">
        <ele>488.79998779297</ele>
        <time>2020-09-12T09:29:21.000Z</time>
      </trkpt>
      <trkpt lat="46.66901" lon="5.6594">
        <ele>488.60000610352</ele>
        <time>2020-09-12T09:29:23.000Z</time>
      </trkpt>
      <trkpt lat="46.66892" lon="5.65919">
        <ele>488.39999389648</ele>
        <time>2020-09-12T09:29:25.000Z</time>
      </trkpt>
      <trkpt lat="46.66884" lon="5.65899">
        <ele>488.20001220703</ele>
        <time>2020-09-12T09:29:27.000Z</time>
      </trkpt>
      <trkpt lat="46.66876" lon="5.65879">
        <ele>488</ele>
        <time>2020-09-12T09:29:29.000Z</time>
      </trkpt>
      <trkpt lat="46.66868" lon="5.65858">
        <ele>487.79998779297</ele>
        <time>2020-09-12T09:29:31.000Z</time>
      </trkpt>
      <trkpt lat="46.6686" lon="5.65838">
        <ele>487.79998779297</ele>
        <time>2020-09-12T09:29:33.000Z</time>
      </trkpt>
      <trkpt lat="46.66852" lon="5.65818">
        <ele>487.79998779297</ele>
        <time>2020-09-12T09:29:35.000Z</time>
      </trkpt>
      <trkpt lat="46.66845" lon="5.65799">
        <ele>487.60000610352</ele>
        <time>2020-09-12T09:29:37.000Z</time>
      </trkpt>
      <trkpt lat="46.66841" lon="5.65789">
        <ele>487.60000610352</ele>
        <time>2020-09-12T09:29:38.000Z</time>
      </trkpt>
      <trkpt lat="46.66837" lon="5.65779">
        <ele>487.60000610352</ele>
        <time>2020-09-12T09:29:39.000Z</time>
      </trkpt>
      <trkpt lat="46.66834" lon="5.6577">
        <ele>487.60000610352</ele>
        <time>2020-09-12T09:29:40.000Z</time>
      </trkpt>
      <trkpt lat="46.6683" lon="5.65761">
        <ele>487.60000610352</ele>
        <time>2020-09-12T09:29:41.000Z</time>
      </trkpt>
      <trkpt lat="46.66822" lon="5.65743">
        <ele>487.60000610352</ele>
        <time>2020-09-12T09:29:43.000Z</time>
      </trkpt>
      <trkpt lat="46.66815" lon="5.65726">
        <ele>487.60000610352</ele>
        <time>2020-09-12T09:29:45.000Z</time>
      </trkpt>
      <trkpt lat="46.66808" lon="5.65709">
        <ele>487.79998779297</ele>
        <time>2020-09-12T09:29:47.000Z</time>
      </trkpt>
      <trkpt lat="46.66804" lon="5.657">
        <ele>487.79998779297</ele>
        <time>2020-09-12T09:29:48.000Z</time>
      </trkpt>
      <trkpt lat="46.668" lon="5.65692">
        <ele>487.79998779297</ele>
        <time>2020-09-12T09:29:49.000Z</time>
      </trkpt>
      <trkpt lat="46.66793" lon="5.65675">
        <ele>488</ele>
        <time>2020-09-12T09:29:51.000Z</time>
      </trkpt>
      <trkpt lat="46.66786" lon="5.65658">
        <ele>488.20001220703</ele>
        <time>2020-09-12T09:29:53.000Z</time>
      </trkpt>
      <trkpt lat="46.66779" lon="5.65641">
        <ele>488.60000610352</ele>
        <time>2020-09-12T09:29:55.000Z</time>
      </trkpt>
      <trkpt lat="46.66773" lon="5.65625">
        <ele>489</ele>
        <time>2020-09-12T09:29:57.000Z</time>
      </trkpt>
      <trkpt lat="46.6677" lon="5.65617">
        <ele>489.39999389648</ele>
        <time>2020-09-12T09:29:58.000Z</time>
      </trkpt>
      <trkpt lat="46.66766" lon="5.65609">
        <ele>489.60000610352</ele>
        <time>2020-09-12T09:29:59.000Z</time>
      </trkpt>
      <trkpt lat="46.6676" lon="5.65593">
        <ele>489.79998779297</ele>
        <time>2020-09-12T09:30:01.000Z</time>
      </trkpt>
      <trkpt lat="46.66754" lon="5.65577">
        <ele>490.20001220703</ele>
        <time>2020-09-12T09:30:03.000Z</time>
      </trkpt>
      <trkpt lat="46.6675" lon="5.6557">
        <ele>490.20001220703</ele>
        <time>2020-09-12T09:30:04.000Z</time>
      </trkpt>
      <trkpt lat="46.66747" lon="5.65562">
        <ele>490.39999389648</ele>
        <time>2020-09-12T09:30:05.000Z</time>
      </trkpt>
      <trkpt lat="46.66741" lon="5.65547">
        <ele>490.79998779297</ele>
        <time>2020-09-12T09:30:07.000Z</time>
      </trkpt>
      <trkpt lat="46.66735" lon="5.65531">
        <ele>491</ele>
        <time>2020-09-12T09:30:09.000Z</time>
      </trkpt>
      <trkpt lat="46.66729" lon="5.65516">
        <ele>491.20001220703</ele>
        <time>2020-09-12T09:30:11.000Z</time>
      </trkpt>
      <trkpt lat="46.66723" lon="5.65501">
        <ele>491.60000610352</ele>
        <time>2020-09-12T09:30:13.000Z</time>
      </trkpt>
      <trkpt lat="46.6672" lon="5.65494">
        <ele>491.79998779297</ele>
        <time>2020-09-12T09:30:14.000Z</time>
      </trkpt>
      <trkpt lat="46.66716" lon="5.65486">
        <ele>491.79998779297</ele>
        <time>2020-09-12T09:30:15.000Z</time>
      </trkpt>
      <trkpt lat="46.6671" lon="5.65471">
        <ele>492</ele>
        <time>2020-09-12T09:30:17.000Z</time>
      </trkpt>
      <trkpt lat="46.66704" lon="5.65456">
        <ele>492.20001220703</ele>
        <time>2020-09-12T09:30:19.000Z</time>
      </trkpt>
      <trkpt lat="46.66699" lon="5.65441">
        <ele>492.39999389648</ele>
        <time>2020-09-12T09:30:21.000Z</time>
      </trkpt>
      <trkpt lat="46.66694" lon="5.65426">
        <ele>492.39999389648</ele>
        <time>2020-09-12T09:30:23.000Z</time>
      </trkpt>
      <trkpt lat="46.66691" lon="5.65418">
        <ele>492.39999389648</ele>
        <time>2020-09-12T09:30:24.000Z</time>
      </trkpt>
      <trkpt lat="46.66689" lon="5.65411">
        <ele>492.39999389648</ele>
        <time>2020-09-12T09:30:25.000Z</time>
      </trkpt>
      <trkpt lat="46.66684" lon="5.65396">
        <ele>492.60000610352</ele>
        <time>2020-09-12T09:30:27.000Z</time>
      </trkpt>
      <trkpt lat="46.66679" lon="5.65381">
        <ele>492.60000610352</ele>
        <time>2020-09-12T09:30:29.000Z</time>
      </trkpt>
      <trkpt lat="46.66674" lon="5.65367">
        <ele>493</ele>
        <time>2020-09-12T09:30:31.000Z</time>
      </trkpt>
      <trkpt lat="46.66669" lon="5.65352">
        <ele>493.60000610352</ele>
        <time>2020-09-12T09:30:33.000Z</time>
      </trkpt>
      <trkpt lat="46.66663" lon="5.65337">
        <ele>494.20001220703</ele>
        <time>2020-09-12T09:30:35.000Z</time>
      </trkpt>
      <trkpt lat="46.66659" lon="5.65322">
        <ele>494.60000610352</ele>
        <time>2020-09-12T09:30:37.000Z</time>
      </trkpt>
      <trkpt lat="46.66656" lon="5.65314">
        <ele>494.79998779297</ele>
        <time>2020-09-12T09:30:38.000Z</time>
      </trkpt>
      <trkpt lat="46.66654" lon="5.65306">
        <ele>494.79998779297</ele>
        <time>2020-09-12T09:30:39.000Z</time>
      </trkpt>
      <trkpt lat="46.6665" lon="5.65291">
        <ele>495</ele>
        <time>2020-09-12T09:30:41.000Z</time>
      </trkpt>
      <trkpt lat="46.66647" lon="5.65283">
        <ele>495</ele>
        <time>2020-09-12T09:30:42.000Z</time>
      </trkpt>
      <trkpt lat="46.66645" lon="5.65275">
        <ele>495</ele>
        <time>2020-09-12T09:30:43.000Z</time>
      </trkpt>
      <trkpt lat="46.6664" lon="5.65259">
        <ele>495.20001220703</ele>
        <time>2020-09-12T09:30:45.000Z</time>
      </trkpt>
      <trkpt lat="46.66636" lon="5.65241">
        <ele>495.20001220703</ele>
        <time>2020-09-12T09:30:47.000Z</time>
      </trkpt>
      <trkpt lat="46.66633" lon="5.65222">
        <ele>495.20001220703</ele>
        <time>2020-09-12T09:30:49.000Z</time>
      </trkpt>
      <trkpt lat="46.6663" lon="5.65202">
        <ele>495.20001220703</ele>
        <time>2020-09-12T09:30:51.000Z</time>
      </trkpt>
      <trkpt lat="46.66626" lon="5.65182">
        <ele>495.39999389648</ele>
        <time>2020-09-12T09:30:53.000Z</time>
      </trkpt>
      <trkpt lat="46.66621" lon="5.65162">
        <ele>495.39999389648</ele>
        <time>2020-09-12T09:30:55.000Z</time>
      </trkpt>
      <trkpt lat="46.66618" lon="5.65153">
        <ele>495.60000610352</ele>
        <time>2020-09-12T09:30:56.000Z</time>
      </trkpt>
      <trkpt lat="46.66614" lon="5.65143">
        <ele>495.60000610352</ele>
        <time>2020-09-12T09:30:57.000Z</time>
      </trkpt>
      <trkpt lat="46.6661" lon="5.65135">
        <ele>495.60000610352</ele>
        <time>2020-09-12T09:30:58.000Z</time>
      </trkpt>
      <trkpt lat="46.66605" lon="5.65126">
        <ele>495.60000610352</ele>
        <time>2020-09-12T09:30:59.000Z</time>
      </trkpt>
      <trkpt lat="46.66599" lon="5.65118">
        <ele>495.60000610352</ele>
        <time>2020-09-12T09:31:00.000Z</time>
      </trkpt>
      <trkpt lat="46.66594" lon="5.6511">
        <ele>495.39999389648</ele>
        <time>2020-09-12T09:31:01.000Z</time>
      </trkpt>
      <trkpt lat="46.66582" lon="5.65095">
        <ele>495.39999389648</ele>
        <time>2020-09-12T09:31:03.000Z</time>
      </trkpt>
      <trkpt lat="46.66571" lon="5.6508">
        <ele>495.39999389648</ele>
        <time>2020-09-12T09:31:05.000Z</time>
      </trkpt>
      <trkpt lat="46.66559" lon="5.65067">
        <ele>495.20001220703</ele>
        <time>2020-09-12T09:31:07.000Z</time>
      </trkpt>
      <trkpt lat="46.66547" lon="5.65054">
        <ele>495.20001220703</ele>
        <time>2020-09-12T09:31:09.000Z</time>
      </trkpt>
      <trkpt lat="46.66542" lon="5.65049">
        <ele>495.20001220703</ele>
        <time>2020-09-12T09:31:10.000Z</time>
      </trkpt>
      <trkpt lat="46.66535" lon="5.65045">
        <ele>495</ele>
        <time>2020-09-12T09:31:11.000Z</time>
      </trkpt>
      <trkpt lat="46.66529" lon="5.65041">
        <ele>494.79998779297</ele>
        <time>2020-09-12T09:31:12.000Z</time>
      </trkpt>
      <trkpt lat="46.66523" lon="5.65037">
        <ele>494.60000610352</ele>
        <time>2020-09-12T09:31:13.000Z</time>
      </trkpt>
      <trkpt lat="46.6651" lon="5.65029">
        <ele>494.60000610352</ele>
        <time>2020-09-12T09:31:15.000Z</time>
      </trkpt>
      <trkpt lat="46.66498" lon="5.6502">
        <ele>494.60000610352</ele>
        <time>2020-09-12T09:31:17.000Z</time>
      </trkpt>
      <trkpt lat="46.66486" lon="5.65009">
        <ele>494.60000610352</ele>
        <time>2020-09-12T09:31:19.000Z</time>
      </trkpt>
      <trkpt lat="46.6648" lon="5.65004">
        <ele>494.60000610352</ele>
        <time>2020-09-12T09:31:20.000Z</time>
      </trkpt>
      <trkpt lat="46.66473" lon="5.64999">
        <ele>494.60000610352</ele>
        <time>2020-09-12T09:31:21.000Z</time>
      </trkpt>
      <trkpt lat="46.66462" lon="5.64988">
        <ele>495</ele>
        <time>2020-09-12T09:31:23.000Z</time>
      </trkpt>
      <trkpt lat="46.66458" lon="5.6498">
        <ele>495.39999389648</ele>
        <time>2020-09-12T09:31:24.000Z</time>
      </trkpt>
      <trkpt lat="46.66456" lon="5.6497">
        <ele>496</ele>
        <time>2020-09-12T09:31:25.000Z</time>
      </trkpt>
      <trkpt lat="46.66456" lon="5.64949">
        <ele>496</ele>
        <time>2020-09-12T09:31:27.000Z</time>
      </trkpt>
      <trkpt lat="46.66457" lon="5.64927">
        <ele>496.20001220703</ele>
        <time>2020-09-12T09:31:29.000Z</time>
      </trkpt>
      <trkpt lat="46.66457" lon="5.64906">
        <ele>496.20001220703</ele>
        <time>2020-09-12T09:31:31.000Z</time>
      </trkpt>
      <trkpt lat="46.66457" lon="5.64886">
        <ele>496.20001220703</ele>
        <time>2020-09-12T09:31:33.000Z</time>
      </trkpt>
      <trkpt lat="46.66457" lon="5.64877">
        <ele>496.20001220703</ele>
        <time>2020-09-12T09:31:34.000Z</time>
      </trkpt>
      <trkpt lat="46.66457" lon="5.64868">
        <ele>496.20001220703</ele>
        <time>2020-09-12T09:31:35.000Z</time>
      </trkpt>
      <trkpt lat="46.66456" lon="5.64859">
        <ele>496.20001220703</ele>
        <time>2020-09-12T09:31:36.000Z</time>
      </trkpt>
      <trkpt lat="46.66454" lon="5.64851">
        <ele>496.20001220703</ele>
        <time>2020-09-12T09:31:37.000Z</time>
      </trkpt>
      <trkpt lat="46.66452" lon="5.64844">
        <ele>496.20001220703</ele>
        <time>2020-09-12T09:31:38.000Z</time>
      </trkpt>
      <trkpt lat="46.66449" lon="5.64837">
        <ele>496.20001220703</ele>
        <time>2020-09-12T09:31:39.000Z</time>
      </trkpt>
      <trkpt lat="46.66446" lon="5.6483">
        <ele>496.39999389648</ele>
        <time>2020-09-12T09:31:40.000Z</time>
      </trkpt>
      <trkpt lat="46.66443" lon="5.64823">
        <ele>496.39999389648</ele>
        <time>2020-09-12T09:31:41.000Z</time>
      </trkpt>
      <trkpt lat="46.66439" lon="5.64816">
        <ele>496.39999389648</ele>
        <time>2020-09-12T09:31:42.000Z</time>
      </trkpt>
      <trkpt lat="46.66437" lon="5.64808">
        <ele>496.60000610352</ele>
        <time>2020-09-12T09:31:43.000Z</time>
      </trkpt>
      <trkpt lat="46.66435" lon="5.64799">
        <ele>497.20001220703</ele>
        <time>2020-09-12T09:31:44.000Z</time>
      </trkpt>
      <trkpt lat="46.66435" lon="5.64791">
        <ele>497.60000610352</ele>
        <time>2020-09-12T09:31:45.000Z</time>
      </trkpt>
      <trkpt lat="46.66434" lon="5.64781">
        <ele>498</ele>
        <time>2020-09-12T09:31:46.000Z</time>
      </trkpt>
      <trkpt lat="46.66434" lon="5.64773">
        <ele>498.39999389648</ele>
        <time>2020-09-12T09:31:47.000Z</time>
      </trkpt>
      <trkpt lat="46.6643" lon="5.64756">
        <ele>499</ele>
        <time>2020-09-12T09:31:49.000Z</time>
      </trkpt>
      <trkpt lat="46.66422" lon="5.64743">
        <ele>499.39999389648</ele>
        <time>2020-09-12T09:31:51.000Z</time>
      </trkpt>
      <trkpt lat="46.66411" lon="5.64731">
        <ele>499.39999389648</ele>
        <time>2020-09-12T09:31:53.000Z</time>
      </trkpt>
      <trkpt lat="46.66405" lon="5.64725">
        <ele>499.60000610352</ele>
        <time>2020-09-12T09:31:54.000Z</time>
      </trkpt>
      <trkpt lat="46.66399" lon="5.6472">
        <ele>499.60000610352</ele>
        <time>2020-09-12T09:31:55.000Z</time>
      </trkpt>
      <trkpt lat="46.66386" lon="5.6471">
        <ele>499.60000610352</ele>
        <time>2020-09-12T09:31:57.000Z</time>
      </trkpt>
      <trkpt lat="46.66374" lon="5.647">
        <ele>499.60000610352</ele>
        <time>2020-09-12T09:31:59.000Z</time>
      </trkpt>
      <trkpt lat="46.66361" lon="5.64689">
        <ele>499.79998779297</ele>
        <time>2020-09-12T09:32:01.000Z</time>
      </trkpt>
      <trkpt lat="46.66354" lon="5.64684">
        <ele>499.79998779297</ele>
        <time>2020-09-12T09:32:02.000Z</time>
      </trkpt>
      <trkpt lat="46.66347" lon="5.6468">
        <ele>499.79998779297</ele>
        <time>2020-09-12T09:32:03.000Z</time>
      </trkpt>
      <trkpt lat="46.66333" lon="5.64672">
        <ele>499.79998779297</ele>
        <time>2020-09-12T09:32:05.000Z</time>
      </trkpt>
      <trkpt lat="46.66325" lon="5.64669">
        <ele>499.79998779297</ele>
        <time>2020-09-12T09:32:06.000Z</time>
      </trkpt>
      <trkpt lat="46.66318" lon="5.64665">
        <ele>499.79998779297</ele>
        <time>2020-09-12T09:32:07.000Z</time>
      </trkpt>
      <trkpt lat="46.66304" lon="5.64656">
        <ele>499.79998779297</ele>
        <time>2020-09-12T09:32:09.000Z</time>
      </trkpt>
      <trkpt lat="46.6629" lon="5.6465">
        <ele>499.60000610352</ele>
        <time>2020-09-12T09:32:11.000Z</time>
      </trkpt>
      <trkpt lat="46.66283" lon="5.64647">
        <ele>499.60000610352</ele>
        <time>2020-09-12T09:32:12.000Z</time>
      </trkpt>
      <trkpt lat="46.66276" lon="5.64644">
        <ele>499.60000610352</ele>
        <time>2020-09-12T09:32:13.000Z</time>
      </trkpt>
      <trkpt lat="46.66261" lon="5.64639">
        <ele>499.60000610352</ele>
        <time>2020-09-12T09:32:15.000Z</time>
      </trkpt>
      <trkpt lat="46.66246" lon="5.64633">
        <ele>499.79998779297</ele>
        <time>2020-09-12T09:32:17.000Z</time>
      </trkpt>
      <trkpt lat="46.6623" lon="5.64628">
        <ele>499.79998779297</ele>
        <time>2020-09-12T09:32:19.000Z</time>
      </trkpt>
      <trkpt lat="46.66213" lon="5.64622">
        <ele>499.79998779297</ele>
        <time>2020-09-12T09:32:21.000Z</time>
      </trkpt>
      <trkpt lat="46.66196" lon="5.64615">
        <ele>499.79998779297</ele>
        <time>2020-09-12T09:32:23.000Z</time>
      </trkpt>
      <trkpt lat="46.66179" lon="5.64607">
        <ele>499.79998779297</ele>
        <time>2020-09-12T09:32:25.000Z</time>
      </trkpt>
      <trkpt lat="46.66161" lon="5.64596">
        <ele>499.79998779297</ele>
        <time>2020-09-12T09:32:27.000Z</time>
      </trkpt>
      <trkpt lat="46.66145" lon="5.64583">
        <ele>499.39999389648</ele>
        <time>2020-09-12T09:32:29.000Z</time>
      </trkpt>
      <trkpt lat="46.66129" lon="5.64567">
        <ele>498.79998779297</ele>
        <time>2020-09-12T09:32:31.000Z</time>
      </trkpt>
      <trkpt lat="46.66122" lon="5.64559">
        <ele>498.60000610352</ele>
        <time>2020-09-12T09:32:32.000Z</time>
      </trkpt>
      <trkpt lat="46.66115" lon="5.64552">
        <ele>498.39999389648</ele>
        <time>2020-09-12T09:32:33.000Z</time>
      </trkpt>
      <trkpt lat="46.66101" lon="5.64538">
        <ele>497.60000610352</ele>
        <time>2020-09-12T09:32:35.000Z</time>
      </trkpt>
      <trkpt lat="46.66094" lon="5.64531">
        <ele>497.39999389648</ele>
        <time>2020-09-12T09:32:36.000Z</time>
      </trkpt>
      <trkpt lat="46.66087" lon="5.64524">
        <ele>497.39999389648</ele>
        <time>2020-09-12T09:32:37.000Z</time>
      </trkpt>
      <trkpt lat="46.66075" lon="5.64512">
        <ele>497.39999389648</ele>
        <time>2020-09-12T09:32:39.000Z</time>
      </trkpt>
      <trkpt lat="46.66062" lon="5.64501">
        <ele>497.39999389648</ele>
        <time>2020-09-12T09:32:41.000Z</time>
      </trkpt>
      <trkpt lat="46.66049" lon="5.64491">
        <ele>497.39999389648</ele>
        <time>2020-09-12T09:32:43.000Z</time>
      </trkpt>
      <trkpt lat="46.66036" lon="5.64485">
        <ele>497.60000610352</ele>
        <time>2020-09-12T09:32:45.000Z</time>
      </trkpt>
      <trkpt lat="46.66023" lon="5.64481">
        <ele>498.20001220703</ele>
        <time>2020-09-12T09:32:47.000Z</time>
      </trkpt>
      <trkpt lat="46.66016" lon="5.6448">
        <ele>498.60000610352</ele>
        <time>2020-09-12T09:32:48.000Z</time>
      </trkpt>
      <trkpt lat="46.66009" lon="5.6448">
        <ele>499.20001220703</ele>
        <time>2020-09-12T09:32:49.000Z</time>
      </trkpt>
      <trkpt lat="46.66001" lon="5.64479">
        <ele>499.79998779297</ele>
        <time>2020-09-12T09:32:50.000Z</time>
      </trkpt>
      <trkpt lat="46.65994" lon="5.64478">
        <ele>500.60000610352</ele>
        <time>2020-09-12T09:32:51.000Z</time>
      </trkpt>
      <trkpt lat="46.65986" lon="5.64477">
        <ele>501.20001220703</ele>
        <time>2020-09-12T09:32:52.000Z</time>
      </trkpt>
      <trkpt lat="46.65978" lon="5.64477">
        <ele>501.60000610352</ele>
        <time>2020-09-12T09:32:53.000Z</time>
      </trkpt>
      <trkpt lat="46.65962" lon="5.64475">
        <ele>501.60000610352</ele>
        <time>2020-09-12T09:32:55.000Z</time>
      </trkpt>
      <trkpt lat="46.65945" lon="5.64473">
        <ele>501.60000610352</ele>
        <time>2020-09-12T09:32:57.000Z</time>
      </trkpt>
      <trkpt lat="46.65927" lon="5.64471">
        <ele>501.60000610352</ele>
        <time>2020-09-12T09:32:59.000Z</time>
      </trkpt>
      <trkpt lat="46.65909" lon="5.64468">
        <ele>501.39999389648</ele>
        <time>2020-09-12T09:33:01.000Z</time>
      </trkpt>
      <trkpt lat="46.65891" lon="5.64464">
        <ele>500.60000610352</ele>
        <time>2020-09-12T09:33:03.000Z</time>
      </trkpt>
      <trkpt lat="46.65873" lon="5.64461">
        <ele>500</ele>
        <time>2020-09-12T09:33:05.000Z</time>
      </trkpt>
      <trkpt lat="46.65853" lon="5.64458">
        <ele>499</ele>
        <time>2020-09-12T09:33:07.000Z</time>
      </trkpt>
      <trkpt lat="46.65844" lon="5.64456">
        <ele>498.60000610352</ele>
        <time>2020-09-12T09:33:08.000Z</time>
      </trkpt>
      <trkpt lat="46.65833" lon="5.64455">
        <ele>498.20001220703</ele>
        <time>2020-09-12T09:33:09.000Z</time>
      </trkpt>
      <trkpt lat="46.65813" lon="5.64453">
        <ele>497.60000610352</ele>
        <time>2020-09-12T09:33:11.000Z</time>
      </trkpt>
      <trkpt lat="46.65802" lon="5.64453">
        <ele>497.20001220703</ele>
        <time>2020-09-12T09:33:12.000Z</time>
      </trkpt>
      <trkpt lat="46.65791" lon="5.64453">
        <ele>496.79998779297</ele>
        <time>2020-09-12T09:33:13.000Z</time>
      </trkpt>
      <trkpt lat="46.65781" lon="5.64454">
        <ele>496.20001220703</ele>
        <time>2020-09-12T09:33:14.000Z</time>
      </trkpt>
      <trkpt lat="46.6577" lon="5.64454">
        <ele>495.39999389648</ele>
        <time>2020-09-12T09:33:15.000Z</time>
      </trkpt>
      <trkpt lat="46.6576" lon="5.64455">
        <ele>494.79998779297</ele>
        <time>2020-09-12T09:33:16.000Z</time>
      </trkpt>
      <trkpt lat="46.65749" lon="5.64455">
        <ele>494.60000610352</ele>
        <time>2020-09-12T09:33:17.000Z</time>
      </trkpt>
      <trkpt lat="46.65728" lon="5.64454">
        <ele>494</ele>
        <time>2020-09-12T09:33:19.000Z</time>
      </trkpt>
      <trkpt lat="46.65706" lon="5.64453">
        <ele>493.39999389648</ele>
        <time>2020-09-12T09:33:21.000Z</time>
      </trkpt>
      <trkpt lat="46.65696" lon="5.64452">
        <ele>491.60000610352</ele>
        <time>2020-09-12T09:33:22.000Z</time>
      </trkpt>
      <trkpt lat="46.65685" lon="5.64451">
        <ele>491.20001220703</ele>
        <time>2020-09-12T09:33:23.000Z</time>
      </trkpt>
      <trkpt lat="46.65663" lon="5.64448">
        <ele>490.60000610352</ele>
        <time>2020-09-12T09:33:25.000Z</time>
      </trkpt>
      <trkpt lat="46.65652" lon="5.64447">
        <ele>490.60000610352</ele>
        <time>2020-09-12T09:33:26.000Z</time>
      </trkpt>
      <trkpt lat="46.65642" lon="5.64446">
        <ele>490.39999389648</ele>
        <time>2020-09-12T09:33:27.000Z</time>
      </trkpt>
      <trkpt lat="46.65622" lon="5.64445">
        <ele>489.79998779297</ele>
        <time>2020-09-12T09:33:29.000Z</time>
      </trkpt>
      <trkpt lat="46.65602" lon="5.64447">
        <ele>489.39999389648</ele>
        <time>2020-09-12T09:33:31.000Z</time>
      </trkpt>
      <trkpt lat="46.65583" lon="5.64452">
        <ele>489.39999389648</ele>
        <time>2020-09-12T09:33:33.000Z</time>
      </trkpt>
      <trkpt lat="46.65563" lon="5.64455">
        <ele>489.39999389648</ele>
        <time>2020-09-12T09:33:35.000Z</time>
      </trkpt>
      <trkpt lat="46.65554" lon="5.64455">
        <ele>489.39999389648</ele>
        <time>2020-09-12T09:33:36.000Z</time>
      </trkpt>
      <trkpt lat="46.65544" lon="5.64453">
        <ele>489.39999389648</ele>
        <time>2020-09-12T09:33:37.000Z</time>
      </trkpt>
      <trkpt lat="46.65526" lon="5.64446">
        <ele>489.39999389648</ele>
        <time>2020-09-12T09:33:39.000Z</time>
      </trkpt>
      <trkpt lat="46.65518" lon="5.64441">
        <ele>489.39999389648</ele>
        <time>2020-09-12T09:33:40.000Z</time>
      </trkpt>
      <trkpt lat="46.6551" lon="5.64437">
        <ele>489.60000610352</ele>
        <time>2020-09-12T09:33:41.000Z</time>
      </trkpt>
      <trkpt lat="46.65495" lon="5.64429">
        <ele>489.79998779297</ele>
        <time>2020-09-12T09:33:43.000Z</time>
      </trkpt>
      <trkpt lat="46.65481" lon="5.64423">
        <ele>489.79998779297</ele>
        <time>2020-09-12T09:33:45.000Z</time>
      </trkpt>
      <trkpt lat="46.65474" lon="5.64421">
        <ele>490.20001220703</ele>
        <time>2020-09-12T09:33:46.000Z</time>
      </trkpt>
      <trkpt lat="46.65467" lon="5.6442">
        <ele>490.20001220703</ele>
        <time>2020-09-12T09:33:47.000Z</time>
      </trkpt>
      <trkpt lat="46.6546" lon="5.6442">
        <ele>490.60000610352</ele>
        <time>2020-09-12T09:33:48.000Z</time>
      </trkpt>
      <trkpt lat="46.65452" lon="5.6442">
        <ele>491.20001220703</ele>
        <time>2020-09-12T09:33:49.000Z</time>
      </trkpt>
      <trkpt lat="46.65444" lon="5.64421">
        <ele>491.79998779297</ele>
        <time>2020-09-12T09:33:50.000Z</time>
      </trkpt>
      <trkpt lat="46.65437" lon="5.64422">
        <ele>492</ele>
        <time>2020-09-12T09:33:51.000Z</time>
      </trkpt>
      <trkpt lat="46.65421" lon="5.64424">
        <ele>492.60000610352</ele>
        <time>2020-09-12T09:33:53.000Z</time>
      </trkpt>
      <trkpt lat="46.65413" lon="5.64425">
        <ele>492.79998779297</ele>
        <time>2020-09-12T09:33:54.000Z</time>
      </trkpt>
      <trkpt lat="46.65406" lon="5.64425">
        <ele>492.79998779297</ele>
        <time>2020-09-12T09:33:55.000Z</time>
      </trkpt>
      <trkpt lat="46.6539" lon="5.64424">
        <ele>493</ele>
        <time>2020-09-12T09:33:57.000Z</time>
      </trkpt>
      <trkpt lat="46.65383" lon="5.64423">
        <ele>493</ele>
        <time>2020-09-12T09:33:58.000Z</time>
      </trkpt>
      <trkpt lat="46.65375" lon="5.6442">
        <ele>493</ele>
        <time>2020-09-12T09:33:59.000Z</time>
      </trkpt>
      <trkpt lat="46.65362" lon="5.6441">
        <ele>493</ele>
        <time>2020-09-12T09:34:01.000Z</time>
      </trkpt>
      <trkpt lat="46.6535" lon="5.64396">
        <ele>493.20001220703</ele>
        <time>2020-09-12T09:34:03.000Z</time>
      </trkpt>
      <trkpt lat="46.65346" lon="5.64388">
        <ele>493.39999389648</ele>
        <time>2020-09-12T09:34:04.000Z</time>
      </trkpt>
      <trkpt lat="46.65342" lon="5.64379">
        <ele>493.39999389648</ele>
        <time>2020-09-12T09:34:05.000Z</time>
      </trkpt>
      <trkpt lat="46.65338" lon="5.6437">
        <ele>493.39999389648</ele>
        <time>2020-09-12T09:34:06.000Z</time>
      </trkpt>
      <trkpt lat="46.65334" lon="5.64361">
        <ele>493.39999389648</ele>
        <time>2020-09-12T09:34:07.000Z</time>
      </trkpt>
      <trkpt lat="46.65325" lon="5.64344">
        <ele>493.60000610352</ele>
        <time>2020-09-12T09:34:09.000Z</time>
      </trkpt>
      <trkpt lat="46.65313" lon="5.64331">
        <ele>493.79998779297</ele>
        <time>2020-09-12T09:34:11.000Z</time>
      </trkpt>
      <trkpt lat="46.65307" lon="5.64326">
        <ele>494</ele>
        <time>2020-09-12T09:34:12.000Z</time>
      </trkpt>
      <trkpt lat="46.653" lon="5.64322">
        <ele>494.20001220703</ele>
        <time>2020-09-12T09:34:13.000Z</time>
      </trkpt>
      <trkpt lat="46.65293" lon="5.64319">
        <ele>494.39999389648</ele>
        <time>2020-09-12T09:34:14.000Z</time>
      </trkpt>
      <trkpt lat="46.65285" lon="5.64317">
        <ele>494.39999389648</ele>
        <time>2020-09-12T09:34:15.000Z</time>
      </trkpt>
      <trkpt lat="46.65271" lon="5.64312">
        <ele>494.60000610352</ele>
        <time>2020-09-12T09:34:17.000Z</time>
      </trkpt>
      <trkpt lat="46.65256" lon="5.64307">
        <ele>494.60000610352</ele>
        <time>2020-09-12T09:34:19.000Z</time>
      </trkpt>
      <trkpt lat="46.65249" lon="5.64305">
        <ele>494.60000610352</ele>
        <time>2020-09-12T09:34:20.000Z</time>
      </trkpt>
      <trkpt lat="46.65241" lon="5.64303">
        <ele>494.60000610352</ele>
        <time>2020-09-12T09:34:21.000Z</time>
      </trkpt>
      <trkpt lat="46.65227" lon="5.64299">
        <ele>494.79998779297</ele>
        <time>2020-09-12T09:34:23.000Z</time>
      </trkpt>
      <trkpt lat="46.65213" lon="5.64295">
        <ele>494.79998779297</ele>
        <time>2020-09-12T09:34:25.000Z</time>
      </trkpt>
      <trkpt lat="46.652" lon="5.64291">
        <ele>494.79998779297</ele>
        <time>2020-09-12T09:34:27.000Z</time>
      </trkpt>
      <trkpt lat="46.65194" lon="5.64289">
        <ele>494.79998779297</ele>
        <time>2020-09-12T09:34:28.000Z</time>
      </trkpt>
      <trkpt lat="46.65188" lon="5.64287">
        <ele>494.79998779297</ele>
        <time>2020-09-12T09:34:29.000Z</time>
      </trkpt>
      <trkpt lat="46.65175" lon="5.64284">
        <ele>495</ele>
        <time>2020-09-12T09:34:31.000Z</time>
      </trkpt>
      <trkpt lat="46.65163" lon="5.6428">
        <ele>495.39999389648</ele>
        <time>2020-09-12T09:34:33.000Z</time>
      </trkpt>
      <trkpt lat="46.6515" lon="5.64277">
        <ele>496</ele>
        <time>2020-09-12T09:34:35.000Z</time>
      </trkpt>
      <trkpt lat="46.65143" lon="5.64275">
        <ele>496.39999389648</ele>
        <time>2020-09-12T09:34:36.000Z</time>
      </trkpt>
      <trkpt lat="46.65136" lon="5.64272">
        <ele>496.79998779297</ele>
        <time>2020-09-12T09:34:37.000Z</time>
      </trkpt>
      <trkpt lat="46.65122" lon="5.64269">
        <ele>497</ele>
        <time>2020-09-12T09:34:39.000Z</time>
      </trkpt>
      <trkpt lat="46.65107" lon="5.64266">
        <ele>497</ele>
        <time>2020-09-12T09:34:41.000Z</time>
      </trkpt>
      <trkpt lat="46.65092" lon="5.64264">
        <ele>497</ele>
        <time>2020-09-12T09:34:43.000Z</time>
      </trkpt>
      <trkpt lat="46.65084" lon="5.64264">
        <ele>497</ele>
        <time>2020-09-12T09:34:44.000Z</time>
      </trkpt>
      <trkpt lat="46.65076" lon="5.64264">
        <ele>497</ele>
        <time>2020-09-12T09:34:45.000Z</time>
      </trkpt>
      <trkpt lat="46.65059" lon="5.64265">
        <ele>497</ele>
        <time>2020-09-12T09:34:47.000Z</time>
      </trkpt>
      <trkpt lat="46.65042" lon="5.64268">
        <ele>496.79998779297</ele>
        <time>2020-09-12T09:34:49.000Z</time>
      </trkpt>
      <trkpt lat="46.65024" lon="5.64271">
        <ele>496.60000610352</ele>
        <time>2020-09-12T09:34:51.000Z</time>
      </trkpt>
      <trkpt lat="46.65006" lon="5.64276">
        <ele>496</ele>
        <time>2020-09-12T09:34:53.000Z</time>
      </trkpt>
      <trkpt lat="46.64988" lon="5.64283">
        <ele>495.60000610352</ele>
        <time>2020-09-12T09:34:55.000Z</time>
      </trkpt>
      <trkpt lat="46.64979" lon="5.64288">
        <ele>495.20001220703</ele>
        <time>2020-09-12T09:34:56.000Z</time>
      </trkpt>
      <trkpt lat="46.64969" lon="5.64293">
        <ele>494.79998779297</ele>
        <time>2020-09-12T09:34:57.000Z</time>
      </trkpt>
      <trkpt lat="46.6495" lon="5.64302">
        <ele>494.20001220703</ele>
        <time>2020-09-12T09:34:59.000Z</time>
      </trkpt>
      <trkpt lat="46.6494" lon="5.64307">
        <ele>493.60000610352</ele>
        <time>2020-09-12T09:35:00.000Z</time>
      </trkpt>
      <trkpt lat="46.6493" lon="5.64312">
        <ele>493</ele>
        <time>2020-09-12T09:35:01.000Z</time>
      </trkpt>
      <trkpt lat="46.64911" lon="5.6432">
        <ele>492.20001220703</ele>
        <time>2020-09-12T09:35:03.000Z</time>
      </trkpt>
      <trkpt lat="46.64892" lon="5.64325">
        <ele>491</ele>
        <time>2020-09-12T09:35:05.000Z</time>
      </trkpt>
      <trkpt lat="46.64882" lon="5.64326">
        <ele>490.20001220703</ele>
        <time>2020-09-12T09:35:06.000Z</time>
      </trkpt>
      <trkpt lat="46.64873" lon="5.64326">
        <ele>489.20001220703</ele>
        <time>2020-09-12T09:35:07.000Z</time>
      </trkpt>
      <trkpt lat="46.64854" lon="5.64321">
        <ele>488.39999389648</ele>
        <time>2020-09-12T09:35:09.000Z</time>
      </trkpt>
      <trkpt lat="46.64845" lon="5.64317">
        <ele>488.20001220703</ele>
        <time>2020-09-12T09:35:10.000Z</time>
      </trkpt>
      <trkpt lat="46.64836" lon="5.64313">
        <ele>488</ele>
        <time>2020-09-12T09:35:11.000Z</time>
      </trkpt>
      <trkpt lat="46.64818" lon="5.64303">
        <ele>487.79998779297</ele>
        <time>2020-09-12T09:35:13.000Z</time>
      </trkpt>
      <trkpt lat="46.648" lon="5.64292">
        <ele>487.60000610352</ele>
        <time>2020-09-12T09:35:15.000Z</time>
      </trkpt>
      <trkpt lat="46.6479" lon="5.64287">
        <ele>487.39999389648</ele>
        <time>2020-09-12T09:35:16.000Z</time>
      </trkpt>
      <trkpt lat="46.64781" lon="5.64282">
        <ele>487.39999389648</ele>
        <time>2020-09-12T09:35:17.000Z</time>
      </trkpt>
      <trkpt lat="46.64761" lon="5.64275">
        <ele>487.39999389648</ele>
        <time>2020-09-12T09:35:19.000Z</time>
      </trkpt>
      <trkpt lat="46.64751" lon="5.64274">
        <ele>487.39999389648</ele>
        <time>2020-09-12T09:35:20.000Z</time>
      </trkpt>
      <trkpt lat="46.64741" lon="5.64274">
        <ele>487.20001220703</ele>
        <time>2020-09-12T09:35:21.000Z</time>
      </trkpt>
      <trkpt lat="46.64722" lon="5.64276">
        <ele>486.60000610352</ele>
        <time>2020-09-12T09:35:23.000Z</time>
      </trkpt>
      <trkpt lat="46.64712" lon="5.64278">
        <ele>486.39999389648</ele>
        <time>2020-09-12T09:35:24.000Z</time>
      </trkpt>
      <trkpt lat="46.64703" lon="5.6428">
        <ele>486.20001220703</ele>
        <time>2020-09-12T09:35:25.000Z</time>
      </trkpt>
      <trkpt lat="46.64685" lon="5.64283">
        <ele>486</ele>
        <time>2020-09-12T09:35:27.000Z</time>
      </trkpt>
      <trkpt lat="46.64668" lon="5.64282">
        <ele>486</ele>
        <time>2020-09-12T09:35:29.000Z</time>
      </trkpt>
      <trkpt lat="46.64652" lon="5.64279">
        <ele>486</ele>
        <time>2020-09-12T09:35:31.000Z</time>
      </trkpt>
      <trkpt lat="46.64637" lon="5.64274">
        <ele>486</ele>
        <time>2020-09-12T09:35:33.000Z</time>
      </trkpt>
      <trkpt lat="46.64623" lon="5.64269">
        <ele>486.39999389648</ele>
        <time>2020-09-12T09:35:35.000Z</time>
      </trkpt>
      <trkpt lat="46.64609" lon="5.64264">
        <ele>486.60000610352</ele>
        <time>2020-09-12T09:35:37.000Z</time>
      </trkpt>
      <trkpt lat="46.64595" lon="5.64258">
        <ele>487.20001220703</ele>
        <time>2020-09-12T09:35:39.000Z</time>
      </trkpt>
      <trkpt lat="46.64582" lon="5.64254">
        <ele>488</ele>
        <time>2020-09-12T09:35:41.000Z</time>
      </trkpt>
      <trkpt lat="46.64576" lon="5.64254">
        <ele>488.60000610352</ele>
        <time>2020-09-12T09:35:42.000Z</time>
      </trkpt>
      <trkpt lat="46.6457" lon="5.64253">
        <ele>489</ele>
        <time>2020-09-12T09:35:43.000Z</time>
      </trkpt>
      <trkpt lat="46.64557" lon="5.64254">
        <ele>489.79998779297</ele>
        <time>2020-09-12T09:35:45.000Z</time>
      </trkpt>
      <trkpt lat="46.64545" lon="5.64257">
        <ele>490.20001220703</ele>
        <time>2020-09-12T09:35:47.000Z</time>
      </trkpt>
      <trkpt lat="46.64534" lon="5.64263">
        <ele>490.79998779297</ele>
        <time>2020-09-12T09:35:49.000Z</time>
      </trkpt>
      <trkpt lat="46.64529" lon="5.64266">
        <ele>491.20001220703</ele>
        <time>2020-09-12T09:35:50.000Z</time>
      </trkpt>
      <trkpt lat="46.64523" lon="5.64269">
        <ele>491.60000610352</ele>
        <time>2020-09-12T09:35:51.000Z</time>
      </trkpt>
      <trkpt lat="46.64518" lon="5.64273">
        <ele>492</ele>
        <time>2020-09-12T09:35:52.000Z</time>
      </trkpt>
      <trkpt lat="46.64513" lon="5.64278">
        <ele>492.39999389648</ele>
        <time>2020-09-12T09:35:53.000Z</time>
      </trkpt>
      <trkpt lat="46.64503" lon="5.64288">
        <ele>492.79998779297</ele>
        <time>2020-09-12T09:35:55.000Z</time>
      </trkpt>
      <trkpt lat="46.64494" lon="5.64298">
        <ele>493.20001220703</ele>
        <time>2020-09-12T09:35:57.000Z</time>
      </trkpt>
      <trkpt lat="46.6449" lon="5.64304">
        <ele>493.39999389648</ele>
        <time>2020-09-12T09:35:58.000Z</time>
      </trkpt>
      <trkpt lat="46.64486" lon="5.64309">
        <ele>493.79998779297</ele>
        <time>2020-09-12T09:35:59.000Z</time>
      </trkpt>
      <trkpt lat="46.64482" lon="5.64315">
        <ele>494</ele>
        <time>2020-09-12T09:36:00.000Z</time>
      </trkpt>
      <trkpt lat="46.64479" lon="5.64321">
        <ele>494.20001220703</ele>
        <time>2020-09-12T09:36:01.000Z</time>
      </trkpt>
      <trkpt lat="46.64472" lon="5.64334">
        <ele>494.79998779297</ele>
        <time>2020-09-12T09:36:03.000Z</time>
      </trkpt>
      <trkpt lat="46.64466" lon="5.64347">
        <ele>495.39999389648</ele>
        <time>2020-09-12T09:36:05.000Z</time>
      </trkpt>
      <trkpt lat="46.6446" lon="5.64361">
        <ele>496</ele>
        <time>2020-09-12T09:36:07.000Z</time>
      </trkpt>
      <trkpt lat="46.64454" lon="5.64374">
        <ele>496.79998779297</ele>
        <time>2020-09-12T09:36:09.000Z</time>
      </trkpt>
      <trkpt lat="46.6445" lon="5.64388">
        <ele>497.20001220703</ele>
        <time>2020-09-12T09:36:11.000Z</time>
      </trkpt>
      <trkpt lat="46.64445" lon="5.64403">
        <ele>497.60000610352</ele>
        <time>2020-09-12T09:36:13.000Z</time>
      </trkpt>
      <trkpt lat="46.64441" lon="5.64418">
        <ele>498.20001220703</ele>
        <time>2020-09-12T09:36:15.000Z</time>
      </trkpt>
      <trkpt lat="46.64438" lon="5.64426">
        <ele>498.39999389648</ele>
        <time>2020-09-12T09:36:16.000Z</time>
      </trkpt>
      <trkpt lat="46.64436" lon="5.64433">
        <ele>498.60000610352</ele>
        <time>2020-09-12T09:36:17.000Z</time>
      </trkpt>
      <trkpt lat="46.6443" lon="5.64449">
        <ele>498.79998779297</ele>
        <time>2020-09-12T09:36:19.000Z</time>
      </trkpt>
      <trkpt lat="46.64424" lon="5.64464">
        <ele>499</ele>
        <time>2020-09-12T09:36:21.000Z</time>
      </trkpt>
      <trkpt lat="46.64421" lon="5.64471">
        <ele>499</ele>
        <time>2020-09-12T09:36:22.000Z</time>
      </trkpt>
      <trkpt lat="46.64417" lon="5.64478">
        <ele>499</ele>
        <time>2020-09-12T09:36:23.000Z</time>
      </trkpt>
      <trkpt lat="46.64409" lon="5.64491">
        <ele>499.20001220703</ele>
        <time>2020-09-12T09:36:25.000Z</time>
      </trkpt>
      <trkpt lat="46.644" lon="5.64502">
        <ele>499.39999389648</ele>
        <time>2020-09-12T09:36:27.000Z</time>
      </trkpt>
      <trkpt lat="46.64395" lon="5.64507">
        <ele>499.39999389648</ele>
        <time>2020-09-12T09:36:28.000Z</time>
      </trkpt>
      <trkpt lat="46.6439" lon="5.64511">
        <ele>499.60000610352</ele>
        <time>2020-09-12T09:36:29.000Z</time>
      </trkpt>
      <trkpt lat="46.64379" lon="5.64519">
        <ele>499.79998779297</ele>
        <time>2020-09-12T09:36:31.000Z</time>
      </trkpt>
      <trkpt lat="46.64368" lon="5.64525">
        <ele>500.20001220703</ele>
        <time>2020-09-12T09:36:33.000Z</time>
      </trkpt>
      <trkpt lat="46.64362" lon="5.64527">
        <ele>500.39999389648</ele>
        <time>2020-09-12T09:36:34.000Z</time>
      </trkpt>
      <trkpt lat="46.64356" lon="5.64529">
        <ele>500.60000610352</ele>
        <time>2020-09-12T09:36:35.000Z</time>
      </trkpt>
      <trkpt lat="46.64343" lon="5.64532">
        <ele>501</ele>
        <time>2020-09-12T09:36:37.000Z</time>
      </trkpt>
      <trkpt lat="46.64331" lon="5.64535">
        <ele>501.39999389648</ele>
        <time>2020-09-12T09:36:39.000Z</time>
      </trkpt>
      <trkpt lat="46.64318" lon="5.64539">
        <ele>501.60000610352</ele>
        <time>2020-09-12T09:36:41.000Z</time>
      </trkpt>
      <trkpt lat="46.64312" lon="5.64541">
        <ele>501.60000610352</ele>
        <time>2020-09-12T09:36:42.000Z</time>
      </trkpt>
      <trkpt lat="46.64305" lon="5.64544">
        <ele>501.60000610352</ele>
        <time>2020-09-12T09:36:43.000Z</time>
      </trkpt>
      <trkpt lat="46.64292" lon="5.64549">
        <ele>501.60000610352</ele>
        <time>2020-09-12T09:36:45.000Z</time>
      </trkpt>
      <trkpt lat="46.64278" lon="5.64555">
        <ele>501.60000610352</ele>
        <time>2020-09-12T09:36:47.000Z</time>
      </trkpt>
      <trkpt lat="46.64264" lon="5.64561">
        <ele>501.39999389648</ele>
        <time>2020-09-12T09:36:49.000Z</time>
      </trkpt>
      <trkpt lat="46.64257" lon="5.64564">
        <ele>501.39999389648</ele>
        <time>2020-09-12T09:36:50.000Z</time>
      </trkpt>
      <trkpt lat="46.64249" lon="5.64567">
        <ele>501.20001220703</ele>
        <time>2020-09-12T09:36:51.000Z</time>
      </trkpt>
      <trkpt lat="46.64235" lon="5.64574">
        <ele>501.20001220703</ele>
        <time>2020-09-12T09:36:53.000Z</time>
      </trkpt>
      <trkpt lat="46.6422" lon="5.6458">
        <ele>501</ele>
        <time>2020-09-12T09:36:55.000Z</time>
      </trkpt>
      <trkpt lat="46.64205" lon="5.64586">
        <ele>501</ele>
        <time>2020-09-12T09:36:57.000Z</time>
      </trkpt>
      <trkpt lat="46.64197" lon="5.64588">
        <ele>501</ele>
        <time>2020-09-12T09:36:58.000Z</time>
      </trkpt>
      <trkpt lat="46.64189" lon="5.64589">
        <ele>501</ele>
        <time>2020-09-12T09:36:59.000Z</time>
      </trkpt>
      <trkpt lat="46.64172" lon="5.64589">
        <ele>501</ele>
        <time>2020-09-12T09:37:01.000Z</time>
      </trkpt>
      <trkpt lat="46.64156" lon="5.64585">
        <ele>500.79998779297</ele>
        <time>2020-09-12T09:37:03.000Z</time>
      </trkpt>
      <trkpt lat="46.64148" lon="5.64582">
        <ele>500.79998779297</ele>
        <time>2020-09-12T09:37:04.000Z</time>
      </trkpt>
      <trkpt lat="46.64141" lon="5.64579">
        <ele>500.79998779297</ele>
        <time>2020-09-12T09:37:05.000Z</time>
      </trkpt>
      <trkpt lat="46.64126" lon="5.64573">
        <ele>500.79998779297</ele>
        <time>2020-09-12T09:37:07.000Z</time>
      </trkpt>
      <trkpt lat="46.64112" lon="5.64567">
        <ele>501</ele>
        <time>2020-09-12T09:37:09.000Z</time>
      </trkpt>
      <trkpt lat="46.64098" lon="5.64563">
        <ele>501</ele>
        <time>2020-09-12T09:37:11.000Z</time>
      </trkpt>
      <trkpt lat="46.64083" lon="5.64561">
        <ele>501.20001220703</ele>
        <time>2020-09-12T09:37:13.000Z</time>
      </trkpt>
      <trkpt lat="46.64068" lon="5.64561">
        <ele>501.60000610352</ele>
        <time>2020-09-12T09:37:15.000Z</time>
      </trkpt>
      <trkpt lat="46.64054" lon="5.64565">
        <ele>502.39999389648</ele>
        <time>2020-09-12T09:37:17.000Z</time>
      </trkpt>
      <trkpt lat="46.64046" lon="5.64567">
        <ele>502.60000610352</ele>
        <time>2020-09-12T09:37:18.000Z</time>
      </trkpt>
      <trkpt lat="46.64039" lon="5.6457">
        <ele>502.79998779297</ele>
        <time>2020-09-12T09:37:19.000Z</time>
      </trkpt>
      <trkpt lat="46.6403" lon="5.64573">
        <ele>502.79998779297</ele>
        <time>2020-09-12T09:37:20.000Z</time>
      </trkpt>
      <trkpt lat="46.64022" lon="5.64575">
        <ele>503</ele>
        <time>2020-09-12T09:37:21.000Z</time>
      </trkpt>
      <trkpt lat="46.64005" lon="5.64578">
        <ele>503</ele>
        <time>2020-09-12T09:37:23.000Z</time>
      </trkpt>
      <trkpt lat="46.63986" lon="5.64579">
        <ele>503</ele>
        <time>2020-09-12T09:37:25.000Z</time>
      </trkpt>
      <trkpt lat="46.63968" lon="5.64577">
        <ele>503</ele>
        <time>2020-09-12T09:37:27.000Z</time>
      </trkpt>
      <trkpt lat="46.6395" lon="5.64573">
        <ele>502.79998779297</ele>
        <time>2020-09-12T09:37:29.000Z</time>
      </trkpt>
      <trkpt lat="46.6394" lon="5.64569">
        <ele>502.39999389648</ele>
        <time>2020-09-12T09:37:30.000Z</time>
      </trkpt>
      <trkpt lat="46.63932" lon="5.64565">
        <ele>502.20001220703</ele>
        <time>2020-09-12T09:37:31.000Z</time>
      </trkpt>
      <trkpt lat="46.63915" lon="5.64555">
        <ele>501.20001220703</ele>
        <time>2020-09-12T09:37:33.000Z</time>
      </trkpt>
      <trkpt lat="46.639" lon="5.64543">
        <ele>500.79998779297</ele>
        <time>2020-09-12T09:37:35.000Z</time>
      </trkpt>
      <trkpt lat="46.63885" lon="5.64531">
        <ele>500.60000610352</ele>
        <time>2020-09-12T09:37:37.000Z</time>
      </trkpt>
      <trkpt lat="46.63871" lon="5.6452">
        <ele>500.60000610352</ele>
        <time>2020-09-12T09:37:39.000Z</time>
      </trkpt>
      <trkpt lat="46.63858" lon="5.64508">
        <ele>500.60000610352</ele>
        <time>2020-09-12T09:37:41.000Z</time>
      </trkpt>
      <trkpt lat="46.63851" lon="5.64503">
        <ele>500.60000610352</ele>
        <time>2020-09-12T09:37:42.000Z</time>
      </trkpt>
      <trkpt lat="46.63845" lon="5.64498">
        <ele>500.79998779297</ele>
        <time>2020-09-12T09:37:43.000Z</time>
      </trkpt>
      <trkpt lat="46.63832" lon="5.64487">
        <ele>501.20001220703</ele>
        <time>2020-09-12T09:37:45.000Z</time>
      </trkpt>
      <trkpt lat="46.6382" lon="5.64477">
        <ele>502.39999389648</ele>
        <time>2020-09-12T09:37:47.000Z</time>
      </trkpt>
      <trkpt lat="46.63808" lon="5.64467">
        <ele>503</ele>
        <time>2020-09-12T09:37:49.000Z</time>
      </trkpt>
      <trkpt lat="46.63803" lon="5.64462">
        <ele>503.39999389648</ele>
        <time>2020-09-12T09:37:50.000Z</time>
      </trkpt>
      <trkpt lat="46.63797" lon="5.64457">
        <ele>503.79998779297</ele>
        <time>2020-09-12T09:37:51.000Z</time>
      </trkpt>
      <trkpt lat="46.63785" lon="5.64448">
        <ele>504.79998779297</ele>
        <time>2020-09-12T09:37:53.000Z</time>
      </trkpt>
      <trkpt lat="46.63774" lon="5.64437">
        <ele>505.79998779297</ele>
        <time>2020-09-12T09:37:55.000Z</time>
      </trkpt>
      <trkpt lat="46.63768" lon="5.64432">
        <ele>506.20001220703</ele>
        <time>2020-09-12T09:37:56.000Z</time>
      </trkpt>
      <trkpt lat="46.63763" lon="5.64427">
        <ele>506.39999389648</ele>
        <time>2020-09-12T09:37:57.000Z</time>
      </trkpt>
      <trkpt lat="46.63753" lon="5.64417">
        <ele>507.20001220703</ele>
        <time>2020-09-12T09:37:59.000Z</time>
      </trkpt>
      <trkpt lat="46.63748" lon="5.64413">
        <ele>507.39999389648</ele>
        <time>2020-09-12T09:38:00.000Z</time>
      </trkpt>
      <trkpt lat="46.63742" lon="5.64408">
        <ele>507.60000610352</ele>
        <time>2020-09-12T09:38:01.000Z</time>
      </trkpt>
      <trkpt lat="46.63732" lon="5.644">
        <ele>508.20001220703</ele>
        <time>2020-09-12T09:38:03.000Z</time>
      </trkpt>
      <trkpt lat="46.63721" lon="5.64393">
        <ele>508.60000610352</ele>
        <time>2020-09-12T09:38:05.000Z</time>
      </trkpt>
      <trkpt lat="46.63711" lon="5.64386">
        <ele>509</ele>
        <time>2020-09-12T09:38:07.000Z</time>
      </trkpt>
      <trkpt lat="46.637" lon="5.6438">
        <ele>509.39999389648</ele>
        <time>2020-09-12T09:38:09.000Z</time>
      </trkpt>
      <trkpt lat="46.63695" lon="5.64377">
        <ele>509.60000610352</ele>
        <time>2020-09-12T09:38:10.000Z</time>
      </trkpt>
      <trkpt lat="46.6369" lon="5.64374">
        <ele>509.79998779297</ele>
        <time>2020-09-12T09:38:11.000Z</time>
      </trkpt>
      <trkpt lat="46.6368" lon="5.64368">
        <ele>510</ele>
        <time>2020-09-12T09:38:13.000Z</time>
      </trkpt>
      <trkpt lat="46.6367" lon="5.64362">
        <ele>510.39999389648</ele>
        <time>2020-09-12T09:38:15.000Z</time>
      </trkpt>
      <trkpt lat="46.63665" lon="5.64359">
        <ele>510.79998779297</ele>
        <time>2020-09-12T09:38:16.000Z</time>
      </trkpt>
      <trkpt lat="46.6366" lon="5.64356">
        <ele>511</ele>
        <time>2020-09-12T09:38:17.000Z</time>
      </trkpt>
      <trkpt lat="46.63651" lon="5.64349">
        <ele>511.60000610352</ele>
        <time>2020-09-12T09:38:19.000Z</time>
      </trkpt>
      <trkpt lat="46.63647" lon="5.64346">
        <ele>512</ele>
        <time>2020-09-12T09:38:20.000Z</time>
      </trkpt>
      <trkpt lat="46.63642" lon="5.64342">
        <ele>512.20001220703</ele>
        <time>2020-09-12T09:38:21.000Z</time>
      </trkpt>
      <trkpt lat="46.63632" lon="5.64334">
        <ele>512.59997558594</ele>
        <time>2020-09-12T09:38:23.000Z</time>
      </trkpt>
      <trkpt lat="46.63622" lon="5.64326">
        <ele>513</ele>
        <time>2020-09-12T09:38:25.000Z</time>
      </trkpt>
      <trkpt lat="46.63617" lon="5.64322">
        <ele>513.20001220703</ele>
        <time>2020-09-12T09:38:26.000Z</time>
      </trkpt>
      <trkpt lat="46.63612" lon="5.64317">
        <ele>513.40002441406</ele>
        <time>2020-09-12T09:38:27.000Z</time>
      </trkpt>
      <trkpt lat="46.63601" lon="5.64308">
        <ele>513.59997558594</ele>
        <time>2020-09-12T09:38:29.000Z</time>
      </trkpt>
      <trkpt lat="46.63589" lon="5.64299">
        <ele>513.59997558594</ele>
        <time>2020-09-12T09:38:31.000Z</time>
      </trkpt>
      <trkpt lat="46.63583" lon="5.64294">
        <ele>513.59997558594</ele>
        <time>2020-09-12T09:38:32.000Z</time>
      </trkpt>
      <trkpt lat="46.63576" lon="5.64289">
        <ele>513.59997558594</ele>
        <time>2020-09-12T09:38:33.000Z</time>
      </trkpt>
      <trkpt lat="46.63564" lon="5.64279">
        <ele>513.59997558594</ele>
        <time>2020-09-12T09:38:35.000Z</time>
      </trkpt>
      <trkpt lat="46.63552" lon="5.64269">
        <ele>513.40002441406</ele>
        <time>2020-09-12T09:38:37.000Z</time>
      </trkpt>
      <trkpt lat="46.63541" lon="5.64261">
        <ele>513.20001220703</ele>
        <time>2020-09-12T09:38:39.000Z</time>
      </trkpt>
      <trkpt lat="46.63529" lon="5.64254">
        <ele>513.20001220703</ele>
        <time>2020-09-12T09:38:41.000Z</time>
      </trkpt>
      <trkpt lat="46.63517" lon="5.64248">
        <ele>513.20001220703</ele>
        <time>2020-09-12T09:38:43.000Z</time>
      </trkpt>
      <trkpt lat="46.63505" lon="5.64242">
        <ele>513.20001220703</ele>
        <time>2020-09-12T09:38:45.000Z</time>
      </trkpt>
      <trkpt lat="46.635" lon="5.64238">
        <ele>513.20001220703</ele>
        <time>2020-09-12T09:38:46.000Z</time>
      </trkpt>
      <trkpt lat="46.63494" lon="5.64232">
        <ele>513.20001220703</ele>
        <time>2020-09-12T09:38:47.000Z</time>
      </trkpt>
      <trkpt lat="46.6349" lon="5.64225">
        <ele>513.40002441406</ele>
        <time>2020-09-12T09:38:48.000Z</time>
      </trkpt>
      <trkpt lat="46.63485" lon="5.64218">
        <ele>513.59997558594</ele>
        <time>2020-09-12T09:38:49.000Z</time>
      </trkpt>
      <trkpt lat="46.63481" lon="5.6421">
        <ele>513.59997558594</ele>
        <time>2020-09-12T09:38:50.000Z</time>
      </trkpt>
      <trkpt lat="46.63476" lon="5.64201">
        <ele>513.59997558594</ele>
        <time>2020-09-12T09:38:51.000Z</time>
      </trkpt>
      <trkpt lat="46.63468" lon="5.64184">
        <ele>513.79998779297</ele>
        <time>2020-09-12T09:38:53.000Z</time>
      </trkpt>
      <trkpt lat="46.6346" lon="5.64167">
        <ele>513.79998779297</ele>
        <time>2020-09-12T09:38:55.000Z</time>
      </trkpt>
      <trkpt lat="46.63452" lon="5.64149">
        <ele>513.79998779297</ele>
        <time>2020-09-12T09:38:57.000Z</time>
      </trkpt>
      <trkpt lat="46.63443" lon="5.64133">
        <ele>513.59997558594</ele>
        <time>2020-09-12T09:38:59.000Z</time>
      </trkpt>
      <trkpt lat="46.63436" lon="5.64117">
        <ele>513.40002441406</ele>
        <time>2020-09-12T09:39:01.000Z</time>
      </trkpt>
      <trkpt lat="46.63432" lon="5.64111">
        <ele>513.40002441406</ele>
        <time>2020-09-12T09:39:02.000Z</time>
      </trkpt>
      <trkpt lat="46.63428" lon="5.64108">
        <ele>513.40002441406</ele>
        <time>2020-09-12T09:39:03.000Z</time>
      </trkpt>
      <trkpt lat="46.63425" lon="5.64108">
        <ele>513.40002441406</ele>
        <time>2020-09-12T09:39:04.000Z</time>
      </trkpt>
      <trkpt lat="46.63422" lon="5.6411">
        <ele>513.40002441406</ele>
        <time>2020-09-12T09:39:05.000Z</time>
      </trkpt>
      <trkpt lat="46.63416" lon="5.64117">
        <ele>513.40002441406</ele>
        <time>2020-09-12T09:39:07.000Z</time>
      </trkpt>
      <trkpt lat="46.63412" lon="5.64123">
        <ele>513.40002441406</ele>
        <time>2020-09-12T09:39:08.000Z</time>
      </trkpt>
      <trkpt lat="46.63409" lon="5.64129">
        <ele>513.40002441406</ele>
        <time>2020-09-12T09:39:09.000Z</time>
      </trkpt>
      <trkpt lat="46.63401" lon="5.64142">
        <ele>513.59997558594</ele>
        <time>2020-09-12T09:39:11.000Z</time>
      </trkpt>
      <trkpt lat="46.63392" lon="5.64156">
        <ele>513.59997558594</ele>
        <time>2020-09-12T09:39:13.000Z</time>
      </trkpt>
      <trkpt lat="46.63387" lon="5.64164">
        <ele>513.79998779297</ele>
        <time>2020-09-12T09:39:14.000Z</time>
      </trkpt>
      <trkpt lat="46.63382" lon="5.64171">
        <ele>513.79998779297</ele>
        <time>2020-09-12T09:39:15.000Z</time>
      </trkpt>
      <trkpt lat="46.63373" lon="5.64186">
        <ele>513.79998779297</ele>
        <time>2020-09-12T09:39:17.000Z</time>
      </trkpt>
      <trkpt lat="46.63364" lon="5.64202">
        <ele>513.79998779297</ele>
        <time>2020-09-12T09:39:19.000Z</time>
      </trkpt>
      <trkpt lat="46.63355" lon="5.64218">
        <ele>513.59997558594</ele>
        <time>2020-09-12T09:39:21.000Z</time>
      </trkpt>
      <trkpt lat="46.6335" lon="5.64225">
        <ele>513.59997558594</ele>
        <time>2020-09-12T09:39:22.000Z</time>
      </trkpt>
      <trkpt lat="46.63345" lon="5.64231">
        <ele>513.59997558594</ele>
        <time>2020-09-12T09:39:23.000Z</time>
      </trkpt>
      <trkpt lat="46.63334" lon="5.64241">
        <ele>513.59997558594</ele>
        <time>2020-09-12T09:39:25.000Z</time>
      </trkpt>
      <trkpt lat="46.63328" lon="5.64245">
        <ele>513.59997558594</ele>
        <time>2020-09-12T09:39:26.000Z</time>
      </trkpt>
      <trkpt lat="46.63322" lon="5.64248">
        <ele>513.59997558594</ele>
        <time>2020-09-12T09:39:27.000Z</time>
      </trkpt>
      <trkpt lat="46.63316" lon="5.6425">
        <ele>513.59997558594</ele>
        <time>2020-09-12T09:39:28.000Z</time>
      </trkpt>
      <trkpt lat="46.6331" lon="5.64253">
        <ele>513.59997558594</ele>
        <time>2020-09-12T09:39:29.000Z</time>
      </trkpt>
      <trkpt lat="46.63298" lon="5.6426">
        <ele>513.59997558594</ele>
        <time>2020-09-12T09:39:31.000Z</time>
      </trkpt>
      <trkpt lat="46.63293" lon="5.64265">
        <ele>513.79998779297</ele>
        <time>2020-09-12T09:39:32.000Z</time>
      </trkpt>
      <trkpt lat="46.63288" lon="5.6427">
        <ele>514</ele>
        <time>2020-09-12T09:39:33.000Z</time>
      </trkpt>
      <trkpt lat="46.63277" lon="5.64281">
        <ele>514.40002441406</ele>
        <time>2020-09-12T09:39:35.000Z</time>
      </trkpt>
      <trkpt lat="46.63267" lon="5.64292">
        <ele>514.79998779297</ele>
        <time>2020-09-12T09:39:37.000Z</time>
      </trkpt>
      <trkpt lat="46.63257" lon="5.64304">
        <ele>515.20001220703</ele>
        <time>2020-09-12T09:39:39.000Z</time>
      </trkpt>
      <trkpt lat="46.63246" lon="5.64316">
        <ele>515.40002441406</ele>
        <time>2020-09-12T09:39:41.000Z</time>
      </trkpt>
      <trkpt lat="46.6324" lon="5.64321">
        <ele>515.40002441406</ele>
        <time>2020-09-12T09:39:42.000Z</time>
      </trkpt>
      <trkpt lat="46.63234" lon="5.64325">
        <ele>515.40002441406</ele>
        <time>2020-09-12T09:39:43.000Z</time>
      </trkpt>
      <trkpt lat="46.6322" lon="5.64331">
        <ele>515.40002441406</ele>
        <time>2020-09-12T09:39:45.000Z</time>
      </trkpt>
      <trkpt lat="46.63206" lon="5.6433">
        <ele>515.40002441406</ele>
        <time>2020-09-12T09:39:47.000Z</time>
      </trkpt>
      <trkpt lat="46.63193" lon="5.64328">
        <ele>515.59997558594</ele>
        <time>2020-09-12T09:39:49.000Z</time>
      </trkpt>
      <trkpt lat="46.6318" lon="5.64328">
        <ele>515.59997558594</ele>
        <time>2020-09-12T09:39:51.000Z</time>
      </trkpt>
      <trkpt lat="46.63168" lon="5.64328">
        <ele>515.59997558594</ele>
        <time>2020-09-12T09:39:53.000Z</time>
      </trkpt>
      <trkpt lat="46.63162" lon="5.64329">
        <ele>515.59997558594</ele>
        <time>2020-09-12T09:39:54.000Z</time>
      </trkpt>
      <trkpt lat="46.63156" lon="5.64329">
        <ele>515.59997558594</ele>
        <time>2020-09-12T09:39:55.000Z</time>
      </trkpt>
      <trkpt lat="46.63145" lon="5.64331">
        <ele>516</ele>
        <time>2020-09-12T09:39:57.000Z</time>
      </trkpt>
      <trkpt lat="46.63134" lon="5.64333">
        <ele>516.59997558594</ele>
        <time>2020-09-12T09:39:59.000Z</time>
      </trkpt>
      <trkpt lat="46.63123" lon="5.64335">
        <ele>517.59997558594</ele>
        <time>2020-09-12T09:40:01.000Z</time>
      </trkpt>
      <trkpt lat="46.63117" lon="5.64336">
        <ele>517.79998779297</ele>
        <time>2020-09-12T09:40:02.000Z</time>
      </trkpt>
      <trkpt lat="46.63112" lon="5.64336">
        <ele>518</ele>
        <time>2020-09-12T09:40:03.000Z</time>
      </trkpt>
      <trkpt lat="46.63101" lon="5.64337">
        <ele>518.59997558594</ele>
        <time>2020-09-12T09:40:05.000Z</time>
      </trkpt>
      <trkpt lat="46.6309" lon="5.64336">
        <ele>518.79998779297</ele>
        <time>2020-09-12T09:40:07.000Z</time>
      </trkpt>
      <trkpt lat="46.63078" lon="5.64333">
        <ele>519.20001220703</ele>
        <time>2020-09-12T09:40:09.000Z</time>
      </trkpt>
      <trkpt lat="46.63064" lon="5.64332">
        <ele>519.59997558594</ele>
        <time>2020-09-12T09:40:11.000Z</time>
      </trkpt>
      <trkpt lat="46.63049" lon="5.64329">
        <ele>519.79998779297</ele>
        <time>2020-09-12T09:40:13.000Z</time>
      </trkpt>
      <trkpt lat="46.63033" lon="5.64327">
        <ele>519.79998779297</ele>
        <time>2020-09-12T09:40:15.000Z</time>
      </trkpt>
      <trkpt lat="46.63016" lon="5.64325">
        <ele>519.79998779297</ele>
        <time>2020-09-12T09:40:17.000Z</time>
      </trkpt>
      <trkpt lat="46.62998" lon="5.64322">
        <ele>519.79998779297</ele>
        <time>2020-09-12T09:40:19.000Z</time>
      </trkpt>
      <trkpt lat="46.62978" lon="5.64319">
        <ele>519.20001220703</ele>
        <time>2020-09-12T09:40:21.000Z</time>
      </trkpt>
      <trkpt lat="46.62959" lon="5.64316">
        <ele>518</ele>
        <time>2020-09-12T09:40:23.000Z</time>
      </trkpt>
      <trkpt lat="46.62949" lon="5.64314">
        <ele>517.59997558594</ele>
        <time>2020-09-12T09:40:24.000Z</time>
      </trkpt>
      <trkpt lat="46.62938" lon="5.64313">
        <ele>517.40002441406</ele>
        <time>2020-09-12T09:40:25.000Z</time>
      </trkpt>
      <trkpt lat="46.62918" lon="5.64309">
        <ele>516</ele>
        <time>2020-09-12T09:40:27.000Z</time>
      </trkpt>
      <trkpt lat="46.62897" lon="5.64306">
        <ele>514.20001220703</ele>
        <time>2020-09-12T09:40:29.000Z</time>
      </trkpt>
      <trkpt lat="46.62877" lon="5.64303">
        <ele>513.20001220703</ele>
        <time>2020-09-12T09:40:31.000Z</time>
      </trkpt>
      <trkpt lat="46.62866" lon="5.64302">
        <ele>513</ele>
        <time>2020-09-12T09:40:32.000Z</time>
      </trkpt>
      <trkpt lat="46.62856" lon="5.643">
        <ele>512.59997558594</ele>
        <time>2020-09-12T09:40:33.000Z</time>
      </trkpt>
      <trkpt lat="46.62836" lon="5.64297">
        <ele>512</ele>
        <time>2020-09-12T09:40:35.000Z</time>
      </trkpt>
      <trkpt lat="46.62816" lon="5.64294">
        <ele>511</ele>
        <time>2020-09-12T09:40:37.000Z</time>
      </trkpt>
      <trkpt lat="46.62806" lon="5.64292">
        <ele>510.79998779297</ele>
        <time>2020-09-12T09:40:38.000Z</time>
      </trkpt>
      <trkpt lat="46.62797" lon="5.64289">
        <ele>510.60000610352</ele>
        <time>2020-09-12T09:40:39.000Z</time>
      </trkpt>
      <trkpt lat="46.62787" lon="5.64287">
        <ele>510.20001220703</ele>
        <time>2020-09-12T09:40:40.000Z</time>
      </trkpt>
      <trkpt lat="46.62778" lon="5.64283">
        <ele>509.39999389648</ele>
        <time>2020-09-12T09:40:41.000Z</time>
      </trkpt>
      <trkpt lat="46.62759" lon="5.64274">
        <ele>509.20001220703</ele>
        <time>2020-09-12T09:40:43.000Z</time>
      </trkpt>
      <trkpt lat="46.6275" lon="5.64268">
        <ele>509.20001220703</ele>
        <time>2020-09-12T09:40:44.000Z</time>
      </trkpt>
      <trkpt lat="46.62741" lon="5.64262">
        <ele>509</ele>
        <time>2020-09-12T09:40:45.000Z</time>
      </trkpt>
      <trkpt lat="46.62722" lon="5.64249">
        <ele>509</ele>
        <time>2020-09-12T09:40:47.000Z</time>
      </trkpt>
      <trkpt lat="46.62703" lon="5.64239">
        <ele>508.79998779297</ele>
        <time>2020-09-12T09:40:49.000Z</time>
      </trkpt>
      <trkpt lat="46.62693" lon="5.64236">
        <ele>508.39999389648</ele>
        <time>2020-09-12T09:40:50.000Z</time>
      </trkpt>
      <trkpt lat="46.62684" lon="5.64233">
        <ele>508</ele>
        <time>2020-09-12T09:40:51.000Z</time>
      </trkpt>
      <trkpt lat="46.62665" lon="5.6423">
        <ele>507.60000610352</ele>
        <time>2020-09-12T09:40:53.000Z</time>
      </trkpt>
      <trkpt lat="46.62656" lon="5.64229">
        <ele>507.39999389648</ele>
        <time>2020-09-12T09:40:54.000Z</time>
      </trkpt>
      <trkpt lat="46.62647" lon="5.64229">
        <ele>507.39999389648</ele>
        <time>2020-09-12T09:40:55.000Z</time>
      </trkpt>
      <trkpt lat="46.62629" lon="5.64228">
        <ele>507.39999389648</ele>
        <time>2020-09-12T09:40:57.000Z</time>
      </trkpt>
      <trkpt lat="46.62614" lon="5.64228">
        <ele>507.39999389648</ele>
        <time>2020-09-12T09:40:59.000Z</time>
      </trkpt>
      <trkpt lat="46.62606" lon="5.64228">
        <ele>507.39999389648</ele>
        <time>2020-09-12T09:41:00.000Z</time>
      </trkpt>
      <trkpt lat="46.62599" lon="5.64228">
        <ele>507.39999389648</ele>
        <time>2020-09-12T09:41:01.000Z</time>
      </trkpt>
      <trkpt lat="46.62585" lon="5.64228">
        <ele>507.79998779297</ele>
        <time>2020-09-12T09:41:03.000Z</time>
      </trkpt>
      <trkpt lat="46.62571" lon="5.64228">
        <ele>508.39999389648</ele>
        <time>2020-09-12T09:41:05.000Z</time>
      </trkpt>
      <trkpt lat="46.62564" lon="5.64228">
        <ele>508.79998779297</ele>
        <time>2020-09-12T09:41:06.000Z</time>
      </trkpt>
      <trkpt lat="46.62558" lon="5.64228">
        <ele>509</ele>
        <time>2020-09-12T09:41:07.000Z</time>
      </trkpt>
      <trkpt lat="46.62551" lon="5.64227">
        <ele>509.39999389648</ele>
        <time>2020-09-12T09:41:08.000Z</time>
      </trkpt>
      <trkpt lat="46.62545" lon="5.64225">
        <ele>510</ele>
        <time>2020-09-12T09:41:09.000Z</time>
      </trkpt>
      <trkpt lat="46.62539" lon="5.64222">
        <ele>511.20001220703</ele>
        <time>2020-09-12T09:41:10.000Z</time>
      </trkpt>
      <trkpt lat="46.62533" lon="5.64219">
        <ele>511.79998779297</ele>
        <time>2020-09-12T09:41:11.000Z</time>
      </trkpt>
      <trkpt lat="46.62528" lon="5.64215">
        <ele>512</ele>
        <time>2020-09-12T09:41:12.000Z</time>
      </trkpt>
      <trkpt lat="46.62523" lon="5.64211">
        <ele>512.20001220703</ele>
        <time>2020-09-12T09:41:13.000Z</time>
      </trkpt>
      <trkpt lat="46.62513" lon="5.64202">
        <ele>512.59997558594</ele>
        <time>2020-09-12T09:41:15.000Z</time>
      </trkpt>
      <trkpt lat="46.62505" lon="5.64193">
        <ele>513.20001220703</ele>
        <time>2020-09-12T09:41:17.000Z</time>
      </trkpt>
      <trkpt lat="46.625" lon="5.64188">
        <ele>513.59997558594</ele>
        <time>2020-09-12T09:41:18.000Z</time>
      </trkpt>
      <trkpt lat="46.62496" lon="5.64183">
        <ele>514.20001220703</ele>
        <time>2020-09-12T09:41:19.000Z</time>
      </trkpt>
      <trkpt lat="46.62492" lon="5.64178">
        <ele>514.79998779297</ele>
        <time>2020-09-12T09:41:20.000Z</time>
      </trkpt>
      <trkpt lat="46.62487" lon="5.64174">
        <ele>515.20001220703</ele>
        <time>2020-09-12T09:41:21.000Z</time>
      </trkpt>
      <trkpt lat="46.62478" lon="5.64166">
        <ele>515.59997558594</ele>
        <time>2020-09-12T09:41:23.000Z</time>
      </trkpt>
      <trkpt lat="46.62474" lon="5.64161">
        <ele>515.79998779297</ele>
        <time>2020-09-12T09:41:24.000Z</time>
      </trkpt>
      <trkpt lat="46.62469" lon="5.64157">
        <ele>516.20001220703</ele>
        <time>2020-09-12T09:41:25.000Z</time>
      </trkpt>
      <trkpt lat="46.62461" lon="5.64149">
        <ele>516.79998779297</ele>
        <time>2020-09-12T09:41:27.000Z</time>
      </trkpt>
      <trkpt lat="46.62456" lon="5.64145">
        <ele>517.20001220703</ele>
        <time>2020-09-12T09:41:28.000Z</time>
      </trkpt>
      <trkpt lat="46.62451" lon="5.64141">
        <ele>517.40002441406</ele>
        <time>2020-09-12T09:41:29.000Z</time>
      </trkpt>
      <trkpt lat="46.62447" lon="5.64136">
        <ele>517.59997558594</ele>
        <time>2020-09-12T09:41:30.000Z</time>
      </trkpt>
      <trkpt lat="46.62442" lon="5.64132">
        <ele>517.79998779297</ele>
        <time>2020-09-12T09:41:31.000Z</time>
      </trkpt>
      <trkpt lat="46.62433" lon="5.64124">
        <ele>518.20001220703</ele>
        <time>2020-09-12T09:41:33.000Z</time>
      </trkpt>
      <trkpt lat="46.62424" lon="5.64115">
        <ele>518.59997558594</ele>
        <time>2020-09-12T09:41:35.000Z</time>
      </trkpt>
      <trkpt lat="46.62414" lon="5.64106">
        <ele>518.79998779297</ele>
        <time>2020-09-12T09:41:37.000Z</time>
      </trkpt>
      <trkpt lat="46.62403" lon="5.64097">
        <ele>519.20001220703</ele>
        <time>2020-09-12T09:41:39.000Z</time>
      </trkpt>
      <trkpt lat="46.62398" lon="5.64092">
        <ele>519.20001220703</ele>
        <time>2020-09-12T09:41:40.000Z</time>
      </trkpt>
      <trkpt lat="46.62392" lon="5.64088">
        <ele>519.20001220703</ele>
        <time>2020-09-12T09:41:41.000Z</time>
      </trkpt>
      <trkpt lat="46.62379" lon="5.6408">
        <ele>519.20001220703</ele>
        <time>2020-09-12T09:41:43.000Z</time>
      </trkpt>
      <trkpt lat="46.62373" lon="5.64076">
        <ele>519.20001220703</ele>
        <time>2020-09-12T09:41:44.000Z</time>
      </trkpt>
      <trkpt lat="46.62366" lon="5.64072">
        <ele>519.20001220703</ele>
        <time>2020-09-12T09:41:45.000Z</time>
      </trkpt>
      <trkpt lat="46.62352" lon="5.64065">
        <ele>519.20001220703</ele>
        <time>2020-09-12T09:41:47.000Z</time>
      </trkpt>
      <trkpt lat="46.62338" lon="5.64057">
        <ele>519</ele>
        <time>2020-09-12T09:41:49.000Z</time>
      </trkpt>
      <trkpt lat="46.62323" lon="5.6405">
        <ele>518.59997558594</ele>
        <time>2020-09-12T09:41:51.000Z</time>
      </trkpt>
      <trkpt lat="46.62307" lon="5.64046">
        <ele>518.20001220703</ele>
        <time>2020-09-12T09:41:53.000Z</time>
      </trkpt>
      <trkpt lat="46.62292" lon="5.64044">
        <ele>518</ele>
        <time>2020-09-12T09:41:55.000Z</time>
      </trkpt>
      <trkpt lat="46.62284" lon="5.64044">
        <ele>517.79998779297</ele>
        <time>2020-09-12T09:41:56.000Z</time>
      </trkpt>
      <trkpt lat="46.62277" lon="5.64045">
        <ele>517.59997558594</ele>
        <time>2020-09-12T09:41:57.000Z</time>
      </trkpt>
      <trkpt lat="46.62263" lon="5.64048">
        <ele>517.59997558594</ele>
        <time>2020-09-12T09:41:59.000Z</time>
      </trkpt>
      <trkpt lat="46.62251" lon="5.64053">
        <ele>517.59997558594</ele>
        <time>2020-09-12T09:42:01.000Z</time>
      </trkpt>
      <trkpt lat="46.62239" lon="5.64059">
        <ele>517.59997558594</ele>
        <time>2020-09-12T09:42:03.000Z</time>
      </trkpt>
      <trkpt lat="46.62227" lon="5.64066">
        <ele>517.59997558594</ele>
        <time>2020-09-12T09:42:05.000Z</time>
      </trkpt>
      <trkpt lat="46.62215" lon="5.64075">
        <ele>518.20001220703</ele>
        <time>2020-09-12T09:42:07.000Z</time>
      </trkpt>
      <trkpt lat="46.62202" lon="5.64085">
        <ele>518.79998779297</ele>
        <time>2020-09-12T09:42:09.000Z</time>
      </trkpt>
      <trkpt lat="46.62187" lon="5.64093">
        <ele>518.79998779297</ele>
        <time>2020-09-12T09:42:11.000Z</time>
      </trkpt>
      <trkpt lat="46.62179" lon="5.64096">
        <ele>518.79998779297</ele>
        <time>2020-09-12T09:42:12.000Z</time>
      </trkpt>
      <trkpt lat="46.62171" lon="5.64098">
        <ele>518.79998779297</ele>
        <time>2020-09-12T09:42:13.000Z</time>
      </trkpt>
      <trkpt lat="46.62154" lon="5.641">
        <ele>518.79998779297</ele>
        <time>2020-09-12T09:42:15.000Z</time>
      </trkpt>
      <trkpt lat="46.62146" lon="5.64099">
        <ele>518.79998779297</ele>
        <time>2020-09-12T09:42:16.000Z</time>
      </trkpt>
      <trkpt lat="46.62137" lon="5.64099">
        <ele>518.79998779297</ele>
        <time>2020-09-12T09:42:17.000Z</time>
      </trkpt>
      <trkpt lat="46.62122" lon="5.64098">
        <ele>518.59997558594</ele>
        <time>2020-09-12T09:42:19.000Z</time>
      </trkpt>
      <trkpt lat="46.62106" lon="5.641">
        <ele>518.40002441406</ele>
        <time>2020-09-12T09:42:21.000Z</time>
      </trkpt>
      <trkpt lat="46.62099" lon="5.64102">
        <ele>518.40002441406</ele>
        <time>2020-09-12T09:42:22.000Z</time>
      </trkpt>
      <trkpt lat="46.62091" lon="5.64105">
        <ele>518.40002441406</ele>
        <time>2020-09-12T09:42:23.000Z</time>
      </trkpt>
      <trkpt lat="46.62077" lon="5.64111">
        <ele>518.40002441406</ele>
        <time>2020-09-12T09:42:25.000Z</time>
      </trkpt>
      <trkpt lat="46.62063" lon="5.64115">
        <ele>518.40002441406</ele>
        <time>2020-09-12T09:42:27.000Z</time>
      </trkpt>
      <trkpt lat="46.62048" lon="5.6412">
        <ele>518.40002441406</ele>
        <time>2020-09-12T09:42:29.000Z</time>
      </trkpt>
      <trkpt lat="46.62034" lon="5.64124">
        <ele>518.79998779297</ele>
        <time>2020-09-12T09:42:31.000Z</time>
      </trkpt>
      <trkpt lat="46.6202" lon="5.64127">
        <ele>519</ele>
        <time>2020-09-12T09:42:33.000Z</time>
      </trkpt>
      <trkpt lat="46.62014" lon="5.64128">
        <ele>519.20001220703</ele>
        <time>2020-09-12T09:42:34.000Z</time>
      </trkpt>
      <trkpt lat="46.62007" lon="5.64129">
        <ele>519.40002441406</ele>
        <time>2020-09-12T09:42:35.000Z</time>
      </trkpt>
      <trkpt lat="46.62001" lon="5.6413">
        <ele>519.40002441406</ele>
        <time>2020-09-12T09:42:36.000Z</time>
      </trkpt>
      <trkpt lat="46.61994" lon="5.6413">
        <ele>519.59997558594</ele>
        <time>2020-09-12T09:42:37.000Z</time>
      </trkpt>
      <trkpt lat="46.61982" lon="5.6413">
        <ele>519.79998779297</ele>
        <time>2020-09-12T09:42:39.000Z</time>
      </trkpt>
      <trkpt lat="46.61971" lon="5.64131">
        <ele>520.40002441406</ele>
        <time>2020-09-12T09:42:41.000Z</time>
      </trkpt>
      <trkpt lat="46.6196" lon="5.64132">
        <ele>520.79998779297</ele>
        <time>2020-09-12T09:42:43.000Z</time>
      </trkpt>
      <trkpt lat="46.61954" lon="5.64132">
        <ele>521</ele>
        <time>2020-09-12T09:42:44.000Z</time>
      </trkpt>
      <trkpt lat="46.61949" lon="5.64132">
        <ele>521.40002441406</ele>
        <time>2020-09-12T09:42:45.000Z</time>
      </trkpt>
      <trkpt lat="46.61943" lon="5.64133">
        <ele>521.59997558594</ele>
        <time>2020-09-12T09:42:46.000Z</time>
      </trkpt>
      <trkpt lat="46.61938" lon="5.64133">
        <ele>522</ele>
        <time>2020-09-12T09:42:47.000Z</time>
      </trkpt>
      <trkpt lat="46.61928" lon="5.64134">
        <ele>522.79998779297</ele>
        <time>2020-09-12T09:42:49.000Z</time>
      </trkpt>
      <trkpt lat="46.61916" lon="5.64136">
        <ele>523.20001220703</ele>
        <time>2020-09-12T09:42:51.000Z</time>
      </trkpt>
      <trkpt lat="46.6191" lon="5.64137">
        <ele>523.40002441406</ele>
        <time>2020-09-12T09:42:52.000Z</time>
      </trkpt>
      <trkpt lat="46.61904" lon="5.64137">
        <ele>523.59997558594</ele>
        <time>2020-09-12T09:42:53.000Z</time>
      </trkpt>
      <trkpt lat="46.61898" lon="5.64138">
        <ele>524</ele>
        <time>2020-09-12T09:42:54.000Z</time>
      </trkpt>
      <trkpt lat="46.61891" lon="5.64139">
        <ele>524.20001220703</ele>
        <time>2020-09-12T09:42:55.000Z</time>
      </trkpt>
      <trkpt lat="46.61878" lon="5.6414">
        <ele>524.59997558594</ele>
        <time>2020-09-12T09:42:57.000Z</time>
      </trkpt>
      <trkpt lat="46.61865" lon="5.64141">
        <ele>524.79998779297</ele>
        <time>2020-09-12T09:42:59.000Z</time>
      </trkpt>
      <trkpt lat="46.61852" lon="5.64141">
        <ele>525</ele>
        <time>2020-09-12T09:43:01.000Z</time>
      </trkpt>
      <trkpt lat="46.61846" lon="5.64142">
        <ele>525</ele>
        <time>2020-09-12T09:43:02.000Z</time>
      </trkpt>
      <trkpt lat="46.6184" lon="5.64142">
        <ele>525</ele>
        <time>2020-09-12T09:43:03.000Z</time>
      </trkpt>
      <trkpt lat="46.61829" lon="5.64142">
        <ele>525.20001220703</ele>
        <time>2020-09-12T09:43:05.000Z</time>
      </trkpt>
      <trkpt lat="46.61817" lon="5.64142">
        <ele>525.59997558594</ele>
        <time>2020-09-12T09:43:07.000Z</time>
      </trkpt>
      <trkpt lat="46.61805" lon="5.64143">
        <ele>526.20001220703</ele>
        <time>2020-09-12T09:43:09.000Z</time>
      </trkpt>
      <trkpt lat="46.61793" lon="5.64144">
        <ele>526.59997558594</ele>
        <time>2020-09-12T09:43:11.000Z</time>
      </trkpt>
      <trkpt lat="46.6178" lon="5.64144">
        <ele>526.79998779297</ele>
        <time>2020-09-12T09:43:13.000Z</time>
      </trkpt>
      <trkpt lat="46.61768" lon="5.64145">
        <ele>526.79998779297</ele>
        <time>2020-09-12T09:43:15.000Z</time>
      </trkpt>
      <trkpt lat="46.61762" lon="5.64145">
        <ele>526.79998779297</ele>
        <time>2020-09-12T09:43:16.000Z</time>
      </trkpt>
      <trkpt lat="46.61756" lon="5.64146">
        <ele>526.79998779297</ele>
        <time>2020-09-12T09:43:17.000Z</time>
      </trkpt>
      <trkpt lat="46.61745" lon="5.64148">
        <ele>527</ele>
        <time>2020-09-12T09:43:19.000Z</time>
      </trkpt>
      <trkpt lat="46.6174" lon="5.6415">
        <ele>527</ele>
        <time>2020-09-12T09:43:20.000Z</time>
      </trkpt>
      <trkpt lat="46.61734" lon="5.64153">
        <ele>527.20001220703</ele>
        <time>2020-09-12T09:43:21.000Z</time>
      </trkpt>
      <trkpt lat="46.61729" lon="5.64157">
        <ele>527.40002441406</ele>
        <time>2020-09-12T09:43:22.000Z</time>
      </trkpt>
      <trkpt lat="46.61723" lon="5.64161">
        <ele>527.59997558594</ele>
        <time>2020-09-12T09:43:23.000Z</time>
      </trkpt>
      <trkpt lat="46.61713" lon="5.64174">
        <ele>528</ele>
        <time>2020-09-12T09:43:25.000Z</time>
      </trkpt>
      <trkpt lat="46.61708" lon="5.64182">
        <ele>528</ele>
        <time>2020-09-12T09:43:26.000Z</time>
      </trkpt>
      <trkpt lat="46.61703" lon="5.6419">
        <ele>528.20001220703</ele>
        <time>2020-09-12T09:43:27.000Z</time>
      </trkpt>
      <trkpt lat="46.61694" lon="5.64208">
        <ele>528.20001220703</ele>
        <time>2020-09-12T09:43:29.000Z</time>
      </trkpt>
      <trkpt lat="46.61685" lon="5.64225">
        <ele>528.20001220703</ele>
        <time>2020-09-12T09:43:31.000Z</time>
      </trkpt>
      <trkpt lat="46.61677" lon="5.64243">
        <ele>528.20001220703</ele>
        <time>2020-09-12T09:43:33.000Z</time>
      </trkpt>
      <trkpt lat="46.61672" lon="5.64252">
        <ele>528.20001220703</ele>
        <time>2020-09-12T09:43:34.000Z</time>
      </trkpt>
      <trkpt lat="46.61667" lon="5.6426">
        <ele>528.20001220703</ele>
        <time>2020-09-12T09:43:35.000Z</time>
      </trkpt>
      <trkpt lat="46.61656" lon="5.64274">
        <ele>528</ele>
        <time>2020-09-12T09:43:37.000Z</time>
      </trkpt>
      <trkpt lat="46.6165" lon="5.6428">
        <ele>528</ele>
        <time>2020-09-12T09:43:38.000Z</time>
      </trkpt>
      <trkpt lat="46.61644" lon="5.64286">
        <ele>528</ele>
        <time>2020-09-12T09:43:39.000Z</time>
      </trkpt>
      <trkpt lat="46.61631" lon="5.64296">
        <ele>528</ele>
        <time>2020-09-12T09:43:41.000Z</time>
      </trkpt>
      <trkpt lat="46.61618" lon="5.64303">
        <ele>528</ele>
        <time>2020-09-12T09:43:43.000Z</time>
      </trkpt>
      <trkpt lat="46.61604" lon="5.64307">
        <ele>528</ele>
        <time>2020-09-12T09:43:45.000Z</time>
      </trkpt>
      <trkpt lat="46.61589" lon="5.64309">
        <ele>528</ele>
        <time>2020-09-12T09:43:47.000Z</time>
      </trkpt>
      <trkpt lat="46.61581" lon="5.64311">
        <ele>528</ele>
        <time>2020-09-12T09:43:48.000Z</time>
      </trkpt>
      <trkpt lat="46.61573" lon="5.64314">
        <ele>528</ele>
        <time>2020-09-12T09:43:49.000Z</time>
      </trkpt>
      <trkpt lat="46.61558" lon="5.64324">
        <ele>527.79998779297</ele>
        <time>2020-09-12T09:43:51.000Z</time>
      </trkpt>
      <trkpt lat="46.61551" lon="5.64329">
        <ele>527.79998779297</ele>
        <time>2020-09-12T09:43:52.000Z</time>
      </trkpt>
      <trkpt lat="46.61543" lon="5.64336">
        <ele>527.79998779297</ele>
        <time>2020-09-12T09:43:53.000Z</time>
      </trkpt>
      <trkpt lat="46.6153" lon="5.6435">
        <ele>527.79998779297</ele>
        <time>2020-09-12T09:43:55.000Z</time>
      </trkpt>
      <trkpt lat="46.61517" lon="5.64365">
        <ele>527.40002441406</ele>
        <time>2020-09-12T09:43:57.000Z</time>
      </trkpt>
      <trkpt lat="46.61505" lon="5.64379">
        <ele>526.79998779297</ele>
        <time>2020-09-12T09:43:59.000Z</time>
      </trkpt>
      <trkpt lat="46.6149" lon="5.64394">
        <ele>526.59997558594</ele>
        <time>2020-09-12T09:44:01.000Z</time>
      </trkpt>
      <trkpt lat="46.61482" lon="5.644">
        <ele>526.20001220703</ele>
        <time>2020-09-12T09:44:02.000Z</time>
      </trkpt>
      <trkpt lat="46.61474" lon="5.64406">
        <ele>526.20001220703</ele>
        <time>2020-09-12T09:44:03.000Z</time>
      </trkpt>
      <trkpt lat="46.61465" lon="5.64411">
        <ele>526</ele>
        <time>2020-09-12T09:44:04.000Z</time>
      </trkpt>
      <trkpt lat="46.61457" lon="5.64415">
        <ele>525.79998779297</ele>
        <time>2020-09-12T09:44:05.000Z</time>
      </trkpt>
      <trkpt lat="46.61448" lon="5.64418">
        <ele>525.79998779297</ele>
        <time>2020-09-12T09:44:06.000Z</time>
      </trkpt>
      <trkpt lat="46.61439" lon="5.64421">
        <ele>525.59997558594</ele>
        <time>2020-09-12T09:44:07.000Z</time>
      </trkpt>
      <trkpt lat="46.61421" lon="5.64424">
        <ele>524.59997558594</ele>
        <time>2020-09-12T09:44:09.000Z</time>
      </trkpt>
      <trkpt lat="46.61403" lon="5.64428">
        <ele>523.79998779297</ele>
        <time>2020-09-12T09:44:11.000Z</time>
      </trkpt>
      <trkpt lat="46.61394" lon="5.64429">
        <ele>523.59997558594</ele>
        <time>2020-09-12T09:44:12.000Z</time>
      </trkpt>
      <trkpt lat="46.61386" lon="5.6443">
        <ele>523.40002441406</ele>
        <time>2020-09-12T09:44:13.000Z</time>
      </trkpt>
      <trkpt lat="46.61369" lon="5.64433">
        <ele>523</ele>
        <time>2020-09-12T09:44:15.000Z</time>
      </trkpt>
      <trkpt lat="46.61353" lon="5.64436">
        <ele>523</ele>
        <time>2020-09-12T09:44:17.000Z</time>
      </trkpt>
      <trkpt lat="46.61338" lon="5.64439">
        <ele>523</ele>
        <time>2020-09-12T09:44:19.000Z</time>
      </trkpt>
      <trkpt lat="46.6133" lon="5.64441">
        <ele>523</ele>
        <time>2020-09-12T09:44:20.000Z</time>
      </trkpt>
      <trkpt lat="46.61322" lon="5.64441">
        <ele>523</ele>
        <time>2020-09-12T09:44:21.000Z</time>
      </trkpt>
      <trkpt lat="46.61307" lon="5.64442">
        <ele>523.20001220703</ele>
        <time>2020-09-12T09:44:23.000Z</time>
      </trkpt>
      <trkpt lat="46.61293" lon="5.6444">
        <ele>523.59997558594</ele>
        <time>2020-09-12T09:44:25.000Z</time>
      </trkpt>
      <trkpt lat="46.61286" lon="5.64439">
        <ele>523.79998779297</ele>
        <time>2020-09-12T09:44:26.000Z</time>
      </trkpt>
      <trkpt lat="46.6128" lon="5.64438">
        <ele>524</ele>
        <time>2020-09-12T09:44:27.000Z</time>
      </trkpt>
      <trkpt lat="46.61274" lon="5.64437">
        <ele>524.40002441406</ele>
        <time>2020-09-12T09:44:28.000Z</time>
      </trkpt>
      <trkpt lat="46.61268" lon="5.64436">
        <ele>524.59997558594</ele>
        <time>2020-09-12T09:44:29.000Z</time>
      </trkpt>
      <trkpt lat="46.61256" lon="5.64434">
        <ele>525</ele>
        <time>2020-09-12T09:44:31.000Z</time>
      </trkpt>
      <trkpt lat="46.61245" lon="5.64431">
        <ele>525.59997558594</ele>
        <time>2020-09-12T09:44:33.000Z</time>
      </trkpt>
      <trkpt lat="46.61235" lon="5.64427">
        <ele>526.79998779297</ele>
        <time>2020-09-12T09:44:35.000Z</time>
      </trkpt>
      <trkpt lat="46.61225" lon="5.6442">
        <ele>527.40002441406</ele>
        <time>2020-09-12T09:44:37.000Z</time>
      </trkpt>
      <trkpt lat="46.61221" lon="5.64417">
        <ele>527.59997558594</ele>
        <time>2020-09-12T09:44:38.000Z</time>
      </trkpt>
      <trkpt lat="46.61216" lon="5.64413">
        <ele>528</ele>
        <time>2020-09-12T09:44:39.000Z</time>
      </trkpt>
      <trkpt lat="46.61208" lon="5.64405">
        <ele>529</ele>
        <time>2020-09-12T09:44:41.000Z</time>
      </trkpt>
      <trkpt lat="46.61203" lon="5.644">
        <ele>529.20001220703</ele>
        <time>2020-09-12T09:44:42.000Z</time>
      </trkpt>
      <trkpt lat="46.61199" lon="5.64395">
        <ele>529.20001220703</ele>
        <time>2020-09-12T09:44:43.000Z</time>
      </trkpt>
      <trkpt lat="46.61191" lon="5.64386">
        <ele>529.79998779297</ele>
        <time>2020-09-12T09:44:45.000Z</time>
      </trkpt>
      <trkpt lat="46.61187" lon="5.64381">
        <ele>530.20001220703</ele>
        <time>2020-09-12T09:44:46.000Z</time>
      </trkpt>
      <trkpt lat="46.61184" lon="5.64375">
        <ele>530.40002441406</ele>
        <time>2020-09-12T09:44:47.000Z</time>
      </trkpt>
      <trkpt lat="46.61178" lon="5.64363">
        <ele>530.79998779297</ele>
        <time>2020-09-12T09:44:49.000Z</time>
      </trkpt>
      <trkpt lat="46.61175" lon="5.6435">
        <ele>531</ele>
        <time>2020-09-12T09:44:51.000Z</time>
      </trkpt>
      <trkpt lat="46.61174" lon="5.64344">
        <ele>531.20001220703</ele>
        <time>2020-09-12T09:44:52.000Z</time>
      </trkpt>
      <trkpt lat="46.61173" lon="5.64337">
        <ele>531.40002441406</ele>
        <time>2020-09-12T09:44:53.000Z</time>
      </trkpt>
      <trkpt lat="46.61172" lon="5.64324">
        <ele>531.59997558594</ele>
        <time>2020-09-12T09:44:55.000Z</time>
      </trkpt>
      <trkpt lat="46.61172" lon="5.64318">
        <ele>531.59997558594</ele>
        <time>2020-09-12T09:44:56.000Z</time>
      </trkpt>
      <trkpt lat="46.61172" lon="5.64311">
        <ele>531.79998779297</ele>
        <time>2020-09-12T09:44:57.000Z</time>
      </trkpt>
      <trkpt lat="46.61173" lon="5.64298">
        <ele>532</ele>
        <time>2020-09-12T09:44:59.000Z</time>
      </trkpt>
      <trkpt lat="46.61174" lon="5.64292">
        <ele>532.40002441406</ele>
        <time>2020-09-12T09:45:00.000Z</time>
      </trkpt>
      <trkpt lat="46.61174" lon="5.64286">
        <ele>532.79998779297</ele>
        <time>2020-09-12T09:45:01.000Z</time>
      </trkpt>
      <trkpt lat="46.61175" lon="5.64274">
        <ele>533.59997558594</ele>
        <time>2020-09-12T09:45:03.000Z</time>
      </trkpt>
      <trkpt lat="46.61177" lon="5.64263">
        <ele>534.20001220703</ele>
        <time>2020-09-12T09:45:05.000Z</time>
      </trkpt>
      <trkpt lat="46.61178" lon="5.64257">
        <ele>534.40002441406</ele>
        <time>2020-09-12T09:45:06.000Z</time>
      </trkpt>
      <trkpt lat="46.61179" lon="5.64251">
        <ele>534.59997558594</ele>
        <time>2020-09-12T09:45:07.000Z</time>
      </trkpt>
      <trkpt lat="46.61181" lon="5.6424">
        <ele>535.20001220703</ele>
        <time>2020-09-12T09:45:09.000Z</time>
      </trkpt>
      <trkpt lat="46.61181" lon="5.6423">
        <ele>536</ele>
        <time>2020-09-12T09:45:11.000Z</time>
      </trkpt>
      <trkpt lat="46.6118" lon="5.64224">
        <ele>536.40002441406</ele>
        <time>2020-09-12T09:45:12.000Z</time>
      </trkpt>
      <trkpt lat="46.61178" lon="5.64218">
        <ele>536.59997558594</ele>
        <time>2020-09-12T09:45:13.000Z</time>
      </trkpt>
      <trkpt lat="46.61174" lon="5.64208">
        <ele>537.20001220703</ele>
        <time>2020-09-12T09:45:15.000Z</time>
      </trkpt>
      <trkpt lat="46.61171" lon="5.64203">
        <ele>537.40002441406</ele>
        <time>2020-09-12T09:45:16.000Z</time>
      </trkpt>
      <trkpt lat="46.61168" lon="5.64199">
        <ele>537.79998779297</ele>
        <time>2020-09-12T09:45:17.000Z</time>
      </trkpt>
      <trkpt lat="46.61161" lon="5.64193">
        <ele>538.59997558594</ele>
        <time>2020-09-12T09:45:19.000Z</time>
      </trkpt>
      <trkpt lat="46.61154" lon="5.64186">
        <ele>539.20001220703</ele>
        <time>2020-09-12T09:45:21.000Z</time>
      </trkpt>
      <trkpt lat="46.61147" lon="5.64178">
        <ele>539.59997558594</ele>
        <time>2020-09-12T09:45:23.000Z</time>
      </trkpt>
      <trkpt lat="46.6114" lon="5.64171">
        <ele>540</ele>
        <time>2020-09-12T09:45:25.000Z</time>
      </trkpt>
      <trkpt lat="46.61133" lon="5.64163">
        <ele>540.20001220703</ele>
        <time>2020-09-12T09:45:27.000Z</time>
      </trkpt>
      <trkpt lat="46.61126" lon="5.64157">
        <ele>540.59997558594</ele>
        <time>2020-09-12T09:45:29.000Z</time>
      </trkpt>
      <trkpt lat="46.61122" lon="5.64154">
        <ele>540.59997558594</ele>
        <time>2020-09-12T09:45:30.000Z</time>
      </trkpt>
      <trkpt lat="46.61118" lon="5.64151">
        <ele>541</ele>
        <time>2020-09-12T09:45:31.000Z</time>
      </trkpt>
      <trkpt lat="46.61109" lon="5.64147">
        <ele>541.59997558594</ele>
        <time>2020-09-12T09:45:33.000Z</time>
      </trkpt>
      <trkpt lat="46.61104" lon="5.64145">
        <ele>542</ele>
        <time>2020-09-12T09:45:34.000Z</time>
      </trkpt>
      <trkpt lat="46.61098" lon="5.64144">
        <ele>542.20001220703</ele>
        <time>2020-09-12T09:45:35.000Z</time>
      </trkpt>
      <trkpt lat="46.61088" lon="5.64142">
        <ele>542.40002441406</ele>
        <time>2020-09-12T09:45:37.000Z</time>
      </trkpt>
      <trkpt lat="46.61082" lon="5.64143">
        <ele>542.59997558594</ele>
        <time>2020-09-12T09:45:38.000Z</time>
      </trkpt>
      <trkpt lat="46.61076" lon="5.64143">
        <ele>542.59997558594</ele>
        <time>2020-09-12T09:45:39.000Z</time>
      </trkpt>
      <trkpt lat="46.6107" lon="5.64144">
        <ele>542.59997558594</ele>
        <time>2020-09-12T09:45:40.000Z</time>
      </trkpt>
      <trkpt lat="46.61063" lon="5.64144">
        <ele>542.59997558594</ele>
        <time>2020-09-12T09:45:41.000Z</time>
      </trkpt>
      <trkpt lat="46.6105" lon="5.64145">
        <ele>542.59997558594</ele>
        <time>2020-09-12T09:45:43.000Z</time>
      </trkpt>
      <trkpt lat="46.61037" lon="5.64147">
        <ele>542.59997558594</ele>
        <time>2020-09-12T09:45:45.000Z</time>
      </trkpt>
      <trkpt lat="46.61023" lon="5.64148">
        <ele>542.20001220703</ele>
        <time>2020-09-12T09:45:47.000Z</time>
      </trkpt>
      <trkpt lat="46.61007" lon="5.6415">
        <ele>542</ele>
        <time>2020-09-12T09:45:49.000Z</time>
      </trkpt>
      <trkpt lat="46.60991" lon="5.64151">
        <ele>541.79998779297</ele>
        <time>2020-09-12T09:45:51.000Z</time>
      </trkpt>
      <trkpt lat="46.60975" lon="5.64152">
        <ele>541.79998779297</ele>
        <time>2020-09-12T09:45:53.000Z</time>
      </trkpt>
      <trkpt lat="46.60967" lon="5.64152">
        <ele>541.79998779297</ele>
        <time>2020-09-12T09:45:54.000Z</time>
      </trkpt>
      <trkpt lat="46.60958" lon="5.64152">
        <ele>541.59997558594</ele>
        <time>2020-09-12T09:45:55.000Z</time>
      </trkpt>
      <trkpt lat="46.60941" lon="5.64151">
        <ele>541.20001220703</ele>
        <time>2020-09-12T09:45:57.000Z</time>
      </trkpt>
      <trkpt lat="46.60933" lon="5.6415">
        <ele>540.79998779297</ele>
        <time>2020-09-12T09:45:58.000Z</time>
      </trkpt>
      <trkpt lat="46.60924" lon="5.6415">
        <ele>540.20001220703</ele>
        <time>2020-09-12T09:45:59.000Z</time>
      </trkpt>
      <trkpt lat="46.60907" lon="5.64148">
        <ele>539.59997558594</ele>
        <time>2020-09-12T09:46:01.000Z</time>
      </trkpt>
      <trkpt lat="46.60898" lon="5.64147">
        <ele>539.59997558594</ele>
        <time>2020-09-12T09:46:02.000Z</time>
      </trkpt>
      <trkpt lat="46.6089" lon="5.64147">
        <ele>539.20001220703</ele>
        <time>2020-09-12T09:46:03.000Z</time>
      </trkpt>
      <trkpt lat="46.60872" lon="5.64146">
        <ele>538.59997558594</ele>
        <time>2020-09-12T09:46:05.000Z</time>
      </trkpt>
      <trkpt lat="46.60853" lon="5.64146">
        <ele>538</ele>
        <time>2020-09-12T09:46:07.000Z</time>
      </trkpt>
      <trkpt lat="46.60844" lon="5.64146">
        <ele>537.40002441406</ele>
        <time>2020-09-12T09:46:08.000Z</time>
      </trkpt>
      <trkpt lat="46.60834" lon="5.64146">
        <ele>536.79998779297</ele>
        <time>2020-09-12T09:46:09.000Z</time>
      </trkpt>
      <trkpt lat="46.60815" lon="5.64149">
        <ele>536.40002441406</ele>
        <time>2020-09-12T09:46:11.000Z</time>
      </trkpt>
      <trkpt lat="46.60806" lon="5.6415">
        <ele>536.20001220703</ele>
        <time>2020-09-12T09:46:12.000Z</time>
      </trkpt>
      <trkpt lat="46.60798" lon="5.64151">
        <ele>536</ele>
        <time>2020-09-12T09:46:13.000Z</time>
      </trkpt>
      <trkpt lat="46.6078" lon="5.64154">
        <ele>535.59997558594</ele>
        <time>2020-09-12T09:46:15.000Z</time>
      </trkpt>
      <trkpt lat="46.60763" lon="5.64157">
        <ele>535.20001220703</ele>
        <time>2020-09-12T09:46:17.000Z</time>
      </trkpt>
      <trkpt lat="46.60746" lon="5.64158">
        <ele>535</ele>
        <time>2020-09-12T09:46:19.000Z</time>
      </trkpt>
      <trkpt lat="46.60731" lon="5.64157">
        <ele>535</ele>
        <time>2020-09-12T09:46:21.000Z</time>
      </trkpt>
      <trkpt lat="46.60715" lon="5.64155">
        <ele>535</ele>
        <time>2020-09-12T09:46:23.000Z</time>
      </trkpt>
      <trkpt lat="46.607" lon="5.64151">
        <ele>535</ele>
        <time>2020-09-12T09:46:25.000Z</time>
      </trkpt>
      <trkpt lat="46.60685" lon="5.64146">
        <ele>535.40002441406</ele>
        <time>2020-09-12T09:46:27.000Z</time>
      </trkpt>
      <trkpt lat="46.6067" lon="5.64141">
        <ele>535.79998779297</ele>
        <time>2020-09-12T09:46:29.000Z</time>
      </trkpt>
      <trkpt lat="46.60655" lon="5.64136">
        <ele>536</ele>
        <time>2020-09-12T09:46:31.000Z</time>
      </trkpt>
      <trkpt lat="46.6064" lon="5.64132">
        <ele>536.20001220703</ele>
        <time>2020-09-12T09:46:33.000Z</time>
      </trkpt>
      <trkpt lat="46.60624" lon="5.6413">
        <ele>536.20001220703</ele>
        <time>2020-09-12T09:46:35.000Z</time>
      </trkpt>
      <trkpt lat="46.60616" lon="5.6413">
        <ele>536.20001220703</ele>
        <time>2020-09-12T09:46:36.000Z</time>
      </trkpt>
      <trkpt lat="46.60608" lon="5.64131">
        <ele>536.40002441406</ele>
        <time>2020-09-12T09:46:37.000Z</time>
      </trkpt>
      <trkpt lat="46.60591" lon="5.64135">
        <ele>536.20001220703</ele>
        <time>2020-09-12T09:46:39.000Z</time>
      </trkpt>
      <trkpt lat="46.60582" lon="5.64138">
        <ele>536.20001220703</ele>
        <time>2020-09-12T09:46:40.000Z</time>
      </trkpt>
      <trkpt lat="46.60573" lon="5.6414">
        <ele>536.20001220703</ele>
        <time>2020-09-12T09:46:41.000Z</time>
      </trkpt>
      <trkpt lat="46.60554" lon="5.64143">
        <ele>536</ele>
        <time>2020-09-12T09:46:43.000Z</time>
      </trkpt>
      <trkpt lat="46.60534" lon="5.64144">
        <ele>535.40002441406</ele>
        <time>2020-09-12T09:46:45.000Z</time>
      </trkpt>
      <trkpt lat="46.60524" lon="5.64144">
        <ele>535.20001220703</ele>
        <time>2020-09-12T09:46:46.000Z</time>
      </trkpt>
      <trkpt lat="46.60514" lon="5.64143">
        <ele>534.79998779297</ele>
        <time>2020-09-12T09:46:47.000Z</time>
      </trkpt>
      <trkpt lat="46.60494" lon="5.64142">
        <ele>533.59997558594</ele>
        <time>2020-09-12T09:46:49.000Z</time>
      </trkpt>
      <trkpt lat="46.60475" lon="5.6414">
        <ele>532.79998779297</ele>
        <time>2020-09-12T09:46:51.000Z</time>
      </trkpt>
      <trkpt lat="46.60465" lon="5.64137">
        <ele>532.59997558594</ele>
        <time>2020-09-12T09:46:52.000Z</time>
      </trkpt>
      <trkpt lat="46.60456" lon="5.64135">
        <ele>532.40002441406</ele>
        <time>2020-09-12T09:46:53.000Z</time>
      </trkpt>
      <trkpt lat="46.60438" lon="5.64129">
        <ele>532.20001220703</ele>
        <time>2020-09-12T09:46:55.000Z</time>
      </trkpt>
      <trkpt lat="46.60419" lon="5.64123">
        <ele>531.40002441406</ele>
        <time>2020-09-12T09:46:57.000Z</time>
      </trkpt>
      <trkpt lat="46.604" lon="5.64116">
        <ele>531</ele>
        <time>2020-09-12T09:46:59.000Z</time>
      </trkpt>
      <trkpt lat="46.60391" lon="5.64113">
        <ele>530.79998779297</ele>
        <time>2020-09-12T09:47:00.000Z</time>
      </trkpt>
      <trkpt lat="46.60382" lon="5.64111">
        <ele>530.59997558594</ele>
        <time>2020-09-12T09:47:01.000Z</time>
      </trkpt>
      <trkpt lat="46.60363" lon="5.64105">
        <ele>530.59997558594</ele>
        <time>2020-09-12T09:47:03.000Z</time>
      </trkpt>
      <trkpt lat="46.60344" lon="5.64099">
        <ele>530.40002441406</ele>
        <time>2020-09-12T09:47:05.000Z</time>
      </trkpt>
      <trkpt lat="46.60325" lon="5.64094">
        <ele>530.20001220703</ele>
        <time>2020-09-12T09:47:07.000Z</time>
      </trkpt>
      <trkpt lat="46.60316" lon="5.64091">
        <ele>530.20001220703</ele>
        <time>2020-09-12T09:47:08.000Z</time>
      </trkpt>
      <trkpt lat="46.60307" lon="5.64089">
        <ele>530</ele>
        <time>2020-09-12T09:47:09.000Z</time>
      </trkpt>
      <trkpt lat="46.60289" lon="5.64083">
        <ele>529.79998779297</ele>
        <time>2020-09-12T09:47:11.000Z</time>
      </trkpt>
      <trkpt lat="46.6027" lon="5.64079">
        <ele>529.59997558594</ele>
        <time>2020-09-12T09:47:13.000Z</time>
      </trkpt>
      <trkpt lat="46.60252" lon="5.64076">
        <ele>529.59997558594</ele>
        <time>2020-09-12T09:47:15.000Z</time>
      </trkpt>
      <trkpt lat="46.60243" lon="5.64075">
        <ele>529.59997558594</ele>
        <time>2020-09-12T09:47:16.000Z</time>
      </trkpt>
      <trkpt lat="46.60234" lon="5.64075">
        <ele>529.59997558594</ele>
        <time>2020-09-12T09:47:17.000Z</time>
      </trkpt>
      <trkpt lat="46.60216" lon="5.64075">
        <ele>529.59997558594</ele>
        <time>2020-09-12T09:47:19.000Z</time>
      </trkpt>
      <trkpt lat="46.60199" lon="5.64075">
        <ele>529.79998779297</ele>
        <time>2020-09-12T09:47:21.000Z</time>
      </trkpt>
      <trkpt lat="46.60181" lon="5.64074">
        <ele>530</ele>
        <time>2020-09-12T09:47:23.000Z</time>
      </trkpt>
      <trkpt lat="46.60164" lon="5.64071">
        <ele>530</ele>
        <time>2020-09-12T09:47:25.000Z</time>
      </trkpt>
      <trkpt lat="46.60147" lon="5.64067">
        <ele>530.20001220703</ele>
        <time>2020-09-12T09:47:27.000Z</time>
      </trkpt>
      <trkpt lat="46.60132" lon="5.64064">
        <ele>530.40002441406</ele>
        <time>2020-09-12T09:47:29.000Z</time>
      </trkpt>
      <trkpt lat="46.60116" lon="5.64063">
        <ele>530.79998779297</ele>
        <time>2020-09-12T09:47:31.000Z</time>
      </trkpt>
      <trkpt lat="46.60101" lon="5.64062">
        <ele>531</ele>
        <time>2020-09-12T09:47:33.000Z</time>
      </trkpt>
      <trkpt lat="46.60088" lon="5.64051">
        <ele>531.20001220703</ele>
        <time>2020-09-12T09:47:35.000Z</time>
      </trkpt>
      <trkpt lat="46.60082" lon="5.64044">
        <ele>531.40002441406</ele>
        <time>2020-09-12T09:47:36.000Z</time>
      </trkpt>
      <trkpt lat="46.60075" lon="5.6404">
        <ele>531.59997558594</ele>
        <time>2020-09-12T09:47:37.000Z</time>
      </trkpt>
      <trkpt lat="46.60069" lon="5.64036">
        <ele>532</ele>
        <time>2020-09-12T09:47:38.000Z</time>
      </trkpt>
      <trkpt lat="46.60062" lon="5.64033">
        <ele>532.20001220703</ele>
        <time>2020-09-12T09:47:39.000Z</time>
      </trkpt>
      <trkpt lat="46.60049" lon="5.64029">
        <ele>532.59997558594</ele>
        <time>2020-09-12T09:47:41.000Z</time>
      </trkpt>
      <trkpt lat="46.60036" lon="5.64024">
        <ele>532.79998779297</ele>
        <time>2020-09-12T09:47:43.000Z</time>
      </trkpt>
      <trkpt lat="46.60029" lon="5.64022">
        <ele>532.79998779297</ele>
        <time>2020-09-12T09:47:44.000Z</time>
      </trkpt>
      <trkpt lat="46.60023" lon="5.6402">
        <ele>532.79998779297</ele>
        <time>2020-09-12T09:47:45.000Z</time>
      </trkpt>
      <trkpt lat="46.60012" lon="5.64017">
        <ele>532.79998779297</ele>
        <time>2020-09-12T09:47:47.000Z</time>
      </trkpt>
      <trkpt lat="46.60005" lon="5.64013">
        <ele>532.79998779297</ele>
        <time>2020-09-12T09:47:49.000Z</time>
      </trkpt>
      <trkpt lat="46.60003" lon="5.64011">
        <ele>532.59997558594</ele>
        <time>2020-09-12T09:47:51.000Z</time>
      </trkpt>
      <trkpt lat="46.60004" lon="5.6401">
        <ele>532.59997558594</ele>
        <time>2020-09-12T09:47:52.000Z</time>
      </trkpt>
      <trkpt lat="46.60005" lon="5.64004">
        <ele>532.20001220703</ele>
        <time>2020-09-12T09:48:21.000Z</time>
      </trkpt>
      <trkpt lat="46.60006" lon="5.64001">
        <ele>532.20001220703</ele>
        <time>2020-09-12T09:48:22.000Z</time>
      </trkpt>
      <trkpt lat="46.60008" lon="5.63997">
        <ele>532.20001220703</ele>
        <time>2020-09-12T09:48:23.000Z</time>
      </trkpt>
      <trkpt lat="46.60012" lon="5.63988">
        <ele>532.20001220703</ele>
        <time>2020-09-12T09:48:25.000Z</time>
      </trkpt>
      <trkpt lat="46.60018" lon="5.63977">
        <ele>532</ele>
        <time>2020-09-12T09:48:27.000Z</time>
      </trkpt>
      <trkpt lat="46.60025" lon="5.63963">
        <ele>532</ele>
        <time>2020-09-12T09:48:29.000Z</time>
      </trkpt>
      <trkpt lat="46.60033" lon="5.63948">
        <ele>531.59997558594</ele>
        <time>2020-09-12T09:48:31.000Z</time>
      </trkpt>
      <trkpt lat="46.60037" lon="5.6394">
        <ele>531.20001220703</ele>
        <time>2020-09-12T09:48:32.000Z</time>
      </trkpt>
      <trkpt lat="46.60041" lon="5.63932">
        <ele>531</ele>
        <time>2020-09-12T09:48:33.000Z</time>
      </trkpt>
      <trkpt lat="46.60048" lon="5.63916">
        <ele>530.79998779297</ele>
        <time>2020-09-12T09:48:35.000Z</time>
      </trkpt>
      <trkpt lat="46.60049" lon="5.63896">
        <ele>530.59997558594</ele>
        <time>2020-09-12T09:48:37.000Z</time>
      </trkpt>
      <trkpt lat="46.60045" lon="5.63887">
        <ele>530.20001220703</ele>
        <time>2020-09-12T09:48:38.000Z</time>
      </trkpt>
      <trkpt lat="46.6004" lon="5.63879">
        <ele>530</ele>
        <time>2020-09-12T09:48:39.000Z</time>
      </trkpt>
      <trkpt lat="46.60034" lon="5.63872">
        <ele>529.59997558594</ele>
        <time>2020-09-12T09:48:40.000Z</time>
      </trkpt>
      <trkpt lat="46.60027" lon="5.63865">
        <ele>529.40002441406</ele>
        <time>2020-09-12T09:48:41.000Z</time>
      </trkpt>
      <trkpt lat="46.60014" lon="5.63851">
        <ele>529.20001220703</ele>
        <time>2020-09-12T09:48:43.000Z</time>
      </trkpt>
      <trkpt lat="46.6" lon="5.63838">
        <ele>528.59997558594</ele>
        <time>2020-09-12T09:48:45.000Z</time>
      </trkpt>
      <trkpt lat="46.59986" lon="5.63823">
        <ele>527.79998779297</ele>
        <time>2020-09-12T09:48:47.000Z</time>
      </trkpt>
      <trkpt lat="46.59979" lon="5.63816">
        <ele>527.59997558594</ele>
        <time>2020-09-12T09:48:48.000Z</time>
      </trkpt>
      <trkpt lat="46.59972" lon="5.63809">
        <ele>527.59997558594</ele>
        <time>2020-09-12T09:48:49.000Z</time>
      </trkpt>
      <trkpt lat="46.59957" lon="5.63795">
        <ele>527.20001220703</ele>
        <time>2020-09-12T09:48:51.000Z</time>
      </trkpt>
      <trkpt lat="46.59942" lon="5.63779">
        <ele>527</ele>
        <time>2020-09-12T09:48:53.000Z</time>
      </trkpt>
      <trkpt lat="46.59935" lon="5.63771">
        <ele>526.79998779297</ele>
        <time>2020-09-12T09:48:54.000Z</time>
      </trkpt>
      <trkpt lat="46.59928" lon="5.63762">
        <ele>526.59997558594</ele>
        <time>2020-09-12T09:48:55.000Z</time>
      </trkpt>
      <trkpt lat="46.59921" lon="5.63753">
        <ele>525.79998779297</ele>
        <time>2020-09-12T09:48:56.000Z</time>
      </trkpt>
      <trkpt lat="46.59915" lon="5.63743">
        <ele>525.59997558594</ele>
        <time>2020-09-12T09:48:57.000Z</time>
      </trkpt>
      <trkpt lat="46.59905" lon="5.63722">
        <ele>524.40002441406</ele>
        <time>2020-09-12T09:48:59.000Z</time>
      </trkpt>
      <trkpt lat="46.59901" lon="5.63711">
        <ele>523.79998779297</ele>
        <time>2020-09-12T09:49:00.000Z</time>
      </trkpt>
      <trkpt lat="46.59897" lon="5.637">
        <ele>523.59997558594</ele>
        <time>2020-09-12T09:49:01.000Z</time>
      </trkpt>
      <trkpt lat="46.59892" lon="5.6369">
        <ele>523.40002441406</ele>
        <time>2020-09-12T09:49:02.000Z</time>
      </trkpt>
      <trkpt lat="46.59889" lon="5.63679">
        <ele>523.20001220703</ele>
        <time>2020-09-12T09:49:03.000Z</time>
      </trkpt>
      <trkpt lat="46.59881" lon="5.63658">
        <ele>523</ele>
        <time>2020-09-12T09:49:05.000Z</time>
      </trkpt>
      <trkpt lat="46.59874" lon="5.63638">
        <ele>523</ele>
        <time>2020-09-12T09:49:07.000Z</time>
      </trkpt>
      <trkpt lat="46.59867" lon="5.63618">
        <ele>523</ele>
        <time>2020-09-12T09:49:09.000Z</time>
      </trkpt>
      <trkpt lat="46.5986" lon="5.636">
        <ele>523</ele>
        <time>2020-09-12T09:49:11.000Z</time>
      </trkpt>
      <trkpt lat="46.59853" lon="5.63583">
        <ele>523</ele>
        <time>2020-09-12T09:49:13.000Z</time>
      </trkpt>
      <trkpt lat="46.59849" lon="5.63575">
        <ele>523.20001220703</ele>
        <time>2020-09-12T09:49:14.000Z</time>
      </trkpt>
      <trkpt lat="46.59845" lon="5.63568">
        <ele>523.20001220703</ele>
        <time>2020-09-12T09:49:15.000Z</time>
      </trkpt>
      <trkpt lat="46.59834" lon="5.63557">
        <ele>523.79998779297</ele>
        <time>2020-09-12T09:49:17.000Z</time>
      </trkpt>
      <trkpt lat="46.59829" lon="5.63552">
        <ele>524</ele>
        <time>2020-09-12T09:49:18.000Z</time>
      </trkpt>
      <trkpt lat="46.59823" lon="5.63548">
        <ele>524.59997558594</ele>
        <time>2020-09-12T09:49:19.000Z</time>
      </trkpt>
      <trkpt lat="46.59811" lon="5.6354">
        <ele>525.40002441406</ele>
        <time>2020-09-12T09:49:21.000Z</time>
      </trkpt>
      <trkpt lat="46.59805" lon="5.63536">
        <ele>525.79998779297</ele>
        <time>2020-09-12T09:49:22.000Z</time>
      </trkpt>
      <trkpt lat="46.59799" lon="5.63532">
        <ele>526.40002441406</ele>
        <time>2020-09-12T09:49:23.000Z</time>
      </trkpt>
      <trkpt lat="46.59793" lon="5.63527">
        <ele>526.79998779297</ele>
        <time>2020-09-12T09:49:24.000Z</time>
      </trkpt>
      <trkpt lat="46.59786" lon="5.63523">
        <ele>527.20001220703</ele>
        <time>2020-09-12T09:49:25.000Z</time>
      </trkpt>
      <trkpt lat="46.59773" lon="5.63512">
        <ele>527.40002441406</ele>
        <time>2020-09-12T09:49:27.000Z</time>
      </trkpt>
      <trkpt lat="46.59761" lon="5.63498">
        <ele>527.40002441406</ele>
        <time>2020-09-12T09:49:29.000Z</time>
      </trkpt>
      <trkpt lat="46.5975" lon="5.6348">
        <ele>527.40002441406</ele>
        <time>2020-09-12T09:49:31.000Z</time>
      </trkpt>
      <trkpt lat="46.59743" lon="5.63458">
        <ele>527.40002441406</ele>
        <time>2020-09-12T09:49:33.000Z</time>
      </trkpt>
      <trkpt lat="46.59741" lon="5.63446">
        <ele>527.20001220703</ele>
        <time>2020-09-12T09:49:34.000Z</time>
      </trkpt>
      <trkpt lat="46.59741" lon="5.63434">
        <ele>526.59997558594</ele>
        <time>2020-09-12T09:49:35.000Z</time>
      </trkpt>
      <trkpt lat="46.59742" lon="5.6341">
        <ele>525.59997558594</ele>
        <time>2020-09-12T09:49:37.000Z</time>
      </trkpt>
      <trkpt lat="46.59744" lon="5.63397">
        <ele>525</ele>
        <time>2020-09-12T09:49:38.000Z</time>
      </trkpt>
      <trkpt lat="46.59745" lon="5.63385">
        <ele>524.40002441406</ele>
        <time>2020-09-12T09:49:39.000Z</time>
      </trkpt>
      <trkpt lat="46.59749" lon="5.6336">
        <ele>523.20001220703</ele>
        <time>2020-09-12T09:49:41.000Z</time>
      </trkpt>
      <trkpt lat="46.59753" lon="5.63333">
        <ele>522</ele>
        <time>2020-09-12T09:49:43.000Z</time>
      </trkpt>
      <trkpt lat="46.59755" lon="5.63306">
        <ele>521.40002441406</ele>
        <time>2020-09-12T09:49:45.000Z</time>
      </trkpt>
      <trkpt lat="46.59756" lon="5.63279">
        <ele>521.20001220703</ele>
        <time>2020-09-12T09:49:47.000Z</time>
      </trkpt>
      <trkpt lat="46.59755" lon="5.63265">
        <ele>520.79998779297</ele>
        <time>2020-09-12T09:49:48.000Z</time>
      </trkpt>
      <trkpt lat="46.59754" lon="5.63252">
        <ele>520.59997558594</ele>
        <time>2020-09-12T09:49:49.000Z</time>
      </trkpt>
      <trkpt lat="46.59752" lon="5.63225">
        <ele>520</ele>
        <time>2020-09-12T09:49:51.000Z</time>
      </trkpt>
      <trkpt lat="46.59751" lon="5.63212">
        <ele>519.59997558594</ele>
        <time>2020-09-12T09:49:52.000Z</time>
      </trkpt>
      <trkpt lat="46.5975" lon="5.63199">
        <ele>519.20001220703</ele>
        <time>2020-09-12T09:49:53.000Z</time>
      </trkpt>
      <trkpt lat="46.59749" lon="5.63174">
        <ele>518.79998779297</ele>
        <time>2020-09-12T09:49:55.000Z</time>
      </trkpt>
      <trkpt lat="46.59748" lon="5.63149">
        <ele>518.79998779297</ele>
        <time>2020-09-12T09:49:57.000Z</time>
      </trkpt>
      <trkpt lat="46.59748" lon="5.63125">
        <ele>518.79998779297</ele>
        <time>2020-09-12T09:49:59.000Z</time>
      </trkpt>
      <trkpt lat="46.5975" lon="5.63104">
        <ele>518.79998779297</ele>
        <time>2020-09-12T09:50:01.000Z</time>
      </trkpt>
      <trkpt lat="46.59751" lon="5.63083">
        <ele>519</ele>
        <time>2020-09-12T09:50:03.000Z</time>
      </trkpt>
      <trkpt lat="46.59752" lon="5.63062">
        <ele>519.20001220703</ele>
        <time>2020-09-12T09:50:05.000Z</time>
      </trkpt>
      <trkpt lat="46.59751" lon="5.63052">
        <ele>519.20001220703</ele>
        <time>2020-09-12T09:50:06.000Z</time>
      </trkpt>
      <trkpt lat="46.59748" lon="5.63043">
        <ele>519.20001220703</ele>
        <time>2020-09-12T09:50:07.000Z</time>
      </trkpt>
      <trkpt lat="46.59738" lon="5.63031">
        <ele>519.20001220703</ele>
        <time>2020-09-12T09:50:09.000Z</time>
      </trkpt>
      <trkpt lat="46.59723" lon="5.63029">
        <ele>519.20001220703</ele>
        <time>2020-09-12T09:50:11.000Z</time>
      </trkpt>
      <trkpt lat="46.59708" lon="5.63026">
        <ele>519.20001220703</ele>
        <time>2020-09-12T09:50:13.000Z</time>
      </trkpt>
      <trkpt lat="46.59693" lon="5.6302">
        <ele>519.20001220703</ele>
        <time>2020-09-12T09:50:15.000Z</time>
      </trkpt>
      <trkpt lat="46.59679" lon="5.63013">
        <ele>519.20001220703</ele>
        <time>2020-09-12T09:50:17.000Z</time>
      </trkpt>
      <trkpt lat="46.59673" lon="5.63009">
        <ele>519</ele>
        <time>2020-09-12T09:50:18.000Z</time>
      </trkpt>
      <trkpt lat="46.59667" lon="5.63003">
        <ele>519</ele>
        <time>2020-09-12T09:50:19.000Z</time>
      </trkpt>
      <trkpt lat="46.59659" lon="5.62989">
        <ele>518.79998779297</ele>
        <time>2020-09-12T09:50:21.000Z</time>
      </trkpt>
      <trkpt lat="46.59655" lon="5.62982">
        <ele>518.79998779297</ele>
        <time>2020-09-12T09:50:22.000Z</time>
      </trkpt>
      <trkpt lat="46.59651" lon="5.62975">
        <ele>518.79998779297</ele>
        <time>2020-09-12T09:50:23.000Z</time>
      </trkpt>
      <trkpt lat="46.59647" lon="5.62969">
        <ele>518.79998779297</ele>
        <time>2020-09-12T09:50:24.000Z</time>
      </trkpt>
      <trkpt lat="46.59643" lon="5.62963">
        <ele>518.79998779297</ele>
        <time>2020-09-12T09:50:25.000Z</time>
      </trkpt>
      <trkpt lat="46.59636" lon="5.62951">
        <ele>518.79998779297</ele>
        <time>2020-09-12T09:50:27.000Z</time>
      </trkpt>
      <trkpt lat="46.59633" lon="5.62942">
        <ele>518.79998779297</ele>
        <time>2020-09-12T09:50:29.000Z</time>
      </trkpt>
      <trkpt lat="46.59633" lon="5.62939">
        <ele>519</ele>
        <time>2020-09-12T09:50:30.000Z</time>
      </trkpt>
      <trkpt lat="46.59633" lon="5.62937">
        <ele>519</ele>
        <time>2020-09-12T09:50:31.000Z</time>
      </trkpt>
      <trkpt lat="46.59632" lon="5.62935">
        <ele>519</ele>
        <time>2020-09-12T09:50:32.000Z</time>
      </trkpt>
      <trkpt lat="46.59631" lon="5.62932">
        <ele>519.20001220703</ele>
        <time>2020-09-12T09:50:33.000Z</time>
      </trkpt>
      <trkpt lat="46.59629" lon="5.6293">
        <ele>519.59997558594</ele>
        <time>2020-09-12T09:50:34.000Z</time>
      </trkpt>
      <trkpt lat="46.59626" lon="5.6293">
        <ele>519.79998779297</ele>
        <time>2020-09-12T09:50:35.000Z</time>
      </trkpt>
      <trkpt lat="46.59621" lon="5.62931">
        <ele>519.79998779297</ele>
        <time>2020-09-12T09:50:36.000Z</time>
      </trkpt>
      <trkpt lat="46.59616" lon="5.62932">
        <ele>520</ele>
        <time>2020-09-12T09:50:37.000Z</time>
      </trkpt>
      <trkpt lat="46.59604" lon="5.62935">
        <ele>520.20001220703</ele>
        <time>2020-09-12T09:50:39.000Z</time>
      </trkpt>
      <trkpt lat="46.59598" lon="5.62936">
        <ele>520.20001220703</ele>
        <time>2020-09-12T09:50:40.000Z</time>
      </trkpt>
      <trkpt lat="46.59592" lon="5.62937">
        <ele>520.20001220703</ele>
        <time>2020-09-12T09:50:41.000Z</time>
      </trkpt>
      <trkpt lat="46.59585" lon="5.62938">
        <ele>520.20001220703</ele>
        <time>2020-09-12T09:50:42.000Z</time>
      </trkpt>
      <trkpt lat="46.59578" lon="5.62939">
        <ele>520.20001220703</ele>
        <time>2020-09-12T09:50:43.000Z</time>
      </trkpt>
      <trkpt lat="46.59564" lon="5.62942">
        <ele>520.20001220703</ele>
        <time>2020-09-12T09:50:45.000Z</time>
      </trkpt>
      <trkpt lat="46.5955" lon="5.62945">
        <ele>520</ele>
        <time>2020-09-12T09:50:47.000Z</time>
      </trkpt>
      <trkpt lat="46.59536" lon="5.62948">
        <ele>520</ele>
        <time>2020-09-12T09:50:49.000Z</time>
      </trkpt>
      <trkpt lat="46.5953" lon="5.62949">
        <ele>520</ele>
        <time>2020-09-12T09:50:50.000Z</time>
      </trkpt>
      <trkpt lat="46.59523" lon="5.62951">
        <ele>520</ele>
        <time>2020-09-12T09:50:51.000Z</time>
      </trkpt>
      <trkpt lat="46.59509" lon="5.62953">
        <ele>520</ele>
        <time>2020-09-12T09:50:53.000Z</time>
      </trkpt>
      <trkpt lat="46.59495" lon="5.62955">
        <ele>520</ele>
        <time>2020-09-12T09:50:55.000Z</time>
      </trkpt>
      <trkpt lat="46.59481" lon="5.62957">
        <ele>520</ele>
        <time>2020-09-12T09:50:57.000Z</time>
      </trkpt>
      <trkpt lat="46.59467" lon="5.6296">
        <ele>520.20001220703</ele>
        <time>2020-09-12T09:50:59.000Z</time>
      </trkpt>
      <trkpt lat="46.59452" lon="5.62963">
        <ele>520.40002441406</ele>
        <time>2020-09-12T09:51:01.000Z</time>
      </trkpt>
      <trkpt lat="46.59445" lon="5.62964">
        <ele>520.59997558594</ele>
        <time>2020-09-12T09:51:02.000Z</time>
      </trkpt>
      <trkpt lat="46.59438" lon="5.62965">
        <ele>520.79998779297</ele>
        <time>2020-09-12T09:51:03.000Z</time>
      </trkpt>
      <trkpt lat="46.59424" lon="5.62968">
        <ele>521</ele>
        <time>2020-09-12T09:51:05.000Z</time>
      </trkpt>
      <trkpt lat="46.5941" lon="5.6297">
        <ele>521.20001220703</ele>
        <time>2020-09-12T09:51:07.000Z</time>
      </trkpt>
      <trkpt lat="46.59403" lon="5.62971">
        <ele>521.20001220703</ele>
        <time>2020-09-12T09:51:08.000Z</time>
      </trkpt>
      <trkpt lat="46.59396" lon="5.62972">
        <ele>521.20001220703</ele>
        <time>2020-09-12T09:51:09.000Z</time>
      </trkpt>
      <trkpt lat="46.59381" lon="5.62974">
        <ele>521.40002441406</ele>
        <time>2020-09-12T09:51:11.000Z</time>
      </trkpt>
      <trkpt lat="46.59367" lon="5.62977">
        <ele>521.59997558594</ele>
        <time>2020-09-12T09:51:13.000Z</time>
      </trkpt>
      <trkpt lat="46.59359" lon="5.62979">
        <ele>521.59997558594</ele>
        <time>2020-09-12T09:51:14.000Z</time>
      </trkpt>
      <trkpt lat="46.59352" lon="5.62981">
        <ele>521.59997558594</ele>
        <time>2020-09-12T09:51:15.000Z</time>
      </trkpt>
      <trkpt lat="46.59337" lon="5.62984">
        <ele>521.79998779297</ele>
        <time>2020-09-12T09:51:17.000Z</time>
      </trkpt>
      <trkpt lat="46.59322" lon="5.62986">
        <ele>521.79998779297</ele>
        <time>2020-09-12T09:51:19.000Z</time>
      </trkpt>
      <trkpt lat="46.59306" lon="5.62988">
        <ele>521.79998779297</ele>
        <time>2020-09-12T09:51:21.000Z</time>
      </trkpt>
      <trkpt lat="46.59289" lon="5.6299">
        <ele>521.79998779297</ele>
        <time>2020-09-12T09:51:23.000Z</time>
      </trkpt>
      <trkpt lat="46.59273" lon="5.62991">
        <ele>521.79998779297</ele>
        <time>2020-09-12T09:51:25.000Z</time>
      </trkpt>
      <trkpt lat="46.59264" lon="5.62992">
        <ele>521.79998779297</ele>
        <time>2020-09-12T09:51:26.000Z</time>
      </trkpt>
      <trkpt lat="46.59256" lon="5.62992">
        <ele>521.79998779297</ele>
        <time>2020-09-12T09:51:27.000Z</time>
      </trkpt>
      <trkpt lat="46.59238" lon="5.62991">
        <ele>521.40002441406</ele>
        <time>2020-09-12T09:51:29.000Z</time>
      </trkpt>
      <trkpt lat="46.5922" lon="5.6299">
        <ele>521.20001220703</ele>
        <time>2020-09-12T09:51:31.000Z</time>
      </trkpt>
      <trkpt lat="46.59202" lon="5.62987">
        <ele>521</ele>
        <time>2020-09-12T09:51:33.000Z</time>
      </trkpt>
      <trkpt lat="46.59183" lon="5.62984">
        <ele>521</ele>
        <time>2020-09-12T09:51:35.000Z</time>
      </trkpt>
      <trkpt lat="46.59164" lon="5.62981">
        <ele>520.79998779297</ele>
        <time>2020-09-12T09:51:37.000Z</time>
      </trkpt>
      <trkpt lat="46.59145" lon="5.62979">
        <ele>520.59997558594</ele>
        <time>2020-09-12T09:51:39.000Z</time>
      </trkpt>
      <trkpt lat="46.59135" lon="5.62977">
        <ele>520.59997558594</ele>
        <time>2020-09-12T09:51:40.000Z</time>
      </trkpt>
      <trkpt lat="46.59126" lon="5.62976">
        <ele>520.40002441406</ele>
        <time>2020-09-12T09:51:41.000Z</time>
      </trkpt>
      <trkpt lat="46.59116" lon="5.62975">
        <ele>520.20001220703</ele>
        <time>2020-09-12T09:51:42.000Z</time>
      </trkpt>
      <trkpt lat="46.59107" lon="5.62974">
        <ele>520.20001220703</ele>
        <time>2020-09-12T09:51:43.000Z</time>
      </trkpt>
      <trkpt lat="46.59087" lon="5.62971">
        <ele>520</ele>
        <time>2020-09-12T09:51:45.000Z</time>
      </trkpt>
      <trkpt lat="46.59068" lon="5.62968">
        <ele>519.59997558594</ele>
        <time>2020-09-12T09:51:47.000Z</time>
      </trkpt>
      <trkpt lat="46.59058" lon="5.62966">
        <ele>519.40002441406</ele>
        <time>2020-09-12T09:51:48.000Z</time>
      </trkpt>
      <trkpt lat="46.59049" lon="5.62965">
        <ele>519.20001220703</ele>
        <time>2020-09-12T09:51:49.000Z</time>
      </trkpt>
      <trkpt lat="46.59039" lon="5.62964">
        <ele>519.20001220703</ele>
        <time>2020-09-12T09:51:50.000Z</time>
      </trkpt>
      <trkpt lat="46.59029" lon="5.62962">
        <ele>518.79998779297</ele>
        <time>2020-09-12T09:51:51.000Z</time>
      </trkpt>
      <trkpt lat="46.5901" lon="5.6296">
        <ele>518.40002441406</ele>
        <time>2020-09-12T09:51:53.000Z</time>
      </trkpt>
      <trkpt lat="46.59" lon="5.62958">
        <ele>518.40002441406</ele>
        <time>2020-09-12T09:51:54.000Z</time>
      </trkpt>
      <trkpt lat="46.5899" lon="5.62957">
        <ele>518.40002441406</ele>
        <time>2020-09-12T09:51:55.000Z</time>
      </trkpt>
      <trkpt lat="46.58971" lon="5.62954">
        <ele>518.20001220703</ele>
        <time>2020-09-12T09:51:57.000Z</time>
      </trkpt>
      <trkpt lat="46.58952" lon="5.62952">
        <ele>518.20001220703</ele>
        <time>2020-09-12T09:51:59.000Z</time>
      </trkpt>
      <trkpt lat="46.58933" lon="5.62949">
        <ele>518</ele>
        <time>2020-09-12T09:52:01.000Z</time>
      </trkpt>
      <trkpt lat="46.58923" lon="5.62948">
        <ele>518</ele>
        <time>2020-09-12T09:52:02.000Z</time>
      </trkpt>
      <trkpt lat="46.58914" lon="5.62946">
        <ele>518</ele>
        <time>2020-09-12T09:52:03.000Z</time>
      </trkpt>
      <trkpt lat="46.58895" lon="5.62944">
        <ele>517.79998779297</ele>
        <time>2020-09-12T09:52:05.000Z</time>
      </trkpt>
      <trkpt lat="46.58876" lon="5.62941">
        <ele>517.79998779297</ele>
        <time>2020-09-12T09:52:07.000Z</time>
      </trkpt>
      <trkpt lat="46.58857" lon="5.62938">
        <ele>517.79998779297</ele>
        <time>2020-09-12T09:52:09.000Z</time>
      </trkpt>
      <trkpt lat="46.58838" lon="5.62936">
        <ele>517.79998779297</ele>
        <time>2020-09-12T09:52:11.000Z</time>
      </trkpt>
      <trkpt lat="46.58819" lon="5.62933">
        <ele>517.59997558594</ele>
        <time>2020-09-12T09:52:13.000Z</time>
      </trkpt>
      <trkpt lat="46.58801" lon="5.6293">
        <ele>517.59997558594</ele>
        <time>2020-09-12T09:52:15.000Z</time>
      </trkpt>
      <trkpt lat="46.58792" lon="5.62929">
        <ele>517.59997558594</ele>
        <time>2020-09-12T09:52:16.000Z</time>
      </trkpt>
      <trkpt lat="46.58782" lon="5.62928">
        <ele>517.59997558594</ele>
        <time>2020-09-12T09:52:17.000Z</time>
      </trkpt>
      <trkpt lat="46.58764" lon="5.62925">
        <ele>517.59997558594</ele>
        <time>2020-09-12T09:52:19.000Z</time>
      </trkpt>
      <trkpt lat="46.58746" lon="5.62921">
        <ele>517.59997558594</ele>
        <time>2020-09-12T09:52:21.000Z</time>
      </trkpt>
      <trkpt lat="46.58727" lon="5.62917">
        <ele>517.59997558594</ele>
        <time>2020-09-12T09:52:23.000Z</time>
      </trkpt>
      <trkpt lat="46.58709" lon="5.62912">
        <ele>517.59997558594</ele>
        <time>2020-09-12T09:52:25.000Z</time>
      </trkpt>
      <trkpt lat="46.5869" lon="5.62907">
        <ele>517.59997558594</ele>
        <time>2020-09-12T09:52:27.000Z</time>
      </trkpt>
      <trkpt lat="46.58671" lon="5.62901">
        <ele>517.40002441406</ele>
        <time>2020-09-12T09:52:29.000Z</time>
      </trkpt>
      <trkpt lat="46.58653" lon="5.62896">
        <ele>517.40002441406</ele>
        <time>2020-09-12T09:52:31.000Z</time>
      </trkpt>
      <trkpt lat="46.58634" lon="5.6289">
        <ele>517.20001220703</ele>
        <time>2020-09-12T09:52:33.000Z</time>
      </trkpt>
      <trkpt lat="46.58615" lon="5.62885">
        <ele>516.59997558594</ele>
        <time>2020-09-12T09:52:35.000Z</time>
      </trkpt>
      <trkpt lat="46.58605" lon="5.62882">
        <ele>516.20001220703</ele>
        <time>2020-09-12T09:52:36.000Z</time>
      </trkpt>
      <trkpt lat="46.58595" lon="5.6288">
        <ele>515.79998779297</ele>
        <time>2020-09-12T09:52:37.000Z</time>
      </trkpt>
      <trkpt lat="46.58576" lon="5.62877">
        <ele>515.40002441406</ele>
        <time>2020-09-12T09:52:39.000Z</time>
      </trkpt>
      <trkpt lat="46.58566" lon="5.62876">
        <ele>515.20001220703</ele>
        <time>2020-09-12T09:52:40.000Z</time>
      </trkpt>
      <trkpt lat="46.58555" lon="5.62877">
        <ele>515</ele>
        <time>2020-09-12T09:52:41.000Z</time>
      </trkpt>
      <trkpt lat="46.58545" lon="5.62878">
        <ele>514.79998779297</ele>
        <time>2020-09-12T09:52:42.000Z</time>
      </trkpt>
      <trkpt lat="46.58535" lon="5.62881">
        <ele>514.79998779297</ele>
        <time>2020-09-12T09:52:43.000Z</time>
      </trkpt>
      <trkpt lat="46.58515" lon="5.62889">
        <ele>514.59997558594</ele>
        <time>2020-09-12T09:52:45.000Z</time>
      </trkpt>
      <trkpt lat="46.58505" lon="5.62895">
        <ele>514.40002441406</ele>
        <time>2020-09-12T09:52:46.000Z</time>
      </trkpt>
      <trkpt lat="46.58495" lon="5.629">
        <ele>514.20001220703</ele>
        <time>2020-09-12T09:52:47.000Z</time>
      </trkpt>
      <trkpt lat="46.58474" lon="5.62909">
        <ele>514</ele>
        <time>2020-09-12T09:52:49.000Z</time>
      </trkpt>
      <trkpt lat="46.58454" lon="5.6292">
        <ele>513.40002441406</ele>
        <time>2020-09-12T09:52:51.000Z</time>
      </trkpt>
      <trkpt lat="46.58433" lon="5.6293">
        <ele>512.59997558594</ele>
        <time>2020-09-12T09:52:53.000Z</time>
      </trkpt>
      <trkpt lat="46.58423" lon="5.62935">
        <ele>512.20001220703</ele>
        <time>2020-09-12T09:52:54.000Z</time>
      </trkpt>
      <trkpt lat="46.58413" lon="5.6294">
        <ele>511.60000610352</ele>
        <time>2020-09-12T09:52:55.000Z</time>
      </trkpt>
      <trkpt lat="46.58403" lon="5.62945">
        <ele>511</ele>
        <time>2020-09-12T09:52:56.000Z</time>
      </trkpt>
      <trkpt lat="46.58393" lon="5.6295">
        <ele>510.39999389648</ele>
        <time>2020-09-12T09:52:57.000Z</time>
      </trkpt>
      <trkpt lat="46.58373" lon="5.6296">
        <ele>510</ele>
        <time>2020-09-12T09:52:59.000Z</time>
      </trkpt>
      <trkpt lat="46.58353" lon="5.6297">
        <ele>509.60000610352</ele>
        <time>2020-09-12T09:53:01.000Z</time>
      </trkpt>
      <trkpt lat="46.58343" lon="5.62974">
        <ele>509.60000610352</ele>
        <time>2020-09-12T09:53:02.000Z</time>
      </trkpt>
      <trkpt lat="46.58334" lon="5.62979">
        <ele>509.39999389648</ele>
        <time>2020-09-12T09:53:03.000Z</time>
      </trkpt>
      <trkpt lat="46.58314" lon="5.62989">
        <ele>509.20001220703</ele>
        <time>2020-09-12T09:53:05.000Z</time>
      </trkpt>
      <trkpt lat="46.58295" lon="5.62998">
        <ele>509</ele>
        <time>2020-09-12T09:53:07.000Z</time>
      </trkpt>
      <trkpt lat="46.58275" lon="5.63008">
        <ele>508.79998779297</ele>
        <time>2020-09-12T09:53:09.000Z</time>
      </trkpt>
      <trkpt lat="46.58255" lon="5.63018">
        <ele>508.60000610352</ele>
        <time>2020-09-12T09:53:11.000Z</time>
      </trkpt>
      <trkpt lat="46.58236" lon="5.63027">
        <ele>508.60000610352</ele>
        <time>2020-09-12T09:53:13.000Z</time>
      </trkpt>
      <trkpt lat="46.58226" lon="5.63032">
        <ele>508.60000610352</ele>
        <time>2020-09-12T09:53:14.000Z</time>
      </trkpt>
      <trkpt lat="46.58216" lon="5.63036">
        <ele>508.39999389648</ele>
        <time>2020-09-12T09:53:15.000Z</time>
      </trkpt>
      <trkpt lat="46.58195" lon="5.6304">
        <ele>508.20001220703</ele>
        <time>2020-09-12T09:53:17.000Z</time>
      </trkpt>
      <trkpt lat="46.58185" lon="5.6304">
        <ele>508</ele>
        <time>2020-09-12T09:53:18.000Z</time>
      </trkpt>
      <trkpt lat="46.58174" lon="5.63039">
        <ele>507.79998779297</ele>
        <time>2020-09-12T09:53:19.000Z</time>
      </trkpt>
      <trkpt lat="46.58153" lon="5.63032">
        <ele>507.39999389648</ele>
        <time>2020-09-12T09:53:21.000Z</time>
      </trkpt>
      <trkpt lat="46.58133" lon="5.63018">
        <ele>507</ele>
        <time>2020-09-12T09:53:23.000Z</time>
      </trkpt>
      <trkpt lat="46.58115" lon="5.63">
        <ele>506.20001220703</ele>
        <time>2020-09-12T09:53:25.000Z</time>
      </trkpt>
      <trkpt lat="46.58107" lon="5.6299">
        <ele>505.60000610352</ele>
        <time>2020-09-12T09:53:26.000Z</time>
      </trkpt>
      <trkpt lat="46.58098" lon="5.62979">
        <ele>505</ele>
        <time>2020-09-12T09:53:27.000Z</time>
      </trkpt>
      <trkpt lat="46.58081" lon="5.62958">
        <ele>504.60000610352</ele>
        <time>2020-09-12T09:53:29.000Z</time>
      </trkpt>
      <trkpt lat="46.58064" lon="5.62938">
        <ele>504.20001220703</ele>
        <time>2020-09-12T09:53:31.000Z</time>
      </trkpt>
      <trkpt lat="46.58046" lon="5.62918">
        <ele>504</ele>
        <time>2020-09-12T09:53:33.000Z</time>
      </trkpt>
      <trkpt lat="46.58037" lon="5.62909">
        <ele>504</ele>
        <time>2020-09-12T09:53:34.000Z</time>
      </trkpt>
      <trkpt lat="46.58027" lon="5.62901">
        <ele>504</ele>
        <time>2020-09-12T09:53:35.000Z</time>
      </trkpt>
      <trkpt lat="46.58008" lon="5.62886">
        <ele>503.60000610352</ele>
        <time>2020-09-12T09:53:37.000Z</time>
      </trkpt>
      <trkpt lat="46.57998" lon="5.62878">
        <ele>503.39999389648</ele>
        <time>2020-09-12T09:53:38.000Z</time>
      </trkpt>
      <trkpt lat="46.57988" lon="5.62871">
        <ele>503</ele>
        <time>2020-09-12T09:53:39.000Z</time>
      </trkpt>
      <trkpt lat="46.57978" lon="5.62865">
        <ele>502.60000610352</ele>
        <time>2020-09-12T09:53:40.000Z</time>
      </trkpt>
      <trkpt lat="46.57968" lon="5.62859">
        <ele>502.20001220703</ele>
        <time>2020-09-12T09:53:41.000Z</time>
      </trkpt>
      <trkpt lat="46.57947" lon="5.62849">
        <ele>501.39999389648</ele>
        <time>2020-09-12T09:53:43.000Z</time>
      </trkpt>
      <trkpt lat="46.57926" lon="5.62842">
        <ele>500.60000610352</ele>
        <time>2020-09-12T09:53:45.000Z</time>
      </trkpt>
      <trkpt lat="46.57905" lon="5.62835">
        <ele>500.39999389648</ele>
        <time>2020-09-12T09:53:47.000Z</time>
      </trkpt>
      <trkpt lat="46.57884" lon="5.62829">
        <ele>499.79998779297</ele>
        <time>2020-09-12T09:53:49.000Z</time>
      </trkpt>
      <trkpt lat="46.57863" lon="5.62823">
        <ele>499</ele>
        <time>2020-09-12T09:53:51.000Z</time>
      </trkpt>
      <trkpt lat="46.57841" lon="5.62818">
        <ele>498.60000610352</ele>
        <time>2020-09-12T09:53:53.000Z</time>
      </trkpt>
      <trkpt lat="46.5782" lon="5.62811">
        <ele>498.60000610352</ele>
        <time>2020-09-12T09:53:55.000Z</time>
      </trkpt>
      <trkpt lat="46.57798" lon="5.62805">
        <ele>498.20001220703</ele>
        <time>2020-09-12T09:53:57.000Z</time>
      </trkpt>
      <trkpt lat="46.57777" lon="5.62797">
        <ele>498</ele>
        <time>2020-09-12T09:53:59.000Z</time>
      </trkpt>
      <trkpt lat="46.57766" lon="5.62793">
        <ele>498</ele>
        <time>2020-09-12T09:54:00.000Z</time>
      </trkpt>
      <trkpt lat="46.57755" lon="5.62788">
        <ele>497.79998779297</ele>
        <time>2020-09-12T09:54:01.000Z</time>
      </trkpt>
      <trkpt lat="46.57734" lon="5.62778">
        <ele>497.39999389648</ele>
        <time>2020-09-12T09:54:03.000Z</time>
      </trkpt>
      <trkpt lat="46.57713" lon="5.62767">
        <ele>497.20001220703</ele>
        <time>2020-09-12T09:54:05.000Z</time>
      </trkpt>
      <trkpt lat="46.57702" lon="5.62762">
        <ele>497</ele>
        <time>2020-09-12T09:54:06.000Z</time>
      </trkpt>
      <trkpt lat="46.57692" lon="5.62757">
        <ele>496.60000610352</ele>
        <time>2020-09-12T09:54:07.000Z</time>
      </trkpt>
      <trkpt lat="46.5767" lon="5.62748">
        <ele>495.79998779297</ele>
        <time>2020-09-12T09:54:09.000Z</time>
      </trkpt>
      <trkpt lat="46.57648" lon="5.62736">
        <ele>495.39999389648</ele>
        <time>2020-09-12T09:54:11.000Z</time>
      </trkpt>
      <trkpt lat="46.57627" lon="5.62724">
        <ele>495.20001220703</ele>
        <time>2020-09-12T09:54:13.000Z</time>
      </trkpt>
      <trkpt lat="46.57605" lon="5.62713">
        <ele>494.39999389648</ele>
        <time>2020-09-12T09:54:15.000Z</time>
      </trkpt>
      <trkpt lat="46.57583" lon="5.62701">
        <ele>493.60000610352</ele>
        <time>2020-09-12T09:54:17.000Z</time>
      </trkpt>
      <trkpt lat="46.57561" lon="5.62687">
        <ele>493.20001220703</ele>
        <time>2020-09-12T09:54:19.000Z</time>
      </trkpt>
      <trkpt lat="46.57551" lon="5.62679">
        <ele>492.79998779297</ele>
        <time>2020-09-12T09:54:20.000Z</time>
      </trkpt>
      <trkpt lat="46.57541" lon="5.6267">
        <ele>492.60000610352</ele>
        <time>2020-09-12T09:54:21.000Z</time>
      </trkpt>
      <trkpt lat="46.57521" lon="5.62652">
        <ele>492.20001220703</ele>
        <time>2020-09-12T09:54:23.000Z</time>
      </trkpt>
      <trkpt lat="46.57512" lon="5.62643">
        <ele>492.20001220703</ele>
        <time>2020-09-12T09:54:24.000Z</time>
      </trkpt>
      <trkpt lat="46.57502" lon="5.62635">
        <ele>492</ele>
        <time>2020-09-12T09:54:25.000Z</time>
      </trkpt>
      <trkpt lat="46.57483" lon="5.62617">
        <ele>491.20001220703</ele>
        <time>2020-09-12T09:54:27.000Z</time>
      </trkpt>
      <trkpt lat="46.57474" lon="5.62609">
        <ele>490.60000610352</ele>
        <time>2020-09-12T09:54:28.000Z</time>
      </trkpt>
      <trkpt lat="46.57465" lon="5.626">
        <ele>490.20001220703</ele>
        <time>2020-09-12T09:54:29.000Z</time>
      </trkpt>
      <trkpt lat="46.57447" lon="5.62583">
        <ele>489.79998779297</ele>
        <time>2020-09-12T09:54:31.000Z</time>
      </trkpt>
      <trkpt lat="46.57429" lon="5.62566">
        <ele>489.60000610352</ele>
        <time>2020-09-12T09:54:33.000Z</time>
      </trkpt>
      <trkpt lat="46.57411" lon="5.62551">
        <ele>489.60000610352</ele>
        <time>2020-09-12T09:54:35.000Z</time>
      </trkpt>
      <trkpt lat="46.57402" lon="5.62544">
        <ele>489.39999389648</ele>
        <time>2020-09-12T09:54:36.000Z</time>
      </trkpt>
      <trkpt lat="46.57393" lon="5.62537">
        <ele>489.39999389648</ele>
        <time>2020-09-12T09:54:37.000Z</time>
      </trkpt>
      <trkpt lat="46.57374" lon="5.62527">
        <ele>489.20001220703</ele>
        <time>2020-09-12T09:54:39.000Z</time>
      </trkpt>
      <trkpt lat="46.57365" lon="5.62523">
        <ele>489.20001220703</ele>
        <time>2020-09-12T09:54:40.000Z</time>
      </trkpt>
      <trkpt lat="46.57355" lon="5.6252">
        <ele>489.20001220703</ele>
        <time>2020-09-12T09:54:41.000Z</time>
      </trkpt>
      <trkpt lat="46.57337" lon="5.62514">
        <ele>489.20001220703</ele>
        <time>2020-09-12T09:54:43.000Z</time>
      </trkpt>
      <trkpt lat="46.57318" lon="5.62508">
        <ele>489.20001220703</ele>
        <time>2020-09-12T09:54:45.000Z</time>
      </trkpt>
      <trkpt lat="46.573" lon="5.62503">
        <ele>489.20001220703</ele>
        <time>2020-09-12T09:54:47.000Z</time>
      </trkpt>
      <trkpt lat="46.57282" lon="5.62498">
        <ele>489.60000610352</ele>
        <time>2020-09-12T09:54:49.000Z</time>
      </trkpt>
      <trkpt lat="46.57264" lon="5.62492">
        <ele>490</ele>
        <time>2020-09-12T09:54:51.000Z</time>
      </trkpt>
      <trkpt lat="46.57246" lon="5.62488">
        <ele>490.20001220703</ele>
        <time>2020-09-12T09:54:53.000Z</time>
      </trkpt>
      <trkpt lat="46.57229" lon="5.62485">
        <ele>490.39999389648</ele>
        <time>2020-09-12T09:54:55.000Z</time>
      </trkpt>
      <trkpt lat="46.57211" lon="5.62486">
        <ele>490.60000610352</ele>
        <time>2020-09-12T09:54:57.000Z</time>
      </trkpt>
      <trkpt lat="46.57194" lon="5.62488">
        <ele>490.79998779297</ele>
        <time>2020-09-12T09:54:59.000Z</time>
      </trkpt>
      <trkpt lat="46.57177" lon="5.62491">
        <ele>490.60000610352</ele>
        <time>2020-09-12T09:55:01.000Z</time>
      </trkpt>
      <trkpt lat="46.5716" lon="5.62494">
        <ele>490.79998779297</ele>
        <time>2020-09-12T09:55:03.000Z</time>
      </trkpt>
      <trkpt lat="46.57151" lon="5.62494">
        <ele>491</ele>
        <time>2020-09-12T09:55:04.000Z</time>
      </trkpt>
      <trkpt lat="46.57143" lon="5.62492">
        <ele>491</ele>
        <time>2020-09-12T09:55:05.000Z</time>
      </trkpt>
      <trkpt lat="46.57134" lon="5.6249">
        <ele>491</ele>
        <time>2020-09-12T09:55:06.000Z</time>
      </trkpt>
      <trkpt lat="46.57126" lon="5.62487">
        <ele>491.20001220703</ele>
        <time>2020-09-12T09:55:07.000Z</time>
      </trkpt>
      <trkpt lat="46.5711" lon="5.62477">
        <ele>491.20001220703</ele>
        <time>2020-09-12T09:55:09.000Z</time>
      </trkpt>
      <trkpt lat="46.57102" lon="5.62471">
        <ele>491.20001220703</ele>
        <time>2020-09-12T09:55:10.000Z</time>
      </trkpt>
      <trkpt lat="46.57095" lon="5.62465">
        <ele>491.39999389648</ele>
        <time>2020-09-12T09:55:11.000Z</time>
      </trkpt>
      <trkpt lat="46.5708" lon="5.62452">
        <ele>491.39999389648</ele>
        <time>2020-09-12T09:55:13.000Z</time>
      </trkpt>
      <trkpt lat="46.57066" lon="5.62439">
        <ele>491.39999389648</ele>
        <time>2020-09-12T09:55:15.000Z</time>
      </trkpt>
      <trkpt lat="46.57059" lon="5.62432">
        <ele>491.39999389648</ele>
        <time>2020-09-12T09:55:16.000Z</time>
      </trkpt>
      <trkpt lat="46.57052" lon="5.62425">
        <ele>491.39999389648</ele>
        <time>2020-09-12T09:55:17.000Z</time>
      </trkpt>
      <trkpt lat="46.57045" lon="5.62418">
        <ele>491.39999389648</ele>
        <time>2020-09-12T09:55:18.000Z</time>
      </trkpt>
      <trkpt lat="46.57038" lon="5.62411">
        <ele>491.39999389648</ele>
        <time>2020-09-12T09:55:19.000Z</time>
      </trkpt>
      <trkpt lat="46.57024" lon="5.62398">
        <ele>491.39999389648</ele>
        <time>2020-09-12T09:55:21.000Z</time>
      </trkpt>
      <trkpt lat="46.5701" lon="5.62385">
        <ele>491.39999389648</ele>
        <time>2020-09-12T09:55:23.000Z</time>
      </trkpt>
      <trkpt lat="46.56996" lon="5.62373">
        <ele>491.39999389648</ele>
        <time>2020-09-12T09:55:25.000Z</time>
      </trkpt>
      <trkpt lat="46.5699" lon="5.62367">
        <ele>491.39999389648</ele>
        <time>2020-09-12T09:55:26.000Z</time>
      </trkpt>
      <trkpt lat="46.56983" lon="5.6236">
        <ele>491.39999389648</ele>
        <time>2020-09-12T09:55:27.000Z</time>
      </trkpt>
      <trkpt lat="46.56971" lon="5.62347">
        <ele>491.39999389648</ele>
        <time>2020-09-12T09:55:29.000Z</time>
      </trkpt>
      <trkpt lat="46.56957" lon="5.62335">
        <ele>491.60000610352</ele>
        <time>2020-09-12T09:55:31.000Z</time>
      </trkpt>
      <trkpt lat="46.56944" lon="5.62321">
        <ele>491.39999389648</ele>
        <time>2020-09-12T09:55:33.000Z</time>
      </trkpt>
      <trkpt lat="46.56929" lon="5.62308">
        <ele>491.39999389648</ele>
        <time>2020-09-12T09:55:35.000Z</time>
      </trkpt>
      <trkpt lat="46.56915" lon="5.62295">
        <ele>491.39999389648</ele>
        <time>2020-09-12T09:55:37.000Z</time>
      </trkpt>
      <trkpt lat="46.569" lon="5.62281">
        <ele>491.39999389648</ele>
        <time>2020-09-12T09:55:39.000Z</time>
      </trkpt>
      <trkpt lat="46.56886" lon="5.62267">
        <ele>491.39999389648</ele>
        <time>2020-09-12T09:55:41.000Z</time>
      </trkpt>
      <trkpt lat="46.56879" lon="5.6226">
        <ele>491.20001220703</ele>
        <time>2020-09-12T09:55:42.000Z</time>
      </trkpt>
      <trkpt lat="46.56871" lon="5.62254">
        <ele>491</ele>
        <time>2020-09-12T09:55:43.000Z</time>
      </trkpt>
      <trkpt lat="46.56857" lon="5.6224">
        <ele>490.60000610352</ele>
        <time>2020-09-12T09:55:45.000Z</time>
      </trkpt>
      <trkpt lat="46.56849" lon="5.62233">
        <ele>490.20001220703</ele>
        <time>2020-09-12T09:55:46.000Z</time>
      </trkpt>
      <trkpt lat="46.56842" lon="5.62226">
        <ele>490.20001220703</ele>
        <time>2020-09-12T09:55:47.000Z</time>
      </trkpt>
      <trkpt lat="46.56827" lon="5.62213">
        <ele>490.20001220703</ele>
        <time>2020-09-12T09:55:49.000Z</time>
      </trkpt>
      <trkpt lat="46.56812" lon="5.62199">
        <ele>490</ele>
        <time>2020-09-12T09:55:51.000Z</time>
      </trkpt>
      <trkpt lat="46.56797" lon="5.62185">
        <ele>490</ele>
        <time>2020-09-12T09:55:53.000Z</time>
      </trkpt>
      <trkpt lat="46.56782" lon="5.62171">
        <ele>490</ele>
        <time>2020-09-12T09:55:55.000Z</time>
      </trkpt>
      <trkpt lat="46.56767" lon="5.62156">
        <ele>489.79998779297</ele>
        <time>2020-09-12T09:55:57.000Z</time>
      </trkpt>
      <trkpt lat="46.56751" lon="5.62141">
        <ele>489.79998779297</ele>
        <time>2020-09-12T09:55:59.000Z</time>
      </trkpt>
      <trkpt lat="46.56735" lon="5.62126">
        <ele>489.60000610352</ele>
        <time>2020-09-12T09:56:01.000Z</time>
      </trkpt>
      <trkpt lat="46.56718" lon="5.6211">
        <ele>489</ele>
        <time>2020-09-12T09:56:03.000Z</time>
      </trkpt>
      <trkpt lat="46.56701" lon="5.62094">
        <ele>488.60000610352</ele>
        <time>2020-09-12T09:56:05.000Z</time>
      </trkpt>
      <trkpt lat="46.56685" lon="5.62079">
        <ele>488.39999389648</ele>
        <time>2020-09-12T09:56:07.000Z</time>
      </trkpt>
      <trkpt lat="46.56669" lon="5.62064">
        <ele>488.20001220703</ele>
        <time>2020-09-12T09:56:09.000Z</time>
      </trkpt>
      <trkpt lat="46.56661" lon="5.62056">
        <ele>488</ele>
        <time>2020-09-12T09:56:10.000Z</time>
      </trkpt>
      <trkpt lat="46.56653" lon="5.62049">
        <ele>487.60000610352</ele>
        <time>2020-09-12T09:56:11.000Z</time>
      </trkpt>
      <trkpt lat="46.56638" lon="5.62034">
        <ele>486.79998779297</ele>
        <time>2020-09-12T09:56:13.000Z</time>
      </trkpt>
      <trkpt lat="46.56623" lon="5.62021">
        <ele>486.60000610352</ele>
        <time>2020-09-12T09:56:15.000Z</time>
      </trkpt>
      <trkpt lat="46.56608" lon="5.62007">
        <ele>486.39999389648</ele>
        <time>2020-09-12T09:56:17.000Z</time>
      </trkpt>
      <trkpt lat="46.566" lon="5.62">
        <ele>486.39999389648</ele>
        <time>2020-09-12T09:56:18.000Z</time>
      </trkpt>
      <trkpt lat="46.56593" lon="5.61993">
        <ele>486.39999389648</ele>
        <time>2020-09-12T09:56:19.000Z</time>
      </trkpt>
      <trkpt lat="46.56579" lon="5.6198">
        <ele>486.39999389648</ele>
        <time>2020-09-12T09:56:21.000Z</time>
      </trkpt>
      <trkpt lat="46.56565" lon="5.61967">
        <ele>486.60000610352</ele>
        <time>2020-09-12T09:56:23.000Z</time>
      </trkpt>
      <trkpt lat="46.56551" lon="5.61954">
        <ele>486.79998779297</ele>
        <time>2020-09-12T09:56:25.000Z</time>
      </trkpt>
      <trkpt lat="46.56538" lon="5.61941">
        <ele>486.79998779297</ele>
        <time>2020-09-12T09:56:27.000Z</time>
      </trkpt>
      <trkpt lat="46.56531" lon="5.61934">
        <ele>486.79998779297</ele>
        <time>2020-09-12T09:56:28.000Z</time>
      </trkpt>
      <trkpt lat="46.56524" lon="5.61928">
        <ele>487</ele>
        <time>2020-09-12T09:56:29.000Z</time>
      </trkpt>
      <trkpt lat="46.56509" lon="5.61915">
        <ele>487.39999389648</ele>
        <time>2020-09-12T09:56:31.000Z</time>
      </trkpt>
      <trkpt lat="46.56496" lon="5.61902">
        <ele>487.79998779297</ele>
        <time>2020-09-12T09:56:33.000Z</time>
      </trkpt>
      <trkpt lat="46.56489" lon="5.61896">
        <ele>488</ele>
        <time>2020-09-12T09:56:34.000Z</time>
      </trkpt>
      <trkpt lat="46.56482" lon="5.61889">
        <ele>488.20001220703</ele>
        <time>2020-09-12T09:56:35.000Z</time>
      </trkpt>
      <trkpt lat="46.56468" lon="5.61876">
        <ele>488.60000610352</ele>
        <time>2020-09-12T09:56:37.000Z</time>
      </trkpt>
      <trkpt lat="46.56455" lon="5.61864">
        <ele>488.79998779297</ele>
        <time>2020-09-12T09:56:39.000Z</time>
      </trkpt>
      <trkpt lat="46.56441" lon="5.61851">
        <ele>488.79998779297</ele>
        <time>2020-09-12T09:56:41.000Z</time>
      </trkpt>
      <trkpt lat="46.56428" lon="5.61839">
        <ele>489</ele>
        <time>2020-09-12T09:56:43.000Z</time>
      </trkpt>
      <trkpt lat="46.56414" lon="5.61825">
        <ele>489.20001220703</ele>
        <time>2020-09-12T09:56:45.000Z</time>
      </trkpt>
      <trkpt lat="46.56402" lon="5.6181">
        <ele>489.39999389648</ele>
        <time>2020-09-12T09:56:47.000Z</time>
      </trkpt>
      <trkpt lat="46.56389" lon="5.61795">
        <ele>489.60000610352</ele>
        <time>2020-09-12T09:56:49.000Z</time>
      </trkpt>
      <trkpt lat="46.56377" lon="5.6178">
        <ele>489.79998779297</ele>
        <time>2020-09-12T09:56:51.000Z</time>
      </trkpt>
      <trkpt lat="46.56366" lon="5.61765">
        <ele>489.79998779297</ele>
        <time>2020-09-12T09:56:53.000Z</time>
      </trkpt>
      <trkpt lat="46.56354" lon="5.6175">
        <ele>489.79998779297</ele>
        <time>2020-09-12T09:56:55.000Z</time>
      </trkpt>
      <trkpt lat="46.56342" lon="5.61735">
        <ele>490</ele>
        <time>2020-09-12T09:56:57.000Z</time>
      </trkpt>
      <trkpt lat="46.56331" lon="5.6172">
        <ele>490.20001220703</ele>
        <time>2020-09-12T09:56:59.000Z</time>
      </trkpt>
      <trkpt lat="46.56319" lon="5.61705">
        <ele>490.20001220703</ele>
        <time>2020-09-12T09:57:01.000Z</time>
      </trkpt>
      <trkpt lat="46.56307" lon="5.61691">
        <ele>490.20001220703</ele>
        <time>2020-09-12T09:57:03.000Z</time>
      </trkpt>
      <trkpt lat="46.56302" lon="5.61683">
        <ele>490.39999389648</ele>
        <time>2020-09-12T09:57:04.000Z</time>
      </trkpt>
      <trkpt lat="46.56296" lon="5.61675">
        <ele>490.79998779297</ele>
        <time>2020-09-12T09:57:05.000Z</time>
      </trkpt>
      <trkpt lat="46.5629" lon="5.61668">
        <ele>491</ele>
        <time>2020-09-12T09:57:06.000Z</time>
      </trkpt>
      <trkpt lat="46.56284" lon="5.6166">
        <ele>491</ele>
        <time>2020-09-12T09:57:07.000Z</time>
      </trkpt>
      <trkpt lat="46.56272" lon="5.61645">
        <ele>491.20001220703</ele>
        <time>2020-09-12T09:57:09.000Z</time>
      </trkpt>
      <trkpt lat="46.5626" lon="5.61629">
        <ele>491.39999389648</ele>
        <time>2020-09-12T09:57:11.000Z</time>
      </trkpt>
      <trkpt lat="46.56254" lon="5.61621">
        <ele>491.39999389648</ele>
        <time>2020-09-12T09:57:12.000Z</time>
      </trkpt>
      <trkpt lat="46.56249" lon="5.61613">
        <ele>491.39999389648</ele>
        <time>2020-09-12T09:57:13.000Z</time>
      </trkpt>
      <trkpt lat="46.56238" lon="5.61595">
        <ele>491.39999389648</ele>
        <time>2020-09-12T09:57:15.000Z</time>
      </trkpt>
      <trkpt lat="46.56228" lon="5.61577">
        <ele>491.39999389648</ele>
        <time>2020-09-12T09:57:17.000Z</time>
      </trkpt>
      <trkpt lat="46.56218" lon="5.61558">
        <ele>491.39999389648</ele>
        <time>2020-09-12T09:57:19.000Z</time>
      </trkpt>
      <trkpt lat="46.56208" lon="5.61539">
        <ele>491.39999389648</ele>
        <time>2020-09-12T09:57:21.000Z</time>
      </trkpt>
      <trkpt lat="46.56204" lon="5.6153">
        <ele>491.39999389648</ele>
        <time>2020-09-12T09:57:22.000Z</time>
      </trkpt>
      <trkpt lat="46.56199" lon="5.6152">
        <ele>491.20001220703</ele>
        <time>2020-09-12T09:57:23.000Z</time>
      </trkpt>
      <trkpt lat="46.5619" lon="5.61501">
        <ele>491.20001220703</ele>
        <time>2020-09-12T09:57:25.000Z</time>
      </trkpt>
      <trkpt lat="46.56181" lon="5.61482">
        <ele>491.20001220703</ele>
        <time>2020-09-12T09:57:27.000Z</time>
      </trkpt>
      <trkpt lat="46.56171" lon="5.61463">
        <ele>491</ele>
        <time>2020-09-12T09:57:29.000Z</time>
      </trkpt>
      <trkpt lat="46.56162" lon="5.61444">
        <ele>490.79998779297</ele>
        <time>2020-09-12T09:57:31.000Z</time>
      </trkpt>
      <trkpt lat="46.56153" lon="5.61425">
        <ele>490.79998779297</ele>
        <time>2020-09-12T09:57:33.000Z</time>
      </trkpt>
      <trkpt lat="46.56143" lon="5.61406">
        <ele>490.79998779297</ele>
        <time>2020-09-12T09:57:35.000Z</time>
      </trkpt>
      <trkpt lat="46.56134" lon="5.61387">
        <ele>490.79998779297</ele>
        <time>2020-09-12T09:57:37.000Z</time>
      </trkpt>
      <trkpt lat="46.56125" lon="5.61368">
        <ele>490.79998779297</ele>
        <time>2020-09-12T09:57:39.000Z</time>
      </trkpt>
      <trkpt lat="46.56116" lon="5.6135">
        <ele>490.60000610352</ele>
        <time>2020-09-12T09:57:41.000Z</time>
      </trkpt>
      <trkpt lat="46.56112" lon="5.6134">
        <ele>490.79998779297</ele>
        <time>2020-09-12T09:57:42.000Z</time>
      </trkpt>
      <trkpt lat="46.56107" lon="5.61331">
        <ele>490.79998779297</ele>
        <time>2020-09-12T09:57:43.000Z</time>
      </trkpt>
      <trkpt lat="46.56098" lon="5.61313">
        <ele>490.79998779297</ele>
        <time>2020-09-12T09:57:45.000Z</time>
      </trkpt>
      <trkpt lat="46.56089" lon="5.61295">
        <ele>490.79998779297</ele>
        <time>2020-09-12T09:57:47.000Z</time>
      </trkpt>
      <trkpt lat="46.56081" lon="5.61277">
        <ele>490.79998779297</ele>
        <time>2020-09-12T09:57:49.000Z</time>
      </trkpt>
      <trkpt lat="46.56076" lon="5.61269">
        <ele>490.79998779297</ele>
        <time>2020-09-12T09:57:50.000Z</time>
      </trkpt>
      <trkpt lat="46.56072" lon="5.6126">
        <ele>490.79998779297</ele>
        <time>2020-09-12T09:57:51.000Z</time>
      </trkpt>
      <trkpt lat="46.56064" lon="5.61243">
        <ele>490.79998779297</ele>
        <time>2020-09-12T09:57:53.000Z</time>
      </trkpt>
      <trkpt lat="46.56056" lon="5.61226">
        <ele>491</ele>
        <time>2020-09-12T09:57:55.000Z</time>
      </trkpt>
      <trkpt lat="46.56049" lon="5.6121">
        <ele>491.20001220703</ele>
        <time>2020-09-12T09:57:57.000Z</time>
      </trkpt>
      <trkpt lat="46.56041" lon="5.61194">
        <ele>491.60000610352</ele>
        <time>2020-09-12T09:57:59.000Z</time>
      </trkpt>
      <trkpt lat="46.56033" lon="5.61178">
        <ele>491.79998779297</ele>
        <time>2020-09-12T09:58:01.000Z</time>
      </trkpt>
      <trkpt lat="46.56025" lon="5.61162">
        <ele>492</ele>
        <time>2020-09-12T09:58:03.000Z</time>
      </trkpt>
      <trkpt lat="46.56017" lon="5.61146">
        <ele>492.39999389648</ele>
        <time>2020-09-12T09:58:05.000Z</time>
      </trkpt>
      <trkpt lat="46.56014" lon="5.61138">
        <ele>492.60000610352</ele>
        <time>2020-09-12T09:58:06.000Z</time>
      </trkpt>
      <trkpt lat="46.5601" lon="5.6113">
        <ele>492.79998779297</ele>
        <time>2020-09-12T09:58:07.000Z</time>
      </trkpt>
      <trkpt lat="46.56003" lon="5.61115">
        <ele>493.20001220703</ele>
        <time>2020-09-12T09:58:09.000Z</time>
      </trkpt>
      <trkpt lat="46.55995" lon="5.611">
        <ele>493.60000610352</ele>
        <time>2020-09-12T09:58:11.000Z</time>
      </trkpt>
      <trkpt lat="46.55992" lon="5.61093">
        <ele>493.79998779297</ele>
        <time>2020-09-12T09:58:12.000Z</time>
      </trkpt>
      <trkpt lat="46.55989" lon="5.61085">
        <ele>493.79998779297</ele>
        <time>2020-09-12T09:58:13.000Z</time>
      </trkpt>
      <trkpt lat="46.55983" lon="5.6107">
        <ele>494</ele>
        <time>2020-09-12T09:58:15.000Z</time>
      </trkpt>
      <trkpt lat="46.55977" lon="5.61055">
        <ele>494</ele>
        <time>2020-09-12T09:58:17.000Z</time>
      </trkpt>
      <trkpt lat="46.55974" lon="5.61041">
        <ele>494.20001220703</ele>
        <time>2020-09-12T09:58:19.000Z</time>
      </trkpt>
      <trkpt lat="46.55971" lon="5.61029">
        <ele>494.39999389648</ele>
        <time>2020-09-12T09:58:21.000Z</time>
      </trkpt>
      <trkpt lat="46.5597" lon="5.61023">
        <ele>494.39999389648</ele>
        <time>2020-09-12T09:58:22.000Z</time>
      </trkpt>
      <trkpt lat="46.55969" lon="5.61018">
        <ele>494.60000610352</ele>
        <time>2020-09-12T09:58:23.000Z</time>
      </trkpt>
      <trkpt lat="46.55966" lon="5.61008">
        <ele>494.79998779297</ele>
        <time>2020-09-12T09:58:25.000Z</time>
      </trkpt>
      <trkpt lat="46.55965" lon="5.61005">
        <ele>494.79998779297</ele>
        <time>2020-09-12T09:58:26.000Z</time>
      </trkpt>
      <trkpt lat="46.55963" lon="5.61005">
        <ele>495</ele>
        <time>2020-09-12T09:58:27.000Z</time>
      </trkpt>
      <trkpt lat="46.55963" lon="5.61011">
        <ele>495.20001220703</ele>
        <time>2020-09-12T09:58:29.000Z</time>
      </trkpt>
      <trkpt lat="46.55964" lon="5.61014">
        <ele>495.20001220703</ele>
        <time>2020-09-12T09:58:30.000Z</time>
      </trkpt>
      <trkpt lat="46.55964" lon="5.61017">
        <ele>495.79998779297</ele>
        <time>2020-09-12T09:58:31.000Z</time>
      </trkpt>
      <trkpt lat="46.55965" lon="5.6102">
        <ele>496.20001220703</ele>
        <time>2020-09-12T09:58:32.000Z</time>
      </trkpt>
      <trkpt lat="46.55965" lon="5.61021">
        <ele>496.39999389648</ele>
        <time>2020-09-12T09:58:33.000Z</time>
      </trkpt>
      <trkpt lat="46.55965" lon="5.61021">
        <ele>496.39999389648</ele>
        <time>2020-09-12T09:58:34.000Z</time>
      </trkpt>
      <trkpt lat="46.55964" lon="5.61025">
        <ele>496.60000610352</ele>
        <time>2020-09-12T09:58:38.000Z</time>
      </trkpt>
      <trkpt lat="46.55964" lon="5.61025">
        <ele>496.60000610352</ele>
        <time>2020-09-12T09:58:39.000Z</time>
      </trkpt>
      <trkpt lat="46.55964" lon="5.61026">
        <ele>496.79998779297</ele>
        <time>2020-09-12T09:58:41.000Z</time>
      </trkpt>
      <trkpt lat="46.55967" lon="5.6102">
        <ele>497</ele>
        <time>2020-09-12T10:00:07.000Z</time>
      </trkpt>
      <trkpt lat="46.55968" lon="5.61017">
        <ele>497</ele>
        <time>2020-09-12T10:00:08.000Z</time>
      </trkpt>
      <trkpt lat="46.55968" lon="5.61012">
        <ele>497</ele>
        <time>2020-09-12T10:00:09.000Z</time>
      </trkpt>
      <trkpt lat="46.55966" lon="5.61002">
        <ele>497</ele>
        <time>2020-09-12T10:00:11.000Z</time>
      </trkpt>
      <trkpt lat="46.55964" lon="5.60996">
        <ele>497</ele>
        <time>2020-09-12T10:00:12.000Z</time>
      </trkpt>
      <trkpt lat="46.55962" lon="5.6099">
        <ele>497</ele>
        <time>2020-09-12T10:00:13.000Z</time>
      </trkpt>
      <trkpt lat="46.55958" lon="5.60976">
        <ele>497</ele>
        <time>2020-09-12T10:00:15.000Z</time>
      </trkpt>
      <trkpt lat="46.55954" lon="5.60961">
        <ele>496.79998779297</ele>
        <time>2020-09-12T10:00:17.000Z</time>
      </trkpt>
      <trkpt lat="46.55951" lon="5.60945">
        <ele>496.60000610352</ele>
        <time>2020-09-12T10:00:19.000Z</time>
      </trkpt>
      <trkpt lat="46.55947" lon="5.60928">
        <ele>496.60000610352</ele>
        <time>2020-09-12T10:00:21.000Z</time>
      </trkpt>
      <trkpt lat="46.55943" lon="5.60911">
        <ele>496.20001220703</ele>
        <time>2020-09-12T10:00:23.000Z</time>
      </trkpt>
      <trkpt lat="46.55939" lon="5.60894">
        <ele>495.79998779297</ele>
        <time>2020-09-12T10:00:25.000Z</time>
      </trkpt>
      <trkpt lat="46.55937" lon="5.60886">
        <ele>495.79998779297</ele>
        <time>2020-09-12T10:00:26.000Z</time>
      </trkpt>
      <trkpt lat="46.55936" lon="5.60877">
        <ele>495.79998779297</ele>
        <time>2020-09-12T10:00:27.000Z</time>
      </trkpt>
      <trkpt lat="46.55934" lon="5.6086">
        <ele>495.79998779297</ele>
        <time>2020-09-12T10:00:29.000Z</time>
      </trkpt>
      <trkpt lat="46.55933" lon="5.60842">
        <ele>495.79998779297</ele>
        <time>2020-09-12T10:00:31.000Z</time>
      </trkpt>
      <trkpt lat="46.55932" lon="5.60833">
        <ele>495.79998779297</ele>
        <time>2020-09-12T10:00:32.000Z</time>
      </trkpt>
      <trkpt lat="46.55931" lon="5.60824">
        <ele>495.79998779297</ele>
        <time>2020-09-12T10:00:33.000Z</time>
      </trkpt>
      <trkpt lat="46.5593" lon="5.60805">
        <ele>495.79998779297</ele>
        <time>2020-09-12T10:00:35.000Z</time>
      </trkpt>
      <trkpt lat="46.55929" lon="5.60786">
        <ele>496</ele>
        <time>2020-09-12T10:00:37.000Z</time>
      </trkpt>
      <trkpt lat="46.55927" lon="5.60766">
        <ele>496.39999389648</ele>
        <time>2020-09-12T10:00:39.000Z</time>
      </trkpt>
      <trkpt lat="46.55924" lon="5.60746">
        <ele>496.39999389648</ele>
        <time>2020-09-12T10:00:41.000Z</time>
      </trkpt>
      <trkpt lat="46.5592" lon="5.60726">
        <ele>496.39999389648</ele>
        <time>2020-09-12T10:00:43.000Z</time>
      </trkpt>
      <trkpt lat="46.55916" lon="5.60706">
        <ele>496.39999389648</ele>
        <time>2020-09-12T10:00:45.000Z</time>
      </trkpt>
      <trkpt lat="46.55914" lon="5.60695">
        <ele>496.39999389648</ele>
        <time>2020-09-12T10:00:46.000Z</time>
      </trkpt>
      <trkpt lat="46.55911" lon="5.60685">
        <ele>496.39999389648</ele>
        <time>2020-09-12T10:00:47.000Z</time>
      </trkpt>
      <trkpt lat="46.55906" lon="5.60663">
        <ele>496.20001220703</ele>
        <time>2020-09-12T10:00:49.000Z</time>
      </trkpt>
      <trkpt lat="46.55901" lon="5.60642">
        <ele>496</ele>
        <time>2020-09-12T10:00:51.000Z</time>
      </trkpt>
      <trkpt lat="46.55896" lon="5.6062">
        <ele>495.60000610352</ele>
        <time>2020-09-12T10:00:53.000Z</time>
      </trkpt>
      <trkpt lat="46.55893" lon="5.60609">
        <ele>495.39999389648</ele>
        <time>2020-09-12T10:00:54.000Z</time>
      </trkpt>
      <trkpt lat="46.55889" lon="5.60598">
        <ele>495.39999389648</ele>
        <time>2020-09-12T10:00:55.000Z</time>
      </trkpt>
      <trkpt lat="46.55881" lon="5.60577">
        <ele>494.60000610352</ele>
        <time>2020-09-12T10:00:57.000Z</time>
      </trkpt>
      <trkpt lat="46.55876" lon="5.60568">
        <ele>494.39999389648</ele>
        <time>2020-09-12T10:00:58.000Z</time>
      </trkpt>
      <trkpt lat="46.5587" lon="5.60559">
        <ele>494</ele>
        <time>2020-09-12T10:00:59.000Z</time>
      </trkpt>
      <trkpt lat="46.55855" lon="5.60545">
        <ele>493.79998779297</ele>
        <time>2020-09-12T10:01:01.000Z</time>
      </trkpt>
      <trkpt lat="46.55838" lon="5.60536">
        <ele>493.79998779297</ele>
        <time>2020-09-12T10:01:03.000Z</time>
      </trkpt>
      <trkpt lat="46.55821" lon="5.6053">
        <ele>493.60000610352</ele>
        <time>2020-09-12T10:01:05.000Z</time>
      </trkpt>
      <trkpt lat="46.55802" lon="5.60526">
        <ele>492.79998779297</ele>
        <time>2020-09-12T10:01:07.000Z</time>
      </trkpt>
      <trkpt lat="46.55784" lon="5.60521">
        <ele>492.60000610352</ele>
        <time>2020-09-12T10:01:09.000Z</time>
      </trkpt>
      <trkpt lat="46.55765" lon="5.60514">
        <ele>492.20001220703</ele>
        <time>2020-09-12T10:01:11.000Z</time>
      </trkpt>
      <trkpt lat="46.55756" lon="5.60509">
        <ele>492</ele>
        <time>2020-09-12T10:01:12.000Z</time>
      </trkpt>
      <trkpt lat="46.55747" lon="5.60503">
        <ele>492</ele>
        <time>2020-09-12T10:01:13.000Z</time>
      </trkpt>
      <trkpt lat="46.55739" lon="5.60495">
        <ele>491.60000610352</ele>
        <time>2020-09-12T10:01:14.000Z</time>
      </trkpt>
      <trkpt lat="46.55731" lon="5.60485">
        <ele>491.20001220703</ele>
        <time>2020-09-12T10:01:15.000Z</time>
      </trkpt>
      <trkpt lat="46.55719" lon="5.60463">
        <ele>490.79998779297</ele>
        <time>2020-09-12T10:01:17.000Z</time>
      </trkpt>
      <trkpt lat="46.55714" lon="5.60451">
        <ele>490.60000610352</ele>
        <time>2020-09-12T10:01:18.000Z</time>
      </trkpt>
      <trkpt lat="46.55709" lon="5.60439">
        <ele>490.39999389648</ele>
        <time>2020-09-12T10:01:19.000Z</time>
      </trkpt>
      <trkpt lat="46.55698" lon="5.60415">
        <ele>489.79998779297</ele>
        <time>2020-09-12T10:01:21.000Z</time>
      </trkpt>
      <trkpt lat="46.55693" lon="5.60403">
        <ele>489.39999389648</ele>
        <time>2020-09-12T10:01:22.000Z</time>
      </trkpt>
      <trkpt lat="46.55687" lon="5.60392">
        <ele>488.79998779297</ele>
        <time>2020-09-12T10:01:23.000Z</time>
      </trkpt>
      <trkpt lat="46.55681" lon="5.60382">
        <ele>488</ele>
        <time>2020-09-12T10:01:24.000Z</time>
      </trkpt>
      <trkpt lat="46.55674" lon="5.60373">
        <ele>487.39999389648</ele>
        <time>2020-09-12T10:01:25.000Z</time>
      </trkpt>
      <trkpt lat="46.55666" lon="5.60365">
        <ele>487</ele>
        <time>2020-09-12T10:01:26.000Z</time>
      </trkpt>
      <trkpt lat="46.55658" lon="5.60359">
        <ele>486.79998779297</ele>
        <time>2020-09-12T10:01:27.000Z</time>
      </trkpt>
      <trkpt lat="46.5564" lon="5.60349">
        <ele>486.39999389648</ele>
        <time>2020-09-12T10:01:29.000Z</time>
      </trkpt>
      <trkpt lat="46.55621" lon="5.60346">
        <ele>486.39999389648</ele>
        <time>2020-09-12T10:01:31.000Z</time>
      </trkpt>
      <trkpt lat="46.55611" lon="5.60345">
        <ele>486.20001220703</ele>
        <time>2020-09-12T10:01:32.000Z</time>
      </trkpt>
      <trkpt lat="46.55601" lon="5.60345">
        <ele>486.20001220703</ele>
        <time>2020-09-12T10:01:33.000Z</time>
      </trkpt>
      <trkpt lat="46.55581" lon="5.60343">
        <ele>486</ele>
        <time>2020-09-12T10:01:35.000Z</time>
      </trkpt>
      <trkpt lat="46.5556" lon="5.60342">
        <ele>485.39999389648</ele>
        <time>2020-09-12T10:01:37.000Z</time>
      </trkpt>
      <trkpt lat="46.5554" lon="5.6034">
        <ele>485.20001220703</ele>
        <time>2020-09-12T10:01:39.000Z</time>
      </trkpt>
      <trkpt lat="46.55519" lon="5.60337">
        <ele>485</ele>
        <time>2020-09-12T10:01:41.000Z</time>
      </trkpt>
      <trkpt lat="46.55509" lon="5.60336">
        <ele>485</ele>
        <time>2020-09-12T10:01:42.000Z</time>
      </trkpt>
      <trkpt lat="46.555" lon="5.60333">
        <ele>484.60000610352</ele>
        <time>2020-09-12T10:01:43.000Z</time>
      </trkpt>
      <trkpt lat="46.5548" lon="5.60326">
        <ele>484.39999389648</ele>
        <time>2020-09-12T10:01:45.000Z</time>
      </trkpt>
      <trkpt lat="46.55471" lon="5.60323">
        <ele>484.20001220703</ele>
        <time>2020-09-12T10:01:46.000Z</time>
      </trkpt>
      <trkpt lat="46.55461" lon="5.6032">
        <ele>483.79998779297</ele>
        <time>2020-09-12T10:01:47.000Z</time>
      </trkpt>
      <trkpt lat="46.55441" lon="5.60313">
        <ele>483.20001220703</ele>
        <time>2020-09-12T10:01:49.000Z</time>
      </trkpt>
      <trkpt lat="46.55432" lon="5.60309">
        <ele>482.79998779297</ele>
        <time>2020-09-12T10:01:50.000Z</time>
      </trkpt>
      <trkpt lat="46.55422" lon="5.60306">
        <ele>482.39999389648</ele>
        <time>2020-09-12T10:01:51.000Z</time>
      </trkpt>
      <trkpt lat="46.55403" lon="5.60299">
        <ele>481.79998779297</ele>
        <time>2020-09-12T10:01:53.000Z</time>
      </trkpt>
      <trkpt lat="46.55384" lon="5.60292">
        <ele>481.39999389648</ele>
        <time>2020-09-12T10:01:55.000Z</time>
      </trkpt>
      <trkpt lat="46.55374" lon="5.60289">
        <ele>481.20001220703</ele>
        <time>2020-09-12T10:01:56.000Z</time>
      </trkpt>
      <trkpt lat="46.55365" lon="5.60285">
        <ele>481</ele>
        <time>2020-09-12T10:01:57.000Z</time>
      </trkpt>
      <trkpt lat="46.55346" lon="5.60279">
        <ele>480.79998779297</ele>
        <time>2020-09-12T10:01:59.000Z</time>
      </trkpt>
      <trkpt lat="46.55328" lon="5.60275">
        <ele>480.60000610352</ele>
        <time>2020-09-12T10:02:01.000Z</time>
      </trkpt>
      <trkpt lat="46.55318" lon="5.60274">
        <ele>480.39999389648</ele>
        <time>2020-09-12T10:02:02.000Z</time>
      </trkpt>
      <trkpt lat="46.55308" lon="5.60275">
        <ele>480.39999389648</ele>
        <time>2020-09-12T10:02:03.000Z</time>
      </trkpt>
      <trkpt lat="46.55289" lon="5.6028">
        <ele>480.39999389648</ele>
        <time>2020-09-12T10:02:05.000Z</time>
      </trkpt>
      <trkpt lat="46.5528" lon="5.60284">
        <ele>480.20001220703</ele>
        <time>2020-09-12T10:02:06.000Z</time>
      </trkpt>
      <trkpt lat="46.55271" lon="5.60288">
        <ele>480.20001220703</ele>
        <time>2020-09-12T10:02:07.000Z</time>
      </trkpt>
      <trkpt lat="46.55252" lon="5.60296">
        <ele>480.20001220703</ele>
        <time>2020-09-12T10:02:09.000Z</time>
      </trkpt>
      <trkpt lat="46.55234" lon="5.60304">
        <ele>480</ele>
        <time>2020-09-12T10:02:11.000Z</time>
      </trkpt>
      <trkpt lat="46.55215" lon="5.60313">
        <ele>479.60000610352</ele>
        <time>2020-09-12T10:02:13.000Z</time>
      </trkpt>
      <trkpt lat="46.55197" lon="5.60319">
        <ele>479.20001220703</ele>
        <time>2020-09-12T10:02:15.000Z</time>
      </trkpt>
      <trkpt lat="46.55177" lon="5.6032">
        <ele>479</ele>
        <time>2020-09-12T10:02:17.000Z</time>
      </trkpt>
      <trkpt lat="46.55158" lon="5.60315">
        <ele>478.60000610352</ele>
        <time>2020-09-12T10:02:19.000Z</time>
      </trkpt>
      <trkpt lat="46.55148" lon="5.60311">
        <ele>478.39999389648</ele>
        <time>2020-09-12T10:02:20.000Z</time>
      </trkpt>
      <trkpt lat="46.55139" lon="5.60305">
        <ele>478.39999389648</ele>
        <time>2020-09-12T10:02:21.000Z</time>
      </trkpt>
      <trkpt lat="46.55123" lon="5.6029">
        <ele>478.20001220703</ele>
        <time>2020-09-12T10:02:23.000Z</time>
      </trkpt>
      <trkpt lat="46.55109" lon="5.60271">
        <ele>478</ele>
        <time>2020-09-12T10:02:25.000Z</time>
      </trkpt>
      <trkpt lat="46.55103" lon="5.6026">
        <ele>478</ele>
        <time>2020-09-12T10:02:26.000Z</time>
      </trkpt>
      <trkpt lat="46.55097" lon="5.6025">
        <ele>477.79998779297</ele>
        <time>2020-09-12T10:02:27.000Z</time>
      </trkpt>
      <trkpt lat="46.55085" lon="5.60229">
        <ele>477.60000610352</ele>
        <time>2020-09-12T10:02:29.000Z</time>
      </trkpt>
      <trkpt lat="46.55079" lon="5.60219">
        <ele>477.20001220703</ele>
        <time>2020-09-12T10:02:30.000Z</time>
      </trkpt>
      <trkpt lat="46.55073" lon="5.60209">
        <ele>477</ele>
        <time>2020-09-12T10:02:31.000Z</time>
      </trkpt>
      <trkpt lat="46.5506" lon="5.6019">
        <ele>476.60000610352</ele>
        <time>2020-09-12T10:02:33.000Z</time>
      </trkpt>
      <trkpt lat="46.55053" lon="5.60182">
        <ele>476.39999389648</ele>
        <time>2020-09-12T10:02:34.000Z</time>
      </trkpt>
      <trkpt lat="46.55046" lon="5.60175">
        <ele>476.39999389648</ele>
        <time>2020-09-12T10:02:35.000Z</time>
      </trkpt>
      <trkpt lat="46.5503" lon="5.60162">
        <ele>476.39999389648</ele>
        <time>2020-09-12T10:02:37.000Z</time>
      </trkpt>
      <trkpt lat="46.55013" lon="5.60151">
        <ele>476.20001220703</ele>
        <time>2020-09-12T10:02:39.000Z</time>
      </trkpt>
      <trkpt lat="46.54996" lon="5.6014">
        <ele>476.20001220703</ele>
        <time>2020-09-12T10:02:41.000Z</time>
      </trkpt>
      <trkpt lat="46.54979" lon="5.60129">
        <ele>476</ele>
        <time>2020-09-12T10:02:43.000Z</time>
      </trkpt>
      <trkpt lat="46.54963" lon="5.60116">
        <ele>476</ele>
        <time>2020-09-12T10:02:45.000Z</time>
      </trkpt>
      <trkpt lat="46.54947" lon="5.60101">
        <ele>475.60000610352</ele>
        <time>2020-09-12T10:02:47.000Z</time>
      </trkpt>
      <trkpt lat="46.54933" lon="5.60084">
        <ele>475.60000610352</ele>
        <time>2020-09-12T10:02:49.000Z</time>
      </trkpt>
      <trkpt lat="46.54918" lon="5.60067">
        <ele>475.60000610352</ele>
        <time>2020-09-12T10:02:51.000Z</time>
      </trkpt>
      <trkpt lat="46.5491" lon="5.6006">
        <ele>475.60000610352</ele>
        <time>2020-09-12T10:02:52.000Z</time>
      </trkpt>
      <trkpt lat="46.54901" lon="5.60054">
        <ele>475.60000610352</ele>
        <time>2020-09-12T10:02:53.000Z</time>
      </trkpt>
      <trkpt lat="46.54883" lon="5.60044">
        <ele>475.39999389648</ele>
        <time>2020-09-12T10:02:55.000Z</time>
      </trkpt>
      <trkpt lat="46.54874" lon="5.60041">
        <ele>475.39999389648</ele>
        <time>2020-09-12T10:02:56.000Z</time>
      </trkpt>
      <trkpt lat="46.54865" lon="5.60038">
        <ele>475.39999389648</ele>
        <time>2020-09-12T10:02:57.000Z</time>
      </trkpt>
      <trkpt lat="46.54846" lon="5.60032">
        <ele>475.20001220703</ele>
        <time>2020-09-12T10:02:59.000Z</time>
      </trkpt>
      <trkpt lat="46.54828" lon="5.60027">
        <ele>475</ele>
        <time>2020-09-12T10:03:01.000Z</time>
      </trkpt>
      <trkpt lat="46.54811" lon="5.60018">
        <ele>474.60000610352</ele>
        <time>2020-09-12T10:03:03.000Z</time>
      </trkpt>
      <trkpt lat="46.54803" lon="5.60012">
        <ele>474.39999389648</ele>
        <time>2020-09-12T10:03:04.000Z</time>
      </trkpt>
      <trkpt lat="46.54795" lon="5.60004">
        <ele>474</ele>
        <time>2020-09-12T10:03:05.000Z</time>
      </trkpt>
      <trkpt lat="46.54782" lon="5.59985">
        <ele>473.79998779297</ele>
        <time>2020-09-12T10:03:07.000Z</time>
      </trkpt>
      <trkpt lat="46.54769" lon="5.59965">
        <ele>473.79998779297</ele>
        <time>2020-09-12T10:03:09.000Z</time>
      </trkpt>
      <trkpt lat="46.54756" lon="5.59946">
        <ele>473.39999389648</ele>
        <time>2020-09-12T10:03:11.000Z</time>
      </trkpt>
      <trkpt lat="46.54748" lon="5.59938">
        <ele>473.39999389648</ele>
        <time>2020-09-12T10:03:12.000Z</time>
      </trkpt>
      <trkpt lat="46.5474" lon="5.59932">
        <ele>473.20001220703</ele>
        <time>2020-09-12T10:03:13.000Z</time>
      </trkpt>
      <trkpt lat="46.54721" lon="5.59926">
        <ele>473</ele>
        <time>2020-09-12T10:03:15.000Z</time>
      </trkpt>
      <trkpt lat="46.54703" lon="5.59928">
        <ele>473</ele>
        <time>2020-09-12T10:03:17.000Z</time>
      </trkpt>
      <trkpt lat="46.54694" lon="5.59932">
        <ele>473</ele>
        <time>2020-09-12T10:03:18.000Z</time>
      </trkpt>
      <trkpt lat="46.54685" lon="5.59936">
        <ele>472.79998779297</ele>
        <time>2020-09-12T10:03:19.000Z</time>
      </trkpt>
      <trkpt lat="46.54668" lon="5.59946">
        <ele>472.79998779297</ele>
        <time>2020-09-12T10:03:21.000Z</time>
      </trkpt>
      <trkpt lat="46.54651" lon="5.59957">
        <ele>472.79998779297</ele>
        <time>2020-09-12T10:03:23.000Z</time>
      </trkpt>
      <trkpt lat="46.54634" lon="5.59966">
        <ele>472.60000610352</ele>
        <time>2020-09-12T10:03:25.000Z</time>
      </trkpt>
      <trkpt lat="46.54616" lon="5.59972">
        <ele>471.79998779297</ele>
        <time>2020-09-12T10:03:27.000Z</time>
      </trkpt>
      <trkpt lat="46.54598" lon="5.59976">
        <ele>471.39999389648</ele>
        <time>2020-09-12T10:03:29.000Z</time>
      </trkpt>
      <trkpt lat="46.54589" lon="5.59977">
        <ele>471.39999389648</ele>
        <time>2020-09-12T10:03:30.000Z</time>
      </trkpt>
      <trkpt lat="46.54581" lon="5.59978">
        <ele>471.39999389648</ele>
        <time>2020-09-12T10:03:31.000Z</time>
      </trkpt>
      <trkpt lat="46.54563" lon="5.59977">
        <ele>471.20001220703</ele>
        <time>2020-09-12T10:03:33.000Z</time>
      </trkpt>
      <trkpt lat="46.54545" lon="5.59973">
        <ele>471.20001220703</ele>
        <time>2020-09-12T10:03:35.000Z</time>
      </trkpt>
      <trkpt lat="46.54527" lon="5.59967">
        <ele>471.20001220703</ele>
        <time>2020-09-12T10:03:37.000Z</time>
      </trkpt>
      <trkpt lat="46.54509" lon="5.59961">
        <ele>471.20001220703</ele>
        <time>2020-09-12T10:03:39.000Z</time>
      </trkpt>
      <trkpt lat="46.54491" lon="5.59955">
        <ele>471</ele>
        <time>2020-09-12T10:03:41.000Z</time>
      </trkpt>
      <trkpt lat="46.54482" lon="5.59952">
        <ele>471</ele>
        <time>2020-09-12T10:03:42.000Z</time>
      </trkpt>
      <trkpt lat="46.54473" lon="5.59948">
        <ele>470.79998779297</ele>
        <time>2020-09-12T10:03:43.000Z</time>
      </trkpt>
      <trkpt lat="46.54455" lon="5.59942">
        <ele>470</ele>
        <time>2020-09-12T10:03:45.000Z</time>
      </trkpt>
      <trkpt lat="46.54438" lon="5.59936">
        <ele>469.60000610352</ele>
        <time>2020-09-12T10:03:47.000Z</time>
      </trkpt>
      <trkpt lat="46.5443" lon="5.59933">
        <ele>469.39999389648</ele>
        <time>2020-09-12T10:03:48.000Z</time>
      </trkpt>
      <trkpt lat="46.54423" lon="5.5993">
        <ele>469.20001220703</ele>
        <time>2020-09-12T10:03:49.000Z</time>
      </trkpt>
      <trkpt lat="46.54413" lon="5.59925">
        <ele>469.20001220703</ele>
        <time>2020-09-12T10:03:51.000Z</time>
      </trkpt>
      <trkpt lat="46.54409" lon="5.59922">
        <ele>469.20001220703</ele>
        <time>2020-09-12T10:03:52.000Z</time>
      </trkpt>
      <trkpt lat="46.54406" lon="5.59919">
        <ele>469.20001220703</ele>
        <time>2020-09-12T10:03:53.000Z</time>
      </trkpt>
      <trkpt lat="46.54398" lon="5.5991">
        <ele>469</ele>
        <time>2020-09-12T10:03:55.000Z</time>
      </trkpt>
      <trkpt lat="46.54394" lon="5.59903">
        <ele>469</ele>
        <time>2020-09-12T10:03:56.000Z</time>
      </trkpt>
      <trkpt lat="46.54391" lon="5.59896">
        <ele>469</ele>
        <time>2020-09-12T10:03:57.000Z</time>
      </trkpt>
      <trkpt lat="46.54389" lon="5.59876">
        <ele>468.60000610352</ele>
        <time>2020-09-12T10:03:59.000Z</time>
      </trkpt>
      <trkpt lat="46.54393" lon="5.59856">
        <ele>468</ele>
        <time>2020-09-12T10:04:01.000Z</time>
      </trkpt>
      <trkpt lat="46.54395" lon="5.59846">
        <ele>467.79998779297</ele>
        <time>2020-09-12T10:04:02.000Z</time>
      </trkpt>
      <trkpt lat="46.54396" lon="5.59837">
        <ele>467.79998779297</ele>
        <time>2020-09-12T10:04:03.000Z</time>
      </trkpt>
      <trkpt lat="46.54399" lon="5.59817">
        <ele>467.60000610352</ele>
        <time>2020-09-12T10:04:05.000Z</time>
      </trkpt>
      <trkpt lat="46.54401" lon="5.59798">
        <ele>467.39999389648</ele>
        <time>2020-09-12T10:04:07.000Z</time>
      </trkpt>
      <trkpt lat="46.54404" lon="5.59779">
        <ele>467.39999389648</ele>
        <time>2020-09-12T10:04:09.000Z</time>
      </trkpt>
      <trkpt lat="46.54406" lon="5.5976">
        <ele>467.39999389648</ele>
        <time>2020-09-12T10:04:11.000Z</time>
      </trkpt>
      <trkpt lat="46.54408" lon="5.59751">
        <ele>467.39999389648</ele>
        <time>2020-09-12T10:04:12.000Z</time>
      </trkpt>
      <trkpt lat="46.54409" lon="5.59741">
        <ele>467.39999389648</ele>
        <time>2020-09-12T10:04:13.000Z</time>
      </trkpt>
      <trkpt lat="46.54411" lon="5.59722">
        <ele>467.39999389648</ele>
        <time>2020-09-12T10:04:15.000Z</time>
      </trkpt>
      <trkpt lat="46.54413" lon="5.59704">
        <ele>467.60000610352</ele>
        <time>2020-09-12T10:04:17.000Z</time>
      </trkpt>
      <trkpt lat="46.54415" lon="5.59686">
        <ele>468</ele>
        <time>2020-09-12T10:04:19.000Z</time>
      </trkpt>
      <trkpt lat="46.54418" lon="5.59668">
        <ele>468.20001220703</ele>
        <time>2020-09-12T10:04:21.000Z</time>
      </trkpt>
      <trkpt lat="46.54419" lon="5.59659">
        <ele>468.39999389648</ele>
        <time>2020-09-12T10:04:22.000Z</time>
      </trkpt>
      <trkpt lat="46.5442" lon="5.5965">
        <ele>468.39999389648</ele>
        <time>2020-09-12T10:04:23.000Z</time>
      </trkpt>
      <trkpt lat="46.54422" lon="5.59633">
        <ele>468.39999389648</ele>
        <time>2020-09-12T10:04:25.000Z</time>
      </trkpt>
      <trkpt lat="46.54424" lon="5.59615">
        <ele>468.39999389648</ele>
        <time>2020-09-12T10:04:27.000Z</time>
      </trkpt>
      <trkpt lat="46.54426" lon="5.59599">
        <ele>468.39999389648</ele>
        <time>2020-09-12T10:04:29.000Z</time>
      </trkpt>
      <trkpt lat="46.54427" lon="5.59591">
        <ele>469</ele>
        <time>2020-09-12T10:04:30.000Z</time>
      </trkpt>
      <trkpt lat="46.54428" lon="5.59583">
        <ele>469.20001220703</ele>
        <time>2020-09-12T10:04:31.000Z</time>
      </trkpt>
      <trkpt lat="46.54429" lon="5.59576">
        <ele>469.60000610352</ele>
        <time>2020-09-12T10:04:32.000Z</time>
      </trkpt>
      <trkpt lat="46.5443" lon="5.59568">
        <ele>469.79998779297</ele>
        <time>2020-09-12T10:04:33.000Z</time>
      </trkpt>
      <trkpt lat="46.54432" lon="5.59553">
        <ele>470</ele>
        <time>2020-09-12T10:04:35.000Z</time>
      </trkpt>
      <trkpt lat="46.54433" lon="5.59539">
        <ele>470.20001220703</ele>
        <time>2020-09-12T10:04:37.000Z</time>
      </trkpt>
      <trkpt lat="46.54435" lon="5.59525">
        <ele>470.39999389648</ele>
        <time>2020-09-12T10:04:39.000Z</time>
      </trkpt>
      <trkpt lat="46.54437" lon="5.59512">
        <ele>471.39999389648</ele>
        <time>2020-09-12T10:04:41.000Z</time>
      </trkpt>
      <trkpt lat="46.54438" lon="5.59498">
        <ele>472</ele>
        <time>2020-09-12T10:04:43.000Z</time>
      </trkpt>
      <trkpt lat="46.5444" lon="5.59485">
        <ele>472.20001220703</ele>
        <time>2020-09-12T10:04:45.000Z</time>
      </trkpt>
      <trkpt lat="46.54442" lon="5.59471">
        <ele>472.39999389648</ele>
        <time>2020-09-12T10:04:47.000Z</time>
      </trkpt>
      <trkpt lat="46.54442" lon="5.59464">
        <ele>472.60000610352</ele>
        <time>2020-09-12T10:04:48.000Z</time>
      </trkpt>
      <trkpt lat="46.54443" lon="5.59457">
        <ele>472.60000610352</ele>
        <time>2020-09-12T10:04:49.000Z</time>
      </trkpt>
      <trkpt lat="46.54444" lon="5.5945">
        <ele>472.79998779297</ele>
        <time>2020-09-12T10:04:50.000Z</time>
      </trkpt>
      <trkpt lat="46.54445" lon="5.59443">
        <ele>473</ele>
        <time>2020-09-12T10:04:51.000Z</time>
      </trkpt>
      <trkpt lat="46.54446" lon="5.59429">
        <ele>473.20001220703</ele>
        <time>2020-09-12T10:04:53.000Z</time>
      </trkpt>
      <trkpt lat="46.54448" lon="5.59415">
        <ele>473.39999389648</ele>
        <time>2020-09-12T10:04:55.000Z</time>
      </trkpt>
      <trkpt lat="46.54449" lon="5.59408">
        <ele>473.60000610352</ele>
        <time>2020-09-12T10:04:56.000Z</time>
      </trkpt>
      <trkpt lat="46.5445" lon="5.59401">
        <ele>473.60000610352</ele>
        <time>2020-09-12T10:04:57.000Z</time>
      </trkpt>
      <trkpt lat="46.54451" lon="5.59387">
        <ele>474</ele>
        <time>2020-09-12T10:04:59.000Z</time>
      </trkpt>
      <trkpt lat="46.54452" lon="5.5938">
        <ele>474.60000610352</ele>
        <time>2020-09-12T10:05:00.000Z</time>
      </trkpt>
      <trkpt lat="46.54453" lon="5.59373">
        <ele>474.79998779297</ele>
        <time>2020-09-12T10:05:01.000Z</time>
      </trkpt>
      <trkpt lat="46.54454" lon="5.5936">
        <ele>475.39999389648</ele>
        <time>2020-09-12T10:05:03.000Z</time>
      </trkpt>
      <trkpt lat="46.54455" lon="5.59353">
        <ele>475.60000610352</ele>
        <time>2020-09-12T10:05:04.000Z</time>
      </trkpt>
      <trkpt lat="46.54456" lon="5.59346">
        <ele>475.79998779297</ele>
        <time>2020-09-12T10:05:05.000Z</time>
      </trkpt>
      <trkpt lat="46.54459" lon="5.59332">
        <ele>476.39999389648</ele>
        <time>2020-09-12T10:05:07.000Z</time>
      </trkpt>
      <trkpt lat="46.54462" lon="5.59319">
        <ele>476.60000610352</ele>
        <time>2020-09-12T10:05:09.000Z</time>
      </trkpt>
      <trkpt lat="46.54464" lon="5.59313">
        <ele>476.79998779297</ele>
        <time>2020-09-12T10:05:10.000Z</time>
      </trkpt>
      <trkpt lat="46.54467" lon="5.59306">
        <ele>477</ele>
        <time>2020-09-12T10:05:11.000Z</time>
      </trkpt>
      <trkpt lat="46.54472" lon="5.59295">
        <ele>477.39999389648</ele>
        <time>2020-09-12T10:05:13.000Z</time>
      </trkpt>
      <trkpt lat="46.54479" lon="5.59283">
        <ele>477.60000610352</ele>
        <time>2020-09-12T10:05:15.000Z</time>
      </trkpt>
      <trkpt lat="46.54485" lon="5.59271">
        <ele>477.79998779297</ele>
        <time>2020-09-12T10:05:17.000Z</time>
      </trkpt>
      <trkpt lat="46.54489" lon="5.59258">
        <ele>478</ele>
        <time>2020-09-12T10:05:19.000Z</time>
      </trkpt>
      <trkpt lat="46.54491" lon="5.59251">
        <ele>478</ele>
        <time>2020-09-12T10:05:20.000Z</time>
      </trkpt>
      <trkpt lat="46.54492" lon="5.59243">
        <ele>478</ele>
        <time>2020-09-12T10:05:21.000Z</time>
      </trkpt>
      <trkpt lat="46.54494" lon="5.59226">
        <ele>478</ele>
        <time>2020-09-12T10:05:23.000Z</time>
      </trkpt>
      <trkpt lat="46.54495" lon="5.59208">
        <ele>478.20001220703</ele>
        <time>2020-09-12T10:05:25.000Z</time>
      </trkpt>
      <trkpt lat="46.54496" lon="5.59191">
        <ele>478.20001220703</ele>
        <time>2020-09-12T10:05:27.000Z</time>
      </trkpt>
      <trkpt lat="46.54497" lon="5.59173">
        <ele>478.20001220703</ele>
        <time>2020-09-12T10:05:29.000Z</time>
      </trkpt>
      <trkpt lat="46.54499" lon="5.59155">
        <ele>478.20001220703</ele>
        <time>2020-09-12T10:05:31.000Z</time>
      </trkpt>
      <trkpt lat="46.54501" lon="5.59138">
        <ele>478.39999389648</ele>
        <time>2020-09-12T10:05:33.000Z</time>
      </trkpt>
      <trkpt lat="46.54502" lon="5.5913">
        <ele>478.39999389648</ele>
        <time>2020-09-12T10:05:34.000Z</time>
      </trkpt>
      <trkpt lat="46.54503" lon="5.59122">
        <ele>478.39999389648</ele>
        <time>2020-09-12T10:05:35.000Z</time>
      </trkpt>
      <trkpt lat="46.54505" lon="5.59106">
        <ele>478.60000610352</ele>
        <time>2020-09-12T10:05:37.000Z</time>
      </trkpt>
      <trkpt lat="46.54507" lon="5.5909">
        <ele>478.60000610352</ele>
        <time>2020-09-12T10:05:39.000Z</time>
      </trkpt>
      <trkpt lat="46.54509" lon="5.59075">
        <ele>478.79998779297</ele>
        <time>2020-09-12T10:05:41.000Z</time>
      </trkpt>
      <trkpt lat="46.5451" lon="5.59059">
        <ele>479.20001220703</ele>
        <time>2020-09-12T10:05:43.000Z</time>
      </trkpt>
      <trkpt lat="46.54511" lon="5.59044">
        <ele>479.79998779297</ele>
        <time>2020-09-12T10:05:45.000Z</time>
      </trkpt>
      <trkpt lat="46.54512" lon="5.59028">
        <ele>480.20001220703</ele>
        <time>2020-09-12T10:05:47.000Z</time>
      </trkpt>
      <trkpt lat="46.54512" lon="5.5902">
        <ele>480.20001220703</ele>
        <time>2020-09-12T10:05:48.000Z</time>
      </trkpt>
      <trkpt lat="46.54513" lon="5.59012">
        <ele>480.39999389648</ele>
        <time>2020-09-12T10:05:49.000Z</time>
      </trkpt>
      <trkpt lat="46.54513" lon="5.58995">
        <ele>480.79998779297</ele>
        <time>2020-09-12T10:05:51.000Z</time>
      </trkpt>
      <trkpt lat="46.54513" lon="5.58976">
        <ele>481.20001220703</ele>
        <time>2020-09-12T10:05:53.000Z</time>
      </trkpt>
      <trkpt lat="46.54514" lon="5.58967">
        <ele>481.39999389648</ele>
        <time>2020-09-12T10:05:54.000Z</time>
      </trkpt>
      <trkpt lat="46.54514" lon="5.58957">
        <ele>481.39999389648</ele>
        <time>2020-09-12T10:05:55.000Z</time>
      </trkpt>
      <trkpt lat="46.54514" lon="5.58937">
        <ele>481.39999389648</ele>
        <time>2020-09-12T10:05:57.000Z</time>
      </trkpt>
      <trkpt lat="46.54515" lon="5.58917">
        <ele>481.39999389648</ele>
        <time>2020-09-12T10:05:59.000Z</time>
      </trkpt>
      <trkpt lat="46.54515" lon="5.58896">
        <ele>481.39999389648</ele>
        <time>2020-09-12T10:06:01.000Z</time>
      </trkpt>
      <trkpt lat="46.54515" lon="5.58876">
        <ele>481.20001220703</ele>
        <time>2020-09-12T10:06:03.000Z</time>
      </trkpt>
      <trkpt lat="46.54516" lon="5.58855">
        <ele>481</ele>
        <time>2020-09-12T10:06:05.000Z</time>
      </trkpt>
      <trkpt lat="46.54516" lon="5.58835">
        <ele>480.79998779297</ele>
        <time>2020-09-12T10:06:07.000Z</time>
      </trkpt>
      <trkpt lat="46.54516" lon="5.58826">
        <ele>480.79998779297</ele>
        <time>2020-09-12T10:06:08.000Z</time>
      </trkpt>
      <trkpt lat="46.54516" lon="5.58816">
        <ele>480.79998779297</ele>
        <time>2020-09-12T10:06:09.000Z</time>
      </trkpt>
      <trkpt lat="46.54517" lon="5.58796">
        <ele>480.79998779297</ele>
        <time>2020-09-12T10:06:11.000Z</time>
      </trkpt>
      <trkpt lat="46.54517" lon="5.58777">
        <ele>480.60000610352</ele>
        <time>2020-09-12T10:06:13.000Z</time>
      </trkpt>
      <trkpt lat="46.54518" lon="5.58758">
        <ele>480.60000610352</ele>
        <time>2020-09-12T10:06:15.000Z</time>
      </trkpt>
      <trkpt lat="46.54518" lon="5.5874">
        <ele>480.79998779297</ele>
        <time>2020-09-12T10:06:17.000Z</time>
      </trkpt>
      <trkpt lat="46.54518" lon="5.58731">
        <ele>481</ele>
        <time>2020-09-12T10:06:18.000Z</time>
      </trkpt>
      <trkpt lat="46.54518" lon="5.58722">
        <ele>481</ele>
        <time>2020-09-12T10:06:19.000Z</time>
      </trkpt>
      <trkpt lat="46.54519" lon="5.58704">
        <ele>481.39999389648</ele>
        <time>2020-09-12T10:06:21.000Z</time>
      </trkpt>
      <trkpt lat="46.54521" lon="5.58686">
        <ele>481.60000610352</ele>
        <time>2020-09-12T10:06:23.000Z</time>
      </trkpt>
      <trkpt lat="46.54523" lon="5.58667">
        <ele>482</ele>
        <time>2020-09-12T10:06:25.000Z</time>
      </trkpt>
      <trkpt lat="46.54524" lon="5.58657">
        <ele>482.20001220703</ele>
        <time>2020-09-12T10:06:26.000Z</time>
      </trkpt>
      <trkpt lat="46.54525" lon="5.58647">
        <ele>482.39999389648</ele>
        <time>2020-09-12T10:06:27.000Z</time>
      </trkpt>
      <trkpt lat="46.54528" lon="5.58627">
        <ele>482.60000610352</ele>
        <time>2020-09-12T10:06:29.000Z</time>
      </trkpt>
      <trkpt lat="46.5453" lon="5.58607">
        <ele>482.60000610352</ele>
        <time>2020-09-12T10:06:31.000Z</time>
      </trkpt>
      <trkpt lat="46.54532" lon="5.58587">
        <ele>482.79998779297</ele>
        <time>2020-09-12T10:06:33.000Z</time>
      </trkpt>
      <trkpt lat="46.54534" lon="5.58567">
        <ele>482.79998779297</ele>
        <time>2020-09-12T10:06:35.000Z</time>
      </trkpt>
      <trkpt lat="46.54535" lon="5.58557">
        <ele>482.79998779297</ele>
        <time>2020-09-12T10:06:36.000Z</time>
      </trkpt>
      <trkpt lat="46.54536" lon="5.58547">
        <ele>482.79998779297</ele>
        <time>2020-09-12T10:06:37.000Z</time>
      </trkpt>
      <trkpt lat="46.54538" lon="5.58527">
        <ele>482.79998779297</ele>
        <time>2020-09-12T10:06:39.000Z</time>
      </trkpt>
      <trkpt lat="46.54541" lon="5.58508">
        <ele>483</ele>
        <time>2020-09-12T10:06:41.000Z</time>
      </trkpt>
      <trkpt lat="46.54542" lon="5.58489">
        <ele>483</ele>
        <time>2020-09-12T10:06:43.000Z</time>
      </trkpt>
      <trkpt lat="46.54542" lon="5.58479">
        <ele>483.20001220703</ele>
        <time>2020-09-12T10:06:44.000Z</time>
      </trkpt>
      <trkpt lat="46.54543" lon="5.5847">
        <ele>483.20001220703</ele>
        <time>2020-09-12T10:06:45.000Z</time>
      </trkpt>
      <trkpt lat="46.54542" lon="5.58453">
        <ele>483.39999389648</ele>
        <time>2020-09-12T10:06:47.000Z</time>
      </trkpt>
      <trkpt lat="46.54538" lon="5.58437">
        <ele>483.60000610352</ele>
        <time>2020-09-12T10:06:49.000Z</time>
      </trkpt>
      <trkpt lat="46.54529" lon="5.58426">
        <ele>483.79998779297</ele>
        <time>2020-09-12T10:06:51.000Z</time>
      </trkpt>
      <trkpt lat="46.54523" lon="5.58423">
        <ele>483.79998779297</ele>
        <time>2020-09-12T10:06:52.000Z</time>
      </trkpt>
      <trkpt lat="46.54516" lon="5.5842">
        <ele>484.20001220703</ele>
        <time>2020-09-12T10:06:53.000Z</time>
      </trkpt>
      <trkpt lat="46.54509" lon="5.58418">
        <ele>484.39999389648</ele>
        <time>2020-09-12T10:06:54.000Z</time>
      </trkpt>
      <trkpt lat="46.54502" lon="5.58416">
        <ele>484.60000610352</ele>
        <time>2020-09-12T10:06:55.000Z</time>
      </trkpt>
      <trkpt lat="46.54487" lon="5.58412">
        <ele>484.79998779297</ele>
        <time>2020-09-12T10:06:57.000Z</time>
      </trkpt>
      <trkpt lat="46.5447" lon="5.58407">
        <ele>484.79998779297</ele>
        <time>2020-09-12T10:06:59.000Z</time>
      </trkpt>
      <trkpt lat="46.54452" lon="5.58402">
        <ele>484.79998779297</ele>
        <time>2020-09-12T10:07:01.000Z</time>
      </trkpt>
      <trkpt lat="46.54434" lon="5.58395">
        <ele>484.79998779297</ele>
        <time>2020-09-12T10:07:03.000Z</time>
      </trkpt>
      <trkpt lat="46.54417" lon="5.58387">
        <ele>484.60000610352</ele>
        <time>2020-09-12T10:07:05.000Z</time>
      </trkpt>
      <trkpt lat="46.54399" lon="5.58378">
        <ele>483.60000610352</ele>
        <time>2020-09-12T10:07:07.000Z</time>
      </trkpt>
      <trkpt lat="46.54381" lon="5.5837">
        <ele>482.79998779297</ele>
        <time>2020-09-12T10:07:09.000Z</time>
      </trkpt>
      <trkpt lat="46.54373" lon="5.58365">
        <ele>482.39999389648</ele>
        <time>2020-09-12T10:07:10.000Z</time>
      </trkpt>
      <trkpt lat="46.54364" lon="5.58361">
        <ele>482.20001220703</ele>
        <time>2020-09-12T10:07:11.000Z</time>
      </trkpt>
      <trkpt lat="46.54345" lon="5.58352">
        <ele>482</ele>
        <time>2020-09-12T10:07:13.000Z</time>
      </trkpt>
      <trkpt lat="46.54336" lon="5.58347">
        <ele>481.79998779297</ele>
        <time>2020-09-12T10:07:14.000Z</time>
      </trkpt>
      <trkpt lat="46.54327" lon="5.58343">
        <ele>481.60000610352</ele>
        <time>2020-09-12T10:07:15.000Z</time>
      </trkpt>
      <trkpt lat="46.54308" lon="5.58333">
        <ele>481.39999389648</ele>
        <time>2020-09-12T10:07:17.000Z</time>
      </trkpt>
      <trkpt lat="46.54289" lon="5.58324">
        <ele>481</ele>
        <time>2020-09-12T10:07:19.000Z</time>
      </trkpt>
      <trkpt lat="46.5427" lon="5.58314">
        <ele>480.39999389648</ele>
        <time>2020-09-12T10:07:21.000Z</time>
      </trkpt>
      <trkpt lat="46.5426" lon="5.58309">
        <ele>480</ele>
        <time>2020-09-12T10:07:22.000Z</time>
      </trkpt>
      <trkpt lat="46.54251" lon="5.58305">
        <ele>479.60000610352</ele>
        <time>2020-09-12T10:07:23.000Z</time>
      </trkpt>
      <trkpt lat="46.54233" lon="5.58295">
        <ele>478.20001220703</ele>
        <time>2020-09-12T10:07:25.000Z</time>
      </trkpt>
      <trkpt lat="46.54215" lon="5.58286">
        <ele>478</ele>
        <time>2020-09-12T10:07:27.000Z</time>
      </trkpt>
      <trkpt lat="46.54199" lon="5.58274">
        <ele>478</ele>
        <time>2020-09-12T10:07:29.000Z</time>
      </trkpt>
      <trkpt lat="46.54186" lon="5.58257">
        <ele>478</ele>
        <time>2020-09-12T10:07:31.000Z</time>
      </trkpt>
      <trkpt lat="46.54182" lon="5.58247">
        <ele>478</ele>
        <time>2020-09-12T10:07:32.000Z</time>
      </trkpt>
      <trkpt lat="46.54179" lon="5.58236">
        <ele>478</ele>
        <time>2020-09-12T10:07:33.000Z</time>
      </trkpt>
      <trkpt lat="46.54174" lon="5.58214">
        <ele>478</ele>
        <time>2020-09-12T10:07:35.000Z</time>
      </trkpt>
      <trkpt lat="46.54172" lon="5.58204">
        <ele>478.39999389648</ele>
        <time>2020-09-12T10:07:36.000Z</time>
      </trkpt>
      <trkpt lat="46.5417" lon="5.58194">
        <ele>478.60000610352</ele>
        <time>2020-09-12T10:07:37.000Z</time>
      </trkpt>
      <trkpt lat="46.54165" lon="5.58177">
        <ele>478.79998779297</ele>
        <time>2020-09-12T10:07:39.000Z</time>
      </trkpt>
      <trkpt lat="46.54158" lon="5.58162">
        <ele>479.39999389648</ele>
        <time>2020-09-12T10:07:41.000Z</time>
      </trkpt>
      <trkpt lat="46.5415" lon="5.58148">
        <ele>480.20001220703</ele>
        <time>2020-09-12T10:07:43.000Z</time>
      </trkpt>
      <trkpt lat="46.54145" lon="5.58142">
        <ele>480.39999389648</ele>
        <time>2020-09-12T10:07:44.000Z</time>
      </trkpt>
      <trkpt lat="46.54141" lon="5.58136">
        <ele>480.79998779297</ele>
        <time>2020-09-12T10:07:45.000Z</time>
      </trkpt>
      <trkpt lat="46.54136" lon="5.5813">
        <ele>481</ele>
        <time>2020-09-12T10:07:46.000Z</time>
      </trkpt>
      <trkpt lat="46.54131" lon="5.58125">
        <ele>481.39999389648</ele>
        <time>2020-09-12T10:07:47.000Z</time>
      </trkpt>
      <trkpt lat="46.54126" lon="5.58119">
        <ele>482</ele>
        <time>2020-09-12T10:07:48.000Z</time>
      </trkpt>
      <trkpt lat="46.54122" lon="5.58114">
        <ele>482.39999389648</ele>
        <time>2020-09-12T10:07:49.000Z</time>
      </trkpt>
      <trkpt lat="46.54112" lon="5.58105">
        <ele>483</ele>
        <time>2020-09-12T10:07:51.000Z</time>
      </trkpt>
      <trkpt lat="46.54103" lon="5.58096">
        <ele>483.39999389648</ele>
        <time>2020-09-12T10:07:53.000Z</time>
      </trkpt>
      <trkpt lat="46.54098" lon="5.58092">
        <ele>484.39999389648</ele>
        <time>2020-09-12T10:07:54.000Z</time>
      </trkpt>
      <trkpt lat="46.54094" lon="5.58087">
        <ele>484.60000610352</ele>
        <time>2020-09-12T10:07:55.000Z</time>
      </trkpt>
      <trkpt lat="46.54086" lon="5.58077">
        <ele>485.20001220703</ele>
        <time>2020-09-12T10:07:57.000Z</time>
      </trkpt>
      <trkpt lat="46.54079" lon="5.58068">
        <ele>485.39999389648</ele>
        <time>2020-09-12T10:07:59.000Z</time>
      </trkpt>
      <trkpt lat="46.54075" lon="5.58063">
        <ele>485.60000610352</ele>
        <time>2020-09-12T10:08:00.000Z</time>
      </trkpt>
      <trkpt lat="46.54072" lon="5.58058">
        <ele>486</ele>
        <time>2020-09-12T10:08:01.000Z</time>
      </trkpt>
      <trkpt lat="46.54065" lon="5.58048">
        <ele>486.60000610352</ele>
        <time>2020-09-12T10:08:03.000Z</time>
      </trkpt>
      <trkpt lat="46.54057" lon="5.5804">
        <ele>486.79998779297</ele>
        <time>2020-09-12T10:08:05.000Z</time>
      </trkpt>
      <trkpt lat="46.54049" lon="5.58031">
        <ele>487.39999389648</ele>
        <time>2020-09-12T10:08:07.000Z</time>
      </trkpt>
      <trkpt lat="46.54044" lon="5.58027">
        <ele>487.60000610352</ele>
        <time>2020-09-12T10:08:08.000Z</time>
      </trkpt>
      <trkpt lat="46.54039" lon="5.58024">
        <ele>487.79998779297</ele>
        <time>2020-09-12T10:08:09.000Z</time>
      </trkpt>
      <trkpt lat="46.54028" lon="5.58016">
        <ele>488.20001220703</ele>
        <time>2020-09-12T10:08:11.000Z</time>
      </trkpt>
      <trkpt lat="46.54016" lon="5.58008">
        <ele>488.20001220703</ele>
        <time>2020-09-12T10:08:13.000Z</time>
      </trkpt>
      <trkpt lat="46.54003" lon="5.58">
        <ele>488.20001220703</ele>
        <time>2020-09-12T10:08:15.000Z</time>
      </trkpt>
      <trkpt lat="46.53989" lon="5.57994">
        <ele>488.39999389648</ele>
        <time>2020-09-12T10:08:17.000Z</time>
      </trkpt>
      <trkpt lat="46.53982" lon="5.57991">
        <ele>488.39999389648</ele>
        <time>2020-09-12T10:08:18.000Z</time>
      </trkpt>
      <trkpt lat="46.53974" lon="5.57989">
        <ele>488.39999389648</ele>
        <time>2020-09-12T10:08:19.000Z</time>
      </trkpt>
      <trkpt lat="46.53956" lon="5.57984">
        <ele>488.39999389648</ele>
        <time>2020-09-12T10:08:21.000Z</time>
      </trkpt>
      <trkpt lat="46.53946" lon="5.57982">
        <ele>488.20001220703</ele>
        <time>2020-09-12T10:08:22.000Z</time>
      </trkpt>
      <trkpt lat="46.53936" lon="5.5798">
        <ele>488.20001220703</ele>
        <time>2020-09-12T10:08:23.000Z</time>
      </trkpt>
      <trkpt lat="46.53913" lon="5.57977">
        <ele>488</ele>
        <time>2020-09-12T10:08:25.000Z</time>
      </trkpt>
      <trkpt lat="46.53901" lon="5.57976">
        <ele>487.79998779297</ele>
        <time>2020-09-12T10:08:26.000Z</time>
      </trkpt>
      <trkpt lat="46.53889" lon="5.57973">
        <ele>487</ele>
        <time>2020-09-12T10:08:27.000Z</time>
      </trkpt>
      <trkpt lat="46.53876" lon="5.5797">
        <ele>486.20001220703</ele>
        <time>2020-09-12T10:08:28.000Z</time>
      </trkpt>
      <trkpt lat="46.53864" lon="5.57966">
        <ele>485</ele>
        <time>2020-09-12T10:08:29.000Z</time>
      </trkpt>
      <trkpt lat="46.53852" lon="5.57962">
        <ele>483.79998779297</ele>
        <time>2020-09-12T10:08:30.000Z</time>
      </trkpt>
      <trkpt lat="46.5384" lon="5.57959">
        <ele>482.20001220703</ele>
        <time>2020-09-12T10:08:31.000Z</time>
      </trkpt>
      <trkpt lat="46.53828" lon="5.57955">
        <ele>480.60000610352</ele>
        <time>2020-09-12T10:08:32.000Z</time>
      </trkpt>
      <trkpt lat="46.53816" lon="5.57952">
        <ele>478.79998779297</ele>
        <time>2020-09-12T10:08:33.000Z</time>
      </trkpt>
      <trkpt lat="46.53804" lon="5.57948">
        <ele>477.39999389648</ele>
        <time>2020-09-12T10:08:34.000Z</time>
      </trkpt>
      <trkpt lat="46.53793" lon="5.57945">
        <ele>476.20001220703</ele>
        <time>2020-09-12T10:08:35.000Z</time>
      </trkpt>
      <trkpt lat="46.53781" lon="5.57941">
        <ele>475</ele>
        <time>2020-09-12T10:08:36.000Z</time>
      </trkpt>
      <trkpt lat="46.53769" lon="5.57938">
        <ele>474.20001220703</ele>
        <time>2020-09-12T10:08:37.000Z</time>
      </trkpt>
      <trkpt lat="46.53757" lon="5.57934">
        <ele>473.20001220703</ele>
        <time>2020-09-12T10:08:38.000Z</time>
      </trkpt>
      <trkpt lat="46.53745" lon="5.57931">
        <ele>472.60000610352</ele>
        <time>2020-09-12T10:08:39.000Z</time>
      </trkpt>
      <trkpt lat="46.53733" lon="5.57928">
        <ele>472</ele>
        <time>2020-09-12T10:08:40.000Z</time>
      </trkpt>
      <trkpt lat="46.53721" lon="5.57924">
        <ele>471.79998779297</ele>
        <time>2020-09-12T10:08:41.000Z</time>
      </trkpt>
      <trkpt lat="46.53698" lon="5.57917">
        <ele>471.20001220703</ele>
        <time>2020-09-12T10:08:43.000Z</time>
      </trkpt>
      <trkpt lat="46.53686" lon="5.57913">
        <ele>471</ele>
        <time>2020-09-12T10:08:44.000Z</time>
      </trkpt>
      <trkpt lat="46.53674" lon="5.5791">
        <ele>470.79998779297</ele>
        <time>2020-09-12T10:08:45.000Z</time>
      </trkpt>
      <trkpt lat="46.53652" lon="5.57903">
        <ele>469.39999389648</ele>
        <time>2020-09-12T10:08:47.000Z</time>
      </trkpt>
      <trkpt lat="46.53629" lon="5.57895">
        <ele>468.20001220703</ele>
        <time>2020-09-12T10:08:49.000Z</time>
      </trkpt>
      <trkpt lat="46.53608" lon="5.57887">
        <ele>467.79998779297</ele>
        <time>2020-09-12T10:08:51.000Z</time>
      </trkpt>
      <trkpt lat="46.53597" lon="5.57882">
        <ele>466.39999389648</ele>
        <time>2020-09-12T10:08:52.000Z</time>
      </trkpt>
      <trkpt lat="46.53586" lon="5.57878">
        <ele>466.20001220703</ele>
        <time>2020-09-12T10:08:53.000Z</time>
      </trkpt>
      <trkpt lat="46.53575" lon="5.57873">
        <ele>466</ele>
        <time>2020-09-12T10:08:54.000Z</time>
      </trkpt>
      <trkpt lat="46.53565" lon="5.57869">
        <ele>466</ele>
        <time>2020-09-12T10:08:55.000Z</time>
      </trkpt>
      <trkpt lat="46.53545" lon="5.57858">
        <ele>465.79998779297</ele>
        <time>2020-09-12T10:08:57.000Z</time>
      </trkpt>
      <trkpt lat="46.53527" lon="5.57846">
        <ele>465.79998779297</ele>
        <time>2020-09-12T10:08:59.000Z</time>
      </trkpt>
      <trkpt lat="46.53511" lon="5.57833">
        <ele>465.79998779297</ele>
        <time>2020-09-12T10:09:01.000Z</time>
      </trkpt>
      <trkpt lat="46.53498" lon="5.57821">
        <ele>466</ele>
        <time>2020-09-12T10:09:03.000Z</time>
      </trkpt>
      <trkpt lat="46.53492" lon="5.57814">
        <ele>466</ele>
        <time>2020-09-12T10:09:04.000Z</time>
      </trkpt>
      <trkpt lat="46.53486" lon="5.57808">
        <ele>466</ele>
        <time>2020-09-12T10:09:05.000Z</time>
      </trkpt>
      <trkpt lat="46.53475" lon="5.57796">
        <ele>466.20001220703</ele>
        <time>2020-09-12T10:09:07.000Z</time>
      </trkpt>
      <trkpt lat="46.53465" lon="5.57785">
        <ele>467.20001220703</ele>
        <time>2020-09-12T10:09:09.000Z</time>
      </trkpt>
      <trkpt lat="46.5346" lon="5.5778">
        <ele>468</ele>
        <time>2020-09-12T10:09:10.000Z</time>
      </trkpt>
      <trkpt lat="46.53454" lon="5.57776">
        <ele>468.79998779297</ele>
        <time>2020-09-12T10:09:11.000Z</time>
      </trkpt>
      <trkpt lat="46.53448" lon="5.57772">
        <ele>469.39999389648</ele>
        <time>2020-09-12T10:09:12.000Z</time>
      </trkpt>
      <trkpt lat="46.53442" lon="5.57768">
        <ele>470</ele>
        <time>2020-09-12T10:09:13.000Z</time>
      </trkpt>
      <trkpt lat="46.53435" lon="5.57765">
        <ele>470.79998779297</ele>
        <time>2020-09-12T10:09:14.000Z</time>
      </trkpt>
      <trkpt lat="46.53429" lon="5.57762">
        <ele>471.20001220703</ele>
        <time>2020-09-12T10:09:15.000Z</time>
      </trkpt>
      <trkpt lat="46.53422" lon="5.57759">
        <ele>471.79998779297</ele>
        <time>2020-09-12T10:09:16.000Z</time>
      </trkpt>
      <trkpt lat="46.53415" lon="5.57756">
        <ele>472.39999389648</ele>
        <time>2020-09-12T10:09:17.000Z</time>
      </trkpt>
      <trkpt lat="46.53401" lon="5.5775">
        <ele>472.79998779297</ele>
        <time>2020-09-12T10:09:19.000Z</time>
      </trkpt>
      <trkpt lat="46.53387" lon="5.57746">
        <ele>473</ele>
        <time>2020-09-12T10:09:21.000Z</time>
      </trkpt>
      <trkpt lat="46.53379" lon="5.57744">
        <ele>473</ele>
        <time>2020-09-12T10:09:22.000Z</time>
      </trkpt>
      <trkpt lat="46.53372" lon="5.57742">
        <ele>473</ele>
        <time>2020-09-12T10:09:23.000Z</time>
      </trkpt>
      <trkpt lat="46.53358" lon="5.57737">
        <ele>473</ele>
        <time>2020-09-12T10:09:25.000Z</time>
      </trkpt>
      <trkpt lat="46.53346" lon="5.57732">
        <ele>473.20001220703</ele>
        <time>2020-09-12T10:09:27.000Z</time>
      </trkpt>
      <trkpt lat="46.53335" lon="5.57726">
        <ele>473.39999389648</ele>
        <time>2020-09-12T10:09:29.000Z</time>
      </trkpt>
      <trkpt lat="46.53324" lon="5.5772">
        <ele>473.39999389648</ele>
        <time>2020-09-12T10:09:31.000Z</time>
      </trkpt>
      <trkpt lat="46.53319" lon="5.57716">
        <ele>473.39999389648</ele>
        <time>2020-09-12T10:09:32.000Z</time>
      </trkpt>
      <trkpt lat="46.53315" lon="5.57711">
        <ele>473.39999389648</ele>
        <time>2020-09-12T10:09:33.000Z</time>
      </trkpt>
      <trkpt lat="46.53306" lon="5.57702">
        <ele>473.39999389648</ele>
        <time>2020-09-12T10:09:35.000Z</time>
      </trkpt>
      <trkpt lat="46.53298" lon="5.57691">
        <ele>473.79998779297</ele>
        <time>2020-09-12T10:09:37.000Z</time>
      </trkpt>
      <trkpt lat="46.53295" lon="5.57685">
        <ele>474.20001220703</ele>
        <time>2020-09-12T10:09:38.000Z</time>
      </trkpt>
      <trkpt lat="46.53293" lon="5.57679">
        <ele>474.39999389648</ele>
        <time>2020-09-12T10:09:39.000Z</time>
      </trkpt>
      <trkpt lat="46.53289" lon="5.57664">
        <ele>474.79998779297</ele>
        <time>2020-09-12T10:09:41.000Z</time>
      </trkpt>
      <trkpt lat="46.53288" lon="5.57655">
        <ele>475.20001220703</ele>
        <time>2020-09-12T10:09:42.000Z</time>
      </trkpt>
      <trkpt lat="46.53288" lon="5.57646">
        <ele>475.39999389648</ele>
        <time>2020-09-12T10:09:43.000Z</time>
      </trkpt>
      <trkpt lat="46.53289" lon="5.57625">
        <ele>475.60000610352</ele>
        <time>2020-09-12T10:09:45.000Z</time>
      </trkpt>
      <trkpt lat="46.5329" lon="5.57615">
        <ele>475.60000610352</ele>
        <time>2020-09-12T10:09:46.000Z</time>
      </trkpt>
      <trkpt lat="46.53291" lon="5.57604">
        <ele>475.60000610352</ele>
        <time>2020-09-12T10:09:47.000Z</time>
      </trkpt>
      <trkpt lat="46.5329" lon="5.57582">
        <ele>475.60000610352</ele>
        <time>2020-09-12T10:09:49.000Z</time>
      </trkpt>
      <trkpt lat="46.53287" lon="5.57559">
        <ele>475.60000610352</ele>
        <time>2020-09-12T10:09:51.000Z</time>
      </trkpt>
      <trkpt lat="46.53283" lon="5.57537">
        <ele>475.60000610352</ele>
        <time>2020-09-12T10:09:53.000Z</time>
      </trkpt>
      <trkpt lat="46.53278" lon="5.57516">
        <ele>475.39999389648</ele>
        <time>2020-09-12T10:09:55.000Z</time>
      </trkpt>
      <trkpt lat="46.53272" lon="5.57496">
        <ele>475.20001220703</ele>
        <time>2020-09-12T10:09:57.000Z</time>
      </trkpt>
      <trkpt lat="46.53269" lon="5.57487">
        <ele>475.20001220703</ele>
        <time>2020-09-12T10:09:58.000Z</time>
      </trkpt>
      <trkpt lat="46.53265" lon="5.57478">
        <ele>475.20001220703</ele>
        <time>2020-09-12T10:09:59.000Z</time>
      </trkpt>
      <trkpt lat="46.53261" lon="5.57469">
        <ele>475.20001220703</ele>
        <time>2020-09-12T10:10:00.000Z</time>
      </trkpt>
      <trkpt lat="46.53251" lon="5.57454">
        <ele>475</ele>
        <time>2020-09-12T10:10:02.000Z</time>
      </trkpt>
      <trkpt lat="46.53245" lon="5.57446">
        <ele>475</ele>
        <time>2020-09-12T10:10:03.000Z</time>
      </trkpt>
      <trkpt lat="46.5324" lon="5.57439">
        <ele>475</ele>
        <time>2020-09-12T10:10:04.000Z</time>
      </trkpt>
      <trkpt lat="46.53235" lon="5.57432">
        <ele>475</ele>
        <time>2020-09-12T10:10:05.000Z</time>
      </trkpt>
      <trkpt lat="46.53224" lon="5.57419">
        <ele>475.20001220703</ele>
        <time>2020-09-12T10:10:07.000Z</time>
      </trkpt>
      <trkpt lat="46.53211" lon="5.57406">
        <ele>475</ele>
        <time>2020-09-12T10:10:09.000Z</time>
      </trkpt>
      <trkpt lat="46.53198" lon="5.57394">
        <ele>475</ele>
        <time>2020-09-12T10:10:11.000Z</time>
      </trkpt>
      <trkpt lat="46.53184" lon="5.57382">
        <ele>474.60000610352</ele>
        <time>2020-09-12T10:10:13.000Z</time>
      </trkpt>
      <trkpt lat="46.5317" lon="5.57369">
        <ele>474.60000610352</ele>
        <time>2020-09-12T10:10:15.000Z</time>
      </trkpt>
      <trkpt lat="46.53163" lon="5.57364">
        <ele>474.60000610352</ele>
        <time>2020-09-12T10:10:16.000Z</time>
      </trkpt>
      <trkpt lat="46.53156" lon="5.57358">
        <ele>474.60000610352</ele>
        <time>2020-09-12T10:10:17.000Z</time>
      </trkpt>
      <trkpt lat="46.53149" lon="5.57352">
        <ele>473.79998779297</ele>
        <time>2020-09-12T10:10:18.000Z</time>
      </trkpt>
      <trkpt lat="46.53141" lon="5.57347">
        <ele>473.20001220703</ele>
        <time>2020-09-12T10:10:19.000Z</time>
      </trkpt>
      <trkpt lat="46.53126" lon="5.57337">
        <ele>472.60000610352</ele>
        <time>2020-09-12T10:10:21.000Z</time>
      </trkpt>
      <trkpt lat="46.53119" lon="5.57331">
        <ele>472.60000610352</ele>
        <time>2020-09-12T10:10:22.000Z</time>
      </trkpt>
      <trkpt lat="46.53111" lon="5.57325">
        <ele>472.39999389648</ele>
        <time>2020-09-12T10:10:23.000Z</time>
      </trkpt>
      <trkpt lat="46.53104" lon="5.57318">
        <ele>472.39999389648</ele>
        <time>2020-09-12T10:10:24.000Z</time>
      </trkpt>
      <trkpt lat="46.53098" lon="5.57309">
        <ele>472</ele>
        <time>2020-09-12T10:10:25.000Z</time>
      </trkpt>
      <trkpt lat="46.53092" lon="5.573">
        <ele>472</ele>
        <time>2020-09-12T10:10:26.000Z</time>
      </trkpt>
      <trkpt lat="46.53087" lon="5.57291">
        <ele>472</ele>
        <time>2020-09-12T10:10:27.000Z</time>
      </trkpt>
      <trkpt lat="46.53083" lon="5.57281">
        <ele>472</ele>
        <time>2020-09-12T10:10:28.000Z</time>
      </trkpt>
      <trkpt lat="46.53078" lon="5.57271">
        <ele>471.60000610352</ele>
        <time>2020-09-12T10:10:29.000Z</time>
      </trkpt>
      <trkpt lat="46.5307" lon="5.57251">
        <ele>471.39999389648</ele>
        <time>2020-09-12T10:10:31.000Z</time>
      </trkpt>
      <trkpt lat="46.53062" lon="5.57231">
        <ele>471.20001220703</ele>
        <time>2020-09-12T10:10:33.000Z</time>
      </trkpt>
      <trkpt lat="46.53054" lon="5.57211">
        <ele>470.79998779297</ele>
        <time>2020-09-12T10:10:35.000Z</time>
      </trkpt>
      <trkpt lat="46.53046" lon="5.57191">
        <ele>470.60000610352</ele>
        <time>2020-09-12T10:10:37.000Z</time>
      </trkpt>
      <trkpt lat="46.53038" lon="5.57171">
        <ele>470.20001220703</ele>
        <time>2020-09-12T10:10:39.000Z</time>
      </trkpt>
      <trkpt lat="46.5303" lon="5.57151">
        <ele>470</ele>
        <time>2020-09-12T10:10:41.000Z</time>
      </trkpt>
      <trkpt lat="46.53022" lon="5.57131">
        <ele>469.79998779297</ele>
        <time>2020-09-12T10:10:43.000Z</time>
      </trkpt>
      <trkpt lat="46.53015" lon="5.5711">
        <ele>469.79998779297</ele>
        <time>2020-09-12T10:10:45.000Z</time>
      </trkpt>
      <trkpt lat="46.53006" lon="5.5709">
        <ele>469.39999389648</ele>
        <time>2020-09-12T10:10:47.000Z</time>
      </trkpt>
      <trkpt lat="46.52999" lon="5.57071">
        <ele>469.39999389648</ele>
        <time>2020-09-12T10:10:49.000Z</time>
      </trkpt>
      <trkpt lat="46.5299" lon="5.57052">
        <ele>469.20001220703</ele>
        <time>2020-09-12T10:10:51.000Z</time>
      </trkpt>
      <trkpt lat="46.52981" lon="5.57035">
        <ele>469.20001220703</ele>
        <time>2020-09-12T10:10:53.000Z</time>
      </trkpt>
      <trkpt lat="46.52975" lon="5.57027">
        <ele>469.20001220703</ele>
        <time>2020-09-12T10:10:54.000Z</time>
      </trkpt>
      <trkpt lat="46.5297" lon="5.57019">
        <ele>469.20001220703</ele>
        <time>2020-09-12T10:10:55.000Z</time>
      </trkpt>
      <trkpt lat="46.52958" lon="5.57004">
        <ele>469.39999389648</ele>
        <time>2020-09-12T10:10:57.000Z</time>
      </trkpt>
      <trkpt lat="46.52948" lon="5.56987">
        <ele>469.39999389648</ele>
        <time>2020-09-12T10:10:59.000Z</time>
      </trkpt>
      <trkpt lat="46.52944" lon="5.56978">
        <ele>469.60000610352</ele>
        <time>2020-09-12T10:11:00.000Z</time>
      </trkpt>
      <trkpt lat="46.52941" lon="5.56968">
        <ele>469.60000610352</ele>
        <time>2020-09-12T10:11:01.000Z</time>
      </trkpt>
      <trkpt lat="46.52934" lon="5.56948">
        <ele>469.60000610352</ele>
        <time>2020-09-12T10:11:03.000Z</time>
      </trkpt>
      <trkpt lat="46.52928" lon="5.56927">
        <ele>469.79998779297</ele>
        <time>2020-09-12T10:11:05.000Z</time>
      </trkpt>
      <trkpt lat="46.52925" lon="5.56917">
        <ele>470</ele>
        <time>2020-09-12T10:11:06.000Z</time>
      </trkpt>
      <trkpt lat="46.52923" lon="5.56906">
        <ele>470</ele>
        <time>2020-09-12T10:11:07.000Z</time>
      </trkpt>
      <trkpt lat="46.52917" lon="5.56886">
        <ele>470.39999389648</ele>
        <time>2020-09-12T10:11:09.000Z</time>
      </trkpt>
      <trkpt lat="46.52912" lon="5.56865">
        <ele>470.60000610352</ele>
        <time>2020-09-12T10:11:11.000Z</time>
      </trkpt>
      <trkpt lat="46.5291" lon="5.56854">
        <ele>470.79998779297</ele>
        <time>2020-09-12T10:11:12.000Z</time>
      </trkpt>
      <trkpt lat="46.52908" lon="5.56843">
        <ele>470.79998779297</ele>
        <time>2020-09-12T10:11:13.000Z</time>
      </trkpt>
      <trkpt lat="46.52903" lon="5.56823">
        <ele>471</ele>
        <time>2020-09-12T10:11:15.000Z</time>
      </trkpt>
      <trkpt lat="46.52898" lon="5.56802">
        <ele>471.20001220703</ele>
        <time>2020-09-12T10:11:17.000Z</time>
      </trkpt>
      <trkpt lat="46.52894" lon="5.56781">
        <ele>471.20001220703</ele>
        <time>2020-09-12T10:11:19.000Z</time>
      </trkpt>
      <trkpt lat="46.52889" lon="5.56759">
        <ele>471.20001220703</ele>
        <time>2020-09-12T10:11:21.000Z</time>
      </trkpt>
      <trkpt lat="46.52885" lon="5.56738">
        <ele>471</ele>
        <time>2020-09-12T10:11:23.000Z</time>
      </trkpt>
      <trkpt lat="46.5288" lon="5.56716">
        <ele>471</ele>
        <time>2020-09-12T10:11:25.000Z</time>
      </trkpt>
      <trkpt lat="46.52875" lon="5.56695">
        <ele>470.60000610352</ele>
        <time>2020-09-12T10:11:27.000Z</time>
      </trkpt>
      <trkpt lat="46.52873" lon="5.56684">
        <ele>470.39999389648</ele>
        <time>2020-09-12T10:11:28.000Z</time>
      </trkpt>
      <trkpt lat="46.5287" lon="5.56673">
        <ele>470</ele>
        <time>2020-09-12T10:11:29.000Z</time>
      </trkpt>
      <trkpt lat="46.52865" lon="5.56651">
        <ele>469.39999389648</ele>
        <time>2020-09-12T10:11:31.000Z</time>
      </trkpt>
      <trkpt lat="46.52863" lon="5.5664">
        <ele>469.20001220703</ele>
        <time>2020-09-12T10:11:32.000Z</time>
      </trkpt>
      <trkpt lat="46.5286" lon="5.56629">
        <ele>469</ele>
        <time>2020-09-12T10:11:33.000Z</time>
      </trkpt>
      <trkpt lat="46.52855" lon="5.56607">
        <ele>468.79998779297</ele>
        <time>2020-09-12T10:11:35.000Z</time>
      </trkpt>
      <trkpt lat="46.5285" lon="5.56585">
        <ele>468.60000610352</ele>
        <time>2020-09-12T10:11:37.000Z</time>
      </trkpt>
      <trkpt lat="46.52845" lon="5.56562">
        <ele>468.39999389648</ele>
        <time>2020-09-12T10:11:39.000Z</time>
      </trkpt>
      <trkpt lat="46.5284" lon="5.5654">
        <ele>468.20001220703</ele>
        <time>2020-09-12T10:11:41.000Z</time>
      </trkpt>
      <trkpt lat="46.52837" lon="5.56528">
        <ele>468.20001220703</ele>
        <time>2020-09-12T10:11:42.000Z</time>
      </trkpt>
      <trkpt lat="46.52834" lon="5.56517">
        <ele>468</ele>
        <time>2020-09-12T10:11:43.000Z</time>
      </trkpt>
      <trkpt lat="46.52828" lon="5.56492">
        <ele>467.79998779297</ele>
        <time>2020-09-12T10:11:45.000Z</time>
      </trkpt>
      <trkpt lat="46.52822" lon="5.56468">
        <ele>467.39999389648</ele>
        <time>2020-09-12T10:11:47.000Z</time>
      </trkpt>
      <trkpt lat="46.52816" lon="5.56443">
        <ele>467</ele>
        <time>2020-09-12T10:11:49.000Z</time>
      </trkpt>
      <trkpt lat="46.5281" lon="5.5642">
        <ele>466.79998779297</ele>
        <time>2020-09-12T10:11:51.000Z</time>
      </trkpt>
      <trkpt lat="46.52805" lon="5.56396">
        <ele>466.20001220703</ele>
        <time>2020-09-12T10:11:53.000Z</time>
      </trkpt>
      <trkpt lat="46.52802" lon="5.56384">
        <ele>466</ele>
        <time>2020-09-12T10:11:54.000Z</time>
      </trkpt>
      <trkpt lat="46.52799" lon="5.56373">
        <ele>465.79998779297</ele>
        <time>2020-09-12T10:11:55.000Z</time>
      </trkpt>
      <trkpt lat="46.52796" lon="5.56361">
        <ele>465.79998779297</ele>
        <time>2020-09-12T10:11:56.000Z</time>
      </trkpt>
      <trkpt lat="46.52794" lon="5.5635">
        <ele>465.60000610352</ele>
        <time>2020-09-12T10:11:57.000Z</time>
      </trkpt>
      <trkpt lat="46.52788" lon="5.56329">
        <ele>465.39999389648</ele>
        <time>2020-09-12T10:11:59.000Z</time>
      </trkpt>
      <trkpt lat="46.52783" lon="5.56307">
        <ele>465.39999389648</ele>
        <time>2020-09-12T10:12:01.000Z</time>
      </trkpt>
      <trkpt lat="46.52778" lon="5.56285">
        <ele>465.39999389648</ele>
        <time>2020-09-12T10:12:03.000Z</time>
      </trkpt>
      <trkpt lat="46.52772" lon="5.56263">
        <ele>465.39999389648</ele>
        <time>2020-09-12T10:12:05.000Z</time>
      </trkpt>
      <trkpt lat="46.52767" lon="5.56241">
        <ele>465.20001220703</ele>
        <time>2020-09-12T10:12:07.000Z</time>
      </trkpt>
      <trkpt lat="46.52761" lon="5.56219">
        <ele>465</ele>
        <time>2020-09-12T10:12:09.000Z</time>
      </trkpt>
      <trkpt lat="46.52756" lon="5.56198">
        <ele>465</ele>
        <time>2020-09-12T10:12:11.000Z</time>
      </trkpt>
      <trkpt lat="46.52751" lon="5.56178">
        <ele>465</ele>
        <time>2020-09-12T10:12:13.000Z</time>
      </trkpt>
      <trkpt lat="46.52746" lon="5.56158">
        <ele>465</ele>
        <time>2020-09-12T10:12:15.000Z</time>
      </trkpt>
      <trkpt lat="46.52743" lon="5.56148">
        <ele>465</ele>
        <time>2020-09-12T10:12:16.000Z</time>
      </trkpt>
      <trkpt lat="46.5274" lon="5.56139">
        <ele>465</ele>
        <time>2020-09-12T10:12:17.000Z</time>
      </trkpt>
      <trkpt lat="46.52736" lon="5.5612">
        <ele>465</ele>
        <time>2020-09-12T10:12:19.000Z</time>
      </trkpt>
      <trkpt lat="46.52731" lon="5.56103">
        <ele>465</ele>
        <time>2020-09-12T10:12:21.000Z</time>
      </trkpt>
      <trkpt lat="46.52729" lon="5.56094">
        <ele>465.20001220703</ele>
        <time>2020-09-12T10:12:22.000Z</time>
      </trkpt>
      <trkpt lat="46.52726" lon="5.56086">
        <ele>465.20001220703</ele>
        <time>2020-09-12T10:12:23.000Z</time>
      </trkpt>
      <trkpt lat="46.52718" lon="5.56076">
        <ele>465.39999389648</ele>
        <time>2020-09-12T10:12:25.000Z</time>
      </trkpt>
      <trkpt lat="46.52705" lon="5.56078">
        <ele>465.60000610352</ele>
        <time>2020-09-12T10:12:27.000Z</time>
      </trkpt>
      <trkpt lat="46.52699" lon="5.56081">
        <ele>465.60000610352</ele>
        <time>2020-09-12T10:12:28.000Z</time>
      </trkpt>
      <trkpt lat="46.52692" lon="5.56084">
        <ele>465.60000610352</ele>
        <time>2020-09-12T10:12:29.000Z</time>
      </trkpt>
      <trkpt lat="46.52678" lon="5.5609">
        <ele>465.79998779297</ele>
        <time>2020-09-12T10:12:31.000Z</time>
      </trkpt>
      <trkpt lat="46.52665" lon="5.56097">
        <ele>465.79998779297</ele>
        <time>2020-09-12T10:12:33.000Z</time>
      </trkpt>
      <trkpt lat="46.52652" lon="5.56102">
        <ele>465.60000610352</ele>
        <time>2020-09-12T10:12:35.000Z</time>
      </trkpt>
      <trkpt lat="46.52639" lon="5.56108">
        <ele>465.60000610352</ele>
        <time>2020-09-12T10:12:37.000Z</time>
      </trkpt>
      <trkpt lat="46.52633" lon="5.5611">
        <ele>465.60000610352</ele>
        <time>2020-09-12T10:12:38.000Z</time>
      </trkpt>
      <trkpt lat="46.52628" lon="5.56111">
        <ele>465.60000610352</ele>
        <time>2020-09-12T10:12:39.000Z</time>
      </trkpt>
      <trkpt lat="46.52624" lon="5.56111">
        <ele>465.60000610352</ele>
        <time>2020-09-12T10:12:40.000Z</time>
      </trkpt>
      <trkpt lat="46.52621" lon="5.56109">
        <ele>465.60000610352</ele>
        <time>2020-09-12T10:12:41.000Z</time>
      </trkpt>
      <trkpt lat="46.52618" lon="5.56104">
        <ele>465.60000610352</ele>
        <time>2020-09-12T10:12:43.000Z</time>
      </trkpt>
      <trkpt lat="46.52617" lon="5.56095">
        <ele>465.60000610352</ele>
        <time>2020-09-12T10:12:45.000Z</time>
      </trkpt>
      <trkpt lat="46.52617" lon="5.56088">
        <ele>465.60000610352</ele>
        <time>2020-09-12T10:12:46.000Z</time>
      </trkpt>
      <trkpt lat="46.52618" lon="5.56081">
        <ele>465.39999389648</ele>
        <time>2020-09-12T10:12:47.000Z</time>
      </trkpt>
      <trkpt lat="46.5262" lon="5.56064">
        <ele>465.39999389648</ele>
        <time>2020-09-12T10:12:49.000Z</time>
      </trkpt>
      <trkpt lat="46.52621" lon="5.56046">
        <ele>465.39999389648</ele>
        <time>2020-09-12T10:12:51.000Z</time>
      </trkpt>
      <trkpt lat="46.52623" lon="5.56026">
        <ele>465.39999389648</ele>
        <time>2020-09-12T10:12:53.000Z</time>
      </trkpt>
      <trkpt lat="46.52625" lon="5.56007">
        <ele>465</ele>
        <time>2020-09-12T10:12:55.000Z</time>
      </trkpt>
      <trkpt lat="46.52626" lon="5.55987">
        <ele>464.60000610352</ele>
        <time>2020-09-12T10:12:57.000Z</time>
      </trkpt>
      <trkpt lat="46.52628" lon="5.55967">
        <ele>464</ele>
        <time>2020-09-12T10:12:59.000Z</time>
      </trkpt>
      <trkpt lat="46.52629" lon="5.55956">
        <ele>463.79998779297</ele>
        <time>2020-09-12T10:13:00.000Z</time>
      </trkpt>
      <trkpt lat="46.52629" lon="5.55946">
        <ele>463.79998779297</ele>
        <time>2020-09-12T10:13:01.000Z</time>
      </trkpt>
      <trkpt lat="46.52631" lon="5.55926">
        <ele>463.60000610352</ele>
        <time>2020-09-12T10:13:03.000Z</time>
      </trkpt>
      <trkpt lat="46.52633" lon="5.55906">
        <ele>463.60000610352</ele>
        <time>2020-09-12T10:13:05.000Z</time>
      </trkpt>
      <trkpt lat="46.52634" lon="5.55886">
        <ele>463.39999389648</ele>
        <time>2020-09-12T10:13:07.000Z</time>
      </trkpt>
      <trkpt lat="46.52636" lon="5.55866">
        <ele>463.39999389648</ele>
        <time>2020-09-12T10:13:09.000Z</time>
      </trkpt>
      <trkpt lat="46.52637" lon="5.55847">
        <ele>463.39999389648</ele>
        <time>2020-09-12T10:13:11.000Z</time>
      </trkpt>
      <trkpt lat="46.52639" lon="5.55827">
        <ele>463.39999389648</ele>
        <time>2020-09-12T10:13:13.000Z</time>
      </trkpt>
      <trkpt lat="46.5264" lon="5.55808">
        <ele>463.39999389648</ele>
        <time>2020-09-12T10:13:15.000Z</time>
      </trkpt>
      <trkpt lat="46.52642" lon="5.5579">
        <ele>463.20001220703</ele>
        <time>2020-09-12T10:13:17.000Z</time>
      </trkpt>
      <trkpt lat="46.52643" lon="5.55771">
        <ele>463.20001220703</ele>
        <time>2020-09-12T10:13:19.000Z</time>
      </trkpt>
      <trkpt lat="46.52644" lon="5.55762">
        <ele>463.20001220703</ele>
        <time>2020-09-12T10:13:20.000Z</time>
      </trkpt>
      <trkpt lat="46.52645" lon="5.55752">
        <ele>463.39999389648</ele>
        <time>2020-09-12T10:13:21.000Z</time>
      </trkpt>
      <trkpt lat="46.52646" lon="5.55734">
        <ele>463.39999389648</ele>
        <time>2020-09-12T10:13:23.000Z</time>
      </trkpt>
      <trkpt lat="46.52647" lon="5.55715">
        <ele>463.60000610352</ele>
        <time>2020-09-12T10:13:25.000Z</time>
      </trkpt>
      <trkpt lat="46.52649" lon="5.55696">
        <ele>463.39999389648</ele>
        <time>2020-09-12T10:13:27.000Z</time>
      </trkpt>
      <trkpt lat="46.5265" lon="5.55676">
        <ele>463.60000610352</ele>
        <time>2020-09-12T10:13:29.000Z</time>
      </trkpt>
      <trkpt lat="46.52652" lon="5.55656">
        <ele>463.79998779297</ele>
        <time>2020-09-12T10:13:31.000Z</time>
      </trkpt>
      <trkpt lat="46.52652" lon="5.55646">
        <ele>463.79998779297</ele>
        <time>2020-09-12T10:13:32.000Z</time>
      </trkpt>
      <trkpt lat="46.52653" lon="5.55636">
        <ele>463.79998779297</ele>
        <time>2020-09-12T10:13:33.000Z</time>
      </trkpt>
      <trkpt lat="46.52655" lon="5.55617">
        <ele>463.79998779297</ele>
        <time>2020-09-12T10:13:35.000Z</time>
      </trkpt>
      <trkpt lat="46.52656" lon="5.55597">
        <ele>463.79998779297</ele>
        <time>2020-09-12T10:13:37.000Z</time>
      </trkpt>
      <trkpt lat="46.52658" lon="5.55578">
        <ele>463.79998779297</ele>
        <time>2020-09-12T10:13:39.000Z</time>
      </trkpt>
      <trkpt lat="46.52659" lon="5.55559">
        <ele>463.79998779297</ele>
        <time>2020-09-12T10:13:41.000Z</time>
      </trkpt>
      <trkpt lat="46.52661" lon="5.5554">
        <ele>463.60000610352</ele>
        <time>2020-09-12T10:13:43.000Z</time>
      </trkpt>
      <trkpt lat="46.52662" lon="5.55521">
        <ele>463.60000610352</ele>
        <time>2020-09-12T10:13:45.000Z</time>
      </trkpt>
      <trkpt lat="46.52663" lon="5.55511">
        <ele>463.60000610352</ele>
        <time>2020-09-12T10:13:46.000Z</time>
      </trkpt>
      <trkpt lat="46.52664" lon="5.55492">
        <ele>463.60000610352</ele>
        <time>2020-09-12T10:13:48.000Z</time>
      </trkpt>
      <trkpt lat="46.52666" lon="5.55473">
        <ele>463.60000610352</ele>
        <time>2020-09-12T10:13:50.000Z</time>
      </trkpt>
      <trkpt lat="46.52667" lon="5.55454">
        <ele>463.60000610352</ele>
        <time>2020-09-12T10:13:52.000Z</time>
      </trkpt>
      <trkpt lat="46.52669" lon="5.55435">
        <ele>464</ele>
        <time>2020-09-12T10:13:54.000Z</time>
      </trkpt>
      <trkpt lat="46.5267" lon="5.55416">
        <ele>464.20001220703</ele>
        <time>2020-09-12T10:13:56.000Z</time>
      </trkpt>
      <trkpt lat="46.52672" lon="5.55397">
        <ele>464.39999389648</ele>
        <time>2020-09-12T10:13:58.000Z</time>
      </trkpt>
      <trkpt lat="46.52673" lon="5.55379">
        <ele>464.39999389648</ele>
        <time>2020-09-12T10:14:00.000Z</time>
      </trkpt>
      <trkpt lat="46.52674" lon="5.55361">
        <ele>464.60000610352</ele>
        <time>2020-09-12T10:14:02.000Z</time>
      </trkpt>
      <trkpt lat="46.52676" lon="5.55343">
        <ele>464.79998779297</ele>
        <time>2020-09-12T10:14:04.000Z</time>
      </trkpt>
      <trkpt lat="46.52677" lon="5.55325">
        <ele>464.79998779297</ele>
        <time>2020-09-12T10:14:06.000Z</time>
      </trkpt>
      <trkpt lat="46.52678" lon="5.55308">
        <ele>465</ele>
        <time>2020-09-12T10:14:08.000Z</time>
      </trkpt>
      <trkpt lat="46.52679" lon="5.55299">
        <ele>465.39999389648</ele>
        <time>2020-09-12T10:14:09.000Z</time>
      </trkpt>
      <trkpt lat="46.5268" lon="5.55291">
        <ele>465.60000610352</ele>
        <time>2020-09-12T10:14:10.000Z</time>
      </trkpt>
      <trkpt lat="46.52681" lon="5.55273">
        <ele>466</ele>
        <time>2020-09-12T10:14:12.000Z</time>
      </trkpt>
      <trkpt lat="46.52682" lon="5.55264">
        <ele>466.20001220703</ele>
        <time>2020-09-12T10:14:13.000Z</time>
      </trkpt>
      <trkpt lat="46.52683" lon="5.55255">
        <ele>466.39999389648</ele>
        <time>2020-09-12T10:14:14.000Z</time>
      </trkpt>
      <trkpt lat="46.52683" lon="5.55246">
        <ele>466.60000610352</ele>
        <time>2020-09-12T10:14:15.000Z</time>
      </trkpt>
      <trkpt lat="46.52684" lon="5.55237">
        <ele>466.60000610352</ele>
        <time>2020-09-12T10:14:16.000Z</time>
      </trkpt>
      <trkpt lat="46.52685" lon="5.55219">
        <ele>466.79998779297</ele>
        <time>2020-09-12T10:14:18.000Z</time>
      </trkpt>
      <trkpt lat="46.52687" lon="5.552">
        <ele>467</ele>
        <time>2020-09-12T10:14:20.000Z</time>
      </trkpt>
      <trkpt lat="46.52688" lon="5.55181">
        <ele>467</ele>
        <time>2020-09-12T10:14:22.000Z</time>
      </trkpt>
      <trkpt lat="46.5269" lon="5.55162">
        <ele>467.20001220703</ele>
        <time>2020-09-12T10:14:24.000Z</time>
      </trkpt>
      <trkpt lat="46.52691" lon="5.55142">
        <ele>467.20001220703</ele>
        <time>2020-09-12T10:14:26.000Z</time>
      </trkpt>
      <trkpt lat="46.52693" lon="5.55122">
        <ele>467.39999389648</ele>
        <time>2020-09-12T10:14:28.000Z</time>
      </trkpt>
      <trkpt lat="46.52694" lon="5.55103">
        <ele>467.39999389648</ele>
        <time>2020-09-12T10:14:30.000Z</time>
      </trkpt>
      <trkpt lat="46.52696" lon="5.55084">
        <ele>467.39999389648</ele>
        <time>2020-09-12T10:14:32.000Z</time>
      </trkpt>
      <trkpt lat="46.52697" lon="5.55065">
        <ele>467.39999389648</ele>
        <time>2020-09-12T10:14:34.000Z</time>
      </trkpt>
      <trkpt lat="46.52698" lon="5.55055">
        <ele>467.39999389648</ele>
        <time>2020-09-12T10:14:35.000Z</time>
      </trkpt>
      <trkpt lat="46.52699" lon="5.55046">
        <ele>467.39999389648</ele>
        <time>2020-09-12T10:14:36.000Z</time>
      </trkpt>
      <trkpt lat="46.527" lon="5.55027">
        <ele>467.60000610352</ele>
        <time>2020-09-12T10:14:38.000Z</time>
      </trkpt>
      <trkpt lat="46.52702" lon="5.55009">
        <ele>467.60000610352</ele>
        <time>2020-09-12T10:14:40.000Z</time>
      </trkpt>
      <trkpt lat="46.52703" lon="5.54991">
        <ele>467.60000610352</ele>
        <time>2020-09-12T10:14:42.000Z</time>
      </trkpt>
      <trkpt lat="46.52705" lon="5.54973">
        <ele>467.79998779297</ele>
        <time>2020-09-12T10:14:44.000Z</time>
      </trkpt>
      <trkpt lat="46.52706" lon="5.54956">
        <ele>468</ele>
        <time>2020-09-12T10:14:46.000Z</time>
      </trkpt>
      <trkpt lat="46.52707" lon="5.5494">
        <ele>468.39999389648</ele>
        <time>2020-09-12T10:14:48.000Z</time>
      </trkpt>
      <trkpt lat="46.52708" lon="5.54924">
        <ele>468.60000610352</ele>
        <time>2020-09-12T10:14:50.000Z</time>
      </trkpt>
      <trkpt lat="46.52709" lon="5.54916">
        <ele>468.79998779297</ele>
        <time>2020-09-12T10:14:51.000Z</time>
      </trkpt>
      <trkpt lat="46.5271" lon="5.54909">
        <ele>468.79998779297</ele>
        <time>2020-09-12T10:14:52.000Z</time>
      </trkpt>
      <trkpt lat="46.52711" lon="5.54894">
        <ele>469.60000610352</ele>
        <time>2020-09-12T10:14:54.000Z</time>
      </trkpt>
      <trkpt lat="46.52711" lon="5.54886">
        <ele>470</ele>
        <time>2020-09-12T10:14:55.000Z</time>
      </trkpt>
      <trkpt lat="46.52712" lon="5.54879">
        <ele>470.39999389648</ele>
        <time>2020-09-12T10:14:56.000Z</time>
      </trkpt>
      <trkpt lat="46.52713" lon="5.54864">
        <ele>471.20001220703</ele>
        <time>2020-09-12T10:14:58.000Z</time>
      </trkpt>
      <trkpt lat="46.52714" lon="5.54849">
        <ele>471.79998779297</ele>
        <time>2020-09-12T10:15:00.000Z</time>
      </trkpt>
      <trkpt lat="46.52714" lon="5.54841">
        <ele>472</ele>
        <time>2020-09-12T10:15:01.000Z</time>
      </trkpt>
      <trkpt lat="46.52715" lon="5.54833">
        <ele>472.20001220703</ele>
        <time>2020-09-12T10:15:02.000Z</time>
      </trkpt>
      <trkpt lat="46.52715" lon="5.54825">
        <ele>472.20001220703</ele>
        <time>2020-09-12T10:15:03.000Z</time>
      </trkpt>
      <trkpt lat="46.52716" lon="5.54818">
        <ele>472.39999389648</ele>
        <time>2020-09-12T10:15:04.000Z</time>
      </trkpt>
      <trkpt lat="46.52717" lon="5.54803">
        <ele>473</ele>
        <time>2020-09-12T10:15:06.000Z</time>
      </trkpt>
      <trkpt lat="46.52718" lon="5.54788">
        <ele>473.20001220703</ele>
        <time>2020-09-12T10:15:08.000Z</time>
      </trkpt>
      <trkpt lat="46.52719" lon="5.54773">
        <ele>473.39999389648</ele>
        <time>2020-09-12T10:15:10.000Z</time>
      </trkpt>
      <trkpt lat="46.52721" lon="5.54757">
        <ele>473.60000610352</ele>
        <time>2020-09-12T10:15:12.000Z</time>
      </trkpt>
      <trkpt lat="46.52722" lon="5.54741">
        <ele>473.60000610352</ele>
        <time>2020-09-12T10:15:14.000Z</time>
      </trkpt>
      <trkpt lat="46.52723" lon="5.54725">
        <ele>474</ele>
        <time>2020-09-12T10:15:16.000Z</time>
      </trkpt>
      <trkpt lat="46.52724" lon="5.54708">
        <ele>474.39999389648</ele>
        <time>2020-09-12T10:15:18.000Z</time>
      </trkpt>
      <trkpt lat="46.52725" lon="5.54692">
        <ele>474.79998779297</ele>
        <time>2020-09-12T10:15:20.000Z</time>
      </trkpt>
      <trkpt lat="46.52726" lon="5.54676">
        <ele>475</ele>
        <time>2020-09-12T10:15:22.000Z</time>
      </trkpt>
      <trkpt lat="46.52727" lon="5.54668">
        <ele>475</ele>
        <time>2020-09-12T10:15:23.000Z</time>
      </trkpt>
      <trkpt lat="46.52728" lon="5.5466">
        <ele>475.20001220703</ele>
        <time>2020-09-12T10:15:24.000Z</time>
      </trkpt>
      <trkpt lat="46.52729" lon="5.54653">
        <ele>475.39999389648</ele>
        <time>2020-09-12T10:15:25.000Z</time>
      </trkpt>
      <trkpt lat="46.52729" lon="5.54645">
        <ele>475.60000610352</ele>
        <time>2020-09-12T10:15:26.000Z</time>
      </trkpt>
      <trkpt lat="46.52731" lon="5.54638">
        <ele>475.79998779297</ele>
        <time>2020-09-12T10:15:27.000Z</time>
      </trkpt>
      <trkpt lat="46.52732" lon="5.54631">
        <ele>476</ele>
        <time>2020-09-12T10:15:28.000Z</time>
      </trkpt>
      <trkpt lat="46.52737" lon="5.54618">
        <ele>476.20001220703</ele>
        <time>2020-09-12T10:15:30.000Z</time>
      </trkpt>
      <trkpt lat="46.52744" lon="5.5461">
        <ele>476.39999389648</ele>
        <time>2020-09-12T10:15:32.000Z</time>
      </trkpt>
      <trkpt lat="46.52748" lon="5.54607">
        <ele>476.60000610352</ele>
        <time>2020-09-12T10:15:33.000Z</time>
      </trkpt>
      <trkpt lat="46.52752" lon="5.54606">
        <ele>476.79998779297</ele>
        <time>2020-09-12T10:15:34.000Z</time>
      </trkpt>
      <trkpt lat="46.5276" lon="5.54605">
        <ele>477.39999389648</ele>
        <time>2020-09-12T10:15:36.000Z</time>
      </trkpt>
      <trkpt lat="46.52764" lon="5.54605">
        <ele>477.39999389648</ele>
        <time>2020-09-12T10:15:37.000Z</time>
      </trkpt>
      <trkpt lat="46.52769" lon="5.54605">
        <ele>477.79998779297</ele>
        <time>2020-09-12T10:15:38.000Z</time>
      </trkpt>
      <trkpt lat="46.52777" lon="5.54606">
        <ele>478.60000610352</ele>
        <time>2020-09-12T10:15:40.000Z</time>
      </trkpt>
      <trkpt lat="46.52781" lon="5.54606">
        <ele>478.79998779297</ele>
        <time>2020-09-12T10:15:41.000Z</time>
      </trkpt>
      <trkpt lat="46.52785" lon="5.54606">
        <ele>479</ele>
        <time>2020-09-12T10:15:42.000Z</time>
      </trkpt>
      <trkpt lat="46.52793" lon="5.54606">
        <ele>479.20001220703</ele>
        <time>2020-09-12T10:15:44.000Z</time>
      </trkpt>
      <trkpt lat="46.52801" lon="5.54607">
        <ele>479.39999389648</ele>
        <time>2020-09-12T10:15:46.000Z</time>
      </trkpt>
      <trkpt lat="46.52809" lon="5.54607">
        <ele>480</ele>
        <time>2020-09-12T10:15:48.000Z</time>
      </trkpt>
      <trkpt lat="46.52818" lon="5.54608">
        <ele>480.60000610352</ele>
        <time>2020-09-12T10:15:50.000Z</time>
      </trkpt>
      <trkpt lat="46.52825" lon="5.54609">
        <ele>480.79998779297</ele>
        <time>2020-09-12T10:15:52.000Z</time>
      </trkpt>
      <trkpt lat="46.52829" lon="5.54609">
        <ele>481</ele>
        <time>2020-09-12T10:15:53.000Z</time>
      </trkpt>
      <trkpt lat="46.52833" lon="5.54609">
        <ele>481.60000610352</ele>
        <time>2020-09-12T10:15:54.000Z</time>
      </trkpt>
      <trkpt lat="46.52837" lon="5.54609">
        <ele>482.20001220703</ele>
        <time>2020-09-12T10:15:55.000Z</time>
      </trkpt>
      <trkpt lat="46.5284" lon="5.5461">
        <ele>482.39999389648</ele>
        <time>2020-09-12T10:15:56.000Z</time>
      </trkpt>
      <trkpt lat="46.52848" lon="5.54611">
        <ele>483.20001220703</ele>
        <time>2020-09-12T10:15:58.000Z</time>
      </trkpt>
      <trkpt lat="46.52856" lon="5.54611">
        <ele>483.79998779297</ele>
        <time>2020-09-12T10:16:00.000Z</time>
      </trkpt>
      <trkpt lat="46.52864" lon="5.54612">
        <ele>484</ele>
        <time>2020-09-12T10:16:02.000Z</time>
      </trkpt>
      <trkpt lat="46.52868" lon="5.54612">
        <ele>484.39999389648</ele>
        <time>2020-09-12T10:16:03.000Z</time>
      </trkpt>
      <trkpt lat="46.52872" lon="5.54612">
        <ele>484.79998779297</ele>
        <time>2020-09-12T10:16:04.000Z</time>
      </trkpt>
      <trkpt lat="46.52881" lon="5.54613">
        <ele>485.39999389648</ele>
        <time>2020-09-12T10:16:06.000Z</time>
      </trkpt>
      <trkpt lat="46.52889" lon="5.54614">
        <ele>485.79998779297</ele>
        <time>2020-09-12T10:16:08.000Z</time>
      </trkpt>
      <trkpt lat="46.52898" lon="5.54615">
        <ele>486</ele>
        <time>2020-09-12T10:16:10.000Z</time>
      </trkpt>
      <trkpt lat="46.52902" lon="5.54615">
        <ele>486.20001220703</ele>
        <time>2020-09-12T10:16:11.000Z</time>
      </trkpt>
      <trkpt lat="46.52906" lon="5.54615">
        <ele>486.20001220703</ele>
        <time>2020-09-12T10:16:12.000Z</time>
      </trkpt>
      <trkpt lat="46.52915" lon="5.54615">
        <ele>486.60000610352</ele>
        <time>2020-09-12T10:16:14.000Z</time>
      </trkpt>
      <trkpt lat="46.52923" lon="5.54616">
        <ele>487</ele>
        <time>2020-09-12T10:16:16.000Z</time>
      </trkpt>
      <trkpt lat="46.52932" lon="5.54617">
        <ele>487.20001220703</ele>
        <time>2020-09-12T10:16:18.000Z</time>
      </trkpt>
      <trkpt lat="46.52941" lon="5.54618">
        <ele>487.20001220703</ele>
        <time>2020-09-12T10:16:20.000Z</time>
      </trkpt>
      <trkpt lat="46.52951" lon="5.54619">
        <ele>487.39999389648</ele>
        <time>2020-09-12T10:16:22.000Z</time>
      </trkpt>
      <trkpt lat="46.5296" lon="5.5462">
        <ele>487.39999389648</ele>
        <time>2020-09-12T10:16:24.000Z</time>
      </trkpt>
      <trkpt lat="46.5297" lon="5.5462">
        <ele>487.39999389648</ele>
        <time>2020-09-12T10:16:26.000Z</time>
      </trkpt>
      <trkpt lat="46.52975" lon="5.54621">
        <ele>487.39999389648</ele>
        <time>2020-09-12T10:16:27.000Z</time>
      </trkpt>
      <trkpt lat="46.52979" lon="5.54621">
        <ele>487.39999389648</ele>
        <time>2020-09-12T10:16:28.000Z</time>
      </trkpt>
      <trkpt lat="46.52989" lon="5.54622">
        <ele>487.39999389648</ele>
        <time>2020-09-12T10:16:30.000Z</time>
      </trkpt>
      <trkpt lat="46.52998" lon="5.54623">
        <ele>487.39999389648</ele>
        <time>2020-09-12T10:16:32.000Z</time>
      </trkpt>
      <trkpt lat="46.53008" lon="5.54624">
        <ele>487.60000610352</ele>
        <time>2020-09-12T10:16:34.000Z</time>
      </trkpt>
      <trkpt lat="46.53017" lon="5.54625">
        <ele>488</ele>
        <time>2020-09-12T10:16:36.000Z</time>
      </trkpt>
      <trkpt lat="46.53022" lon="5.54626">
        <ele>488.20001220703</ele>
        <time>2020-09-12T10:16:37.000Z</time>
      </trkpt>
      <trkpt lat="46.53026" lon="5.54627">
        <ele>488.20001220703</ele>
        <time>2020-09-12T10:16:38.000Z</time>
      </trkpt>
      <trkpt lat="46.53035" lon="5.54628">
        <ele>488.20001220703</ele>
        <time>2020-09-12T10:16:40.000Z</time>
      </trkpt>
      <trkpt lat="46.53044" lon="5.54629">
        <ele>488.39999389648</ele>
        <time>2020-09-12T10:16:42.000Z</time>
      </trkpt>
      <trkpt lat="46.53053" lon="5.5463">
        <ele>488.60000610352</ele>
        <time>2020-09-12T10:16:44.000Z</time>
      </trkpt>
      <trkpt lat="46.53058" lon="5.5463">
        <ele>488.60000610352</ele>
        <time>2020-09-12T10:16:45.000Z</time>
      </trkpt>
      <trkpt lat="46.53062" lon="5.54631">
        <ele>488.79998779297</ele>
        <time>2020-09-12T10:16:46.000Z</time>
      </trkpt>
      <trkpt lat="46.5307" lon="5.54631">
        <ele>489.20001220703</ele>
        <time>2020-09-12T10:16:48.000Z</time>
      </trkpt>
      <trkpt lat="46.53079" lon="5.54632">
        <ele>489.60000610352</ele>
        <time>2020-09-12T10:16:50.000Z</time>
      </trkpt>
      <trkpt lat="46.53084" lon="5.54632">
        <ele>489.60000610352</ele>
        <time>2020-09-12T10:16:51.000Z</time>
      </trkpt>
      <trkpt lat="46.53088" lon="5.54632">
        <ele>489.79998779297</ele>
        <time>2020-09-12T10:16:52.000Z</time>
      </trkpt>
      <trkpt lat="46.53097" lon="5.54633">
        <ele>490</ele>
        <time>2020-09-12T10:16:54.000Z</time>
      </trkpt>
      <trkpt lat="46.53102" lon="5.54633">
        <ele>490.20001220703</ele>
        <time>2020-09-12T10:16:55.000Z</time>
      </trkpt>
      <trkpt lat="46.53106" lon="5.54634">
        <ele>490.20001220703</ele>
        <time>2020-09-12T10:16:56.000Z</time>
      </trkpt>
      <trkpt lat="46.53116" lon="5.54635">
        <ele>490.20001220703</ele>
        <time>2020-09-12T10:16:58.000Z</time>
      </trkpt>
      <trkpt lat="46.5312" lon="5.54636">
        <ele>490.39999389648</ele>
        <time>2020-09-12T10:16:59.000Z</time>
      </trkpt>
      <trkpt lat="46.53125" lon="5.54636">
        <ele>490.60000610352</ele>
        <time>2020-09-12T10:17:00.000Z</time>
      </trkpt>
      <trkpt lat="46.5313" lon="5.54638">
        <ele>490.79998779297</ele>
        <time>2020-09-12T10:17:01.000Z</time>
      </trkpt>
      <trkpt lat="46.53134" lon="5.54639">
        <ele>491</ele>
        <time>2020-09-12T10:17:02.000Z</time>
      </trkpt>
      <trkpt lat="46.53138" lon="5.5464">
        <ele>491.79998779297</ele>
        <time>2020-09-12T10:17:03.000Z</time>
      </trkpt>
      <trkpt lat="46.53143" lon="5.54641">
        <ele>492.20001220703</ele>
        <time>2020-09-12T10:17:04.000Z</time>
      </trkpt>
      <trkpt lat="46.53152" lon="5.54643">
        <ele>492.60000610352</ele>
        <time>2020-09-12T10:17:06.000Z</time>
      </trkpt>
      <trkpt lat="46.5316" lon="5.54646">
        <ele>493</ele>
        <time>2020-09-12T10:17:08.000Z</time>
      </trkpt>
      <trkpt lat="46.53168" lon="5.54647">
        <ele>493.60000610352</ele>
        <time>2020-09-12T10:17:10.000Z</time>
      </trkpt>
      <trkpt lat="46.53177" lon="5.54648">
        <ele>494.20001220703</ele>
        <time>2020-09-12T10:17:12.000Z</time>
      </trkpt>
      <trkpt lat="46.53185" lon="5.5465">
        <ele>494.60000610352</ele>
        <time>2020-09-12T10:17:14.000Z</time>
      </trkpt>
      <trkpt lat="46.53194" lon="5.54651">
        <ele>495</ele>
        <time>2020-09-12T10:17:16.000Z</time>
      </trkpt>
      <trkpt lat="46.53203" lon="5.54652">
        <ele>495.20001220703</ele>
        <time>2020-09-12T10:17:18.000Z</time>
      </trkpt>
      <trkpt lat="46.53207" lon="5.54652">
        <ele>495.39999389648</ele>
        <time>2020-09-12T10:17:19.000Z</time>
      </trkpt>
      <trkpt lat="46.53212" lon="5.54653">
        <ele>495.60000610352</ele>
        <time>2020-09-12T10:17:20.000Z</time>
      </trkpt>
      <trkpt lat="46.53221" lon="5.54653">
        <ele>496.20001220703</ele>
        <time>2020-09-12T10:17:22.000Z</time>
      </trkpt>
      <trkpt lat="46.53226" lon="5.54654">
        <ele>496.39999389648</ele>
        <time>2020-09-12T10:17:23.000Z</time>
      </trkpt>
      <trkpt lat="46.5323" lon="5.54655">
        <ele>496.60000610352</ele>
        <time>2020-09-12T10:17:24.000Z</time>
      </trkpt>
      <trkpt lat="46.53235" lon="5.54656">
        <ele>496.79998779297</ele>
        <time>2020-09-12T10:17:25.000Z</time>
      </trkpt>
      <trkpt lat="46.5324" lon="5.54657">
        <ele>497</ele>
        <time>2020-09-12T10:17:26.000Z</time>
      </trkpt>
      <trkpt lat="46.53249" lon="5.54659">
        <ele>497.39999389648</ele>
        <time>2020-09-12T10:17:28.000Z</time>
      </trkpt>
      <trkpt lat="46.53254" lon="5.5466">
        <ele>497.60000610352</ele>
        <time>2020-09-12T10:17:29.000Z</time>
      </trkpt>
      <trkpt lat="46.53258" lon="5.5466">
        <ele>498</ele>
        <time>2020-09-12T10:17:30.000Z</time>
      </trkpt>
      <trkpt lat="46.53267" lon="5.54662">
        <ele>498.60000610352</ele>
        <time>2020-09-12T10:17:32.000Z</time>
      </trkpt>
      <trkpt lat="46.53277" lon="5.54664">
        <ele>498.79998779297</ele>
        <time>2020-09-12T10:17:34.000Z</time>
      </trkpt>
      <trkpt lat="46.53281" lon="5.54665">
        <ele>499</ele>
        <time>2020-09-12T10:17:35.000Z</time>
      </trkpt>
      <trkpt lat="46.53286" lon="5.54667">
        <ele>499.20001220703</ele>
        <time>2020-09-12T10:17:36.000Z</time>
      </trkpt>
      <trkpt lat="46.53296" lon="5.54669">
        <ele>499.79998779297</ele>
        <time>2020-09-12T10:17:38.000Z</time>
      </trkpt>
      <trkpt lat="46.53305" lon="5.54672">
        <ele>500.20001220703</ele>
        <time>2020-09-12T10:17:40.000Z</time>
      </trkpt>
      <trkpt lat="46.53316" lon="5.54675">
        <ele>500.39999389648</ele>
        <time>2020-09-12T10:17:42.000Z</time>
      </trkpt>
      <trkpt lat="46.53325" lon="5.54679">
        <ele>500.60000610352</ele>
        <time>2020-09-12T10:17:44.000Z</time>
      </trkpt>
      <trkpt lat="46.53335" lon="5.54682">
        <ele>501</ele>
        <time>2020-09-12T10:17:46.000Z</time>
      </trkpt>
      <trkpt lat="46.53344" lon="5.54685">
        <ele>501.20001220703</ele>
        <time>2020-09-12T10:17:48.000Z</time>
      </trkpt>
      <trkpt lat="46.53354" lon="5.54688">
        <ele>501.20001220703</ele>
        <time>2020-09-12T10:17:50.000Z</time>
      </trkpt>
      <trkpt lat="46.53364" lon="5.54691">
        <ele>501.39999389648</ele>
        <time>2020-09-12T10:17:52.000Z</time>
      </trkpt>
      <trkpt lat="46.53369" lon="5.54693">
        <ele>501.39999389648</ele>
        <time>2020-09-12T10:17:53.000Z</time>
      </trkpt>
      <trkpt lat="46.53374" lon="5.54695">
        <ele>501.60000610352</ele>
        <time>2020-09-12T10:17:54.000Z</time>
      </trkpt>
      <trkpt lat="46.53385" lon="5.54698">
        <ele>501.60000610352</ele>
        <time>2020-09-12T10:17:56.000Z</time>
      </trkpt>
      <trkpt lat="46.53395" lon="5.54702">
        <ele>501.79998779297</ele>
        <time>2020-09-12T10:17:58.000Z</time>
      </trkpt>
      <trkpt lat="46.53406" lon="5.54705">
        <ele>502.20001220703</ele>
        <time>2020-09-12T10:18:00.000Z</time>
      </trkpt>
      <trkpt lat="46.53416" lon="5.54709">
        <ele>502.79998779297</ele>
        <time>2020-09-12T10:18:02.000Z</time>
      </trkpt>
      <trkpt lat="46.53422" lon="5.5471">
        <ele>502.79998779297</ele>
        <time>2020-09-12T10:18:03.000Z</time>
      </trkpt>
      <trkpt lat="46.53427" lon="5.54712">
        <ele>503</ele>
        <time>2020-09-12T10:18:04.000Z</time>
      </trkpt>
      <trkpt lat="46.53437" lon="5.54715">
        <ele>503</ele>
        <time>2020-09-12T10:18:06.000Z</time>
      </trkpt>
      <trkpt lat="46.53447" lon="5.54719">
        <ele>503.20001220703</ele>
        <time>2020-09-12T10:18:08.000Z</time>
      </trkpt>
      <trkpt lat="46.53452" lon="5.54721">
        <ele>503.20001220703</ele>
        <time>2020-09-12T10:18:09.000Z</time>
      </trkpt>
      <trkpt lat="46.53457" lon="5.54723">
        <ele>503.20001220703</ele>
        <time>2020-09-12T10:18:10.000Z</time>
      </trkpt>
      <trkpt lat="46.53467" lon="5.54726">
        <ele>503.39999389648</ele>
        <time>2020-09-12T10:18:12.000Z</time>
      </trkpt>
      <trkpt lat="46.53477" lon="5.54729">
        <ele>503.79998779297</ele>
        <time>2020-09-12T10:18:14.000Z</time>
      </trkpt>
      <trkpt lat="46.53487" lon="5.54733">
        <ele>504.20001220703</ele>
        <time>2020-09-12T10:18:16.000Z</time>
      </trkpt>
      <trkpt lat="46.53496" lon="5.54736">
        <ele>504.20001220703</ele>
        <time>2020-09-12T10:18:18.000Z</time>
      </trkpt>
      <trkpt lat="46.53506" lon="5.54739">
        <ele>504.39999389648</ele>
        <time>2020-09-12T10:18:20.000Z</time>
      </trkpt>
      <trkpt lat="46.53516" lon="5.54742">
        <ele>504.60000610352</ele>
        <time>2020-09-12T10:18:22.000Z</time>
      </trkpt>
      <trkpt lat="46.53521" lon="5.54744">
        <ele>504.60000610352</ele>
        <time>2020-09-12T10:18:23.000Z</time>
      </trkpt>
      <trkpt lat="46.53526" lon="5.54746">
        <ele>504.79998779297</ele>
        <time>2020-09-12T10:18:24.000Z</time>
      </trkpt>
      <trkpt lat="46.53536" lon="5.54749">
        <ele>505</ele>
        <time>2020-09-12T10:18:26.000Z</time>
      </trkpt>
      <trkpt lat="46.53546" lon="5.54752">
        <ele>505.20001220703</ele>
        <time>2020-09-12T10:18:28.000Z</time>
      </trkpt>
      <trkpt lat="46.53551" lon="5.54754">
        <ele>505.39999389648</ele>
        <time>2020-09-12T10:18:29.000Z</time>
      </trkpt>
      <trkpt lat="46.53555" lon="5.54756">
        <ele>505.79998779297</ele>
        <time>2020-09-12T10:18:30.000Z</time>
      </trkpt>
      <trkpt lat="46.53565" lon="5.54759">
        <ele>506</ele>
        <time>2020-09-12T10:18:32.000Z</time>
      </trkpt>
      <trkpt lat="46.5357" lon="5.5476">
        <ele>506.20001220703</ele>
        <time>2020-09-12T10:18:33.000Z</time>
      </trkpt>
      <trkpt lat="46.53575" lon="5.54762">
        <ele>506.39999389648</ele>
        <time>2020-09-12T10:18:34.000Z</time>
      </trkpt>
      <trkpt lat="46.53579" lon="5.54764">
        <ele>506.39999389648</ele>
        <time>2020-09-12T10:18:35.000Z</time>
      </trkpt>
      <trkpt lat="46.53584" lon="5.54765">
        <ele>506.79998779297</ele>
        <time>2020-09-12T10:18:36.000Z</time>
      </trkpt>
      <trkpt lat="46.53593" lon="5.54768">
        <ele>507</ele>
        <time>2020-09-12T10:18:38.000Z</time>
      </trkpt>
      <trkpt lat="46.53603" lon="5.54771">
        <ele>507.39999389648</ele>
        <time>2020-09-12T10:18:40.000Z</time>
      </trkpt>
      <trkpt lat="46.53607" lon="5.54773">
        <ele>507.60000610352</ele>
        <time>2020-09-12T10:18:41.000Z</time>
      </trkpt>
      <trkpt lat="46.53612" lon="5.54774">
        <ele>507.79998779297</ele>
        <time>2020-09-12T10:18:42.000Z</time>
      </trkpt>
      <trkpt lat="46.53622" lon="5.54777">
        <ele>508.20001220703</ele>
        <time>2020-09-12T10:18:44.000Z</time>
      </trkpt>
      <trkpt lat="46.53627" lon="5.54778">
        <ele>508.39999389648</ele>
        <time>2020-09-12T10:18:45.000Z</time>
      </trkpt>
      <trkpt lat="46.53631" lon="5.5478">
        <ele>508.60000610352</ele>
        <time>2020-09-12T10:18:46.000Z</time>
      </trkpt>
      <trkpt lat="46.53636" lon="5.54782">
        <ele>508.60000610352</ele>
        <time>2020-09-12T10:18:47.000Z</time>
      </trkpt>
      <trkpt lat="46.53641" lon="5.54783">
        <ele>508.79998779297</ele>
        <time>2020-09-12T10:18:48.000Z</time>
      </trkpt>
      <trkpt lat="46.5365" lon="5.54786">
        <ele>508.79998779297</ele>
        <time>2020-09-12T10:18:50.000Z</time>
      </trkpt>
      <trkpt lat="46.5366" lon="5.54789">
        <ele>509.20001220703</ele>
        <time>2020-09-12T10:18:52.000Z</time>
      </trkpt>
      <trkpt lat="46.53669" lon="5.54793">
        <ele>509.79998779297</ele>
        <time>2020-09-12T10:18:54.000Z</time>
      </trkpt>
      <trkpt lat="46.53674" lon="5.54794">
        <ele>510</ele>
        <time>2020-09-12T10:18:55.000Z</time>
      </trkpt>
      <trkpt lat="46.53679" lon="5.54796">
        <ele>510</ele>
        <time>2020-09-12T10:18:56.000Z</time>
      </trkpt>
      <trkpt lat="46.53688" lon="5.54799">
        <ele>510.39999389648</ele>
        <time>2020-09-12T10:18:58.000Z</time>
      </trkpt>
      <trkpt lat="46.53693" lon="5.54801">
        <ele>511</ele>
        <time>2020-09-12T10:18:59.000Z</time>
      </trkpt>
      <trkpt lat="46.53698" lon="5.54802">
        <ele>511.39999389648</ele>
        <time>2020-09-12T10:19:00.000Z</time>
      </trkpt>
      <trkpt lat="46.53707" lon="5.54806">
        <ele>511.60000610352</ele>
        <time>2020-09-12T10:19:02.000Z</time>
      </trkpt>
      <trkpt lat="46.53717" lon="5.5481">
        <ele>511.79998779297</ele>
        <time>2020-09-12T10:19:04.000Z</time>
      </trkpt>
      <trkpt lat="46.53726" lon="5.54813">
        <ele>512.20001220703</ele>
        <time>2020-09-12T10:19:06.000Z</time>
      </trkpt>
      <trkpt lat="46.53736" lon="5.54817">
        <ele>512.40002441406</ele>
        <time>2020-09-12T10:19:08.000Z</time>
      </trkpt>
      <trkpt lat="46.53746" lon="5.5482">
        <ele>512.59997558594</ele>
        <time>2020-09-12T10:19:10.000Z</time>
      </trkpt>
      <trkpt lat="46.53756" lon="5.54822">
        <ele>513</ele>
        <time>2020-09-12T10:19:12.000Z</time>
      </trkpt>
      <trkpt lat="46.53766" lon="5.54823">
        <ele>513.20001220703</ele>
        <time>2020-09-12T10:19:14.000Z</time>
      </trkpt>
      <trkpt lat="46.53771" lon="5.54823">
        <ele>513.20001220703</ele>
        <time>2020-09-12T10:19:15.000Z</time>
      </trkpt>
      <trkpt lat="46.53776" lon="5.54823">
        <ele>513.20001220703</ele>
        <time>2020-09-12T10:19:16.000Z</time>
      </trkpt>
      <trkpt lat="46.53781" lon="5.54822">
        <ele>513.20001220703</ele>
        <time>2020-09-12T10:19:17.000Z</time>
      </trkpt>
      <trkpt lat="46.53787" lon="5.54822">
        <ele>513.20001220703</ele>
        <time>2020-09-12T10:19:18.000Z</time>
      </trkpt>
      <trkpt lat="46.53797" lon="5.54821">
        <ele>513.40002441406</ele>
        <time>2020-09-12T10:19:20.000Z</time>
      </trkpt>
      <trkpt lat="46.53807" lon="5.54819">
        <ele>513.59997558594</ele>
        <time>2020-09-12T10:19:22.000Z</time>
      </trkpt>
      <trkpt lat="46.53817" lon="5.54817">
        <ele>513.59997558594</ele>
        <time>2020-09-12T10:19:24.000Z</time>
      </trkpt>
      <trkpt lat="46.53826" lon="5.54814">
        <ele>513.79998779297</ele>
        <time>2020-09-12T10:19:26.000Z</time>
      </trkpt>
      <trkpt lat="46.53836" lon="5.54812">
        <ele>514.20001220703</ele>
        <time>2020-09-12T10:19:28.000Z</time>
      </trkpt>
      <trkpt lat="46.53846" lon="5.54809">
        <ele>514.20001220703</ele>
        <time>2020-09-12T10:19:30.000Z</time>
      </trkpt>
      <trkpt lat="46.53855" lon="5.54807">
        <ele>514.79998779297</ele>
        <time>2020-09-12T10:19:32.000Z</time>
      </trkpt>
      <trkpt lat="46.53866" lon="5.54804">
        <ele>515.20001220703</ele>
        <time>2020-09-12T10:19:34.000Z</time>
      </trkpt>
      <trkpt lat="46.53876" lon="5.54802">
        <ele>516</ele>
        <time>2020-09-12T10:19:36.000Z</time>
      </trkpt>
      <trkpt lat="46.53886" lon="5.54799">
        <ele>516.20001220703</ele>
        <time>2020-09-12T10:19:38.000Z</time>
      </trkpt>
      <trkpt lat="46.53897" lon="5.54795">
        <ele>516.20001220703</ele>
        <time>2020-09-12T10:19:40.000Z</time>
      </trkpt>
      <trkpt lat="46.53908" lon="5.54791">
        <ele>516.40002441406</ele>
        <time>2020-09-12T10:19:42.000Z</time>
      </trkpt>
      <trkpt lat="46.53918" lon="5.54785">
        <ele>516.40002441406</ele>
        <time>2020-09-12T10:19:44.000Z</time>
      </trkpt>
      <trkpt lat="46.53923" lon="5.54782">
        <ele>516.59997558594</ele>
        <time>2020-09-12T10:19:45.000Z</time>
      </trkpt>
      <trkpt lat="46.53928" lon="5.54778">
        <ele>516.79998779297</ele>
        <time>2020-09-12T10:19:46.000Z</time>
      </trkpt>
      <trkpt lat="46.53938" lon="5.5477">
        <ele>517</ele>
        <time>2020-09-12T10:19:48.000Z</time>
      </trkpt>
      <trkpt lat="46.53947" lon="5.54762">
        <ele>517.20001220703</ele>
        <time>2020-09-12T10:19:50.000Z</time>
      </trkpt>
      <trkpt lat="46.53952" lon="5.54757">
        <ele>517.40002441406</ele>
        <time>2020-09-12T10:19:51.000Z</time>
      </trkpt>
      <trkpt lat="46.53956" lon="5.54752">
        <ele>517.40002441406</ele>
        <time>2020-09-12T10:19:52.000Z</time>
      </trkpt>
      <trkpt lat="46.53966" lon="5.54743">
        <ele>517.79998779297</ele>
        <time>2020-09-12T10:19:54.000Z</time>
      </trkpt>
      <trkpt lat="46.5397" lon="5.54737">
        <ele>517.79998779297</ele>
        <time>2020-09-12T10:19:55.000Z</time>
      </trkpt>
      <trkpt lat="46.53974" lon="5.54732">
        <ele>517.79998779297</ele>
        <time>2020-09-12T10:19:56.000Z</time>
      </trkpt>
      <trkpt lat="46.53983" lon="5.5472">
        <ele>518</ele>
        <time>2020-09-12T10:19:58.000Z</time>
      </trkpt>
      <trkpt lat="46.5399" lon="5.54706">
        <ele>518</ele>
        <time>2020-09-12T10:20:00.000Z</time>
      </trkpt>
      <trkpt lat="46.53994" lon="5.54698">
        <ele>518</ele>
        <time>2020-09-12T10:20:01.000Z</time>
      </trkpt>
      <trkpt lat="46.53997" lon="5.5469">
        <ele>518</ele>
        <time>2020-09-12T10:20:02.000Z</time>
      </trkpt>
      <trkpt lat="46.54002" lon="5.54672">
        <ele>518</ele>
        <time>2020-09-12T10:20:04.000Z</time>
      </trkpt>
      <trkpt lat="46.54008" lon="5.54652">
        <ele>517.79998779297</ele>
        <time>2020-09-12T10:20:06.000Z</time>
      </trkpt>
      <trkpt lat="46.54013" lon="5.54631">
        <ele>517.79998779297</ele>
        <time>2020-09-12T10:20:08.000Z</time>
      </trkpt>
      <trkpt lat="46.54019" lon="5.5461">
        <ele>517.59997558594</ele>
        <time>2020-09-12T10:20:10.000Z</time>
      </trkpt>
      <trkpt lat="46.54025" lon="5.54588">
        <ele>517.20001220703</ele>
        <time>2020-09-12T10:20:12.000Z</time>
      </trkpt>
      <trkpt lat="46.54028" lon="5.54577">
        <ele>517</ele>
        <time>2020-09-12T10:20:13.000Z</time>
      </trkpt>
      <trkpt lat="46.54031" lon="5.54567">
        <ele>516.59997558594</ele>
        <time>2020-09-12T10:20:14.000Z</time>
      </trkpt>
      <trkpt lat="46.54036" lon="5.54546">
        <ele>516</ele>
        <time>2020-09-12T10:20:16.000Z</time>
      </trkpt>
      <trkpt lat="46.54042" lon="5.54527">
        <ele>515.79998779297</ele>
        <time>2020-09-12T10:20:18.000Z</time>
      </trkpt>
      <trkpt lat="46.54048" lon="5.54506">
        <ele>515.59997558594</ele>
        <time>2020-09-12T10:20:20.000Z</time>
      </trkpt>
      <trkpt lat="46.54054" lon="5.54485">
        <ele>515.20001220703</ele>
        <time>2020-09-12T10:20:22.000Z</time>
      </trkpt>
      <trkpt lat="46.54057" lon="5.54474">
        <ele>514.79998779297</ele>
        <time>2020-09-12T10:20:23.000Z</time>
      </trkpt>
      <trkpt lat="46.5406" lon="5.54464">
        <ele>514.79998779297</ele>
        <time>2020-09-12T10:20:24.000Z</time>
      </trkpt>
      <trkpt lat="46.54066" lon="5.54442">
        <ele>514.40002441406</ele>
        <time>2020-09-12T10:20:26.000Z</time>
      </trkpt>
      <trkpt lat="46.54072" lon="5.5442">
        <ele>514.20001220703</ele>
        <time>2020-09-12T10:20:28.000Z</time>
      </trkpt>
      <trkpt lat="46.54079" lon="5.54397">
        <ele>513.79998779297</ele>
        <time>2020-09-12T10:20:30.000Z</time>
      </trkpt>
      <trkpt lat="46.54085" lon="5.54374">
        <ele>513.20001220703</ele>
        <time>2020-09-12T10:20:32.000Z</time>
      </trkpt>
      <trkpt lat="46.54091" lon="5.5435">
        <ele>513</ele>
        <time>2020-09-12T10:20:34.000Z</time>
      </trkpt>
      <trkpt lat="46.54098" lon="5.54325">
        <ele>512.59997558594</ele>
        <time>2020-09-12T10:20:36.000Z</time>
      </trkpt>
      <trkpt lat="46.54105" lon="5.543">
        <ele>512</ele>
        <time>2020-09-12T10:20:38.000Z</time>
      </trkpt>
      <trkpt lat="46.54112" lon="5.54273">
        <ele>511.39999389648</ele>
        <time>2020-09-12T10:20:40.000Z</time>
      </trkpt>
      <trkpt lat="46.54119" lon="5.54245">
        <ele>510.20001220703</ele>
        <time>2020-09-12T10:20:42.000Z</time>
      </trkpt>
      <trkpt lat="46.54126" lon="5.54217">
        <ele>509.20001220703</ele>
        <time>2020-09-12T10:20:44.000Z</time>
      </trkpt>
      <trkpt lat="46.54134" lon="5.54189">
        <ele>508.39999389648</ele>
        <time>2020-09-12T10:20:46.000Z</time>
      </trkpt>
      <trkpt lat="46.54138" lon="5.54176">
        <ele>508</ele>
        <time>2020-09-12T10:20:47.000Z</time>
      </trkpt>
      <trkpt lat="46.54141" lon="5.54161">
        <ele>507</ele>
        <time>2020-09-12T10:20:48.000Z</time>
      </trkpt>
      <trkpt lat="46.54145" lon="5.54147">
        <ele>506.20001220703</ele>
        <time>2020-09-12T10:20:49.000Z</time>
      </trkpt>
      <trkpt lat="46.54149" lon="5.54133">
        <ele>505.79998779297</ele>
        <time>2020-09-12T10:20:50.000Z</time>
      </trkpt>
      <trkpt lat="46.54157" lon="5.54105">
        <ele>504.79998779297</ele>
        <time>2020-09-12T10:20:52.000Z</time>
      </trkpt>
      <trkpt lat="46.54165" lon="5.54079">
        <ele>503.39999389648</ele>
        <time>2020-09-12T10:20:54.000Z</time>
      </trkpt>
      <trkpt lat="46.54168" lon="5.54066">
        <ele>503.20001220703</ele>
        <time>2020-09-12T10:20:55.000Z</time>
      </trkpt>
      <trkpt lat="46.54172" lon="5.54053">
        <ele>503</ele>
        <time>2020-09-12T10:20:56.000Z</time>
      </trkpt>
      <trkpt lat="46.54179" lon="5.54029">
        <ele>502.20001220703</ele>
        <time>2020-09-12T10:20:58.000Z</time>
      </trkpt>
      <trkpt lat="46.54186" lon="5.54005">
        <ele>501.20001220703</ele>
        <time>2020-09-12T10:21:00.000Z</time>
      </trkpt>
      <trkpt lat="46.54193" lon="5.53981">
        <ele>500.39999389648</ele>
        <time>2020-09-12T10:21:02.000Z</time>
      </trkpt>
      <trkpt lat="46.54195" lon="5.53969">
        <ele>500.20001220703</ele>
        <time>2020-09-12T10:21:03.000Z</time>
      </trkpt>
      <trkpt lat="46.54198" lon="5.53957">
        <ele>500.20001220703</ele>
        <time>2020-09-12T10:21:04.000Z</time>
      </trkpt>
      <trkpt lat="46.54201" lon="5.53932">
        <ele>500</ele>
        <time>2020-09-12T10:21:06.000Z</time>
      </trkpt>
      <trkpt lat="46.54203" lon="5.53907">
        <ele>500</ele>
        <time>2020-09-12T10:21:08.000Z</time>
      </trkpt>
      <trkpt lat="46.54203" lon="5.53882">
        <ele>500</ele>
        <time>2020-09-12T10:21:10.000Z</time>
      </trkpt>
      <trkpt lat="46.54203" lon="5.53857">
        <ele>500.79998779297</ele>
        <time>2020-09-12T10:21:12.000Z</time>
      </trkpt>
      <trkpt lat="46.54203" lon="5.53832">
        <ele>501.20001220703</ele>
        <time>2020-09-12T10:21:14.000Z</time>
      </trkpt>
      <trkpt lat="46.54204" lon="5.53807">
        <ele>501.20001220703</ele>
        <time>2020-09-12T10:21:16.000Z</time>
      </trkpt>
      <trkpt lat="46.54205" lon="5.53782">
        <ele>501.20001220703</ele>
        <time>2020-09-12T10:21:18.000Z</time>
      </trkpt>
      <trkpt lat="46.54205" lon="5.53757">
        <ele>501.20001220703</ele>
        <time>2020-09-12T10:21:20.000Z</time>
      </trkpt>
      <trkpt lat="46.54206" lon="5.53733">
        <ele>501.39999389648</ele>
        <time>2020-09-12T10:21:22.000Z</time>
      </trkpt>
      <trkpt lat="46.54208" lon="5.53708">
        <ele>501</ele>
        <time>2020-09-12T10:21:24.000Z</time>
      </trkpt>
      <trkpt lat="46.54211" lon="5.53683">
        <ele>500.60000610352</ele>
        <time>2020-09-12T10:21:26.000Z</time>
      </trkpt>
      <trkpt lat="46.54214" lon="5.53672">
        <ele>500.39999389648</ele>
        <time>2020-09-12T10:21:27.000Z</time>
      </trkpt>
      <trkpt lat="46.54218" lon="5.53661">
        <ele>500.20001220703</ele>
        <time>2020-09-12T10:21:28.000Z</time>
      </trkpt>
      <trkpt lat="46.54228" lon="5.53641">
        <ele>500</ele>
        <time>2020-09-12T10:21:30.000Z</time>
      </trkpt>
      <trkpt lat="46.54233" lon="5.53631">
        <ele>499.79998779297</ele>
        <time>2020-09-12T10:21:31.000Z</time>
      </trkpt>
      <trkpt lat="46.54238" lon="5.53621">
        <ele>499.60000610352</ele>
        <time>2020-09-12T10:21:32.000Z</time>
      </trkpt>
      <trkpt lat="46.54248" lon="5.53601">
        <ele>499.39999389648</ele>
        <time>2020-09-12T10:21:34.000Z</time>
      </trkpt>
      <trkpt lat="46.54258" lon="5.53581">
        <ele>499</ele>
        <time>2020-09-12T10:21:36.000Z</time>
      </trkpt>
      <trkpt lat="46.54267" lon="5.53561">
        <ele>498.79998779297</ele>
        <time>2020-09-12T10:21:38.000Z</time>
      </trkpt>
      <trkpt lat="46.54272" lon="5.5355">
        <ele>498.60000610352</ele>
        <time>2020-09-12T10:21:39.000Z</time>
      </trkpt>
      <trkpt lat="46.54275" lon="5.53539">
        <ele>498.60000610352</ele>
        <time>2020-09-12T10:21:40.000Z</time>
      </trkpt>
      <trkpt lat="46.54279" lon="5.53528">
        <ele>498.39999389648</ele>
        <time>2020-09-12T10:21:41.000Z</time>
      </trkpt>
      <trkpt lat="46.54282" lon="5.53517">
        <ele>498.20001220703</ele>
        <time>2020-09-12T10:21:42.000Z</time>
      </trkpt>
      <trkpt lat="46.5429" lon="5.53495">
        <ele>498</ele>
        <time>2020-09-12T10:21:44.000Z</time>
      </trkpt>
      <trkpt lat="46.54298" lon="5.53475">
        <ele>497.79998779297</ele>
        <time>2020-09-12T10:21:46.000Z</time>
      </trkpt>
      <trkpt lat="46.54302" lon="5.53466">
        <ele>497.79998779297</ele>
        <time>2020-09-12T10:21:47.000Z</time>
      </trkpt>
      <trkpt lat="46.54308" lon="5.53457">
        <ele>497.79998779297</ele>
        <time>2020-09-12T10:21:48.000Z</time>
      </trkpt>
      <trkpt lat="46.54321" lon="5.53442">
        <ele>497.60000610352</ele>
        <time>2020-09-12T10:21:50.000Z</time>
      </trkpt>
      <trkpt lat="46.54327" lon="5.53434">
        <ele>497.39999389648</ele>
        <time>2020-09-12T10:21:51.000Z</time>
      </trkpt>
      <trkpt lat="46.54333" lon="5.53427">
        <ele>497.20001220703</ele>
        <time>2020-09-12T10:21:52.000Z</time>
      </trkpt>
      <trkpt lat="46.54343" lon="5.53414">
        <ele>496.79998779297</ele>
        <time>2020-09-12T10:21:54.000Z</time>
      </trkpt>
      <trkpt lat="46.54346" lon="5.53409">
        <ele>496.79998779297</ele>
        <time>2020-09-12T10:21:55.000Z</time>
      </trkpt>
      <trkpt lat="46.54348" lon="5.53406">
        <ele>496.79998779297</ele>
        <time>2020-09-12T10:21:56.000Z</time>
      </trkpt>
      <trkpt lat="46.5435" lon="5.53405">
        <ele>496.79998779297</ele>
        <time>2020-09-12T10:21:58.000Z</time>
      </trkpt>
      <trkpt lat="46.5435" lon="5.53405">
        <ele>496.79998779297</ele>
        <time>2020-09-12T10:21:59.000Z</time>
      </trkpt>
      <trkpt lat="46.5435" lon="5.534">
        <ele>497.60000610352</ele>
        <time>2020-09-12T10:22:10.000Z</time>
      </trkpt>
      <trkpt lat="46.54352" lon="5.53393">
        <ele>497.60000610352</ele>
        <time>2020-09-12T10:22:12.000Z</time>
      </trkpt>
      <trkpt lat="46.54354" lon="5.53382">
        <ele>497.60000610352</ele>
        <time>2020-09-12T10:22:14.000Z</time>
      </trkpt>
      <trkpt lat="46.54357" lon="5.53368">
        <ele>497.60000610352</ele>
        <time>2020-09-12T10:22:16.000Z</time>
      </trkpt>
      <trkpt lat="46.5436" lon="5.53352">
        <ele>497.60000610352</ele>
        <time>2020-09-12T10:22:18.000Z</time>
      </trkpt>
      <trkpt lat="46.54362" lon="5.53343">
        <ele>497.39999389648</ele>
        <time>2020-09-12T10:22:19.000Z</time>
      </trkpt>
      <trkpt lat="46.54364" lon="5.53333">
        <ele>497.39999389648</ele>
        <time>2020-09-12T10:22:20.000Z</time>
      </trkpt>
      <trkpt lat="46.54367" lon="5.53322">
        <ele>496.79998779297</ele>
        <time>2020-09-12T10:22:21.000Z</time>
      </trkpt>
      <trkpt lat="46.54371" lon="5.53312">
        <ele>496.39999389648</ele>
        <time>2020-09-12T10:22:22.000Z</time>
      </trkpt>
      <trkpt lat="46.54376" lon="5.53302">
        <ele>496</ele>
        <time>2020-09-12T10:22:23.000Z</time>
      </trkpt>
      <trkpt lat="46.54381" lon="5.53293">
        <ele>495.60000610352</ele>
        <time>2020-09-12T10:22:24.000Z</time>
      </trkpt>
      <trkpt lat="46.54395" lon="5.53277">
        <ele>495.20001220703</ele>
        <time>2020-09-12T10:22:26.000Z</time>
      </trkpt>
      <trkpt lat="46.54403" lon="5.53271">
        <ele>494.60000610352</ele>
        <time>2020-09-12T10:22:27.000Z</time>
      </trkpt>
      <trkpt lat="46.54412" lon="5.53266">
        <ele>494.20001220703</ele>
        <time>2020-09-12T10:22:28.000Z</time>
      </trkpt>
      <trkpt lat="46.54421" lon="5.53263">
        <ele>493.60000610352</ele>
        <time>2020-09-12T10:22:29.000Z</time>
      </trkpt>
      <trkpt lat="46.5443" lon="5.5326">
        <ele>493</ele>
        <time>2020-09-12T10:22:30.000Z</time>
      </trkpt>
      <trkpt lat="46.54439" lon="5.53257">
        <ele>492.39999389648</ele>
        <time>2020-09-12T10:22:31.000Z</time>
      </trkpt>
      <trkpt lat="46.54449" lon="5.53255">
        <ele>491.39999389648</ele>
        <time>2020-09-12T10:22:32.000Z</time>
      </trkpt>
      <trkpt lat="46.54468" lon="5.53252">
        <ele>489.60000610352</ele>
        <time>2020-09-12T10:22:34.000Z</time>
      </trkpt>
      <trkpt lat="46.54489" lon="5.53247">
        <ele>488</ele>
        <time>2020-09-12T10:22:36.000Z</time>
      </trkpt>
      <trkpt lat="46.54509" lon="5.53242">
        <ele>486.60000610352</ele>
        <time>2020-09-12T10:22:38.000Z</time>
      </trkpt>
      <trkpt lat="46.5453" lon="5.53238">
        <ele>485.79998779297</ele>
        <time>2020-09-12T10:22:40.000Z</time>
      </trkpt>
      <trkpt lat="46.54541" lon="5.53235">
        <ele>485.20001220703</ele>
        <time>2020-09-12T10:22:41.000Z</time>
      </trkpt>
      <trkpt lat="46.54551" lon="5.53232">
        <ele>484.20001220703</ele>
        <time>2020-09-12T10:22:42.000Z</time>
      </trkpt>
      <trkpt lat="46.54562" lon="5.5323">
        <ele>483.39999389648</ele>
        <time>2020-09-12T10:22:43.000Z</time>
      </trkpt>
      <trkpt lat="46.54573" lon="5.53227">
        <ele>482.79998779297</ele>
        <time>2020-09-12T10:22:44.000Z</time>
      </trkpt>
      <trkpt lat="46.54583" lon="5.53223">
        <ele>482.20001220703</ele>
        <time>2020-09-12T10:22:45.000Z</time>
      </trkpt>
      <trkpt lat="46.54593" lon="5.5322">
        <ele>482</ele>
        <time>2020-09-12T10:22:46.000Z</time>
      </trkpt>
      <trkpt lat="46.54614" lon="5.53211">
        <ele>480.79998779297</ele>
        <time>2020-09-12T10:22:48.000Z</time>
      </trkpt>
      <trkpt lat="46.54624" lon="5.53207">
        <ele>480.20001220703</ele>
        <time>2020-09-12T10:22:49.000Z</time>
      </trkpt>
      <trkpt lat="46.54634" lon="5.53203">
        <ele>478.39999389648</ele>
        <time>2020-09-12T10:22:50.000Z</time>
      </trkpt>
      <trkpt lat="46.54644" lon="5.53199">
        <ele>477.20001220703</ele>
        <time>2020-09-12T10:22:51.000Z</time>
      </trkpt>
      <trkpt lat="46.54655" lon="5.53196">
        <ele>476.60000610352</ele>
        <time>2020-09-12T10:22:52.000Z</time>
      </trkpt>
      <trkpt lat="46.54666" lon="5.53194">
        <ele>476.20001220703</ele>
        <time>2020-09-12T10:22:53.000Z</time>
      </trkpt>
      <trkpt lat="46.54676" lon="5.53193">
        <ele>475.79998779297</ele>
        <time>2020-09-12T10:22:54.000Z</time>
      </trkpt>
      <trkpt lat="46.54698" lon="5.53195">
        <ele>475</ele>
        <time>2020-09-12T10:22:56.000Z</time>
      </trkpt>
      <trkpt lat="46.5472" lon="5.53198">
        <ele>474</ele>
        <time>2020-09-12T10:22:58.000Z</time>
      </trkpt>
      <trkpt lat="46.54731" lon="5.53199">
        <ele>473.60000610352</ele>
        <time>2020-09-12T10:22:59.000Z</time>
      </trkpt>
      <trkpt lat="46.54742" lon="5.532">
        <ele>472.60000610352</ele>
        <time>2020-09-12T10:23:00.000Z</time>
      </trkpt>
      <trkpt lat="46.54753" lon="5.53199">
        <ele>471.39999389648</ele>
        <time>2020-09-12T10:23:01.000Z</time>
      </trkpt>
      <trkpt lat="46.54763" lon="5.53198">
        <ele>470.39999389648</ele>
        <time>2020-09-12T10:23:02.000Z</time>
      </trkpt>
      <trkpt lat="46.54774" lon="5.53195">
        <ele>469.79998779297</ele>
        <time>2020-09-12T10:23:03.000Z</time>
      </trkpt>
      <trkpt lat="46.54784" lon="5.5319">
        <ele>469.39999389648</ele>
        <time>2020-09-12T10:23:04.000Z</time>
      </trkpt>
      <trkpt lat="46.54794" lon="5.53185">
        <ele>469</ele>
        <time>2020-09-12T10:23:05.000Z</time>
      </trkpt>
      <trkpt lat="46.54804" lon="5.5318">
        <ele>468.79998779297</ele>
        <time>2020-09-12T10:23:06.000Z</time>
      </trkpt>
      <trkpt lat="46.54824" lon="5.5317">
        <ele>468.39999389648</ele>
        <time>2020-09-12T10:23:08.000Z</time>
      </trkpt>
      <trkpt lat="46.54843" lon="5.53159">
        <ele>468</ele>
        <time>2020-09-12T10:23:10.000Z</time>
      </trkpt>
      <trkpt lat="46.54862" lon="5.53148">
        <ele>467</ele>
        <time>2020-09-12T10:23:12.000Z</time>
      </trkpt>
      <trkpt lat="46.5487" lon="5.53141">
        <ele>466.39999389648</ele>
        <time>2020-09-12T10:23:13.000Z</time>
      </trkpt>
      <trkpt lat="46.54878" lon="5.53134">
        <ele>466.20001220703</ele>
        <time>2020-09-12T10:23:14.000Z</time>
      </trkpt>
      <trkpt lat="46.54892" lon="5.53114">
        <ele>465.20001220703</ele>
        <time>2020-09-12T10:23:16.000Z</time>
      </trkpt>
      <trkpt lat="46.54903" lon="5.53091">
        <ele>464.79998779297</ele>
        <time>2020-09-12T10:23:18.000Z</time>
      </trkpt>
      <trkpt lat="46.54914" lon="5.53068">
        <ele>464.39999389648</ele>
        <time>2020-09-12T10:23:20.000Z</time>
      </trkpt>
      <trkpt lat="46.5492" lon="5.53056">
        <ele>464.20001220703</ele>
        <time>2020-09-12T10:23:21.000Z</time>
      </trkpt>
      <trkpt lat="46.54926" lon="5.53044">
        <ele>464.20001220703</ele>
        <time>2020-09-12T10:23:22.000Z</time>
      </trkpt>
      <trkpt lat="46.54936" lon="5.53019">
        <ele>463.60000610352</ele>
        <time>2020-09-12T10:23:24.000Z</time>
      </trkpt>
      <trkpt lat="46.54941" lon="5.53007">
        <ele>463</ele>
        <time>2020-09-12T10:23:25.000Z</time>
      </trkpt>
      <trkpt lat="46.54946" lon="5.52994">
        <ele>462.39999389648</ele>
        <time>2020-09-12T10:23:26.000Z</time>
      </trkpt>
      <trkpt lat="46.5495" lon="5.52981">
        <ele>461.60000610352</ele>
        <time>2020-09-12T10:23:27.000Z</time>
      </trkpt>
      <trkpt lat="46.54953" lon="5.52968">
        <ele>461</ele>
        <time>2020-09-12T10:23:28.000Z</time>
      </trkpt>
      <trkpt lat="46.54956" lon="5.52954">
        <ele>460.39999389648</ele>
        <time>2020-09-12T10:23:29.000Z</time>
      </trkpt>
      <trkpt lat="46.54958" lon="5.52941">
        <ele>459.79998779297</ele>
        <time>2020-09-12T10:23:30.000Z</time>
      </trkpt>
      <trkpt lat="46.54961" lon="5.52927">
        <ele>459.39999389648</ele>
        <time>2020-09-12T10:23:31.000Z</time>
      </trkpt>
      <trkpt lat="46.54965" lon="5.52913">
        <ele>459</ele>
        <time>2020-09-12T10:23:32.000Z</time>
      </trkpt>
      <trkpt lat="46.54968" lon="5.529">
        <ele>458.60000610352</ele>
        <time>2020-09-12T10:23:33.000Z</time>
      </trkpt>
      <trkpt lat="46.54972" lon="5.52887">
        <ele>458</ele>
        <time>2020-09-12T10:23:34.000Z</time>
      </trkpt>
      <trkpt lat="46.54982" lon="5.52864">
        <ele>457</ele>
        <time>2020-09-12T10:23:36.000Z</time>
      </trkpt>
      <trkpt lat="46.54988" lon="5.52853">
        <ele>456.79998779297</ele>
        <time>2020-09-12T10:23:37.000Z</time>
      </trkpt>
      <trkpt lat="46.54994" lon="5.52844">
        <ele>456.39999389648</ele>
        <time>2020-09-12T10:23:38.000Z</time>
      </trkpt>
      <trkpt lat="46.55006" lon="5.52826">
        <ele>456.20001220703</ele>
        <time>2020-09-12T10:23:40.000Z</time>
      </trkpt>
      <trkpt lat="46.55018" lon="5.5281">
        <ele>456.20001220703</ele>
        <time>2020-09-12T10:23:42.000Z</time>
      </trkpt>
      <trkpt lat="46.5503" lon="5.52794">
        <ele>456.20001220703</ele>
        <time>2020-09-12T10:23:44.000Z</time>
      </trkpt>
      <trkpt lat="46.5504" lon="5.52777">
        <ele>456.20001220703</ele>
        <time>2020-09-12T10:23:46.000Z</time>
      </trkpt>
      <trkpt lat="46.55044" lon="5.52769">
        <ele>456.39999389648</ele>
        <time>2020-09-12T10:23:47.000Z</time>
      </trkpt>
      <trkpt lat="46.55049" lon="5.5276">
        <ele>456.39999389648</ele>
        <time>2020-09-12T10:23:48.000Z</time>
      </trkpt>
      <trkpt lat="46.55057" lon="5.52741">
        <ele>457.39999389648</ele>
        <time>2020-09-12T10:23:50.000Z</time>
      </trkpt>
      <trkpt lat="46.55066" lon="5.52722">
        <ele>457.39999389648</ele>
        <time>2020-09-12T10:23:52.000Z</time>
      </trkpt>
      <trkpt lat="46.55073" lon="5.52703">
        <ele>457.60000610352</ele>
        <time>2020-09-12T10:23:54.000Z</time>
      </trkpt>
      <trkpt lat="46.5508" lon="5.52684">
        <ele>457.60000610352</ele>
        <time>2020-09-12T10:23:56.000Z</time>
      </trkpt>
      <trkpt lat="46.55088" lon="5.52666">
        <ele>457.60000610352</ele>
        <time>2020-09-12T10:23:58.000Z</time>
      </trkpt>
      <trkpt lat="46.55095" lon="5.52648">
        <ele>457.60000610352</ele>
        <time>2020-09-12T10:24:00.000Z</time>
      </trkpt>
      <trkpt lat="46.55098" lon="5.52639">
        <ele>457.60000610352</ele>
        <time>2020-09-12T10:24:01.000Z</time>
      </trkpt>
      <trkpt lat="46.551" lon="5.5263">
        <ele>457.60000610352</ele>
        <time>2020-09-12T10:24:02.000Z</time>
      </trkpt>
      <trkpt lat="46.55101" lon="5.52611">
        <ele>457.60000610352</ele>
        <time>2020-09-12T10:24:04.000Z</time>
      </trkpt>
      <trkpt lat="46.551" lon="5.52602">
        <ele>457.60000610352</ele>
        <time>2020-09-12T10:24:05.000Z</time>
      </trkpt>
      <trkpt lat="46.55099" lon="5.52594">
        <ele>457.60000610352</ele>
        <time>2020-09-12T10:24:06.000Z</time>
      </trkpt>
      <trkpt lat="46.55095" lon="5.5258">
        <ele>458</ele>
        <time>2020-09-12T10:24:08.000Z</time>
      </trkpt>
      <trkpt lat="46.55093" lon="5.52573">
        <ele>458.39999389648</ele>
        <time>2020-09-12T10:24:09.000Z</time>
      </trkpt>
      <trkpt lat="46.55091" lon="5.52567">
        <ele>458.79998779297</ele>
        <time>2020-09-12T10:24:10.000Z</time>
      </trkpt>
      <trkpt lat="46.55088" lon="5.52561">
        <ele>459.20001220703</ele>
        <time>2020-09-12T10:24:11.000Z</time>
      </trkpt>
      <trkpt lat="46.55086" lon="5.52554">
        <ele>459.39999389648</ele>
        <time>2020-09-12T10:24:12.000Z</time>
      </trkpt>
      <trkpt lat="46.55082" lon="5.52542">
        <ele>460</ele>
        <time>2020-09-12T10:24:14.000Z</time>
      </trkpt>
      <trkpt lat="46.5508" lon="5.52536">
        <ele>460.39999389648</ele>
        <time>2020-09-12T10:24:15.000Z</time>
      </trkpt>
      <trkpt lat="46.55078" lon="5.5253">
        <ele>460.79998779297</ele>
        <time>2020-09-12T10:24:16.000Z</time>
      </trkpt>
      <trkpt lat="46.55074" lon="5.52518">
        <ele>461.60000610352</ele>
        <time>2020-09-12T10:24:18.000Z</time>
      </trkpt>
      <trkpt lat="46.5507" lon="5.52507">
        <ele>462.39999389648</ele>
        <time>2020-09-12T10:24:20.000Z</time>
      </trkpt>
      <trkpt lat="46.55068" lon="5.52501">
        <ele>462.79998779297</ele>
        <time>2020-09-12T10:24:21.000Z</time>
      </trkpt>
      <trkpt lat="46.55066" lon="5.52495">
        <ele>463</ele>
        <time>2020-09-12T10:24:22.000Z</time>
      </trkpt>
      <trkpt lat="46.55063" lon="5.52484">
        <ele>463.79998779297</ele>
        <time>2020-09-12T10:24:24.000Z</time>
      </trkpt>
      <trkpt lat="46.55061" lon="5.52478">
        <ele>464</ele>
        <time>2020-09-12T10:24:25.000Z</time>
      </trkpt>
      <trkpt lat="46.55059" lon="5.52473">
        <ele>464.20001220703</ele>
        <time>2020-09-12T10:24:26.000Z</time>
      </trkpt>
      <trkpt lat="46.55055" lon="5.52461">
        <ele>464.79998779297</ele>
        <time>2020-09-12T10:24:28.000Z</time>
      </trkpt>
      <trkpt lat="46.55053" lon="5.52456">
        <ele>465.20001220703</ele>
        <time>2020-09-12T10:24:29.000Z</time>
      </trkpt>
      <trkpt lat="46.55051" lon="5.5245">
        <ele>465.60000610352</ele>
        <time>2020-09-12T10:24:30.000Z</time>
      </trkpt>
      <trkpt lat="46.55048" lon="5.52439">
        <ele>466.39999389648</ele>
        <time>2020-09-12T10:24:32.000Z</time>
      </trkpt>
      <trkpt lat="46.55044" lon="5.52428">
        <ele>466.60000610352</ele>
        <time>2020-09-12T10:24:34.000Z</time>
      </trkpt>
      <trkpt lat="46.5504" lon="5.52418">
        <ele>467.20001220703</ele>
        <time>2020-09-12T10:24:36.000Z</time>
      </trkpt>
      <trkpt lat="46.55039" lon="5.52412">
        <ele>467.39999389648</ele>
        <time>2020-09-12T10:24:37.000Z</time>
      </trkpt>
      <trkpt lat="46.55037" lon="5.52407">
        <ele>467.60000610352</ele>
        <time>2020-09-12T10:24:38.000Z</time>
      </trkpt>
      <trkpt lat="46.55035" lon="5.52402">
        <ele>467.79998779297</ele>
        <time>2020-09-12T10:24:39.000Z</time>
      </trkpt>
      <trkpt lat="46.55033" lon="5.52397">
        <ele>468.20001220703</ele>
        <time>2020-09-12T10:24:40.000Z</time>
      </trkpt>
      <trkpt lat="46.5503" lon="5.52387">
        <ele>468.60000610352</ele>
        <time>2020-09-12T10:24:42.000Z</time>
      </trkpt>
      <trkpt lat="46.55027" lon="5.52376">
        <ele>469</ele>
        <time>2020-09-12T10:24:44.000Z</time>
      </trkpt>
      <trkpt lat="46.55023" lon="5.52366">
        <ele>469.20001220703</ele>
        <time>2020-09-12T10:24:46.000Z</time>
      </trkpt>
      <trkpt lat="46.5502" lon="5.52356">
        <ele>469.60000610352</ele>
        <time>2020-09-12T10:24:48.000Z</time>
      </trkpt>
      <trkpt lat="46.55018" lon="5.52351">
        <ele>469.79998779297</ele>
        <time>2020-09-12T10:24:49.000Z</time>
      </trkpt>
      <trkpt lat="46.55016" lon="5.52346">
        <ele>470</ele>
        <time>2020-09-12T10:24:50.000Z</time>
      </trkpt>
      <trkpt lat="46.55012" lon="5.52337">
        <ele>470.79998779297</ele>
        <time>2020-09-12T10:24:52.000Z</time>
      </trkpt>
      <trkpt lat="46.5501" lon="5.52332">
        <ele>471</ele>
        <time>2020-09-12T10:24:53.000Z</time>
      </trkpt>
      <trkpt lat="46.55008" lon="5.52327">
        <ele>471.39999389648</ele>
        <time>2020-09-12T10:24:54.000Z</time>
      </trkpt>
      <trkpt lat="46.55004" lon="5.52318">
        <ele>471.79998779297</ele>
        <time>2020-09-12T10:24:56.000Z</time>
      </trkpt>
      <trkpt lat="46.54998" lon="5.5231">
        <ele>472.20001220703</ele>
        <time>2020-09-12T10:24:58.000Z</time>
      </trkpt>
      <trkpt lat="46.54993" lon="5.52302">
        <ele>472.60000610352</ele>
        <time>2020-09-12T10:25:00.000Z</time>
      </trkpt>
      <trkpt lat="46.5499" lon="5.52298">
        <ele>472.79998779297</ele>
        <time>2020-09-12T10:25:01.000Z</time>
      </trkpt>
      <trkpt lat="46.54987" lon="5.52294">
        <ele>473.20001220703</ele>
        <time>2020-09-12T10:25:02.000Z</time>
      </trkpt>
      <trkpt lat="46.54984" lon="5.5229">
        <ele>473.39999389648</ele>
        <time>2020-09-12T10:25:03.000Z</time>
      </trkpt>
      <trkpt lat="46.54981" lon="5.52287">
        <ele>473.60000610352</ele>
        <time>2020-09-12T10:25:04.000Z</time>
      </trkpt>
      <trkpt lat="46.54974" lon="5.52281">
        <ele>473.79998779297</ele>
        <time>2020-09-12T10:25:06.000Z</time>
      </trkpt>
      <trkpt lat="46.54967" lon="5.52276">
        <ele>474.20001220703</ele>
        <time>2020-09-12T10:25:08.000Z</time>
      </trkpt>
      <trkpt lat="46.54963" lon="5.52273">
        <ele>474.39999389648</ele>
        <time>2020-09-12T10:25:09.000Z</time>
      </trkpt>
      <trkpt lat="46.5496" lon="5.52271">
        <ele>474.60000610352</ele>
        <time>2020-09-12T10:25:10.000Z</time>
      </trkpt>
      <trkpt lat="46.54952" lon="5.52266">
        <ele>475.20001220703</ele>
        <time>2020-09-12T10:25:12.000Z</time>
      </trkpt>
      <trkpt lat="46.54949" lon="5.52264">
        <ele>475.39999389648</ele>
        <time>2020-09-12T10:25:13.000Z</time>
      </trkpt>
      <trkpt lat="46.54945" lon="5.52262">
        <ele>475.60000610352</ele>
        <time>2020-09-12T10:25:14.000Z</time>
      </trkpt>
      <trkpt lat="46.54937" lon="5.52258">
        <ele>476.20001220703</ele>
        <time>2020-09-12T10:25:16.000Z</time>
      </trkpt>
      <trkpt lat="46.54934" lon="5.52256">
        <ele>476.39999389648</ele>
        <time>2020-09-12T10:25:17.000Z</time>
      </trkpt>
      <trkpt lat="46.5493" lon="5.52254">
        <ele>476.60000610352</ele>
        <time>2020-09-12T10:25:18.000Z</time>
      </trkpt>
      <trkpt lat="46.54923" lon="5.5225">
        <ele>476.79998779297</ele>
        <time>2020-09-12T10:25:20.000Z</time>
      </trkpt>
      <trkpt lat="46.54915" lon="5.52248">
        <ele>477.20001220703</ele>
        <time>2020-09-12T10:25:22.000Z</time>
      </trkpt>
      <trkpt lat="46.54907" lon="5.52245">
        <ele>477.39999389648</ele>
        <time>2020-09-12T10:25:24.000Z</time>
      </trkpt>
      <trkpt lat="46.54904" lon="5.52244">
        <ele>477.60000610352</ele>
        <time>2020-09-12T10:25:25.000Z</time>
      </trkpt>
      <trkpt lat="46.549" lon="5.52242">
        <ele>477.60000610352</ele>
        <time>2020-09-12T10:25:26.000Z</time>
      </trkpt>
      <trkpt lat="46.54892" lon="5.52239">
        <ele>478.20001220703</ele>
        <time>2020-09-12T10:25:28.000Z</time>
      </trkpt>
      <trkpt lat="46.54884" lon="5.52237">
        <ele>478.79998779297</ele>
        <time>2020-09-12T10:25:30.000Z</time>
      </trkpt>
      <trkpt lat="46.54877" lon="5.52234">
        <ele>479.20001220703</ele>
        <time>2020-09-12T10:25:32.000Z</time>
      </trkpt>
      <trkpt lat="46.54869" lon="5.52231">
        <ele>479.60000610352</ele>
        <time>2020-09-12T10:25:34.000Z</time>
      </trkpt>
      <trkpt lat="46.54861" lon="5.52228">
        <ele>479.79998779297</ele>
        <time>2020-09-12T10:25:36.000Z</time>
      </trkpt>
      <trkpt lat="46.54854" lon="5.52224">
        <ele>480.20001220703</ele>
        <time>2020-09-12T10:25:38.000Z</time>
      </trkpt>
      <trkpt lat="46.54846" lon="5.52221">
        <ele>480.60000610352</ele>
        <time>2020-09-12T10:25:40.000Z</time>
      </trkpt>
      <trkpt lat="46.54842" lon="5.52219">
        <ele>480.79998779297</ele>
        <time>2020-09-12T10:25:41.000Z</time>
      </trkpt>
      <trkpt lat="46.54839" lon="5.52217">
        <ele>481</ele>
        <time>2020-09-12T10:25:42.000Z</time>
      </trkpt>
      <trkpt lat="46.54831" lon="5.52213">
        <ele>481.60000610352</ele>
        <time>2020-09-12T10:25:44.000Z</time>
      </trkpt>
      <trkpt lat="46.54828" lon="5.5221">
        <ele>482</ele>
        <time>2020-09-12T10:25:45.000Z</time>
      </trkpt>
      <trkpt lat="46.54824" lon="5.52208">
        <ele>482</ele>
        <time>2020-09-12T10:25:46.000Z</time>
      </trkpt>
      <trkpt lat="46.54817" lon="5.52203">
        <ele>482.60000610352</ele>
        <time>2020-09-12T10:25:48.000Z</time>
      </trkpt>
      <trkpt lat="46.54814" lon="5.52201">
        <ele>483</ele>
        <time>2020-09-12T10:25:49.000Z</time>
      </trkpt>
      <trkpt lat="46.5481" lon="5.52198">
        <ele>483.20001220703</ele>
        <time>2020-09-12T10:25:50.000Z</time>
      </trkpt>
      <trkpt lat="46.54803" lon="5.52192">
        <ele>483.60000610352</ele>
        <time>2020-09-12T10:25:52.000Z</time>
      </trkpt>
      <trkpt lat="46.54796" lon="5.52187">
        <ele>484</ele>
        <time>2020-09-12T10:25:54.000Z</time>
      </trkpt>
      <trkpt lat="46.54789" lon="5.52182">
        <ele>484.39999389648</ele>
        <time>2020-09-12T10:25:56.000Z</time>
      </trkpt>
      <trkpt lat="46.54783" lon="5.52176">
        <ele>485</ele>
        <time>2020-09-12T10:25:58.000Z</time>
      </trkpt>
      <trkpt lat="46.54779" lon="5.52173">
        <ele>485.20001220703</ele>
        <time>2020-09-12T10:25:59.000Z</time>
      </trkpt>
      <trkpt lat="46.54776" lon="5.5217">
        <ele>485.39999389648</ele>
        <time>2020-09-12T10:26:00.000Z</time>
      </trkpt>
      <trkpt lat="46.54769" lon="5.52165">
        <ele>485.79998779297</ele>
        <time>2020-09-12T10:26:02.000Z</time>
      </trkpt>
      <trkpt lat="46.54762" lon="5.52161">
        <ele>486.20001220703</ele>
        <time>2020-09-12T10:26:04.000Z</time>
      </trkpt>
      <trkpt lat="46.54755" lon="5.52156">
        <ele>486.60000610352</ele>
        <time>2020-09-12T10:26:06.000Z</time>
      </trkpt>
      <trkpt lat="46.54748" lon="5.52152">
        <ele>487.39999389648</ele>
        <time>2020-09-12T10:26:08.000Z</time>
      </trkpt>
      <trkpt lat="46.54741" lon="5.52148">
        <ele>487.79998779297</ele>
        <time>2020-09-12T10:26:10.000Z</time>
      </trkpt>
      <trkpt lat="46.54737" lon="5.52146">
        <ele>488</ele>
        <time>2020-09-12T10:26:11.000Z</time>
      </trkpt>
      <trkpt lat="46.54733" lon="5.52145">
        <ele>488.20001220703</ele>
        <time>2020-09-12T10:26:12.000Z</time>
      </trkpt>
      <trkpt lat="46.54729" lon="5.52143">
        <ele>488.39999389648</ele>
        <time>2020-09-12T10:26:13.000Z</time>
      </trkpt>
      <trkpt lat="46.54725" lon="5.52142">
        <ele>488.79998779297</ele>
        <time>2020-09-12T10:26:14.000Z</time>
      </trkpt>
      <trkpt lat="46.54718" lon="5.52139">
        <ele>489.20001220703</ele>
        <time>2020-09-12T10:26:16.000Z</time>
      </trkpt>
      <trkpt lat="46.5471" lon="5.52136">
        <ele>489.60000610352</ele>
        <time>2020-09-12T10:26:18.000Z</time>
      </trkpt>
      <trkpt lat="46.54702" lon="5.52134">
        <ele>490.20001220703</ele>
        <time>2020-09-12T10:26:20.000Z</time>
      </trkpt>
      <trkpt lat="46.54694" lon="5.52131">
        <ele>490.60000610352</ele>
        <time>2020-09-12T10:26:22.000Z</time>
      </trkpt>
      <trkpt lat="46.5469" lon="5.52129">
        <ele>490.79998779297</ele>
        <time>2020-09-12T10:26:23.000Z</time>
      </trkpt>
      <trkpt lat="46.54686" lon="5.52128">
        <ele>491</ele>
        <time>2020-09-12T10:26:24.000Z</time>
      </trkpt>
      <trkpt lat="46.54678" lon="5.52124">
        <ele>491.60000610352</ele>
        <time>2020-09-12T10:26:26.000Z</time>
      </trkpt>
      <trkpt lat="46.54674" lon="5.52122">
        <ele>491.79998779297</ele>
        <time>2020-09-12T10:26:27.000Z</time>
      </trkpt>
      <trkpt lat="46.5467" lon="5.5212">
        <ele>492</ele>
        <time>2020-09-12T10:26:28.000Z</time>
      </trkpt>
      <trkpt lat="46.54663" lon="5.52116">
        <ele>492.39999389648</ele>
        <time>2020-09-12T10:26:30.000Z</time>
      </trkpt>
      <trkpt lat="46.54655" lon="5.52111">
        <ele>492.79998779297</ele>
        <time>2020-09-12T10:26:32.000Z</time>
      </trkpt>
      <trkpt lat="46.54651" lon="5.52109">
        <ele>493.20001220703</ele>
        <time>2020-09-12T10:26:33.000Z</time>
      </trkpt>
      <trkpt lat="46.54647" lon="5.52106">
        <ele>493.39999389648</ele>
        <time>2020-09-12T10:26:34.000Z</time>
      </trkpt>
      <trkpt lat="46.5464" lon="5.52101">
        <ele>493.60000610352</ele>
        <time>2020-09-12T10:26:36.000Z</time>
      </trkpt>
      <trkpt lat="46.54633" lon="5.52095">
        <ele>494.20001220703</ele>
        <time>2020-09-12T10:26:38.000Z</time>
      </trkpt>
      <trkpt lat="46.54626" lon="5.52089">
        <ele>494.39999389648</ele>
        <time>2020-09-12T10:26:40.000Z</time>
      </trkpt>
      <trkpt lat="46.54619" lon="5.52083">
        <ele>494.79998779297</ele>
        <time>2020-09-12T10:26:42.000Z</time>
      </trkpt>
      <trkpt lat="46.54615" lon="5.5208">
        <ele>495.20001220703</ele>
        <time>2020-09-12T10:26:43.000Z</time>
      </trkpt>
      <trkpt lat="46.54612" lon="5.52076">
        <ele>495.39999389648</ele>
        <time>2020-09-12T10:26:44.000Z</time>
      </trkpt>
      <trkpt lat="46.54604" lon="5.52069">
        <ele>495.79998779297</ele>
        <time>2020-09-12T10:26:46.000Z</time>
      </trkpt>
      <trkpt lat="46.54597" lon="5.52061">
        <ele>496.39999389648</ele>
        <time>2020-09-12T10:26:48.000Z</time>
      </trkpt>
      <trkpt lat="46.54589" lon="5.52052">
        <ele>496.60000610352</ele>
        <time>2020-09-12T10:26:50.000Z</time>
      </trkpt>
      <trkpt lat="46.54581" lon="5.52043">
        <ele>496.79998779297</ele>
        <time>2020-09-12T10:26:52.000Z</time>
      </trkpt>
      <trkpt lat="46.54572" lon="5.52033">
        <ele>496.79998779297</ele>
        <time>2020-09-12T10:26:54.000Z</time>
      </trkpt>
      <trkpt lat="46.54563" lon="5.52023">
        <ele>497</ele>
        <time>2020-09-12T10:26:56.000Z</time>
      </trkpt>
      <trkpt lat="46.54558" lon="5.52017">
        <ele>497</ele>
        <time>2020-09-12T10:26:57.000Z</time>
      </trkpt>
      <trkpt lat="46.54554" lon="5.52012">
        <ele>497</ele>
        <time>2020-09-12T10:26:58.000Z</time>
      </trkpt>
      <trkpt lat="46.54544" lon="5.52001">
        <ele>497</ele>
        <time>2020-09-12T10:27:00.000Z</time>
      </trkpt>
      <trkpt lat="46.54534" lon="5.51991">
        <ele>497.20001220703</ele>
        <time>2020-09-12T10:27:02.000Z</time>
      </trkpt>
      <trkpt lat="46.54524" lon="5.5198">
        <ele>497.20001220703</ele>
        <time>2020-09-12T10:27:04.000Z</time>
      </trkpt>
      <trkpt lat="46.54514" lon="5.51968">
        <ele>497.20001220703</ele>
        <time>2020-09-12T10:27:06.000Z</time>
      </trkpt>
      <trkpt lat="46.54504" lon="5.51956">
        <ele>497.20001220703</ele>
        <time>2020-09-12T10:27:08.000Z</time>
      </trkpt>
      <trkpt lat="46.54492" lon="5.51943">
        <ele>497.20001220703</ele>
        <time>2020-09-12T10:27:10.000Z</time>
      </trkpt>
      <trkpt lat="46.54481" lon="5.51931">
        <ele>497.20001220703</ele>
        <time>2020-09-12T10:27:12.000Z</time>
      </trkpt>
      <trkpt lat="46.54469" lon="5.51917">
        <ele>497</ele>
        <time>2020-09-12T10:27:14.000Z</time>
      </trkpt>
      <trkpt lat="46.54457" lon="5.51904">
        <ele>496.39999389648</ele>
        <time>2020-09-12T10:27:16.000Z</time>
      </trkpt>
      <trkpt lat="46.54446" lon="5.51891">
        <ele>496</ele>
        <time>2020-09-12T10:27:18.000Z</time>
      </trkpt>
      <trkpt lat="46.54434" lon="5.51879">
        <ele>495.60000610352</ele>
        <time>2020-09-12T10:27:20.000Z</time>
      </trkpt>
      <trkpt lat="46.54424" lon="5.51867">
        <ele>495.60000610352</ele>
        <time>2020-09-12T10:27:22.000Z</time>
      </trkpt>
      <trkpt lat="46.54414" lon="5.51855">
        <ele>495.60000610352</ele>
        <time>2020-09-12T10:27:24.000Z</time>
      </trkpt>
      <trkpt lat="46.54404" lon="5.51845">
        <ele>495.60000610352</ele>
        <time>2020-09-12T10:27:26.000Z</time>
      </trkpt>
      <trkpt lat="46.54395" lon="5.51835">
        <ele>495.60000610352</ele>
        <time>2020-09-12T10:27:28.000Z</time>
      </trkpt>
      <trkpt lat="46.54386" lon="5.51825">
        <ele>495.60000610352</ele>
        <time>2020-09-12T10:27:30.000Z</time>
      </trkpt>
      <trkpt lat="46.54382" lon="5.5182">
        <ele>495.79998779297</ele>
        <time>2020-09-12T10:27:31.000Z</time>
      </trkpt>
      <trkpt lat="46.54378" lon="5.51815">
        <ele>496.20001220703</ele>
        <time>2020-09-12T10:27:32.000Z</time>
      </trkpt>
      <trkpt lat="46.54369" lon="5.51806">
        <ele>497</ele>
        <time>2020-09-12T10:27:34.000Z</time>
      </trkpt>
      <trkpt lat="46.54364" lon="5.51801">
        <ele>497.39999389648</ele>
        <time>2020-09-12T10:27:35.000Z</time>
      </trkpt>
      <trkpt lat="46.5436" lon="5.51797">
        <ele>497.79998779297</ele>
        <time>2020-09-12T10:27:36.000Z</time>
      </trkpt>
      <trkpt lat="46.5435" lon="5.51789">
        <ele>498</ele>
        <time>2020-09-12T10:27:38.000Z</time>
      </trkpt>
      <trkpt lat="46.54341" lon="5.51781">
        <ele>498.60000610352</ele>
        <time>2020-09-12T10:27:40.000Z</time>
      </trkpt>
      <trkpt lat="46.54336" lon="5.51778">
        <ele>499.39999389648</ele>
        <time>2020-09-12T10:27:41.000Z</time>
      </trkpt>
      <trkpt lat="46.54331" lon="5.51775">
        <ele>499.79998779297</ele>
        <time>2020-09-12T10:27:42.000Z</time>
      </trkpt>
      <trkpt lat="46.5432" lon="5.5177">
        <ele>500.39999389648</ele>
        <time>2020-09-12T10:27:44.000Z</time>
      </trkpt>
      <trkpt lat="46.5431" lon="5.51765">
        <ele>500.79998779297</ele>
        <time>2020-09-12T10:27:46.000Z</time>
      </trkpt>
      <trkpt lat="46.543" lon="5.51762">
        <ele>501</ele>
        <time>2020-09-12T10:27:48.000Z</time>
      </trkpt>
      <trkpt lat="46.54295" lon="5.5176">
        <ele>501.20001220703</ele>
        <time>2020-09-12T10:27:49.000Z</time>
      </trkpt>
      <trkpt lat="46.54289" lon="5.51758">
        <ele>501.39999389648</ele>
        <time>2020-09-12T10:27:50.000Z</time>
      </trkpt>
      <trkpt lat="46.54278" lon="5.51754">
        <ele>501.79998779297</ele>
        <time>2020-09-12T10:27:52.000Z</time>
      </trkpt>
      <trkpt lat="46.54273" lon="5.51752">
        <ele>502.20001220703</ele>
        <time>2020-09-12T10:27:53.000Z</time>
      </trkpt>
      <trkpt lat="46.54268" lon="5.51749">
        <ele>502.39999389648</ele>
        <time>2020-09-12T10:27:54.000Z</time>
      </trkpt>
      <trkpt lat="46.54257" lon="5.51744">
        <ele>502.60000610352</ele>
        <time>2020-09-12T10:27:56.000Z</time>
      </trkpt>
      <trkpt lat="46.54246" lon="5.51737">
        <ele>503.20001220703</ele>
        <time>2020-09-12T10:27:58.000Z</time>
      </trkpt>
      <trkpt lat="46.54241" lon="5.51734">
        <ele>503.39999389648</ele>
        <time>2020-09-12T10:27:59.000Z</time>
      </trkpt>
      <trkpt lat="46.54236" lon="5.51729">
        <ele>503.39999389648</ele>
        <time>2020-09-12T10:28:00.000Z</time>
      </trkpt>
      <trkpt lat="46.54226" lon="5.5172">
        <ele>503.60000610352</ele>
        <time>2020-09-12T10:28:02.000Z</time>
      </trkpt>
      <trkpt lat="46.54217" lon="5.5171">
        <ele>503.79998779297</ele>
        <time>2020-09-12T10:28:04.000Z</time>
      </trkpt>
      <trkpt lat="46.54207" lon="5.51699">
        <ele>504</ele>
        <time>2020-09-12T10:28:06.000Z</time>
      </trkpt>
      <trkpt lat="46.54197" lon="5.51688">
        <ele>504.20001220703</ele>
        <time>2020-09-12T10:28:08.000Z</time>
      </trkpt>
      <trkpt lat="46.54187" lon="5.51675">
        <ele>504.20001220703</ele>
        <time>2020-09-12T10:28:10.000Z</time>
      </trkpt>
      <trkpt lat="46.54182" lon="5.51669">
        <ele>504.39999389648</ele>
        <time>2020-09-12T10:28:11.000Z</time>
      </trkpt>
      <trkpt lat="46.54177" lon="5.51663">
        <ele>504.39999389648</ele>
        <time>2020-09-12T10:28:12.000Z</time>
      </trkpt>
      <trkpt lat="46.54167" lon="5.5165">
        <ele>504.60000610352</ele>
        <time>2020-09-12T10:28:14.000Z</time>
      </trkpt>
      <trkpt lat="46.54157" lon="5.51638">
        <ele>504.60000610352</ele>
        <time>2020-09-12T10:28:16.000Z</time>
      </trkpt>
      <trkpt lat="46.54147" lon="5.51626">
        <ele>504.60000610352</ele>
        <time>2020-09-12T10:28:18.000Z</time>
      </trkpt>
      <trkpt lat="46.54137" lon="5.51614">
        <ele>504.60000610352</ele>
        <time>2020-09-12T10:28:20.000Z</time>
      </trkpt>
      <trkpt lat="46.54128" lon="5.51602">
        <ele>504.60000610352</ele>
        <time>2020-09-12T10:28:22.000Z</time>
      </trkpt>
      <trkpt lat="46.54118" lon="5.5159">
        <ele>504.60000610352</ele>
        <time>2020-09-12T10:28:24.000Z</time>
      </trkpt>
      <trkpt lat="46.54107" lon="5.51576">
        <ele>504.60000610352</ele>
        <time>2020-09-12T10:28:26.000Z</time>
      </trkpt>
      <trkpt lat="46.54096" lon="5.51563">
        <ele>504.60000610352</ele>
        <time>2020-09-12T10:28:28.000Z</time>
      </trkpt>
      <trkpt lat="46.5409" lon="5.51556">
        <ele>504.39999389648</ele>
        <time>2020-09-12T10:28:29.000Z</time>
      </trkpt>
      <trkpt lat="46.54084" lon="5.51548">
        <ele>504.39999389648</ele>
        <time>2020-09-12T10:28:30.000Z</time>
      </trkpt>
      <trkpt lat="46.54073" lon="5.51534">
        <ele>504.39999389648</ele>
        <time>2020-09-12T10:28:32.000Z</time>
      </trkpt>
      <trkpt lat="46.54061" lon="5.51519">
        <ele>504.20001220703</ele>
        <time>2020-09-12T10:28:34.000Z</time>
      </trkpt>
      <trkpt lat="46.5405" lon="5.51505">
        <ele>504.20001220703</ele>
        <time>2020-09-12T10:28:36.000Z</time>
      </trkpt>
      <trkpt lat="46.54038" lon="5.51491">
        <ele>503.60000610352</ele>
        <time>2020-09-12T10:28:38.000Z</time>
      </trkpt>
      <trkpt lat="46.54032" lon="5.51484">
        <ele>503.39999389648</ele>
        <time>2020-09-12T10:28:39.000Z</time>
      </trkpt>
      <trkpt lat="46.54027" lon="5.51477">
        <ele>503.20001220703</ele>
        <time>2020-09-12T10:28:40.000Z</time>
      </trkpt>
      <trkpt lat="46.54021" lon="5.5147">
        <ele>503.20001220703</ele>
        <time>2020-09-12T10:28:41.000Z</time>
      </trkpt>
      <trkpt lat="46.54015" lon="5.51463">
        <ele>503.20001220703</ele>
        <time>2020-09-12T10:28:42.000Z</time>
      </trkpt>
      <trkpt lat="46.54004" lon="5.5145">
        <ele>503.20001220703</ele>
        <time>2020-09-12T10:28:44.000Z</time>
      </trkpt>
      <trkpt lat="46.53994" lon="5.51438">
        <ele>503.20001220703</ele>
        <time>2020-09-12T10:28:46.000Z</time>
      </trkpt>
      <trkpt lat="46.53984" lon="5.51427">
        <ele>503.20001220703</ele>
        <time>2020-09-12T10:28:48.000Z</time>
      </trkpt>
      <trkpt lat="46.53975" lon="5.51416">
        <ele>503.39999389648</ele>
        <time>2020-09-12T10:28:50.000Z</time>
      </trkpt>
      <trkpt lat="46.53966" lon="5.51406">
        <ele>503.79998779297</ele>
        <time>2020-09-12T10:28:52.000Z</time>
      </trkpt>
      <trkpt lat="46.53957" lon="5.51397">
        <ele>504.39999389648</ele>
        <time>2020-09-12T10:28:54.000Z</time>
      </trkpt>
      <trkpt lat="46.53948" lon="5.51387">
        <ele>505.60000610352</ele>
        <time>2020-09-12T10:28:56.000Z</time>
      </trkpt>
      <trkpt lat="46.53939" lon="5.51377">
        <ele>506.60000610352</ele>
        <time>2020-09-12T10:28:58.000Z</time>
      </trkpt>
      <trkpt lat="46.53935" lon="5.51372">
        <ele>507</ele>
        <time>2020-09-12T10:28:59.000Z</time>
      </trkpt>
      <trkpt lat="46.5393" lon="5.51367">
        <ele>507.39999389648</ele>
        <time>2020-09-12T10:29:00.000Z</time>
      </trkpt>
      <trkpt lat="46.53921" lon="5.51357">
        <ele>508</ele>
        <time>2020-09-12T10:29:02.000Z</time>
      </trkpt>
      <trkpt lat="46.53917" lon="5.51352">
        <ele>508.20001220703</ele>
        <time>2020-09-12T10:29:03.000Z</time>
      </trkpt>
      <trkpt lat="46.53912" lon="5.51347">
        <ele>508.20001220703</ele>
        <time>2020-09-12T10:29:04.000Z</time>
      </trkpt>
      <trkpt lat="46.53904" lon="5.51338">
        <ele>508.39999389648</ele>
        <time>2020-09-12T10:29:06.000Z</time>
      </trkpt>
      <trkpt lat="46.53895" lon="5.51328">
        <ele>508.79998779297</ele>
        <time>2020-09-12T10:29:08.000Z</time>
      </trkpt>
      <trkpt lat="46.53891" lon="5.51324">
        <ele>509.20001220703</ele>
        <time>2020-09-12T10:29:09.000Z</time>
      </trkpt>
      <trkpt lat="46.53887" lon="5.51319">
        <ele>509.39999389648</ele>
        <time>2020-09-12T10:29:10.000Z</time>
      </trkpt>
      <trkpt lat="46.53878" lon="5.51311">
        <ele>509.79998779297</ele>
        <time>2020-09-12T10:29:12.000Z</time>
      </trkpt>
      <trkpt lat="46.5387" lon="5.51302">
        <ele>510</ele>
        <time>2020-09-12T10:29:14.000Z</time>
      </trkpt>
      <trkpt lat="46.53861" lon="5.51292">
        <ele>510.39999389648</ele>
        <time>2020-09-12T10:29:16.000Z</time>
      </trkpt>
      <trkpt lat="46.53853" lon="5.51283">
        <ele>510.60000610352</ele>
        <time>2020-09-12T10:29:18.000Z</time>
      </trkpt>
      <trkpt lat="46.53845" lon="5.51274">
        <ele>511</ele>
        <time>2020-09-12T10:29:20.000Z</time>
      </trkpt>
      <trkpt lat="46.5384" lon="5.51269">
        <ele>511.39999389648</ele>
        <time>2020-09-12T10:29:21.000Z</time>
      </trkpt>
      <trkpt lat="46.53836" lon="5.51264">
        <ele>511.60000610352</ele>
        <time>2020-09-12T10:29:22.000Z</time>
      </trkpt>
      <trkpt lat="46.53828" lon="5.51254">
        <ele>511.79998779297</ele>
        <time>2020-09-12T10:29:24.000Z</time>
      </trkpt>
      <trkpt lat="46.5382" lon="5.51243">
        <ele>512</ele>
        <time>2020-09-12T10:29:26.000Z</time>
      </trkpt>
      <trkpt lat="46.53813" lon="5.51232">
        <ele>512.20001220703</ele>
        <time>2020-09-12T10:29:28.000Z</time>
      </trkpt>
      <trkpt lat="46.53805" lon="5.51218">
        <ele>512.40002441406</ele>
        <time>2020-09-12T10:29:30.000Z</time>
      </trkpt>
      <trkpt lat="46.53801" lon="5.51211">
        <ele>512.40002441406</ele>
        <time>2020-09-12T10:29:31.000Z</time>
      </trkpt>
      <trkpt lat="46.53798" lon="5.51203">
        <ele>512.40002441406</ele>
        <time>2020-09-12T10:29:32.000Z</time>
      </trkpt>
      <trkpt lat="46.53789" lon="5.51187">
        <ele>512.40002441406</ele>
        <time>2020-09-12T10:29:34.000Z</time>
      </trkpt>
      <trkpt lat="46.5378" lon="5.51169">
        <ele>512.40002441406</ele>
        <time>2020-09-12T10:29:36.000Z</time>
      </trkpt>
      <trkpt lat="46.53771" lon="5.5115">
        <ele>512.20001220703</ele>
        <time>2020-09-12T10:29:38.000Z</time>
      </trkpt>
      <trkpt lat="46.53761" lon="5.51131">
        <ele>511.39999389648</ele>
        <time>2020-09-12T10:29:40.000Z</time>
      </trkpt>
      <trkpt lat="46.53756" lon="5.5112">
        <ele>511.20001220703</ele>
        <time>2020-09-12T10:29:41.000Z</time>
      </trkpt>
      <trkpt lat="46.53751" lon="5.5111">
        <ele>511</ele>
        <time>2020-09-12T10:29:42.000Z</time>
      </trkpt>
      <trkpt lat="46.5374" lon="5.51089">
        <ele>510.60000610352</ele>
        <time>2020-09-12T10:29:44.000Z</time>
      </trkpt>
      <trkpt lat="46.53735" lon="5.51078">
        <ele>510</ele>
        <time>2020-09-12T10:29:45.000Z</time>
      </trkpt>
      <trkpt lat="46.53729" lon="5.51067">
        <ele>509.39999389648</ele>
        <time>2020-09-12T10:29:46.000Z</time>
      </trkpt>
      <trkpt lat="46.53724" lon="5.51056">
        <ele>508.60000610352</ele>
        <time>2020-09-12T10:29:47.000Z</time>
      </trkpt>
      <trkpt lat="46.53719" lon="5.51044">
        <ele>508</ele>
        <time>2020-09-12T10:29:48.000Z</time>
      </trkpt>
      <trkpt lat="46.53713" lon="5.51033">
        <ele>507.39999389648</ele>
        <time>2020-09-12T10:29:49.000Z</time>
      </trkpt>
      <trkpt lat="46.53707" lon="5.51022">
        <ele>507</ele>
        <time>2020-09-12T10:29:50.000Z</time>
      </trkpt>
      <trkpt lat="46.53696" lon="5.50999">
        <ele>506.60000610352</ele>
        <time>2020-09-12T10:29:52.000Z</time>
      </trkpt>
      <trkpt lat="46.5369" lon="5.50987">
        <ele>506.39999389648</ele>
        <time>2020-09-12T10:29:53.000Z</time>
      </trkpt>
      <trkpt lat="46.53684" lon="5.50975">
        <ele>505.79998779297</ele>
        <time>2020-09-12T10:29:54.000Z</time>
      </trkpt>
      <trkpt lat="46.53673" lon="5.50951">
        <ele>505</ele>
        <time>2020-09-12T10:29:56.000Z</time>
      </trkpt>
      <trkpt lat="46.53661" lon="5.50928">
        <ele>504.20001220703</ele>
        <time>2020-09-12T10:29:58.000Z</time>
      </trkpt>
      <trkpt lat="46.53654" lon="5.50916">
        <ele>503.79998779297</ele>
        <time>2020-09-12T10:29:59.000Z</time>
      </trkpt>
      <trkpt lat="46.53648" lon="5.50904">
        <ele>503.39999389648</ele>
        <time>2020-09-12T10:30:00.000Z</time>
      </trkpt>
      <trkpt lat="46.53637" lon="5.5088">
        <ele>502.20001220703</ele>
        <time>2020-09-12T10:30:02.000Z</time>
      </trkpt>
      <trkpt lat="46.53625" lon="5.50855">
        <ele>500.60000610352</ele>
        <time>2020-09-12T10:30:04.000Z</time>
      </trkpt>
      <trkpt lat="46.53613" lon="5.50831">
        <ele>500</ele>
        <time>2020-09-12T10:30:06.000Z</time>
      </trkpt>
      <trkpt lat="46.53607" lon="5.50819">
        <ele>499.39999389648</ele>
        <time>2020-09-12T10:30:07.000Z</time>
      </trkpt>
      <trkpt lat="46.53601" lon="5.50806">
        <ele>499.39999389648</ele>
        <time>2020-09-12T10:30:08.000Z</time>
      </trkpt>
      <trkpt lat="46.53588" lon="5.50782">
        <ele>498.79998779297</ele>
        <time>2020-09-12T10:30:10.000Z</time>
      </trkpt>
      <trkpt lat="46.53582" lon="5.50769">
        <ele>498.39999389648</ele>
        <time>2020-09-12T10:30:11.000Z</time>
      </trkpt>
      <trkpt lat="46.53576" lon="5.50757">
        <ele>497.79998779297</ele>
        <time>2020-09-12T10:30:12.000Z</time>
      </trkpt>
      <trkpt lat="46.5357" lon="5.50745">
        <ele>497.20001220703</ele>
        <time>2020-09-12T10:30:13.000Z</time>
      </trkpt>
      <trkpt lat="46.53564" lon="5.50733">
        <ele>497</ele>
        <time>2020-09-12T10:30:14.000Z</time>
      </trkpt>
      <trkpt lat="46.53552" lon="5.50708">
        <ele>496.20001220703</ele>
        <time>2020-09-12T10:30:16.000Z</time>
      </trkpt>
      <trkpt lat="46.5354" lon="5.50684">
        <ele>495</ele>
        <time>2020-09-12T10:30:18.000Z</time>
      </trkpt>
      <trkpt lat="46.53528" lon="5.50659">
        <ele>494.39999389648</ele>
        <time>2020-09-12T10:30:20.000Z</time>
      </trkpt>
      <trkpt lat="46.53516" lon="5.50635">
        <ele>493.79998779297</ele>
        <time>2020-09-12T10:30:22.000Z</time>
      </trkpt>
      <trkpt lat="46.53504" lon="5.5061">
        <ele>493.20001220703</ele>
        <time>2020-09-12T10:30:24.000Z</time>
      </trkpt>
      <trkpt lat="46.53498" lon="5.50598">
        <ele>492.60000610352</ele>
        <time>2020-09-12T10:30:25.000Z</time>
      </trkpt>
      <trkpt lat="46.53491" lon="5.50586">
        <ele>492.39999389648</ele>
        <time>2020-09-12T10:30:26.000Z</time>
      </trkpt>
      <trkpt lat="46.53486" lon="5.50573">
        <ele>492.20001220703</ele>
        <time>2020-09-12T10:30:27.000Z</time>
      </trkpt>
      <trkpt lat="46.5348" lon="5.50561">
        <ele>492</ele>
        <time>2020-09-12T10:30:28.000Z</time>
      </trkpt>
      <trkpt lat="46.53468" lon="5.50537">
        <ele>491.60000610352</ele>
        <time>2020-09-12T10:30:30.000Z</time>
      </trkpt>
      <trkpt lat="46.53456" lon="5.50514">
        <ele>491.39999389648</ele>
        <time>2020-09-12T10:30:32.000Z</time>
      </trkpt>
      <trkpt lat="46.53445" lon="5.50492">
        <ele>491.20001220703</ele>
        <time>2020-09-12T10:30:34.000Z</time>
      </trkpt>
      <trkpt lat="46.53435" lon="5.5047">
        <ele>491.20001220703</ele>
        <time>2020-09-12T10:30:36.000Z</time>
      </trkpt>
      <trkpt lat="46.53425" lon="5.5045">
        <ele>491.20001220703</ele>
        <time>2020-09-12T10:30:38.000Z</time>
      </trkpt>
      <trkpt lat="46.53415" lon="5.5043">
        <ele>491.20001220703</ele>
        <time>2020-09-12T10:30:40.000Z</time>
      </trkpt>
      <trkpt lat="46.53405" lon="5.5041">
        <ele>491.20001220703</ele>
        <time>2020-09-12T10:30:42.000Z</time>
      </trkpt>
      <trkpt lat="46.53395" lon="5.5039">
        <ele>491.60000610352</ele>
        <time>2020-09-12T10:30:44.000Z</time>
      </trkpt>
      <trkpt lat="46.53385" lon="5.5037">
        <ele>492</ele>
        <time>2020-09-12T10:30:46.000Z</time>
      </trkpt>
      <trkpt lat="46.53375" lon="5.50351">
        <ele>492.20001220703</ele>
        <time>2020-09-12T10:30:48.000Z</time>
      </trkpt>
      <trkpt lat="46.53366" lon="5.50332">
        <ele>492.20001220703</ele>
        <time>2020-09-12T10:30:50.000Z</time>
      </trkpt>
      <trkpt lat="46.53356" lon="5.50313">
        <ele>492.39999389648</ele>
        <time>2020-09-12T10:30:52.000Z</time>
      </trkpt>
      <trkpt lat="46.53346" lon="5.50294">
        <ele>492.60000610352</ele>
        <time>2020-09-12T10:30:54.000Z</time>
      </trkpt>
      <trkpt lat="46.53336" lon="5.50272">
        <ele>492.60000610352</ele>
        <time>2020-09-12T10:30:56.000Z</time>
      </trkpt>
      <trkpt lat="46.53325" lon="5.50251">
        <ele>492.60000610352</ele>
        <time>2020-09-12T10:30:58.000Z</time>
      </trkpt>
      <trkpt lat="46.53314" lon="5.50228">
        <ele>492.39999389648</ele>
        <time>2020-09-12T10:31:00.000Z</time>
      </trkpt>
      <trkpt lat="46.53302" lon="5.50204">
        <ele>492.39999389648</ele>
        <time>2020-09-12T10:31:02.000Z</time>
      </trkpt>
      <trkpt lat="46.53291" lon="5.5018">
        <ele>492.20001220703</ele>
        <time>2020-09-12T10:31:04.000Z</time>
      </trkpt>
      <trkpt lat="46.53285" lon="5.50168">
        <ele>491.39999389648</ele>
        <time>2020-09-12T10:31:05.000Z</time>
      </trkpt>
      <trkpt lat="46.53278" lon="5.50156">
        <ele>490.79998779297</ele>
        <time>2020-09-12T10:31:06.000Z</time>
      </trkpt>
      <trkpt lat="46.53272" lon="5.50143">
        <ele>490.20001220703</ele>
        <time>2020-09-12T10:31:07.000Z</time>
      </trkpt>
      <trkpt lat="46.53266" lon="5.50131">
        <ele>489.79998779297</ele>
        <time>2020-09-12T10:31:08.000Z</time>
      </trkpt>
      <trkpt lat="46.53253" lon="5.50105">
        <ele>488.79998779297</ele>
        <time>2020-09-12T10:31:10.000Z</time>
      </trkpt>
      <trkpt lat="46.5324" lon="5.50078">
        <ele>487.60000610352</ele>
        <time>2020-09-12T10:31:12.000Z</time>
      </trkpt>
      <trkpt lat="46.53227" lon="5.5005">
        <ele>486.39999389648</ele>
        <time>2020-09-12T10:31:14.000Z</time>
      </trkpt>
      <trkpt lat="46.53213" lon="5.50022">
        <ele>485.39999389648</ele>
        <time>2020-09-12T10:31:16.000Z</time>
      </trkpt>
      <trkpt lat="46.53205" lon="5.50007">
        <ele>484.60000610352</ele>
        <time>2020-09-12T10:31:17.000Z</time>
      </trkpt>
      <trkpt lat="46.53198" lon="5.49993">
        <ele>483.79998779297</ele>
        <time>2020-09-12T10:31:18.000Z</time>
      </trkpt>
      <trkpt lat="46.53183" lon="5.49962">
        <ele>481.79998779297</ele>
        <time>2020-09-12T10:31:20.000Z</time>
      </trkpt>
      <trkpt lat="46.53168" lon="5.49932">
        <ele>480.60000610352</ele>
        <time>2020-09-12T10:31:22.000Z</time>
      </trkpt>
      <trkpt lat="46.5316" lon="5.49916">
        <ele>479.39999389648</ele>
        <time>2020-09-12T10:31:23.000Z</time>
      </trkpt>
      <trkpt lat="46.53153" lon="5.499">
        <ele>478.79998779297</ele>
        <time>2020-09-12T10:31:24.000Z</time>
      </trkpt>
      <trkpt lat="46.53145" lon="5.49884">
        <ele>478.20001220703</ele>
        <time>2020-09-12T10:31:25.000Z</time>
      </trkpt>
      <trkpt lat="46.53138" lon="5.49869">
        <ele>477.20001220703</ele>
        <time>2020-09-12T10:31:26.000Z</time>
      </trkpt>
      <trkpt lat="46.5313" lon="5.49854">
        <ele>476</ele>
        <time>2020-09-12T10:31:27.000Z</time>
      </trkpt>
      <trkpt lat="46.53123" lon="5.49839">
        <ele>475.20001220703</ele>
        <time>2020-09-12T10:31:28.000Z</time>
      </trkpt>
      <trkpt lat="46.53116" lon="5.49824">
        <ele>474.79998779297</ele>
        <time>2020-09-12T10:31:29.000Z</time>
      </trkpt>
      <trkpt lat="46.53109" lon="5.49809">
        <ele>474</ele>
        <time>2020-09-12T10:31:30.000Z</time>
      </trkpt>
      <trkpt lat="46.53102" lon="5.49795">
        <ele>473.20001220703</ele>
        <time>2020-09-12T10:31:31.000Z</time>
      </trkpt>
      <trkpt lat="46.53095" lon="5.49781">
        <ele>472.20001220703</ele>
        <time>2020-09-12T10:31:32.000Z</time>
      </trkpt>
      <trkpt lat="46.53081" lon="5.49754">
        <ele>470.60000610352</ele>
        <time>2020-09-12T10:31:34.000Z</time>
      </trkpt>
      <trkpt lat="46.53069" lon="5.49728">
        <ele>470.20001220703</ele>
        <time>2020-09-12T10:31:36.000Z</time>
      </trkpt>
      <trkpt lat="46.53057" lon="5.49703">
        <ele>470.20001220703</ele>
        <time>2020-09-12T10:31:38.000Z</time>
      </trkpt>
      <trkpt lat="46.53051" lon="5.4969">
        <ele>470.20001220703</ele>
        <time>2020-09-12T10:31:39.000Z</time>
      </trkpt>
      <trkpt lat="46.53045" lon="5.49679">
        <ele>470.20001220703</ele>
        <time>2020-09-12T10:31:40.000Z</time>
      </trkpt>
      <trkpt lat="46.53034" lon="5.49656">
        <ele>470.20001220703</ele>
        <time>2020-09-12T10:31:42.000Z</time>
      </trkpt>
      <trkpt lat="46.53023" lon="5.49635">
        <ele>470.20001220703</ele>
        <time>2020-09-12T10:31:44.000Z</time>
      </trkpt>
      <trkpt lat="46.53017" lon="5.49626">
        <ele>470.60000610352</ele>
        <time>2020-09-12T10:31:45.000Z</time>
      </trkpt>
      <trkpt lat="46.53011" lon="5.49617">
        <ele>470.79998779297</ele>
        <time>2020-09-12T10:31:46.000Z</time>
      </trkpt>
      <trkpt lat="46.53" lon="5.496">
        <ele>471.20001220703</ele>
        <time>2020-09-12T10:31:48.000Z</time>
      </trkpt>
      <trkpt lat="46.52994" lon="5.49592">
        <ele>471.60000610352</ele>
        <time>2020-09-12T10:31:49.000Z</time>
      </trkpt>
      <trkpt lat="46.52988" lon="5.49585">
        <ele>472.20001220703</ele>
        <time>2020-09-12T10:31:50.000Z</time>
      </trkpt>
      <trkpt lat="46.52976" lon="5.4957">
        <ele>473</ele>
        <time>2020-09-12T10:31:52.000Z</time>
      </trkpt>
      <trkpt lat="46.52965" lon="5.49557">
        <ele>474</ele>
        <time>2020-09-12T10:31:54.000Z</time>
      </trkpt>
      <trkpt lat="46.52959" lon="5.49551">
        <ele>474.39999389648</ele>
        <time>2020-09-12T10:31:55.000Z</time>
      </trkpt>
      <trkpt lat="46.52953" lon="5.49545">
        <ele>474.79998779297</ele>
        <time>2020-09-12T10:31:56.000Z</time>
      </trkpt>
      <trkpt lat="46.52942" lon="5.49532">
        <ele>475.60000610352</ele>
        <time>2020-09-12T10:31:58.000Z</time>
      </trkpt>
      <trkpt lat="46.52931" lon="5.4952">
        <ele>476.39999389648</ele>
        <time>2020-09-12T10:32:00.000Z</time>
      </trkpt>
      <trkpt lat="46.52925" lon="5.49514">
        <ele>476.79998779297</ele>
        <time>2020-09-12T10:32:01.000Z</time>
      </trkpt>
      <trkpt lat="46.5292" lon="5.49508">
        <ele>477.20001220703</ele>
        <time>2020-09-12T10:32:02.000Z</time>
      </trkpt>
      <trkpt lat="46.52914" lon="5.49501">
        <ele>478</ele>
        <time>2020-09-12T10:32:03.000Z</time>
      </trkpt>
      <trkpt lat="46.52909" lon="5.49494">
        <ele>478.20001220703</ele>
        <time>2020-09-12T10:32:04.000Z</time>
      </trkpt>
      <trkpt lat="46.52899" lon="5.4948">
        <ele>478.39999389648</ele>
        <time>2020-09-12T10:32:06.000Z</time>
      </trkpt>
      <trkpt lat="46.52888" lon="5.49466">
        <ele>478.60000610352</ele>
        <time>2020-09-12T10:32:08.000Z</time>
      </trkpt>
      <trkpt lat="46.52878" lon="5.4945">
        <ele>478.60000610352</ele>
        <time>2020-09-12T10:32:10.000Z</time>
      </trkpt>
      <trkpt lat="46.52868" lon="5.49435">
        <ele>478.60000610352</ele>
        <time>2020-09-12T10:32:12.000Z</time>
      </trkpt>
      <trkpt lat="46.52857" lon="5.4942">
        <ele>478.60000610352</ele>
        <time>2020-09-12T10:32:14.000Z</time>
      </trkpt>
      <trkpt lat="46.52847" lon="5.49405">
        <ele>478.60000610352</ele>
        <time>2020-09-12T10:32:16.000Z</time>
      </trkpt>
      <trkpt lat="46.52837" lon="5.49389">
        <ele>478.60000610352</ele>
        <time>2020-09-12T10:32:18.000Z</time>
      </trkpt>
      <trkpt lat="46.52827" lon="5.49374">
        <ele>478.60000610352</ele>
        <time>2020-09-12T10:32:20.000Z</time>
      </trkpt>
      <trkpt lat="46.52816" lon="5.49359">
        <ele>478.60000610352</ele>
        <time>2020-09-12T10:32:22.000Z</time>
      </trkpt>
      <trkpt lat="46.52805" lon="5.49343">
        <ele>478.60000610352</ele>
        <time>2020-09-12T10:32:24.000Z</time>
      </trkpt>
      <trkpt lat="46.52795" lon="5.49327">
        <ele>478.60000610352</ele>
        <time>2020-09-12T10:32:26.000Z</time>
      </trkpt>
      <trkpt lat="46.52784" lon="5.49311">
        <ele>478.79998779297</ele>
        <time>2020-09-12T10:32:28.000Z</time>
      </trkpt>
      <trkpt lat="46.52773" lon="5.49295">
        <ele>478.60000610352</ele>
        <time>2020-09-12T10:32:30.000Z</time>
      </trkpt>
      <trkpt lat="46.52762" lon="5.49279">
        <ele>478.60000610352</ele>
        <time>2020-09-12T10:32:32.000Z</time>
      </trkpt>
      <trkpt lat="46.52751" lon="5.49263">
        <ele>478.79998779297</ele>
        <time>2020-09-12T10:32:34.000Z</time>
      </trkpt>
      <trkpt lat="46.52741" lon="5.49248">
        <ele>478.79998779297</ele>
        <time>2020-09-12T10:32:36.000Z</time>
      </trkpt>
      <trkpt lat="46.5273" lon="5.49232">
        <ele>479</ele>
        <time>2020-09-12T10:32:38.000Z</time>
      </trkpt>
      <trkpt lat="46.5272" lon="5.49216">
        <ele>479</ele>
        <time>2020-09-12T10:32:40.000Z</time>
      </trkpt>
      <trkpt lat="46.52715" lon="5.49209">
        <ele>479</ele>
        <time>2020-09-12T10:32:41.000Z</time>
      </trkpt>
      <trkpt lat="46.5271" lon="5.49201">
        <ele>479.20001220703</ele>
        <time>2020-09-12T10:32:42.000Z</time>
      </trkpt>
      <trkpt lat="46.527" lon="5.49187">
        <ele>479.20001220703</ele>
        <time>2020-09-12T10:32:44.000Z</time>
      </trkpt>
      <trkpt lat="46.52691" lon="5.49172">
        <ele>479.39999389648</ele>
        <time>2020-09-12T10:32:46.000Z</time>
      </trkpt>
      <trkpt lat="46.52681" lon="5.49158">
        <ele>479.79998779297</ele>
        <time>2020-09-12T10:32:48.000Z</time>
      </trkpt>
      <trkpt lat="46.52677" lon="5.49151">
        <ele>480.20001220703</ele>
        <time>2020-09-12T10:32:49.000Z</time>
      </trkpt>
      <trkpt lat="46.52672" lon="5.49144">
        <ele>480.60000610352</ele>
        <time>2020-09-12T10:32:50.000Z</time>
      </trkpt>
      <trkpt lat="46.52663" lon="5.49131">
        <ele>481</ele>
        <time>2020-09-12T10:32:52.000Z</time>
      </trkpt>
      <trkpt lat="46.52658" lon="5.49125">
        <ele>481.20001220703</ele>
        <time>2020-09-12T10:32:53.000Z</time>
      </trkpt>
      <trkpt lat="46.52654" lon="5.49118">
        <ele>481.39999389648</ele>
        <time>2020-09-12T10:32:54.000Z</time>
      </trkpt>
      <trkpt lat="46.52646" lon="5.49106">
        <ele>481.60000610352</ele>
        <time>2020-09-12T10:32:56.000Z</time>
      </trkpt>
      <trkpt lat="46.52637" lon="5.49094">
        <ele>481.79998779297</ele>
        <time>2020-09-12T10:32:58.000Z</time>
      </trkpt>
      <trkpt lat="46.52629" lon="5.49082">
        <ele>482.60000610352</ele>
        <time>2020-09-12T10:33:00.000Z</time>
      </trkpt>
      <trkpt lat="46.52621" lon="5.4907">
        <ele>483.39999389648</ele>
        <time>2020-09-12T10:33:02.000Z</time>
      </trkpt>
      <trkpt lat="46.52617" lon="5.49064">
        <ele>483.60000610352</ele>
        <time>2020-09-12T10:33:03.000Z</time>
      </trkpt>
      <trkpt lat="46.52614" lon="5.49058">
        <ele>483.79998779297</ele>
        <time>2020-09-12T10:33:04.000Z</time>
      </trkpt>
      <trkpt lat="46.5261" lon="5.49052">
        <ele>484</ele>
        <time>2020-09-12T10:33:05.000Z</time>
      </trkpt>
      <trkpt lat="46.52607" lon="5.49045">
        <ele>484</ele>
        <time>2020-09-12T10:33:06.000Z</time>
      </trkpt>
      <trkpt lat="46.52601" lon="5.49031">
        <ele>484.20001220703</ele>
        <time>2020-09-12T10:33:08.000Z</time>
      </trkpt>
      <trkpt lat="46.52596" lon="5.49016">
        <ele>484.39999389648</ele>
        <time>2020-09-12T10:33:10.000Z</time>
      </trkpt>
      <trkpt lat="46.52594" lon="5.49007">
        <ele>484.60000610352</ele>
        <time>2020-09-12T10:33:11.000Z</time>
      </trkpt>
      <trkpt lat="46.52592" lon="5.48999">
        <ele>484.79998779297</ele>
        <time>2020-09-12T10:33:12.000Z</time>
      </trkpt>
      <trkpt lat="46.52589" lon="5.48981">
        <ele>485</ele>
        <time>2020-09-12T10:33:14.000Z</time>
      </trkpt>
      <trkpt lat="46.52585" lon="5.48962">
        <ele>485</ele>
        <time>2020-09-12T10:33:16.000Z</time>
      </trkpt>
      <trkpt lat="46.52582" lon="5.48942">
        <ele>485</ele>
        <time>2020-09-12T10:33:18.000Z</time>
      </trkpt>
      <trkpt lat="46.5258" lon="5.48932">
        <ele>485</ele>
        <time>2020-09-12T10:33:19.000Z</time>
      </trkpt>
      <trkpt lat="46.52578" lon="5.48922">
        <ele>485</ele>
        <time>2020-09-12T10:33:20.000Z</time>
      </trkpt>
      <trkpt lat="46.52575" lon="5.48902">
        <ele>485</ele>
        <time>2020-09-12T10:33:22.000Z</time>
      </trkpt>
      <trkpt lat="46.52571" lon="5.48881">
        <ele>485</ele>
        <time>2020-09-12T10:33:24.000Z</time>
      </trkpt>
      <trkpt lat="46.52567" lon="5.4886">
        <ele>484.60000610352</ele>
        <time>2020-09-12T10:33:26.000Z</time>
      </trkpt>
      <trkpt lat="46.52565" lon="5.48838">
        <ele>484.39999389648</ele>
        <time>2020-09-12T10:33:28.000Z</time>
      </trkpt>
      <trkpt lat="46.52566" lon="5.48816">
        <ele>484.20001220703</ele>
        <time>2020-09-12T10:33:30.000Z</time>
      </trkpt>
      <trkpt lat="46.52569" lon="5.48795">
        <ele>483.79998779297</ele>
        <time>2020-09-12T10:33:32.000Z</time>
      </trkpt>
      <trkpt lat="46.52572" lon="5.48774">
        <ele>483.79998779297</ele>
        <time>2020-09-12T10:33:34.000Z</time>
      </trkpt>
      <trkpt lat="46.52576" lon="5.48754">
        <ele>483.60000610352</ele>
        <time>2020-09-12T10:33:36.000Z</time>
      </trkpt>
      <trkpt lat="46.52579" lon="5.48744">
        <ele>483.60000610352</ele>
        <time>2020-09-12T10:33:37.000Z</time>
      </trkpt>
      <trkpt lat="46.52581" lon="5.48734">
        <ele>483.60000610352</ele>
        <time>2020-09-12T10:33:38.000Z</time>
      </trkpt>
      <trkpt lat="46.52583" lon="5.48725">
        <ele>483.39999389648</ele>
        <time>2020-09-12T10:33:39.000Z</time>
      </trkpt>
      <trkpt lat="46.52586" lon="5.48715">
        <ele>483.39999389648</ele>
        <time>2020-09-12T10:33:40.000Z</time>
      </trkpt>
      <trkpt lat="46.5259" lon="5.48695">
        <ele>483.20001220703</ele>
        <time>2020-09-12T10:33:42.000Z</time>
      </trkpt>
      <trkpt lat="46.52594" lon="5.48676">
        <ele>483.20001220703</ele>
        <time>2020-09-12T10:33:44.000Z</time>
      </trkpt>
      <trkpt lat="46.52597" lon="5.48656">
        <ele>483.20001220703</ele>
        <time>2020-09-12T10:33:46.000Z</time>
      </trkpt>
      <trkpt lat="46.52599" lon="5.48645">
        <ele>483.20001220703</ele>
        <time>2020-09-12T10:33:47.000Z</time>
      </trkpt>
      <trkpt lat="46.52601" lon="5.48634">
        <ele>483.20001220703</ele>
        <time>2020-09-12T10:33:48.000Z</time>
      </trkpt>
      <trkpt lat="46.52604" lon="5.48612">
        <ele>483.20001220703</ele>
        <time>2020-09-12T10:33:50.000Z</time>
      </trkpt>
      <trkpt lat="46.52608" lon="5.4859">
        <ele>483</ele>
        <time>2020-09-12T10:33:52.000Z</time>
      </trkpt>
      <trkpt lat="46.52612" lon="5.4858">
        <ele>483</ele>
        <time>2020-09-12T10:33:53.000Z</time>
      </trkpt>
      <trkpt lat="46.52616" lon="5.4857">
        <ele>483</ele>
        <time>2020-09-12T10:33:54.000Z</time>
      </trkpt>
      <trkpt lat="46.52627" lon="5.48553">
        <ele>482.60000610352</ele>
        <time>2020-09-12T10:33:56.000Z</time>
      </trkpt>
      <trkpt lat="46.52633" lon="5.48545">
        <ele>482.60000610352</ele>
        <time>2020-09-12T10:33:57.000Z</time>
      </trkpt>
      <trkpt lat="46.52638" lon="5.48537">
        <ele>482.39999389648</ele>
        <time>2020-09-12T10:33:58.000Z</time>
      </trkpt>
      <trkpt lat="46.52645" lon="5.48517">
        <ele>482</ele>
        <time>2020-09-12T10:34:00.000Z</time>
      </trkpt>
      <trkpt lat="46.52645" lon="5.48493">
        <ele>481.39999389648</ele>
        <time>2020-09-12T10:34:02.000Z</time>
      </trkpt>
      <trkpt lat="46.52641" lon="5.48482">
        <ele>481.39999389648</ele>
        <time>2020-09-12T10:34:03.000Z</time>
      </trkpt>
      <trkpt lat="46.52637" lon="5.48471">
        <ele>481.20001220703</ele>
        <time>2020-09-12T10:34:04.000Z</time>
      </trkpt>
      <trkpt lat="46.52632" lon="5.4846">
        <ele>481.20001220703</ele>
        <time>2020-09-12T10:34:05.000Z</time>
      </trkpt>
      <trkpt lat="46.52627" lon="5.4845">
        <ele>481</ele>
        <time>2020-09-12T10:34:06.000Z</time>
      </trkpt>
      <trkpt lat="46.52622" lon="5.48438">
        <ele>481</ele>
        <time>2020-09-12T10:34:07.000Z</time>
      </trkpt>
      <trkpt lat="46.52618" lon="5.48424">
        <ele>480.39999389648</ele>
        <time>2020-09-12T10:34:08.000Z</time>
      </trkpt>
      <trkpt lat="46.52613" lon="5.48396">
        <ele>479.20001220703</ele>
        <time>2020-09-12T10:34:10.000Z</time>
      </trkpt>
      <trkpt lat="46.52611" lon="5.48381">
        <ele>478.60000610352</ele>
        <time>2020-09-12T10:34:11.000Z</time>
      </trkpt>
      <trkpt lat="46.5261" lon="5.48366">
        <ele>478.20001220703</ele>
        <time>2020-09-12T10:34:12.000Z</time>
      </trkpt>
      <trkpt lat="46.52607" lon="5.48337">
        <ele>477.60000610352</ele>
        <time>2020-09-12T10:34:14.000Z</time>
      </trkpt>
      <trkpt lat="46.52601" lon="5.48308">
        <ele>476.79998779297</ele>
        <time>2020-09-12T10:34:16.000Z</time>
      </trkpt>
      <trkpt lat="46.52597" lon="5.48294">
        <ele>476.20001220703</ele>
        <time>2020-09-12T10:34:17.000Z</time>
      </trkpt>
      <trkpt lat="46.52592" lon="5.48281">
        <ele>475.39999389648</ele>
        <time>2020-09-12T10:34:18.000Z</time>
      </trkpt>
      <trkpt lat="46.52579" lon="5.48256">
        <ele>474</ele>
        <time>2020-09-12T10:34:20.000Z</time>
      </trkpt>
      <trkpt lat="46.52562" lon="5.48235">
        <ele>472.79998779297</ele>
        <time>2020-09-12T10:34:22.000Z</time>
      </trkpt>
      <trkpt lat="46.52552" lon="5.48227">
        <ele>472.39999389648</ele>
        <time>2020-09-12T10:34:23.000Z</time>
      </trkpt>
      <trkpt lat="46.52542" lon="5.4822">
        <ele>472.20001220703</ele>
        <time>2020-09-12T10:34:24.000Z</time>
      </trkpt>
      <trkpt lat="46.52522" lon="5.48206">
        <ele>471.60000610352</ele>
        <time>2020-09-12T10:34:26.000Z</time>
      </trkpt>
      <trkpt lat="46.525" lon="5.48193">
        <ele>470.60000610352</ele>
        <time>2020-09-12T10:34:28.000Z</time>
      </trkpt>
      <trkpt lat="46.52489" lon="5.48187">
        <ele>469.39999389648</ele>
        <time>2020-09-12T10:34:29.000Z</time>
      </trkpt>
      <trkpt lat="46.52478" lon="5.48181">
        <ele>468.60000610352</ele>
        <time>2020-09-12T10:34:30.000Z</time>
      </trkpt>
      <trkpt lat="46.52467" lon="5.48176">
        <ele>467.79998779297</ele>
        <time>2020-09-12T10:34:31.000Z</time>
      </trkpt>
      <trkpt lat="46.52455" lon="5.48172">
        <ele>467</ele>
        <time>2020-09-12T10:34:32.000Z</time>
      </trkpt>
      <trkpt lat="46.52444" lon="5.48169">
        <ele>466.60000610352</ele>
        <time>2020-09-12T10:34:33.000Z</time>
      </trkpt>
      <trkpt lat="46.52432" lon="5.48166">
        <ele>466.20001220703</ele>
        <time>2020-09-12T10:34:34.000Z</time>
      </trkpt>
      <trkpt lat="46.5242" lon="5.48165">
        <ele>465.39999389648</ele>
        <time>2020-09-12T10:34:35.000Z</time>
      </trkpt>
      <trkpt lat="46.52408" lon="5.48164">
        <ele>464.79998779297</ele>
        <time>2020-09-12T10:34:36.000Z</time>
      </trkpt>
      <trkpt lat="46.52396" lon="5.48164">
        <ele>464.20001220703</ele>
        <time>2020-09-12T10:34:37.000Z</time>
      </trkpt>
      <trkpt lat="46.52385" lon="5.48164">
        <ele>463.39999389648</ele>
        <time>2020-09-12T10:34:38.000Z</time>
      </trkpt>
      <trkpt lat="46.52375" lon="5.48166">
        <ele>462.79998779297</ele>
        <time>2020-09-12T10:34:39.000Z</time>
      </trkpt>
      <trkpt lat="46.52365" lon="5.48168">
        <ele>462</ele>
        <time>2020-09-12T10:34:40.000Z</time>
      </trkpt>
      <trkpt lat="46.52358" lon="5.48167">
        <ele>461.20001220703</ele>
        <time>2020-09-12T10:34:41.000Z</time>
      </trkpt>
      <trkpt lat="46.52354" lon="5.48162">
        <ele>460.60000610352</ele>
        <time>2020-09-12T10:34:42.000Z</time>
      </trkpt>
      <trkpt lat="46.52355" lon="5.48155">
        <ele>460</ele>
        <time>2020-09-12T10:34:43.000Z</time>
      </trkpt>
      <trkpt lat="46.52359" lon="5.48148">
        <ele>459.60000610352</ele>
        <time>2020-09-12T10:34:44.000Z</time>
      </trkpt>
      <trkpt lat="46.52365" lon="5.48144">
        <ele>459.20001220703</ele>
        <time>2020-09-12T10:34:45.000Z</time>
      </trkpt>
      <trkpt lat="46.52372" lon="5.48142">
        <ele>459</ele>
        <time>2020-09-12T10:34:46.000Z</time>
      </trkpt>
      <trkpt lat="46.5238" lon="5.48141">
        <ele>458.79998779297</ele>
        <time>2020-09-12T10:34:47.000Z</time>
      </trkpt>
      <trkpt lat="46.52389" lon="5.48139">
        <ele>458.60000610352</ele>
        <time>2020-09-12T10:34:48.000Z</time>
      </trkpt>
      <trkpt lat="46.52399" lon="5.48137">
        <ele>458.60000610352</ele>
        <time>2020-09-12T10:34:49.000Z</time>
      </trkpt>
      <trkpt lat="46.52408" lon="5.48134">
        <ele>458.39999389648</ele>
        <time>2020-09-12T10:34:50.000Z</time>
      </trkpt>
      <trkpt lat="46.52427" lon="5.48129">
        <ele>458</ele>
        <time>2020-09-12T10:34:52.000Z</time>
      </trkpt>
      <trkpt lat="46.52436" lon="5.48126">
        <ele>457.39999389648</ele>
        <time>2020-09-12T10:34:53.000Z</time>
      </trkpt>
      <trkpt lat="46.52445" lon="5.48124">
        <ele>456.60000610352</ele>
        <time>2020-09-12T10:34:54.000Z</time>
      </trkpt>
      <trkpt lat="46.52455" lon="5.48123">
        <ele>455.79998779297</ele>
        <time>2020-09-12T10:34:55.000Z</time>
      </trkpt>
      <trkpt lat="46.52464" lon="5.48121">
        <ele>454.79998779297</ele>
        <time>2020-09-12T10:34:56.000Z</time>
      </trkpt>
      <trkpt lat="46.52473" lon="5.4812">
        <ele>453.79998779297</ele>
        <time>2020-09-12T10:34:57.000Z</time>
      </trkpt>
      <trkpt lat="46.52483" lon="5.48118">
        <ele>453.39999389648</ele>
        <time>2020-09-12T10:34:58.000Z</time>
      </trkpt>
      <trkpt lat="46.52501" lon="5.48113">
        <ele>452.20001220703</ele>
        <time>2020-09-12T10:35:00.000Z</time>
      </trkpt>
      <trkpt lat="46.5252" lon="5.48107">
        <ele>450.60000610352</ele>
        <time>2020-09-12T10:35:02.000Z</time>
      </trkpt>
      <trkpt lat="46.52529" lon="5.48106">
        <ele>450</ele>
        <time>2020-09-12T10:35:03.000Z</time>
      </trkpt>
      <trkpt lat="46.52539" lon="5.48105">
        <ele>449.60000610352</ele>
        <time>2020-09-12T10:35:04.000Z</time>
      </trkpt>
      <trkpt lat="46.52549" lon="5.48105">
        <ele>449.20001220703</ele>
        <time>2020-09-12T10:35:05.000Z</time>
      </trkpt>
      <trkpt lat="46.52559" lon="5.48106">
        <ele>448.39999389648</ele>
        <time>2020-09-12T10:35:06.000Z</time>
      </trkpt>
      <trkpt lat="46.52569" lon="5.48107">
        <ele>447.79998779297</ele>
        <time>2020-09-12T10:35:07.000Z</time>
      </trkpt>
      <trkpt lat="46.52579" lon="5.48109">
        <ele>447.39999389648</ele>
        <time>2020-09-12T10:35:08.000Z</time>
      </trkpt>
      <trkpt lat="46.52599" lon="5.48112">
        <ele>446.39999389648</ele>
        <time>2020-09-12T10:35:10.000Z</time>
      </trkpt>
      <trkpt lat="46.52619" lon="5.48117">
        <ele>445.20001220703</ele>
        <time>2020-09-12T10:35:12.000Z</time>
      </trkpt>
      <trkpt lat="46.5264" lon="5.48122">
        <ele>444.39999389648</ele>
        <time>2020-09-12T10:35:14.000Z</time>
      </trkpt>
      <trkpt lat="46.5265" lon="5.48124">
        <ele>443.39999389648</ele>
        <time>2020-09-12T10:35:15.000Z</time>
      </trkpt>
      <trkpt lat="46.52661" lon="5.48126">
        <ele>442.60000610352</ele>
        <time>2020-09-12T10:35:16.000Z</time>
      </trkpt>
      <trkpt lat="46.52671" lon="5.48128">
        <ele>441.79998779297</ele>
        <time>2020-09-12T10:35:17.000Z</time>
      </trkpt>
      <trkpt lat="46.52682" lon="5.48131">
        <ele>441.20001220703</ele>
        <time>2020-09-12T10:35:18.000Z</time>
      </trkpt>
      <trkpt lat="46.52692" lon="5.48133">
        <ele>440.60000610352</ele>
        <time>2020-09-12T10:35:19.000Z</time>
      </trkpt>
      <trkpt lat="46.52702" lon="5.48135">
        <ele>440.20001220703</ele>
        <time>2020-09-12T10:35:20.000Z</time>
      </trkpt>
      <trkpt lat="46.52711" lon="5.48137">
        <ele>439.60000610352</ele>
        <time>2020-09-12T10:35:21.000Z</time>
      </trkpt>
      <trkpt lat="46.52719" lon="5.48138">
        <ele>439</ele>
        <time>2020-09-12T10:35:22.000Z</time>
      </trkpt>
      <trkpt lat="46.52727" lon="5.4814">
        <ele>438.20001220703</ele>
        <time>2020-09-12T10:35:23.000Z</time>
      </trkpt>
      <trkpt lat="46.52733" lon="5.48141">
        <ele>437.79998779297</ele>
        <time>2020-09-12T10:35:24.000Z</time>
      </trkpt>
      <trkpt lat="46.5274" lon="5.48142">
        <ele>437.60000610352</ele>
        <time>2020-09-12T10:35:25.000Z</time>
      </trkpt>
      <trkpt lat="46.52746" lon="5.48143">
        <ele>437.39999389648</ele>
        <time>2020-09-12T10:35:26.000Z</time>
      </trkpt>
      <trkpt lat="46.52756" lon="5.48145">
        <ele>437.39999389648</ele>
        <time>2020-09-12T10:35:28.000Z</time>
      </trkpt>
      <trkpt lat="46.52761" lon="5.48146">
        <ele>437.39999389648</ele>
        <time>2020-09-12T10:35:29.000Z</time>
      </trkpt>
      <trkpt lat="46.52765" lon="5.48147">
        <ele>437.39999389648</ele>
        <time>2020-09-12T10:35:30.000Z</time>
      </trkpt>
      <trkpt lat="46.52768" lon="5.48149">
        <ele>437.39999389648</ele>
        <time>2020-09-12T10:35:31.000Z</time>
      </trkpt>
      <trkpt lat="46.52769" lon="5.48153">
        <ele>437.60000610352</ele>
        <time>2020-09-12T10:35:32.000Z</time>
      </trkpt>
      <trkpt lat="46.5277" lon="5.48161">
        <ele>438</ele>
        <time>2020-09-12T10:35:34.000Z</time>
      </trkpt>
      <trkpt lat="46.5277" lon="5.48164">
        <ele>438</ele>
        <time>2020-09-12T10:35:35.000Z</time>
      </trkpt>
      <trkpt lat="46.5277" lon="5.48166">
        <ele>438</ele>
        <time>2020-09-12T10:35:36.000Z</time>
      </trkpt>
      <trkpt lat="46.5277" lon="5.48167">
        <ele>438.20001220703</ele>
        <time>2020-09-12T10:35:38.000Z</time>
      </trkpt>
      <trkpt lat="46.52771" lon="5.48162">
        <ele>439.60000610352</ele>
        <time>2020-09-12T10:36:02.000Z</time>
      </trkpt>
      <trkpt lat="46.52771" lon="5.48157">
        <ele>439.60000610352</ele>
        <time>2020-09-12T10:36:03.000Z</time>
      </trkpt>
      <trkpt lat="46.52772" lon="5.48153">
        <ele>439.60000610352</ele>
        <time>2020-09-12T10:36:04.000Z</time>
      </trkpt>
      <trkpt lat="46.5278" lon="5.4815">
        <ele>439.39999389648</ele>
        <time>2020-09-12T10:36:06.000Z</time>
      </trkpt>
      <trkpt lat="46.52784" lon="5.48151">
        <ele>439.39999389648</ele>
        <time>2020-09-12T10:36:07.000Z</time>
      </trkpt>
      <trkpt lat="46.5279" lon="5.48151">
        <ele>439.39999389648</ele>
        <time>2020-09-12T10:36:08.000Z</time>
      </trkpt>
      <trkpt lat="46.52801" lon="5.48149">
        <ele>439.20001220703</ele>
        <time>2020-09-12T10:36:10.000Z</time>
      </trkpt>
      <trkpt lat="46.52813" lon="5.4814">
        <ele>439</ele>
        <time>2020-09-12T10:36:12.000Z</time>
      </trkpt>
      <trkpt lat="46.52818" lon="5.48133">
        <ele>438.79998779297</ele>
        <time>2020-09-12T10:36:13.000Z</time>
      </trkpt>
      <trkpt lat="46.52823" lon="5.48124">
        <ele>438.20001220703</ele>
        <time>2020-09-12T10:36:14.000Z</time>
      </trkpt>
      <trkpt lat="46.52831" lon="5.48106">
        <ele>437.39999389648</ele>
        <time>2020-09-12T10:36:16.000Z</time>
      </trkpt>
      <trkpt lat="46.52835" lon="5.48095">
        <ele>437</ele>
        <time>2020-09-12T10:36:17.000Z</time>
      </trkpt>
      <trkpt lat="46.52839" lon="5.48084">
        <ele>436.79998779297</ele>
        <time>2020-09-12T10:36:18.000Z</time>
      </trkpt>
      <trkpt lat="46.52846" lon="5.48062">
        <ele>435.60000610352</ele>
        <time>2020-09-12T10:36:20.000Z</time>
      </trkpt>
      <trkpt lat="46.52853" lon="5.48038">
        <ele>434.79998779297</ele>
        <time>2020-09-12T10:36:22.000Z</time>
      </trkpt>
      <trkpt lat="46.52857" lon="5.48026">
        <ele>434.39999389648</ele>
        <time>2020-09-12T10:36:23.000Z</time>
      </trkpt>
      <trkpt lat="46.5286" lon="5.48015">
        <ele>434</ele>
        <time>2020-09-12T10:36:24.000Z</time>
      </trkpt>
      <trkpt lat="46.52864" lon="5.48004">
        <ele>433.20001220703</ele>
        <time>2020-09-12T10:36:25.000Z</time>
      </trkpt>
      <trkpt lat="46.52867" lon="5.47994">
        <ele>432.60000610352</ele>
        <time>2020-09-12T10:36:26.000Z</time>
      </trkpt>
      <trkpt lat="46.52869" lon="5.47985">
        <ele>432</ele>
        <time>2020-09-12T10:36:27.000Z</time>
      </trkpt>
      <trkpt lat="46.52872" lon="5.47977">
        <ele>431.39999389648</ele>
        <time>2020-09-12T10:36:28.000Z</time>
      </trkpt>
      <trkpt lat="46.52876" lon="5.47963">
        <ele>431</ele>
        <time>2020-09-12T10:36:30.000Z</time>
      </trkpt>
      <trkpt lat="46.52878" lon="5.47953">
        <ele>430.79998779297</ele>
        <time>2020-09-12T10:36:32.000Z</time>
      </trkpt>
      <trkpt lat="46.52879" lon="5.47949">
        <ele>430.79998779297</ele>
        <time>2020-09-12T10:36:33.000Z</time>
      </trkpt>
      <trkpt lat="46.52879" lon="5.47948">
        <ele>430.79998779297</ele>
        <time>2020-09-12T10:36:34.000Z</time>
      </trkpt>
      <trkpt lat="46.52879" lon="5.47946">
        <ele>430.60000610352</ele>
        <time>2020-09-12T10:36:36.000Z</time>
      </trkpt>
      <trkpt lat="46.52879" lon="5.47943">
        <ele>430.39999389648</ele>
        <time>2020-09-12T10:36:37.000Z</time>
      </trkpt>
      <trkpt lat="46.52877" lon="5.47941">
        <ele>430.39999389648</ele>
        <time>2020-09-12T10:36:38.000Z</time>
      </trkpt>
      <trkpt lat="46.52871" lon="5.47936">
        <ele>430.79998779297</ele>
        <time>2020-09-12T10:36:40.000Z</time>
      </trkpt>
      <trkpt lat="46.52867" lon="5.47934">
        <ele>430.79998779297</ele>
        <time>2020-09-12T10:36:41.000Z</time>
      </trkpt>
      <trkpt lat="46.52861" lon="5.47932">
        <ele>430.79998779297</ele>
        <time>2020-09-12T10:36:42.000Z</time>
      </trkpt>
      <trkpt lat="46.52849" lon="5.47927">
        <ele>430.79998779297</ele>
        <time>2020-09-12T10:36:44.000Z</time>
      </trkpt>
      <trkpt lat="46.52835" lon="5.47922">
        <ele>430.79998779297</ele>
        <time>2020-09-12T10:36:46.000Z</time>
      </trkpt>
      <trkpt lat="46.52821" lon="5.47917">
        <ele>430.79998779297</ele>
        <time>2020-09-12T10:36:48.000Z</time>
      </trkpt>
      <trkpt lat="46.52806" lon="5.47912">
        <ele>430.39999389648</ele>
        <time>2020-09-12T10:36:50.000Z</time>
      </trkpt>
      <trkpt lat="46.52791" lon="5.47907">
        <ele>430</ele>
        <time>2020-09-12T10:36:52.000Z</time>
      </trkpt>
      <trkpt lat="46.52783" lon="5.47904">
        <ele>429.79998779297</ele>
        <time>2020-09-12T10:36:53.000Z</time>
      </trkpt>
      <trkpt lat="46.52775" lon="5.47901">
        <ele>429.60000610352</ele>
        <time>2020-09-12T10:36:54.000Z</time>
      </trkpt>
      <trkpt lat="46.5276" lon="5.47896">
        <ele>429.60000610352</ele>
        <time>2020-09-12T10:36:56.000Z</time>
      </trkpt>
      <trkpt lat="46.52745" lon="5.47891">
        <ele>429.60000610352</ele>
        <time>2020-09-12T10:36:58.000Z</time>
      </trkpt>
      <trkpt lat="46.5273" lon="5.47885">
        <ele>429.39999389648</ele>
        <time>2020-09-12T10:37:00.000Z</time>
      </trkpt>
      <trkpt lat="46.52715" lon="5.4788">
        <ele>429.39999389648</ele>
        <time>2020-09-12T10:37:02.000Z</time>
      </trkpt>
      <trkpt lat="46.527" lon="5.47875">
        <ele>429.39999389648</ele>
        <time>2020-09-12T10:37:04.000Z</time>
      </trkpt>
      <trkpt lat="46.52684" lon="5.47869">
        <ele>429.39999389648</ele>
        <time>2020-09-12T10:37:06.000Z</time>
      </trkpt>
      <trkpt lat="46.52668" lon="5.47863">
        <ele>429.39999389648</ele>
        <time>2020-09-12T10:37:08.000Z</time>
      </trkpt>
      <trkpt lat="46.52652" lon="5.47857">
        <ele>429.20001220703</ele>
        <time>2020-09-12T10:37:10.000Z</time>
      </trkpt>
      <trkpt lat="46.52635" lon="5.47851">
        <ele>429.20001220703</ele>
        <time>2020-09-12T10:37:12.000Z</time>
      </trkpt>
      <trkpt lat="46.52618" lon="5.47845">
        <ele>429.20001220703</ele>
        <time>2020-09-12T10:37:14.000Z</time>
      </trkpt>
      <trkpt lat="46.526" lon="5.47838">
        <ele>429.20001220703</ele>
        <time>2020-09-12T10:37:16.000Z</time>
      </trkpt>
      <trkpt lat="46.52582" lon="5.47832">
        <ele>429</ele>
        <time>2020-09-12T10:37:18.000Z</time>
      </trkpt>
      <trkpt lat="46.52563" lon="5.47825">
        <ele>428.79998779297</ele>
        <time>2020-09-12T10:37:20.000Z</time>
      </trkpt>
      <trkpt lat="46.52545" lon="5.47818">
        <ele>428.39999389648</ele>
        <time>2020-09-12T10:37:22.000Z</time>
      </trkpt>
      <trkpt lat="46.52526" lon="5.47811">
        <ele>427.79998779297</ele>
        <time>2020-09-12T10:37:24.000Z</time>
      </trkpt>
      <trkpt lat="46.52516" lon="5.47808">
        <ele>427.39999389648</ele>
        <time>2020-09-12T10:37:25.000Z</time>
      </trkpt>
      <trkpt lat="46.52507" lon="5.47804">
        <ele>427.20001220703</ele>
        <time>2020-09-12T10:37:26.000Z</time>
      </trkpt>
      <trkpt lat="46.52487" lon="5.47797">
        <ele>427</ele>
        <time>2020-09-12T10:37:28.000Z</time>
      </trkpt>
      <trkpt lat="46.52468" lon="5.4779">
        <ele>426.60000610352</ele>
        <time>2020-09-12T10:37:30.000Z</time>
      </trkpt>
      <trkpt lat="46.52459" lon="5.47787">
        <ele>426.39999389648</ele>
        <time>2020-09-12T10:37:31.000Z</time>
      </trkpt>
      <trkpt lat="46.52449" lon="5.47783">
        <ele>426.20001220703</ele>
        <time>2020-09-12T10:37:32.000Z</time>
      </trkpt>
      <trkpt lat="46.5243" lon="5.47775">
        <ele>425.60000610352</ele>
        <time>2020-09-12T10:37:34.000Z</time>
      </trkpt>
      <trkpt lat="46.52421" lon="5.47771">
        <ele>425.60000610352</ele>
        <time>2020-09-12T10:37:35.000Z</time>
      </trkpt>
      <trkpt lat="46.52411" lon="5.47768">
        <ele>425.20001220703</ele>
        <time>2020-09-12T10:37:36.000Z</time>
      </trkpt>
      <trkpt lat="46.52393" lon="5.4776">
        <ele>424.60000610352</ele>
        <time>2020-09-12T10:37:38.000Z</time>
      </trkpt>
      <trkpt lat="46.52374" lon="5.47753">
        <ele>424.20001220703</ele>
        <time>2020-09-12T10:37:40.000Z</time>
      </trkpt>
      <trkpt lat="46.52355" lon="5.47745">
        <ele>424</ele>
        <time>2020-09-12T10:37:42.000Z</time>
      </trkpt>
      <trkpt lat="46.52337" lon="5.47736">
        <ele>423.79998779297</ele>
        <time>2020-09-12T10:37:44.000Z</time>
      </trkpt>
      <trkpt lat="46.52319" lon="5.47727">
        <ele>423.79998779297</ele>
        <time>2020-09-12T10:37:46.000Z</time>
      </trkpt>
      <trkpt lat="46.523" lon="5.47719">
        <ele>423.60000610352</ele>
        <time>2020-09-12T10:37:48.000Z</time>
      </trkpt>
      <trkpt lat="46.52282" lon="5.47711">
        <ele>423.39999389648</ele>
        <time>2020-09-12T10:37:50.000Z</time>
      </trkpt>
      <trkpt lat="46.52264" lon="5.47702">
        <ele>423.20001220703</ele>
        <time>2020-09-12T10:37:52.000Z</time>
      </trkpt>
      <trkpt lat="46.52255" lon="5.47698">
        <ele>423.20001220703</ele>
        <time>2020-09-12T10:37:53.000Z</time>
      </trkpt>
      <trkpt lat="46.52246" lon="5.47694">
        <ele>423</ele>
        <time>2020-09-12T10:37:54.000Z</time>
      </trkpt>
      <trkpt lat="46.52229" lon="5.47685">
        <ele>423</ele>
        <time>2020-09-12T10:37:56.000Z</time>
      </trkpt>
      <trkpt lat="46.52212" lon="5.47677">
        <ele>422.79998779297</ele>
        <time>2020-09-12T10:37:58.000Z</time>
      </trkpt>
      <trkpt lat="46.52195" lon="5.47669">
        <ele>422.60000610352</ele>
        <time>2020-09-12T10:38:00.000Z</time>
      </trkpt>
      <trkpt lat="46.52179" lon="5.4766">
        <ele>422.60000610352</ele>
        <time>2020-09-12T10:38:02.000Z</time>
      </trkpt>
      <trkpt lat="46.52163" lon="5.47652">
        <ele>422.60000610352</ele>
        <time>2020-09-12T10:38:04.000Z</time>
      </trkpt>
      <trkpt lat="46.52155" lon="5.47647">
        <ele>422.60000610352</ele>
        <time>2020-09-12T10:38:05.000Z</time>
      </trkpt>
      <trkpt lat="46.52147" lon="5.47643">
        <ele>422.60000610352</ele>
        <time>2020-09-12T10:38:06.000Z</time>
      </trkpt>
      <trkpt lat="46.52132" lon="5.47634">
        <ele>422.60000610352</ele>
        <time>2020-09-12T10:38:08.000Z</time>
      </trkpt>
      <trkpt lat="46.52117" lon="5.47627">
        <ele>422.60000610352</ele>
        <time>2020-09-12T10:38:10.000Z</time>
      </trkpt>
      <trkpt lat="46.52101" lon="5.47619">
        <ele>422.60000610352</ele>
        <time>2020-09-12T10:38:12.000Z</time>
      </trkpt>
      <trkpt lat="46.52093" lon="5.47616">
        <ele>422.60000610352</ele>
        <time>2020-09-12T10:38:13.000Z</time>
      </trkpt>
      <trkpt lat="46.52085" lon="5.47613">
        <ele>422.60000610352</ele>
        <time>2020-09-12T10:38:14.000Z</time>
      </trkpt>
      <trkpt lat="46.52069" lon="5.47607">
        <ele>423</ele>
        <time>2020-09-12T10:38:16.000Z</time>
      </trkpt>
      <trkpt lat="46.52053" lon="5.47601">
        <ele>423</ele>
        <time>2020-09-12T10:38:18.000Z</time>
      </trkpt>
      <trkpt lat="46.52036" lon="5.47594">
        <ele>423</ele>
        <time>2020-09-12T10:38:20.000Z</time>
      </trkpt>
      <trkpt lat="46.52019" lon="5.47587">
        <ele>423</ele>
        <time>2020-09-12T10:38:22.000Z</time>
      </trkpt>
      <trkpt lat="46.52003" lon="5.47581">
        <ele>423</ele>
        <time>2020-09-12T10:38:24.000Z</time>
      </trkpt>
      <trkpt lat="46.51986" lon="5.47574">
        <ele>422.79998779297</ele>
        <time>2020-09-12T10:38:26.000Z</time>
      </trkpt>
      <trkpt lat="46.51969" lon="5.47567">
        <ele>422.60000610352</ele>
        <time>2020-09-12T10:38:28.000Z</time>
      </trkpt>
      <trkpt lat="46.51952" lon="5.47561">
        <ele>422.60000610352</ele>
        <time>2020-09-12T10:38:30.000Z</time>
      </trkpt>
      <trkpt lat="46.51935" lon="5.47554">
        <ele>422.60000610352</ele>
        <time>2020-09-12T10:38:32.000Z</time>
      </trkpt>
      <trkpt lat="46.51919" lon="5.47548">
        <ele>422.60000610352</ele>
        <time>2020-09-12T10:38:34.000Z</time>
      </trkpt>
      <trkpt lat="46.51902" lon="5.47541">
        <ele>422.60000610352</ele>
        <time>2020-09-12T10:38:36.000Z</time>
      </trkpt>
      <trkpt lat="46.51885" lon="5.47534">
        <ele>422.60000610352</ele>
        <time>2020-09-12T10:38:38.000Z</time>
      </trkpt>
      <trkpt lat="46.51868" lon="5.47527">
        <ele>422.79998779297</ele>
        <time>2020-09-12T10:38:40.000Z</time>
      </trkpt>
      <trkpt lat="46.51859" lon="5.47524">
        <ele>422.79998779297</ele>
        <time>2020-09-12T10:38:41.000Z</time>
      </trkpt>
      <trkpt lat="46.51851" lon="5.47521">
        <ele>422.79998779297</ele>
        <time>2020-09-12T10:38:42.000Z</time>
      </trkpt>
      <trkpt lat="46.51834" lon="5.47514">
        <ele>422.79998779297</ele>
        <time>2020-09-12T10:38:44.000Z</time>
      </trkpt>
      <trkpt lat="46.51818" lon="5.47507">
        <ele>422.60000610352</ele>
        <time>2020-09-12T10:38:46.000Z</time>
      </trkpt>
      <trkpt lat="46.51802" lon="5.47501">
        <ele>422.60000610352</ele>
        <time>2020-09-12T10:38:48.000Z</time>
      </trkpt>
      <trkpt lat="46.51785" lon="5.47494">
        <ele>422.39999389648</ele>
        <time>2020-09-12T10:38:50.000Z</time>
      </trkpt>
      <trkpt lat="46.51769" lon="5.47488">
        <ele>422.39999389648</ele>
        <time>2020-09-12T10:38:52.000Z</time>
      </trkpt>
      <trkpt lat="46.51752" lon="5.47481">
        <ele>422.39999389648</ele>
        <time>2020-09-12T10:38:54.000Z</time>
      </trkpt>
      <trkpt lat="46.51735" lon="5.47475">
        <ele>422.39999389648</ele>
        <time>2020-09-12T10:38:56.000Z</time>
      </trkpt>
      <trkpt lat="46.51718" lon="5.47468">
        <ele>422.20001220703</ele>
        <time>2020-09-12T10:38:58.000Z</time>
      </trkpt>
      <trkpt lat="46.51701" lon="5.47461">
        <ele>422</ele>
        <time>2020-09-12T10:39:00.000Z</time>
      </trkpt>
      <trkpt lat="46.51684" lon="5.47454">
        <ele>422</ele>
        <time>2020-09-12T10:39:02.000Z</time>
      </trkpt>
      <trkpt lat="46.51667" lon="5.47447">
        <ele>421.79998779297</ele>
        <time>2020-09-12T10:39:04.000Z</time>
      </trkpt>
      <trkpt lat="46.5165" lon="5.4744">
        <ele>421.60000610352</ele>
        <time>2020-09-12T10:39:06.000Z</time>
      </trkpt>
      <trkpt lat="46.51632" lon="5.47433">
        <ele>421.60000610352</ele>
        <time>2020-09-12T10:39:08.000Z</time>
      </trkpt>
      <trkpt lat="46.51614" lon="5.47425">
        <ele>421.39999389648</ele>
        <time>2020-09-12T10:39:10.000Z</time>
      </trkpt>
      <trkpt lat="46.51596" lon="5.47418">
        <ele>421.39999389648</ele>
        <time>2020-09-12T10:39:12.000Z</time>
      </trkpt>
      <trkpt lat="46.51578" lon="5.47411">
        <ele>421.20001220703</ele>
        <time>2020-09-12T10:39:14.000Z</time>
      </trkpt>
      <trkpt lat="46.5156" lon="5.47403">
        <ele>421.20001220703</ele>
        <time>2020-09-12T10:39:16.000Z</time>
      </trkpt>
      <trkpt lat="46.51551" lon="5.47399">
        <ele>421</ele>
        <time>2020-09-12T10:39:17.000Z</time>
      </trkpt>
      <trkpt lat="46.51542" lon="5.47396">
        <ele>421</ele>
        <time>2020-09-12T10:39:18.000Z</time>
      </trkpt>
      <trkpt lat="46.51524" lon="5.47388">
        <ele>420.60000610352</ele>
        <time>2020-09-12T10:39:20.000Z</time>
      </trkpt>
      <trkpt lat="46.51506" lon="5.47381">
        <ele>420.20001220703</ele>
        <time>2020-09-12T10:39:22.000Z</time>
      </trkpt>
      <trkpt lat="46.51488" lon="5.47374">
        <ele>420</ele>
        <time>2020-09-12T10:39:24.000Z</time>
      </trkpt>
      <trkpt lat="46.51479" lon="5.4737">
        <ele>420</ele>
        <time>2020-09-12T10:39:25.000Z</time>
      </trkpt>
      <trkpt lat="46.5147" lon="5.47367">
        <ele>420</ele>
        <time>2020-09-12T10:39:26.000Z</time>
      </trkpt>
      <trkpt lat="46.51453" lon="5.4736">
        <ele>419.79998779297</ele>
        <time>2020-09-12T10:39:28.000Z</time>
      </trkpt>
      <trkpt lat="46.51436" lon="5.47352">
        <ele>419.79998779297</ele>
        <time>2020-09-12T10:39:30.000Z</time>
      </trkpt>
      <trkpt lat="46.51419" lon="5.47345">
        <ele>419.60000610352</ele>
        <time>2020-09-12T10:39:32.000Z</time>
      </trkpt>
      <trkpt lat="46.51402" lon="5.47337">
        <ele>419.60000610352</ele>
        <time>2020-09-12T10:39:34.000Z</time>
      </trkpt>
      <trkpt lat="46.51385" lon="5.4733">
        <ele>419.60000610352</ele>
        <time>2020-09-12T10:39:36.000Z</time>
      </trkpt>
      <trkpt lat="46.51366" lon="5.47324">
        <ele>419.39999389648</ele>
        <time>2020-09-12T10:39:38.000Z</time>
      </trkpt>
      <trkpt lat="46.51348" lon="5.47317">
        <ele>419.39999389648</ele>
        <time>2020-09-12T10:39:40.000Z</time>
      </trkpt>
      <trkpt lat="46.51331" lon="5.4731">
        <ele>419.39999389648</ele>
        <time>2020-09-12T10:39:42.000Z</time>
      </trkpt>
      <trkpt lat="46.51313" lon="5.47303">
        <ele>419.20001220703</ele>
        <time>2020-09-12T10:39:44.000Z</time>
      </trkpt>
      <trkpt lat="46.51304" lon="5.47299">
        <ele>419</ele>
        <time>2020-09-12T10:39:45.000Z</time>
      </trkpt>
      <trkpt lat="46.51296" lon="5.47295">
        <ele>419</ele>
        <time>2020-09-12T10:39:46.000Z</time>
      </trkpt>
      <trkpt lat="46.51287" lon="5.47292">
        <ele>419</ele>
        <time>2020-09-12T10:39:47.000Z</time>
      </trkpt>
      <trkpt lat="46.51279" lon="5.47289">
        <ele>419</ele>
        <time>2020-09-12T10:39:48.000Z</time>
      </trkpt>
      <trkpt lat="46.51262" lon="5.47282">
        <ele>419</ele>
        <time>2020-09-12T10:39:50.000Z</time>
      </trkpt>
      <trkpt lat="46.51246" lon="5.47276">
        <ele>419</ele>
        <time>2020-09-12T10:39:52.000Z</time>
      </trkpt>
      <trkpt lat="46.51237" lon="5.47272">
        <ele>419</ele>
        <time>2020-09-12T10:39:53.000Z</time>
      </trkpt>
      <trkpt lat="46.51229" lon="5.47269">
        <ele>419</ele>
        <time>2020-09-12T10:39:54.000Z</time>
      </trkpt>
      <trkpt lat="46.51212" lon="5.47263">
        <ele>419</ele>
        <time>2020-09-12T10:39:56.000Z</time>
      </trkpt>
      <trkpt lat="46.51195" lon="5.47256">
        <ele>419.20001220703</ele>
        <time>2020-09-12T10:39:58.000Z</time>
      </trkpt>
      <trkpt lat="46.51179" lon="5.47249">
        <ele>419.20001220703</ele>
        <time>2020-09-12T10:40:00.000Z</time>
      </trkpt>
      <trkpt lat="46.51163" lon="5.47244">
        <ele>419.39999389648</ele>
        <time>2020-09-12T10:40:02.000Z</time>
      </trkpt>
      <trkpt lat="46.51146" lon="5.47238">
        <ele>419.39999389648</ele>
        <time>2020-09-12T10:40:04.000Z</time>
      </trkpt>
      <trkpt lat="46.5113" lon="5.47232">
        <ele>419.39999389648</ele>
        <time>2020-09-12T10:40:06.000Z</time>
      </trkpt>
      <trkpt lat="46.51113" lon="5.47226">
        <ele>419.39999389648</ele>
        <time>2020-09-12T10:40:08.000Z</time>
      </trkpt>
      <trkpt lat="46.51097" lon="5.4722">
        <ele>419.39999389648</ele>
        <time>2020-09-12T10:40:10.000Z</time>
      </trkpt>
      <trkpt lat="46.51081" lon="5.47213">
        <ele>419.39999389648</ele>
        <time>2020-09-12T10:40:12.000Z</time>
      </trkpt>
      <trkpt lat="46.51072" lon="5.4721">
        <ele>419.39999389648</ele>
        <time>2020-09-12T10:40:13.000Z</time>
      </trkpt>
      <trkpt lat="46.51063" lon="5.47207">
        <ele>419.39999389648</ele>
        <time>2020-09-12T10:40:14.000Z</time>
      </trkpt>
      <trkpt lat="46.51046" lon="5.47201">
        <ele>419.39999389648</ele>
        <time>2020-09-12T10:40:16.000Z</time>
      </trkpt>
      <trkpt lat="46.51029" lon="5.47195">
        <ele>419.39999389648</ele>
        <time>2020-09-12T10:40:18.000Z</time>
      </trkpt>
      <trkpt lat="46.51012" lon="5.47187">
        <ele>419.39999389648</ele>
        <time>2020-09-12T10:40:20.000Z</time>
      </trkpt>
      <trkpt lat="46.50995" lon="5.4718">
        <ele>419.39999389648</ele>
        <time>2020-09-12T10:40:22.000Z</time>
      </trkpt>
      <trkpt lat="46.50978" lon="5.47173">
        <ele>419.39999389648</ele>
        <time>2020-09-12T10:40:24.000Z</time>
      </trkpt>
      <trkpt lat="46.50962" lon="5.47165">
        <ele>419.39999389648</ele>
        <time>2020-09-12T10:40:26.000Z</time>
      </trkpt>
      <trkpt lat="46.50946" lon="5.47158">
        <ele>419.39999389648</ele>
        <time>2020-09-12T10:40:28.000Z</time>
      </trkpt>
      <trkpt lat="46.50929" lon="5.4715">
        <ele>419.39999389648</ele>
        <time>2020-09-12T10:40:30.000Z</time>
      </trkpt>
      <trkpt lat="46.50913" lon="5.47142">
        <ele>419.39999389648</ele>
        <time>2020-09-12T10:40:32.000Z</time>
      </trkpt>
      <trkpt lat="46.50897" lon="5.47135">
        <ele>419.39999389648</ele>
        <time>2020-09-12T10:40:34.000Z</time>
      </trkpt>
      <trkpt lat="46.50882" lon="5.47128">
        <ele>419.39999389648</ele>
        <time>2020-09-12T10:40:36.000Z</time>
      </trkpt>
      <trkpt lat="46.50866" lon="5.47122">
        <ele>419.39999389648</ele>
        <time>2020-09-12T10:40:38.000Z</time>
      </trkpt>
      <trkpt lat="46.50858" lon="5.47119">
        <ele>419.39999389648</ele>
        <time>2020-09-12T10:40:39.000Z</time>
      </trkpt>
      <trkpt lat="46.5085" lon="5.47115">
        <ele>419.39999389648</ele>
        <time>2020-09-12T10:40:40.000Z</time>
      </trkpt>
      <trkpt lat="46.50834" lon="5.47109">
        <ele>419.60000610352</ele>
        <time>2020-09-12T10:40:42.000Z</time>
      </trkpt>
      <trkpt lat="46.50817" lon="5.47101">
        <ele>419.60000610352</ele>
        <time>2020-09-12T10:40:44.000Z</time>
      </trkpt>
      <trkpt lat="46.508" lon="5.47094">
        <ele>419.60000610352</ele>
        <time>2020-09-12T10:40:46.000Z</time>
      </trkpt>
      <trkpt lat="46.50782" lon="5.47087">
        <ele>419.60000610352</ele>
        <time>2020-09-12T10:40:48.000Z</time>
      </trkpt>
      <trkpt lat="46.50765" lon="5.4708">
        <ele>419.60000610352</ele>
        <time>2020-09-12T10:40:50.000Z</time>
      </trkpt>
      <trkpt lat="46.50747" lon="5.47073">
        <ele>419.60000610352</ele>
        <time>2020-09-12T10:40:52.000Z</time>
      </trkpt>
      <trkpt lat="46.5073" lon="5.47066">
        <ele>419.39999389648</ele>
        <time>2020-09-12T10:40:54.000Z</time>
      </trkpt>
      <trkpt lat="46.50712" lon="5.4706">
        <ele>419.20001220703</ele>
        <time>2020-09-12T10:40:56.000Z</time>
      </trkpt>
      <trkpt lat="46.50703" lon="5.47056">
        <ele>419</ele>
        <time>2020-09-12T10:40:57.000Z</time>
      </trkpt>
      <trkpt lat="46.50695" lon="5.47053">
        <ele>419</ele>
        <time>2020-09-12T10:40:58.000Z</time>
      </trkpt>
      <trkpt lat="46.50677" lon="5.47047">
        <ele>418.79998779297</ele>
        <time>2020-09-12T10:41:00.000Z</time>
      </trkpt>
      <trkpt lat="46.5066" lon="5.47042">
        <ele>418.79998779297</ele>
        <time>2020-09-12T10:41:02.000Z</time>
      </trkpt>
      <trkpt lat="46.50642" lon="5.47036">
        <ele>418.60000610352</ele>
        <time>2020-09-12T10:41:04.000Z</time>
      </trkpt>
      <trkpt lat="46.50632" lon="5.47033">
        <ele>418.60000610352</ele>
        <time>2020-09-12T10:41:05.000Z</time>
      </trkpt>
      <trkpt lat="46.50623" lon="5.4703">
        <ele>418.60000610352</ele>
        <time>2020-09-12T10:41:06.000Z</time>
      </trkpt>
      <trkpt lat="46.50605" lon="5.47024">
        <ele>418.39999389648</ele>
        <time>2020-09-12T10:41:08.000Z</time>
      </trkpt>
      <trkpt lat="46.50587" lon="5.47018">
        <ele>418.20001220703</ele>
        <time>2020-09-12T10:41:10.000Z</time>
      </trkpt>
      <trkpt lat="46.50569" lon="5.47013">
        <ele>418</ele>
        <time>2020-09-12T10:41:12.000Z</time>
      </trkpt>
      <trkpt lat="46.50551" lon="5.47008">
        <ele>417.79998779297</ele>
        <time>2020-09-12T10:41:14.000Z</time>
      </trkpt>
      <trkpt lat="46.50542" lon="5.47005">
        <ele>417.60000610352</ele>
        <time>2020-09-12T10:41:15.000Z</time>
      </trkpt>
      <trkpt lat="46.50533" lon="5.47002">
        <ele>417.39999389648</ele>
        <time>2020-09-12T10:41:16.000Z</time>
      </trkpt>
      <trkpt lat="46.50516" lon="5.46997">
        <ele>417.39999389648</ele>
        <time>2020-09-12T10:41:18.000Z</time>
      </trkpt>
      <trkpt lat="46.505" lon="5.46991">
        <ele>417.39999389648</ele>
        <time>2020-09-12T10:41:20.000Z</time>
      </trkpt>
      <trkpt lat="46.50483" lon="5.46985">
        <ele>417.39999389648</ele>
        <time>2020-09-12T10:41:22.000Z</time>
      </trkpt>
      <trkpt lat="46.50475" lon="5.46982">
        <ele>417.39999389648</ele>
        <time>2020-09-12T10:41:23.000Z</time>
      </trkpt>
      <trkpt lat="46.50466" lon="5.46979">
        <ele>417.39999389648</ele>
        <time>2020-09-12T10:41:24.000Z</time>
      </trkpt>
      <trkpt lat="46.5045" lon="5.46974">
        <ele>417.79998779297</ele>
        <time>2020-09-12T10:41:26.000Z</time>
      </trkpt>
      <trkpt lat="46.50434" lon="5.46969">
        <ele>418</ele>
        <time>2020-09-12T10:41:28.000Z</time>
      </trkpt>
      <trkpt lat="46.50419" lon="5.46965">
        <ele>418.20001220703</ele>
        <time>2020-09-12T10:41:30.000Z</time>
      </trkpt>
      <trkpt lat="46.50411" lon="5.46963">
        <ele>418.20001220703</ele>
        <time>2020-09-12T10:41:31.000Z</time>
      </trkpt>
      <trkpt lat="46.50403" lon="5.46962">
        <ele>418.39999389648</ele>
        <time>2020-09-12T10:41:32.000Z</time>
      </trkpt>
      <trkpt lat="46.50387" lon="5.46961">
        <ele>418.60000610352</ele>
        <time>2020-09-12T10:41:34.000Z</time>
      </trkpt>
      <trkpt lat="46.50378" lon="5.46961">
        <ele>418.79998779297</ele>
        <time>2020-09-12T10:41:35.000Z</time>
      </trkpt>
      <trkpt lat="46.5037" lon="5.46961">
        <ele>418.79998779297</ele>
        <time>2020-09-12T10:41:36.000Z</time>
      </trkpt>
      <trkpt lat="46.50362" lon="5.46961">
        <ele>419</ele>
        <time>2020-09-12T10:41:37.000Z</time>
      </trkpt>
      <trkpt lat="46.50354" lon="5.46962">
        <ele>419.39999389648</ele>
        <time>2020-09-12T10:41:38.000Z</time>
      </trkpt>
      <trkpt lat="46.50338" lon="5.46962">
        <ele>420</ele>
        <time>2020-09-12T10:41:40.000Z</time>
      </trkpt>
      <trkpt lat="46.50322" lon="5.46963">
        <ele>420.39999389648</ele>
        <time>2020-09-12T10:41:42.000Z</time>
      </trkpt>
      <trkpt lat="46.50306" lon="5.46963">
        <ele>420.60000610352</ele>
        <time>2020-09-12T10:41:44.000Z</time>
      </trkpt>
      <trkpt lat="46.50298" lon="5.46963">
        <ele>421</ele>
        <time>2020-09-12T10:41:45.000Z</time>
      </trkpt>
      <trkpt lat="46.5029" lon="5.46963">
        <ele>421</ele>
        <time>2020-09-12T10:41:46.000Z</time>
      </trkpt>
      <trkpt lat="46.50273" lon="5.46964">
        <ele>421.39999389648</ele>
        <time>2020-09-12T10:41:48.000Z</time>
      </trkpt>
      <trkpt lat="46.50256" lon="5.46965">
        <ele>421.39999389648</ele>
        <time>2020-09-12T10:41:50.000Z</time>
      </trkpt>
      <trkpt lat="46.5024" lon="5.46967">
        <ele>421.39999389648</ele>
        <time>2020-09-12T10:41:52.000Z</time>
      </trkpt>
      <trkpt lat="46.50223" lon="5.46969">
        <ele>421.39999389648</ele>
        <time>2020-09-12T10:41:54.000Z</time>
      </trkpt>
      <trkpt lat="46.50207" lon="5.46972">
        <ele>421.39999389648</ele>
        <time>2020-09-12T10:41:56.000Z</time>
      </trkpt>
      <trkpt lat="46.5019" lon="5.46977">
        <ele>421.39999389648</ele>
        <time>2020-09-12T10:41:58.000Z</time>
      </trkpt>
      <trkpt lat="46.50174" lon="5.46982">
        <ele>421.39999389648</ele>
        <time>2020-09-12T10:42:00.000Z</time>
      </trkpt>
      <trkpt lat="46.50166" lon="5.46986">
        <ele>421.20001220703</ele>
        <time>2020-09-12T10:42:01.000Z</time>
      </trkpt>
      <trkpt lat="46.50158" lon="5.46989">
        <ele>421.20001220703</ele>
        <time>2020-09-12T10:42:02.000Z</time>
      </trkpt>
      <trkpt lat="46.50143" lon="5.46994">
        <ele>421.20001220703</ele>
        <time>2020-09-12T10:42:04.000Z</time>
      </trkpt>
      <trkpt lat="46.50127" lon="5.47">
        <ele>421</ele>
        <time>2020-09-12T10:42:06.000Z</time>
      </trkpt>
      <trkpt lat="46.50111" lon="5.47006">
        <ele>420.79998779297</ele>
        <time>2020-09-12T10:42:08.000Z</time>
      </trkpt>
      <trkpt lat="46.50094" lon="5.47012">
        <ele>420.60000610352</ele>
        <time>2020-09-12T10:42:10.000Z</time>
      </trkpt>
      <trkpt lat="46.50078" lon="5.47017">
        <ele>420.60000610352</ele>
        <time>2020-09-12T10:42:12.000Z</time>
      </trkpt>
      <trkpt lat="46.50061" lon="5.4702">
        <ele>420.20001220703</ele>
        <time>2020-09-12T10:42:14.000Z</time>
      </trkpt>
      <trkpt lat="46.50043" lon="5.47022">
        <ele>419.79998779297</ele>
        <time>2020-09-12T10:42:16.000Z</time>
      </trkpt>
      <trkpt lat="46.50026" lon="5.47023">
        <ele>419.60000610352</ele>
        <time>2020-09-12T10:42:18.000Z</time>
      </trkpt>
      <trkpt lat="46.50008" lon="5.47021">
        <ele>419.39999389648</ele>
        <time>2020-09-12T10:42:20.000Z</time>
      </trkpt>
      <trkpt lat="46.4999" lon="5.47018">
        <ele>419.20001220703</ele>
        <time>2020-09-12T10:42:22.000Z</time>
      </trkpt>
      <trkpt lat="46.49973" lon="5.47014">
        <ele>419</ele>
        <time>2020-09-12T10:42:24.000Z</time>
      </trkpt>
      <trkpt lat="46.49956" lon="5.47009">
        <ele>418.79998779297</ele>
        <time>2020-09-12T10:42:26.000Z</time>
      </trkpt>
      <trkpt lat="46.49939" lon="5.47004">
        <ele>418.60000610352</ele>
        <time>2020-09-12T10:42:28.000Z</time>
      </trkpt>
      <trkpt lat="46.4993" lon="5.47002">
        <ele>418.39999389648</ele>
        <time>2020-09-12T10:42:29.000Z</time>
      </trkpt>
      <trkpt lat="46.49921" lon="5.47">
        <ele>418.39999389648</ele>
        <time>2020-09-12T10:42:30.000Z</time>
      </trkpt>
      <trkpt lat="46.49904" lon="5.46996">
        <ele>418.20001220703</ele>
        <time>2020-09-12T10:42:32.000Z</time>
      </trkpt>
      <trkpt lat="46.49886" lon="5.46992">
        <ele>418</ele>
        <time>2020-09-12T10:42:34.000Z</time>
      </trkpt>
      <trkpt lat="46.49868" lon="5.46989">
        <ele>417.79998779297</ele>
        <time>2020-09-12T10:42:36.000Z</time>
      </trkpt>
      <trkpt lat="46.4985" lon="5.46985">
        <ele>417.60000610352</ele>
        <time>2020-09-12T10:42:38.000Z</time>
      </trkpt>
      <trkpt lat="46.49832" lon="5.46982">
        <ele>417.60000610352</ele>
        <time>2020-09-12T10:42:40.000Z</time>
      </trkpt>
      <trkpt lat="46.49813" lon="5.46979">
        <ele>417.39999389648</ele>
        <time>2020-09-12T10:42:42.000Z</time>
      </trkpt>
      <trkpt lat="46.49795" lon="5.46975">
        <ele>417.20001220703</ele>
        <time>2020-09-12T10:42:44.000Z</time>
      </trkpt>
      <trkpt lat="46.49777" lon="5.46972">
        <ele>416.79998779297</ele>
        <time>2020-09-12T10:42:46.000Z</time>
      </trkpt>
      <trkpt lat="46.49768" lon="5.4697">
        <ele>416.60000610352</ele>
        <time>2020-09-12T10:42:47.000Z</time>
      </trkpt>
      <trkpt lat="46.49759" lon="5.46968">
        <ele>416.20001220703</ele>
        <time>2020-09-12T10:42:48.000Z</time>
      </trkpt>
      <trkpt lat="46.49741" lon="5.46966">
        <ele>415.79998779297</ele>
        <time>2020-09-12T10:42:50.000Z</time>
      </trkpt>
      <trkpt lat="46.49722" lon="5.46962">
        <ele>415.39999389648</ele>
        <time>2020-09-12T10:42:52.000Z</time>
      </trkpt>
      <trkpt lat="46.49704" lon="5.46959">
        <ele>415.39999389648</ele>
        <time>2020-09-12T10:42:54.000Z</time>
      </trkpt>
      <trkpt lat="46.49685" lon="5.46956">
        <ele>415.20001220703</ele>
        <time>2020-09-12T10:42:56.000Z</time>
      </trkpt>
      <trkpt lat="46.49666" lon="5.46952">
        <ele>415</ele>
        <time>2020-09-12T10:42:58.000Z</time>
      </trkpt>
      <trkpt lat="46.49656" lon="5.4695">
        <ele>415</ele>
        <time>2020-09-12T10:42:59.000Z</time>
      </trkpt>
      <trkpt lat="46.49647" lon="5.46948">
        <ele>414.79998779297</ele>
        <time>2020-09-12T10:43:00.000Z</time>
      </trkpt>
      <trkpt lat="46.49638" lon="5.46945">
        <ele>414.60000610352</ele>
        <time>2020-09-12T10:43:01.000Z</time>
      </trkpt>
      <trkpt lat="46.49628" lon="5.46943">
        <ele>414.39999389648</ele>
        <time>2020-09-12T10:43:02.000Z</time>
      </trkpt>
      <trkpt lat="46.49609" lon="5.46937">
        <ele>414</ele>
        <time>2020-09-12T10:43:04.000Z</time>
      </trkpt>
      <trkpt lat="46.4959" lon="5.46931">
        <ele>413.60000610352</ele>
        <time>2020-09-12T10:43:06.000Z</time>
      </trkpt>
      <trkpt lat="46.49581" lon="5.46928">
        <ele>413.20001220703</ele>
        <time>2020-09-12T10:43:07.000Z</time>
      </trkpt>
      <trkpt lat="46.49571" lon="5.46924">
        <ele>412.79998779297</ele>
        <time>2020-09-12T10:43:08.000Z</time>
      </trkpt>
      <trkpt lat="46.49552" lon="5.46917">
        <ele>412</ele>
        <time>2020-09-12T10:43:10.000Z</time>
      </trkpt>
      <trkpt lat="46.49534" lon="5.46908">
        <ele>411.20001220703</ele>
        <time>2020-09-12T10:43:12.000Z</time>
      </trkpt>
      <trkpt lat="46.49525" lon="5.46904">
        <ele>411</ele>
        <time>2020-09-12T10:43:13.000Z</time>
      </trkpt>
      <trkpt lat="46.49516" lon="5.469">
        <ele>411</ele>
        <time>2020-09-12T10:43:14.000Z</time>
      </trkpt>
      <trkpt lat="46.49497" lon="5.4689">
        <ele>410.79998779297</ele>
        <time>2020-09-12T10:43:16.000Z</time>
      </trkpt>
      <trkpt lat="46.49478" lon="5.4688">
        <ele>410.60000610352</ele>
        <time>2020-09-12T10:43:18.000Z</time>
      </trkpt>
      <trkpt lat="46.49468" lon="5.46875">
        <ele>410.39999389648</ele>
        <time>2020-09-12T10:43:19.000Z</time>
      </trkpt>
      <trkpt lat="46.49458" lon="5.4687">
        <ele>410.39999389648</ele>
        <time>2020-09-12T10:43:20.000Z</time>
      </trkpt>
      <trkpt lat="46.49438" lon="5.4686">
        <ele>410</ele>
        <time>2020-09-12T10:43:22.000Z</time>
      </trkpt>
      <trkpt lat="46.49428" lon="5.46855">
        <ele>410</ele>
        <time>2020-09-12T10:43:23.000Z</time>
      </trkpt>
      <trkpt lat="46.49418" lon="5.46849">
        <ele>409.79998779297</ele>
        <time>2020-09-12T10:43:24.000Z</time>
      </trkpt>
      <trkpt lat="46.49398" lon="5.4684">
        <ele>409</ele>
        <time>2020-09-12T10:43:26.000Z</time>
      </trkpt>
      <trkpt lat="46.49388" lon="5.46834">
        <ele>408.60000610352</ele>
        <time>2020-09-12T10:43:27.000Z</time>
      </trkpt>
      <trkpt lat="46.49378" lon="5.46829">
        <ele>408.20001220703</ele>
        <time>2020-09-12T10:43:28.000Z</time>
      </trkpt>
      <trkpt lat="46.49367" lon="5.46824">
        <ele>407.60000610352</ele>
        <time>2020-09-12T10:43:29.000Z</time>
      </trkpt>
      <trkpt lat="46.49357" lon="5.46818">
        <ele>407</ele>
        <time>2020-09-12T10:43:30.000Z</time>
      </trkpt>
      <trkpt lat="46.49346" lon="5.46813">
        <ele>406.60000610352</ele>
        <time>2020-09-12T10:43:31.000Z</time>
      </trkpt>
      <trkpt lat="46.49336" lon="5.46807">
        <ele>406.20001220703</ele>
        <time>2020-09-12T10:43:32.000Z</time>
      </trkpt>
      <trkpt lat="46.49314" lon="5.46795">
        <ele>406</ele>
        <time>2020-09-12T10:43:34.000Z</time>
      </trkpt>
      <trkpt lat="46.49292" lon="5.46782">
        <ele>405.20001220703</ele>
        <time>2020-09-12T10:43:36.000Z</time>
      </trkpt>
      <trkpt lat="46.49281" lon="5.46775">
        <ele>404.79998779297</ele>
        <time>2020-09-12T10:43:37.000Z</time>
      </trkpt>
      <trkpt lat="46.4927" lon="5.46769">
        <ele>404.39999389648</ele>
        <time>2020-09-12T10:43:38.000Z</time>
      </trkpt>
      <trkpt lat="46.4926" lon="5.46762">
        <ele>404</ele>
        <time>2020-09-12T10:43:39.000Z</time>
      </trkpt>
      <trkpt lat="46.49249" lon="5.46756">
        <ele>403.20001220703</ele>
        <time>2020-09-12T10:43:40.000Z</time>
      </trkpt>
      <trkpt lat="46.49239" lon="5.4675">
        <ele>402.39999389648</ele>
        <time>2020-09-12T10:43:41.000Z</time>
      </trkpt>
      <trkpt lat="46.49228" lon="5.46745">
        <ele>401.79998779297</ele>
        <time>2020-09-12T10:43:42.000Z</time>
      </trkpt>
      <trkpt lat="46.49216" lon="5.46741">
        <ele>401.20001220703</ele>
        <time>2020-09-12T10:43:43.000Z</time>
      </trkpt>
      <trkpt lat="46.49205" lon="5.46739">
        <ele>400.60000610352</ele>
        <time>2020-09-12T10:43:44.000Z</time>
      </trkpt>
      <trkpt lat="46.49193" lon="5.46738">
        <ele>399.79998779297</ele>
        <time>2020-09-12T10:43:45.000Z</time>
      </trkpt>
      <trkpt lat="46.49181" lon="5.46739">
        <ele>398.60000610352</ele>
        <time>2020-09-12T10:43:46.000Z</time>
      </trkpt>
      <trkpt lat="46.49169" lon="5.46742">
        <ele>398</ele>
        <time>2020-09-12T10:43:47.000Z</time>
      </trkpt>
      <trkpt lat="46.49158" lon="5.46746">
        <ele>397.60000610352</ele>
        <time>2020-09-12T10:43:48.000Z</time>
      </trkpt>
      <trkpt lat="46.49135" lon="5.46759">
        <ele>396.60000610352</ele>
        <time>2020-09-12T10:43:50.000Z</time>
      </trkpt>
      <trkpt lat="46.49125" lon="5.46766">
        <ele>396.20001220703</ele>
        <time>2020-09-12T10:43:51.000Z</time>
      </trkpt>
      <trkpt lat="46.49114" lon="5.46774">
        <ele>395.79998779297</ele>
        <time>2020-09-12T10:43:52.000Z</time>
      </trkpt>
      <trkpt lat="46.49104" lon="5.46783">
        <ele>395.20001220703</ele>
        <time>2020-09-12T10:43:53.000Z</time>
      </trkpt>
      <trkpt lat="46.49094" lon="5.46792">
        <ele>394.39999389648</ele>
        <time>2020-09-12T10:43:54.000Z</time>
      </trkpt>
      <trkpt lat="46.49084" lon="5.46801">
        <ele>393.60000610352</ele>
        <time>2020-09-12T10:43:55.000Z</time>
      </trkpt>
      <trkpt lat="46.49074" lon="5.4681">
        <ele>392.79998779297</ele>
        <time>2020-09-12T10:43:56.000Z</time>
      </trkpt>
      <trkpt lat="46.49065" lon="5.46819">
        <ele>391.79998779297</ele>
        <time>2020-09-12T10:43:57.000Z</time>
      </trkpt>
      <trkpt lat="46.49055" lon="5.46828">
        <ele>391.20001220703</ele>
        <time>2020-09-12T10:43:58.000Z</time>
      </trkpt>
      <trkpt lat="46.49035" lon="5.46845">
        <ele>390.79998779297</ele>
        <time>2020-09-12T10:44:00.000Z</time>
      </trkpt>
      <trkpt lat="46.49015" lon="5.46863">
        <ele>389.20001220703</ele>
        <time>2020-09-12T10:44:02.000Z</time>
      </trkpt>
      <trkpt lat="46.48995" lon="5.46882">
        <ele>388</ele>
        <time>2020-09-12T10:44:04.000Z</time>
      </trkpt>
      <trkpt lat="46.48974" lon="5.46899">
        <ele>387.20001220703</ele>
        <time>2020-09-12T10:44:06.000Z</time>
      </trkpt>
      <trkpt lat="46.48963" lon="5.46906">
        <ele>386.79998779297</ele>
        <time>2020-09-12T10:44:07.000Z</time>
      </trkpt>
      <trkpt lat="46.48951" lon="5.46912">
        <ele>386.20001220703</ele>
        <time>2020-09-12T10:44:08.000Z</time>
      </trkpt>
      <trkpt lat="46.48939" lon="5.46916">
        <ele>385</ele>
        <time>2020-09-12T10:44:09.000Z</time>
      </trkpt>
      <trkpt lat="46.48927" lon="5.46917">
        <ele>384.79998779297</ele>
        <time>2020-09-12T10:44:10.000Z</time>
      </trkpt>
      <trkpt lat="46.48902" lon="5.46914">
        <ele>383.20001220703</ele>
        <time>2020-09-12T10:44:12.000Z</time>
      </trkpt>
      <trkpt lat="46.4889" lon="5.46912">
        <ele>382.20001220703</ele>
        <time>2020-09-12T10:44:13.000Z</time>
      </trkpt>
      <trkpt lat="46.48878" lon="5.46909">
        <ele>381.39999389648</ele>
        <time>2020-09-12T10:44:14.000Z</time>
      </trkpt>
      <trkpt lat="46.48865" lon="5.46905">
        <ele>380.39999389648</ele>
        <time>2020-09-12T10:44:15.000Z</time>
      </trkpt>
      <trkpt lat="46.48853" lon="5.46901">
        <ele>379.79998779297</ele>
        <time>2020-09-12T10:44:16.000Z</time>
      </trkpt>
      <trkpt lat="46.48841" lon="5.46896">
        <ele>379.20001220703</ele>
        <time>2020-09-12T10:44:17.000Z</time>
      </trkpt>
      <trkpt lat="46.48829" lon="5.4689">
        <ele>378.60000610352</ele>
        <time>2020-09-12T10:44:18.000Z</time>
      </trkpt>
      <trkpt lat="46.48817" lon="5.46883">
        <ele>377.60000610352</ele>
        <time>2020-09-12T10:44:19.000Z</time>
      </trkpt>
      <trkpt lat="46.48805" lon="5.46876">
        <ele>377</ele>
        <time>2020-09-12T10:44:20.000Z</time>
      </trkpt>
      <trkpt lat="46.48793" lon="5.46869">
        <ele>376.39999389648</ele>
        <time>2020-09-12T10:44:21.000Z</time>
      </trkpt>
      <trkpt lat="46.48782" lon="5.46862">
        <ele>376</ele>
        <time>2020-09-12T10:44:22.000Z</time>
      </trkpt>
      <trkpt lat="46.48771" lon="5.46856">
        <ele>375</ele>
        <time>2020-09-12T10:44:23.000Z</time>
      </trkpt>
      <trkpt lat="46.48759" lon="5.46849">
        <ele>374.20001220703</ele>
        <time>2020-09-12T10:44:24.000Z</time>
      </trkpt>
      <trkpt lat="46.48748" lon="5.46842">
        <ele>373.60000610352</ele>
        <time>2020-09-12T10:44:25.000Z</time>
      </trkpt>
      <trkpt lat="46.48737" lon="5.46835">
        <ele>372.79998779297</ele>
        <time>2020-09-12T10:44:26.000Z</time>
      </trkpt>
      <trkpt lat="46.48726" lon="5.46828">
        <ele>372.20001220703</ele>
        <time>2020-09-12T10:44:27.000Z</time>
      </trkpt>
      <trkpt lat="46.48715" lon="5.46821">
        <ele>371.39999389648</ele>
        <time>2020-09-12T10:44:28.000Z</time>
      </trkpt>
      <trkpt lat="46.48703" lon="5.46815">
        <ele>371</ele>
        <time>2020-09-12T10:44:29.000Z</time>
      </trkpt>
      <trkpt lat="46.48692" lon="5.46808">
        <ele>370.39999389648</ele>
        <time>2020-09-12T10:44:30.000Z</time>
      </trkpt>
      <trkpt lat="46.48681" lon="5.46801">
        <ele>369.79998779297</ele>
        <time>2020-09-12T10:44:31.000Z</time>
      </trkpt>
      <trkpt lat="46.4867" lon="5.46794">
        <ele>369.39999389648</ele>
        <time>2020-09-12T10:44:32.000Z</time>
      </trkpt>
      <trkpt lat="46.48648" lon="5.46781">
        <ele>368.60000610352</ele>
        <time>2020-09-12T10:44:34.000Z</time>
      </trkpt>
      <trkpt lat="46.48626" lon="5.46768">
        <ele>367.39999389648</ele>
        <time>2020-09-12T10:44:36.000Z</time>
      </trkpt>
      <trkpt lat="46.48604" lon="5.46755">
        <ele>366.60000610352</ele>
        <time>2020-09-12T10:44:38.000Z</time>
      </trkpt>
      <trkpt lat="46.48593" lon="5.46748">
        <ele>366.20001220703</ele>
        <time>2020-09-12T10:44:39.000Z</time>
      </trkpt>
      <trkpt lat="46.48582" lon="5.46741">
        <ele>366</ele>
        <time>2020-09-12T10:44:40.000Z</time>
      </trkpt>
      <trkpt lat="46.4856" lon="5.46729">
        <ele>365.39999389648</ele>
        <time>2020-09-12T10:44:42.000Z</time>
      </trkpt>
      <trkpt lat="46.4855" lon="5.46722">
        <ele>365.20001220703</ele>
        <time>2020-09-12T10:44:43.000Z</time>
      </trkpt>
      <trkpt lat="46.4854" lon="5.46716">
        <ele>365</ele>
        <time>2020-09-12T10:44:44.000Z</time>
      </trkpt>
      <trkpt lat="46.48519" lon="5.46704">
        <ele>364.79998779297</ele>
        <time>2020-09-12T10:44:46.000Z</time>
      </trkpt>
      <trkpt lat="46.48499" lon="5.46692">
        <ele>364.60000610352</ele>
        <time>2020-09-12T10:44:48.000Z</time>
      </trkpt>
      <trkpt lat="46.48479" lon="5.4668">
        <ele>364.39999389648</ele>
        <time>2020-09-12T10:44:50.000Z</time>
      </trkpt>
      <trkpt lat="46.48469" lon="5.46673">
        <ele>364.20001220703</ele>
        <time>2020-09-12T10:44:51.000Z</time>
      </trkpt>
      <trkpt lat="46.4846" lon="5.46667">
        <ele>364</ele>
        <time>2020-09-12T10:44:52.000Z</time>
      </trkpt>
      <trkpt lat="46.4844" lon="5.46655">
        <ele>363.79998779297</ele>
        <time>2020-09-12T10:44:54.000Z</time>
      </trkpt>
      <trkpt lat="46.48421" lon="5.46644">
        <ele>363.60000610352</ele>
        <time>2020-09-12T10:44:56.000Z</time>
      </trkpt>
      <trkpt lat="46.48403" lon="5.46633">
        <ele>363.20001220703</ele>
        <time>2020-09-12T10:44:58.000Z</time>
      </trkpt>
      <trkpt lat="46.48394" lon="5.46628">
        <ele>363</ele>
        <time>2020-09-12T10:44:59.000Z</time>
      </trkpt>
      <trkpt lat="46.48385" lon="5.46623">
        <ele>362.79998779297</ele>
        <time>2020-09-12T10:45:00.000Z</time>
      </trkpt>
      <trkpt lat="46.48368" lon="5.46612">
        <ele>362.79998779297</ele>
        <time>2020-09-12T10:45:02.000Z</time>
      </trkpt>
      <trkpt lat="46.48361" lon="5.46606">
        <ele>362.79998779297</ele>
        <time>2020-09-12T10:45:03.000Z</time>
      </trkpt>
      <trkpt lat="46.48355" lon="5.46598">
        <ele>362.79998779297</ele>
        <time>2020-09-12T10:45:04.000Z</time>
      </trkpt>
      <trkpt lat="46.48353" lon="5.46576">
        <ele>362.79998779297</ele>
        <time>2020-09-12T10:45:06.000Z</time>
      </trkpt>
      <trkpt lat="46.4836" lon="5.46557">
        <ele>362.79998779297</ele>
        <time>2020-09-12T10:45:08.000Z</time>
      </trkpt>
      <trkpt lat="46.48364" lon="5.46547">
        <ele>362.79998779297</ele>
        <time>2020-09-12T10:45:09.000Z</time>
      </trkpt>
      <trkpt lat="46.48368" lon="5.46538">
        <ele>362.79998779297</ele>
        <time>2020-09-12T10:45:10.000Z</time>
      </trkpt>
      <trkpt lat="46.48376" lon="5.46518">
        <ele>362.79998779297</ele>
        <time>2020-09-12T10:45:12.000Z</time>
      </trkpt>
      <trkpt lat="46.48383" lon="5.46498">
        <ele>363</ele>
        <time>2020-09-12T10:45:14.000Z</time>
      </trkpt>
      <trkpt lat="46.48385" lon="5.46486">
        <ele>363</ele>
        <time>2020-09-12T10:45:15.000Z</time>
      </trkpt>
      <trkpt lat="46.48386" lon="5.46474">
        <ele>363</ele>
        <time>2020-09-12T10:45:16.000Z</time>
      </trkpt>
      <trkpt lat="46.48387" lon="5.4645">
        <ele>363</ele>
        <time>2020-09-12T10:45:18.000Z</time>
      </trkpt>
      <trkpt lat="46.48387" lon="5.46438">
        <ele>362.79998779297</ele>
        <time>2020-09-12T10:45:19.000Z</time>
      </trkpt>
      <trkpt lat="46.48389" lon="5.46426">
        <ele>362.79998779297</ele>
        <time>2020-09-12T10:45:20.000Z</time>
      </trkpt>
      <trkpt lat="46.48393" lon="5.46402">
        <ele>362.79998779297</ele>
        <time>2020-09-12T10:45:22.000Z</time>
      </trkpt>
      <trkpt lat="46.48396" lon="5.46391">
        <ele>362.79998779297</ele>
        <time>2020-09-12T10:45:23.000Z</time>
      </trkpt>
      <trkpt lat="46.484" lon="5.4638">
        <ele>362.60000610352</ele>
        <time>2020-09-12T10:45:24.000Z</time>
      </trkpt>
      <trkpt lat="46.48408" lon="5.46359">
        <ele>362.60000610352</ele>
        <time>2020-09-12T10:45:26.000Z</time>
      </trkpt>
      <trkpt lat="46.48417" lon="5.4634">
        <ele>362.60000610352</ele>
        <time>2020-09-12T10:45:28.000Z</time>
      </trkpt>
      <trkpt lat="46.48421" lon="5.4633">
        <ele>362.60000610352</ele>
        <time>2020-09-12T10:45:29.000Z</time>
      </trkpt>
      <trkpt lat="46.48425" lon="5.46321">
        <ele>362.60000610352</ele>
        <time>2020-09-12T10:45:30.000Z</time>
      </trkpt>
      <trkpt lat="46.48433" lon="5.46304">
        <ele>362.60000610352</ele>
        <time>2020-09-12T10:45:32.000Z</time>
      </trkpt>
      <trkpt lat="46.48441" lon="5.46287">
        <ele>362.60000610352</ele>
        <time>2020-09-12T10:45:34.000Z</time>
      </trkpt>
      <trkpt lat="46.48444" lon="5.46279">
        <ele>362.60000610352</ele>
        <time>2020-09-12T10:45:35.000Z</time>
      </trkpt>
      <trkpt lat="46.48445" lon="5.4627">
        <ele>363</ele>
        <time>2020-09-12T10:45:36.000Z</time>
      </trkpt>
      <trkpt lat="46.48443" lon="5.46262">
        <ele>363.20001220703</ele>
        <time>2020-09-12T10:45:37.000Z</time>
      </trkpt>
      <trkpt lat="46.48441" lon="5.46254">
        <ele>363.39999389648</ele>
        <time>2020-09-12T10:45:38.000Z</time>
      </trkpt>
      <trkpt lat="46.48438" lon="5.46247">
        <ele>363.60000610352</ele>
        <time>2020-09-12T10:45:39.000Z</time>
      </trkpt>
      <trkpt lat="46.48435" lon="5.4624">
        <ele>363.79998779297</ele>
        <time>2020-09-12T10:45:40.000Z</time>
      </trkpt>
      <trkpt lat="46.48431" lon="5.46223">
        <ele>364</ele>
        <time>2020-09-12T10:45:42.000Z</time>
      </trkpt>
      <trkpt lat="46.48429" lon="5.46215">
        <ele>364.60000610352</ele>
        <time>2020-09-12T10:45:44.000Z</time>
      </trkpt>
      <trkpt lat="46.48427" lon="5.46207">
        <ele>365.39999389648</ele>
        <time>2020-09-12T10:45:45.000Z</time>
      </trkpt>
      <trkpt lat="46.48426" lon="5.46199">
        <ele>365.79998779297</ele>
        <time>2020-09-12T10:45:46.000Z</time>
      </trkpt>
      <trkpt lat="46.48424" lon="5.46191">
        <ele>366.20001220703</ele>
        <time>2020-09-12T10:45:47.000Z</time>
      </trkpt>
      <trkpt lat="46.4842" lon="5.46176">
        <ele>367</ele>
        <time>2020-09-12T10:45:49.000Z</time>
      </trkpt>
      <trkpt lat="46.48416" lon="5.46162">
        <ele>367.60000610352</ele>
        <time>2020-09-12T10:45:51.000Z</time>
      </trkpt>
      <trkpt lat="46.4841" lon="5.46149">
        <ele>368.20001220703</ele>
        <time>2020-09-12T10:45:53.000Z</time>
      </trkpt>
      <trkpt lat="46.48403" lon="5.46136">
        <ele>368.79998779297</ele>
        <time>2020-09-12T10:45:55.000Z</time>
      </trkpt>
      <trkpt lat="46.48397" lon="5.46123">
        <ele>369.60000610352</ele>
        <time>2020-09-12T10:45:57.000Z</time>
      </trkpt>
      <trkpt lat="46.4839" lon="5.46109">
        <ele>370</ele>
        <time>2020-09-12T10:45:59.000Z</time>
      </trkpt>
      <trkpt lat="46.48383" lon="5.46095">
        <ele>370.39999389648</ele>
        <time>2020-09-12T10:46:01.000Z</time>
      </trkpt>
      <trkpt lat="46.48376" lon="5.4608">
        <ele>370.39999389648</ele>
        <time>2020-09-12T10:46:03.000Z</time>
      </trkpt>
      <trkpt lat="46.48372" lon="5.46073">
        <ele>370.60000610352</ele>
        <time>2020-09-12T10:46:04.000Z</time>
      </trkpt>
      <trkpt lat="46.48368" lon="5.46066">
        <ele>370.60000610352</ele>
        <time>2020-09-12T10:46:05.000Z</time>
      </trkpt>
      <trkpt lat="46.48361" lon="5.46051">
        <ele>370.60000610352</ele>
        <time>2020-09-12T10:46:07.000Z</time>
      </trkpt>
      <trkpt lat="46.48353" lon="5.46036">
        <ele>370.60000610352</ele>
        <time>2020-09-12T10:46:09.000Z</time>
      </trkpt>
      <trkpt lat="46.48344" lon="5.4602">
        <ele>370.60000610352</ele>
        <time>2020-09-12T10:46:11.000Z</time>
      </trkpt>
      <trkpt lat="46.4834" lon="5.46012">
        <ele>370.60000610352</ele>
        <time>2020-09-12T10:46:12.000Z</time>
      </trkpt>
      <trkpt lat="46.48336" lon="5.46005">
        <ele>370.60000610352</ele>
        <time>2020-09-12T10:46:13.000Z</time>
      </trkpt>
      <trkpt lat="46.48327" lon="5.45991">
        <ele>370.39999389648</ele>
        <time>2020-09-12T10:46:15.000Z</time>
      </trkpt>
      <trkpt lat="46.48318" lon="5.45976">
        <ele>370</ele>
        <time>2020-09-12T10:46:17.000Z</time>
      </trkpt>
      <trkpt lat="46.48309" lon="5.45961">
        <ele>369.79998779297</ele>
        <time>2020-09-12T10:46:19.000Z</time>
      </trkpt>
      <trkpt lat="46.48299" lon="5.45946">
        <ele>369.60000610352</ele>
        <time>2020-09-12T10:46:21.000Z</time>
      </trkpt>
      <trkpt lat="46.48289" lon="5.4593">
        <ele>369.39999389648</ele>
        <time>2020-09-12T10:46:23.000Z</time>
      </trkpt>
      <trkpt lat="46.48279" lon="5.45913">
        <ele>369.39999389648</ele>
        <time>2020-09-12T10:46:25.000Z</time>
      </trkpt>
      <trkpt lat="46.48267" lon="5.45897">
        <ele>369.20001220703</ele>
        <time>2020-09-12T10:46:27.000Z</time>
      </trkpt>
      <trkpt lat="46.48255" lon="5.45881">
        <ele>368.60000610352</ele>
        <time>2020-09-12T10:46:29.000Z</time>
      </trkpt>
      <trkpt lat="46.48249" lon="5.45872">
        <ele>368.60000610352</ele>
        <time>2020-09-12T10:46:30.000Z</time>
      </trkpt>
      <trkpt lat="46.48243" lon="5.45864">
        <ele>368.39999389648</ele>
        <time>2020-09-12T10:46:31.000Z</time>
      </trkpt>
      <trkpt lat="46.4823" lon="5.45847">
        <ele>367.79998779297</ele>
        <time>2020-09-12T10:46:33.000Z</time>
      </trkpt>
      <trkpt lat="46.48216" lon="5.45829">
        <ele>367</ele>
        <time>2020-09-12T10:46:35.000Z</time>
      </trkpt>
      <trkpt lat="46.48202" lon="5.45812">
        <ele>366.39999389648</ele>
        <time>2020-09-12T10:46:37.000Z</time>
      </trkpt>
      <trkpt lat="46.48195" lon="5.45803">
        <ele>366</ele>
        <time>2020-09-12T10:46:38.000Z</time>
      </trkpt>
      <trkpt lat="46.48188" lon="5.45794">
        <ele>365.60000610352</ele>
        <time>2020-09-12T10:46:39.000Z</time>
      </trkpt>
      <trkpt lat="46.48173" lon="5.45776">
        <ele>365</ele>
        <time>2020-09-12T10:46:41.000Z</time>
      </trkpt>
      <trkpt lat="46.48159" lon="5.45758">
        <ele>364.60000610352</ele>
        <time>2020-09-12T10:46:43.000Z</time>
      </trkpt>
      <trkpt lat="46.48151" lon="5.45749">
        <ele>364.39999389648</ele>
        <time>2020-09-12T10:46:44.000Z</time>
      </trkpt>
      <trkpt lat="46.48144" lon="5.4574">
        <ele>364.20001220703</ele>
        <time>2020-09-12T10:46:45.000Z</time>
      </trkpt>
      <trkpt lat="46.4813" lon="5.45721">
        <ele>363.79998779297</ele>
        <time>2020-09-12T10:46:47.000Z</time>
      </trkpt>
      <trkpt lat="46.48115" lon="5.45704">
        <ele>362.79998779297</ele>
        <time>2020-09-12T10:46:49.000Z</time>
      </trkpt>
      <trkpt lat="46.48107" lon="5.45695">
        <ele>362.39999389648</ele>
        <time>2020-09-12T10:46:50.000Z</time>
      </trkpt>
      <trkpt lat="46.481" lon="5.45687">
        <ele>361.79998779297</ele>
        <time>2020-09-12T10:46:51.000Z</time>
      </trkpt>
      <trkpt lat="46.48092" lon="5.45679">
        <ele>361.60000610352</ele>
        <time>2020-09-12T10:46:52.000Z</time>
      </trkpt>
      <trkpt lat="46.48084" lon="5.45672">
        <ele>361.39999389648</ele>
        <time>2020-09-12T10:46:53.000Z</time>
      </trkpt>
      <trkpt lat="46.48068" lon="5.45659">
        <ele>360.79998779297</ele>
        <time>2020-09-12T10:46:55.000Z</time>
      </trkpt>
      <trkpt lat="46.4806" lon="5.45653">
        <ele>360.60000610352</ele>
        <time>2020-09-12T10:46:56.000Z</time>
      </trkpt>
      <trkpt lat="46.48052" lon="5.45648">
        <ele>360.39999389648</ele>
        <time>2020-09-12T10:46:57.000Z</time>
      </trkpt>
      <trkpt lat="46.48036" lon="5.45639">
        <ele>360.20001220703</ele>
        <time>2020-09-12T10:46:59.000Z</time>
      </trkpt>
      <trkpt lat="46.48021" lon="5.45632">
        <ele>360.20001220703</ele>
        <time>2020-09-12T10:47:01.000Z</time>
      </trkpt>
      <trkpt lat="46.48013" lon="5.45628">
        <ele>360.20001220703</ele>
        <time>2020-09-12T10:47:02.000Z</time>
      </trkpt>
      <trkpt lat="46.48006" lon="5.45625">
        <ele>360.20001220703</ele>
        <time>2020-09-12T10:47:03.000Z</time>
      </trkpt>
      <trkpt lat="46.47992" lon="5.4562">
        <ele>360.20001220703</ele>
        <time>2020-09-12T10:47:05.000Z</time>
      </trkpt>
      <trkpt lat="46.47978" lon="5.45615">
        <ele>360.20001220703</ele>
        <time>2020-09-12T10:47:07.000Z</time>
      </trkpt>
      <trkpt lat="46.47971" lon="5.45612">
        <ele>360.39999389648</ele>
        <time>2020-09-12T10:47:08.000Z</time>
      </trkpt>
      <trkpt lat="46.47965" lon="5.4561">
        <ele>360.79998779297</ele>
        <time>2020-09-12T10:47:09.000Z</time>
      </trkpt>
      <trkpt lat="46.47953" lon="5.45605">
        <ele>361.60000610352</ele>
        <time>2020-09-12T10:47:11.000Z</time>
      </trkpt>
      <trkpt lat="46.4794" lon="5.456">
        <ele>362.20001220703</ele>
        <time>2020-09-12T10:47:13.000Z</time>
      </trkpt>
      <trkpt lat="46.47928" lon="5.45595">
        <ele>362.60000610352</ele>
        <time>2020-09-12T10:47:15.000Z</time>
      </trkpt>
      <trkpt lat="46.47922" lon="5.45593">
        <ele>362.79998779297</ele>
        <time>2020-09-12T10:47:16.000Z</time>
      </trkpt>
      <trkpt lat="46.47916" lon="5.4559">
        <ele>363</ele>
        <time>2020-09-12T10:47:17.000Z</time>
      </trkpt>
      <trkpt lat="46.47904" lon="5.45586">
        <ele>363.79998779297</ele>
        <time>2020-09-12T10:47:19.000Z</time>
      </trkpt>
      <trkpt lat="46.47898" lon="5.45583">
        <ele>364.20001220703</ele>
        <time>2020-09-12T10:47:20.000Z</time>
      </trkpt>
      <trkpt lat="46.47891" lon="5.45581">
        <ele>364.39999389648</ele>
        <time>2020-09-12T10:47:21.000Z</time>
      </trkpt>
      <trkpt lat="46.47879" lon="5.45575">
        <ele>365</ele>
        <time>2020-09-12T10:47:23.000Z</time>
      </trkpt>
      <trkpt lat="46.47873" lon="5.45573">
        <ele>365.20001220703</ele>
        <time>2020-09-12T10:47:24.000Z</time>
      </trkpt>
      <trkpt lat="46.47867" lon="5.45571">
        <ele>365.39999389648</ele>
        <time>2020-09-12T10:47:25.000Z</time>
      </trkpt>
      <trkpt lat="46.4786" lon="5.45569">
        <ele>365.60000610352</ele>
        <time>2020-09-12T10:47:26.000Z</time>
      </trkpt>
      <trkpt lat="46.47854" lon="5.45567">
        <ele>365.60000610352</ele>
        <time>2020-09-12T10:47:27.000Z</time>
      </trkpt>
      <trkpt lat="46.47842" lon="5.45563">
        <ele>366</ele>
        <time>2020-09-12T10:47:29.000Z</time>
      </trkpt>
      <trkpt lat="46.47831" lon="5.45558">
        <ele>366.39999389648</ele>
        <time>2020-09-12T10:47:31.000Z</time>
      </trkpt>
      <trkpt lat="46.47819" lon="5.45555">
        <ele>367.20001220703</ele>
        <time>2020-09-12T10:47:33.000Z</time>
      </trkpt>
      <trkpt lat="46.47813" lon="5.45554">
        <ele>367.39999389648</ele>
        <time>2020-09-12T10:47:34.000Z</time>
      </trkpt>
      <trkpt lat="46.47806" lon="5.45552">
        <ele>367.60000610352</ele>
        <time>2020-09-12T10:47:35.000Z</time>
      </trkpt>
      <trkpt lat="46.47794" lon="5.4555">
        <ele>368.20001220703</ele>
        <time>2020-09-12T10:47:37.000Z</time>
      </trkpt>
      <trkpt lat="46.47787" lon="5.45548">
        <ele>368.60000610352</ele>
        <time>2020-09-12T10:47:38.000Z</time>
      </trkpt>
      <trkpt lat="46.4778" lon="5.45547">
        <ele>368.79998779297</ele>
        <time>2020-09-12T10:47:39.000Z</time>
      </trkpt>
      <trkpt lat="46.47767" lon="5.45543">
        <ele>369</ele>
        <time>2020-09-12T10:47:41.000Z</time>
      </trkpt>
      <trkpt lat="46.4776" lon="5.45539">
        <ele>369.20001220703</ele>
        <time>2020-09-12T10:47:42.000Z</time>
      </trkpt>
      <trkpt lat="46.47754" lon="5.45535">
        <ele>369.20001220703</ele>
        <time>2020-09-12T10:47:43.000Z</time>
      </trkpt>
      <trkpt lat="46.47741" lon="5.45523">
        <ele>369.20001220703</ele>
        <time>2020-09-12T10:47:45.000Z</time>
      </trkpt>
      <trkpt lat="46.47729" lon="5.45511">
        <ele>369.20001220703</ele>
        <time>2020-09-12T10:47:47.000Z</time>
      </trkpt>
      <trkpt lat="46.47716" lon="5.45499">
        <ele>369.20001220703</ele>
        <time>2020-09-12T10:47:49.000Z</time>
      </trkpt>
      <trkpt lat="46.47702" lon="5.45488">
        <ele>369.20001220703</ele>
        <time>2020-09-12T10:47:51.000Z</time>
      </trkpt>
      <trkpt lat="46.47689" lon="5.45477">
        <ele>369.20001220703</ele>
        <time>2020-09-12T10:47:53.000Z</time>
      </trkpt>
      <trkpt lat="46.47675" lon="5.45466">
        <ele>368.60000610352</ele>
        <time>2020-09-12T10:47:55.000Z</time>
      </trkpt>
      <trkpt lat="46.47668" lon="5.45461">
        <ele>368.39999389648</ele>
        <time>2020-09-12T10:47:56.000Z</time>
      </trkpt>
      <trkpt lat="46.47661" lon="5.45457">
        <ele>368.20001220703</ele>
        <time>2020-09-12T10:47:57.000Z</time>
      </trkpt>
      <trkpt lat="46.47646" lon="5.45449">
        <ele>368.20001220703</ele>
        <time>2020-09-12T10:47:59.000Z</time>
      </trkpt>
      <trkpt lat="46.47632" lon="5.45443">
        <ele>368.20001220703</ele>
        <time>2020-09-12T10:48:01.000Z</time>
      </trkpt>
      <trkpt lat="46.47625" lon="5.45439">
        <ele>368.20001220703</ele>
        <time>2020-09-12T10:48:02.000Z</time>
      </trkpt>
      <trkpt lat="46.47617" lon="5.45435">
        <ele>368.20001220703</ele>
        <time>2020-09-12T10:48:03.000Z</time>
      </trkpt>
      <trkpt lat="46.47603" lon="5.45426">
        <ele>368.20001220703</ele>
        <time>2020-09-12T10:48:05.000Z</time>
      </trkpt>
      <trkpt lat="46.47589" lon="5.45415">
        <ele>368.20001220703</ele>
        <time>2020-09-12T10:48:07.000Z</time>
      </trkpt>
      <trkpt lat="46.47582" lon="5.45409">
        <ele>368.20001220703</ele>
        <time>2020-09-12T10:48:08.000Z</time>
      </trkpt>
      <trkpt lat="46.47575" lon="5.45404">
        <ele>368.20001220703</ele>
        <time>2020-09-12T10:48:09.000Z</time>
      </trkpt>
      <trkpt lat="46.4756" lon="5.45392">
        <ele>368</ele>
        <time>2020-09-12T10:48:11.000Z</time>
      </trkpt>
      <trkpt lat="46.47545" lon="5.4538">
        <ele>367.79998779297</ele>
        <time>2020-09-12T10:48:13.000Z</time>
      </trkpt>
      <trkpt lat="46.47529" lon="5.45369">
        <ele>367.39999389648</ele>
        <time>2020-09-12T10:48:15.000Z</time>
      </trkpt>
      <trkpt lat="46.47511" lon="5.4536">
        <ele>366.79998779297</ele>
        <time>2020-09-12T10:48:17.000Z</time>
      </trkpt>
      <trkpt lat="46.47501" lon="5.45356">
        <ele>366.60000610352</ele>
        <time>2020-09-12T10:48:18.000Z</time>
      </trkpt>
      <trkpt lat="46.47492" lon="5.45354">
        <ele>366.39999389648</ele>
        <time>2020-09-12T10:48:19.000Z</time>
      </trkpt>
      <trkpt lat="46.47472" lon="5.45348">
        <ele>365.79998779297</ele>
        <time>2020-09-12T10:48:21.000Z</time>
      </trkpt>
      <trkpt lat="46.47453" lon="5.45343">
        <ele>365.20001220703</ele>
        <time>2020-09-12T10:48:23.000Z</time>
      </trkpt>
      <trkpt lat="46.47435" lon="5.45338">
        <ele>364.60000610352</ele>
        <time>2020-09-12T10:48:25.000Z</time>
      </trkpt>
      <trkpt lat="46.47425" lon="5.45335">
        <ele>364</ele>
        <time>2020-09-12T10:48:26.000Z</time>
      </trkpt>
      <trkpt lat="46.47416" lon="5.45333">
        <ele>363.60000610352</ele>
        <time>2020-09-12T10:48:27.000Z</time>
      </trkpt>
      <trkpt lat="46.47407" lon="5.45331">
        <ele>363.39999389648</ele>
        <time>2020-09-12T10:48:28.000Z</time>
      </trkpt>
      <trkpt lat="46.47398" lon="5.45328">
        <ele>363.20001220703</ele>
        <time>2020-09-12T10:48:29.000Z</time>
      </trkpt>
      <trkpt lat="46.4738" lon="5.45323">
        <ele>363.20001220703</ele>
        <time>2020-09-12T10:48:31.000Z</time>
      </trkpt>
      <trkpt lat="46.47363" lon="5.45317">
        <ele>363</ele>
        <time>2020-09-12T10:48:33.000Z</time>
      </trkpt>
      <trkpt lat="46.47345" lon="5.4531">
        <ele>363</ele>
        <time>2020-09-12T10:48:35.000Z</time>
      </trkpt>
      <trkpt lat="46.47336" lon="5.45306">
        <ele>362.79998779297</ele>
        <time>2020-09-12T10:48:36.000Z</time>
      </trkpt>
      <trkpt lat="46.47328" lon="5.45303">
        <ele>362.79998779297</ele>
        <time>2020-09-12T10:48:37.000Z</time>
      </trkpt>
      <trkpt lat="46.4731" lon="5.45295">
        <ele>362.60000610352</ele>
        <time>2020-09-12T10:48:39.000Z</time>
      </trkpt>
      <trkpt lat="46.47293" lon="5.45287">
        <ele>362.60000610352</ele>
        <time>2020-09-12T10:48:41.000Z</time>
      </trkpt>
      <trkpt lat="46.47276" lon="5.45279">
        <ele>362.60000610352</ele>
        <time>2020-09-12T10:48:43.000Z</time>
      </trkpt>
      <trkpt lat="46.47259" lon="5.45271">
        <ele>362.60000610352</ele>
        <time>2020-09-12T10:48:45.000Z</time>
      </trkpt>
      <trkpt lat="46.47242" lon="5.45263">
        <ele>362.60000610352</ele>
        <time>2020-09-12T10:48:47.000Z</time>
      </trkpt>
      <trkpt lat="46.47233" lon="5.45259">
        <ele>362.39999389648</ele>
        <time>2020-09-12T10:48:48.000Z</time>
      </trkpt>
      <trkpt lat="46.47225" lon="5.45255">
        <ele>362.39999389648</ele>
        <time>2020-09-12T10:48:49.000Z</time>
      </trkpt>
      <trkpt lat="46.47208" lon="5.45247">
        <ele>362.20001220703</ele>
        <time>2020-09-12T10:48:51.000Z</time>
      </trkpt>
      <trkpt lat="46.472" lon="5.45243">
        <ele>362</ele>
        <time>2020-09-12T10:48:52.000Z</time>
      </trkpt>
      <trkpt lat="46.47192" lon="5.4524">
        <ele>361.79998779297</ele>
        <time>2020-09-12T10:48:53.000Z</time>
      </trkpt>
      <trkpt lat="46.47176" lon="5.45232">
        <ele>361.60000610352</ele>
        <time>2020-09-12T10:48:55.000Z</time>
      </trkpt>
      <trkpt lat="46.47167" lon="5.45228">
        <ele>361.60000610352</ele>
        <time>2020-09-12T10:48:56.000Z</time>
      </trkpt>
      <trkpt lat="46.47159" lon="5.45224">
        <ele>361.60000610352</ele>
        <time>2020-09-12T10:48:57.000Z</time>
      </trkpt>
      <trkpt lat="46.47142" lon="5.45215">
        <ele>361.60000610352</ele>
        <time>2020-09-12T10:48:59.000Z</time>
      </trkpt>
      <trkpt lat="46.47126" lon="5.45207">
        <ele>361.39999389648</ele>
        <time>2020-09-12T10:49:01.000Z</time>
      </trkpt>
      <trkpt lat="46.4711" lon="5.45197">
        <ele>361.39999389648</ele>
        <time>2020-09-12T10:49:03.000Z</time>
      </trkpt>
      <trkpt lat="46.47094" lon="5.45188">
        <ele>361.60000610352</ele>
        <time>2020-09-12T10:49:05.000Z</time>
      </trkpt>
      <trkpt lat="46.47086" lon="5.45183">
        <ele>361.60000610352</ele>
        <time>2020-09-12T10:49:06.000Z</time>
      </trkpt>
      <trkpt lat="46.47079" lon="5.45177">
        <ele>361.60000610352</ele>
        <time>2020-09-12T10:49:07.000Z</time>
      </trkpt>
      <trkpt lat="46.47064" lon="5.45167">
        <ele>361.60000610352</ele>
        <time>2020-09-12T10:49:09.000Z</time>
      </trkpt>
      <trkpt lat="46.47049" lon="5.45155">
        <ele>361.79998779297</ele>
        <time>2020-09-12T10:49:11.000Z</time>
      </trkpt>
      <trkpt lat="46.47035" lon="5.45142">
        <ele>361.79998779297</ele>
        <time>2020-09-12T10:49:13.000Z</time>
      </trkpt>
      <trkpt lat="46.4702" lon="5.45129">
        <ele>361.79998779297</ele>
        <time>2020-09-12T10:49:15.000Z</time>
      </trkpt>
      <trkpt lat="46.47005" lon="5.45117">
        <ele>361.79998779297</ele>
        <time>2020-09-12T10:49:17.000Z</time>
      </trkpt>
      <trkpt lat="46.4699" lon="5.45104">
        <ele>361.79998779297</ele>
        <time>2020-09-12T10:49:19.000Z</time>
      </trkpt>
      <trkpt lat="46.46981" lon="5.45098">
        <ele>361.79998779297</ele>
        <time>2020-09-12T10:49:20.000Z</time>
      </trkpt>
      <trkpt lat="46.46973" lon="5.45092">
        <ele>361.79998779297</ele>
        <time>2020-09-12T10:49:21.000Z</time>
      </trkpt>
      <trkpt lat="46.46957" lon="5.45079">
        <ele>361.79998779297</ele>
        <time>2020-09-12T10:49:23.000Z</time>
      </trkpt>
      <trkpt lat="46.4694" lon="5.45066">
        <ele>361.60000610352</ele>
        <time>2020-09-12T10:49:25.000Z</time>
      </trkpt>
      <trkpt lat="46.46924" lon="5.45052">
        <ele>361.39999389648</ele>
        <time>2020-09-12T10:49:27.000Z</time>
      </trkpt>
      <trkpt lat="46.46908" lon="5.45039">
        <ele>360.20001220703</ele>
        <time>2020-09-12T10:49:29.000Z</time>
      </trkpt>
      <trkpt lat="46.46892" lon="5.45026">
        <ele>359.39999389648</ele>
        <time>2020-09-12T10:49:31.000Z</time>
      </trkpt>
      <trkpt lat="46.46884" lon="5.45019">
        <ele>359.20001220703</ele>
        <time>2020-09-12T10:49:32.000Z</time>
      </trkpt>
      <trkpt lat="46.46876" lon="5.45012">
        <ele>359</ele>
        <time>2020-09-12T10:49:33.000Z</time>
      </trkpt>
      <trkpt lat="46.4686" lon="5.44999">
        <ele>358.79998779297</ele>
        <time>2020-09-12T10:49:35.000Z</time>
      </trkpt>
      <trkpt lat="46.46845" lon="5.44986">
        <ele>358.79998779297</ele>
        <time>2020-09-12T10:49:37.000Z</time>
      </trkpt>
      <trkpt lat="46.4683" lon="5.44974">
        <ele>358.39999389648</ele>
        <time>2020-09-12T10:49:39.000Z</time>
      </trkpt>
      <trkpt lat="46.46815" lon="5.44961">
        <ele>358.20001220703</ele>
        <time>2020-09-12T10:49:41.000Z</time>
      </trkpt>
      <trkpt lat="46.46808" lon="5.44955">
        <ele>358</ele>
        <time>2020-09-12T10:49:42.000Z</time>
      </trkpt>
      <trkpt lat="46.46801" lon="5.44948">
        <ele>358</ele>
        <time>2020-09-12T10:49:43.000Z</time>
      </trkpt>
      <trkpt lat="46.46786" lon="5.44937">
        <ele>357.79998779297</ele>
        <time>2020-09-12T10:49:45.000Z</time>
      </trkpt>
      <trkpt lat="46.46771" lon="5.44926">
        <ele>357.79998779297</ele>
        <time>2020-09-12T10:49:47.000Z</time>
      </trkpt>
      <trkpt lat="46.46764" lon="5.44921">
        <ele>357.60000610352</ele>
        <time>2020-09-12T10:49:48.000Z</time>
      </trkpt>
      <trkpt lat="46.46756" lon="5.44917">
        <ele>357.60000610352</ele>
        <time>2020-09-12T10:49:49.000Z</time>
      </trkpt>
      <trkpt lat="46.46741" lon="5.44909">
        <ele>357.60000610352</ele>
        <time>2020-09-12T10:49:51.000Z</time>
      </trkpt>
      <trkpt lat="46.46725" lon="5.44901">
        <ele>357.39999389648</ele>
        <time>2020-09-12T10:49:53.000Z</time>
      </trkpt>
      <trkpt lat="46.4671" lon="5.44893">
        <ele>357.20001220703</ele>
        <time>2020-09-12T10:49:55.000Z</time>
      </trkpt>
      <trkpt lat="46.46695" lon="5.44886">
        <ele>357.20001220703</ele>
        <time>2020-09-12T10:49:57.000Z</time>
      </trkpt>
      <trkpt lat="46.46681" lon="5.44878">
        <ele>357.39999389648</ele>
        <time>2020-09-12T10:49:59.000Z</time>
      </trkpt>
      <trkpt lat="46.46667" lon="5.44871">
        <ele>357.39999389648</ele>
        <time>2020-09-12T10:50:01.000Z</time>
      </trkpt>
      <trkpt lat="46.46652" lon="5.44864">
        <ele>357.39999389648</ele>
        <time>2020-09-12T10:50:03.000Z</time>
      </trkpt>
      <trkpt lat="46.46638" lon="5.44856">
        <ele>357.39999389648</ele>
        <time>2020-09-12T10:50:05.000Z</time>
      </trkpt>
      <trkpt lat="46.46624" lon="5.44849">
        <ele>357.79998779297</ele>
        <time>2020-09-12T10:50:07.000Z</time>
      </trkpt>
      <trkpt lat="46.46617" lon="5.44845">
        <ele>358</ele>
        <time>2020-09-12T10:50:08.000Z</time>
      </trkpt>
      <trkpt lat="46.4661" lon="5.44842">
        <ele>358.20001220703</ele>
        <time>2020-09-12T10:50:09.000Z</time>
      </trkpt>
      <trkpt lat="46.46597" lon="5.44835">
        <ele>358.39999389648</ele>
        <time>2020-09-12T10:50:11.000Z</time>
      </trkpt>
      <trkpt lat="46.46584" lon="5.44829">
        <ele>358.60000610352</ele>
        <time>2020-09-12T10:50:13.000Z</time>
      </trkpt>
      <trkpt lat="46.46571" lon="5.44822">
        <ele>358.60000610352</ele>
        <time>2020-09-12T10:50:15.000Z</time>
      </trkpt>
      <trkpt lat="46.46558" lon="5.44816">
        <ele>358.79998779297</ele>
        <time>2020-09-12T10:50:17.000Z</time>
      </trkpt>
      <trkpt lat="46.46546" lon="5.4481">
        <ele>359.39999389648</ele>
        <time>2020-09-12T10:50:19.000Z</time>
      </trkpt>
      <trkpt lat="46.46534" lon="5.44804">
        <ele>359.79998779297</ele>
        <time>2020-09-12T10:50:21.000Z</time>
      </trkpt>
      <trkpt lat="46.46522" lon="5.44798">
        <ele>360</ele>
        <time>2020-09-12T10:50:23.000Z</time>
      </trkpt>
      <trkpt lat="46.4651" lon="5.44792">
        <ele>360.39999389648</ele>
        <time>2020-09-12T10:50:25.000Z</time>
      </trkpt>
      <trkpt lat="46.46505" lon="5.44789">
        <ele>360.79998779297</ele>
        <time>2020-09-12T10:50:26.000Z</time>
      </trkpt>
      <trkpt lat="46.46499" lon="5.44786">
        <ele>361</ele>
        <time>2020-09-12T10:50:27.000Z</time>
      </trkpt>
      <trkpt lat="46.46493" lon="5.44784">
        <ele>361.20001220703</ele>
        <time>2020-09-12T10:50:28.000Z</time>
      </trkpt>
      <trkpt lat="46.46487" lon="5.44781">
        <ele>361.39999389648</ele>
        <time>2020-09-12T10:50:29.000Z</time>
      </trkpt>
      <trkpt lat="46.46475" lon="5.44775">
        <ele>361.60000610352</ele>
        <time>2020-09-12T10:50:31.000Z</time>
      </trkpt>
      <trkpt lat="46.46463" lon="5.44768">
        <ele>361.79998779297</ele>
        <time>2020-09-12T10:50:33.000Z</time>
      </trkpt>
      <trkpt lat="46.46451" lon="5.44762">
        <ele>362</ele>
        <time>2020-09-12T10:50:35.000Z</time>
      </trkpt>
      <trkpt lat="46.46439" lon="5.44756">
        <ele>362.39999389648</ele>
        <time>2020-09-12T10:50:37.000Z</time>
      </trkpt>
      <trkpt lat="46.46427" lon="5.4475">
        <ele>363.39999389648</ele>
        <time>2020-09-12T10:50:39.000Z</time>
      </trkpt>
      <trkpt lat="46.46415" lon="5.44744">
        <ele>364</ele>
        <time>2020-09-12T10:50:41.000Z</time>
      </trkpt>
      <trkpt lat="46.46409" lon="5.44741">
        <ele>364.20001220703</ele>
        <time>2020-09-12T10:50:42.000Z</time>
      </trkpt>
      <trkpt lat="46.46404" lon="5.44738">
        <ele>364.20001220703</ele>
        <time>2020-09-12T10:50:43.000Z</time>
      </trkpt>
      <trkpt lat="46.46392" lon="5.44732">
        <ele>364.39999389648</ele>
        <time>2020-09-12T10:50:45.000Z</time>
      </trkpt>
      <trkpt lat="46.46381" lon="5.44726">
        <ele>364.79998779297</ele>
        <time>2020-09-12T10:50:47.000Z</time>
      </trkpt>
      <trkpt lat="46.46369" lon="5.4472">
        <ele>365</ele>
        <time>2020-09-12T10:50:49.000Z</time>
      </trkpt>
      <trkpt lat="46.46358" lon="5.44715">
        <ele>365</ele>
        <time>2020-09-12T10:50:51.000Z</time>
      </trkpt>
      <trkpt lat="46.46346" lon="5.44709">
        <ele>365.20001220703</ele>
        <time>2020-09-12T10:50:53.000Z</time>
      </trkpt>
      <trkpt lat="46.46335" lon="5.44703">
        <ele>365.79998779297</ele>
        <time>2020-09-12T10:50:55.000Z</time>
      </trkpt>
      <trkpt lat="46.46324" lon="5.44698">
        <ele>366.60000610352</ele>
        <time>2020-09-12T10:50:57.000Z</time>
      </trkpt>
      <trkpt lat="46.46314" lon="5.44693">
        <ele>366.79998779297</ele>
        <time>2020-09-12T10:50:59.000Z</time>
      </trkpt>
      <trkpt lat="46.46304" lon="5.44688">
        <ele>367</ele>
        <time>2020-09-12T10:51:01.000Z</time>
      </trkpt>
      <trkpt lat="46.46299" lon="5.44685">
        <ele>367.20001220703</ele>
        <time>2020-09-12T10:51:02.000Z</time>
      </trkpt>
      <trkpt lat="46.46294" lon="5.44683">
        <ele>367.39999389648</ele>
        <time>2020-09-12T10:51:03.000Z</time>
      </trkpt>
      <trkpt lat="46.46285" lon="5.44678">
        <ele>368</ele>
        <time>2020-09-12T10:51:05.000Z</time>
      </trkpt>
      <trkpt lat="46.4628" lon="5.44676">
        <ele>368.39999389648</ele>
        <time>2020-09-12T10:51:06.000Z</time>
      </trkpt>
      <trkpt lat="46.46276" lon="5.44674">
        <ele>368.60000610352</ele>
        <time>2020-09-12T10:51:07.000Z</time>
      </trkpt>
      <trkpt lat="46.46268" lon="5.44669">
        <ele>369</ele>
        <time>2020-09-12T10:51:09.000Z</time>
      </trkpt>
      <trkpt lat="46.4626" lon="5.44665">
        <ele>369.39999389648</ele>
        <time>2020-09-12T10:51:11.000Z</time>
      </trkpt>
      <trkpt lat="46.46256" lon="5.44663">
        <ele>369.60000610352</ele>
        <time>2020-09-12T10:51:12.000Z</time>
      </trkpt>
      <trkpt lat="46.46252" lon="5.44661">
        <ele>369.79998779297</ele>
        <time>2020-09-12T10:51:13.000Z</time>
      </trkpt>
      <trkpt lat="46.46245" lon="5.44657">
        <ele>370.20001220703</ele>
        <time>2020-09-12T10:51:15.000Z</time>
      </trkpt>
      <trkpt lat="46.46242" lon="5.44655">
        <ele>370.39999389648</ele>
        <time>2020-09-12T10:51:16.000Z</time>
      </trkpt>
      <trkpt lat="46.46238" lon="5.44652">
        <ele>370.60000610352</ele>
        <time>2020-09-12T10:51:17.000Z</time>
      </trkpt>
      <trkpt lat="46.46232" lon="5.44647">
        <ele>371</ele>
        <time>2020-09-12T10:51:19.000Z</time>
      </trkpt>
      <trkpt lat="46.46226" lon="5.4464">
        <ele>371.39999389648</ele>
        <time>2020-09-12T10:51:21.000Z</time>
      </trkpt>
      <trkpt lat="46.46223" lon="5.44637">
        <ele>371.60000610352</ele>
        <time>2020-09-12T10:51:22.000Z</time>
      </trkpt>
      <trkpt lat="46.46221" lon="5.44633">
        <ele>371.79998779297</ele>
        <time>2020-09-12T10:51:23.000Z</time>
      </trkpt>
      <trkpt lat="46.46214" lon="5.44624">
        <ele>372.39999389648</ele>
        <time>2020-09-12T10:51:25.000Z</time>
      </trkpt>
      <trkpt lat="46.46212" lon="5.4462">
        <ele>372.79998779297</ele>
        <time>2020-09-12T10:51:26.000Z</time>
      </trkpt>
      <trkpt lat="46.46209" lon="5.44615">
        <ele>373</ele>
        <time>2020-09-12T10:51:27.000Z</time>
      </trkpt>
      <trkpt lat="46.46206" lon="5.44605">
        <ele>373.20001220703</ele>
        <time>2020-09-12T10:51:29.000Z</time>
      </trkpt>
      <trkpt lat="46.46203" lon="5.44594">
        <ele>373.60000610352</ele>
        <time>2020-09-12T10:51:31.000Z</time>
      </trkpt>
      <trkpt lat="46.46201" lon="5.44588">
        <ele>373.79998779297</ele>
        <time>2020-09-12T10:51:32.000Z</time>
      </trkpt>
      <trkpt lat="46.462" lon="5.44583">
        <ele>374</ele>
        <time>2020-09-12T10:51:33.000Z</time>
      </trkpt>
      <trkpt lat="46.46199" lon="5.44572">
        <ele>374.39999389648</ele>
        <time>2020-09-12T10:51:35.000Z</time>
      </trkpt>
      <trkpt lat="46.46198" lon="5.4456">
        <ele>375</ele>
        <time>2020-09-12T10:51:37.000Z</time>
      </trkpt>
      <trkpt lat="46.46197" lon="5.44549">
        <ele>375.60000610352</ele>
        <time>2020-09-12T10:51:39.000Z</time>
      </trkpt>
      <trkpt lat="46.46196" lon="5.44543">
        <ele>375.79998779297</ele>
        <time>2020-09-12T10:51:40.000Z</time>
      </trkpt>
      <trkpt lat="46.46196" lon="5.44538">
        <ele>375.79998779297</ele>
        <time>2020-09-12T10:51:41.000Z</time>
      </trkpt>
      <trkpt lat="46.46195" lon="5.44527">
        <ele>376.20001220703</ele>
        <time>2020-09-12T10:51:43.000Z</time>
      </trkpt>
      <trkpt lat="46.46194" lon="5.44516">
        <ele>376.79998779297</ele>
        <time>2020-09-12T10:51:45.000Z</time>
      </trkpt>
      <trkpt lat="46.46194" lon="5.44504">
        <ele>377.20001220703</ele>
        <time>2020-09-12T10:51:47.000Z</time>
      </trkpt>
      <trkpt lat="46.46194" lon="5.44499">
        <ele>377.39999389648</ele>
        <time>2020-09-12T10:51:48.000Z</time>
      </trkpt>
      <trkpt lat="46.46193" lon="5.44493">
        <ele>377.39999389648</ele>
        <time>2020-09-12T10:51:49.000Z</time>
      </trkpt>
      <trkpt lat="46.46193" lon="5.44482">
        <ele>377.79998779297</ele>
        <time>2020-09-12T10:51:51.000Z</time>
      </trkpt>
      <trkpt lat="46.46193" lon="5.44471">
        <ele>378.20001220703</ele>
        <time>2020-09-12T10:51:53.000Z</time>
      </trkpt>
      <trkpt lat="46.46192" lon="5.44466">
        <ele>378.39999389648</ele>
        <time>2020-09-12T10:51:54.000Z</time>
      </trkpt>
      <trkpt lat="46.46192" lon="5.4446">
        <ele>378.60000610352</ele>
        <time>2020-09-12T10:51:55.000Z</time>
      </trkpt>
      <trkpt lat="46.46192" lon="5.44449">
        <ele>379</ele>
        <time>2020-09-12T10:51:57.000Z</time>
      </trkpt>
      <trkpt lat="46.46192" lon="5.44438">
        <ele>379.79998779297</ele>
        <time>2020-09-12T10:51:59.000Z</time>
      </trkpt>
      <trkpt lat="46.46192" lon="5.44432">
        <ele>380.20001220703</ele>
        <time>2020-09-12T10:52:00.000Z</time>
      </trkpt>
      <trkpt lat="46.46192" lon="5.44426">
        <ele>380.20001220703</ele>
        <time>2020-09-12T10:52:01.000Z</time>
      </trkpt>
      <trkpt lat="46.46192" lon="5.44415">
        <ele>380.60000610352</ele>
        <time>2020-09-12T10:52:03.000Z</time>
      </trkpt>
      <trkpt lat="46.46193" lon="5.44404">
        <ele>380.79998779297</ele>
        <time>2020-09-12T10:52:05.000Z</time>
      </trkpt>
      <trkpt lat="46.46193" lon="5.44393">
        <ele>381.39999389648</ele>
        <time>2020-09-12T10:52:07.000Z</time>
      </trkpt>
      <trkpt lat="46.46193" lon="5.44382">
        <ele>381.79998779297</ele>
        <time>2020-09-12T10:52:09.000Z</time>
      </trkpt>
      <trkpt lat="46.46193" lon="5.44376">
        <ele>382</ele>
        <time>2020-09-12T10:52:10.000Z</time>
      </trkpt>
      <trkpt lat="46.46193" lon="5.4437">
        <ele>382.20001220703</ele>
        <time>2020-09-12T10:52:11.000Z</time>
      </trkpt>
      <trkpt lat="46.46194" lon="5.44359">
        <ele>382.60000610352</ele>
        <time>2020-09-12T10:52:13.000Z</time>
      </trkpt>
      <trkpt lat="46.46194" lon="5.44348">
        <ele>382.79998779297</ele>
        <time>2020-09-12T10:52:15.000Z</time>
      </trkpt>
      <trkpt lat="46.46194" lon="5.44337">
        <ele>383.39999389648</ele>
        <time>2020-09-12T10:52:17.000Z</time>
      </trkpt>
      <trkpt lat="46.46195" lon="5.44327">
        <ele>383.79998779297</ele>
        <time>2020-09-12T10:52:19.000Z</time>
      </trkpt>
      <trkpt lat="46.46195" lon="5.44317">
        <ele>384.20001220703</ele>
        <time>2020-09-12T10:52:21.000Z</time>
      </trkpt>
      <trkpt lat="46.46194" lon="5.44306">
        <ele>384.39999389648</ele>
        <time>2020-09-12T10:52:23.000Z</time>
      </trkpt>
      <trkpt lat="46.46194" lon="5.44295">
        <ele>384.79998779297</ele>
        <time>2020-09-12T10:52:25.000Z</time>
      </trkpt>
      <trkpt lat="46.46193" lon="5.44284">
        <ele>385.20001220703</ele>
        <time>2020-09-12T10:52:27.000Z</time>
      </trkpt>
      <trkpt lat="46.46192" lon="5.44279">
        <ele>385.60000610352</ele>
        <time>2020-09-12T10:52:28.000Z</time>
      </trkpt>
      <trkpt lat="46.46191" lon="5.44273">
        <ele>385.60000610352</ele>
        <time>2020-09-12T10:52:29.000Z</time>
      </trkpt>
      <trkpt lat="46.46188" lon="5.44262">
        <ele>386</ele>
        <time>2020-09-12T10:52:31.000Z</time>
      </trkpt>
      <trkpt lat="46.46186" lon="5.44251">
        <ele>386.39999389648</ele>
        <time>2020-09-12T10:52:33.000Z</time>
      </trkpt>
      <trkpt lat="46.46183" lon="5.4424">
        <ele>386.60000610352</ele>
        <time>2020-09-12T10:52:35.000Z</time>
      </trkpt>
      <trkpt lat="46.4618" lon="5.44229">
        <ele>386.79998779297</ele>
        <time>2020-09-12T10:52:37.000Z</time>
      </trkpt>
      <trkpt lat="46.46178" lon="5.44218">
        <ele>387.20001220703</ele>
        <time>2020-09-12T10:52:39.000Z</time>
      </trkpt>
      <trkpt lat="46.46175" lon="5.44207">
        <ele>387.60000610352</ele>
        <time>2020-09-12T10:52:41.000Z</time>
      </trkpt>
      <trkpt lat="46.46172" lon="5.44196">
        <ele>388</ele>
        <time>2020-09-12T10:52:43.000Z</time>
      </trkpt>
      <trkpt lat="46.46169" lon="5.44185">
        <ele>388.60000610352</ele>
        <time>2020-09-12T10:52:45.000Z</time>
      </trkpt>
      <trkpt lat="46.46167" lon="5.44179">
        <ele>388.79998779297</ele>
        <time>2020-09-12T10:52:46.000Z</time>
      </trkpt>
      <trkpt lat="46.46166" lon="5.44174">
        <ele>388.79998779297</ele>
        <time>2020-09-12T10:52:47.000Z</time>
      </trkpt>
      <trkpt lat="46.46164" lon="5.44169">
        <ele>389.20001220703</ele>
        <time>2020-09-12T10:52:48.000Z</time>
      </trkpt>
      <trkpt lat="46.46162" lon="5.44164">
        <ele>389.39999389648</ele>
        <time>2020-09-12T10:52:49.000Z</time>
      </trkpt>
      <trkpt lat="46.46159" lon="5.44158">
        <ele>390</ele>
        <time>2020-09-12T10:52:50.000Z</time>
      </trkpt>
      <trkpt lat="46.46157" lon="5.44153">
        <ele>390.20001220703</ele>
        <time>2020-09-12T10:52:51.000Z</time>
      </trkpt>
      <trkpt lat="46.46153" lon="5.44142">
        <ele>390.39999389648</ele>
        <time>2020-09-12T10:52:53.000Z</time>
      </trkpt>
      <trkpt lat="46.4615" lon="5.44131">
        <ele>390.60000610352</ele>
        <time>2020-09-12T10:52:55.000Z</time>
      </trkpt>
      <trkpt lat="46.46146" lon="5.4412">
        <ele>390.79998779297</ele>
        <time>2020-09-12T10:52:57.000Z</time>
      </trkpt>
      <trkpt lat="46.46145" lon="5.44115">
        <ele>391</ele>
        <time>2020-09-12T10:52:58.000Z</time>
      </trkpt>
      <trkpt lat="46.46144" lon="5.44109">
        <ele>391.20001220703</ele>
        <time>2020-09-12T10:52:59.000Z</time>
      </trkpt>
      <trkpt lat="46.46141" lon="5.44098">
        <ele>391.79998779297</ele>
        <time>2020-09-12T10:53:01.000Z</time>
      </trkpt>
      <trkpt lat="46.46139" lon="5.44088">
        <ele>392.20001220703</ele>
        <time>2020-09-12T10:53:03.000Z</time>
      </trkpt>
      <trkpt lat="46.46138" lon="5.44082">
        <ele>392.39999389648</ele>
        <time>2020-09-12T10:53:04.000Z</time>
      </trkpt>
      <trkpt lat="46.46137" lon="5.44077">
        <ele>392.60000610352</ele>
        <time>2020-09-12T10:53:05.000Z</time>
      </trkpt>
      <trkpt lat="46.46135" lon="5.44067">
        <ele>393</ele>
        <time>2020-09-12T10:53:07.000Z</time>
      </trkpt>
      <trkpt lat="46.46134" lon="5.44061">
        <ele>393.20001220703</ele>
        <time>2020-09-12T10:53:08.000Z</time>
      </trkpt>
      <trkpt lat="46.46133" lon="5.44056">
        <ele>393.60000610352</ele>
        <time>2020-09-12T10:53:09.000Z</time>
      </trkpt>
      <trkpt lat="46.4613" lon="5.44045">
        <ele>394.39999389648</ele>
        <time>2020-09-12T10:53:11.000Z</time>
      </trkpt>
      <trkpt lat="46.4613" lon="5.44039">
        <ele>394.60000610352</ele>
        <time>2020-09-12T10:53:12.000Z</time>
      </trkpt>
      <trkpt lat="46.46129" lon="5.44032">
        <ele>395</ele>
        <time>2020-09-12T10:53:13.000Z</time>
      </trkpt>
      <trkpt lat="46.46128" lon="5.4402">
        <ele>395.39999389648</ele>
        <time>2020-09-12T10:53:15.000Z</time>
      </trkpt>
      <trkpt lat="46.46128" lon="5.44008">
        <ele>395.60000610352</ele>
        <time>2020-09-12T10:53:17.000Z</time>
      </trkpt>
      <trkpt lat="46.46129" lon="5.43997">
        <ele>395.79998779297</ele>
        <time>2020-09-12T10:53:19.000Z</time>
      </trkpt>
      <trkpt lat="46.4613" lon="5.43985">
        <ele>396</ele>
        <time>2020-09-12T10:53:21.000Z</time>
      </trkpt>
      <trkpt lat="46.46133" lon="5.43975">
        <ele>396</ele>
        <time>2020-09-12T10:53:23.000Z</time>
      </trkpt>
      <trkpt lat="46.46135" lon="5.43964">
        <ele>396.60000610352</ele>
        <time>2020-09-12T10:53:25.000Z</time>
      </trkpt>
      <trkpt lat="46.46137" lon="5.43953">
        <ele>397.20001220703</ele>
        <time>2020-09-12T10:53:27.000Z</time>
      </trkpt>
      <trkpt lat="46.4614" lon="5.43942">
        <ele>397.79998779297</ele>
        <time>2020-09-12T10:53:29.000Z</time>
      </trkpt>
      <trkpt lat="46.46143" lon="5.43931">
        <ele>398.60000610352</ele>
        <time>2020-09-12T10:53:31.000Z</time>
      </trkpt>
      <trkpt lat="46.46145" lon="5.43926">
        <ele>398.79998779297</ele>
        <time>2020-09-12T10:53:32.000Z</time>
      </trkpt>
      <trkpt lat="46.46146" lon="5.4392">
        <ele>399.39999389648</ele>
        <time>2020-09-12T10:53:33.000Z</time>
      </trkpt>
      <trkpt lat="46.46149" lon="5.4391">
        <ele>400.20001220703</ele>
        <time>2020-09-12T10:53:35.000Z</time>
      </trkpt>
      <trkpt lat="46.46152" lon="5.43899">
        <ele>400.39999389648</ele>
        <time>2020-09-12T10:53:37.000Z</time>
      </trkpt>
      <trkpt lat="46.46154" lon="5.43894">
        <ele>400.60000610352</ele>
        <time>2020-09-12T10:53:38.000Z</time>
      </trkpt>
      <trkpt lat="46.46155" lon="5.43888">
        <ele>400.60000610352</ele>
        <time>2020-09-12T10:53:39.000Z</time>
      </trkpt>
      <trkpt lat="46.46158" lon="5.43878">
        <ele>400.79998779297</ele>
        <time>2020-09-12T10:53:41.000Z</time>
      </trkpt>
      <trkpt lat="46.46161" lon="5.43868">
        <ele>401</ele>
        <time>2020-09-12T10:53:43.000Z</time>
      </trkpt>
      <trkpt lat="46.46164" lon="5.43857">
        <ele>401.39999389648</ele>
        <time>2020-09-12T10:53:45.000Z</time>
      </trkpt>
      <trkpt lat="46.46166" lon="5.43848">
        <ele>402</ele>
        <time>2020-09-12T10:53:47.000Z</time>
      </trkpt>
      <trkpt lat="46.46168" lon="5.43842">
        <ele>402.20001220703</ele>
        <time>2020-09-12T10:53:48.000Z</time>
      </trkpt>
      <trkpt lat="46.46169" lon="5.43837">
        <ele>402.39999389648</ele>
        <time>2020-09-12T10:53:49.000Z</time>
      </trkpt>
      <trkpt lat="46.46172" lon="5.43827">
        <ele>402.79998779297</ele>
        <time>2020-09-12T10:53:51.000Z</time>
      </trkpt>
      <trkpt lat="46.46175" lon="5.43817">
        <ele>403.20001220703</ele>
        <time>2020-09-12T10:53:53.000Z</time>
      </trkpt>
      <trkpt lat="46.46176" lon="5.43812">
        <ele>403.60000610352</ele>
        <time>2020-09-12T10:53:54.000Z</time>
      </trkpt>
      <trkpt lat="46.46178" lon="5.43807">
        <ele>403.79998779297</ele>
        <time>2020-09-12T10:53:55.000Z</time>
      </trkpt>
      <trkpt lat="46.4618" lon="5.43797">
        <ele>404.20001220703</ele>
        <time>2020-09-12T10:53:57.000Z</time>
      </trkpt>
      <trkpt lat="46.46183" lon="5.43786">
        <ele>404.79998779297</ele>
        <time>2020-09-12T10:53:59.000Z</time>
      </trkpt>
      <trkpt lat="46.46186" lon="5.43776">
        <ele>405.20001220703</ele>
        <time>2020-09-12T10:54:01.000Z</time>
      </trkpt>
      <trkpt lat="46.46188" lon="5.43765">
        <ele>405.39999389648</ele>
        <time>2020-09-12T10:54:03.000Z</time>
      </trkpt>
      <trkpt lat="46.4619" lon="5.43755">
        <ele>405.60000610352</ele>
        <time>2020-09-12T10:54:05.000Z</time>
      </trkpt>
      <trkpt lat="46.46191" lon="5.43749">
        <ele>405.79998779297</ele>
        <time>2020-09-12T10:54:06.000Z</time>
      </trkpt>
      <trkpt lat="46.46191" lon="5.43744">
        <ele>406.20001220703</ele>
        <time>2020-09-12T10:54:07.000Z</time>
      </trkpt>
      <trkpt lat="46.46192" lon="5.43732">
        <ele>406.79998779297</ele>
        <time>2020-09-12T10:54:09.000Z</time>
      </trkpt>
      <trkpt lat="46.46192" lon="5.43727">
        <ele>407</ele>
        <time>2020-09-12T10:54:10.000Z</time>
      </trkpt>
      <trkpt lat="46.46192" lon="5.43721">
        <ele>407.20001220703</ele>
        <time>2020-09-12T10:54:11.000Z</time>
      </trkpt>
      <trkpt lat="46.46192" lon="5.43709">
        <ele>407.39999389648</ele>
        <time>2020-09-12T10:54:13.000Z</time>
      </trkpt>
      <trkpt lat="46.4619" lon="5.43697">
        <ele>407.60000610352</ele>
        <time>2020-09-12T10:54:15.000Z</time>
      </trkpt>
      <trkpt lat="46.46189" lon="5.43691">
        <ele>407.79998779297</ele>
        <time>2020-09-12T10:54:16.000Z</time>
      </trkpt>
      <trkpt lat="46.46188" lon="5.43685">
        <ele>407.79998779297</ele>
        <time>2020-09-12T10:54:17.000Z</time>
      </trkpt>
      <trkpt lat="46.46187" lon="5.4368">
        <ele>408</ele>
        <time>2020-09-12T10:54:18.000Z</time>
      </trkpt>
      <trkpt lat="46.46186" lon="5.43674">
        <ele>408.60000610352</ele>
        <time>2020-09-12T10:54:19.000Z</time>
      </trkpt>
      <trkpt lat="46.46182" lon="5.43662">
        <ele>409</ele>
        <time>2020-09-12T10:54:21.000Z</time>
      </trkpt>
      <trkpt lat="46.4618" lon="5.43657">
        <ele>409.20001220703</ele>
        <time>2020-09-12T10:54:22.000Z</time>
      </trkpt>
      <trkpt lat="46.46178" lon="5.43651">
        <ele>409.39999389648</ele>
        <time>2020-09-12T10:54:23.000Z</time>
      </trkpt>
      <trkpt lat="46.46172" lon="5.43639">
        <ele>410</ele>
        <time>2020-09-12T10:54:25.000Z</time>
      </trkpt>
      <trkpt lat="46.46167" lon="5.43626">
        <ele>410.20001220703</ele>
        <time>2020-09-12T10:54:27.000Z</time>
      </trkpt>
      <trkpt lat="46.4616" lon="5.43615">
        <ele>410.39999389648</ele>
        <time>2020-09-12T10:54:29.000Z</time>
      </trkpt>
      <trkpt lat="46.46152" lon="5.43605">
        <ele>410.60000610352</ele>
        <time>2020-09-12T10:54:31.000Z</time>
      </trkpt>
      <trkpt lat="46.46143" lon="5.43596">
        <ele>410.60000610352</ele>
        <time>2020-09-12T10:54:33.000Z</time>
      </trkpt>
      <trkpt lat="46.46133" lon="5.43586">
        <ele>410.60000610352</ele>
        <time>2020-09-12T10:54:35.000Z</time>
      </trkpt>
      <trkpt lat="46.46122" lon="5.43579">
        <ele>410.60000610352</ele>
        <time>2020-09-12T10:54:37.000Z</time>
      </trkpt>
      <trkpt lat="46.46109" lon="5.43572">
        <ele>410.60000610352</ele>
        <time>2020-09-12T10:54:39.000Z</time>
      </trkpt>
      <trkpt lat="46.46102" lon="5.4357">
        <ele>410.60000610352</ele>
        <time>2020-09-12T10:54:40.000Z</time>
      </trkpt>
      <trkpt lat="46.46094" lon="5.43568">
        <ele>410.60000610352</ele>
        <time>2020-09-12T10:54:41.000Z</time>
      </trkpt>
      <trkpt lat="46.46078" lon="5.43566">
        <ele>410.39999389648</ele>
        <time>2020-09-12T10:54:43.000Z</time>
      </trkpt>
      <trkpt lat="46.46061" lon="5.43565">
        <ele>410.20001220703</ele>
        <time>2020-09-12T10:54:45.000Z</time>
      </trkpt>
      <trkpt lat="46.46043" lon="5.43562">
        <ele>409.79998779297</ele>
        <time>2020-09-12T10:54:47.000Z</time>
      </trkpt>
      <trkpt lat="46.46034" lon="5.43561">
        <ele>409</ele>
        <time>2020-09-12T10:54:48.000Z</time>
      </trkpt>
      <trkpt lat="46.46025" lon="5.43559">
        <ele>408.79998779297</ele>
        <time>2020-09-12T10:54:49.000Z</time>
      </trkpt>
      <trkpt lat="46.46006" lon="5.43552">
        <ele>408.39999389648</ele>
        <time>2020-09-12T10:54:51.000Z</time>
      </trkpt>
      <trkpt lat="46.45997" lon="5.43547">
        <ele>407.79998779297</ele>
        <time>2020-09-12T10:54:52.000Z</time>
      </trkpt>
      <trkpt lat="46.45988" lon="5.43542">
        <ele>407.60000610352</ele>
        <time>2020-09-12T10:54:53.000Z</time>
      </trkpt>
      <trkpt lat="46.45969" lon="5.43529">
        <ele>406.79998779297</ele>
        <time>2020-09-12T10:54:55.000Z</time>
      </trkpt>
      <trkpt lat="46.4596" lon="5.43522">
        <ele>406.60000610352</ele>
        <time>2020-09-12T10:54:56.000Z</time>
      </trkpt>
      <trkpt lat="46.45952" lon="5.43515">
        <ele>405.79998779297</ele>
        <time>2020-09-12T10:54:57.000Z</time>
      </trkpt>
      <trkpt lat="46.45943" lon="5.43509">
        <ele>405.39999389648</ele>
        <time>2020-09-12T10:54:58.000Z</time>
      </trkpt>
      <trkpt lat="46.45934" lon="5.43502">
        <ele>404.60000610352</ele>
        <time>2020-09-12T10:54:59.000Z</time>
      </trkpt>
      <trkpt lat="46.45925" lon="5.43494">
        <ele>404.20001220703</ele>
        <time>2020-09-12T10:55:00.000Z</time>
      </trkpt>
      <trkpt lat="46.45916" lon="5.43487">
        <ele>403.79998779297</ele>
        <time>2020-09-12T10:55:01.000Z</time>
      </trkpt>
      <trkpt lat="46.45897" lon="5.43473">
        <ele>402.79998779297</ele>
        <time>2020-09-12T10:55:03.000Z</time>
      </trkpt>
      <trkpt lat="46.45879" lon="5.43458">
        <ele>401.60000610352</ele>
        <time>2020-09-12T10:55:05.000Z</time>
      </trkpt>
      <trkpt lat="46.45869" lon="5.43451">
        <ele>401.20001220703</ele>
        <time>2020-09-12T10:55:06.000Z</time>
      </trkpt>
      <trkpt lat="46.4586" lon="5.43444">
        <ele>400.60000610352</ele>
        <time>2020-09-12T10:55:07.000Z</time>
      </trkpt>
      <trkpt lat="46.4584" lon="5.43429">
        <ele>399.39999389648</ele>
        <time>2020-09-12T10:55:09.000Z</time>
      </trkpt>
      <trkpt lat="46.45821" lon="5.43414">
        <ele>398.60000610352</ele>
        <time>2020-09-12T10:55:11.000Z</time>
      </trkpt>
      <trkpt lat="46.45801" lon="5.43399">
        <ele>398</ele>
        <time>2020-09-12T10:55:13.000Z</time>
      </trkpt>
      <trkpt lat="46.45782" lon="5.43383">
        <ele>397</ele>
        <time>2020-09-12T10:55:15.000Z</time>
      </trkpt>
      <trkpt lat="46.45763" lon="5.43366">
        <ele>395.79998779297</ele>
        <time>2020-09-12T10:55:17.000Z</time>
      </trkpt>
      <trkpt lat="46.45745" lon="5.43347">
        <ele>395</ele>
        <time>2020-09-12T10:55:19.000Z</time>
      </trkpt>
      <trkpt lat="46.45736" lon="5.43336">
        <ele>394.60000610352</ele>
        <time>2020-09-12T10:55:20.000Z</time>
      </trkpt>
      <trkpt lat="46.45728" lon="5.43325">
        <ele>394.20001220703</ele>
        <time>2020-09-12T10:55:21.000Z</time>
      </trkpt>
      <trkpt lat="46.45721" lon="5.43314">
        <ele>393.20001220703</ele>
        <time>2020-09-12T10:55:22.000Z</time>
      </trkpt>
      <trkpt lat="46.45714" lon="5.43301">
        <ele>392.79998779297</ele>
        <time>2020-09-12T10:55:23.000Z</time>
      </trkpt>
      <trkpt lat="46.45701" lon="5.43275">
        <ele>391.79998779297</ele>
        <time>2020-09-12T10:55:25.000Z</time>
      </trkpt>
      <trkpt lat="46.45689" lon="5.43248">
        <ele>391.20001220703</ele>
        <time>2020-09-12T10:55:27.000Z</time>
      </trkpt>
      <trkpt lat="46.45683" lon="5.43236">
        <ele>390.79998779297</ele>
        <time>2020-09-12T10:55:28.000Z</time>
      </trkpt>
      <trkpt lat="46.45677" lon="5.43223">
        <ele>390.39999389648</ele>
        <time>2020-09-12T10:55:29.000Z</time>
      </trkpt>
      <trkpt lat="46.45666" lon="5.43197">
        <ele>389.79998779297</ele>
        <time>2020-09-12T10:55:31.000Z</time>
      </trkpt>
      <trkpt lat="46.4566" lon="5.43185">
        <ele>389.60000610352</ele>
        <time>2020-09-12T10:55:32.000Z</time>
      </trkpt>
      <trkpt lat="46.45655" lon="5.43172">
        <ele>389.39999389648</ele>
        <time>2020-09-12T10:55:33.000Z</time>
      </trkpt>
      <trkpt lat="46.45644" lon="5.43147">
        <ele>388.79998779297</ele>
        <time>2020-09-12T10:55:35.000Z</time>
      </trkpt>
      <trkpt lat="46.45633" lon="5.43123">
        <ele>388.60000610352</ele>
        <time>2020-09-12T10:55:37.000Z</time>
      </trkpt>
      <trkpt lat="46.45622" lon="5.43098">
        <ele>388.20001220703</ele>
        <time>2020-09-12T10:55:39.000Z</time>
      </trkpt>
      <trkpt lat="46.45612" lon="5.43075">
        <ele>388.20001220703</ele>
        <time>2020-09-12T10:55:41.000Z</time>
      </trkpt>
      <trkpt lat="46.45601" lon="5.43052">
        <ele>388</ele>
        <time>2020-09-12T10:55:43.000Z</time>
      </trkpt>
      <trkpt lat="46.45596" lon="5.43041">
        <ele>388</ele>
        <time>2020-09-12T10:55:44.000Z</time>
      </trkpt>
      <trkpt lat="46.4559" lon="5.4303">
        <ele>388</ele>
        <time>2020-09-12T10:55:45.000Z</time>
      </trkpt>
      <trkpt lat="46.4558" lon="5.4301">
        <ele>388</ele>
        <time>2020-09-12T10:55:47.000Z</time>
      </trkpt>
      <trkpt lat="46.45569" lon="5.42992">
        <ele>388.20001220703</ele>
        <time>2020-09-12T10:55:49.000Z</time>
      </trkpt>
      <trkpt lat="46.45563" lon="5.42984">
        <ele>388.20001220703</ele>
        <time>2020-09-12T10:55:50.000Z</time>
      </trkpt>
      <trkpt lat="46.45558" lon="5.42976">
        <ele>388.20001220703</ele>
        <time>2020-09-12T10:55:51.000Z</time>
      </trkpt>
      <trkpt lat="46.45547" lon="5.42962">
        <ele>388.60000610352</ele>
        <time>2020-09-12T10:55:53.000Z</time>
      </trkpt>
      <trkpt lat="46.45537" lon="5.42949">
        <ele>389</ele>
        <time>2020-09-12T10:55:55.000Z</time>
      </trkpt>
      <trkpt lat="46.45526" lon="5.42935">
        <ele>389.79998779297</ele>
        <time>2020-09-12T10:55:57.000Z</time>
      </trkpt>
      <trkpt lat="46.45516" lon="5.42922">
        <ele>390.20001220703</ele>
        <time>2020-09-12T10:55:59.000Z</time>
      </trkpt>
      <trkpt lat="46.45506" lon="5.42909">
        <ele>391.20001220703</ele>
        <time>2020-09-12T10:56:01.000Z</time>
      </trkpt>
      <trkpt lat="46.45496" lon="5.42896">
        <ele>391.79998779297</ele>
        <time>2020-09-12T10:56:03.000Z</time>
      </trkpt>
      <trkpt lat="46.45486" lon="5.42884">
        <ele>392.39999389648</ele>
        <time>2020-09-12T10:56:05.000Z</time>
      </trkpt>
      <trkpt lat="46.45477" lon="5.42872">
        <ele>393.20001220703</ele>
        <time>2020-09-12T10:56:07.000Z</time>
      </trkpt>
      <trkpt lat="46.45467" lon="5.42861">
        <ele>393.60000610352</ele>
        <time>2020-09-12T10:56:09.000Z</time>
      </trkpt>
      <trkpt lat="46.45457" lon="5.4285">
        <ele>394</ele>
        <time>2020-09-12T10:56:11.000Z</time>
      </trkpt>
      <trkpt lat="46.45448" lon="5.42841">
        <ele>394</ele>
        <time>2020-09-12T10:56:13.000Z</time>
      </trkpt>
      <trkpt lat="46.45443" lon="5.42836">
        <ele>395</ele>
        <time>2020-09-12T10:56:14.000Z</time>
      </trkpt>
      <trkpt lat="46.45438" lon="5.42831">
        <ele>395.20001220703</ele>
        <time>2020-09-12T10:56:15.000Z</time>
      </trkpt>
      <trkpt lat="46.45429" lon="5.42822">
        <ele>395.60000610352</ele>
        <time>2020-09-12T10:56:17.000Z</time>
      </trkpt>
      <trkpt lat="46.45419" lon="5.42813">
        <ele>396</ele>
        <time>2020-09-12T10:56:19.000Z</time>
      </trkpt>
      <trkpt lat="46.45414" lon="5.42808">
        <ele>396.20001220703</ele>
        <time>2020-09-12T10:56:20.000Z</time>
      </trkpt>
      <trkpt lat="46.4541" lon="5.42803">
        <ele>396.39999389648</ele>
        <time>2020-09-12T10:56:21.000Z</time>
      </trkpt>
      <trkpt lat="46.45401" lon="5.42794">
        <ele>396.79998779297</ele>
        <time>2020-09-12T10:56:23.000Z</time>
      </trkpt>
      <trkpt lat="46.45396" lon="5.42789">
        <ele>397</ele>
        <time>2020-09-12T10:56:24.000Z</time>
      </trkpt>
      <trkpt lat="46.45392" lon="5.42784">
        <ele>397.20001220703</ele>
        <time>2020-09-12T10:56:25.000Z</time>
      </trkpt>
      <trkpt lat="46.45388" lon="5.42779">
        <ele>397.39999389648</ele>
        <time>2020-09-12T10:56:26.000Z</time>
      </trkpt>
      <trkpt lat="46.45383" lon="5.42774">
        <ele>397.60000610352</ele>
        <time>2020-09-12T10:56:27.000Z</time>
      </trkpt>
      <trkpt lat="46.45375" lon="5.42763">
        <ele>397.79998779297</ele>
        <time>2020-09-12T10:56:29.000Z</time>
      </trkpt>
      <trkpt lat="46.45368" lon="5.42752">
        <ele>397.79998779297</ele>
        <time>2020-09-12T10:56:31.000Z</time>
      </trkpt>
      <trkpt lat="46.45364" lon="5.42746">
        <ele>398</ele>
        <time>2020-09-12T10:56:32.000Z</time>
      </trkpt>
      <trkpt lat="46.45361" lon="5.4274">
        <ele>398.20001220703</ele>
        <time>2020-09-12T10:56:33.000Z</time>
      </trkpt>
      <trkpt lat="46.45357" lon="5.42735">
        <ele>398.39999389648</ele>
        <time>2020-09-12T10:56:34.000Z</time>
      </trkpt>
      <trkpt lat="46.45354" lon="5.42729">
        <ele>398.60000610352</ele>
        <time>2020-09-12T10:56:35.000Z</time>
      </trkpt>
      <trkpt lat="46.45347" lon="5.42717">
        <ele>398.79998779297</ele>
        <time>2020-09-12T10:56:37.000Z</time>
      </trkpt>
      <trkpt lat="46.4534" lon="5.42706">
        <ele>399.20001220703</ele>
        <time>2020-09-12T10:56:39.000Z</time>
      </trkpt>
      <trkpt lat="46.45334" lon="5.42694">
        <ele>399.39999389648</ele>
        <time>2020-09-12T10:56:41.000Z</time>
      </trkpt>
      <trkpt lat="46.45327" lon="5.42683">
        <ele>399.60000610352</ele>
        <time>2020-09-12T10:56:43.000Z</time>
      </trkpt>
      <trkpt lat="46.45321" lon="5.42671">
        <ele>400</ele>
        <time>2020-09-12T10:56:45.000Z</time>
      </trkpt>
      <trkpt lat="46.45315" lon="5.4266">
        <ele>400.39999389648</ele>
        <time>2020-09-12T10:56:47.000Z</time>
      </trkpt>
      <trkpt lat="46.45309" lon="5.42649">
        <ele>400.79998779297</ele>
        <time>2020-09-12T10:56:49.000Z</time>
      </trkpt>
      <trkpt lat="46.45303" lon="5.42638">
        <ele>401.20001220703</ele>
        <time>2020-09-12T10:56:51.000Z</time>
      </trkpt>
      <trkpt lat="46.45297" lon="5.42628">
        <ele>401.39999389648</ele>
        <time>2020-09-12T10:56:53.000Z</time>
      </trkpt>
      <trkpt lat="46.45291" lon="5.42618">
        <ele>401.60000610352</ele>
        <time>2020-09-12T10:56:55.000Z</time>
      </trkpt>
      <trkpt lat="46.45285" lon="5.42608">
        <ele>401.79998779297</ele>
        <time>2020-09-12T10:56:57.000Z</time>
      </trkpt>
      <trkpt lat="46.4528" lon="5.42597">
        <ele>402</ele>
        <time>2020-09-12T10:56:59.000Z</time>
      </trkpt>
      <trkpt lat="46.45274" lon="5.42587">
        <ele>402.39999389648</ele>
        <time>2020-09-12T10:57:01.000Z</time>
      </trkpt>
      <trkpt lat="46.45268" lon="5.42575">
        <ele>402.79998779297</ele>
        <time>2020-09-12T10:57:03.000Z</time>
      </trkpt>
      <trkpt lat="46.45265" lon="5.4257">
        <ele>402.79998779297</ele>
        <time>2020-09-12T10:57:04.000Z</time>
      </trkpt>
      <trkpt lat="46.45262" lon="5.42565">
        <ele>403</ele>
        <time>2020-09-12T10:57:05.000Z</time>
      </trkpt>
      <trkpt lat="46.45256" lon="5.42554">
        <ele>403.39999389648</ele>
        <time>2020-09-12T10:57:07.000Z</time>
      </trkpt>
      <trkpt lat="46.45254" lon="5.42548">
        <ele>403.79998779297</ele>
        <time>2020-09-12T10:57:08.000Z</time>
      </trkpt>
      <trkpt lat="46.45251" lon="5.42543">
        <ele>404.39999389648</ele>
        <time>2020-09-12T10:57:09.000Z</time>
      </trkpt>
      <trkpt lat="46.45245" lon="5.42532">
        <ele>404.79998779297</ele>
        <time>2020-09-12T10:57:11.000Z</time>
      </trkpt>
      <trkpt lat="46.45242" lon="5.42527">
        <ele>405</ele>
        <time>2020-09-12T10:57:12.000Z</time>
      </trkpt>
      <trkpt lat="46.45239" lon="5.42521">
        <ele>405.39999389648</ele>
        <time>2020-09-12T10:57:13.000Z</time>
      </trkpt>
      <trkpt lat="46.45233" lon="5.4251">
        <ele>406</ele>
        <time>2020-09-12T10:57:15.000Z</time>
      </trkpt>
      <trkpt lat="46.4523" lon="5.42505">
        <ele>406.20001220703</ele>
        <time>2020-09-12T10:57:16.000Z</time>
      </trkpt>
      <trkpt lat="46.45227" lon="5.425">
        <ele>406.39999389648</ele>
        <time>2020-09-12T10:57:17.000Z</time>
      </trkpt>
      <trkpt lat="46.45221" lon="5.42489">
        <ele>406.39999389648</ele>
        <time>2020-09-12T10:57:19.000Z</time>
      </trkpt>
      <trkpt lat="46.45215" lon="5.42477">
        <ele>406.60000610352</ele>
        <time>2020-09-12T10:57:21.000Z</time>
      </trkpt>
      <trkpt lat="46.45209" lon="5.42466">
        <ele>407</ele>
        <time>2020-09-12T10:57:23.000Z</time>
      </trkpt>
      <trkpt lat="46.45203" lon="5.42455">
        <ele>407.20001220703</ele>
        <time>2020-09-12T10:57:25.000Z</time>
      </trkpt>
      <trkpt lat="46.45197" lon="5.42444">
        <ele>407.39999389648</ele>
        <time>2020-09-12T10:57:27.000Z</time>
      </trkpt>
      <trkpt lat="46.45191" lon="5.42434">
        <ele>407.60000610352</ele>
        <time>2020-09-12T10:57:29.000Z</time>
      </trkpt>
      <trkpt lat="46.45185" lon="5.42423">
        <ele>407.79998779297</ele>
        <time>2020-09-12T10:57:31.000Z</time>
      </trkpt>
      <trkpt lat="46.45179" lon="5.42413">
        <ele>408</ele>
        <time>2020-09-12T10:57:33.000Z</time>
      </trkpt>
      <trkpt lat="46.45173" lon="5.42403">
        <ele>408.20001220703</ele>
        <time>2020-09-12T10:57:35.000Z</time>
      </trkpt>
      <trkpt lat="46.45166" lon="5.42393">
        <ele>408.39999389648</ele>
        <time>2020-09-12T10:57:37.000Z</time>
      </trkpt>
      <trkpt lat="46.45159" lon="5.42383">
        <ele>408.79998779297</ele>
        <time>2020-09-12T10:57:39.000Z</time>
      </trkpt>
      <trkpt lat="46.45153" lon="5.42373">
        <ele>409.20001220703</ele>
        <time>2020-09-12T10:57:41.000Z</time>
      </trkpt>
      <trkpt lat="46.45149" lon="5.42369">
        <ele>409.60000610352</ele>
        <time>2020-09-12T10:57:42.000Z</time>
      </trkpt>
      <trkpt lat="46.45146" lon="5.42364">
        <ele>409.79998779297</ele>
        <time>2020-09-12T10:57:43.000Z</time>
      </trkpt>
      <trkpt lat="46.45142" lon="5.4236">
        <ele>409.79998779297</ele>
        <time>2020-09-12T10:57:44.000Z</time>
      </trkpt>
      <trkpt lat="46.45138" lon="5.42357">
        <ele>410</ele>
        <time>2020-09-12T10:57:45.000Z</time>
      </trkpt>
      <trkpt lat="46.45131" lon="5.42346">
        <ele>410.20001220703</ele>
        <time>2020-09-12T10:57:47.000Z</time>
      </trkpt>
      <trkpt lat="46.45124" lon="5.42336">
        <ele>410.60000610352</ele>
        <time>2020-09-12T10:57:49.000Z</time>
      </trkpt>
      <trkpt lat="46.45118" lon="5.42326">
        <ele>411.20001220703</ele>
        <time>2020-09-12T10:57:51.000Z</time>
      </trkpt>
      <trkpt lat="46.45111" lon="5.42316">
        <ele>411.60000610352</ele>
        <time>2020-09-12T10:57:53.000Z</time>
      </trkpt>
      <trkpt lat="46.45107" lon="5.42312">
        <ele>411.79998779297</ele>
        <time>2020-09-12T10:57:54.000Z</time>
      </trkpt>
      <trkpt lat="46.45104" lon="5.42307">
        <ele>412</ele>
        <time>2020-09-12T10:57:55.000Z</time>
      </trkpt>
      <trkpt lat="46.45096" lon="5.42298">
        <ele>412.39999389648</ele>
        <time>2020-09-12T10:57:57.000Z</time>
      </trkpt>
      <trkpt lat="46.4509" lon="5.42286">
        <ele>412.79998779297</ele>
        <time>2020-09-12T10:57:59.000Z</time>
      </trkpt>
      <trkpt lat="46.45088" lon="5.42279">
        <ele>413</ele>
        <time>2020-09-12T10:58:00.000Z</time>
      </trkpt>
      <trkpt lat="46.45087" lon="5.42272">
        <ele>413</ele>
        <time>2020-09-12T10:58:01.000Z</time>
      </trkpt>
      <trkpt lat="46.45086" lon="5.42265">
        <ele>413.20001220703</ele>
        <time>2020-09-12T10:58:02.000Z</time>
      </trkpt>
      <trkpt lat="46.45085" lon="5.42258">
        <ele>413.39999389648</ele>
        <time>2020-09-12T10:58:03.000Z</time>
      </trkpt>
      <trkpt lat="46.45083" lon="5.42245">
        <ele>413.60000610352</ele>
        <time>2020-09-12T10:58:05.000Z</time>
      </trkpt>
      <trkpt lat="46.45082" lon="5.42232">
        <ele>413.79998779297</ele>
        <time>2020-09-12T10:58:07.000Z</time>
      </trkpt>
      <trkpt lat="46.4508" lon="5.42219">
        <ele>413.79998779297</ele>
        <time>2020-09-12T10:58:09.000Z</time>
      </trkpt>
      <trkpt lat="46.45079" lon="5.42206">
        <ele>414.20001220703</ele>
        <time>2020-09-12T10:58:11.000Z</time>
      </trkpt>
      <trkpt lat="46.45078" lon="5.422">
        <ele>414.39999389648</ele>
        <time>2020-09-12T10:58:12.000Z</time>
      </trkpt>
      <trkpt lat="46.45077" lon="5.42194">
        <ele>414.60000610352</ele>
        <time>2020-09-12T10:58:13.000Z</time>
      </trkpt>
      <trkpt lat="46.45076" lon="5.42188">
        <ele>415.20001220703</ele>
        <time>2020-09-12T10:58:14.000Z</time>
      </trkpt>
      <trkpt lat="46.45074" lon="5.42181">
        <ele>415.39999389648</ele>
        <time>2020-09-12T10:58:15.000Z</time>
      </trkpt>
      <trkpt lat="46.45071" lon="5.42168">
        <ele>415.79998779297</ele>
        <time>2020-09-12T10:58:17.000Z</time>
      </trkpt>
      <trkpt lat="46.45068" lon="5.42156">
        <ele>416</ele>
        <time>2020-09-12T10:58:19.000Z</time>
      </trkpt>
      <trkpt lat="46.45065" lon="5.42149">
        <ele>416.20001220703</ele>
        <time>2020-09-12T10:58:20.000Z</time>
      </trkpt>
      <trkpt lat="46.45063" lon="5.42143">
        <ele>416.39999389648</ele>
        <time>2020-09-12T10:58:21.000Z</time>
      </trkpt>
      <trkpt lat="46.45058" lon="5.4213">
        <ele>416.79998779297</ele>
        <time>2020-09-12T10:58:23.000Z</time>
      </trkpt>
      <trkpt lat="46.45053" lon="5.42117">
        <ele>417</ele>
        <time>2020-09-12T10:58:25.000Z</time>
      </trkpt>
      <trkpt lat="46.45048" lon="5.42104">
        <ele>417</ele>
        <time>2020-09-12T10:58:27.000Z</time>
      </trkpt>
      <trkpt lat="46.45045" lon="5.42097">
        <ele>417.20001220703</ele>
        <time>2020-09-12T10:58:28.000Z</time>
      </trkpt>
      <trkpt lat="46.45042" lon="5.4209">
        <ele>417.20001220703</ele>
        <time>2020-09-12T10:58:29.000Z</time>
      </trkpt>
      <trkpt lat="46.45035" lon="5.42077">
        <ele>417.39999389648</ele>
        <time>2020-09-12T10:58:31.000Z</time>
      </trkpt>
      <trkpt lat="46.45028" lon="5.42064">
        <ele>417.60000610352</ele>
        <time>2020-09-12T10:58:33.000Z</time>
      </trkpt>
      <trkpt lat="46.45021" lon="5.42051">
        <ele>418</ele>
        <time>2020-09-12T10:58:35.000Z</time>
      </trkpt>
      <trkpt lat="46.45018" lon="5.42045">
        <ele>418</ele>
        <time>2020-09-12T10:58:36.000Z</time>
      </trkpt>
      <trkpt lat="46.45015" lon="5.42039">
        <ele>418</ele>
        <time>2020-09-12T10:58:37.000Z</time>
      </trkpt>
      <trkpt lat="46.45007" lon="5.42027">
        <ele>418.20001220703</ele>
        <time>2020-09-12T10:58:39.000Z</time>
      </trkpt>
      <trkpt lat="46.45001" lon="5.42016">
        <ele>418.39999389648</ele>
        <time>2020-09-12T10:58:41.000Z</time>
      </trkpt>
      <trkpt lat="46.44993" lon="5.42005">
        <ele>418.60000610352</ele>
        <time>2020-09-12T10:58:43.000Z</time>
      </trkpt>
      <trkpt lat="46.4499" lon="5.41999">
        <ele>418.60000610352</ele>
        <time>2020-09-12T10:58:44.000Z</time>
      </trkpt>
      <trkpt lat="46.44986" lon="5.41993">
        <ele>418.60000610352</ele>
        <time>2020-09-12T10:58:45.000Z</time>
      </trkpt>
      <trkpt lat="46.44979" lon="5.41983">
        <ele>418.60000610352</ele>
        <time>2020-09-12T10:58:47.000Z</time>
      </trkpt>
      <trkpt lat="46.44973" lon="5.41972">
        <ele>418.79998779297</ele>
        <time>2020-09-12T10:58:49.000Z</time>
      </trkpt>
      <trkpt lat="46.44967" lon="5.41961">
        <ele>419</ele>
        <time>2020-09-12T10:58:51.000Z</time>
      </trkpt>
      <trkpt lat="46.44965" lon="5.41955">
        <ele>419</ele>
        <time>2020-09-12T10:58:52.000Z</time>
      </trkpt>
      <trkpt lat="46.44963" lon="5.4195">
        <ele>419</ele>
        <time>2020-09-12T10:58:53.000Z</time>
      </trkpt>
      <trkpt lat="46.4496" lon="5.41937">
        <ele>419</ele>
        <time>2020-09-12T10:58:55.000Z</time>
      </trkpt>
      <trkpt lat="46.44959" lon="5.41924">
        <ele>419.20001220703</ele>
        <time>2020-09-12T10:58:57.000Z</time>
      </trkpt>
      <trkpt lat="46.44958" lon="5.41918">
        <ele>419.60000610352</ele>
        <time>2020-09-12T10:58:58.000Z</time>
      </trkpt>
      <trkpt lat="46.44959" lon="5.41911">
        <ele>420</ele>
        <time>2020-09-12T10:58:59.000Z</time>
      </trkpt>
      <trkpt lat="46.4496" lon="5.41896">
        <ele>420.60000610352</ele>
        <time>2020-09-12T10:59:01.000Z</time>
      </trkpt>
      <trkpt lat="46.44962" lon="5.41889">
        <ele>421</ele>
        <time>2020-09-12T10:59:02.000Z</time>
      </trkpt>
      <trkpt lat="46.44964" lon="5.41881">
        <ele>421.20001220703</ele>
        <time>2020-09-12T10:59:03.000Z</time>
      </trkpt>
      <trkpt lat="46.44968" lon="5.41867">
        <ele>421.60000610352</ele>
        <time>2020-09-12T10:59:05.000Z</time>
      </trkpt>
      <trkpt lat="46.44971" lon="5.4186">
        <ele>421.60000610352</ele>
        <time>2020-09-12T10:59:06.000Z</time>
      </trkpt>
      <trkpt lat="46.44974" lon="5.41853">
        <ele>421.79998779297</ele>
        <time>2020-09-12T10:59:07.000Z</time>
      </trkpt>
      <trkpt lat="46.44979" lon="5.4184">
        <ele>422.39999389648</ele>
        <time>2020-09-12T10:59:09.000Z</time>
      </trkpt>
      <trkpt lat="46.44986" lon="5.41829">
        <ele>422.60000610352</ele>
        <time>2020-09-12T10:59:11.000Z</time>
      </trkpt>
      <trkpt lat="46.4499" lon="5.41824">
        <ele>422.60000610352</ele>
        <time>2020-09-12T10:59:12.000Z</time>
      </trkpt>
      <trkpt lat="46.44994" lon="5.41819">
        <ele>422.79998779297</ele>
        <time>2020-09-12T10:59:13.000Z</time>
      </trkpt>
      <trkpt lat="46.44998" lon="5.41815">
        <ele>422.79998779297</ele>
        <time>2020-09-12T10:59:14.000Z</time>
      </trkpt>
      <trkpt lat="46.45003" lon="5.41811">
        <ele>423</ele>
        <time>2020-09-12T10:59:15.000Z</time>
      </trkpt>
      <trkpt lat="46.45013" lon="5.41806">
        <ele>423.20001220703</ele>
        <time>2020-09-12T10:59:17.000Z</time>
      </trkpt>
      <trkpt lat="46.45024" lon="5.41803">
        <ele>423.39999389648</ele>
        <time>2020-09-12T10:59:19.000Z</time>
      </trkpt>
      <trkpt lat="46.45034" lon="5.41804">
        <ele>423.60000610352</ele>
        <time>2020-09-12T10:59:21.000Z</time>
      </trkpt>
      <trkpt lat="46.45039" lon="5.41805">
        <ele>423.60000610352</ele>
        <time>2020-09-12T10:59:22.000Z</time>
      </trkpt>
      <trkpt lat="46.45045" lon="5.41807">
        <ele>423.79998779297</ele>
        <time>2020-09-12T10:59:23.000Z</time>
      </trkpt>
      <trkpt lat="46.4505" lon="5.41809">
        <ele>423.79998779297</ele>
        <time>2020-09-12T10:59:24.000Z</time>
      </trkpt>
      <trkpt lat="46.45055" lon="5.4181">
        <ele>423.79998779297</ele>
        <time>2020-09-12T10:59:25.000Z</time>
      </trkpt>
      <trkpt lat="46.45067" lon="5.41813">
        <ele>423.79998779297</ele>
        <time>2020-09-12T10:59:27.000Z</time>
      </trkpt>
      <trkpt lat="46.45079" lon="5.41814">
        <ele>423.79998779297</ele>
        <time>2020-09-12T10:59:29.000Z</time>
      </trkpt>
      <trkpt lat="46.45086" lon="5.41814">
        <ele>423.60000610352</ele>
        <time>2020-09-12T10:59:30.000Z</time>
      </trkpt>
      <trkpt lat="46.45092" lon="5.41814">
        <ele>423.60000610352</ele>
        <time>2020-09-12T10:59:31.000Z</time>
      </trkpt>
      <trkpt lat="46.45106" lon="5.41813">
        <ele>423.39999389648</ele>
        <time>2020-09-12T10:59:33.000Z</time>
      </trkpt>
      <trkpt lat="46.45119" lon="5.4181">
        <ele>423.20001220703</ele>
        <time>2020-09-12T10:59:35.000Z</time>
      </trkpt>
      <trkpt lat="46.45131" lon="5.41805">
        <ele>423</ele>
        <time>2020-09-12T10:59:37.000Z</time>
      </trkpt>
      <trkpt lat="46.45144" lon="5.418">
        <ele>423</ele>
        <time>2020-09-12T10:59:39.000Z</time>
      </trkpt>
      <trkpt lat="46.45155" lon="5.41792">
        <ele>422.79998779297</ele>
        <time>2020-09-12T10:59:41.000Z</time>
      </trkpt>
      <trkpt lat="46.45167" lon="5.41782">
        <ele>422.79998779297</ele>
        <time>2020-09-12T10:59:43.000Z</time>
      </trkpt>
      <trkpt lat="46.45177" lon="5.41771">
        <ele>422.79998779297</ele>
        <time>2020-09-12T10:59:45.000Z</time>
      </trkpt>
      <trkpt lat="46.45186" lon="5.41757">
        <ele>422.79998779297</ele>
        <time>2020-09-12T10:59:47.000Z</time>
      </trkpt>
      <trkpt lat="46.4519" lon="5.4175">
        <ele>422.79998779297</ele>
        <time>2020-09-12T10:59:48.000Z</time>
      </trkpt>
      <trkpt lat="46.45194" lon="5.41742">
        <ele>422.79998779297</ele>
        <time>2020-09-12T10:59:49.000Z</time>
      </trkpt>
      <trkpt lat="46.45202" lon="5.41726">
        <ele>423</ele>
        <time>2020-09-12T10:59:51.000Z</time>
      </trkpt>
      <trkpt lat="46.45208" lon="5.41709">
        <ele>423</ele>
        <time>2020-09-12T10:59:53.000Z</time>
      </trkpt>
      <trkpt lat="46.45214" lon="5.41692">
        <ele>423</ele>
        <time>2020-09-12T10:59:55.000Z</time>
      </trkpt>
      <trkpt lat="46.4522" lon="5.41675">
        <ele>423.20001220703</ele>
        <time>2020-09-12T10:59:57.000Z</time>
      </trkpt>
      <trkpt lat="46.45225" lon="5.4166">
        <ele>423.39999389648</ele>
        <time>2020-09-12T10:59:59.000Z</time>
      </trkpt>
      <trkpt lat="46.45228" lon="5.41645">
        <ele>423.60000610352</ele>
        <time>2020-09-12T11:00:01.000Z</time>
      </trkpt>
      <trkpt lat="46.4523" lon="5.41637">
        <ele>423.60000610352</ele>
        <time>2020-09-12T11:00:02.000Z</time>
      </trkpt>
      <trkpt lat="46.45231" lon="5.4163">
        <ele>423.79998779297</ele>
        <time>2020-09-12T11:00:03.000Z</time>
      </trkpt>
      <trkpt lat="46.45234" lon="5.41616">
        <ele>424.20001220703</ele>
        <time>2020-09-12T11:00:05.000Z</time>
      </trkpt>
      <trkpt lat="46.45236" lon="5.41602">
        <ele>424.60000610352</ele>
        <time>2020-09-12T11:00:07.000Z</time>
      </trkpt>
      <trkpt lat="46.45238" lon="5.41595">
        <ele>425</ele>
        <time>2020-09-12T11:00:08.000Z</time>
      </trkpt>
      <trkpt lat="46.45239" lon="5.41588">
        <ele>425.39999389648</ele>
        <time>2020-09-12T11:00:09.000Z</time>
      </trkpt>
      <trkpt lat="46.45241" lon="5.41581">
        <ele>425.79998779297</ele>
        <time>2020-09-12T11:00:10.000Z</time>
      </trkpt>
      <trkpt lat="46.45243" lon="5.41573">
        <ele>425.79998779297</ele>
        <time>2020-09-12T11:00:11.000Z</time>
      </trkpt>
      <trkpt lat="46.45246" lon="5.41567">
        <ele>426</ele>
        <time>2020-09-12T11:00:12.000Z</time>
      </trkpt>
      <trkpt lat="46.45249" lon="5.4156">
        <ele>426</ele>
        <time>2020-09-12T11:00:13.000Z</time>
      </trkpt>
      <trkpt lat="46.45257" lon="5.41548">
        <ele>426.20001220703</ele>
        <time>2020-09-12T11:00:15.000Z</time>
      </trkpt>
      <trkpt lat="46.45266" lon="5.41538">
        <ele>426.39999389648</ele>
        <time>2020-09-12T11:00:17.000Z</time>
      </trkpt>
      <trkpt lat="46.45276" lon="5.41531">
        <ele>426.39999389648</ele>
        <time>2020-09-12T11:00:19.000Z</time>
      </trkpt>
      <trkpt lat="46.45286" lon="5.41528">
        <ele>426.60000610352</ele>
        <time>2020-09-12T11:00:21.000Z</time>
      </trkpt>
      <trkpt lat="46.45297" lon="5.41527">
        <ele>426.79998779297</ele>
        <time>2020-09-12T11:00:23.000Z</time>
      </trkpt>
      <trkpt lat="46.45302" lon="5.41527">
        <ele>427</ele>
        <time>2020-09-12T11:00:24.000Z</time>
      </trkpt>
      <trkpt lat="46.45307" lon="5.41528">
        <ele>427</ele>
        <time>2020-09-12T11:00:25.000Z</time>
      </trkpt>
      <trkpt lat="46.45317" lon="5.4153">
        <ele>427.20001220703</ele>
        <time>2020-09-12T11:00:27.000Z</time>
      </trkpt>
      <trkpt lat="46.45327" lon="5.41532">
        <ele>427.79998779297</ele>
        <time>2020-09-12T11:00:29.000Z</time>
      </trkpt>
      <trkpt lat="46.45337" lon="5.41534">
        <ele>428.39999389648</ele>
        <time>2020-09-12T11:00:31.000Z</time>
      </trkpt>
      <trkpt lat="46.45348" lon="5.41536">
        <ele>428.60000610352</ele>
        <time>2020-09-12T11:00:33.000Z</time>
      </trkpt>
      <trkpt lat="46.45358" lon="5.41537">
        <ele>429</ele>
        <time>2020-09-12T11:00:35.000Z</time>
      </trkpt>
      <trkpt lat="46.45369" lon="5.41537">
        <ele>429.39999389648</ele>
        <time>2020-09-12T11:00:37.000Z</time>
      </trkpt>
      <trkpt lat="46.45379" lon="5.41535">
        <ele>429.79998779297</ele>
        <time>2020-09-12T11:00:39.000Z</time>
      </trkpt>
      <trkpt lat="46.4539" lon="5.41533">
        <ele>430</ele>
        <time>2020-09-12T11:00:41.000Z</time>
      </trkpt>
      <trkpt lat="46.45401" lon="5.4153">
        <ele>430.39999389648</ele>
        <time>2020-09-12T11:00:43.000Z</time>
      </trkpt>
      <trkpt lat="46.45406" lon="5.41528">
        <ele>430.39999389648</ele>
        <time>2020-09-12T11:00:44.000Z</time>
      </trkpt>
      <trkpt lat="46.45411" lon="5.41527">
        <ele>430.39999389648</ele>
        <time>2020-09-12T11:00:45.000Z</time>
      </trkpt>
      <trkpt lat="46.45422" lon="5.41523">
        <ele>430.79998779297</ele>
        <time>2020-09-12T11:00:47.000Z</time>
      </trkpt>
      <trkpt lat="46.45427" lon="5.4152">
        <ele>430.79998779297</ele>
        <time>2020-09-12T11:00:48.000Z</time>
      </trkpt>
      <trkpt lat="46.45432" lon="5.41518">
        <ele>431.20001220703</ele>
        <time>2020-09-12T11:00:49.000Z</time>
      </trkpt>
      <trkpt lat="46.45437" lon="5.41516">
        <ele>431.39999389648</ele>
        <time>2020-09-12T11:00:50.000Z</time>
      </trkpt>
      <trkpt lat="46.45442" lon="5.41514">
        <ele>431.60000610352</ele>
        <time>2020-09-12T11:00:51.000Z</time>
      </trkpt>
      <trkpt lat="46.45452" lon="5.4151">
        <ele>431.79998779297</ele>
        <time>2020-09-12T11:00:53.000Z</time>
      </trkpt>
      <trkpt lat="46.45462" lon="5.41506">
        <ele>431.79998779297</ele>
        <time>2020-09-12T11:00:55.000Z</time>
      </trkpt>
      <trkpt lat="46.45472" lon="5.41502">
        <ele>432.60000610352</ele>
        <time>2020-09-12T11:00:57.000Z</time>
      </trkpt>
      <trkpt lat="46.45477" lon="5.415">
        <ele>432.79998779297</ele>
        <time>2020-09-12T11:00:58.000Z</time>
      </trkpt>
      <trkpt lat="46.45483" lon="5.41498">
        <ele>433</ele>
        <time>2020-09-12T11:00:59.000Z</time>
      </trkpt>
      <trkpt lat="46.45494" lon="5.41493">
        <ele>433.20001220703</ele>
        <time>2020-09-12T11:01:01.000Z</time>
      </trkpt>
      <trkpt lat="46.45504" lon="5.41488">
        <ele>433.60000610352</ele>
        <time>2020-09-12T11:01:03.000Z</time>
      </trkpt>
      <trkpt lat="46.45509" lon="5.41485">
        <ele>433.60000610352</ele>
        <time>2020-09-12T11:01:04.000Z</time>
      </trkpt>
      <trkpt lat="46.45515" lon="5.41483">
        <ele>434.20001220703</ele>
        <time>2020-09-12T11:01:05.000Z</time>
      </trkpt>
      <trkpt lat="46.45525" lon="5.41477">
        <ele>434.60000610352</ele>
        <time>2020-09-12T11:01:07.000Z</time>
      </trkpt>
      <trkpt lat="46.4553" lon="5.41474">
        <ele>434.60000610352</ele>
        <time>2020-09-12T11:01:08.000Z</time>
      </trkpt>
      <trkpt lat="46.45536" lon="5.41471">
        <ele>434.60000610352</ele>
        <time>2020-09-12T11:01:09.000Z</time>
      </trkpt>
      <trkpt lat="46.45546" lon="5.41465">
        <ele>434.60000610352</ele>
        <time>2020-09-12T11:01:11.000Z</time>
      </trkpt>
      <trkpt lat="46.45557" lon="5.41457">
        <ele>434.79998779297</ele>
        <time>2020-09-12T11:01:13.000Z</time>
      </trkpt>
      <trkpt lat="46.45567" lon="5.41449">
        <ele>434.79998779297</ele>
        <time>2020-09-12T11:01:15.000Z</time>
      </trkpt>
      <trkpt lat="46.45572" lon="5.41445">
        <ele>434.79998779297</ele>
        <time>2020-09-12T11:01:16.000Z</time>
      </trkpt>
      <trkpt lat="46.45577" lon="5.41441">
        <ele>434.79998779297</ele>
        <time>2020-09-12T11:01:17.000Z</time>
      </trkpt>
      <trkpt lat="46.45587" lon="5.41431">
        <ele>434.79998779297</ele>
        <time>2020-09-12T11:01:19.000Z</time>
      </trkpt>
      <trkpt lat="46.45595" lon="5.4142">
        <ele>434.79998779297</ele>
        <time>2020-09-12T11:01:21.000Z</time>
      </trkpt>
      <trkpt lat="46.45599" lon="5.41414">
        <ele>434.79998779297</ele>
        <time>2020-09-12T11:01:22.000Z</time>
      </trkpt>
      <trkpt lat="46.45602" lon="5.41408">
        <ele>434.79998779297</ele>
        <time>2020-09-12T11:01:23.000Z</time>
      </trkpt>
      <trkpt lat="46.45609" lon="5.41396">
        <ele>434.79998779297</ele>
        <time>2020-09-12T11:01:25.000Z</time>
      </trkpt>
      <trkpt lat="46.45616" lon="5.41383">
        <ele>434.79998779297</ele>
        <time>2020-09-12T11:01:27.000Z</time>
      </trkpt>
      <trkpt lat="46.45622" lon="5.4137">
        <ele>435</ele>
        <time>2020-09-12T11:01:29.000Z</time>
      </trkpt>
      <trkpt lat="46.45628" lon="5.41358">
        <ele>435</ele>
        <time>2020-09-12T11:01:31.000Z</time>
      </trkpt>
      <trkpt lat="46.45634" lon="5.41345">
        <ele>434.79998779297</ele>
        <time>2020-09-12T11:01:33.000Z</time>
      </trkpt>
      <trkpt lat="46.4564" lon="5.41334">
        <ele>435</ele>
        <time>2020-09-12T11:01:35.000Z</time>
      </trkpt>
      <trkpt lat="46.45647" lon="5.41323">
        <ele>435</ele>
        <time>2020-09-12T11:01:37.000Z</time>
      </trkpt>
      <trkpt lat="46.45651" lon="5.41317">
        <ele>435</ele>
        <time>2020-09-12T11:01:38.000Z</time>
      </trkpt>
      <trkpt lat="46.45655" lon="5.41311">
        <ele>435</ele>
        <time>2020-09-12T11:01:39.000Z</time>
      </trkpt>
      <trkpt lat="46.45663" lon="5.413">
        <ele>435.20001220703</ele>
        <time>2020-09-12T11:01:41.000Z</time>
      </trkpt>
      <trkpt lat="46.45672" lon="5.41288">
        <ele>435.20001220703</ele>
        <time>2020-09-12T11:01:43.000Z</time>
      </trkpt>
      <trkpt lat="46.45681" lon="5.41277">
        <ele>435.39999389648</ele>
        <time>2020-09-12T11:01:45.000Z</time>
      </trkpt>
      <trkpt lat="46.45686" lon="5.41271">
        <ele>435.39999389648</ele>
        <time>2020-09-12T11:01:46.000Z</time>
      </trkpt>
      <trkpt lat="46.45691" lon="5.41265">
        <ele>435.39999389648</ele>
        <time>2020-09-12T11:01:47.000Z</time>
      </trkpt>
      <trkpt lat="46.457" lon="5.41253">
        <ele>435.39999389648</ele>
        <time>2020-09-12T11:01:49.000Z</time>
      </trkpt>
      <trkpt lat="46.4571" lon="5.41242">
        <ele>435.39999389648</ele>
        <time>2020-09-12T11:01:51.000Z</time>
      </trkpt>
      <trkpt lat="46.4572" lon="5.41231">
        <ele>435.20001220703</ele>
        <time>2020-09-12T11:01:53.000Z</time>
      </trkpt>
      <trkpt lat="46.4573" lon="5.4122">
        <ele>435.20001220703</ele>
        <time>2020-09-12T11:01:55.000Z</time>
      </trkpt>
      <trkpt lat="46.45735" lon="5.41214">
        <ele>435.20001220703</ele>
        <time>2020-09-12T11:01:56.000Z</time>
      </trkpt>
      <trkpt lat="46.45739" lon="5.41208">
        <ele>435.20001220703</ele>
        <time>2020-09-12T11:01:57.000Z</time>
      </trkpt>
      <trkpt lat="46.45749" lon="5.41195">
        <ele>435.20001220703</ele>
        <time>2020-09-12T11:01:59.000Z</time>
      </trkpt>
      <trkpt lat="46.45756" lon="5.4118">
        <ele>435.20001220703</ele>
        <time>2020-09-12T11:02:01.000Z</time>
      </trkpt>
      <trkpt lat="46.4576" lon="5.41173">
        <ele>435.20001220703</ele>
        <time>2020-09-12T11:02:02.000Z</time>
      </trkpt>
      <trkpt lat="46.45763" lon="5.41165">
        <ele>435.20001220703</ele>
        <time>2020-09-12T11:02:03.000Z</time>
      </trkpt>
      <trkpt lat="46.45768" lon="5.41148">
        <ele>435.60000610352</ele>
        <time>2020-09-12T11:02:05.000Z</time>
      </trkpt>
      <trkpt lat="46.45772" lon="5.41132">
        <ele>435.79998779297</ele>
        <time>2020-09-12T11:02:07.000Z</time>
      </trkpt>
      <trkpt lat="46.45774" lon="5.41123">
        <ele>435.79998779297</ele>
        <time>2020-09-12T11:02:08.000Z</time>
      </trkpt>
      <trkpt lat="46.45776" lon="5.41115">
        <ele>436.20001220703</ele>
        <time>2020-09-12T11:02:09.000Z</time>
      </trkpt>
      <trkpt lat="46.4578" lon="5.41098">
        <ele>436.20001220703</ele>
        <time>2020-09-12T11:02:11.000Z</time>
      </trkpt>
      <trkpt lat="46.45785" lon="5.41082">
        <ele>436.39999389648</ele>
        <time>2020-09-12T11:02:13.000Z</time>
      </trkpt>
      <trkpt lat="46.45788" lon="5.41065">
        <ele>436.39999389648</ele>
        <time>2020-09-12T11:02:15.000Z</time>
      </trkpt>
      <trkpt lat="46.4579" lon="5.41057">
        <ele>436.39999389648</ele>
        <time>2020-09-12T11:02:16.000Z</time>
      </trkpt>
      <trkpt lat="46.45792" lon="5.4105">
        <ele>436.39999389648</ele>
        <time>2020-09-12T11:02:17.000Z</time>
      </trkpt>
      <trkpt lat="46.45796" lon="5.41035">
        <ele>436.39999389648</ele>
        <time>2020-09-12T11:02:19.000Z</time>
      </trkpt>
      <trkpt lat="46.45801" lon="5.41021">
        <ele>436.20001220703</ele>
        <time>2020-09-12T11:02:21.000Z</time>
      </trkpt>
      <trkpt lat="46.45805" lon="5.41007">
        <ele>436.20001220703</ele>
        <time>2020-09-12T11:02:23.000Z</time>
      </trkpt>
      <trkpt lat="46.45809" lon="5.40995">
        <ele>436.20001220703</ele>
        <time>2020-09-12T11:02:25.000Z</time>
      </trkpt>
      <trkpt lat="46.45813" lon="5.40982">
        <ele>436.20001220703</ele>
        <time>2020-09-12T11:02:27.000Z</time>
      </trkpt>
      <trkpt lat="46.45816" lon="5.4097">
        <ele>436.20001220703</ele>
        <time>2020-09-12T11:02:29.000Z</time>
      </trkpt>
      <trkpt lat="46.45819" lon="5.40958">
        <ele>436.20001220703</ele>
        <time>2020-09-12T11:02:31.000Z</time>
      </trkpt>
      <trkpt lat="46.4582" lon="5.40952">
        <ele>436.39999389648</ele>
        <time>2020-09-12T11:02:32.000Z</time>
      </trkpt>
      <trkpt lat="46.45821" lon="5.40946">
        <ele>436.79998779297</ele>
        <time>2020-09-12T11:02:33.000Z</time>
      </trkpt>
      <trkpt lat="46.45824" lon="5.40933">
        <ele>437.20001220703</ele>
        <time>2020-09-12T11:02:35.000Z</time>
      </trkpt>
      <trkpt lat="46.45827" lon="5.4092">
        <ele>437.39999389648</ele>
        <time>2020-09-12T11:02:37.000Z</time>
      </trkpt>
      <trkpt lat="46.4583" lon="5.40906">
        <ele>437.60000610352</ele>
        <time>2020-09-12T11:02:39.000Z</time>
      </trkpt>
      <trkpt lat="46.45832" lon="5.40892">
        <ele>437.79998779297</ele>
        <time>2020-09-12T11:02:41.000Z</time>
      </trkpt>
      <trkpt lat="46.45835" lon="5.40877">
        <ele>437.79998779297</ele>
        <time>2020-09-12T11:02:43.000Z</time>
      </trkpt>
      <trkpt lat="46.45838" lon="5.40862">
        <ele>438</ele>
        <time>2020-09-12T11:02:45.000Z</time>
      </trkpt>
      <trkpt lat="46.45841" lon="5.40846">
        <ele>438.20001220703</ele>
        <time>2020-09-12T11:02:47.000Z</time>
      </trkpt>
      <trkpt lat="46.45843" lon="5.4083">
        <ele>438.20001220703</ele>
        <time>2020-09-12T11:02:49.000Z</time>
      </trkpt>
      <trkpt lat="46.45844" lon="5.40814">
        <ele>438.39999389648</ele>
        <time>2020-09-12T11:02:51.000Z</time>
      </trkpt>
      <trkpt lat="46.45846" lon="5.40797">
        <ele>438.39999389648</ele>
        <time>2020-09-12T11:02:53.000Z</time>
      </trkpt>
      <trkpt lat="46.45847" lon="5.4078">
        <ele>438.39999389648</ele>
        <time>2020-09-12T11:02:55.000Z</time>
      </trkpt>
      <trkpt lat="46.45848" lon="5.40763">
        <ele>438.39999389648</ele>
        <time>2020-09-12T11:02:57.000Z</time>
      </trkpt>
      <trkpt lat="46.4585" lon="5.40747">
        <ele>438.20001220703</ele>
        <time>2020-09-12T11:02:59.000Z</time>
      </trkpt>
      <trkpt lat="46.45852" lon="5.40731">
        <ele>438.20001220703</ele>
        <time>2020-09-12T11:03:01.000Z</time>
      </trkpt>
      <trkpt lat="46.45856" lon="5.40715">
        <ele>438.20001220703</ele>
        <time>2020-09-12T11:03:03.000Z</time>
      </trkpt>
      <trkpt lat="46.4586" lon="5.407">
        <ele>438.39999389648</ele>
        <time>2020-09-12T11:03:05.000Z</time>
      </trkpt>
      <trkpt lat="46.45862" lon="5.40694">
        <ele>438.39999389648</ele>
        <time>2020-09-12T11:03:06.000Z</time>
      </trkpt>
      <trkpt lat="46.45864" lon="5.40688">
        <ele>438.39999389648</ele>
        <time>2020-09-12T11:03:07.000Z</time>
      </trkpt>
      <trkpt lat="46.45868" lon="5.40676">
        <ele>438.60000610352</ele>
        <time>2020-09-12T11:03:09.000Z</time>
      </trkpt>
      <trkpt lat="46.45873" lon="5.40666">
        <ele>439</ele>
        <time>2020-09-12T11:03:11.000Z</time>
      </trkpt>
      <trkpt lat="46.45877" lon="5.40655">
        <ele>439.60000610352</ele>
        <time>2020-09-12T11:03:13.000Z</time>
      </trkpt>
      <trkpt lat="46.45879" lon="5.4065">
        <ele>440</ele>
        <time>2020-09-12T11:03:14.000Z</time>
      </trkpt>
      <trkpt lat="46.45881" lon="5.40645">
        <ele>440.60000610352</ele>
        <time>2020-09-12T11:03:15.000Z</time>
      </trkpt>
      <trkpt lat="46.45883" lon="5.40641">
        <ele>441.20001220703</ele>
        <time>2020-09-12T11:03:16.000Z</time>
      </trkpt>
      <trkpt lat="46.45885" lon="5.40636">
        <ele>441.79998779297</ele>
        <time>2020-09-12T11:03:17.000Z</time>
      </trkpt>
      <trkpt lat="46.45887" lon="5.40632">
        <ele>442.20001220703</ele>
        <time>2020-09-12T11:03:18.000Z</time>
      </trkpt>
      <trkpt lat="46.45889" lon="5.40628">
        <ele>442.60000610352</ele>
        <time>2020-09-12T11:03:19.000Z</time>
      </trkpt>
      <trkpt lat="46.45891" lon="5.40624">
        <ele>442.79998779297</ele>
        <time>2020-09-12T11:03:20.000Z</time>
      </trkpt>
      <trkpt lat="46.45893" lon="5.4062">
        <ele>443</ele>
        <time>2020-09-12T11:03:21.000Z</time>
      </trkpt>
      <trkpt lat="46.45896" lon="5.40611">
        <ele>443.60000610352</ele>
        <time>2020-09-12T11:03:23.000Z</time>
      </trkpt>
      <trkpt lat="46.459" lon="5.40603">
        <ele>444.20001220703</ele>
        <time>2020-09-12T11:03:25.000Z</time>
      </trkpt>
      <trkpt lat="46.45903" lon="5.40595">
        <ele>444.79998779297</ele>
        <time>2020-09-12T11:03:27.000Z</time>
      </trkpt>
      <trkpt lat="46.45905" lon="5.4059">
        <ele>445</ele>
        <time>2020-09-12T11:03:28.000Z</time>
      </trkpt>
      <trkpt lat="46.45906" lon="5.40586">
        <ele>445.39999389648</ele>
        <time>2020-09-12T11:03:29.000Z</time>
      </trkpt>
      <trkpt lat="46.45908" lon="5.40581">
        <ele>445.79998779297</ele>
        <time>2020-09-12T11:03:30.000Z</time>
      </trkpt>
      <trkpt lat="46.4591" lon="5.40577">
        <ele>446.60000610352</ele>
        <time>2020-09-12T11:03:31.000Z</time>
      </trkpt>
      <trkpt lat="46.45914" lon="5.40568">
        <ele>447</ele>
        <time>2020-09-12T11:03:33.000Z</time>
      </trkpt>
      <trkpt lat="46.45917" lon="5.4056">
        <ele>447.60000610352</ele>
        <time>2020-09-12T11:03:35.000Z</time>
      </trkpt>
      <trkpt lat="46.45919" lon="5.40555">
        <ele>447.79998779297</ele>
        <time>2020-09-12T11:03:36.000Z</time>
      </trkpt>
      <trkpt lat="46.45921" lon="5.40552">
        <ele>448</ele>
        <time>2020-09-12T11:03:37.000Z</time>
      </trkpt>
      <trkpt lat="46.45923" lon="5.40548">
        <ele>448</ele>
        <time>2020-09-12T11:03:38.000Z</time>
      </trkpt>
      <trkpt lat="46.45925" lon="5.40544">
        <ele>448.39999389648</ele>
        <time>2020-09-12T11:03:39.000Z</time>
      </trkpt>
      <trkpt lat="46.45929" lon="5.40536">
        <ele>449</ele>
        <time>2020-09-12T11:03:41.000Z</time>
      </trkpt>
      <trkpt lat="46.45931" lon="5.40533">
        <ele>449.20001220703</ele>
        <time>2020-09-12T11:03:42.000Z</time>
      </trkpt>
      <trkpt lat="46.45933" lon="5.4053">
        <ele>449.39999389648</ele>
        <time>2020-09-12T11:03:43.000Z</time>
      </trkpt>
      <trkpt lat="46.45935" lon="5.40527">
        <ele>449.39999389648</ele>
        <time>2020-09-12T11:03:44.000Z</time>
      </trkpt>
      <trkpt lat="46.45937" lon="5.40524">
        <ele>449.60000610352</ele>
        <time>2020-09-12T11:03:45.000Z</time>
      </trkpt>
      <trkpt lat="46.45941" lon="5.40519">
        <ele>450</ele>
        <time>2020-09-12T11:03:47.000Z</time>
      </trkpt>
      <trkpt lat="46.45943" lon="5.40516">
        <ele>450.20001220703</ele>
        <time>2020-09-12T11:03:48.000Z</time>
      </trkpt>
      <trkpt lat="46.45945" lon="5.40513">
        <ele>450.60000610352</ele>
        <time>2020-09-12T11:03:49.000Z</time>
      </trkpt>
      <trkpt lat="46.4595" lon="5.40507">
        <ele>451.20001220703</ele>
        <time>2020-09-12T11:03:51.000Z</time>
      </trkpt>
      <trkpt lat="46.45952" lon="5.40504">
        <ele>451.39999389648</ele>
        <time>2020-09-12T11:03:52.000Z</time>
      </trkpt>
      <trkpt lat="46.45954" lon="5.40501">
        <ele>451.60000610352</ele>
        <time>2020-09-12T11:03:53.000Z</time>
      </trkpt>
      <trkpt lat="46.45958" lon="5.40495">
        <ele>452.20001220703</ele>
        <time>2020-09-12T11:03:55.000Z</time>
      </trkpt>
      <trkpt lat="46.4596" lon="5.40493">
        <ele>452.60000610352</ele>
        <time>2020-09-12T11:03:56.000Z</time>
      </trkpt>
      <trkpt lat="46.45962" lon="5.4049">
        <ele>452.79998779297</ele>
        <time>2020-09-12T11:03:57.000Z</time>
      </trkpt>
      <trkpt lat="46.45967" lon="5.40482">
        <ele>453.20001220703</ele>
        <time>2020-09-12T11:03:59.000Z</time>
      </trkpt>
      <trkpt lat="46.45969" lon="5.40478">
        <ele>453.60000610352</ele>
        <time>2020-09-12T11:04:00.000Z</time>
      </trkpt>
      <trkpt lat="46.45971" lon="5.40475">
        <ele>453.79998779297</ele>
        <time>2020-09-12T11:04:01.000Z</time>
      </trkpt>
      <trkpt lat="46.45975" lon="5.40468">
        <ele>454.20001220703</ele>
        <time>2020-09-12T11:04:03.000Z</time>
      </trkpt>
      <trkpt lat="46.45977" lon="5.40464">
        <ele>454.60000610352</ele>
        <time>2020-09-12T11:04:04.000Z</time>
      </trkpt>
      <trkpt lat="46.45979" lon="5.40461">
        <ele>454.79998779297</ele>
        <time>2020-09-12T11:04:05.000Z</time>
      </trkpt>
      <trkpt lat="46.45983" lon="5.40455">
        <ele>455.20001220703</ele>
        <time>2020-09-12T11:04:07.000Z</time>
      </trkpt>
      <trkpt lat="46.45987" lon="5.40448">
        <ele>455.60000610352</ele>
        <time>2020-09-12T11:04:09.000Z</time>
      </trkpt>
      <trkpt lat="46.4599" lon="5.4044">
        <ele>456</ele>
        <time>2020-09-12T11:04:11.000Z</time>
      </trkpt>
      <trkpt lat="46.45994" lon="5.40433">
        <ele>456.20001220703</ele>
        <time>2020-09-12T11:04:13.000Z</time>
      </trkpt>
      <trkpt lat="46.45997" lon="5.40426">
        <ele>456.60000610352</ele>
        <time>2020-09-12T11:04:15.000Z</time>
      </trkpt>
      <trkpt lat="46.45999" lon="5.40422">
        <ele>456.79998779297</ele>
        <time>2020-09-12T11:04:16.000Z</time>
      </trkpt>
      <trkpt lat="46.46001" lon="5.40419">
        <ele>457.20001220703</ele>
        <time>2020-09-12T11:04:17.000Z</time>
      </trkpt>
      <trkpt lat="46.46002" lon="5.40415">
        <ele>457.20001220703</ele>
        <time>2020-09-12T11:04:18.000Z</time>
      </trkpt>
      <trkpt lat="46.46004" lon="5.40411">
        <ele>457.39999389648</ele>
        <time>2020-09-12T11:04:19.000Z</time>
      </trkpt>
      <trkpt lat="46.46007" lon="5.40405">
        <ele>457.60000610352</ele>
        <time>2020-09-12T11:04:21.000Z</time>
      </trkpt>
      <trkpt lat="46.46008" lon="5.40401">
        <ele>457.79998779297</ele>
        <time>2020-09-12T11:04:22.000Z</time>
      </trkpt>
      <trkpt lat="46.4601" lon="5.40398">
        <ele>458</ele>
        <time>2020-09-12T11:04:23.000Z</time>
      </trkpt>
      <trkpt lat="46.46012" lon="5.40391">
        <ele>458.39999389648</ele>
        <time>2020-09-12T11:04:25.000Z</time>
      </trkpt>
      <trkpt lat="46.46015" lon="5.40383">
        <ele>458.60000610352</ele>
        <time>2020-09-12T11:04:27.000Z</time>
      </trkpt>
      <trkpt lat="46.46017" lon="5.40379">
        <ele>458.79998779297</ele>
        <time>2020-09-12T11:04:28.000Z</time>
      </trkpt>
      <trkpt lat="46.46019" lon="5.40375">
        <ele>459.20001220703</ele>
        <time>2020-09-12T11:04:29.000Z</time>
      </trkpt>
      <trkpt lat="46.46022" lon="5.40368">
        <ele>459.60000610352</ele>
        <time>2020-09-12T11:04:31.000Z</time>
      </trkpt>
      <trkpt lat="46.46024" lon="5.40364">
        <ele>459.79998779297</ele>
        <time>2020-09-12T11:04:32.000Z</time>
      </trkpt>
      <trkpt lat="46.46026" lon="5.4036">
        <ele>460.20001220703</ele>
        <time>2020-09-12T11:04:33.000Z</time>
      </trkpt>
      <trkpt lat="46.46029" lon="5.40353">
        <ele>460.39999389648</ele>
        <time>2020-09-12T11:04:35.000Z</time>
      </trkpt>
      <trkpt lat="46.46032" lon="5.40349">
        <ele>460.60000610352</ele>
        <time>2020-09-12T11:04:36.000Z</time>
      </trkpt>
      <trkpt lat="46.46034" lon="5.40346">
        <ele>460.79998779297</ele>
        <time>2020-09-12T11:04:37.000Z</time>
      </trkpt>
      <trkpt lat="46.46037" lon="5.40343">
        <ele>461.20001220703</ele>
        <time>2020-09-12T11:04:38.000Z</time>
      </trkpt>
      <trkpt lat="46.46039" lon="5.4034">
        <ele>461.79998779297</ele>
        <time>2020-09-12T11:04:39.000Z</time>
      </trkpt>
      <trkpt lat="46.46045" lon="5.40335">
        <ele>462.20001220703</ele>
        <time>2020-09-12T11:04:41.000Z</time>
      </trkpt>
      <trkpt lat="46.46047" lon="5.40333">
        <ele>462.39999389648</ele>
        <time>2020-09-12T11:04:42.000Z</time>
      </trkpt>
      <trkpt lat="46.4605" lon="5.40331">
        <ele>462.39999389648</ele>
        <time>2020-09-12T11:04:43.000Z</time>
      </trkpt>
      <trkpt lat="46.46056" lon="5.40328">
        <ele>462.79998779297</ele>
        <time>2020-09-12T11:04:45.000Z</time>
      </trkpt>
      <trkpt lat="46.46061" lon="5.40325">
        <ele>463.20001220703</ele>
        <time>2020-09-12T11:04:47.000Z</time>
      </trkpt>
      <trkpt lat="46.46064" lon="5.40324">
        <ele>463.60000610352</ele>
        <time>2020-09-12T11:04:48.000Z</time>
      </trkpt>
      <trkpt lat="46.46067" lon="5.40323">
        <ele>463.79998779297</ele>
        <time>2020-09-12T11:04:49.000Z</time>
      </trkpt>
      <trkpt lat="46.46073" lon="5.4032">
        <ele>464.20001220703</ele>
        <time>2020-09-12T11:04:51.000Z</time>
      </trkpt>
      <trkpt lat="46.46079" lon="5.40317">
        <ele>464.60000610352</ele>
        <time>2020-09-12T11:04:53.000Z</time>
      </trkpt>
      <trkpt lat="46.46085" lon="5.40314">
        <ele>465</ele>
        <time>2020-09-12T11:04:55.000Z</time>
      </trkpt>
      <trkpt lat="46.46091" lon="5.40312">
        <ele>465.60000610352</ele>
        <time>2020-09-12T11:04:57.000Z</time>
      </trkpt>
      <trkpt lat="46.46096" lon="5.40309">
        <ele>466.39999389648</ele>
        <time>2020-09-12T11:04:59.000Z</time>
      </trkpt>
      <trkpt lat="46.46099" lon="5.40308">
        <ele>466.79998779297</ele>
        <time>2020-09-12T11:05:00.000Z</time>
      </trkpt>
      <trkpt lat="46.46102" lon="5.40307">
        <ele>467</ele>
        <time>2020-09-12T11:05:01.000Z</time>
      </trkpt>
      <trkpt lat="46.46107" lon="5.40305">
        <ele>467.20001220703</ele>
        <time>2020-09-12T11:05:03.000Z</time>
      </trkpt>
      <trkpt lat="46.46112" lon="5.40302">
        <ele>467.60000610352</ele>
        <time>2020-09-12T11:05:05.000Z</time>
      </trkpt>
      <trkpt lat="46.46114" lon="5.403">
        <ele>467.79998779297</ele>
        <time>2020-09-12T11:05:06.000Z</time>
      </trkpt>
      <trkpt lat="46.46117" lon="5.40297">
        <ele>468.20001220703</ele>
        <time>2020-09-12T11:05:07.000Z</time>
      </trkpt>
      <trkpt lat="46.46122" lon="5.40291">
        <ele>468.60000610352</ele>
        <time>2020-09-12T11:05:09.000Z</time>
      </trkpt>
      <trkpt lat="46.46127" lon="5.40284">
        <ele>468.79998779297</ele>
        <time>2020-09-12T11:05:11.000Z</time>
      </trkpt>
      <trkpt lat="46.4613" lon="5.4028">
        <ele>469</ele>
        <time>2020-09-12T11:05:12.000Z</time>
      </trkpt>
      <trkpt lat="46.46133" lon="5.40276">
        <ele>469.20001220703</ele>
        <time>2020-09-12T11:05:13.000Z</time>
      </trkpt>
      <trkpt lat="46.46138" lon="5.40266">
        <ele>469.39999389648</ele>
        <time>2020-09-12T11:05:15.000Z</time>
      </trkpt>
      <trkpt lat="46.46143" lon="5.40257">
        <ele>469.39999389648</ele>
        <time>2020-09-12T11:05:17.000Z</time>
      </trkpt>
      <trkpt lat="46.46148" lon="5.40248">
        <ele>469.39999389648</ele>
        <time>2020-09-12T11:05:19.000Z</time>
      </trkpt>
      <trkpt lat="46.46154" lon="5.40239">
        <ele>469.60000610352</ele>
        <time>2020-09-12T11:05:21.000Z</time>
      </trkpt>
      <trkpt lat="46.46159" lon="5.4023">
        <ele>469.79998779297</ele>
        <time>2020-09-12T11:05:23.000Z</time>
      </trkpt>
      <trkpt lat="46.46163" lon="5.40221">
        <ele>469.79998779297</ele>
        <time>2020-09-12T11:05:25.000Z</time>
      </trkpt>
      <trkpt lat="46.46168" lon="5.40212">
        <ele>470</ele>
        <time>2020-09-12T11:05:27.000Z</time>
      </trkpt>
      <trkpt lat="46.46173" lon="5.40203">
        <ele>470.79998779297</ele>
        <time>2020-09-12T11:05:29.000Z</time>
      </trkpt>
      <trkpt lat="46.46175" lon="5.40199">
        <ele>471.20001220703</ele>
        <time>2020-09-12T11:05:30.000Z</time>
      </trkpt>
      <trkpt lat="46.46177" lon="5.40195">
        <ele>471.39999389648</ele>
        <time>2020-09-12T11:05:31.000Z</time>
      </trkpt>
      <trkpt lat="46.46182" lon="5.40186">
        <ele>472.20001220703</ele>
        <time>2020-09-12T11:05:33.000Z</time>
      </trkpt>
      <trkpt lat="46.46184" lon="5.40181">
        <ele>472.39999389648</ele>
        <time>2020-09-12T11:05:34.000Z</time>
      </trkpt>
      <trkpt lat="46.46186" lon="5.40176">
        <ele>472.60000610352</ele>
        <time>2020-09-12T11:05:35.000Z</time>
      </trkpt>
      <trkpt lat="46.46191" lon="5.40167">
        <ele>472.79998779297</ele>
        <time>2020-09-12T11:05:37.000Z</time>
      </trkpt>
      <trkpt lat="46.46197" lon="5.40158">
        <ele>473</ele>
        <time>2020-09-12T11:05:39.000Z</time>
      </trkpt>
      <trkpt lat="46.462" lon="5.40153">
        <ele>473</ele>
        <time>2020-09-12T11:05:40.000Z</time>
      </trkpt>
      <trkpt lat="46.46206" lon="5.40143">
        <ele>473.20001220703</ele>
        <time>2020-09-12T11:05:42.000Z</time>
      </trkpt>
      <trkpt lat="46.46213" lon="5.40133">
        <ele>473.39999389648</ele>
        <time>2020-09-12T11:05:44.000Z</time>
      </trkpt>
      <trkpt lat="46.46217" lon="5.40128">
        <ele>473.60000610352</ele>
        <time>2020-09-12T11:05:45.000Z</time>
      </trkpt>
      <trkpt lat="46.46221" lon="5.40124">
        <ele>473.79998779297</ele>
        <time>2020-09-12T11:05:46.000Z</time>
      </trkpt>
      <trkpt lat="46.4623" lon="5.40115">
        <ele>473.79998779297</ele>
        <time>2020-09-12T11:05:48.000Z</time>
      </trkpt>
      <trkpt lat="46.46239" lon="5.40107">
        <ele>473.79998779297</ele>
        <time>2020-09-12T11:05:50.000Z</time>
      </trkpt>
      <trkpt lat="46.46243" lon="5.40103">
        <ele>473.79998779297</ele>
        <time>2020-09-12T11:05:51.000Z</time>
      </trkpt>
      <trkpt lat="46.46247" lon="5.401">
        <ele>473.79998779297</ele>
        <time>2020-09-12T11:05:52.000Z</time>
      </trkpt>
      <trkpt lat="46.46252" lon="5.40097">
        <ele>473.79998779297</ele>
        <time>2020-09-12T11:05:53.000Z</time>
      </trkpt>
      <trkpt lat="46.46262" lon="5.40092">
        <ele>474</ele>
        <time>2020-09-12T11:05:55.000Z</time>
      </trkpt>
      <trkpt lat="46.4627" lon="5.4009">
        <ele>474.20001220703</ele>
        <time>2020-09-12T11:05:57.000Z</time>
      </trkpt>
      <trkpt lat="46.46275" lon="5.4009">
        <ele>474.20001220703</ele>
        <time>2020-09-12T11:05:58.000Z</time>
      </trkpt>
      <trkpt lat="46.46279" lon="5.40091">
        <ele>474.39999389648</ele>
        <time>2020-09-12T11:05:59.000Z</time>
      </trkpt>
      <trkpt lat="46.46287" lon="5.40091">
        <ele>474.39999389648</ele>
        <time>2020-09-12T11:06:01.000Z</time>
      </trkpt>
      <trkpt lat="46.46295" lon="5.40092">
        <ele>474.39999389648</ele>
        <time>2020-09-12T11:06:03.000Z</time>
      </trkpt>
      <trkpt lat="46.46299" lon="5.40093">
        <ele>474.60000610352</ele>
        <time>2020-09-12T11:06:04.000Z</time>
      </trkpt>
      <trkpt lat="46.46303" lon="5.40093">
        <ele>475</ele>
        <time>2020-09-12T11:06:05.000Z</time>
      </trkpt>
      <trkpt lat="46.46307" lon="5.40094">
        <ele>475.39999389648</ele>
        <time>2020-09-12T11:06:06.000Z</time>
      </trkpt>
      <trkpt lat="46.46311" lon="5.40094">
        <ele>475.79998779297</ele>
        <time>2020-09-12T11:06:07.000Z</time>
      </trkpt>
      <trkpt lat="46.46319" lon="5.40095">
        <ele>476.60000610352</ele>
        <time>2020-09-12T11:06:09.000Z</time>
      </trkpt>
      <trkpt lat="46.46323" lon="5.40095">
        <ele>476.79998779297</ele>
        <time>2020-09-12T11:06:10.000Z</time>
      </trkpt>
      <trkpt lat="46.46327" lon="5.40094">
        <ele>477.39999389648</ele>
        <time>2020-09-12T11:06:11.000Z</time>
      </trkpt>
      <trkpt lat="46.46336" lon="5.40094">
        <ele>477.79998779297</ele>
        <time>2020-09-12T11:06:13.000Z</time>
      </trkpt>
      <trkpt lat="46.4634" lon="5.40093">
        <ele>478</ele>
        <time>2020-09-12T11:06:14.000Z</time>
      </trkpt>
      <trkpt lat="46.46344" lon="5.40092">
        <ele>478.20001220703</ele>
        <time>2020-09-12T11:06:15.000Z</time>
      </trkpt>
      <trkpt lat="46.46353" lon="5.40091">
        <ele>478.60000610352</ele>
        <time>2020-09-12T11:06:17.000Z</time>
      </trkpt>
      <trkpt lat="46.46362" lon="5.4009">
        <ele>479</ele>
        <time>2020-09-12T11:06:19.000Z</time>
      </trkpt>
      <trkpt lat="46.46371" lon="5.40088">
        <ele>479.39999389648</ele>
        <time>2020-09-12T11:06:21.000Z</time>
      </trkpt>
      <trkpt lat="46.46376" lon="5.40088">
        <ele>479.39999389648</ele>
        <time>2020-09-12T11:06:22.000Z</time>
      </trkpt>
      <trkpt lat="46.4638" lon="5.40087">
        <ele>479.60000610352</ele>
        <time>2020-09-12T11:06:23.000Z</time>
      </trkpt>
      <trkpt lat="46.46389" lon="5.40085">
        <ele>480</ele>
        <time>2020-09-12T11:06:25.000Z</time>
      </trkpt>
      <trkpt lat="46.46393" lon="5.40084">
        <ele>480.20001220703</ele>
        <time>2020-09-12T11:06:26.000Z</time>
      </trkpt>
      <trkpt lat="46.46397" lon="5.40083">
        <ele>480.20001220703</ele>
        <time>2020-09-12T11:06:27.000Z</time>
      </trkpt>
      <trkpt lat="46.46406" lon="5.40082">
        <ele>480.60000610352</ele>
        <time>2020-09-12T11:06:29.000Z</time>
      </trkpt>
      <trkpt lat="46.46414" lon="5.4008">
        <ele>480.79998779297</ele>
        <time>2020-09-12T11:06:31.000Z</time>
      </trkpt>
      <trkpt lat="46.46418" lon="5.4008">
        <ele>480.79998779297</ele>
        <time>2020-09-12T11:06:32.000Z</time>
      </trkpt>
      <trkpt lat="46.46423" lon="5.40079">
        <ele>481</ele>
        <time>2020-09-12T11:06:33.000Z</time>
      </trkpt>
      <trkpt lat="46.46431" lon="5.40077">
        <ele>481.20001220703</ele>
        <time>2020-09-12T11:06:35.000Z</time>
      </trkpt>
      <trkpt lat="46.46435" lon="5.40076">
        <ele>481.39999389648</ele>
        <time>2020-09-12T11:06:36.000Z</time>
      </trkpt>
      <trkpt lat="46.46439" lon="5.40075">
        <ele>481.60000610352</ele>
        <time>2020-09-12T11:06:37.000Z</time>
      </trkpt>
      <trkpt lat="46.46448" lon="5.40074">
        <ele>482.20001220703</ele>
        <time>2020-09-12T11:06:39.000Z</time>
      </trkpt>
      <trkpt lat="46.46452" lon="5.40073">
        <ele>482.39999389648</ele>
        <time>2020-09-12T11:06:40.000Z</time>
      </trkpt>
      <trkpt lat="46.46456" lon="5.40073">
        <ele>482.60000610352</ele>
        <time>2020-09-12T11:06:41.000Z</time>
      </trkpt>
      <trkpt lat="46.46465" lon="5.40072">
        <ele>482.79998779297</ele>
        <time>2020-09-12T11:06:43.000Z</time>
      </trkpt>
      <trkpt lat="46.46474" lon="5.40071">
        <ele>483</ele>
        <time>2020-09-12T11:06:45.000Z</time>
      </trkpt>
      <trkpt lat="46.46482" lon="5.40071">
        <ele>483.20001220703</ele>
        <time>2020-09-12T11:06:47.000Z</time>
      </trkpt>
      <trkpt lat="46.46492" lon="5.40071">
        <ele>483.20001220703</ele>
        <time>2020-09-12T11:06:49.000Z</time>
      </trkpt>
      <trkpt lat="46.46501" lon="5.40073">
        <ele>483.39999389648</ele>
        <time>2020-09-12T11:06:51.000Z</time>
      </trkpt>
      <trkpt lat="46.46506" lon="5.40074">
        <ele>483.39999389648</ele>
        <time>2020-09-12T11:06:52.000Z</time>
      </trkpt>
      <trkpt lat="46.4651" lon="5.40076">
        <ele>483.60000610352</ele>
        <time>2020-09-12T11:06:53.000Z</time>
      </trkpt>
      <trkpt lat="46.46519" lon="5.40079">
        <ele>483.79998779297</ele>
        <time>2020-09-12T11:06:55.000Z</time>
      </trkpt>
      <trkpt lat="46.46528" lon="5.40084">
        <ele>484.20001220703</ele>
        <time>2020-09-12T11:06:57.000Z</time>
      </trkpt>
      <trkpt lat="46.46536" lon="5.40088">
        <ele>484.39999389648</ele>
        <time>2020-09-12T11:06:59.000Z</time>
      </trkpt>
      <trkpt lat="46.46541" lon="5.4009">
        <ele>484.60000610352</ele>
        <time>2020-09-12T11:07:00.000Z</time>
      </trkpt>
      <trkpt lat="46.46545" lon="5.40093">
        <ele>484.60000610352</ele>
        <time>2020-09-12T11:07:01.000Z</time>
      </trkpt>
      <trkpt lat="46.46553" lon="5.40097">
        <ele>484.79998779297</ele>
        <time>2020-09-12T11:07:03.000Z</time>
      </trkpt>
      <trkpt lat="46.46562" lon="5.40101">
        <ele>485.20001220703</ele>
        <time>2020-09-12T11:07:05.000Z</time>
      </trkpt>
      <trkpt lat="46.46571" lon="5.40106">
        <ele>485.60000610352</ele>
        <time>2020-09-12T11:07:07.000Z</time>
      </trkpt>
      <trkpt lat="46.46579" lon="5.4011">
        <ele>486</ele>
        <time>2020-09-12T11:07:09.000Z</time>
      </trkpt>
      <trkpt lat="46.46588" lon="5.40114">
        <ele>486.20001220703</ele>
        <time>2020-09-12T11:07:11.000Z</time>
      </trkpt>
      <trkpt lat="46.46596" lon="5.40119">
        <ele>486.39999389648</ele>
        <time>2020-09-12T11:07:13.000Z</time>
      </trkpt>
      <trkpt lat="46.46604" lon="5.40122">
        <ele>486.60000610352</ele>
        <time>2020-09-12T11:07:15.000Z</time>
      </trkpt>
      <trkpt lat="46.46611" lon="5.40126">
        <ele>486.79998779297</ele>
        <time>2020-09-12T11:07:17.000Z</time>
      </trkpt>
      <trkpt lat="46.46618" lon="5.4013">
        <ele>487</ele>
        <time>2020-09-12T11:07:19.000Z</time>
      </trkpt>
      <trkpt lat="46.46626" lon="5.40134">
        <ele>487.60000610352</ele>
        <time>2020-09-12T11:07:21.000Z</time>
      </trkpt>
      <trkpt lat="46.46629" lon="5.40136">
        <ele>488.20001220703</ele>
        <time>2020-09-12T11:07:22.000Z</time>
      </trkpt>
      <trkpt lat="46.46633" lon="5.40138">
        <ele>488.60000610352</ele>
        <time>2020-09-12T11:07:23.000Z</time>
      </trkpt>
      <trkpt lat="46.46637" lon="5.4014">
        <ele>489.20001220703</ele>
        <time>2020-09-12T11:07:24.000Z</time>
      </trkpt>
      <trkpt lat="46.4664" lon="5.40142">
        <ele>489.39999389648</ele>
        <time>2020-09-12T11:07:25.000Z</time>
      </trkpt>
      <trkpt lat="46.46647" lon="5.40145">
        <ele>489.39999389648</ele>
        <time>2020-09-12T11:07:27.000Z</time>
      </trkpt>
      <trkpt lat="46.46651" lon="5.40147">
        <ele>489.60000610352</ele>
        <time>2020-09-12T11:07:28.000Z</time>
      </trkpt>
      <trkpt lat="46.46654" lon="5.40149">
        <ele>489.60000610352</ele>
        <time>2020-09-12T11:07:29.000Z</time>
      </trkpt>
      <trkpt lat="46.46661" lon="5.40152">
        <ele>489.79998779297</ele>
        <time>2020-09-12T11:07:31.000Z</time>
      </trkpt>
      <trkpt lat="46.46668" lon="5.40155">
        <ele>490.20001220703</ele>
        <time>2020-09-12T11:07:33.000Z</time>
      </trkpt>
      <trkpt lat="46.46671" lon="5.40157">
        <ele>490.39999389648</ele>
        <time>2020-09-12T11:07:34.000Z</time>
      </trkpt>
      <trkpt lat="46.46674" lon="5.40159">
        <ele>490.39999389648</ele>
        <time>2020-09-12T11:07:35.000Z</time>
      </trkpt>
      <trkpt lat="46.4668" lon="5.40162">
        <ele>491</ele>
        <time>2020-09-12T11:07:37.000Z</time>
      </trkpt>
      <trkpt lat="46.46687" lon="5.40165">
        <ele>491.60000610352</ele>
        <time>2020-09-12T11:07:39.000Z</time>
      </trkpt>
      <trkpt lat="46.46693" lon="5.40168">
        <ele>492.39999389648</ele>
        <time>2020-09-12T11:07:41.000Z</time>
      </trkpt>
      <trkpt lat="46.467" lon="5.40171">
        <ele>492.79998779297</ele>
        <time>2020-09-12T11:07:43.000Z</time>
      </trkpt>
      <trkpt lat="46.46706" lon="5.40175">
        <ele>493.39999389648</ele>
        <time>2020-09-12T11:07:45.000Z</time>
      </trkpt>
      <trkpt lat="46.46713" lon="5.40178">
        <ele>494.20001220703</ele>
        <time>2020-09-12T11:07:47.000Z</time>
      </trkpt>
      <trkpt lat="46.4672" lon="5.40182">
        <ele>494.60000610352</ele>
        <time>2020-09-12T11:07:49.000Z</time>
      </trkpt>
      <trkpt lat="46.46726" lon="5.40185">
        <ele>495</ele>
        <time>2020-09-12T11:07:51.000Z</time>
      </trkpt>
      <trkpt lat="46.46732" lon="5.40188">
        <ele>495.20001220703</ele>
        <time>2020-09-12T11:07:53.000Z</time>
      </trkpt>
      <trkpt lat="46.46739" lon="5.40192">
        <ele>495.60000610352</ele>
        <time>2020-09-12T11:07:55.000Z</time>
      </trkpt>
      <trkpt lat="46.46742" lon="5.40193">
        <ele>495.60000610352</ele>
        <time>2020-09-12T11:07:56.000Z</time>
      </trkpt>
      <trkpt lat="46.46745" lon="5.40195">
        <ele>495.79998779297</ele>
        <time>2020-09-12T11:07:57.000Z</time>
      </trkpt>
      <trkpt lat="46.46751" lon="5.40199">
        <ele>496.20001220703</ele>
        <time>2020-09-12T11:07:59.000Z</time>
      </trkpt>
      <trkpt lat="46.46758" lon="5.40203">
        <ele>496.39999389648</ele>
        <time>2020-09-12T11:08:01.000Z</time>
      </trkpt>
      <trkpt lat="46.46764" lon="5.40206">
        <ele>497</ele>
        <time>2020-09-12T11:08:03.000Z</time>
      </trkpt>
      <trkpt lat="46.46767" lon="5.40208">
        <ele>497.39999389648</ele>
        <time>2020-09-12T11:08:04.000Z</time>
      </trkpt>
      <trkpt lat="46.4677" lon="5.4021">
        <ele>497.79998779297</ele>
        <time>2020-09-12T11:08:05.000Z</time>
      </trkpt>
      <trkpt lat="46.46776" lon="5.40214">
        <ele>498.20001220703</ele>
        <time>2020-09-12T11:08:07.000Z</time>
      </trkpt>
      <trkpt lat="46.46783" lon="5.40218">
        <ele>498.60000610352</ele>
        <time>2020-09-12T11:08:09.000Z</time>
      </trkpt>
      <trkpt lat="46.46789" lon="5.40221">
        <ele>499</ele>
        <time>2020-09-12T11:08:11.000Z</time>
      </trkpt>
      <trkpt lat="46.46792" lon="5.40222">
        <ele>499.20001220703</ele>
        <time>2020-09-12T11:08:12.000Z</time>
      </trkpt>
      <trkpt lat="46.46795" lon="5.40224">
        <ele>499.20001220703</ele>
        <time>2020-09-12T11:08:13.000Z</time>
      </trkpt>
      <trkpt lat="46.46801" lon="5.40228">
        <ele>499.60000610352</ele>
        <time>2020-09-12T11:08:15.000Z</time>
      </trkpt>
      <trkpt lat="46.46805" lon="5.40229">
        <ele>499.79998779297</ele>
        <time>2020-09-12T11:08:16.000Z</time>
      </trkpt>
      <trkpt lat="46.46808" lon="5.40231">
        <ele>500</ele>
        <time>2020-09-12T11:08:17.000Z</time>
      </trkpt>
      <trkpt lat="46.46814" lon="5.40234">
        <ele>500.39999389648</ele>
        <time>2020-09-12T11:08:19.000Z</time>
      </trkpt>
      <trkpt lat="46.46818" lon="5.40236">
        <ele>500.79998779297</ele>
        <time>2020-09-12T11:08:20.000Z</time>
      </trkpt>
      <trkpt lat="46.46821" lon="5.40237">
        <ele>501</ele>
        <time>2020-09-12T11:08:21.000Z</time>
      </trkpt>
      <trkpt lat="46.46827" lon="5.40241">
        <ele>501.79998779297</ele>
        <time>2020-09-12T11:08:23.000Z</time>
      </trkpt>
      <trkpt lat="46.46834" lon="5.40244">
        <ele>502.20001220703</ele>
        <time>2020-09-12T11:08:25.000Z</time>
      </trkpt>
      <trkpt lat="46.46841" lon="5.40247">
        <ele>502.60000610352</ele>
        <time>2020-09-12T11:08:27.000Z</time>
      </trkpt>
      <trkpt lat="46.46848" lon="5.40251">
        <ele>502.79998779297</ele>
        <time>2020-09-12T11:08:29.000Z</time>
      </trkpt>
      <trkpt lat="46.46855" lon="5.40254">
        <ele>503</ele>
        <time>2020-09-12T11:08:31.000Z</time>
      </trkpt>
      <trkpt lat="46.46862" lon="5.40257">
        <ele>503.20001220703</ele>
        <time>2020-09-12T11:08:33.000Z</time>
      </trkpt>
      <trkpt lat="46.4687" lon="5.40261">
        <ele>503.60000610352</ele>
        <time>2020-09-12T11:08:35.000Z</time>
      </trkpt>
      <trkpt lat="46.46877" lon="5.40265">
        <ele>503.79998779297</ele>
        <time>2020-09-12T11:08:37.000Z</time>
      </trkpt>
      <trkpt lat="46.46885" lon="5.40269">
        <ele>504.39999389648</ele>
        <time>2020-09-12T11:08:39.000Z</time>
      </trkpt>
      <trkpt lat="46.46893" lon="5.40273">
        <ele>504.79998779297</ele>
        <time>2020-09-12T11:08:41.000Z</time>
      </trkpt>
      <trkpt lat="46.46897" lon="5.40275">
        <ele>505</ele>
        <time>2020-09-12T11:08:42.000Z</time>
      </trkpt>
      <trkpt lat="46.46901" lon="5.40277">
        <ele>505</ele>
        <time>2020-09-12T11:08:43.000Z</time>
      </trkpt>
      <trkpt lat="46.46909" lon="5.40281">
        <ele>505.39999389648</ele>
        <time>2020-09-12T11:08:45.000Z</time>
      </trkpt>
      <trkpt lat="46.46918" lon="5.40284">
        <ele>505.60000610352</ele>
        <time>2020-09-12T11:08:47.000Z</time>
      </trkpt>
      <trkpt lat="46.46926" lon="5.40289">
        <ele>505.60000610352</ele>
        <time>2020-09-12T11:08:49.000Z</time>
      </trkpt>
      <trkpt lat="46.4693" lon="5.40291">
        <ele>505.60000610352</ele>
        <time>2020-09-12T11:08:50.000Z</time>
      </trkpt>
      <trkpt lat="46.46934" lon="5.40293">
        <ele>505.60000610352</ele>
        <time>2020-09-12T11:08:51.000Z</time>
      </trkpt>
      <trkpt lat="46.46942" lon="5.40297">
        <ele>506</ele>
        <time>2020-09-12T11:08:53.000Z</time>
      </trkpt>
      <trkpt lat="46.4695" lon="5.40301">
        <ele>506.39999389648</ele>
        <time>2020-09-12T11:08:55.000Z</time>
      </trkpt>
      <trkpt lat="46.46958" lon="5.40305">
        <ele>506.60000610352</ele>
        <time>2020-09-12T11:08:57.000Z</time>
      </trkpt>
      <trkpt lat="46.46966" lon="5.40308">
        <ele>507</ele>
        <time>2020-09-12T11:08:59.000Z</time>
      </trkpt>
      <trkpt lat="46.46974" lon="5.40311">
        <ele>507.60000610352</ele>
        <time>2020-09-12T11:09:01.000Z</time>
      </trkpt>
      <trkpt lat="46.46983" lon="5.40315">
        <ele>507.79998779297</ele>
        <time>2020-09-12T11:09:03.000Z</time>
      </trkpt>
      <trkpt lat="46.46992" lon="5.40317">
        <ele>508.20001220703</ele>
        <time>2020-09-12T11:09:05.000Z</time>
      </trkpt>
      <trkpt lat="46.47001" lon="5.40319">
        <ele>508.60000610352</ele>
        <time>2020-09-12T11:09:07.000Z</time>
      </trkpt>
      <trkpt lat="46.4701" lon="5.40322">
        <ele>509</ele>
        <time>2020-09-12T11:09:09.000Z</time>
      </trkpt>
      <trkpt lat="46.47019" lon="5.40324">
        <ele>509.20001220703</ele>
        <time>2020-09-12T11:09:11.000Z</time>
      </trkpt>
      <trkpt lat="46.47028" lon="5.40325">
        <ele>509.39999389648</ele>
        <time>2020-09-12T11:09:13.000Z</time>
      </trkpt>
      <trkpt lat="46.47039" lon="5.40327">
        <ele>509.39999389648</ele>
        <time>2020-09-12T11:09:15.000Z</time>
      </trkpt>
      <trkpt lat="46.47044" lon="5.40327">
        <ele>509.39999389648</ele>
        <time>2020-09-12T11:09:16.000Z</time>
      </trkpt>
      <trkpt lat="46.4705" lon="5.40327">
        <ele>509.39999389648</ele>
        <time>2020-09-12T11:09:17.000Z</time>
      </trkpt>
      <trkpt lat="46.47063" lon="5.40328">
        <ele>509.39999389648</ele>
        <time>2020-09-12T11:09:19.000Z</time>
      </trkpt>
      <trkpt lat="46.47077" lon="5.4033">
        <ele>509.39999389648</ele>
        <time>2020-09-12T11:09:21.000Z</time>
      </trkpt>
      <trkpt lat="46.47091" lon="5.40331">
        <ele>509.20001220703</ele>
        <time>2020-09-12T11:09:23.000Z</time>
      </trkpt>
      <trkpt lat="46.47105" lon="5.40333">
        <ele>508.79998779297</ele>
        <time>2020-09-12T11:09:25.000Z</time>
      </trkpt>
      <trkpt lat="46.4712" lon="5.40335">
        <ele>507.79998779297</ele>
        <time>2020-09-12T11:09:27.000Z</time>
      </trkpt>
      <trkpt lat="46.47127" lon="5.40337">
        <ele>507.20001220703</ele>
        <time>2020-09-12T11:09:28.000Z</time>
      </trkpt>
      <trkpt lat="46.47135" lon="5.40338">
        <ele>506.79998779297</ele>
        <time>2020-09-12T11:09:29.000Z</time>
      </trkpt>
      <trkpt lat="46.4715" lon="5.40341">
        <ele>506</ele>
        <time>2020-09-12T11:09:31.000Z</time>
      </trkpt>
      <trkpt lat="46.47166" lon="5.40346">
        <ele>505.20001220703</ele>
        <time>2020-09-12T11:09:33.000Z</time>
      </trkpt>
      <trkpt lat="46.47174" lon="5.40349">
        <ele>504.79998779297</ele>
        <time>2020-09-12T11:09:34.000Z</time>
      </trkpt>
      <trkpt lat="46.47182" lon="5.40352">
        <ele>504.39999389648</ele>
        <time>2020-09-12T11:09:35.000Z</time>
      </trkpt>
      <trkpt lat="46.4719" lon="5.40357">
        <ele>504.20001220703</ele>
        <time>2020-09-12T11:09:36.000Z</time>
      </trkpt>
      <trkpt lat="46.47197" lon="5.40363">
        <ele>503.79998779297</ele>
        <time>2020-09-12T11:09:37.000Z</time>
      </trkpt>
      <trkpt lat="46.47204" lon="5.40371">
        <ele>503.39999389648</ele>
        <time>2020-09-12T11:09:38.000Z</time>
      </trkpt>
      <trkpt lat="46.47211" lon="5.4038">
        <ele>502.60000610352</ele>
        <time>2020-09-12T11:09:39.000Z</time>
      </trkpt>
      <trkpt lat="46.47217" lon="5.40389">
        <ele>501.79998779297</ele>
        <time>2020-09-12T11:09:40.000Z</time>
      </trkpt>
      <trkpt lat="46.47225" lon="5.40398">
        <ele>501.39999389648</ele>
        <time>2020-09-12T11:09:41.000Z</time>
      </trkpt>
      <trkpt lat="46.47233" lon="5.40406">
        <ele>500.79998779297</ele>
        <time>2020-09-12T11:09:42.000Z</time>
      </trkpt>
      <trkpt lat="46.47242" lon="5.40412">
        <ele>500.60000610352</ele>
        <time>2020-09-12T11:09:43.000Z</time>
      </trkpt>
      <trkpt lat="46.47261" lon="5.40423">
        <ele>499.79998779297</ele>
        <time>2020-09-12T11:09:45.000Z</time>
      </trkpt>
      <trkpt lat="46.47272" lon="5.40426">
        <ele>499.39999389648</ele>
        <time>2020-09-12T11:09:46.000Z</time>
      </trkpt>
      <trkpt lat="46.47282" lon="5.4043">
        <ele>498.60000610352</ele>
        <time>2020-09-12T11:09:47.000Z</time>
      </trkpt>
      <trkpt lat="46.47293" lon="5.40432">
        <ele>498</ele>
        <time>2020-09-12T11:09:48.000Z</time>
      </trkpt>
      <trkpt lat="46.47304" lon="5.40435">
        <ele>497.60000610352</ele>
        <time>2020-09-12T11:09:49.000Z</time>
      </trkpt>
      <trkpt lat="46.47315" lon="5.40436">
        <ele>496.79998779297</ele>
        <time>2020-09-12T11:09:50.000Z</time>
      </trkpt>
      <trkpt lat="46.47325" lon="5.40438">
        <ele>496.39999389648</ele>
        <time>2020-09-12T11:09:51.000Z</time>
      </trkpt>
      <trkpt lat="46.47336" lon="5.4044">
        <ele>495.60000610352</ele>
        <time>2020-09-12T11:09:52.000Z</time>
      </trkpt>
      <trkpt lat="46.47346" lon="5.40441">
        <ele>494.60000610352</ele>
        <time>2020-09-12T11:09:53.000Z</time>
      </trkpt>
      <trkpt lat="46.47356" lon="5.40442">
        <ele>493.60000610352</ele>
        <time>2020-09-12T11:09:54.000Z</time>
      </trkpt>
      <trkpt lat="46.47367" lon="5.40443">
        <ele>492.60000610352</ele>
        <time>2020-09-12T11:09:55.000Z</time>
      </trkpt>
      <trkpt lat="46.47377" lon="5.40444">
        <ele>491.79998779297</ele>
        <time>2020-09-12T11:09:56.000Z</time>
      </trkpt>
      <trkpt lat="46.47388" lon="5.40444">
        <ele>491.20001220703</ele>
        <time>2020-09-12T11:09:57.000Z</time>
      </trkpt>
      <trkpt lat="46.47409" lon="5.40444">
        <ele>490.60000610352</ele>
        <time>2020-09-12T11:09:59.000Z</time>
      </trkpt>
      <trkpt lat="46.47429" lon="5.40443">
        <ele>490</ele>
        <time>2020-09-12T11:10:01.000Z</time>
      </trkpt>
      <trkpt lat="46.4744" lon="5.40443">
        <ele>489.60000610352</ele>
        <time>2020-09-12T11:10:02.000Z</time>
      </trkpt>
      <trkpt lat="46.47451" lon="5.40443">
        <ele>489.20001220703</ele>
        <time>2020-09-12T11:10:03.000Z</time>
      </trkpt>
      <trkpt lat="46.47461" lon="5.40445">
        <ele>488.39999389648</ele>
        <time>2020-09-12T11:10:04.000Z</time>
      </trkpt>
      <trkpt lat="46.47472" lon="5.40448">
        <ele>487.79998779297</ele>
        <time>2020-09-12T11:10:05.000Z</time>
      </trkpt>
      <trkpt lat="46.47482" lon="5.40451">
        <ele>487.20001220703</ele>
        <time>2020-09-12T11:10:06.000Z</time>
      </trkpt>
      <trkpt lat="46.47491" lon="5.40457">
        <ele>486.39999389648</ele>
        <time>2020-09-12T11:10:07.000Z</time>
      </trkpt>
      <trkpt lat="46.47499" lon="5.40464">
        <ele>485.79998779297</ele>
        <time>2020-09-12T11:10:08.000Z</time>
      </trkpt>
      <trkpt lat="46.47507" lon="5.40473">
        <ele>485.39999389648</ele>
        <time>2020-09-12T11:10:09.000Z</time>
      </trkpt>
      <trkpt lat="46.47522" lon="5.40482">
        <ele>484.79998779297</ele>
        <time>2020-09-12T11:10:11.000Z</time>
      </trkpt>
      <trkpt lat="46.47532" lon="5.40472">
        <ele>484</ele>
        <time>2020-09-12T11:10:13.000Z</time>
      </trkpt>
      <trkpt lat="46.47534" lon="5.40458">
        <ele>483.60000610352</ele>
        <time>2020-09-12T11:10:14.000Z</time>
      </trkpt>
      <trkpt lat="46.47536" lon="5.40445">
        <ele>483</ele>
        <time>2020-09-12T11:10:15.000Z</time>
      </trkpt>
      <trkpt lat="46.47536" lon="5.40415">
        <ele>482.39999389648</ele>
        <time>2020-09-12T11:10:17.000Z</time>
      </trkpt>
      <trkpt lat="46.47533" lon="5.40401">
        <ele>482</ele>
        <time>2020-09-12T11:10:18.000Z</time>
      </trkpt>
      <trkpt lat="46.47529" lon="5.40388">
        <ele>480.79998779297</ele>
        <time>2020-09-12T11:10:19.000Z</time>
      </trkpt>
      <trkpt lat="46.47525" lon="5.40375">
        <ele>480.20001220703</ele>
        <time>2020-09-12T11:10:20.000Z</time>
      </trkpt>
      <trkpt lat="46.47522" lon="5.4036">
        <ele>479.39999389648</ele>
        <time>2020-09-12T11:10:21.000Z</time>
      </trkpt>
      <trkpt lat="46.47521" lon="5.40346">
        <ele>479</ele>
        <time>2020-09-12T11:10:22.000Z</time>
      </trkpt>
      <trkpt lat="46.47522" lon="5.40331">
        <ele>478.39999389648</ele>
        <time>2020-09-12T11:10:23.000Z</time>
      </trkpt>
      <trkpt lat="46.47526" lon="5.40318">
        <ele>477.79998779297</ele>
        <time>2020-09-12T11:10:24.000Z</time>
      </trkpt>
      <trkpt lat="46.47533" lon="5.40305">
        <ele>477.39999389648</ele>
        <time>2020-09-12T11:10:25.000Z</time>
      </trkpt>
      <trkpt lat="46.47549" lon="5.40284">
        <ele>475.79998779297</ele>
        <time>2020-09-12T11:10:27.000Z</time>
      </trkpt>
      <trkpt lat="46.47558" lon="5.40275">
        <ele>474.60000610352</ele>
        <time>2020-09-12T11:10:28.000Z</time>
      </trkpt>
      <trkpt lat="46.47568" lon="5.40267">
        <ele>473.79998779297</ele>
        <time>2020-09-12T11:10:29.000Z</time>
      </trkpt>
      <trkpt lat="46.47579" lon="5.40262">
        <ele>473.20001220703</ele>
        <time>2020-09-12T11:10:30.000Z</time>
      </trkpt>
      <trkpt lat="46.4759" lon="5.40259">
        <ele>472.79998779297</ele>
        <time>2020-09-12T11:10:31.000Z</time>
      </trkpt>
      <trkpt lat="46.47602" lon="5.40257">
        <ele>472.39999389648</ele>
        <time>2020-09-12T11:10:32.000Z</time>
      </trkpt>
      <trkpt lat="46.47613" lon="5.40255">
        <ele>472</ele>
        <time>2020-09-12T11:10:33.000Z</time>
      </trkpt>
      <trkpt lat="46.47624" lon="5.40253">
        <ele>471.39999389648</ele>
        <time>2020-09-12T11:10:34.000Z</time>
      </trkpt>
      <trkpt lat="46.47636" lon="5.40252">
        <ele>471</ele>
        <time>2020-09-12T11:10:35.000Z</time>
      </trkpt>
      <trkpt lat="46.47659" lon="5.40252">
        <ele>469.60000610352</ele>
        <time>2020-09-12T11:10:37.000Z</time>
      </trkpt>
      <trkpt lat="46.4767" lon="5.40253">
        <ele>469</ele>
        <time>2020-09-12T11:10:38.000Z</time>
      </trkpt>
      <trkpt lat="46.47681" lon="5.40251">
        <ele>468.60000610352</ele>
        <time>2020-09-12T11:10:39.000Z</time>
      </trkpt>
      <trkpt lat="46.47691" lon="5.40245">
        <ele>468</ele>
        <time>2020-09-12T11:10:40.000Z</time>
      </trkpt>
      <trkpt lat="46.47699" lon="5.40235">
        <ele>467.20001220703</ele>
        <time>2020-09-12T11:10:41.000Z</time>
      </trkpt>
      <trkpt lat="46.47705" lon="5.40223">
        <ele>466.60000610352</ele>
        <time>2020-09-12T11:10:42.000Z</time>
      </trkpt>
      <trkpt lat="46.47709" lon="5.40208">
        <ele>466</ele>
        <time>2020-09-12T11:10:43.000Z</time>
      </trkpt>
      <trkpt lat="46.47713" lon="5.40193">
        <ele>465.20001220703</ele>
        <time>2020-09-12T11:10:44.000Z</time>
      </trkpt>
      <trkpt lat="46.47719" lon="5.4018">
        <ele>464.60000610352</ele>
        <time>2020-09-12T11:10:45.000Z</time>
      </trkpt>
      <trkpt lat="46.47726" lon="5.40169">
        <ele>464.20001220703</ele>
        <time>2020-09-12T11:10:46.000Z</time>
      </trkpt>
      <trkpt lat="46.47735" lon="5.40159">
        <ele>464</ele>
        <time>2020-09-12T11:10:47.000Z</time>
      </trkpt>
      <trkpt lat="46.4775" lon="5.40136">
        <ele>463.39999389648</ele>
        <time>2020-09-12T11:10:49.000Z</time>
      </trkpt>
      <trkpt lat="46.47755" lon="5.40122">
        <ele>463.20001220703</ele>
        <time>2020-09-12T11:10:50.000Z</time>
      </trkpt>
      <trkpt lat="46.47759" lon="5.40107">
        <ele>463</ele>
        <time>2020-09-12T11:10:51.000Z</time>
      </trkpt>
      <trkpt lat="46.47761" lon="5.40074">
        <ele>462</ele>
        <time>2020-09-12T11:10:53.000Z</time>
      </trkpt>
      <trkpt lat="46.47761" lon="5.40057">
        <ele>461.39999389648</ele>
        <time>2020-09-12T11:10:54.000Z</time>
      </trkpt>
      <trkpt lat="46.47762" lon="5.40039">
        <ele>460.60000610352</ele>
        <time>2020-09-12T11:10:55.000Z</time>
      </trkpt>
      <trkpt lat="46.47765" lon="5.40023">
        <ele>459.79998779297</ele>
        <time>2020-09-12T11:10:56.000Z</time>
      </trkpt>
      <trkpt lat="46.47771" lon="5.40012">
        <ele>458.79998779297</ele>
        <time>2020-09-12T11:10:57.000Z</time>
      </trkpt>
      <trkpt lat="46.47779" lon="5.40003">
        <ele>458.20001220703</ele>
        <time>2020-09-12T11:10:58.000Z</time>
      </trkpt>
      <trkpt lat="46.47787" lon="5.39998">
        <ele>457.20001220703</ele>
        <time>2020-09-12T11:10:59.000Z</time>
      </trkpt>
      <trkpt lat="46.47797" lon="5.39996">
        <ele>456.60000610352</ele>
        <time>2020-09-12T11:11:00.000Z</time>
      </trkpt>
      <trkpt lat="46.47806" lon="5.39995">
        <ele>456.20001220703</ele>
        <time>2020-09-12T11:11:01.000Z</time>
      </trkpt>
      <trkpt lat="46.47817" lon="5.39991">
        <ele>455.60000610352</ele>
        <time>2020-09-12T11:11:02.000Z</time>
      </trkpt>
      <trkpt lat="46.47827" lon="5.39986">
        <ele>455</ele>
        <time>2020-09-12T11:11:03.000Z</time>
      </trkpt>
      <trkpt lat="46.47848" lon="5.39974">
        <ele>454.39999389648</ele>
        <time>2020-09-12T11:11:05.000Z</time>
      </trkpt>
      <trkpt lat="46.4787" lon="5.39961">
        <ele>453.20001220703</ele>
        <time>2020-09-12T11:11:07.000Z</time>
      </trkpt>
      <trkpt lat="46.47892" lon="5.39948">
        <ele>451.60000610352</ele>
        <time>2020-09-12T11:11:09.000Z</time>
      </trkpt>
      <trkpt lat="46.47914" lon="5.39934">
        <ele>450.60000610352</ele>
        <time>2020-09-12T11:11:11.000Z</time>
      </trkpt>
      <trkpt lat="46.47936" lon="5.39921">
        <ele>449.20001220703</ele>
        <time>2020-09-12T11:11:13.000Z</time>
      </trkpt>
      <trkpt lat="46.47958" lon="5.3991">
        <ele>447.60000610352</ele>
        <time>2020-09-12T11:11:15.000Z</time>
      </trkpt>
      <trkpt lat="46.47969" lon="5.39904">
        <ele>447.20001220703</ele>
        <time>2020-09-12T11:11:16.000Z</time>
      </trkpt>
      <trkpt lat="46.47979" lon="5.39899">
        <ele>446.79998779297</ele>
        <time>2020-09-12T11:11:17.000Z</time>
      </trkpt>
      <trkpt lat="46.4799" lon="5.39895">
        <ele>445.60000610352</ele>
        <time>2020-09-12T11:11:18.000Z</time>
      </trkpt>
      <trkpt lat="46.48" lon="5.3989">
        <ele>445</ele>
        <time>2020-09-12T11:11:19.000Z</time>
      </trkpt>
      <trkpt lat="46.4801" lon="5.39888">
        <ele>444.39999389648</ele>
        <time>2020-09-12T11:11:20.000Z</time>
      </trkpt>
      <trkpt lat="46.4802" lon="5.39887">
        <ele>444.20001220703</ele>
        <time>2020-09-12T11:11:21.000Z</time>
      </trkpt>
      <trkpt lat="46.48039" lon="5.39895">
        <ele>444</ele>
        <time>2020-09-12T11:11:23.000Z</time>
      </trkpt>
      <trkpt lat="46.48048" lon="5.399">
        <ele>443.79998779297</ele>
        <time>2020-09-12T11:11:24.000Z</time>
      </trkpt>
      <trkpt lat="46.48057" lon="5.39905">
        <ele>443.79998779297</ele>
        <time>2020-09-12T11:11:25.000Z</time>
      </trkpt>
      <trkpt lat="46.48066" lon="5.39909">
        <ele>443.79998779297</ele>
        <time>2020-09-12T11:11:26.000Z</time>
      </trkpt>
      <trkpt lat="46.48074" lon="5.39912">
        <ele>443.79998779297</ele>
        <time>2020-09-12T11:11:27.000Z</time>
      </trkpt>
      <trkpt lat="46.48083" lon="5.39913">
        <ele>443.79998779297</ele>
        <time>2020-09-12T11:11:28.000Z</time>
      </trkpt>
      <trkpt lat="46.48091" lon="5.39912">
        <ele>443.79998779297</ele>
        <time>2020-09-12T11:11:29.000Z</time>
      </trkpt>
      <trkpt lat="46.481" lon="5.39911">
        <ele>443.79998779297</ele>
        <time>2020-09-12T11:11:30.000Z</time>
      </trkpt>
      <trkpt lat="46.48108" lon="5.3991">
        <ele>443.79998779297</ele>
        <time>2020-09-12T11:11:31.000Z</time>
      </trkpt>
      <trkpt lat="46.48125" lon="5.39905">
        <ele>444</ele>
        <time>2020-09-12T11:11:33.000Z</time>
      </trkpt>
      <trkpt lat="46.48142" lon="5.39898">
        <ele>444.60000610352</ele>
        <time>2020-09-12T11:11:35.000Z</time>
      </trkpt>
      <trkpt lat="46.48158" lon="5.3989">
        <ele>445</ele>
        <time>2020-09-12T11:11:37.000Z</time>
      </trkpt>
      <trkpt lat="46.48173" lon="5.3988">
        <ele>445</ele>
        <time>2020-09-12T11:11:39.000Z</time>
      </trkpt>
      <trkpt lat="46.48188" lon="5.39867">
        <ele>445.20001220703</ele>
        <time>2020-09-12T11:11:41.000Z</time>
      </trkpt>
      <trkpt lat="46.48193" lon="5.39858">
        <ele>445.39999389648</ele>
        <time>2020-09-12T11:11:42.000Z</time>
      </trkpt>
      <trkpt lat="46.48196" lon="5.39847">
        <ele>445.39999389648</ele>
        <time>2020-09-12T11:11:43.000Z</time>
      </trkpt>
      <trkpt lat="46.48196" lon="5.39836">
        <ele>445.39999389648</ele>
        <time>2020-09-12T11:11:44.000Z</time>
      </trkpt>
      <trkpt lat="46.48195" lon="5.39824">
        <ele>445.39999389648</ele>
        <time>2020-09-12T11:11:45.000Z</time>
      </trkpt>
      <trkpt lat="46.48193" lon="5.39812">
        <ele>445.39999389648</ele>
        <time>2020-09-12T11:11:46.000Z</time>
      </trkpt>
      <trkpt lat="46.48191" lon="5.398">
        <ele>445.39999389648</ele>
        <time>2020-09-12T11:11:47.000Z</time>
      </trkpt>
      <trkpt lat="46.48189" lon="5.39787">
        <ele>445.20001220703</ele>
        <time>2020-09-12T11:11:48.000Z</time>
      </trkpt>
      <trkpt lat="46.48187" lon="5.39775">
        <ele>445.20001220703</ele>
        <time>2020-09-12T11:11:49.000Z</time>
      </trkpt>
      <trkpt lat="46.48183" lon="5.39751">
        <ele>445</ele>
        <time>2020-09-12T11:11:51.000Z</time>
      </trkpt>
      <trkpt lat="46.4818" lon="5.39727">
        <ele>445</ele>
        <time>2020-09-12T11:11:53.000Z</time>
      </trkpt>
      <trkpt lat="46.48178" lon="5.39702">
        <ele>444.79998779297</ele>
        <time>2020-09-12T11:11:55.000Z</time>
      </trkpt>
      <trkpt lat="46.48177" lon="5.39689">
        <ele>444.79998779297</ele>
        <time>2020-09-12T11:11:56.000Z</time>
      </trkpt>
      <trkpt lat="46.48178" lon="5.39676">
        <ele>444.79998779297</ele>
        <time>2020-09-12T11:11:57.000Z</time>
      </trkpt>
      <trkpt lat="46.48181" lon="5.39649">
        <ele>444.60000610352</ele>
        <time>2020-09-12T11:11:59.000Z</time>
      </trkpt>
      <trkpt lat="46.48185" lon="5.39635">
        <ele>444.39999389648</ele>
        <time>2020-09-12T11:12:00.000Z</time>
      </trkpt>
      <trkpt lat="46.4819" lon="5.39622">
        <ele>444.20001220703</ele>
        <time>2020-09-12T11:12:01.000Z</time>
      </trkpt>
      <trkpt lat="46.48201" lon="5.39595">
        <ele>443.60000610352</ele>
        <time>2020-09-12T11:12:03.000Z</time>
      </trkpt>
      <trkpt lat="46.48206" lon="5.39581">
        <ele>443.20001220703</ele>
        <time>2020-09-12T11:12:04.000Z</time>
      </trkpt>
      <trkpt lat="46.4821" lon="5.39566">
        <ele>442.79998779297</ele>
        <time>2020-09-12T11:12:05.000Z</time>
      </trkpt>
      <trkpt lat="46.48217" lon="5.39534">
        <ele>441.60000610352</ele>
        <time>2020-09-12T11:12:07.000Z</time>
      </trkpt>
      <trkpt lat="46.48221" lon="5.39518">
        <ele>440.60000610352</ele>
        <time>2020-09-12T11:12:08.000Z</time>
      </trkpt>
      <trkpt lat="46.48225" lon="5.39503">
        <ele>439.60000610352</ele>
        <time>2020-09-12T11:12:09.000Z</time>
      </trkpt>
      <trkpt lat="46.48237" lon="5.3948">
        <ele>437.79998779297</ele>
        <time>2020-09-12T11:12:11.000Z</time>
      </trkpt>
      <trkpt lat="46.48245" lon="5.39472">
        <ele>436.60000610352</ele>
        <time>2020-09-12T11:12:12.000Z</time>
      </trkpt>
      <trkpt lat="46.48253" lon="5.39467">
        <ele>435.20001220703</ele>
        <time>2020-09-12T11:12:13.000Z</time>
      </trkpt>
      <trkpt lat="46.48261" lon="5.39465">
        <ele>434.20001220703</ele>
        <time>2020-09-12T11:12:14.000Z</time>
      </trkpt>
      <trkpt lat="46.48269" lon="5.39465">
        <ele>433.39999389648</ele>
        <time>2020-09-12T11:12:15.000Z</time>
      </trkpt>
      <trkpt lat="46.48278" lon="5.39464">
        <ele>431.20001220703</ele>
        <time>2020-09-12T11:12:16.000Z</time>
      </trkpt>
      <trkpt lat="46.48286" lon="5.39461">
        <ele>430</ele>
        <time>2020-09-12T11:12:17.000Z</time>
      </trkpt>
      <trkpt lat="46.48292" lon="5.39452">
        <ele>428.79998779297</ele>
        <time>2020-09-12T11:12:18.000Z</time>
      </trkpt>
      <trkpt lat="46.48296" lon="5.39439">
        <ele>428.20001220703</ele>
        <time>2020-09-12T11:12:19.000Z</time>
      </trkpt>
      <trkpt lat="46.48299" lon="5.39426">
        <ele>427.60000610352</ele>
        <time>2020-09-12T11:12:20.000Z</time>
      </trkpt>
      <trkpt lat="46.48302" lon="5.39413">
        <ele>427.20001220703</ele>
        <time>2020-09-12T11:12:21.000Z</time>
      </trkpt>
      <trkpt lat="46.48311" lon="5.39385">
        <ele>426.20001220703</ele>
        <time>2020-09-12T11:12:23.000Z</time>
      </trkpt>
      <trkpt lat="46.48317" lon="5.39371">
        <ele>425.60000610352</ele>
        <time>2020-09-12T11:12:24.000Z</time>
      </trkpt>
      <trkpt lat="46.48324" lon="5.39358">
        <ele>424.60000610352</ele>
        <time>2020-09-12T11:12:25.000Z</time>
      </trkpt>
      <trkpt lat="46.48339" lon="5.39336">
        <ele>423.60000610352</ele>
        <time>2020-09-12T11:12:27.000Z</time>
      </trkpt>
      <trkpt lat="46.48357" lon="5.39323">
        <ele>422.20001220703</ele>
        <time>2020-09-12T11:12:29.000Z</time>
      </trkpt>
      <trkpt lat="46.48367" lon="5.3932">
        <ele>421.60000610352</ele>
        <time>2020-09-12T11:12:30.000Z</time>
      </trkpt>
      <trkpt lat="46.48378" lon="5.3932">
        <ele>420.39999389648</ele>
        <time>2020-09-12T11:12:31.000Z</time>
      </trkpt>
      <trkpt lat="46.484" lon="5.39325">
        <ele>418.60000610352</ele>
        <time>2020-09-12T11:12:33.000Z</time>
      </trkpt>
      <trkpt lat="46.48412" lon="5.39328">
        <ele>417.60000610352</ele>
        <time>2020-09-12T11:12:34.000Z</time>
      </trkpt>
      <trkpt lat="46.48423" lon="5.3933">
        <ele>416.79998779297</ele>
        <time>2020-09-12T11:12:35.000Z</time>
      </trkpt>
      <trkpt lat="46.48435" lon="5.39329">
        <ele>416</ele>
        <time>2020-09-12T11:12:36.000Z</time>
      </trkpt>
      <trkpt lat="46.48447" lon="5.39326">
        <ele>414.79998779297</ele>
        <time>2020-09-12T11:12:37.000Z</time>
      </trkpt>
      <trkpt lat="46.48459" lon="5.39322">
        <ele>413.39999389648</ele>
        <time>2020-09-12T11:12:38.000Z</time>
      </trkpt>
      <trkpt lat="46.48472" lon="5.39319">
        <ele>412.39999389648</ele>
        <time>2020-09-12T11:12:39.000Z</time>
      </trkpt>
      <trkpt lat="46.48497" lon="5.39313">
        <ele>410.60000610352</ele>
        <time>2020-09-12T11:12:41.000Z</time>
      </trkpt>
      <trkpt lat="46.4851" lon="5.3931">
        <ele>409.79998779297</ele>
        <time>2020-09-12T11:12:42.000Z</time>
      </trkpt>
      <trkpt lat="46.48523" lon="5.39306">
        <ele>408.79998779297</ele>
        <time>2020-09-12T11:12:43.000Z</time>
      </trkpt>
      <trkpt lat="46.48536" lon="5.39302">
        <ele>406.79998779297</ele>
        <time>2020-09-12T11:12:44.000Z</time>
      </trkpt>
      <trkpt lat="46.48549" lon="5.39299">
        <ele>405.79998779297</ele>
        <time>2020-09-12T11:12:45.000Z</time>
      </trkpt>
      <trkpt lat="46.48563" lon="5.39297">
        <ele>404.60000610352</ele>
        <time>2020-09-12T11:12:46.000Z</time>
      </trkpt>
      <trkpt lat="46.48577" lon="5.39294">
        <ele>403.60000610352</ele>
        <time>2020-09-12T11:12:47.000Z</time>
      </trkpt>
      <trkpt lat="46.48591" lon="5.39291">
        <ele>402.60000610352</ele>
        <time>2020-09-12T11:12:48.000Z</time>
      </trkpt>
      <trkpt lat="46.48605" lon="5.39288">
        <ele>401.20001220703</ele>
        <time>2020-09-12T11:12:49.000Z</time>
      </trkpt>
      <trkpt lat="46.48632" lon="5.39285">
        <ele>399.39999389648</ele>
        <time>2020-09-12T11:12:51.000Z</time>
      </trkpt>
      <trkpt lat="46.48645" lon="5.39285">
        <ele>398.20001220703</ele>
        <time>2020-09-12T11:12:52.000Z</time>
      </trkpt>
      <trkpt lat="46.48658" lon="5.39286">
        <ele>397.60000610352</ele>
        <time>2020-09-12T11:12:53.000Z</time>
      </trkpt>
      <trkpt lat="46.4867" lon="5.39288">
        <ele>397</ele>
        <time>2020-09-12T11:12:54.000Z</time>
      </trkpt>
      <trkpt lat="46.4868" lon="5.39292">
        <ele>395.60000610352</ele>
        <time>2020-09-12T11:12:55.000Z</time>
      </trkpt>
      <trkpt lat="46.4869" lon="5.39297">
        <ele>393.79998779297</ele>
        <time>2020-09-12T11:12:56.000Z</time>
      </trkpt>
      <trkpt lat="46.48699" lon="5.39303">
        <ele>392.60000610352</ele>
        <time>2020-09-12T11:12:57.000Z</time>
      </trkpt>
      <trkpt lat="46.48707" lon="5.39309">
        <ele>391.79998779297</ele>
        <time>2020-09-12T11:12:58.000Z</time>
      </trkpt>
      <trkpt lat="46.48715" lon="5.39313">
        <ele>390.79998779297</ele>
        <time>2020-09-12T11:12:59.000Z</time>
      </trkpt>
      <trkpt lat="46.48728" lon="5.39308">
        <ele>389.79998779297</ele>
        <time>2020-09-12T11:13:01.000Z</time>
      </trkpt>
      <trkpt lat="46.48728" lon="5.39287">
        <ele>388.79998779297</ele>
        <time>2020-09-12T11:13:03.000Z</time>
      </trkpt>
      <trkpt lat="46.48724" lon="5.39276">
        <ele>388.20001220703</ele>
        <time>2020-09-12T11:13:04.000Z</time>
      </trkpt>
      <trkpt lat="46.48718" lon="5.39265">
        <ele>387.79998779297</ele>
        <time>2020-09-12T11:13:05.000Z</time>
      </trkpt>
      <trkpt lat="46.48711" lon="5.39255">
        <ele>387.60000610352</ele>
        <time>2020-09-12T11:13:06.000Z</time>
      </trkpt>
      <trkpt lat="46.48703" lon="5.39243">
        <ele>387.39999389648</ele>
        <time>2020-09-12T11:13:07.000Z</time>
      </trkpt>
      <trkpt lat="46.48687" lon="5.39219">
        <ele>387</ele>
        <time>2020-09-12T11:13:09.000Z</time>
      </trkpt>
      <trkpt lat="46.4867" lon="5.39193">
        <ele>385.79998779297</ele>
        <time>2020-09-12T11:13:11.000Z</time>
      </trkpt>
      <trkpt lat="46.48653" lon="5.39166">
        <ele>383.20001220703</ele>
        <time>2020-09-12T11:13:13.000Z</time>
      </trkpt>
      <trkpt lat="46.48644" lon="5.39153">
        <ele>382.20001220703</ele>
        <time>2020-09-12T11:13:14.000Z</time>
      </trkpt>
      <trkpt lat="46.48634" lon="5.39141">
        <ele>381</ele>
        <time>2020-09-12T11:13:15.000Z</time>
      </trkpt>
      <trkpt lat="46.48623" lon="5.3913">
        <ele>380</ele>
        <time>2020-09-12T11:13:16.000Z</time>
      </trkpt>
      <trkpt lat="46.48612" lon="5.3912">
        <ele>378.79998779297</ele>
        <time>2020-09-12T11:13:17.000Z</time>
      </trkpt>
      <trkpt lat="46.48599" lon="5.3911">
        <ele>377.20001220703</ele>
        <time>2020-09-12T11:13:18.000Z</time>
      </trkpt>
      <trkpt lat="46.48587" lon="5.391">
        <ele>376</ele>
        <time>2020-09-12T11:13:19.000Z</time>
      </trkpt>
      <trkpt lat="46.48574" lon="5.39091">
        <ele>374.79998779297</ele>
        <time>2020-09-12T11:13:20.000Z</time>
      </trkpt>
      <trkpt lat="46.48561" lon="5.39082">
        <ele>373.39999389648</ele>
        <time>2020-09-12T11:13:21.000Z</time>
      </trkpt>
      <trkpt lat="46.48547" lon="5.39073">
        <ele>371.79998779297</ele>
        <time>2020-09-12T11:13:22.000Z</time>
      </trkpt>
      <trkpt lat="46.48534" lon="5.39065">
        <ele>370.39999389648</ele>
        <time>2020-09-12T11:13:23.000Z</time>
      </trkpt>
      <trkpt lat="46.48521" lon="5.39056">
        <ele>369.39999389648</ele>
        <time>2020-09-12T11:13:24.000Z</time>
      </trkpt>
      <trkpt lat="46.48509" lon="5.39042">
        <ele>368.20001220703</ele>
        <time>2020-09-12T11:13:25.000Z</time>
      </trkpt>
      <trkpt lat="46.48501" lon="5.39025">
        <ele>367</ele>
        <time>2020-09-12T11:13:26.000Z</time>
      </trkpt>
      <trkpt lat="46.48494" lon="5.39005">
        <ele>365.60000610352</ele>
        <time>2020-09-12T11:13:27.000Z</time>
      </trkpt>
      <trkpt lat="46.48489" lon="5.38984">
        <ele>364.20001220703</ele>
        <time>2020-09-12T11:13:28.000Z</time>
      </trkpt>
      <trkpt lat="46.48483" lon="5.38965">
        <ele>363</ele>
        <time>2020-09-12T11:13:29.000Z</time>
      </trkpt>
      <trkpt lat="46.48475" lon="5.38948">
        <ele>361.60000610352</ele>
        <time>2020-09-12T11:13:30.000Z</time>
      </trkpt>
      <trkpt lat="46.48467" lon="5.38933">
        <ele>360.20001220703</ele>
        <time>2020-09-12T11:13:31.000Z</time>
      </trkpt>
      <trkpt lat="46.4846" lon="5.38918">
        <ele>358.60000610352</ele>
        <time>2020-09-12T11:13:32.000Z</time>
      </trkpt>
      <trkpt lat="46.48455" lon="5.38904">
        <ele>357.20001220703</ele>
        <time>2020-09-12T11:13:33.000Z</time>
      </trkpt>
      <trkpt lat="46.48453" lon="5.3889">
        <ele>355.79998779297</ele>
        <time>2020-09-12T11:13:34.000Z</time>
      </trkpt>
      <trkpt lat="46.48455" lon="5.38875">
        <ele>354.60000610352</ele>
        <time>2020-09-12T11:13:35.000Z</time>
      </trkpt>
      <trkpt lat="46.4846" lon="5.38863">
        <ele>353.39999389648</ele>
        <time>2020-09-12T11:13:36.000Z</time>
      </trkpt>
      <trkpt lat="46.48467" lon="5.38853">
        <ele>352.79998779297</ele>
        <time>2020-09-12T11:13:37.000Z</time>
      </trkpt>
      <trkpt lat="46.48476" lon="5.38844">
        <ele>352.39999389648</ele>
        <time>2020-09-12T11:13:38.000Z</time>
      </trkpt>
      <trkpt lat="46.48486" lon="5.38838">
        <ele>352</ele>
        <time>2020-09-12T11:13:39.000Z</time>
      </trkpt>
      <trkpt lat="46.48495" lon="5.38831">
        <ele>351.60000610352</ele>
        <time>2020-09-12T11:13:40.000Z</time>
      </trkpt>
      <trkpt lat="46.48506" lon="5.38825">
        <ele>351.39999389648</ele>
        <time>2020-09-12T11:13:41.000Z</time>
      </trkpt>
      <trkpt lat="46.48516" lon="5.38818">
        <ele>351.20001220703</ele>
        <time>2020-09-12T11:13:42.000Z</time>
      </trkpt>
      <trkpt lat="46.48526" lon="5.38811">
        <ele>351</ele>
        <time>2020-09-12T11:13:43.000Z</time>
      </trkpt>
      <trkpt lat="46.48547" lon="5.38797">
        <ele>350.60000610352</ele>
        <time>2020-09-12T11:13:45.000Z</time>
      </trkpt>
      <trkpt lat="46.48558" lon="5.38789">
        <ele>350</ele>
        <time>2020-09-12T11:13:46.000Z</time>
      </trkpt>
      <trkpt lat="46.48568" lon="5.38783">
        <ele>349</ele>
        <time>2020-09-12T11:13:47.000Z</time>
      </trkpt>
      <trkpt lat="46.48577" lon="5.38777">
        <ele>348.20001220703</ele>
        <time>2020-09-12T11:13:48.000Z</time>
      </trkpt>
      <trkpt lat="46.48585" lon="5.38774">
        <ele>347.39999389648</ele>
        <time>2020-09-12T11:13:49.000Z</time>
      </trkpt>
      <trkpt lat="46.48593" lon="5.38774">
        <ele>346.39999389648</ele>
        <time>2020-09-12T11:13:50.000Z</time>
      </trkpt>
      <trkpt lat="46.486" lon="5.38777">
        <ele>345.60000610352</ele>
        <time>2020-09-12T11:13:51.000Z</time>
      </trkpt>
      <trkpt lat="46.48606" lon="5.38778">
        <ele>344.79998779297</ele>
        <time>2020-09-12T11:13:52.000Z</time>
      </trkpt>
      <trkpt lat="46.48612" lon="5.38776">
        <ele>344.20001220703</ele>
        <time>2020-09-12T11:13:53.000Z</time>
      </trkpt>
      <trkpt lat="46.48617" lon="5.3877">
        <ele>343.39999389648</ele>
        <time>2020-09-12T11:13:54.000Z</time>
      </trkpt>
      <trkpt lat="46.48622" lon="5.38761">
        <ele>342.60000610352</ele>
        <time>2020-09-12T11:13:55.000Z</time>
      </trkpt>
      <trkpt lat="46.48627" lon="5.38751">
        <ele>342.20001220703</ele>
        <time>2020-09-12T11:13:56.000Z</time>
      </trkpt>
      <trkpt lat="46.48631" lon="5.38739">
        <ele>341.79998779297</ele>
        <time>2020-09-12T11:13:57.000Z</time>
      </trkpt>
      <trkpt lat="46.48635" lon="5.38726">
        <ele>341.60000610352</ele>
        <time>2020-09-12T11:13:58.000Z</time>
      </trkpt>
      <trkpt lat="46.48639" lon="5.38713">
        <ele>341.60000610352</ele>
        <time>2020-09-12T11:13:59.000Z</time>
      </trkpt>
      <trkpt lat="46.4864" lon="5.38699">
        <ele>341.20001220703</ele>
        <time>2020-09-12T11:14:00.000Z</time>
      </trkpt>
      <trkpt lat="46.48641" lon="5.38684">
        <ele>341</ele>
        <time>2020-09-12T11:14:01.000Z</time>
      </trkpt>
      <trkpt lat="46.48639" lon="5.38654">
        <ele>339.60000610352</ele>
        <time>2020-09-12T11:14:03.000Z</time>
      </trkpt>
      <trkpt lat="46.48636" lon="5.38639">
        <ele>338.60000610352</ele>
        <time>2020-09-12T11:14:04.000Z</time>
      </trkpt>
      <trkpt lat="46.48633" lon="5.38624">
        <ele>337.60000610352</ele>
        <time>2020-09-12T11:14:05.000Z</time>
      </trkpt>
      <trkpt lat="46.48626" lon="5.38595">
        <ele>336</ele>
        <time>2020-09-12T11:14:07.000Z</time>
      </trkpt>
      <trkpt lat="46.48622" lon="5.3858">
        <ele>335</ele>
        <time>2020-09-12T11:14:08.000Z</time>
      </trkpt>
      <trkpt lat="46.48618" lon="5.38564">
        <ele>334.20001220703</ele>
        <time>2020-09-12T11:14:09.000Z</time>
      </trkpt>
      <trkpt lat="46.4861" lon="5.38534">
        <ele>332.39999389648</ele>
        <time>2020-09-12T11:14:11.000Z</time>
      </trkpt>
      <trkpt lat="46.48601" lon="5.38502">
        <ele>330.79998779297</ele>
        <time>2020-09-12T11:14:13.000Z</time>
      </trkpt>
    </trkseg>
  </trk>
</gpx>